<?xml version='1.0' encoding='UTF-8'?><gpx version="1.1" creator="JPX - https://github.com/jenetics/jpx" xmlns="http://www.topografix.com/GPX/1/1"><trk><trkseg><trkpt lat="14.558290721104276" lon="120.99537678368746"><ele>9.0</ele><time>2026-04-16T03:20:33.964Z</time></trkpt><trkpt lat="14.558301337552985" lon="120.99547049933425"><ele>9.0</ele><time>2026-04-16T03:20:42.964Z</time></trkpt><trkpt lat="14.55829031141424" lon="120.99554830055153"><ele>9.0</ele><time>2026-04-16T03:20:45.964Z</time></trkpt><trkpt lat="14.558227464876902" lon="120.99559466930057"><ele>9.0</ele><time>2026-04-16T03:20:48.964Z</time></trkpt><trkpt lat="14.558148228584328" lon="120.99566885141103"><ele>9.0</ele><time>2026-04-16T03:20:51.964Z</time></trkpt><trkpt lat="14.558081026813168" lon="120.9957351243334"><ele>9.0</ele><time>2026-04-16T03:20:55.017Z</time></trkpt><trkpt lat="14.558011212989951" lon="120.995797667777"><ele>9.0</ele><time>2026-04-16T03:20:58.017Z</time></trkpt><trkpt lat="14.557942596095836" lon="120.99585970731795"><ele>9.0</ele><time>2026-04-16T03:21:01.002Z</time></trkpt><trkpt lat="14.558130975046808" lon="120.9956403943279"><ele>9.0</ele><time>2026-04-16T03:21:03.003Z</time></trkpt><trkpt lat="14.55810136921492" lon="120.99618042751415"><ele>9.0</ele><time>2026-04-16T03:22:02.965Z</time></trkpt><trkpt lat="14.558093170246236" lon="120.99610433794696"><ele>9.0</ele><time>2026-04-16T03:22:06.965Z</time></trkpt><trkpt lat="14.558121634672627" lon="120.99619160020052"><ele>9.0</ele><time>2026-04-16T03:22:09.965Z</time></trkpt><trkpt lat="14.558058801470732" lon="120.99621831529262"><ele>9.0</ele><time>2026-04-16T03:22:11.964Z</time></trkpt><trkpt lat="14.557947736142744" lon="120.99623151808127"><ele>9.0</ele><time>2026-04-16T03:22:13.964Z</time></trkpt><trkpt lat="14.557830107682877" lon="120.99625535185818"><ele>9.285714285714286</ele><time>2026-04-16T03:22:15.968Z</time></trkpt><trkpt lat="14.557766126177304" lon="120.99627032423398"><ele>9.571428571428571</ele><time>2026-04-16T03:22:16.971Z</time></trkpt><trkpt lat="14.557701574959292" lon="120.99628594478527"><ele>9.857142857142858</ele><time>2026-04-16T03:22:17.973Z</time></trkpt><trkpt lat="14.5576260144211" lon="120.99631191949378"><ele>10.142857142857142</ele><time>2026-04-16T03:22:18.974Z</time></trkpt><trkpt lat="14.557550551696027" lon="120.99632315665743"><ele>10.428571428571429</ele><time>2026-04-16T03:22:19.976Z</time></trkpt><trkpt lat="14.557469095204278" lon="120.99633459093702"><ele>10.714285714285715</ele><time>2026-04-16T03:22:20.978Z</time></trkpt><trkpt lat="14.557393884220511" lon="120.99635809944023"><ele>11.0</ele><time>2026-04-16T03:22:21.979Z</time></trkpt><trkpt lat="14.557298668721437" lon="120.99639056143302"><ele>11.0</ele><time>2026-04-16T03:22:22.981Z</time></trkpt><trkpt lat="14.557203601558195" lon="120.99640885968833"><ele>11.0</ele><time>2026-04-16T03:22:23.982Z</time></trkpt><trkpt lat="14.557120824808681" lon="120.99644765043341"><ele>11.0</ele><time>2026-04-16T03:22:24.984Z</time></trkpt><trkpt lat="14.557025046531498" lon="120.9964692106821"><ele>11.0</ele><time>2026-04-16T03:22:25.985Z</time></trkpt><trkpt lat="14.556918618346694" lon="120.99647594139029"><ele>11.0</ele><time>2026-04-16T03:22:26.986Z</time></trkpt><trkpt lat="14.556832170173854" lon="120.99648027250832"><ele>10.4</ele><time>2026-04-16T03:22:27.987Z</time></trkpt><trkpt lat="14.556742986867036" lon="120.99651193038723"><ele>9.8</ele><time>2026-04-16T03:22:28.988Z</time></trkpt><trkpt lat="14.556650280525723" lon="120.99652818553692"><ele>9.200000000000001</ele><time>2026-04-16T03:22:29.988Z</time></trkpt><trkpt lat="14.556536708502511" lon="120.99654835020606"><ele>8.600000000000001</ele><time>2026-04-16T03:22:30.989Z</time></trkpt><trkpt lat="14.556446331730848" lon="120.99657012138404"><ele>8.0</ele><time>2026-04-16T03:22:31.99Z</time></trkpt><trkpt lat="14.556361918327474" lon="120.99658638132016"><ele>7.999999999999999</ele><time>2026-04-16T03:22:32.991Z</time></trkpt><trkpt lat="14.55628216919321" lon="120.99660552675175"><ele>8.0</ele><time>2026-04-16T03:22:33.991Z</time></trkpt><trkpt lat="14.556217782753455" lon="120.99660721445547"><ele>8.0</ele><time>2026-04-16T03:22:34.992Z</time></trkpt><trkpt lat="14.556145959970815" lon="120.99662246092119"><ele>8.0</ele><time>2026-04-16T03:22:36.993Z</time></trkpt><trkpt lat="14.556063296649425" lon="120.99664234918829"><ele>7.999999999999999</ele><time>2026-04-16T03:22:38.994Z</time></trkpt><trkpt lat="14.556000618067916" lon="120.99666385009905"><ele>8.0</ele><time>2026-04-16T03:22:42.996Z</time></trkpt><trkpt lat="14.555921798899591" lon="120.99667196594265"><ele>8.166666666666666</ele><time>2026-04-16T03:22:45.997Z</time></trkpt><trkpt lat="14.555858231264024" lon="120.99667910107699"><ele>8.333333333333332</ele><time>2026-04-16T03:22:48.998Z</time></trkpt><trkpt lat="14.555789412462744" lon="120.99669197071668"><ele>8.5</ele><time>2026-04-16T03:22:54.999Z</time></trkpt><trkpt lat="14.555682644958562" lon="120.99672562845578"><ele>8.666666666666666</ele><time>2026-04-16T03:22:58Z</time></trkpt><trkpt lat="14.555585867801259" lon="120.99675282320936"><ele>8.833333333333334</ele><time>2026-04-16T03:23:00Z</time></trkpt><trkpt lat="14.555508172403387" lon="120.99677686947261"><ele>9.0</ele><time>2026-04-16T03:23:02Z</time></trkpt><trkpt lat="14.555426772862981" lon="120.99679107844618"><ele>9.0</ele><time>2026-04-16T03:23:04Z</time></trkpt><trkpt lat="14.555328236141056" lon="120.99680652892583"><ele>9.0</ele><time>2026-04-16T03:23:06.001Z</time></trkpt><trkpt lat="14.555243707809588" lon="120.996829745944"><ele>9.0</ele><time>2026-04-16T03:23:08.001Z</time></trkpt><trkpt lat="14.555181060598697" lon="120.99684801475786"><ele>9.0</ele><time>2026-04-16T03:23:10.001Z</time></trkpt><trkpt lat="14.555110892680055" lon="120.99685456690615"><ele>9.0</ele><time>2026-04-16T03:23:14.001Z</time></trkpt><trkpt lat="14.55504900887432" lon="120.9968665121637"><ele>9.0</ele><time>2026-04-16T03:23:23.002Z</time></trkpt><trkpt lat="14.554984127334608" lon="120.99689385943653"><ele>9.000000000000002</ele><time>2026-04-16T03:23:26.002Z</time></trkpt><trkpt lat="14.554913349888556" lon="120.99691501521903"><ele>9.0</ele><time>2026-04-16T03:23:30.002Z</time></trkpt><trkpt lat="14.55484674394505" lon="120.99692970611927"><ele>9.0</ele><time>2026-04-16T03:23:46.003Z</time></trkpt><trkpt lat="14.55478633303509" lon="120.99695412616883"><ele>9.0</ele><time>2026-04-16T03:24:00.003Z</time></trkpt><trkpt lat="14.554721927853343" lon="120.99695093796383"><ele>9.0</ele><time>2026-04-16T03:24:10.003Z</time></trkpt><trkpt lat="14.554638247393356" lon="120.9969441636863"><ele>9.000000000000002</ele><time>2026-04-16T03:24:22.002Z</time></trkpt><trkpt lat="14.554559965812935" lon="120.99695430032324"><ele>9.0</ele><time>2026-04-16T03:24:25.002Z</time></trkpt><trkpt lat="14.554492792161874" lon="120.99698347051132"><ele>8.4</ele><time>2026-04-16T03:24:28.002Z</time></trkpt><trkpt lat="14.55442940945544" lon="120.99699796903842"><ele>7.800000000000001</ele><time>2026-04-16T03:24:32.002Z</time></trkpt><trkpt lat="14.554365005406646" lon="120.99701270119286"><ele>7.199999999999999</ele><time>2026-04-16T03:24:48.001Z</time></trkpt><trkpt lat="14.554283278588303" lon="120.99701771034479"><ele>6.6</ele><time>2026-04-16T03:24:52.001Z</time></trkpt><trkpt lat="14.554197029266554" lon="120.99705112502693"><ele>6.0</ele><time>2026-04-16T03:24:55.001Z</time></trkpt><trkpt lat="14.554111549494513" lon="120.9969065309267"><ele>6.0</ele><time>2026-04-16T03:24:59.001Z</time></trkpt><trkpt lat="14.55407477470797" lon="120.99684180178767"><ele>6.0</ele><time>2026-04-16T03:25:02.001Z</time></trkpt><trkpt lat="14.554030143858986" lon="120.99675098131672"><ele>6.0</ele><time>2026-04-16T03:25:05.001Z</time></trkpt><trkpt lat="14.554003074444196" lon="120.99667621668436"><ele>6.0</ele><time>2026-04-16T03:25:07.001Z</time></trkpt><trkpt lat="14.553976998254612" lon="120.99660007938532"><ele>6.0</ele><time>2026-04-16T03:25:10.001Z</time></trkpt><trkpt lat="14.553983047875311" lon="120.99650152729087"><ele>6.0</ele><time>2026-04-16T03:25:12.001Z</time></trkpt><trkpt lat="14.553950902892943" lon="120.99638592621316"><ele>6.6</ele><time>2026-04-16T03:25:14.001Z</time></trkpt><trkpt lat="14.553919143720845" lon="120.99624723362349"><ele>7.199999999999999</ele><time>2026-04-16T03:25:16.001Z</time></trkpt><trkpt lat="14.553902807034113" lon="120.99617589127342"><ele>7.800000000000001</ele><time>2026-04-16T03:25:17.001Z</time></trkpt><trkpt lat="14.55388421431673" lon="120.99609469672795"><ele>8.4</ele><time>2026-04-16T03:25:18.001Z</time></trkpt><trkpt lat="14.55386461424998" lon="120.99600910316701"><ele>9.0</ele><time>2026-04-16T03:25:19.001Z</time></trkpt><trkpt lat="14.553843651250347" lon="120.9959175576019"><ele>9.0</ele><time>2026-04-16T03:25:20.001Z</time></trkpt><trkpt lat="14.553825225440923" lon="120.99583731282793"><ele>9.0</ele><time>2026-04-16T03:25:21.001Z</time></trkpt><trkpt lat="14.553781153501772" lon="120.99569368792841"><ele>9.0</ele><time>2026-04-16T03:25:23.001Z</time></trkpt><trkpt lat="14.553768514325245" lon="120.99560439637551"><ele>9.0</ele><time>2026-04-16T03:25:24.001Z</time></trkpt><trkpt lat="14.553757328241554" lon="120.99553650117795"><ele>9.0</ele><time>2026-04-16T03:25:25.001Z</time></trkpt><trkpt lat="14.553734463901392" lon="120.99546880587961"><ele>9.0</ele><time>2026-04-16T03:25:26.001Z</time></trkpt><trkpt lat="14.553736399095474" lon="120.99537753250843"><ele>9.166666666666666</ele><time>2026-04-16T03:25:28.001Z</time></trkpt><trkpt lat="14.5537240811588" lon="120.99530549839594"><ele>9.333333333333334</ele><time>2026-04-16T03:25:30.001Z</time></trkpt><trkpt lat="14.55370868949309" lon="120.99521636875038"><ele>9.5</ele><time>2026-04-16T03:25:32.001Z</time></trkpt><trkpt lat="14.553684178904135" lon="120.99514806623193"><ele>9.666666666666668</ele><time>2026-04-16T03:25:33.001Z</time></trkpt><trkpt lat="14.553684401262547" lon="120.99505336887913"><ele>9.833333333333334</ele><time>2026-04-16T03:25:34.001Z</time></trkpt><trkpt lat="14.553672818527957" lon="120.99496174653322"><ele>10.0</ele><time>2026-04-16T03:25:35.001Z</time></trkpt><trkpt lat="14.553658402317543" lon="120.99484771057362"><ele>9.4</ele><time>2026-04-16T03:25:36.001Z</time></trkpt><trkpt lat="14.55363776906115" lon="120.99473295433786"><ele>8.8</ele><time>2026-04-16T03:25:37.001Z</time></trkpt><trkpt lat="14.553630112178647" lon="120.99463361260862"><ele>8.2</ele><time>2026-04-16T03:25:38.001Z</time></trkpt><trkpt lat="14.553622390065167" lon="120.994535923633"><ele>7.6</ele><time>2026-04-16T03:25:39.001Z</time></trkpt><trkpt lat="14.553615616251117" lon="120.99445051009906"><ele>7.0</ele><time>2026-04-16T03:25:40.001Z</time></trkpt><trkpt lat="14.553597882697407" lon="120.99435870510669"><ele>7.000000000000001</ele><time>2026-04-16T03:25:42.001Z</time></trkpt><trkpt lat="14.553575970104491" lon="120.99428926545282"><ele>7.0</ele><time>2026-04-16T03:25:44.001Z</time></trkpt><trkpt lat="14.553568288431286" lon="120.99421270211396"><ele>7.0</ele><time>2026-04-16T03:25:51.001Z</time></trkpt><trkpt lat="14.5535328144415" lon="120.99415497592966"><ele>7.0</ele><time>2026-04-16T03:25:54.001Z</time></trkpt><trkpt lat="14.553456093866284" lon="120.99418743843358"><ele>7.000000000000001</ele><time>2026-04-16T03:25:57.001Z</time></trkpt><trkpt lat="14.553463703950904" lon="120.9943289533594"><ele>7.0</ele><time>2026-04-16T03:25:59.001Z</time></trkpt><trkpt lat="14.553474365368233" lon="120.9944040319834"><ele>7.0</ele><time>2026-04-16T03:26:00.001Z</time></trkpt><trkpt lat="14.553478825993801" lon="120.9944947164605"><ele>6.999999999999999</ele><time>2026-04-16T03:26:01.001Z</time></trkpt><trkpt lat="14.553486544377815" lon="120.99458896042897"><ele>6.999999999999999</ele><time>2026-04-16T03:26:02.001Z</time></trkpt><trkpt lat="14.55350018558191" lon="120.99468983680431"><ele>7.0</ele><time>2026-04-16T03:26:03.001Z</time></trkpt><trkpt lat="14.553507698544847" lon="120.9947911267482"><ele>7.0</ele><time>2026-04-16T03:26:04.001Z</time></trkpt><trkpt lat="14.5535141450149" lon="120.99490408752291"><ele>8.2</ele><time>2026-04-16T03:26:05.001Z</time></trkpt><trkpt lat="14.553530543800285" lon="120.99501675673973"><ele>9.399999999999999</ele><time>2026-04-16T03:26:06.001Z</time></trkpt><trkpt lat="14.55354523022265" lon="120.99513454200412"><ele>10.600000000000001</ele><time>2026-04-16T03:26:07.001Z</time></trkpt><trkpt lat="14.553556600627232" lon="120.99525111437973"><ele>11.8</ele><time>2026-04-16T03:26:08.001Z</time></trkpt><trkpt lat="14.55357816685061" lon="120.99531618675722"><ele>13.0</ele><time>2026-04-16T03:26:09.001Z</time></trkpt><trkpt lat="14.55360041724124" lon="120.9954181050219"><ele>13.0</ele><time>2026-04-16T03:26:10.001Z</time></trkpt><trkpt lat="14.553618681014942" lon="120.99551895711441"><ele>13.0</ele><time>2026-04-16T03:26:11.001Z</time></trkpt><trkpt lat="14.553640171815866" lon="120.99561976794949"><ele>13.0</ele><time>2026-04-16T03:26:12.002Z</time></trkpt><trkpt lat="14.55365696552113" lon="120.9957135154512"><ele>13.0</ele><time>2026-04-16T03:26:13.002Z</time></trkpt><trkpt lat="14.55367970337366" lon="120.99580594483182"><ele>13.0</ele><time>2026-04-16T03:26:14.002Z</time></trkpt><trkpt lat="14.553695573732805" lon="120.99588002892162"><ele>12.200000000000001</ele><time>2026-04-16T03:26:15.002Z</time></trkpt><trkpt lat="14.5537257688429" lon="120.99599025538984"><ele>11.4</ele><time>2026-04-16T03:26:17.002Z</time></trkpt><trkpt lat="14.55377604085478" lon="120.9961325443659"><ele>10.600000000000001</ele><time>2026-04-16T03:26:19.002Z</time></trkpt><trkpt lat="14.553788554298809" lon="120.9962171800388"><ele>9.8</ele><time>2026-04-16T03:26:20.002Z</time></trkpt><trkpt lat="14.55380035294479" lon="120.9963050319438"><ele>9.0</ele><time>2026-04-16T03:26:21.002Z</time></trkpt><trkpt lat="14.553814195412043" lon="120.99639160956336"><ele>9.0</ele><time>2026-04-16T03:26:22.002Z</time></trkpt><trkpt lat="14.553829108664221" lon="120.99646749051365"><ele>9.0</ele><time>2026-04-16T03:26:23.001Z</time></trkpt><trkpt lat="14.553859674945167" lon="120.99659310230622"><ele>9.0</ele><time>2026-04-16T03:26:25.001Z</time></trkpt><trkpt lat="14.55388130400098" lon="120.9967005891542"><ele>9.0</ele><time>2026-04-16T03:26:26.001Z</time></trkpt><trkpt lat="14.553899858138829" lon="120.99679699703395"><ele>9.0</ele><time>2026-04-16T03:26:27.001Z</time></trkpt><trkpt lat="14.553918278555406" lon="120.99688914348519"><ele>8.5</ele><time>2026-04-16T03:26:28.001Z</time></trkpt><trkpt lat="14.553935063476162" lon="120.99696018203458"><ele>8.0</ele><time>2026-04-16T03:26:29.001Z</time></trkpt><trkpt lat="14.553952399287018" lon="120.99702854432553"><ele>7.5</ele><time>2026-04-16T03:26:30.001Z</time></trkpt><trkpt lat="14.553970149361112" lon="120.99709524736343"><ele>7.0</ele><time>2026-04-16T03:26:31.001Z</time></trkpt><trkpt lat="14.553992799958014" lon="120.99722056079523"><ele>6.5</ele><time>2026-04-16T03:26:33.001Z</time></trkpt><trkpt lat="14.554009431156821" lon="120.99728426646814"><ele>6.0</ele><time>2026-04-16T03:26:34.001Z</time></trkpt><trkpt lat="14.554066487270592" lon="120.99742461488111"><ele>6.0</ele><time>2026-04-16T03:26:36.001Z</time></trkpt><trkpt lat="14.554094415384178" lon="120.99749901018293"><ele>6.0</ele><time>2026-04-16T03:26:37.001Z</time></trkpt><trkpt lat="14.554108236876138" lon="120.99756609794596"><ele>6.0</ele><time>2026-04-16T03:26:38.001Z</time></trkpt><trkpt lat="14.554128115144945" lon="120.99766526783336"><ele>6.0</ele><time>2026-04-16T03:26:40.001Z</time></trkpt><trkpt lat="14.554151110363255" lon="120.99774570383593"><ele>6.0</ele><time>2026-04-16T03:26:42.001Z</time></trkpt><trkpt lat="14.55417213905565" lon="120.9978302238899"><ele>6.0</ele><time>2026-04-16T03:26:44.001Z</time></trkpt><trkpt lat="14.554185047216528" lon="120.9979152609089"><ele>6.166666666666667</ele><time>2026-04-16T03:26:46.001Z</time></trkpt><trkpt lat="14.554201940353144" lon="120.99800300370175"><ele>6.333333333333334</ele><time>2026-04-16T03:26:48.001Z</time></trkpt><trkpt lat="14.554224571796793" lon="120.9980960260543"><ele>6.5</ele><time>2026-04-16T03:26:50.001Z</time></trkpt><trkpt lat="14.554255800802034" lon="120.99821047852372"><ele>6.666666666666667</ele><time>2026-04-16T03:26:52.001Z</time></trkpt><trkpt lat="14.554272155665043" lon="120.99827582094613"><ele>6.833333333333334</ele><time>2026-04-16T03:26:53.001Z</time></trkpt><trkpt lat="14.554289984667136" lon="120.99834442204106"><ele>7.0</ele><time>2026-04-16T03:26:54.001Z</time></trkpt><trkpt lat="14.554308769117277" lon="120.99842090019995"><ele>7.000000000000001</ele><time>2026-04-16T03:26:55.001Z</time></trkpt><trkpt lat="14.554321412906903" lon="120.99849163465373"><ele>7.0</ele><time>2026-04-16T03:26:56.001Z</time></trkpt><trkpt lat="14.554333974133101" lon="120.99856160264966"><ele>7.0</ele><time>2026-04-16T03:26:57.001Z</time></trkpt><trkpt lat="14.554349338439243" lon="120.99864326412853"><ele>7.0</ele><time>2026-04-16T03:26:58.001Z</time></trkpt><trkpt lat="14.554357514930228" lon="120.99870842925768"><ele>7.000000000000001</ele><time>2026-04-16T03:26:59.001Z</time></trkpt><trkpt lat="14.554372170361427" lon="120.99878018207599"><ele>7.0</ele><time>2026-04-16T03:27:00.001Z</time></trkpt><trkpt lat="14.554406245498441" lon="120.99890236198343"><ele>7.000000000000001</ele><time>2026-04-16T03:27:02.001Z</time></trkpt><trkpt lat="14.554422185575788" lon="120.99896839882653"><ele>7.0</ele><time>2026-04-16T03:27:03.001Z</time></trkpt><trkpt lat="14.554457721719933" lon="120.99911142798528"><ele>7.0</ele><time>2026-04-16T03:27:05.001Z</time></trkpt><trkpt lat="14.554474745966116" lon="120.99918020878671"><ele>7.0</ele><time>2026-04-16T03:27:06.001Z</time></trkpt><trkpt lat="14.55449686812081" lon="120.99925963236933"><ele>7.000000000000001</ele><time>2026-04-16T03:27:07.001Z</time></trkpt><trkpt lat="14.554510201488238" lon="120.99933940186959"><ele>7.0</ele><time>2026-04-16T03:27:08.001Z</time></trkpt><trkpt lat="14.554517579415373" lon="120.9994316775619"><ele>7.000000000000001</ele><time>2026-04-16T03:27:09.001Z</time></trkpt><trkpt lat="14.554532543072606" lon="120.99953210355112"><ele>7.0</ele><time>2026-04-16T03:27:10.001Z</time></trkpt><trkpt lat="14.554552890159062" lon="120.99961922064124"><ele>7.0</ele><time>2026-04-16T03:27:11.001Z</time></trkpt><trkpt lat="14.554570142316475" lon="120.99970067384861"><ele>7.0</ele><time>2026-04-16T03:27:12.001Z</time></trkpt><trkpt lat="14.554606555267199" lon="120.99978880860161"><ele>7.000000000000001</ele><time>2026-04-16T03:27:13.001Z</time></trkpt><trkpt lat="14.55462894379924" lon="120.99985730670119"><ele>7.0</ele><time>2026-04-16T03:27:14.001Z</time></trkpt><trkpt lat="14.5546475952806" lon="120.99992320020677"><ele>7.000000000000001</ele><time>2026-04-16T03:27:15.001Z</time></trkpt><trkpt lat="14.55466494361999" lon="120.9999961609171"><ele>7.0</ele><time>2026-04-16T03:27:16.001Z</time></trkpt><trkpt lat="14.554697636814451" lon="121.00006944058099"><ele>7.0</ele><time>2026-04-16T03:27:17.001Z</time></trkpt><trkpt lat="14.554719547543042" lon="121.00013146616081"><ele>7.0</ele><time>2026-04-16T03:27:18.001Z</time></trkpt><trkpt lat="14.554750985738004" lon="121.00020621763778"><ele>7.000000000000001</ele><time>2026-04-16T03:27:19.001Z</time></trkpt><trkpt lat="14.554786271714558" lon="121.00028252420007"><ele>7.0</ele><time>2026-04-16T03:27:20.001Z</time></trkpt><trkpt lat="14.55482376445775" lon="121.00036243765433"><ele>7.000000000000001</ele><time>2026-04-16T03:27:21.001Z</time></trkpt><trkpt lat="14.554861074515408" lon="121.00044450422916"><ele>7.0</ele><time>2026-04-16T03:27:22.001Z</time></trkpt><trkpt lat="14.554896829288344" lon="121.00052929006611"><ele>7.0</ele><time>2026-04-16T03:27:23.001Z</time></trkpt><trkpt lat="14.554930705033192" lon="121.000610147009"><ele>7.0</ele><time>2026-04-16T03:27:24.001Z</time></trkpt><trkpt lat="14.554959448338508" lon="121.00068447157972"><ele>7.000000000000001</ele><time>2026-04-16T03:27:25.001Z</time></trkpt><trkpt lat="14.554995869314272" lon="121.00076504564524"><ele>7.0</ele><time>2026-04-16T03:27:26.001Z</time></trkpt><trkpt lat="14.555025269517765" lon="121.0008385977402"><ele>7.142857142857142</ele><time>2026-04-16T03:27:27.001Z</time></trkpt><trkpt lat="14.555046404519686" lon="121.00090658502482"><ele>7.285714285714286</ele><time>2026-04-16T03:27:28.001Z</time></trkpt><trkpt lat="14.55506712340749" lon="121.00097785561168"><ele>7.428571428571429</ele><time>2026-04-16T03:27:29.001Z</time></trkpt><trkpt lat="14.555081972871093" lon="121.0010555203471"><ele>7.571428571428571</ele><time>2026-04-16T03:27:30.001Z</time></trkpt><trkpt lat="14.55509110231825" lon="121.00113525951653"><ele>7.7142857142857135</ele><time>2026-04-16T03:27:31.001Z</time></trkpt><trkpt lat="14.555087601744656" lon="121.00120737008878"><ele>7.857142857142857</ele><time>2026-04-16T03:27:32.001Z</time></trkpt><trkpt lat="14.555080038639623" lon="121.00127408055434"><ele>8.0</ele><time>2026-04-16T03:27:33.001Z</time></trkpt><trkpt lat="14.555070528621052" lon="121.00133971164372"><ele>8.0</ele><time>2026-04-16T03:27:34.001Z</time></trkpt><trkpt lat="14.555039103662066" lon="121.00142261621097"><ele>8.0</ele><time>2026-04-16T03:27:36.001Z</time></trkpt><trkpt lat="14.555069632123185" lon="121.00148036611625"><ele>8.0</ele><time>2026-04-16T03:27:47.001Z</time></trkpt><trkpt lat="14.555345934335516" lon="121.0014422028582"><ele>8.0</ele><time>2026-04-16T03:30:04.025Z</time></trkpt><trkpt lat="14.555640222564225" lon="121.0016463037805"><ele>8.0</ele><time>2026-04-16T03:34:24.031Z</time></trkpt><trkpt lat="14.555543314626815" lon="121.00167743406828"><ele>8.0</ele><time>2026-04-16T03:34:28.03Z</time></trkpt><trkpt lat="14.555512047498878" lon="121.00160942934964"><ele>8.0</ele><time>2026-04-16T03:34:34.024Z</time></trkpt><trkpt lat="14.555495703458936" lon="121.00153145562645"><ele>8.0</ele><time>2026-04-16T03:34:37.026Z</time></trkpt><trkpt lat="14.555461149977212" lon="121.00146093040776"><ele>8.0</ele><time>2026-04-16T03:34:40.025Z</time></trkpt><trkpt lat="14.555247642573528" lon="121.00121979745094"><ele>8.0</ele><time>2026-04-16T03:36:05.015Z</time></trkpt><trkpt lat="14.55524771679474" lon="121.00114497148046"><ele>8.0</ele><time>2026-04-16T03:36:07.001Z</time></trkpt><trkpt lat="14.555317174755286" lon="121.00139577795889"><ele>8.0</ele><time>2026-04-16T03:36:26.033Z</time></trkpt><trkpt lat="14.555365160217494" lon="121.00144352228352"><ele>8.0</ele><time>2026-04-16T03:36:31.03Z</time></trkpt><trkpt lat="14.555363132393891" lon="121.00154110032759"><ele>8.0</ele><time>2026-04-16T03:36:45.027Z</time></trkpt><trkpt lat="14.555368230453816" lon="121.00161043304617"><ele>8.0</ele><time>2026-04-16T03:36:49.026Z</time></trkpt><trkpt lat="14.55540248927312" lon="121.0017017016383"><ele>8.0</ele><time>2026-04-16T03:36:51.026Z</time></trkpt><trkpt lat="14.555210128995373" lon="121.00174284068068"><ele>8.0</ele><time>2026-04-16T03:36:52.026Z</time></trkpt><trkpt lat="14.555186958466889" lon="121.00181128192935"><ele>8.0</ele><time>2026-04-16T03:36:58.026Z</time></trkpt><trkpt lat="14.555235319861469" lon="121.0017079059227"><ele>8.0</ele><time>2026-04-16T03:37:09.02Z</time></trkpt><trkpt lat="14.554819225563444" lon="121.0014558578277"><ele>8.0</ele><time>2026-04-16T03:37:10.021Z</time></trkpt><trkpt lat="14.554770235600401" lon="121.00141357138895"><ele>8.0</ele><time>2026-04-16T03:37:13Z</time></trkpt><trkpt lat="14.554906595340132" lon="121.00140622755501"><ele>8.0</ele><time>2026-04-16T03:39:23Z</time></trkpt><trkpt lat="14.55492998852293" lon="121.00147253945364"><ele>8.0</ele><time>2026-04-16T03:39:41Z</time></trkpt><trkpt lat="14.554889667716399" lon="121.00155457296684"><ele>8.0</ele><time>2026-04-16T03:39:44Z</time></trkpt><trkpt lat="14.554841013240328" lon="121.00164286335055"><ele>7.999999999999999</ele><time>2026-04-16T03:39:46Z</time></trkpt><trkpt lat="14.554775887295206" lon="121.00172826857806"><ele>8.0</ele><time>2026-04-16T03:39:48Z</time></trkpt><trkpt lat="14.55471448126487" lon="121.00183266593291"><ele>8.0</ele><time>2026-04-16T03:39:50Z</time></trkpt><trkpt lat="14.554693786506364" lon="121.00189646949511"><ele>8.0</ele><time>2026-04-16T03:39:51Z</time></trkpt><trkpt lat="14.55468167358188" lon="121.0019681334176"><ele>7.999999999999999</ele><time>2026-04-16T03:39:52Z</time></trkpt><trkpt lat="14.554684500385815" lon="121.00204114089179"><ele>8.0</ele><time>2026-04-16T03:39:53Z</time></trkpt><trkpt lat="14.554703263723768" lon="121.00211375900076"><ele>7.999999999999999</ele><time>2026-04-16T03:39:54Z</time></trkpt><trkpt lat="14.554730623214763" lon="121.00218802453065"><ele>8.0</ele><time>2026-04-16T03:39:55Z</time></trkpt><trkpt lat="14.554780930208887" lon="121.00224028295801"><ele>8.0</ele><time>2026-04-16T03:39:56Z</time></trkpt><trkpt lat="14.554806583727329" lon="121.0023361782681"><ele>8.0</ele><time>2026-04-16T03:39:58Z</time></trkpt><trkpt lat="14.554828633711665" lon="121.00241860357612"><ele>7.999999999999999</ele><time>2026-04-16T03:40:01Z</time></trkpt><trkpt lat="14.554849069357532" lon="121.00248861494855"><ele>8.0</ele><time>2026-04-16T03:40:03Z</time></trkpt><trkpt lat="14.554883361392813" lon="121.00260798548332"><ele>7.999999999999999</ele><time>2026-04-16T03:40:05Z</time></trkpt><trkpt lat="14.554902763853983" lon="121.00267552549117"><ele>8.0</ele><time>2026-04-16T03:40:06Z</time></trkpt><trkpt lat="14.554924538288143" lon="121.00275132289073"><ele>8.0</ele><time>2026-04-16T03:40:07Z</time></trkpt><trkpt lat="14.554949131902577" lon="121.00282529535144"><ele>8.0</ele><time>2026-04-16T03:40:08Z</time></trkpt><trkpt lat="14.554976287467756" lon="121.00291016499865"><ele>7.999999999999999</ele><time>2026-04-16T03:40:09Z</time></trkpt><trkpt lat="14.555006263035072" lon="121.00300403883884"><ele>8.0</ele><time>2026-04-16T03:40:10Z</time></trkpt><trkpt lat="14.555035588122603" lon="121.00309581543635"><ele>8.0</ele><time>2026-04-16T03:40:11Z</time></trkpt><trkpt lat="14.555067883817213" lon="121.00319688899707"><ele>8.0</ele><time>2026-04-16T03:40:12Z</time></trkpt><trkpt lat="14.555098002875443" lon="121.00329115056428"><ele>8.0</ele><time>2026-04-16T03:40:13Z</time></trkpt><trkpt lat="14.555129126023381" lon="121.00338198063353"><ele>8.0</ele><time>2026-04-16T03:40:14Z</time></trkpt><trkpt lat="14.555162831726811" lon="121.00347790278171"><ele>8.0</ele><time>2026-04-16T03:40:15Z</time></trkpt><trkpt lat="14.55519972333554" lon="121.00358098498845"><ele>8.0</ele><time>2026-04-16T03:40:16Z</time></trkpt><trkpt lat="14.555240149864018" lon="121.0036956895924"><ele>8.0</ele><time>2026-04-16T03:40:17Z</time></trkpt><trkpt lat="14.555275264635762" lon="121.00378944974925"><ele>8.0</ele><time>2026-04-16T03:40:18Z</time></trkpt><trkpt lat="14.555307410386426" lon="121.00387296042169"><ele>8.0</ele><time>2026-04-16T03:40:19Z</time></trkpt><trkpt lat="14.555335270553591" lon="121.00394533771319"><ele>8.0</ele><time>2026-04-16T03:40:20Z</time></trkpt><trkpt lat="14.555362794055126" lon="121.00401684041763"><ele>8.0</ele><time>2026-04-16T03:40:21Z</time></trkpt><trkpt lat="14.555387837303037" lon="121.00408189979514"><ele>8.0</ele><time>2026-04-16T03:40:22Z</time></trkpt><trkpt lat="14.555407532774055" lon="121.00417732346531"><ele>8.0</ele><time>2026-04-16T03:40:24Z</time></trkpt><trkpt lat="14.555460369841164" lon="121.00429395284944"><ele>8.0</ele><time>2026-04-16T03:40:26Z</time></trkpt><trkpt lat="14.555490130898685" lon="121.00436997031207"><ele>8.0</ele><time>2026-04-16T03:40:27Z</time></trkpt><trkpt lat="14.555540386861638" lon="121.00444813723001"><ele>8.0</ele><time>2026-04-16T03:40:28Z</time></trkpt><trkpt lat="14.55558055188832" lon="121.0045411089196"><ele>8.0</ele><time>2026-04-16T03:40:29Z</time></trkpt><trkpt lat="14.555624868329176" lon="121.0046436908184"><ele>8.0</ele><time>2026-04-16T03:40:30Z</time></trkpt><trkpt lat="14.55565625486859" lon="121.00474155596547"><ele>8.0</ele><time>2026-04-16T03:40:31Z</time></trkpt><trkpt lat="14.555707561492898" lon="121.00483796913032"><ele>8.0</ele><time>2026-04-16T03:40:32Z</time></trkpt><trkpt lat="14.555754431961718" lon="121.00493364898256"><ele>8.0</ele><time>2026-04-16T03:40:33Z</time></trkpt><trkpt lat="14.555808769322304" lon="121.00504074071264"><ele>8.0</ele><time>2026-04-16T03:40:34Z</time></trkpt><trkpt lat="14.55584728060698" lon="121.00513509870386"><ele>8.0</ele><time>2026-04-16T03:40:35Z</time></trkpt><trkpt lat="14.555896457739827" lon="121.00524033358896"><ele>8.0</ele><time>2026-04-16T03:40:36Z</time></trkpt><trkpt lat="14.555938698146594" lon="121.0053294519613"><ele>8.0</ele><time>2026-04-16T03:40:37Z</time></trkpt><trkpt lat="14.555977220844941" lon="121.00541048681967"><ele>7.999999999999999</ele><time>2026-04-16T03:40:38Z</time></trkpt><trkpt lat="14.556013226052036" lon="121.00549051735241"><ele>8.0</ele><time>2026-04-16T03:40:39Z</time></trkpt><trkpt lat="14.556062405604179" lon="121.00556783634467"><ele>8.0</ele><time>2026-04-16T03:40:40Z</time></trkpt><trkpt lat="14.556098063803866" lon="121.0056314757171"><ele>8.0</ele><time>2026-04-16T03:40:41Z</time></trkpt><trkpt lat="14.556128296969824" lon="121.0056942763315"><ele>7.999999999999999</ele><time>2026-04-16T03:40:42Z</time></trkpt><trkpt lat="14.556158181251405" lon="121.00575846985174"><ele>8.0</ele><time>2026-04-16T03:40:43Z</time></trkpt><trkpt lat="14.556190570232424" lon="121.00583272833975"><ele>8.166666666666666</ele><time>2026-04-16T03:40:45Z</time></trkpt><trkpt lat="14.556214478781731" lon="121.00589394053577"><ele>8.333333333333332</ele><time>2026-04-16T03:40:48Z</time></trkpt><trkpt lat="14.556269654101277" lon="121.00599324992793"><ele>8.5</ele><time>2026-04-16T03:40:50Z</time></trkpt><trkpt lat="14.556313114395953" lon="121.00606382796018"><ele>8.666666666666666</ele><time>2026-04-16T03:40:51Z</time></trkpt><trkpt lat="14.556358459603047" lon="121.00615102407886"><ele>8.833333333333334</ele><time>2026-04-16T03:40:52Z</time></trkpt><trkpt lat="14.556395858301089" lon="121.0062406148492"><ele>9.0</ele><time>2026-04-16T03:40:53Z</time></trkpt><trkpt lat="14.556442985820825" lon="121.00633158941072"><ele>9.0</ele><time>2026-04-16T03:40:54Z</time></trkpt><trkpt lat="14.556490131260228" lon="121.0064259590503"><ele>9.0</ele><time>2026-04-16T03:40:55Z</time></trkpt><trkpt lat="14.556532028353697" lon="121.00651306584746"><ele>9.0</ele><time>2026-04-16T03:40:56Z</time></trkpt><trkpt lat="14.556564704707847" lon="121.00659142279275"><ele>9.0</ele><time>2026-04-16T03:40:57Z</time></trkpt><trkpt lat="14.55660042097002" lon="121.00665955161332"><ele>9.0</ele><time>2026-04-16T03:40:58Z</time></trkpt><trkpt lat="14.556646439119426" lon="121.00674233712574"><ele>9.0</ele><time>2026-04-16T03:41:00Z</time></trkpt><trkpt lat="14.556683892319409" lon="121.00681772474718"><ele>8.5</ele><time>2026-04-16T03:41:04Z</time></trkpt><trkpt lat="14.556717168009115" lon="121.006889575298"><ele>8.0</ele><time>2026-04-16T03:41:08Z</time></trkpt><trkpt lat="14.55676368874009" lon="121.0069900270696"><ele>7.5</ele><time>2026-04-16T03:41:10Z</time></trkpt><trkpt lat="14.556796591552056" lon="121.00704967269051"><ele>7.0</ele><time>2026-04-16T03:41:11Z</time></trkpt><trkpt lat="14.5567800954731" lon="121.00713982391046"><ele>6.5</ele><time>2026-04-16T03:41:12Z</time></trkpt><trkpt lat="14.556823169561122" lon="121.00720887713342"><ele>6.0</ele><time>2026-04-16T03:41:13Z</time></trkpt><trkpt lat="14.556883845829537" lon="121.00731376610473"><ele>6.0</ele><time>2026-04-16T03:41:15Z</time></trkpt><trkpt lat="14.556913705382485" lon="121.00738101546699"><ele>6.0</ele><time>2026-04-16T03:41:17Z</time></trkpt><trkpt lat="14.556951148052763" lon="121.00744636735847"><ele>6.0</ele><time>2026-04-16T03:41:21Z</time></trkpt><trkpt lat="14.556988518691266" lon="121.00751027034008"><ele>6.0</ele><time>2026-04-16T03:41:24Z</time></trkpt><trkpt lat="14.557017636204575" lon="121.00759108279006"><ele>6.0</ele><time>2026-04-16T03:41:26Z</time></trkpt><trkpt lat="14.557032293603086" lon="121.00766700080709"><ele>6.0</ele><time>2026-04-16T03:41:28Z</time></trkpt><trkpt lat="14.556931178444113" lon="121.00776345816031"><ele>5.8</ele><time>2026-04-16T03:41:31Z</time></trkpt><trkpt lat="14.556858684539216" lon="121.00779883654407"><ele>5.6</ele><time>2026-04-16T03:41:32Z</time></trkpt><trkpt lat="14.55678305581392" lon="121.00784785716584"><ele>5.4</ele><time>2026-04-16T03:41:33Z</time></trkpt><trkpt lat="14.556708717685217" lon="121.00788796951365"><ele>5.2</ele><time>2026-04-16T03:41:34Z</time></trkpt><trkpt lat="14.556610726131915" lon="121.00794881232578"><ele>5.0</ele><time>2026-04-16T03:41:35Z</time></trkpt><trkpt lat="14.556515009898995" lon="121.00800959398786"><ele>5.0</ele><time>2026-04-16T03:41:36Z</time></trkpt><trkpt lat="14.55641184767025" lon="121.0080668860471"><ele>5.0</ele><time>2026-04-16T03:41:37Z</time></trkpt><trkpt lat="14.556298390425244" lon="121.00812075023316"><ele>5.0</ele><time>2026-04-16T03:41:38Z</time></trkpt><trkpt lat="14.556188556301542" lon="121.00818262123819"><ele>5.0</ele><time>2026-04-16T03:41:39Z</time></trkpt><trkpt lat="14.55607214372881" lon="121.00824533455834"><ele>5.5</ele><time>2026-04-16T03:41:40Z</time></trkpt><trkpt lat="14.555949807120085" lon="121.00831207820762"><ele>6.0</ele><time>2026-04-16T03:41:41Z</time></trkpt><trkpt lat="14.555834560450386" lon="121.00837730959503"><ele>6.5</ele><time>2026-04-16T03:41:42Z</time></trkpt><trkpt lat="14.555717108840282" lon="121.0084390333078"><ele>7.0</ele><time>2026-04-16T03:41:43Z</time></trkpt><trkpt lat="14.555595195787086" lon="121.00849778350717"><ele>7.25</ele><time>2026-04-16T03:41:44Z</time></trkpt><trkpt lat="14.555463445952533" lon="121.00856324262311"><ele>7.5</ele><time>2026-04-16T03:41:45Z</time></trkpt><trkpt lat="14.555337245941354" lon="121.00863295249096"><ele>7.75</ele><time>2026-04-16T03:41:46Z</time></trkpt><trkpt lat="14.555218782745902" lon="121.00869663666263"><ele>8.0</ele><time>2026-04-16T03:41:47Z</time></trkpt><trkpt lat="14.55512290606014" lon="121.00875269233386"><ele>7.499999999999999</ele><time>2026-04-16T03:41:48Z</time></trkpt><trkpt lat="14.555036074930644" lon="121.00880499307773"><ele>7.0</ele><time>2026-04-16T03:41:49Z</time></trkpt><trkpt lat="14.554949305833082" lon="121.00885168191667"><ele>6.5</ele><time>2026-04-16T03:41:50Z</time></trkpt><trkpt lat="14.554879418500095" lon="121.00888799600719"><ele>6.0</ele><time>2026-04-16T03:41:51Z</time></trkpt><trkpt lat="14.554801052646388" lon="121.00892054858177"><ele>5.5</ele><time>2026-04-16T03:41:53Z</time></trkpt><trkpt lat="14.554742424439214" lon="121.00895203071015"><ele>5.0</ele><time>2026-04-16T03:41:55Z</time></trkpt><trkpt lat="14.55465963531248" lon="121.00900325416245"><ele>5.0</ele><time>2026-04-16T03:41:58Z</time></trkpt><trkpt lat="14.554597625550898" lon="121.00904624409146"><ele>5.0</ele><time>2026-04-16T03:42:01Z</time></trkpt><trkpt lat="14.554536661159887" lon="121.00907516301606"><ele>5.0</ele><time>2026-04-16T03:42:03Z</time></trkpt><trkpt lat="14.55446388724199" lon="121.00912483601519"><ele>5.0</ele><time>2026-04-16T03:42:05Z</time></trkpt><trkpt lat="14.554385774504064" lon="121.00917003707892"><ele>5.0</ele><time>2026-04-16T03:42:07Z</time></trkpt><trkpt lat="14.554298875161654" lon="121.00920113353895"><ele>5.0</ele><time>2026-04-16T03:42:09Z</time></trkpt><trkpt lat="14.554226057551409" lon="121.00924415421387"><ele>5.4</ele><time>2026-04-16T03:42:11Z</time></trkpt><trkpt lat="14.554150989103073" lon="121.00928404465196"><ele>5.8</ele><time>2026-04-16T03:42:14Z</time></trkpt><trkpt lat="14.554060392175746" lon="121.00933473077812"><ele>6.199999999999999</ele><time>2026-04-16T03:42:17Z</time></trkpt><trkpt lat="14.55400968388738" lon="121.00937995723935"><ele>6.6</ele><time>2026-04-16T03:42:19Z</time></trkpt><trkpt lat="14.553910860902453" lon="121.00942721995291"><ele>7.0</ele><time>2026-04-16T03:42:22Z</time></trkpt><trkpt lat="14.55383084775688" lon="121.00947694082323"><ele>7.0</ele><time>2026-04-16T03:42:24Z</time></trkpt><trkpt lat="14.553740355728321" lon="121.00953305997744"><ele>6.999999999999999</ele><time>2026-04-16T03:42:26Z</time></trkpt><trkpt lat="14.553645472397951" lon="121.00958471610366"><ele>6.999999999999999</ele><time>2026-04-16T03:42:28Z</time></trkpt><trkpt lat="14.553554514556513" lon="121.00963138952758"><ele>7.0</ele><time>2026-04-16T03:42:30Z</time></trkpt><trkpt lat="14.553466006477898" lon="121.00965883090872"><ele>7.0</ele><time>2026-04-16T03:42:32Z</time></trkpt><trkpt lat="14.553369158594656" lon="121.00968634799689"><ele>7.0</ele><time>2026-04-16T03:42:34Z</time></trkpt><trkpt lat="14.553283134658543" lon="121.00971613031435"><ele>6.999999999999999</ele><time>2026-04-16T03:42:36Z</time></trkpt><trkpt lat="14.553210003756785" lon="121.00972986015078"><ele>6.999999999999999</ele><time>2026-04-16T03:42:37Z</time></trkpt><trkpt lat="14.553092765471067" lon="121.00976512554735"><ele>7.0</ele><time>2026-04-16T03:42:39Z</time></trkpt><trkpt lat="14.552986733646035" lon="121.00987437063667"><ele>7.0</ele><time>2026-04-16T03:42:41Z</time></trkpt><trkpt lat="14.55292039093882" lon="121.00992062048347"><ele>7.0</ele><time>2026-04-16T03:42:42Z</time></trkpt><trkpt lat="14.55281017008026" lon="121.0099722596444"><ele>6.999999999999999</ele><time>2026-04-16T03:42:44Z</time></trkpt><trkpt lat="14.552673748463397" lon="121.01003941171085"><ele>6.999999999999999</ele><time>2026-04-16T03:42:46Z</time></trkpt><trkpt lat="14.552601133427116" lon="121.01005590782012"><ele>7.0</ele><time>2026-04-16T03:42:48Z</time></trkpt><trkpt lat="14.55250816553849" lon="121.01008538641639"><ele>7.0</ele><time>2026-04-16T03:42:49Z</time></trkpt><trkpt lat="14.552333313162576" lon="121.01015983792763"><ele>7.0</ele><time>2026-04-16T03:42:51Z</time></trkpt><trkpt lat="14.552235403528744" lon="121.01022103415406"><ele>6.999999999999999</ele><time>2026-04-16T03:42:52Z</time></trkpt><trkpt lat="14.55217472579879" lon="121.01024062244346"><ele>6.999999999999999</ele><time>2026-04-16T03:42:53Z</time></trkpt><trkpt lat="14.55206002030609" lon="121.01033933391669"><ele>7.0</ele><time>2026-04-16T03:42:54Z</time></trkpt><trkpt lat="14.551963207461828" lon="121.01038166024897"><ele>7.0</ele><time>2026-04-16T03:42:56Z</time></trkpt><trkpt lat="14.551888917765012" lon="121.01041153275268"><ele>7.166666666666667</ele><time>2026-04-16T03:43:02Z</time></trkpt><trkpt lat="14.551805503888101" lon="121.01042623545635"><ele>7.333333333333334</ele><time>2026-04-16T03:43:04Z</time></trkpt><trkpt lat="14.551723294555194" lon="121.01046646700964"><ele>7.5</ele><time>2026-04-16T03:43:06Z</time></trkpt><trkpt lat="14.55164128767761" lon="121.01050964113749"><ele>7.666666666666666</ele><time>2026-04-16T03:43:08Z</time></trkpt><trkpt lat="14.551575665055834" lon="121.01054468976963"><ele>7.833333333333333</ele><time>2026-04-16T03:43:10Z</time></trkpt><trkpt lat="14.55151641480276" lon="121.01059582721713"><ele>8.0</ele><time>2026-04-16T03:43:13Z</time></trkpt><trkpt lat="14.551536596036494" lon="121.01066513111496"><ele>7.999999999999999</ele><time>2026-04-16T03:43:14Z</time></trkpt><trkpt lat="14.55149100321286" lon="121.01060786867674"><ele>8.0</ele><time>2026-04-16T03:43:16Z</time></trkpt><trkpt lat="14.551474073380284" lon="121.01070017512322"><ele>8.0</ele><time>2026-04-16T03:43:52Z</time></trkpt><trkpt lat="14.551390839897882" lon="121.0106829321276"><ele>8.0</ele><time>2026-04-16T03:43:55Z</time></trkpt><trkpt lat="14.55133709340331" lon="121.01079088500786"><ele>7.999999999999999</ele><time>2026-04-16T03:43:57Z</time></trkpt><trkpt lat="14.551300469979372" lon="121.0108644453128"><ele>8.0</ele><time>2026-04-16T03:43:58Z</time></trkpt><trkpt lat="14.551246997009317" lon="121.01097184889504"><ele>8.166666666666666</ele><time>2026-04-16T03:43:59Z</time></trkpt><trkpt lat="14.551191728544984" lon="121.01108285873983"><ele>8.333333333333332</ele><time>2026-04-16T03:44:00Z</time></trkpt><trkpt lat="14.551158227550383" lon="121.01115014738716"><ele>8.5</ele><time>2026-04-16T03:44:01Z</time></trkpt><trkpt lat="14.551097439424694" lon="121.0110587369263"><ele>8.666666666666666</ele><time>2026-04-16T03:44:02Z</time></trkpt><trkpt lat="14.551032405341152" lon="121.01109395360018"><ele>8.833333333333334</ele><time>2026-04-16T03:44:03Z</time></trkpt><trkpt lat="14.550971685370481" lon="121.0111289250936"><ele>9.0</ele><time>2026-04-16T03:44:04Z</time></trkpt><trkpt lat="14.550886736834723" lon="121.01113173147132"><ele>9.0</ele><time>2026-04-16T03:44:05Z</time></trkpt><trkpt lat="14.550820940358678" lon="121.0111738140176"><ele>9.0</ele><time>2026-04-16T03:44:06Z</time></trkpt><trkpt lat="14.550765804025742" lon="121.01120818100937"><ele>9.0</ele><time>2026-04-16T03:44:07Z</time></trkpt><trkpt lat="14.550697515043895" lon="121.01126550818205"><ele>9.0</ele><time>2026-04-16T03:44:09Z</time></trkpt><trkpt lat="14.55062171541302" lon="121.01130761731737"><ele>9.0</ele><time>2026-04-16T03:44:11Z</time></trkpt><trkpt lat="14.550518949310685" lon="121.01135450854215"><ele>9.0</ele><time>2026-04-16T03:44:13Z</time></trkpt><trkpt lat="14.550461495751463" lon="121.01138755352119"><ele>8.8</ele><time>2026-04-16T03:44:14Z</time></trkpt><trkpt lat="14.550342108791238" lon="121.01144943221192"><ele>8.600000000000001</ele><time>2026-04-16T03:44:16Z</time></trkpt><trkpt lat="14.550256530550971" lon="121.01148453891821"><ele>8.4</ele><time>2026-04-16T03:44:17Z</time></trkpt><trkpt lat="14.550164607562209" lon="121.01152655371006"><ele>8.200000000000001</ele><time>2026-04-16T03:44:18Z</time></trkpt><trkpt lat="14.550070192110233" lon="121.01157378009721"><ele>8.0</ele><time>2026-04-16T03:44:19Z</time></trkpt><trkpt lat="14.549993745236142" lon="121.01161829128974"><ele>8.4</ele><time>2026-04-16T03:44:20Z</time></trkpt><trkpt lat="14.549892895153675" lon="121.0116762692642"><ele>8.8</ele><time>2026-04-16T03:44:21Z</time></trkpt><trkpt lat="14.549793940382651" lon="121.0117267230135"><ele>9.2</ele><time>2026-04-16T03:44:22Z</time></trkpt><trkpt lat="14.549701285247362" lon="121.01178050070983"><ele>9.6</ele><time>2026-04-16T03:44:23Z</time></trkpt><trkpt lat="14.549621976887531" lon="121.01182157517144"><ele>10.0</ele><time>2026-04-16T03:44:24Z</time></trkpt><trkpt lat="14.549537213835192" lon="121.01186455145877"><ele>10.0</ele><time>2026-04-16T03:44:25Z</time></trkpt><trkpt lat="14.549441959431334" lon="121.01191986705922"><ele>10.0</ele><time>2026-04-16T03:44:26Z</time></trkpt><trkpt lat="14.549357097482844" lon="121.01196832099664"><ele>10.0</ele><time>2026-04-16T03:44:27Z</time></trkpt><trkpt lat="14.54926250257886" lon="121.01201843429718"><ele>10.0</ele><time>2026-04-16T03:44:28Z</time></trkpt><trkpt lat="14.549156711199007" lon="121.01207106661664"><ele>10.0</ele><time>2026-04-16T03:44:29Z</time></trkpt><trkpt lat="14.549064554485502" lon="121.0121175228825"><ele>10.0</ele><time>2026-04-16T03:44:30Z</time></trkpt><trkpt lat="14.548973514668553" lon="121.01216078750524"><ele>10.0</ele><time>2026-04-16T03:44:31Z</time></trkpt><trkpt lat="14.548883299628587" lon="121.01219988315682"><ele>10.0</ele><time>2026-04-16T03:44:32Z</time></trkpt><trkpt lat="14.548783755813588" lon="121.01224930580524"><ele>10.0</ele><time>2026-04-16T03:44:33Z</time></trkpt><trkpt lat="14.548613091167347" lon="121.01231196901053"><ele>9.5</ele><time>2026-04-16T03:44:34Z</time></trkpt><trkpt lat="14.548510807308752" lon="121.01240710706877"><ele>9.0</ele><time>2026-04-16T03:44:35Z</time></trkpt><trkpt lat="14.548381015854027" lon="121.0124728001494"><ele>8.5</ele><time>2026-04-16T03:44:36Z</time></trkpt><trkpt lat="14.548260351563462" lon="121.01257472338376"><ele>8.0</ele><time>2026-04-16T03:44:38Z</time></trkpt><trkpt lat="14.548109753068703" lon="121.01263965625726"><ele>8.0</ele><time>2026-04-16T03:44:39Z</time></trkpt><trkpt lat="14.547916154133864" lon="121.01268851485013"><ele>8.0</ele><time>2026-04-16T03:44:39.999Z</time></trkpt><trkpt lat="14.547713576259781" lon="121.01274760815183"><ele>8.0</ele><time>2026-04-16T03:44:40.999Z</time></trkpt><trkpt lat="14.54754492544148" lon="121.01285011474121"><ele>8.333333333333332</ele><time>2026-04-16T03:44:41.999Z</time></trkpt><trkpt lat="14.547387068398251" lon="121.012948964577"><ele>8.666666666666666</ele><time>2026-04-16T03:44:42.999Z</time></trkpt><trkpt lat="14.547237025658811" lon="121.01303511521773"><ele>9.0</ele><time>2026-04-16T03:44:43.999Z</time></trkpt><trkpt lat="14.54704606691547" lon="121.01316244794658"><ele>10.5</ele><time>2026-04-16T03:44:44.999Z</time></trkpt><trkpt lat="14.54683135588162" lon="121.01327861047815"><ele>12.0</ele><time>2026-04-16T03:44:45.999Z</time></trkpt><trkpt lat="14.54663867164961" lon="121.01338389079838"><ele>12.333333333333332</ele><time>2026-04-16T03:44:46.999Z</time></trkpt><trkpt lat="14.546461375576696" lon="121.01347391960509"><ele>12.666666666666666</ele><time>2026-04-16T03:44:47.999Z</time></trkpt><trkpt lat="14.546288152852686" lon="121.01355378942108"><ele>13.0</ele><time>2026-04-16T03:44:48.999Z</time></trkpt><trkpt lat="14.546135379328732" lon="121.01363189145223"><ele>12.0</ele><time>2026-04-16T03:44:49.999Z</time></trkpt><trkpt lat="14.545967563868519" lon="121.01371613635033"><ele>11.0</ele><time>2026-04-16T03:44:50.999Z</time></trkpt><trkpt lat="14.545833019161426" lon="121.01380249581868"><ele>10.0</ele><time>2026-04-16T03:44:51.999Z</time></trkpt><trkpt lat="14.545693652890217" lon="121.01389233933106"><ele>10.0</ele><time>2026-04-16T03:44:52.999Z</time></trkpt><trkpt lat="14.54554457639527" lon="121.01397633572198"><ele>10.0</ele><time>2026-04-16T03:44:53.999Z</time></trkpt><trkpt lat="14.545391001147825" lon="121.0140647289175"><ele>10.0</ele><time>2026-04-16T03:44:54.999Z</time></trkpt><trkpt lat="14.545224921838775" lon="121.01413185520853"><ele>10.666666666666668</ele><time>2026-04-16T03:44:56Z</time></trkpt><trkpt lat="14.545058251266312" lon="121.0142184838621"><ele>11.333333333333334</ele><time>2026-04-16T03:44:57Z</time></trkpt><trkpt lat="14.544889993571173" lon="121.01429639566437"><ele>12.0</ele><time>2026-04-16T03:44:58Z</time></trkpt><trkpt lat="14.544728188413204" lon="121.0143906052612"><ele>12.0</ele><time>2026-04-16T03:44:59Z</time></trkpt><trkpt lat="14.544552451446773" lon="121.01448836929266"><ele>12.0</ele><time>2026-04-16T03:45:00Z</time></trkpt><trkpt lat="14.544375030462053" lon="121.01458076920824"><ele>12.0</ele><time>2026-04-16T03:45:01Z</time></trkpt><trkpt lat="14.544191830169268" lon="121.01467178287531"><ele>12.0</ele><time>2026-04-16T03:45:02Z</time></trkpt><trkpt lat="14.544023805185601" lon="121.01477397856038"><ele>12.0</ele><time>2026-04-16T03:45:03Z</time></trkpt><trkpt lat="14.543848112716935" lon="121.01486733255955"><ele>12.0</ele><time>2026-04-16T03:45:04Z</time></trkpt><trkpt lat="14.543664036782674" lon="121.01496541690314"><ele>12.0</ele><time>2026-04-16T03:45:05Z</time></trkpt><trkpt lat="14.543488552379648" lon="121.01506039486837"><ele>12.0</ele><time>2026-04-16T03:45:06Z</time></trkpt><trkpt lat="14.54330549987405" lon="121.01516163744061"><ele>12.0</ele><time>2026-04-16T03:45:07Z</time></trkpt><trkpt lat="14.543133839359273" lon="121.01526569913808"><ele>12.0</ele><time>2026-04-16T03:45:08Z</time></trkpt><trkpt lat="14.542952960691135" lon="121.0153458266786"><ele>12.0</ele><time>2026-04-16T03:45:09Z</time></trkpt><trkpt lat="14.54280326183099" lon="121.01544781345463"><ele>12.0</ele><time>2026-04-16T03:45:10Z</time></trkpt><trkpt lat="14.542641767704668" lon="121.01553471252593"><ele>13.666666666666668</ele><time>2026-04-16T03:45:11Z</time></trkpt><trkpt lat="14.542481345682551" lon="121.01561701413567"><ele>15.333333333333334</ele><time>2026-04-16T03:45:12Z</time></trkpt><trkpt lat="14.542328047254076" lon="121.01569488209473"><ele>17.0</ele><time>2026-04-16T03:45:13Z</time></trkpt><trkpt lat="14.542175812578973" lon="121.01577241843282"><ele>15.0</ele><time>2026-04-16T03:45:14Z</time></trkpt><trkpt lat="14.542001607667437" lon="121.01583617808264"><ele>13.0</ele><time>2026-04-16T03:45:15Z</time></trkpt><trkpt lat="14.541852161301671" lon="121.01590830766213"><ele>11.0</ele><time>2026-04-16T03:45:16Z</time></trkpt><trkpt lat="14.541704474578529" lon="121.01597939033243"><ele>11.0</ele><time>2026-04-16T03:45:17Z</time></trkpt><trkpt lat="14.541544941274843" lon="121.0160495930164"><ele>11.0</ele><time>2026-04-16T03:45:18Z</time></trkpt><trkpt lat="14.541385124393502" lon="121.01610149233687"><ele>11.0</ele><time>2026-04-16T03:45:19Z</time></trkpt><trkpt lat="14.541216052809126" lon="121.01615300457688"><ele>11.333333333333332</ele><time>2026-04-16T03:45:20Z</time></trkpt><trkpt lat="14.54105305781847" lon="121.01619665640392"><ele>11.666666666666666</ele><time>2026-04-16T03:45:21Z</time></trkpt><trkpt lat="14.540884092443097" lon="121.01624288201467"><ele>12.0</ele><time>2026-04-16T03:45:22Z</time></trkpt><trkpt lat="14.540733717563812" lon="121.01629733883168"><ele>12.0</ele><time>2026-04-16T03:45:23Z</time></trkpt><trkpt lat="14.540591133255738" lon="121.01635412444254"><ele>12.0</ele><time>2026-04-16T03:45:24Z</time></trkpt><trkpt lat="14.540450517239156" lon="121.01641745631605"><ele>12.0</ele><time>2026-04-16T03:45:25Z</time></trkpt><trkpt lat="14.540330032873484" lon="121.01648958108865"><ele>12.0</ele><time>2026-04-16T03:45:26Z</time></trkpt><trkpt lat="14.54019280886764" lon="121.0165570645154"><ele>12.0</ele><time>2026-04-16T03:45:27Z</time></trkpt><trkpt lat="14.540050551434637" lon="121.01663188782959"><ele>12.0</ele><time>2026-04-16T03:45:28Z</time></trkpt><trkpt lat="14.539941350646775" lon="121.01669983902397"><ele>12.0</ele><time>2026-04-16T03:45:29Z</time></trkpt><trkpt lat="14.539801498734537" lon="121.01679191342565"><ele>11.75</ele><time>2026-04-16T03:45:30Z</time></trkpt><trkpt lat="14.539678257699533" lon="121.01688507963036"><ele>11.5</ele><time>2026-04-16T03:45:31Z</time></trkpt><trkpt lat="14.539561514690124" lon="121.0169786101264"><ele>11.25</ele><time>2026-04-16T03:45:32Z</time></trkpt><trkpt lat="14.53946394832286" lon="121.01706586652095"><ele>11.0</ele><time>2026-04-16T03:45:33Z</time></trkpt><trkpt lat="14.539368383804037" lon="121.01714923910754"><ele>11.5</ele><time>2026-04-16T03:45:34Z</time></trkpt><trkpt lat="14.539253886356269" lon="121.01723661060069"><ele>12.0</ele><time>2026-04-16T03:45:35Z</time></trkpt><trkpt lat="14.539161641982984" lon="121.01731961722624"><ele>12.5</ele><time>2026-04-16T03:45:36Z</time></trkpt><trkpt lat="14.539063911098614" lon="121.01739625015924"><ele>13.0</ele><time>2026-04-16T03:45:37Z</time></trkpt><trkpt lat="14.538983818726647" lon="121.0174559483408"><ele>12.600000000000001</ele><time>2026-04-16T03:45:38Z</time></trkpt><trkpt lat="14.53891086427899" lon="121.01750177098691"><ele>12.200000000000001</ele><time>2026-04-16T03:45:39Z</time></trkpt><trkpt lat="14.538823933383824" lon="121.01757386177192"><ele>11.8</ele><time>2026-04-16T03:45:40Z</time></trkpt><trkpt lat="14.53875108523717" lon="121.01760998874495"><ele>11.4</ele><time>2026-04-16T03:45:41Z</time></trkpt><trkpt lat="14.538653671908168" lon="121.01766862792924"><ele>11.0</ele><time>2026-04-16T03:45:42Z</time></trkpt><trkpt lat="14.538544819147226" lon="121.01773224989797"><ele>11.0</ele><time>2026-04-16T03:45:43Z</time></trkpt><trkpt lat="14.53842887926064" lon="121.01779411206164"><ele>11.0</ele><time>2026-04-16T03:45:44Z</time></trkpt><trkpt lat="14.538312165767696" lon="121.01785893797602"><ele>11.0</ele><time>2026-04-16T03:45:45Z</time></trkpt><trkpt lat="14.53819741035574" lon="121.01792256586867"><ele>11.0</ele><time>2026-04-16T03:45:46Z</time></trkpt><trkpt lat="14.538080856320246" lon="121.01798740111866"><ele>11.0</ele><time>2026-04-16T03:45:47Z</time></trkpt><trkpt lat="14.537961289071434" lon="121.018055021453"><ele>11.0</ele><time>2026-04-16T03:45:48Z</time></trkpt><trkpt lat="14.537833474028854" lon="121.01812771513322"><ele>11.0</ele><time>2026-04-16T03:45:49Z</time></trkpt><trkpt lat="14.53769628777267" lon="121.01820706246387"><ele>11.0</ele><time>2026-04-16T03:45:50Z</time></trkpt><trkpt lat="14.537568846122753" lon="121.01829955487203"><ele>11.0</ele><time>2026-04-16T03:45:51Z</time></trkpt><trkpt lat="14.537413923413226" lon="121.01837761873874"><ele>11.0</ele><time>2026-04-16T03:45:52Z</time></trkpt><trkpt lat="14.537260344859597" lon="121.01846084696723"><ele>11.0</ele><time>2026-04-16T03:45:53Z</time></trkpt><trkpt lat="14.537098190374628" lon="121.01854824621653"><ele>11.0</ele><time>2026-04-16T03:45:54Z</time></trkpt><trkpt lat="14.53692838067167" lon="121.01864229815465"><ele>11.0</ele><time>2026-04-16T03:45:55Z</time></trkpt><trkpt lat="14.536762300945808" lon="121.01873543677468"><ele>11.0</ele><time>2026-04-16T03:45:56Z</time></trkpt><trkpt lat="14.536581913721804" lon="121.01882993853894"><ele>11.0</ele><time>2026-04-16T03:45:57Z</time></trkpt><trkpt lat="14.536398152308344" lon="121.01892379904307"><ele>11.0</ele><time>2026-04-16T03:45:58Z</time></trkpt><trkpt lat="14.536216105310055" lon="121.01902064614023"><ele>11.0</ele><time>2026-04-16T03:45:59Z</time></trkpt><trkpt lat="14.536034185749935" lon="121.01911878799368"><ele>12.333333333333332</ele><time>2026-04-16T03:46:00Z</time></trkpt><trkpt lat="14.535850121739564" lon="121.01921805253403"><ele>13.666666666666666</ele><time>2026-04-16T03:46:01Z</time></trkpt><trkpt lat="14.535658717888124" lon="121.01931727728865"><ele>15.0</ele><time>2026-04-16T03:46:02Z</time></trkpt><trkpt lat="14.53546762231967" lon="121.01940715191353"><ele>14.333333333333332</ele><time>2026-04-16T03:46:03Z</time></trkpt><trkpt lat="14.53527308268887" lon="121.01951023778305"><ele>13.666666666666666</ele><time>2026-04-16T03:46:04Z</time></trkpt><trkpt lat="14.535077663368078" lon="121.01961572825556"><ele>13.0</ele><time>2026-04-16T03:46:05Z</time></trkpt><trkpt lat="14.534887691891148" lon="121.01972795920322"><ele>13.0</ele><time>2026-04-16T03:46:06Z</time></trkpt><trkpt lat="14.534692386576012" lon="121.01983657849551"><ele>13.0</ele><time>2026-04-16T03:46:07Z</time></trkpt><trkpt lat="14.5344938905392" lon="121.0199512155514"><ele>13.0</ele><time>2026-04-16T03:46:08Z</time></trkpt><trkpt lat="14.534295816372172" lon="121.02006089609307"><ele>14.5</ele><time>2026-04-16T03:46:09Z</time></trkpt><trkpt lat="14.534092037876071" lon="121.02017088098329"><ele>16.0</ele><time>2026-04-16T03:46:10Z</time></trkpt><trkpt lat="14.533886109107868" lon="121.02028538372228"><ele>16.5</ele><time>2026-04-16T03:46:11Z</time></trkpt><trkpt lat="14.533676018917562" lon="121.02040386388475"><ele>17.0</ele><time>2026-04-16T03:46:12Z</time></trkpt><trkpt lat="14.53346741139477" lon="121.02051382592728"><ele>17.0</ele><time>2026-04-16T03:46:13Z</time></trkpt><trkpt lat="14.533259440189926" lon="121.02063313666092"><ele>17.0</ele><time>2026-04-16T03:46:14Z</time></trkpt><trkpt lat="14.533043756096502" lon="121.02074556242422"><ele>14.5</ele><time>2026-04-16T03:46:15Z</time></trkpt><trkpt lat="14.532826116673426" lon="121.02085938035074"><ele>12.0</ele><time>2026-04-16T03:46:16Z</time></trkpt><trkpt lat="14.532612043177158" lon="121.02097315157769"><ele>12.0</ele><time>2026-04-16T03:46:17Z</time></trkpt><trkpt lat="14.532389698422358" lon="121.02108727835602"><ele>12.0</ele><time>2026-04-16T03:46:18Z</time></trkpt><trkpt lat="14.532183564452936" lon="121.02118809971138"><ele>10.666666666666666</ele><time>2026-04-16T03:46:19Z</time></trkpt><trkpt lat="14.531987568253255" lon="121.0212901470896"><ele>9.333333333333332</ele><time>2026-04-16T03:46:20Z</time></trkpt><trkpt lat="14.531804947465925" lon="121.02139406898701"><ele>8.0</ele><time>2026-04-16T03:46:21Z</time></trkpt><trkpt lat="14.531624449783164" lon="121.02149416117713"><ele>8.0</ele><time>2026-04-16T03:46:22Z</time></trkpt><trkpt lat="14.531453065384136" lon="121.02159276739123"><ele>8.0</ele><time>2026-04-16T03:46:23Z</time></trkpt><trkpt lat="14.531284483900219" lon="121.02168054998748"><ele>8.0</ele><time>2026-04-16T03:46:24Z</time></trkpt><trkpt lat="14.531107438490151" lon="121.02176934288855"><ele>8.333333333333332</ele><time>2026-04-16T03:46:25Z</time></trkpt><trkpt lat="14.530948357695337" lon="121.02186256293325"><ele>8.666666666666666</ele><time>2026-04-16T03:46:26Z</time></trkpt><trkpt lat="14.53079527141244" lon="121.02194590806847"><ele>9.0</ele><time>2026-04-16T03:46:27Z</time></trkpt><trkpt lat="14.53067412994012" lon="121.02202943384421"><ele>9.0</ele><time>2026-04-16T03:46:28Z</time></trkpt><trkpt lat="14.53054954957341" lon="121.0221041635752"><ele>9.0</ele><time>2026-04-16T03:46:29Z</time></trkpt><trkpt lat="14.530413416379776" lon="121.02217978495153"><ele>9.0</ele><time>2026-04-16T03:46:30Z</time></trkpt><trkpt lat="14.530287122989634" lon="121.02223628137445"><ele>9.0</ele><time>2026-04-16T03:46:31Z</time></trkpt><trkpt lat="14.530152226517163" lon="121.02230866851363"><ele>8.666666666666666</ele><time>2026-04-16T03:46:32Z</time></trkpt><trkpt lat="14.530014059403356" lon="121.02237852213099"><ele>8.333333333333332</ele><time>2026-04-16T03:46:33Z</time></trkpt><trkpt lat="14.529871512514516" lon="121.02244608178344"><ele>8.0</ele><time>2026-04-16T03:46:34Z</time></trkpt><trkpt lat="14.529724242071907" lon="121.02253872364038"><ele>8.666666666666666</ele><time>2026-04-16T03:46:35Z</time></trkpt><trkpt lat="14.529578804291292" lon="121.0226164985289"><ele>9.333333333333334</ele><time>2026-04-16T03:46:36Z</time></trkpt><trkpt lat="14.529439517506365" lon="121.02269230470773"><ele>10.0</ele><time>2026-04-16T03:46:37Z</time></trkpt><trkpt lat="14.529306267348884" lon="121.02275436725661"><ele>10.0</ele><time>2026-04-16T03:46:38Z</time></trkpt><trkpt lat="14.529171134484752" lon="121.02283108554082"><ele>10.0</ele><time>2026-04-16T03:46:39Z</time></trkpt><trkpt lat="14.529036119524108" lon="121.0228989012913"><ele>10.0</ele><time>2026-04-16T03:46:40Z</time></trkpt><trkpt lat="14.528902564704305" lon="121.02297012420159"><ele>10.0</ele><time>2026-04-16T03:46:41Z</time></trkpt><trkpt lat="14.528770594553919" lon="121.02303838593409"><ele>10.0</ele><time>2026-04-16T03:46:42Z</time></trkpt><trkpt lat="14.52864446320478" lon="121.02309899344527"><ele>10.0</ele><time>2026-04-16T03:46:43Z</time></trkpt><trkpt lat="14.528518027946467" lon="121.02316670436478"><ele>10.0</ele><time>2026-04-16T03:46:44Z</time></trkpt><trkpt lat="14.528390234852633" lon="121.02323482088823"><ele>10.0</ele><time>2026-04-16T03:46:45Z</time></trkpt><trkpt lat="14.528263371531137" lon="121.02330608699529"><ele>10.0</ele><time>2026-04-16T03:46:45.999Z</time></trkpt><trkpt lat="14.52814308326384" lon="121.02337456476418"><ele>10.0</ele><time>2026-04-16T03:46:46.999Z</time></trkpt><trkpt lat="14.528028831081503" lon="121.02343185626621"><ele>10.0</ele><time>2026-04-16T03:46:47.999Z</time></trkpt><trkpt lat="14.527915216134303" lon="121.02348691350626"><ele>10.25</ele><time>2026-04-16T03:46:48.999Z</time></trkpt><trkpt lat="14.527800775676216" lon="121.02354454758816"><ele>10.5</ele><time>2026-04-16T03:46:49.999Z</time></trkpt><trkpt lat="14.52768399571313" lon="121.02360774177842"><ele>10.75</ele><time>2026-04-16T03:46:50.999Z</time></trkpt><trkpt lat="14.52756345431114" lon="121.02367068942317"><ele>11.0</ele><time>2026-04-16T03:46:51.999Z</time></trkpt><trkpt lat="14.527441481732918" lon="121.02373113769667"><ele>11.0</ele><time>2026-04-16T03:46:52.999Z</time></trkpt><trkpt lat="14.527317265801392" lon="121.02380098065304"><ele>11.0</ele><time>2026-04-16T03:46:53.999Z</time></trkpt><trkpt lat="14.527191330477514" lon="121.02386755313579"><ele>11.0</ele><time>2026-04-16T03:46:54.999Z</time></trkpt><trkpt lat="14.527076817028531" lon="121.02392723158373"><ele>11.0</ele><time>2026-04-16T03:46:55.999Z</time></trkpt><trkpt lat="14.526957800146562" lon="121.02399502183164"><ele>11.333333333333332</ele><time>2026-04-16T03:46:56.999Z</time></trkpt><trkpt lat="14.5268257196384" lon="121.02406997305899"><ele>11.666666666666666</ele><time>2026-04-16T03:46:57.999Z</time></trkpt><trkpt lat="14.526671807599634" lon="121.02415295403868"><ele>12.0</ele><time>2026-04-16T03:46:58.999Z</time></trkpt><trkpt lat="14.526520774629187" lon="121.02423333082434"><ele>12.0</ele><time>2026-04-16T03:46:59.999Z</time></trkpt><trkpt lat="14.526371744388854" lon="121.0243165160135"><ele>12.0</ele><time>2026-04-16T03:47:00.999Z</time></trkpt><trkpt lat="14.526221340433965" lon="121.02439898776832"><ele>12.0</ele><time>2026-04-16T03:47:01.999Z</time></trkpt><trkpt lat="14.526060836139973" lon="121.02448421631169"><ele>10.333333333333334</ele><time>2026-04-16T03:47:02.999Z</time></trkpt><trkpt lat="14.525903277382588" lon="121.02457637893504"><ele>8.666666666666668</ele><time>2026-04-16T03:47:03.999Z</time></trkpt><trkpt lat="14.52575300609548" lon="121.02465903392563"><ele>7.0</ele><time>2026-04-16T03:47:04.999Z</time></trkpt><trkpt lat="14.525603128611847" lon="121.02474354467498"><ele>7.0</ele><time>2026-04-16T03:47:06Z</time></trkpt><trkpt lat="14.52545478457937" lon="121.02482856920689"><ele>7.0</ele><time>2026-04-16T03:47:07Z</time></trkpt><trkpt lat="14.525315964205681" lon="121.02490398625358"><ele>7.0</ele><time>2026-04-16T03:47:08Z</time></trkpt><trkpt lat="14.52518887957911" lon="121.02497423790852"><ele>8.0</ele><time>2026-04-16T03:47:09Z</time></trkpt><trkpt lat="14.52506626214893" lon="121.02503910197622"><ele>9.0</ele><time>2026-04-16T03:47:10Z</time></trkpt><trkpt lat="14.524946269606247" lon="121.02510265141656"><ele>10.0</ele><time>2026-04-16T03:47:11Z</time></trkpt><trkpt lat="14.524830002045869" lon="121.02516503249325"><ele>11.0</ele><time>2026-04-16T03:47:12Z</time></trkpt><trkpt lat="14.524719477958945" lon="121.02522561953738"><ele>11.0</ele><time>2026-04-16T03:47:13Z</time></trkpt><trkpt lat="14.524619353009106" lon="121.0252821013741"><ele>11.0</ele><time>2026-04-16T03:47:14Z</time></trkpt><trkpt lat="14.52452614125657" lon="121.0253380829469"><ele>11.0</ele><time>2026-04-16T03:47:15Z</time></trkpt><trkpt lat="14.524438531931528" lon="121.02538804488593"><ele>11.0</ele><time>2026-04-16T03:47:16Z</time></trkpt><trkpt lat="14.524359540416208" lon="121.02543138008275"><ele>11.0</ele><time>2026-04-16T03:47:17Z</time></trkpt><trkpt lat="14.524275436995365" lon="121.02547621030408"><ele>11.666666666666666</ele><time>2026-04-16T03:47:18Z</time></trkpt><trkpt lat="14.524201972651415" lon="121.02551559921804"><ele>12.333333333333332</ele><time>2026-04-16T03:47:19Z</time></trkpt><trkpt lat="14.524141219887277" lon="121.02555261383038"><ele>13.0</ele><time>2026-04-16T03:47:20Z</time></trkpt><trkpt lat="14.524034148597993" lon="121.02561325147576"><ele>13.666666666666666</ele><time>2026-04-16T03:47:22Z</time></trkpt><trkpt lat="14.523954374795377" lon="121.02563419727532"><ele>14.333333333333334</ele><time>2026-04-16T03:47:24Z</time></trkpt><trkpt lat="14.523876119057567" lon="121.02565823718818"><ele>15.0</ele><time>2026-04-16T03:47:26Z</time></trkpt><trkpt lat="14.523797549404984" lon="121.02564441118021"><ele>15.0</ele><time>2026-04-16T03:47:27Z</time></trkpt><trkpt lat="14.52373222906943" lon="121.02564535783809"><ele>15.0</ele><time>2026-04-16T03:47:28Z</time></trkpt><trkpt lat="14.523675902382042" lon="121.02569127733486"><ele>15.0</ele><time>2026-04-16T03:47:29Z</time></trkpt><trkpt lat="14.523564892863657" lon="121.02574035677385"><ele>15.0</ele><time>2026-04-16T03:47:31Z</time></trkpt><trkpt lat="14.52346996557261" lon="121.02578948241225"><ele>15.0</ele><time>2026-04-16T03:47:33Z</time></trkpt><trkpt lat="14.52336573601158" lon="121.02583624841954"><ele>15.2</ele><time>2026-04-16T03:47:35Z</time></trkpt><trkpt lat="14.523258637664464" lon="121.02582620125145"><ele>15.4</ele><time>2026-04-16T03:47:37Z</time></trkpt><trkpt lat="14.523185034161493" lon="121.02576209881919"><ele>15.600000000000001</ele><time>2026-04-16T03:47:39Z</time></trkpt><trkpt lat="14.52317743690185" lon="121.02568838915242"><ele>15.8</ele><time>2026-04-16T03:47:41Z</time></trkpt><trkpt lat="14.52322626510925" lon="121.02558891500863"><ele>16.0</ele><time>2026-04-16T03:47:43Z</time></trkpt><trkpt lat="14.523275763896589" lon="121.02552068236561"><ele>16.333333333333332</ele><time>2026-04-16T03:47:44Z</time></trkpt><trkpt lat="14.523310744199472" lon="121.02545572887585"><ele>16.666666666666664</ele><time>2026-04-16T03:47:45Z</time></trkpt><trkpt lat="14.523364213821678" lon="121.0254050897419"><ele>17.0</ele><time>2026-04-16T03:47:46Z</time></trkpt><trkpt lat="14.5234212106881" lon="121.02536970679407"><ele>17.333333333333332</ele><time>2026-04-16T03:47:47Z</time></trkpt><trkpt lat="14.523520473821744" lon="121.02534167842947"><ele>17.666666666666668</ele><time>2026-04-16T03:47:49Z</time></trkpt><trkpt lat="14.523598795794053" lon="121.02536965685417"><ele>18.0</ele><time>2026-04-16T03:47:51Z</time></trkpt><trkpt lat="14.523703097146324" lon="121.02537693329411"><ele>17.5</ele><time>2026-04-16T03:47:53Z</time></trkpt><trkpt lat="14.52377013898417" lon="121.02540426979171"><ele>17.0</ele><time>2026-04-16T03:47:55Z</time></trkpt><trkpt lat="14.523855117313206" lon="121.02543783516033"><ele>16.5</ele><time>2026-04-16T03:47:58Z</time></trkpt><trkpt lat="14.523914179134742" lon="121.0255097551997"><ele>16.0</ele><time>2026-04-16T03:48:00Z</time></trkpt><trkpt lat="14.523993926579212" lon="121.02554849831527"><ele>15.5</ele><time>2026-04-16T03:48:03Z</time></trkpt><trkpt lat="14.524062242646902" lon="121.02558122246978"><ele>15.0</ele><time>2026-04-16T03:48:06Z</time></trkpt><trkpt lat="14.524134507693278" lon="121.0256154769444"><ele>15.0</ele><time>2026-04-16T03:48:09Z</time></trkpt><trkpt lat="14.524225062995296" lon="121.02568150147505"><ele>15.0</ele><time>2026-04-16T03:48:11Z</time></trkpt><trkpt lat="14.52430340681395" lon="121.02575080507724"><ele>15.0</ele><time>2026-04-16T03:48:13Z</time></trkpt><trkpt lat="14.524386588700986" lon="121.02581600100783"><ele>15.0</ele><time>2026-04-16T03:48:15Z</time></trkpt><trkpt lat="14.524436012122694" lon="121.0258574950984"><ele>15.0</ele><time>2026-04-16T03:48:16Z</time></trkpt><trkpt lat="14.524490467565478" lon="121.02590762438166"><ele>15.333333333333334</ele><time>2026-04-16T03:48:17Z</time></trkpt><trkpt lat="14.524562146550114" lon="121.0259836519217"><ele>15.666666666666668</ele><time>2026-04-16T03:48:19Z</time></trkpt><trkpt lat="14.524639231628411" lon="121.0260348202864"><ele>16.0</ele><time>2026-04-16T03:48:22Z</time></trkpt><trkpt lat="14.524715751887232" lon="121.02608420478059"><ele>16.333333333333336</ele><time>2026-04-16T03:48:25Z</time></trkpt><trkpt lat="14.52477028063241" lon="121.02614120155866"><ele>16.666666666666668</ele><time>2026-04-16T03:48:28Z</time></trkpt><trkpt lat="14.52482413685165" lon="121.02620917040903"><ele>17.0</ele><time>2026-04-16T03:48:32Z</time></trkpt><trkpt lat="14.52486461310343" lon="121.02626286761634"><ele>16.0</ele><time>2026-04-16T03:48:35Z</time></trkpt><trkpt lat="14.52490190525284" lon="121.02648577256538"><ele>15.0</ele><time>2026-04-16T03:49:56Z</time></trkpt><trkpt lat="14.524809419343631" lon="121.02657172241246"><ele>14.0</ele><time>2026-04-16T03:49:58Z</time></trkpt><trkpt lat="14.52473304425999" lon="121.02664099631512"><ele>13.0</ele><time>2026-04-16T03:50:00Z</time></trkpt><trkpt lat="14.525026830610324" lon="121.02648276503808"><ele>13.0</ele><time>2026-04-16T03:50:01Z</time></trkpt><trkpt lat="14.525167621239728" lon="121.026593053088"><ele>13.0</ele><time>2026-04-16T03:50:02Z</time></trkpt><trkpt lat="14.525208587617618" lon="121.02664364716567"><ele>13.0</ele><time>2026-04-16T03:50:03Z</time></trkpt><trkpt lat="14.52525585000285" lon="121.02670201748221"><ele>13.0</ele><time>2026-04-16T03:50:04Z</time></trkpt><trkpt lat="14.525309611745625" lon="121.02676852900615"><ele>13.0</ele><time>2026-04-16T03:50:05Z</time></trkpt><trkpt lat="14.525362593813352" lon="121.02683422869927"><ele>12.666666666666666</ele><time>2026-04-16T03:50:06Z</time></trkpt><trkpt lat="14.525411190983705" lon="121.0268946308551"><ele>12.333333333333332</ele><time>2026-04-16T03:50:07Z</time></trkpt><trkpt lat="14.525459607673424" lon="121.02695515172019"><ele>12.0</ele><time>2026-04-16T03:50:08Z</time></trkpt><trkpt lat="14.525500098485843" lon="121.02700515559891"><ele>11.666666666666666</ele><time>2026-04-16T03:50:09Z</time></trkpt><trkpt lat="14.52557805379775" lon="121.02710240151515"><ele>11.333333333333332</ele><time>2026-04-16T03:50:11Z</time></trkpt><trkpt lat="14.525618344966592" lon="121.02715321090376"><ele>11.0</ele><time>2026-04-16T03:50:12Z</time></trkpt><trkpt lat="14.525660398021325" lon="121.02721137006532"><ele>11.0</ele><time>2026-04-16T03:50:13Z</time></trkpt><trkpt lat="14.525694293351107" lon="121.0272838441845"><ele>11.0</ele><time>2026-04-16T03:50:14Z</time></trkpt><trkpt lat="14.525743815947031" lon="121.02734186397394"><ele>11.0</ele><time>2026-04-16T03:50:15Z</time></trkpt><trkpt lat="14.525802634169105" lon="121.02740143617471"><ele>11.0</ele><time>2026-04-16T03:50:16Z</time></trkpt><trkpt lat="14.525866202776621" lon="121.02745859528807"><ele>11.0</ele><time>2026-04-16T03:50:17Z</time></trkpt><trkpt lat="14.52594701329832" lon="121.02752342450984"><ele>11.0</ele><time>2026-04-16T03:50:18Z</time></trkpt><trkpt lat="14.526024502781818" lon="121.02761507002207"><ele>11.0</ele><time>2026-04-16T03:50:19Z</time></trkpt><trkpt lat="14.526100720776142" lon="121.02771205823969"><ele>11.0</ele><time>2026-04-16T03:50:20Z</time></trkpt><trkpt lat="14.52617582216707" lon="121.02779942880086"><ele>11.0</ele><time>2026-04-16T03:50:21Z</time></trkpt><trkpt lat="14.52624710108631" lon="121.02788183909675"><ele>11.0</ele><time>2026-04-16T03:50:22Z</time></trkpt><trkpt lat="14.526328065706261" lon="121.02796696678489"><ele>11.600000000000001</ele><time>2026-04-16T03:50:23Z</time></trkpt><trkpt lat="14.526367027336795" lon="121.02801922184504"><ele>12.2</ele><time>2026-04-16T03:50:24Z</time></trkpt><trkpt lat="14.526442698824232" lon="121.02810939440879"><ele>12.799999999999999</ele><time>2026-04-16T03:50:25Z</time></trkpt><trkpt lat="14.526519900288365" lon="121.02818789411647"><ele>13.399999999999999</ele><time>2026-04-16T03:50:26Z</time></trkpt><trkpt lat="14.526581312791562" lon="121.02825746439147"><ele>14.0</ele><time>2026-04-16T03:50:27Z</time></trkpt><trkpt lat="14.52664018175202" lon="121.02833518789382"><ele>14.399999999999999</ele><time>2026-04-16T03:50:28Z</time></trkpt><trkpt lat="14.52670366477908" lon="121.02841937827107"><ele>14.799999999999999</ele><time>2026-04-16T03:50:29Z</time></trkpt><trkpt lat="14.526761119015909" lon="121.02850742130623"><ele>15.200000000000001</ele><time>2026-04-16T03:50:30Z</time></trkpt><trkpt lat="14.52681992109136" lon="121.02860563065164"><ele>15.600000000000001</ele><time>2026-04-16T03:50:31Z</time></trkpt><trkpt lat="14.526869623457019" lon="121.02870682713994"><ele>16.0</ele><time>2026-04-16T03:50:32Z</time></trkpt><trkpt lat="14.526920883900255" lon="121.02880995497506"><ele>16.0</ele><time>2026-04-16T03:50:33Z</time></trkpt><trkpt lat="14.526964081007547" lon="121.02890564767311"><ele>16.0</ele><time>2026-04-16T03:50:34Z</time></trkpt><trkpt lat="14.527003539200015" lon="121.02899226551226"><ele>16.0</ele><time>2026-04-16T03:50:35Z</time></trkpt><trkpt lat="14.5270288465111" lon="121.02906314432835"><ele>16.0</ele><time>2026-04-16T03:50:36Z</time></trkpt><trkpt lat="14.527051937291057" lon="121.02912371871197"><ele>16.0</ele><time>2026-04-16T03:50:37Z</time></trkpt><trkpt lat="14.527098891754822" lon="121.0292375364255"><ele>16.833333333333332</ele><time>2026-04-16T03:50:39Z</time></trkpt><trkpt lat="14.527145259291835" lon="121.02933435488458"><ele>17.666666666666664</ele><time>2026-04-16T03:50:41Z</time></trkpt><trkpt lat="14.527193345798834" lon="121.02943155232039"><ele>18.5</ele><time>2026-04-16T03:50:43Z</time></trkpt><trkpt lat="14.527216057285266" lon="121.02952426178314"><ele>19.333333333333332</ele><time>2026-04-16T03:50:45Z</time></trkpt><trkpt lat="14.527242801313639" lon="121.02959995184378"><ele>20.166666666666668</ele><time>2026-04-16T03:50:47Z</time></trkpt><trkpt lat="14.527254986056452" lon="121.02966588229935"><ele>21.0</ele><time>2026-04-16T03:50:55Z</time></trkpt><trkpt lat="14.527286275691736" lon="121.0297910728725"><ele>21.0</ele><time>2026-04-16T03:51:01.999Z</time></trkpt><trkpt lat="14.527320920264227" lon="121.02985043726372"><ele>21.0</ele><time>2026-04-16T03:51:02.999Z</time></trkpt><trkpt lat="14.527363957940466" lon="121.02995769501968"><ele>21.0</ele><time>2026-04-16T03:51:04.999Z</time></trkpt><trkpt lat="14.527408223579698" lon="121.03005454257969"><ele>21.0</ele><time>2026-04-16T03:51:06.999Z</time></trkpt><trkpt lat="14.52744220376756" lon="121.03013785557411"><ele>21.0</ele><time>2026-04-16T03:51:08.999Z</time></trkpt><trkpt lat="14.527470653441767" lon="121.03020600461822"><ele>21.0</ele><time>2026-04-16T03:51:10.999Z</time></trkpt><trkpt lat="14.527499855846028" lon="121.03027291105947"><ele>21.4</ele><time>2026-04-16T03:51:12.999Z</time></trkpt><trkpt lat="14.527540673805804" lon="121.030361309501"><ele>21.8</ele><time>2026-04-16T03:51:14.999Z</time></trkpt><trkpt lat="14.527577356657176" lon="121.03044691245277"><ele>22.2</ele><time>2026-04-16T03:51:16.999Z</time></trkpt><trkpt lat="14.527611834936994" lon="121.03054009928432"><ele>22.599999999999998</ele><time>2026-04-16T03:51:18.999Z</time></trkpt><trkpt lat="14.527660858945088" lon="121.0306511738253"><ele>23.0</ele><time>2026-04-16T03:51:20.999Z</time></trkpt><trkpt lat="14.527707401189211" lon="121.03076341639552"><ele>22.799999999999997</ele><time>2026-04-16T03:51:22.999Z</time></trkpt><trkpt lat="14.52776123189826" lon="121.03088085864529"><ele>22.6</ele><time>2026-04-16T03:51:24.999Z</time></trkpt><trkpt lat="14.527809669012731" lon="121.03098157313273"><ele>22.4</ele><time>2026-04-16T03:51:26.999Z</time></trkpt><trkpt lat="14.527863663176847" lon="121.03108816414363"><ele>22.200000000000003</ele><time>2026-04-16T03:51:28.999Z</time></trkpt><trkpt lat="14.527901355339035" lon="121.03114936963578"><ele>22.0</ele><time>2026-04-16T03:51:29.999Z</time></trkpt><trkpt lat="14.527943314870319" lon="121.03121804831267"><ele>22.166666666666664</ele><time>2026-04-16T03:51:30.999Z</time></trkpt><trkpt lat="14.527983339345877" lon="121.03129261512429"><ele>22.333333333333332</ele><time>2026-04-16T03:51:31.999Z</time></trkpt><trkpt lat="14.528032478602723" lon="121.03136638348546"><ele>22.5</ele><time>2026-04-16T03:51:32.999Z</time></trkpt><trkpt lat="14.528082233122449" lon="121.03144251410507"><ele>22.666666666666668</ele><time>2026-04-16T03:51:33.999Z</time></trkpt><trkpt lat="14.52812923780731" lon="121.03151400120299"><ele>22.833333333333336</ele><time>2026-04-16T03:51:34.999Z</time></trkpt><trkpt lat="14.52817979217653" lon="121.03158533109469"><ele>23.0</ele><time>2026-04-16T03:51:35.999Z</time></trkpt><trkpt lat="14.52822989918692" lon="121.03166155846272"><ele>23.0</ele><time>2026-04-16T03:51:36.999Z</time></trkpt><trkpt lat="14.52827915794428" lon="121.0317360119295"><ele>23.0</ele><time>2026-04-16T03:51:37.999Z</time></trkpt><trkpt lat="14.528332174947773" lon="121.03181477280283"><ele>23.0</ele><time>2026-04-16T03:51:38.999Z</time></trkpt><trkpt lat="14.528397914059648" lon="121.03190543526453"><ele>23.0</ele><time>2026-04-16T03:51:39.999Z</time></trkpt><trkpt lat="14.528469749183076" lon="121.0319973483763"><ele>23.0</ele><time>2026-04-16T03:51:40.999Z</time></trkpt><trkpt lat="14.528537579763855" lon="121.03209883435275"><ele>23.0</ele><time>2026-04-16T03:51:41.999Z</time></trkpt><trkpt lat="14.528605390689785" lon="121.03220434598137"><ele>23.0</ele><time>2026-04-16T03:51:42.999Z</time></trkpt><trkpt lat="14.52867740765692" lon="121.0323099474945"><ele>23.0</ele><time>2026-04-16T03:51:43.999Z</time></trkpt><trkpt lat="14.528744937723514" lon="121.03240435254592"><ele>23.0</ele><time>2026-04-16T03:51:44.999Z</time></trkpt><trkpt lat="14.528814721374465" lon="121.03248095998948"><ele>23.0</ele><time>2026-04-16T03:51:45.999Z</time></trkpt><trkpt lat="14.528900302164239" lon="121.03256166908503"><ele>23.0</ele><time>2026-04-16T03:51:46.999Z</time></trkpt><trkpt lat="14.528982114174802" lon="121.03263166669385"><ele>23.0</ele><time>2026-04-16T03:51:47.999Z</time></trkpt><trkpt lat="14.529080921883539" lon="121.03270243202026"><ele>23.0</ele><time>2026-04-16T03:51:48.999Z</time></trkpt><trkpt lat="14.529196903827328" lon="121.03277228594726"><ele>23.0</ele><time>2026-04-16T03:51:49.999Z</time></trkpt><trkpt lat="14.529310614019534" lon="121.03283300963197"><ele>23.0</ele><time>2026-04-16T03:51:50.999Z</time></trkpt><trkpt lat="14.52942889368202" lon="121.03288893059432"><ele>23.0</ele><time>2026-04-16T03:51:51.999Z</time></trkpt><trkpt lat="14.529542459310719" lon="121.03294195435039"><ele>23.0</ele><time>2026-04-16T03:51:52.999Z</time></trkpt><trkpt lat="14.529662626607228" lon="121.03299920817668"><ele>23.0</ele><time>2026-04-16T03:51:54Z</time></trkpt><trkpt lat="14.52977974737769" lon="121.03305602465802"><ele>23.0</ele><time>2026-04-16T03:51:55Z</time></trkpt><trkpt lat="14.52989554098798" lon="121.033115063828"><ele>23.0</ele><time>2026-04-16T03:51:56Z</time></trkpt><trkpt lat="14.5300121184085" lon="121.03317648980335"><ele>23.0</ele><time>2026-04-16T03:51:57Z</time></trkpt><trkpt lat="14.530130682393803" lon="121.03323033541814"><ele>23.0</ele><time>2026-04-16T03:51:58Z</time></trkpt><trkpt lat="14.53024908229394" lon="121.03329126098791"><ele>23.0</ele><time>2026-04-16T03:51:59Z</time></trkpt><trkpt lat="14.530362450303478" lon="121.0333579028121"><ele>23.0</ele><time>2026-04-16T03:52:00Z</time></trkpt><trkpt lat="14.530465555083488" lon="121.03343537901733"><ele>23.0</ele><time>2026-04-16T03:52:01Z</time></trkpt><trkpt lat="14.530571112000809" lon="121.0335147188234"><ele>23.5</ele><time>2026-04-16T03:52:02Z</time></trkpt><trkpt lat="14.53067161193624" lon="121.03360301294485"><ele>24.0</ele><time>2026-04-16T03:52:03Z</time></trkpt><trkpt lat="14.530771744098129" lon="121.03369623961906"><ele>24.5</ele><time>2026-04-16T03:52:04Z</time></trkpt><trkpt lat="14.530873699159772" lon="121.03380522797774"><ele>25.0</ele><time>2026-04-16T03:52:05Z</time></trkpt><trkpt lat="14.530979204173555" lon="121.03391901269286"><ele>25.0</ele><time>2026-04-16T03:52:06Z</time></trkpt><trkpt lat="14.531092590026326" lon="121.03403818479696"><ele>25.0</ele><time>2026-04-16T03:52:07Z</time></trkpt><trkpt lat="14.53122500763646" lon="121.0341665630731"><ele>25.0</ele><time>2026-04-16T03:52:08Z</time></trkpt><trkpt lat="14.53135341770124" lon="121.03428079063211"><ele>25.333333333333336</ele><time>2026-04-16T03:52:09Z</time></trkpt><trkpt lat="14.53148856316554" lon="121.03441309619407"><ele>25.666666666666664</ele><time>2026-04-16T03:52:10Z</time></trkpt><trkpt lat="14.53160955661116" lon="121.03453724045293"><ele>26.0</ele><time>2026-04-16T03:52:11Z</time></trkpt><trkpt lat="14.531725312496738" lon="121.03466917247377"><ele>26.0</ele><time>2026-04-16T03:52:12Z</time></trkpt><trkpt lat="14.53183405821415" lon="121.0347953226186"><ele>26.0</ele><time>2026-04-16T03:52:13Z</time></trkpt><trkpt lat="14.531941455705157" lon="121.0349195016159"><ele>26.0</ele><time>2026-04-16T03:52:14Z</time></trkpt><trkpt lat="14.532046446312565" lon="121.03503301464555"><ele>25.333333333333332</ele><time>2026-04-16T03:52:15Z</time></trkpt><trkpt lat="14.532165600898631" lon="121.03515369020344"><ele>24.666666666666664</ele><time>2026-04-16T03:52:16Z</time></trkpt><trkpt lat="14.532285790599321" lon="121.0352787454466"><ele>24.0</ele><time>2026-04-16T03:52:17Z</time></trkpt><trkpt lat="14.532409626922627" lon="121.03541077564837"><ele>24.0</ele><time>2026-04-16T03:52:18Z</time></trkpt><trkpt lat="14.532521404714966" lon="121.03554274354487"><ele>24.0</ele><time>2026-04-16T03:52:19Z</time></trkpt><trkpt lat="14.532645526844316" lon="121.03567628878267"><ele>24.0</ele><time>2026-04-16T03:52:20Z</time></trkpt><trkpt lat="14.532768775385737" lon="121.03580993742867"><ele>23.666666666666668</ele><time>2026-04-16T03:52:21Z</time></trkpt><trkpt lat="14.532891411465828" lon="121.03593729334047"><ele>23.333333333333336</ele><time>2026-04-16T03:52:22Z</time></trkpt><trkpt lat="14.533011522344454" lon="121.0360665565376"><ele>23.0</ele><time>2026-04-16T03:52:23Z</time></trkpt><trkpt lat="14.533126458778378" lon="121.03619726895896"><ele>23.0</ele><time>2026-04-16T03:52:24Z</time></trkpt><trkpt lat="14.533246699964808" lon="121.0363323681273"><ele>23.0</ele><time>2026-04-16T03:52:25Z</time></trkpt><trkpt lat="14.533365893530597" lon="121.03647197744793"><ele>23.0</ele><time>2026-04-16T03:52:26Z</time></trkpt><trkpt lat="14.533490690996613" lon="121.03661272627093"><ele>22.666666666666668</ele><time>2026-04-16T03:52:27Z</time></trkpt><trkpt lat="14.533613975250391" lon="121.03675529595122"><ele>22.333333333333332</ele><time>2026-04-16T03:52:28Z</time></trkpt><trkpt lat="14.53373874919393" lon="121.0368961959461"><ele>22.0</ele><time>2026-04-16T03:52:29Z</time></trkpt><trkpt lat="14.533864617809561" lon="121.03704328691292"><ele>22.0</ele><time>2026-04-16T03:52:30Z</time></trkpt><trkpt lat="14.533983251724042" lon="121.03719123852561"><ele>22.0</ele><time>2026-04-16T03:52:31Z</time></trkpt><trkpt lat="14.534095347570736" lon="121.0373473266996"><ele>22.0</ele><time>2026-04-16T03:52:32Z</time></trkpt><trkpt lat="14.53419846919734" lon="121.03750891598312"><ele>24.666666666666664</ele><time>2026-04-16T03:52:33Z</time></trkpt><trkpt lat="14.534293040569336" lon="121.03767326467381"><ele>27.333333333333332</ele><time>2026-04-16T03:52:34Z</time></trkpt><trkpt lat="14.534378652792592" lon="121.037833925858"><ele>30.0</ele><time>2026-04-16T03:52:35Z</time></trkpt><trkpt lat="14.534457119943347" lon="121.03799275611334"><ele>30.0</ele><time>2026-04-16T03:52:36Z</time></trkpt><trkpt lat="14.534529565294351" lon="121.0381583418653"><ele>30.0</ele><time>2026-04-16T03:52:37Z</time></trkpt><trkpt lat="14.534589010262133" lon="121.03832103942983"><ele>30.0</ele><time>2026-04-16T03:52:38Z</time></trkpt><trkpt lat="14.534638779693326" lon="121.0384820622457"><ele>28.0</ele><time>2026-04-16T03:52:39Z</time></trkpt><trkpt lat="14.534680697316496" lon="121.03864109318351"><ele>26.0</ele><time>2026-04-16T03:52:40Z</time></trkpt><trkpt lat="14.534716730565862" lon="121.03880108012878"><ele>24.0</ele><time>2026-04-16T03:52:41Z</time></trkpt><trkpt lat="14.534751490293187" lon="121.03896782082485"><ele>24.0</ele><time>2026-04-16T03:52:42Z</time></trkpt><trkpt lat="14.534774743841323" lon="121.039115084614"><ele>24.0</ele><time>2026-04-16T03:52:43Z</time></trkpt><trkpt lat="14.53478753271145" lon="121.03925204576579"><ele>24.0</ele><time>2026-04-16T03:52:44Z</time></trkpt><trkpt lat="14.534798008554768" lon="121.03938431005437"><ele>24.0</ele><time>2026-04-16T03:52:45Z</time></trkpt><trkpt lat="14.534805896863872" lon="121.03950929356822"><ele>24.25</ele><time>2026-04-16T03:52:46Z</time></trkpt><trkpt lat="14.534815769640023" lon="121.03964116379923"><ele>24.5</ele><time>2026-04-16T03:52:47Z</time></trkpt><trkpt lat="14.53482417429868" lon="121.03975975903697"><ele>24.75</ele><time>2026-04-16T03:52:48Z</time></trkpt><trkpt lat="14.534826400317295" lon="121.03986959563507"><ele>25.0</ele><time>2026-04-16T03:52:49Z</time></trkpt><trkpt lat="14.534817009531528" lon="121.03999118276228"><ele>25.8</ele><time>2026-04-16T03:52:50Z</time></trkpt><trkpt lat="14.534813874926066" lon="121.04010487451293"><ele>26.6</ele><time>2026-04-16T03:52:51Z</time></trkpt><trkpt lat="14.534800612501034" lon="121.0402108248669"><ele>27.4</ele><time>2026-04-16T03:52:52Z</time></trkpt><trkpt lat="14.534793529637755" lon="121.04030654957157"><ele>28.2</ele><time>2026-04-16T03:52:53Z</time></trkpt><trkpt lat="14.534787314549842" lon="121.04039891814244"><ele>29.0</ele><time>2026-04-16T03:52:54Z</time></trkpt><trkpt lat="14.534777306342692" lon="121.04047874014275"><ele>28.999999999999996</ele><time>2026-04-16T03:52:55Z</time></trkpt><trkpt lat="14.534773326234792" lon="121.04055586616968"><ele>29.0</ele><time>2026-04-16T03:52:56Z</time></trkpt><trkpt lat="14.534768937758335" lon="121.04062573526974"><ele>29.0</ele><time>2026-04-16T03:52:57Z</time></trkpt><trkpt lat="14.53475143478215" lon="121.0407411366001"><ele>29.0</ele><time>2026-04-16T03:52:59Z</time></trkpt><trkpt lat="14.534666809950483" lon="121.04082201469119"><ele>28.999999999999996</ele><time>2026-04-16T03:53:01Z</time></trkpt><trkpt lat="14.534598148050641" lon="121.04084922496583"><ele>29.0</ele><time>2026-04-16T03:53:02Z</time></trkpt><trkpt lat="14.534515282479266" lon="121.04086383759692"><ele>28.5</ele><time>2026-04-16T03:53:03Z</time></trkpt><trkpt lat="14.534412273602937" lon="121.04087579024683"><ele>28.0</ele><time>2026-04-16T03:53:03.999Z</time></trkpt><trkpt lat="14.534298111277481" lon="121.04088537239066"><ele>27.5</ele><time>2026-04-16T03:53:04.999Z</time></trkpt><trkpt lat="14.534175317081672" lon="121.04089221976825"><ele>27.0</ele><time>2026-04-16T03:53:05.999Z</time></trkpt><trkpt lat="14.534034829529565" lon="121.04089937431034"><ele>27.0</ele><time>2026-04-16T03:53:06.999Z</time></trkpt><trkpt lat="14.533884726776458" lon="121.04090956287453"><ele>27.0</ele><time>2026-04-16T03:53:07.999Z</time></trkpt><trkpt lat="14.53372973501182" lon="121.04091817597654"><ele>27.0</ele><time>2026-04-16T03:53:08.999Z</time></trkpt><trkpt lat="14.533560554444096" lon="121.04093369522414"><ele>27.666666666666664</ele><time>2026-04-16T03:53:09.999Z</time></trkpt><trkpt lat="14.533386012045494" lon="121.04094974784559"><ele>28.333333333333332</ele><time>2026-04-16T03:53:10.999Z</time></trkpt><trkpt lat="14.533196144821819" lon="121.04097488250287"><ele>29.0</ele><time>2026-04-16T03:53:11.999Z</time></trkpt><trkpt lat="14.533012513313576" lon="121.04099428809441"><ele>27.0</ele><time>2026-04-16T03:53:12.999Z</time></trkpt><trkpt lat="14.532822352635108" lon="121.04100809850033"><ele>25.0</ele><time>2026-04-16T03:53:13.999Z</time></trkpt><trkpt lat="14.532631028768215" lon="121.04101953948015"><ele>23.0</ele><time>2026-04-16T03:53:14.999Z</time></trkpt><trkpt lat="14.532438960249802" lon="121.0410223299064"><ele>23.0</ele><time>2026-04-16T03:53:15.999Z</time></trkpt><trkpt lat="14.532244819872309" lon="121.04102763821251"><ele>23.0</ele><time>2026-04-16T03:53:16.999Z</time></trkpt><trkpt lat="14.532048766246696" lon="121.04103275827224"><ele>23.0</ele><time>2026-04-16T03:53:17.999Z</time></trkpt><trkpt lat="14.531844416825823" lon="121.04104576652016"><ele>21.333333333333336</ele><time>2026-04-16T03:53:18.999Z</time></trkpt><trkpt lat="14.531641724115357" lon="121.04106609994457"><ele>19.666666666666668</ele><time>2026-04-16T03:53:19.999Z</time></trkpt><trkpt lat="14.531482307641996" lon="121.04107914269942"><ele>18.0</ele><time>2026-04-16T03:53:20.999Z</time></trkpt><trkpt lat="14.531388260021119" lon="121.04109161152402"><ele>18.0</ele><time>2026-04-16T03:53:21.999Z</time></trkpt><trkpt lat="14.531309429847628" lon="121.04108186203966"><ele>18.0</ele><time>2026-04-16T03:53:23.999Z</time></trkpt><trkpt lat="14.531180623924433" lon="121.04109393879614"><ele>18.0</ele><time>2026-04-16T03:53:25.999Z</time></trkpt><trkpt lat="14.531076822727268" lon="121.0411105665569"><ele>18.0</ele><time>2026-04-16T03:53:26.999Z</time></trkpt><trkpt lat="14.530965971703306" lon="121.04111551615429"><ele>18.0</ele><time>2026-04-16T03:53:27.999Z</time></trkpt><trkpt lat="14.530841300198198" lon="121.04112596379392"><ele>19.25</ele><time>2026-04-16T03:53:28.999Z</time></trkpt><trkpt lat="14.530719365308364" lon="121.0411379928866"><ele>20.5</ele><time>2026-04-16T03:53:29.999Z</time></trkpt><trkpt lat="14.530589772018207" lon="121.04116251524184"><ele>21.75</ele><time>2026-04-16T03:53:30.999Z</time></trkpt><trkpt lat="14.530461299780765" lon="121.04118312738345"><ele>23.0</ele><time>2026-04-16T03:53:31.999Z</time></trkpt><trkpt lat="14.530332429489647" lon="121.04120889723083"><ele>24.25</ele><time>2026-04-16T03:53:32.999Z</time></trkpt><trkpt lat="14.53019953967022" lon="121.04124811175907"><ele>25.5</ele><time>2026-04-16T03:53:33.999Z</time></trkpt><trkpt lat="14.530063304250763" lon="121.04129614172105"><ele>26.75</ele><time>2026-04-16T03:53:34.999Z</time></trkpt><trkpt lat="14.529930886738317" lon="121.04135101489783"><ele>28.0</ele><time>2026-04-16T03:53:35.999Z</time></trkpt><trkpt lat="14.529802540177624" lon="121.0414013224517"><ele>28.0</ele><time>2026-04-16T03:53:36.999Z</time></trkpt><trkpt lat="14.529656953695829" lon="121.0414638624901"><ele>28.0</ele><time>2026-04-16T03:53:37.999Z</time></trkpt><trkpt lat="14.529515083672013" lon="121.04153060037373"><ele>28.0</ele><time>2026-04-16T03:53:38.999Z</time></trkpt><trkpt lat="14.529375459622822" lon="121.04157816420731"><ele>28.75</ele><time>2026-04-16T03:53:39.999Z</time></trkpt><trkpt lat="14.529237832065958" lon="121.04163686275213"><ele>29.5</ele><time>2026-04-16T03:53:40.999Z</time></trkpt><trkpt lat="14.529108693202389" lon="121.04169027093674"><ele>30.25</ele><time>2026-04-16T03:53:41.999Z</time></trkpt><trkpt lat="14.528973293391298" lon="121.0417430087376"><ele>31.0</ele><time>2026-04-16T03:53:42.999Z</time></trkpt><trkpt lat="14.528843879299364" lon="121.04179392565015"><ele>30.75</ele><time>2026-04-16T03:53:43.999Z</time></trkpt><trkpt lat="14.528713838835735" lon="121.04185606604948"><ele>30.5</ele><time>2026-04-16T03:53:44.999Z</time></trkpt><trkpt lat="14.528581911115669" lon="121.04191102004238"><ele>30.25</ele><time>2026-04-16T03:53:45.999Z</time></trkpt><trkpt lat="14.52845056258023" lon="121.04196459232264"><ele>30.0</ele><time>2026-04-16T03:53:47Z</time></trkpt><trkpt lat="14.528325856345296" lon="121.04201809310322"><ele>30.0</ele><time>2026-04-16T03:53:48Z</time></trkpt><trkpt lat="14.528212066462077" lon="121.04206707638461"><ele>30.0</ele><time>2026-04-16T03:53:49Z</time></trkpt><trkpt lat="14.52810097996289" lon="121.042110419002"><ele>30.0</ele><time>2026-04-16T03:53:50Z</time></trkpt><trkpt lat="14.527981930776978" lon="121.04216129333922"><ele>30.0</ele><time>2026-04-16T03:53:51Z</time></trkpt><trkpt lat="14.527856941337282" lon="121.0422098396297"><ele>30.0</ele><time>2026-04-16T03:53:52Z</time></trkpt><trkpt lat="14.52773126830117" lon="121.04226527231486"><ele>30.0</ele><time>2026-04-16T03:53:53Z</time></trkpt><trkpt lat="14.527613101596554" lon="121.04231346571378"><ele>30.0</ele><time>2026-04-16T03:53:54Z</time></trkpt><trkpt lat="14.527508151209279" lon="121.04235623291429"><ele>30.0</ele><time>2026-04-16T03:53:55Z</time></trkpt><trkpt lat="14.527408770314278" lon="121.04239498522358"><ele>30.0</ele><time>2026-04-16T03:53:56Z</time></trkpt><trkpt lat="14.527343290550139" lon="121.04242574890142"><ele>30.0</ele><time>2026-04-16T03:53:57Z</time></trkpt><trkpt lat="14.527253768847078" lon="121.042463212623"><ele>30.0</ele><time>2026-04-16T03:53:59Z</time></trkpt><trkpt lat="14.527190845224215" lon="121.04248815368136"><ele>30.0</ele><time>2026-04-16T03:54:02Z</time></trkpt><trkpt lat="14.527106211751383" lon="121.04253306928133"><ele>30.0</ele><time>2026-04-16T03:54:05Z</time></trkpt><trkpt lat="14.526996192398293" lon="121.04258310693255"><ele>30.142857142857146</ele><time>2026-04-16T03:54:07Z</time></trkpt><trkpt lat="14.52693144122459" lon="121.0426044467321"><ele>30.285714285714285</ele><time>2026-04-16T03:54:08Z</time></trkpt><trkpt lat="14.52686531544434" lon="121.04262835856694"><ele>30.42857142857143</ele><time>2026-04-16T03:54:09Z</time></trkpt><trkpt lat="14.526800643173235" lon="121.04265336443224"><ele>30.571428571428573</ele><time>2026-04-16T03:54:10Z</time></trkpt><trkpt lat="14.526734560595074" lon="121.04268923462737"><ele>30.714285714285715</ele><time>2026-04-16T03:54:11Z</time></trkpt><trkpt lat="14.52666294368738" lon="121.04272689174033"><ele>30.857142857142858</ele><time>2026-04-16T03:54:12Z</time></trkpt><trkpt lat="14.526588226130524" lon="121.0427621368764"><ele>31.0</ele><time>2026-04-16T03:54:13Z</time></trkpt><trkpt lat="14.526509511260972" lon="121.04280456529733"><ele>31.0</ele><time>2026-04-16T03:54:14Z</time></trkpt><trkpt lat="14.526423055583365" lon="121.0428555962927"><ele>31.0</ele><time>2026-04-16T03:54:15Z</time></trkpt><trkpt lat="14.526335496701524" lon="121.04290167248043"><ele>31.0</ele><time>2026-04-16T03:54:16Z</time></trkpt><trkpt lat="14.526246633215308" lon="121.04295166718022"><ele>31.0</ele><time>2026-04-16T03:54:17Z</time></trkpt><trkpt lat="14.526162407075246" lon="121.04300541802364"><ele>31.0</ele><time>2026-04-16T03:54:18Z</time></trkpt><trkpt lat="14.52607575322085" lon="121.04305838692721"><ele>31.200000000000003</ele><time>2026-04-16T03:54:19Z</time></trkpt><trkpt lat="14.525986746412336" lon="121.04311793847121"><ele>31.400000000000002</ele><time>2026-04-16T03:54:20Z</time></trkpt><trkpt lat="14.525899821793594" lon="121.04317774751819"><ele>31.6</ele><time>2026-04-16T03:54:21Z</time></trkpt><trkpt lat="14.525810482963758" lon="121.04322996934846"><ele>31.8</ele><time>2026-04-16T03:54:22Z</time></trkpt><trkpt lat="14.525728242465652" lon="121.04328303482067"><ele>32.0</ele><time>2026-04-16T03:54:23Z</time></trkpt><trkpt lat="14.525648513568797" lon="121.04333244816198"><ele>31.999999999999996</ele><time>2026-04-16T03:54:24Z</time></trkpt><trkpt lat="14.52556628339728" lon="121.04338544364576"><ele>32.0</ele><time>2026-04-16T03:54:25Z</time></trkpt><trkpt lat="14.52548451686285" lon="121.04343537996634"><ele>32.0</ele><time>2026-04-16T03:54:26Z</time></trkpt><trkpt lat="14.525407448979818" lon="121.04348333629652"><ele>32.0</ele><time>2026-04-16T03:54:27Z</time></trkpt><trkpt lat="14.525334243996577" lon="121.04353025760597"><ele>31.999999999999996</ele><time>2026-04-16T03:54:28Z</time></trkpt><trkpt lat="14.52527426544019" lon="121.04357488434499"><ele>32.0</ele><time>2026-04-16T03:54:29Z</time></trkpt><trkpt lat="14.525217816597284" lon="121.04362087118531"><ele>32.0</ele><time>2026-04-16T03:54:30Z</time></trkpt><trkpt lat="14.525170665914013" lon="121.04368137282388"><ele>32.0</ele><time>2026-04-16T03:54:31Z</time></trkpt><trkpt lat="14.525124802975434" lon="121.04376172883903"><ele>32.0</ele><time>2026-04-16T03:54:32Z</time></trkpt><trkpt lat="14.525092603120331" lon="121.04384145224687"><ele>32.0</ele><time>2026-04-16T03:54:33Z</time></trkpt><trkpt lat="14.525057696210776" lon="121.04393706758056"><ele>32.0</ele><time>2026-04-16T03:54:34Z</time></trkpt><trkpt lat="14.525040356515337" lon="121.04405943384542"><ele>32.0</ele><time>2026-04-16T03:54:35Z</time></trkpt><trkpt lat="14.525009022428755" lon="121.04418132352285"><ele>32.0</ele><time>2026-04-16T03:54:36Z</time></trkpt><trkpt lat="14.524959462607248" lon="121.0443146685011"><ele>32.0</ele><time>2026-04-16T03:54:37Z</time></trkpt><trkpt lat="14.52492854993985" lon="121.0444409953741"><ele>32.0</ele><time>2026-04-16T03:54:38Z</time></trkpt><trkpt lat="14.524895893804587" lon="121.04457013921149"><ele>32.0</ele><time>2026-04-16T03:54:39Z</time></trkpt><trkpt lat="14.524863734126832" lon="121.04469790396361"><ele>32.0</ele><time>2026-04-16T03:54:40Z</time></trkpt><trkpt lat="14.524847855639038" lon="121.04483074133859"><ele>32.0</ele><time>2026-04-16T03:54:41Z</time></trkpt><trkpt lat="14.524813525270051" lon="121.04497085214985"><ele>32.0</ele><time>2026-04-16T03:54:42Z</time></trkpt><trkpt lat="14.524776841886311" lon="121.04512302950911"><ele>30.75</ele><time>2026-04-16T03:54:43Z</time></trkpt><trkpt lat="14.524740315705587" lon="121.0452754197145"><ele>29.5</ele><time>2026-04-16T03:54:44Z</time></trkpt><trkpt lat="14.524691624396628" lon="121.0454176695278"><ele>28.25</ele><time>2026-04-16T03:54:45Z</time></trkpt><trkpt lat="14.52467118827976" lon="121.04555438581197"><ele>27.0</ele><time>2026-04-16T03:54:46Z</time></trkpt><trkpt lat="14.52464636068226" lon="121.0456778428241"><ele>27.25</ele><time>2026-04-16T03:54:47Z</time></trkpt><trkpt lat="14.524618195469152" lon="121.04580497840219"><ele>27.5</ele><time>2026-04-16T03:54:48Z</time></trkpt><trkpt lat="14.524578425391095" lon="121.04592948463693"><ele>27.75</ele><time>2026-04-16T03:54:49Z</time></trkpt><trkpt lat="14.524520110586582" lon="121.04604801965151"><ele>28.0</ele><time>2026-04-16T03:54:50Z</time></trkpt><trkpt lat="14.524439046457237" lon="121.04615548470223"><ele>28.0</ele><time>2026-04-16T03:54:51Z</time></trkpt><trkpt lat="14.52434079520562" lon="121.0462502097358"><ele>28.0</ele><time>2026-04-16T03:54:52Z</time></trkpt><trkpt lat="14.524224705420824" lon="121.04632666710371"><ele>28.0</ele><time>2026-04-16T03:54:53Z</time></trkpt><trkpt lat="14.5241121143915" lon="121.04638295087908"><ele>28.0</ele><time>2026-04-16T03:54:54Z</time></trkpt><trkpt lat="14.523997262872648" lon="121.04642426411948"><ele>28.0</ele><time>2026-04-16T03:54:55Z</time></trkpt><trkpt lat="14.523881822085235" lon="121.04645181446622"><ele>27.999999999999996</ele><time>2026-04-16T03:54:56Z</time></trkpt><trkpt lat="14.523770809136987" lon="121.04646062763443"><ele>27.999999999999996</ele><time>2026-04-16T03:54:57Z</time></trkpt><trkpt lat="14.52366687013973" lon="121.04646823474326"><ele>28.0</ele><time>2026-04-16T03:54:58Z</time></trkpt><trkpt lat="14.523557179237182" lon="121.04648271384492"><ele>28.0</ele><time>2026-04-16T03:54:59Z</time></trkpt><trkpt lat="14.523443556753104" lon="121.04649768281938"><ele>29.0</ele><time>2026-04-16T03:55:00Z</time></trkpt><trkpt lat="14.523330656447142" lon="121.04651554507885"><ele>30.0</ele><time>2026-04-16T03:55:01Z</time></trkpt><trkpt lat="14.523211843656254" lon="121.04653290638241"><ele>31.0</ele><time>2026-04-16T03:55:02Z</time></trkpt><trkpt lat="14.52309069571875" lon="121.0465514982157"><ele>32.0</ele><time>2026-04-16T03:55:03Z</time></trkpt><trkpt lat="14.522957777681608" lon="121.04656661858347"><ele>30.75</ele><time>2026-04-16T03:55:04Z</time></trkpt><trkpt lat="14.522829637088247" lon="121.04657926664319"><ele>29.5</ele><time>2026-04-16T03:55:05Z</time></trkpt><trkpt lat="14.52269987608077" lon="121.04659175069719"><ele>28.25</ele><time>2026-04-16T03:55:06Z</time></trkpt><trkpt lat="14.522564005799326" lon="121.04660319122554"><ele>27.0</ele><time>2026-04-16T03:55:07Z</time></trkpt><trkpt lat="14.522430829362692" lon="121.04661625017314"><ele>25.75</ele><time>2026-04-16T03:55:08Z</time></trkpt><trkpt lat="14.522299228133495" lon="121.04663127453773"><ele>24.5</ele><time>2026-04-16T03:55:09Z</time></trkpt><trkpt lat="14.522165944872132" lon="121.0466445115727"><ele>23.25</ele><time>2026-04-16T03:55:09.999Z</time></trkpt><trkpt lat="14.522027858022073" lon="121.04666008714412"><ele>22.0</ele><time>2026-04-16T03:55:10.999Z</time></trkpt><trkpt lat="14.521885542934129" lon="121.04667672326468"><ele>22.0</ele><time>2026-04-16T03:55:11.999Z</time></trkpt><trkpt lat="14.521745301532647" lon="121.04669209720898"><ele>22.0</ele><time>2026-04-16T03:55:12.999Z</time></trkpt><trkpt lat="14.521606049166776" lon="121.0467084317869"><ele>22.0</ele><time>2026-04-16T03:55:13.999Z</time></trkpt><trkpt lat="14.521462822503347" lon="121.04672718437769"><ele>22.0</ele><time>2026-04-16T03:55:14.999Z</time></trkpt><trkpt lat="14.52131944446127" lon="121.04673875387768"><ele>21.75</ele><time>2026-04-16T03:55:15.999Z</time></trkpt><trkpt lat="14.521172524871549" lon="121.04674380714216"><ele>21.5</ele><time>2026-04-16T03:55:16.999Z</time></trkpt><trkpt lat="14.521022970054664" lon="121.04675093323024"><ele>21.25</ele><time>2026-04-16T03:55:17.999Z</time></trkpt><trkpt lat="14.520871315151211" lon="121.04676035126974"><ele>21.0</ele><time>2026-04-16T03:55:18.999Z</time></trkpt><trkpt lat="14.52072135866865" lon="121.04677633058124"><ele>21.0</ele><time>2026-04-16T03:55:19.999Z</time></trkpt><trkpt lat="14.520563257158145" lon="121.04679672279521"><ele>21.0</ele><time>2026-04-16T03:55:20.999Z</time></trkpt><trkpt lat="14.520412425811733" lon="121.04682855602037"><ele>21.0</ele><time>2026-04-16T03:55:21.999Z</time></trkpt><trkpt lat="14.520263770079678" lon="121.04687193694892"><ele>21.75</ele><time>2026-04-16T03:55:22.999Z</time></trkpt><trkpt lat="14.520130506211954" lon="121.04692707211406"><ele>22.5</ele><time>2026-04-16T03:55:23.999Z</time></trkpt><trkpt lat="14.519995966254235" lon="121.04699647016803"><ele>23.25</ele><time>2026-04-16T03:55:24.999Z</time></trkpt><trkpt lat="14.519873693747096" lon="121.0470944893568"><ele>24.0</ele><time>2026-04-16T03:55:25.999Z</time></trkpt><trkpt lat="14.519749193301758" lon="121.04719190652017"><ele>24.0</ele><time>2026-04-16T03:55:26.999Z</time></trkpt><trkpt lat="14.519629675719555" lon="121.04729040967581"><ele>24.0</ele><time>2026-04-16T03:55:27.999Z</time></trkpt><trkpt lat="14.519509238817653" lon="121.04739637028622"><ele>24.0</ele><time>2026-04-16T03:55:28.999Z</time></trkpt><trkpt lat="14.519413305225802" lon="121.0475299224264"><ele>23.0</ele><time>2026-04-16T03:55:29.999Z</time></trkpt><trkpt lat="14.519325665175538" lon="121.04767643234356"><ele>22.0</ele><time>2026-04-16T03:55:30.999Z</time></trkpt><trkpt lat="14.51925478183201" lon="121.04782770823593"><ele>21.0</ele><time>2026-04-16T03:55:31.999Z</time></trkpt><trkpt lat="14.51922230250094" lon="121.0479850307437"><ele>21.0</ele><time>2026-04-16T03:55:32.999Z</time></trkpt><trkpt lat="14.519181083835333" lon="121.04813676210948"><ele>21.0</ele><time>2026-04-16T03:55:33.999Z</time></trkpt><trkpt lat="14.519158887541003" lon="121.04829377626564"><ele>21.0</ele><time>2026-04-16T03:55:34.999Z</time></trkpt><trkpt lat="14.519149193831085" lon="121.04845718313273"><ele>19.0</ele><time>2026-04-16T03:55:35.999Z</time></trkpt><trkpt lat="14.519151216978738" lon="121.0486246262581"><ele>17.0</ele><time>2026-04-16T03:55:36.999Z</time></trkpt><trkpt lat="14.51916130645917" lon="121.04879229328137"><ele>15.0</ele><time>2026-04-16T03:55:38Z</time></trkpt><trkpt lat="14.519166991073291" lon="121.04896675907644"><ele>16.333333333333332</ele><time>2026-04-16T03:55:39Z</time></trkpt><trkpt lat="14.519196108296171" lon="121.04913406264427"><ele>17.666666666666664</ele><time>2026-04-16T03:55:40Z</time></trkpt><trkpt lat="14.519222332530973" lon="121.0492912483318"><ele>19.0</ele><time>2026-04-16T03:55:41Z</time></trkpt><trkpt lat="14.519243707077196" lon="121.04943470899943"><ele>19.0</ele><time>2026-04-16T03:55:42Z</time></trkpt><trkpt lat="14.51925953690429" lon="121.04957169794146"><ele>19.0</ele><time>2026-04-16T03:55:43Z</time></trkpt><trkpt lat="14.519263512780748" lon="121.04970152077134"><ele>19.0</ele><time>2026-04-16T03:55:44Z</time></trkpt><trkpt lat="14.519255335904317" lon="121.04982990509097"><ele>19.0</ele><time>2026-04-16T03:55:45Z</time></trkpt><trkpt lat="14.519230627624665" lon="121.04994503634676"><ele>18.8</ele><time>2026-04-16T03:55:46Z</time></trkpt><trkpt lat="14.51919015624235" lon="121.05003765847725"><ele>18.599999999999998</ele><time>2026-04-16T03:55:47Z</time></trkpt><trkpt lat="14.519144583789094" lon="121.05013447592604"><ele>18.4</ele><time>2026-04-16T03:55:48Z</time></trkpt><trkpt lat="14.519089371675683" lon="121.0502178259761"><ele>18.2</ele><time>2026-04-16T03:55:49Z</time></trkpt><trkpt lat="14.519016381287118" lon="121.05030420717587"><ele>18.0</ele><time>2026-04-16T03:55:50Z</time></trkpt><trkpt lat="14.518933095158495" lon="121.05037497677199"><ele>18.0</ele><time>2026-04-16T03:55:51Z</time></trkpt><trkpt lat="14.51885470486071" lon="121.050427592201"><ele>18.0</ele><time>2026-04-16T03:55:52Z</time></trkpt><trkpt lat="14.518772332764613" lon="121.05047736201105"><ele>18.0</ele><time>2026-04-16T03:55:53Z</time></trkpt><trkpt lat="14.51868817382544" lon="121.05051954336967"><ele>18.0</ele><time>2026-04-16T03:55:54Z</time></trkpt><trkpt lat="14.518602122248465" lon="121.0505538390919"><ele>18.0</ele><time>2026-04-16T03:55:55Z</time></trkpt><trkpt lat="14.518521453501753" lon="121.05057956307266"><ele>17.333333333333332</ele><time>2026-04-16T03:55:56Z</time></trkpt><trkpt lat="14.518436665716626" lon="121.05061017154678"><ele>16.666666666666668</ele><time>2026-04-16T03:55:57Z</time></trkpt><trkpt lat="14.518371558175097" lon="121.05063241430929"><ele>16.0</ele><time>2026-04-16T03:55:58Z</time></trkpt><trkpt lat="14.518289466739628" lon="121.05066562264311"><ele>15.333333333333334</ele><time>2026-04-16T03:56:00Z</time></trkpt><trkpt lat="14.518196759268793" lon="121.05070322705014"><ele>14.666666666666668</ele><time>2026-04-16T03:56:02Z</time></trkpt><trkpt lat="14.518131629678386" lon="121.05069768422177"><ele>14.0</ele><time>2026-04-16T03:56:03Z</time></trkpt><trkpt lat="14.51805843637532" lon="121.0507217104158"><ele>14.000000000000002</ele><time>2026-04-16T03:56:05Z</time></trkpt><trkpt lat="14.51796746127163" lon="121.0507851119877"><ele>14.0</ele><time>2026-04-16T03:56:10Z</time></trkpt><trkpt lat="14.517901468026826" lon="121.05080433633564"><ele>14.0</ele><time>2026-04-16T03:56:16Z</time></trkpt><trkpt lat="14.51784081251577" lon="121.05083125965635"><ele>14.0</ele><time>2026-04-16T03:56:18Z</time></trkpt><trkpt lat="14.517778703336319" lon="121.0508463706647"><ele>14.000000000000002</ele><time>2026-04-16T03:56:21Z</time></trkpt><trkpt lat="14.517668527137074" lon="121.05089445798636"><ele>14.0</ele><time>2026-04-16T03:56:50Z</time></trkpt><trkpt lat="14.517586764540436" lon="121.05092834273528"><ele>15.000000000000002</ele><time>2026-04-16T03:56:51Z</time></trkpt><trkpt lat="14.517508037115569" lon="121.05095286218771"><ele>16.0</ele><time>2026-04-16T03:56:52Z</time></trkpt><trkpt lat="14.51744063087056" lon="121.05097354450288"><ele>17.0</ele><time>2026-04-16T03:56:53Z</time></trkpt><trkpt lat="14.517354701477778" lon="121.05099520857762"><ele>18.0</ele><time>2026-04-16T03:56:54Z</time></trkpt><trkpt lat="14.517263466834242" lon="121.05101650972996"><ele>19.0</ele><time>2026-04-16T03:56:55Z</time></trkpt><trkpt lat="14.517198911303872" lon="121.05105773034823"><ele>20.0</ele><time>2026-04-16T03:56:56Z</time></trkpt><trkpt lat="14.517131258178162" lon="121.051103110365"><ele>21.2</ele><time>2026-04-16T03:56:57Z</time></trkpt><trkpt lat="14.51705669946947" lon="121.05114878218664"><ele>22.4</ele><time>2026-04-16T03:56:58Z</time></trkpt><trkpt lat="14.51696574152649" lon="121.05118552718115"><ele>23.6</ele><time>2026-04-16T03:56:59Z</time></trkpt><trkpt lat="14.516871757221065" lon="121.05123002595887"><ele>24.8</ele><time>2026-04-16T03:57:00Z</time></trkpt><trkpt lat="14.516793097502255" lon="121.0512760226187"><ele>26.0</ele><time>2026-04-16T03:57:01Z</time></trkpt><trkpt lat="14.516715132760657" lon="121.05131049127887"><ele>25.999999999999996</ele><time>2026-04-16T03:57:02Z</time></trkpt><trkpt lat="14.516645139328972" lon="121.05133397883937"><ele>26.0</ele><time>2026-04-16T03:57:03Z</time></trkpt><trkpt lat="14.51657809177687" lon="121.0513583288415"><ele>26.0</ele><time>2026-04-16T03:57:04Z</time></trkpt><trkpt lat="14.516510217160771" lon="121.05139122934864"><ele>26.0</ele><time>2026-04-16T03:57:05Z</time></trkpt><trkpt lat="14.516418027468838" lon="121.05143645979675"><ele>25.999999999999996</ele><time>2026-04-16T03:57:07Z</time></trkpt><trkpt lat="14.516353180220447" lon="121.0514627379749"><ele>26.0</ele><time>2026-04-16T03:57:09Z</time></trkpt><trkpt lat="14.516254292413217" lon="121.0515180122333"><ele>25.5</ele><time>2026-04-16T03:57:12.001Z</time></trkpt><trkpt lat="14.516151132435208" lon="121.05157192198378"><ele>25.0</ele><time>2026-04-16T03:57:14.001Z</time></trkpt><trkpt lat="14.516088000301812" lon="121.05160889651356"><ele>24.5</ele><time>2026-04-16T03:57:15.001Z</time></trkpt><trkpt lat="14.515939597950064" lon="121.05169092329221"><ele>24.0</ele><time>2026-04-16T03:57:15.999Z</time></trkpt><trkpt lat="14.515847214671275" lon="121.05173298148017"><ele>24.0</ele><time>2026-04-16T03:57:16.999Z</time></trkpt><trkpt lat="14.515766901300028" lon="121.05177676680837"><ele>24.0</ele><time>2026-04-16T03:57:17.999Z</time></trkpt><trkpt lat="14.5157072933867" lon="121.05180827184954"><ele>24.0</ele><time>2026-04-16T03:57:18.999Z</time></trkpt><trkpt lat="14.515603526187137" lon="121.05185060571797"><ele>24.0</ele><time>2026-04-16T03:57:20.999Z</time></trkpt><trkpt lat="14.515541525505746" lon="121.05187719779428"><ele>24.0</ele><time>2026-04-16T03:57:22.999Z</time></trkpt><trkpt lat="14.515460036084576" lon="121.05190103932713"><ele>24.0</ele><time>2026-04-16T03:57:24.999Z</time></trkpt><trkpt lat="14.515368370276555" lon="121.05196480849037"><ele>24.166666666666668</ele><time>2026-04-16T03:57:26.999Z</time></trkpt><trkpt lat="14.515312550701946" lon="121.05200064622065"><ele>24.333333333333336</ele><time>2026-04-16T03:57:28.999Z</time></trkpt><trkpt lat="14.515212639616685" lon="121.05206038863672"><ele>24.5</ele><time>2026-04-16T03:57:31.999Z</time></trkpt><trkpt lat="14.515143776711016" lon="121.0520878488079"><ele>24.666666666666668</ele><time>2026-04-16T03:57:32.999Z</time></trkpt><trkpt lat="14.515061048810903" lon="121.0521275861779"><ele>24.833333333333336</ele><time>2026-04-16T03:57:34Z</time></trkpt><trkpt lat="14.51497159206561" lon="121.05217356403567"><ele>25.0</ele><time>2026-04-16T03:57:35Z</time></trkpt><trkpt lat="14.514893421353307" lon="121.05221972674023"><ele>25.000000000000004</ele><time>2026-04-16T03:57:36Z</time></trkpt><trkpt lat="14.514816870313709" lon="121.05226503458717"><ele>25.0</ele><time>2026-04-16T03:57:37Z</time></trkpt><trkpt lat="14.514748742446447" lon="121.05231185495475"><ele>25.0</ele><time>2026-04-16T03:57:38Z</time></trkpt><trkpt lat="14.514689684819581" lon="121.05235234613833"><ele>25.0</ele><time>2026-04-16T03:57:39Z</time></trkpt><trkpt lat="14.514637283691314" lon="121.0523885991374"><ele>25.000000000000004</ele><time>2026-04-16T03:57:40Z</time></trkpt><trkpt lat="14.514560438898974" lon="121.05247215738233"><ele>25.0</ele><time>2026-04-16T03:57:42Z</time></trkpt><trkpt lat="14.514501142288095" lon="121.05259784056555"><ele>24.142857142857146</ele><time>2026-04-16T03:57:44Z</time></trkpt><trkpt lat="14.514470340095613" lon="121.05266131831827"><ele>23.285714285714285</ele><time>2026-04-16T03:57:45Z</time></trkpt><trkpt lat="14.51442482459227" lon="121.05272898007978"><ele>22.42857142857143</ele><time>2026-04-16T03:57:46Z</time></trkpt><trkpt lat="14.514375293741331" lon="121.05279775259093"><ele>21.571428571428573</ele><time>2026-04-16T03:57:47Z</time></trkpt><trkpt lat="14.514332346998644" lon="121.05286081374582"><ele>20.714285714285715</ele><time>2026-04-16T03:57:48Z</time></trkpt><trkpt lat="14.51429012738797" lon="121.05292247778445"><ele>19.857142857142858</ele><time>2026-04-16T03:57:49Z</time></trkpt><trkpt lat="14.514250373024298" lon="121.05297588753008"><ele>19.0</ele><time>2026-04-16T03:57:50Z</time></trkpt><trkpt lat="14.514210937547144" lon="121.05302738996492"><ele>19.0</ele><time>2026-04-16T03:57:51Z</time></trkpt><trkpt lat="14.514161631283576" lon="121.0530838092374"><ele>19.0</ele><time>2026-04-16T03:57:52Z</time></trkpt><trkpt lat="14.514092436896407" lon="121.05311322128678"><ele>19.0</ele><time>2026-04-16T03:57:53Z</time></trkpt><trkpt lat="14.514033758724556" lon="121.05317655252439"><ele>19.0</ele><time>2026-04-16T03:57:54Z</time></trkpt><trkpt lat="14.513973080507814" lon="121.05321414456604"><ele>19.0</ele><time>2026-04-16T03:57:55Z</time></trkpt><trkpt lat="14.513916405084466" lon="121.05324620777257"><ele>19.0</ele><time>2026-04-16T03:57:56Z</time></trkpt><trkpt lat="14.513822411324012" lon="121.05330929259088"><ele>18.333333333333332</ele><time>2026-04-16T03:57:58Z</time></trkpt><trkpt lat="14.513737179622497" lon="121.05336033613646"><ele>17.666666666666664</ele><time>2026-04-16T03:58:00Z</time></trkpt><trkpt lat="14.513672107277811" lon="121.05339694374265"><ele>17.0</ele><time>2026-04-16T03:58:01Z</time></trkpt><trkpt lat="14.513600510396815" lon="121.05343655738577"><ele>16.333333333333332</ele><time>2026-04-16T03:58:02Z</time></trkpt><trkpt lat="14.513533634875644" lon="121.05347841699958"><ele>15.666666666666666</ele><time>2026-04-16T03:58:03Z</time></trkpt><trkpt lat="14.51345893701875" lon="121.05353047776943"><ele>15.0</ele><time>2026-04-16T03:58:04Z</time></trkpt><trkpt lat="14.513392333695492" lon="121.05358241368499"><ele>15.0</ele><time>2026-04-16T03:58:05Z</time></trkpt><trkpt lat="14.51332545996212" lon="121.05364428901638"><ele>15.0</ele><time>2026-04-16T03:58:06Z</time></trkpt><trkpt lat="14.51326814537152" lon="121.05370205151296"><ele>15.0</ele><time>2026-04-16T03:58:07Z</time></trkpt><trkpt lat="14.51321301568824" lon="121.05375925735004"><ele>15.0</ele><time>2026-04-16T03:58:08Z</time></trkpt><trkpt lat="14.51316325883168" lon="121.05381636790769"><ele>15.0</ele><time>2026-04-16T03:58:09Z</time></trkpt><trkpt lat="14.513122635847639" lon="121.05387245655116"><ele>15.0</ele><time>2026-04-16T03:58:10Z</time></trkpt><trkpt lat="14.513072002405979" lon="121.05396661250995"><ele>15.0</ele><time>2026-04-16T03:58:12Z</time></trkpt><trkpt lat="14.513039483611864" lon="121.05404342996866"><ele>15.0</ele><time>2026-04-16T03:58:14Z</time></trkpt><trkpt lat="14.513014464591993" lon="121.0541063417839"><ele>15.0</ele><time>2026-04-16T03:58:17Z</time></trkpt><trkpt lat="14.512981459580288" lon="121.05420551782571"><ele>15.0</ele><time>2026-04-16T03:58:21Z</time></trkpt><trkpt lat="14.512966248320383" lon="121.05430296438198"><ele>15.0</ele><time>2026-04-16T03:58:23Z</time></trkpt><trkpt lat="14.512941691596414" lon="121.05442117623797"><ele>15.0</ele><time>2026-04-16T03:58:25Z</time></trkpt><trkpt lat="14.512929761616043" lon="121.05448508414949"><ele>15.0</ele><time>2026-04-16T03:58:26Z</time></trkpt><trkpt lat="14.512918147736567" lon="121.05455553362339"><ele>15.0</ele><time>2026-04-16T03:58:27Z</time></trkpt><trkpt lat="14.512896079446545" lon="121.05466872758133"><ele>15.0</ele><time>2026-04-16T03:58:29Z</time></trkpt><trkpt lat="14.51288203845901" lon="121.05474443349948"><ele>15.0</ele><time>2026-04-16T03:58:31Z</time></trkpt><trkpt lat="14.512882701952902" lon="121.05480983783343"><ele>15.0</ele><time>2026-04-16T03:58:35Z</time></trkpt><trkpt lat="14.51298498990791" lon="121.05482590827667"><ele>15.0</ele><time>2026-04-16T04:04:45Z</time></trkpt><trkpt lat="14.512922335413043" lon="121.05481101496954"><ele>15.0</ele><time>2026-04-16T04:12:07Z</time></trkpt><trkpt lat="14.512890785403558" lon="121.05474575055985"><ele>15.0</ele><time>2026-04-16T04:12:15Z</time></trkpt><trkpt lat="14.512944317928396" lon="121.05465928974483"><ele>15.0</ele><time>2026-04-16T04:12:17Z</time></trkpt><trkpt lat="14.51296990996656" lon="121.05456026125391"><ele>15.0</ele><time>2026-04-16T04:12:19Z</time></trkpt><trkpt lat="14.51299169243101" lon="121.05446508122499"><ele>15.0</ele><time>2026-04-16T04:12:21Z</time></trkpt><trkpt lat="14.51301434233252" lon="121.05436624028265"><ele>15.0</ele><time>2026-04-16T04:12:23Z</time></trkpt><trkpt lat="14.513038506435917" lon="121.05426079089388"><ele>15.0</ele><time>2026-04-16T04:12:25Z</time></trkpt><trkpt lat="14.513084642741369" lon="121.05416274720952"><ele>15.0</ele><time>2026-04-16T04:12:27Z</time></trkpt><trkpt lat="14.513120019457237" lon="121.05405731447529"><ele>15.0</ele><time>2026-04-16T04:12:29Z</time></trkpt><trkpt lat="14.51315481621395" lon="121.05394815234416"><ele>15.0</ele><time>2026-04-16T04:12:31Z</time></trkpt><trkpt lat="14.513186000447279" lon="121.05386325373905"><ele>15.0</ele><time>2026-04-16T04:12:33Z</time></trkpt><trkpt lat="14.513237266333258" lon="121.05379604644837"><ele>15.0</ele><time>2026-04-16T04:12:35Z</time></trkpt><trkpt lat="14.513269307749136" lon="121.05373209214031"><ele>15.0</ele><time>2026-04-16T04:12:37Z</time></trkpt><trkpt lat="14.513338876908358" lon="121.05367038858586"><ele>15.0</ele><time>2026-04-16T04:12:40Z</time></trkpt><trkpt lat="14.513389374723173" lon="121.05362698007379"><ele>15.0</ele><time>2026-04-16T04:12:42Z</time></trkpt><trkpt lat="14.513437485860083" lon="121.05357857280589"><ele>15.0</ele><time>2026-04-16T04:12:44Z</time></trkpt><trkpt lat="14.513511646073315" lon="121.05353325357451"><ele>15.0</ele><time>2026-04-16T04:12:47Z</time></trkpt><trkpt lat="14.51357949206814" lon="121.05346554507241"><ele>15.0</ele><time>2026-04-16T04:12:50Z</time></trkpt><trkpt lat="14.513667396874286" lon="121.05342979918463"><ele>15.0</ele><time>2026-04-16T04:12:52Z</time></trkpt><trkpt lat="14.513730520753844" lon="121.0533804454333"><ele>15.0</ele><time>2026-04-16T04:12:54Z</time></trkpt><trkpt lat="14.513809331173247" lon="121.05334228258886"><ele>15.0</ele><time>2026-04-16T04:12:56Z</time></trkpt><trkpt lat="14.513886921185735" lon="121.05330884182224"><ele>15.0</ele><time>2026-04-16T04:12:58Z</time></trkpt><trkpt lat="14.513947808080067" lon="121.05326306172365"><ele>15.8</ele><time>2026-04-16T04:13:00Z</time></trkpt><trkpt lat="14.514001837626738" lon="121.05322330702998"><ele>16.6</ele><time>2026-04-16T04:13:02Z</time></trkpt><trkpt lat="14.5140871457271" lon="121.05316901503676"><ele>17.4</ele><time>2026-04-16T04:13:04Z</time></trkpt><trkpt lat="14.51418186265773" lon="121.05309205847507"><ele>18.2</ele><time>2026-04-16T04:13:06.001Z</time></trkpt><trkpt lat="14.514228525665995" lon="121.05304456761289"><ele>19.0</ele><time>2026-04-16T04:13:07.001Z</time></trkpt><trkpt lat="14.514317860376847" lon="121.05296980650614"><ele>19.0</ele><time>2026-04-16T04:13:09.001Z</time></trkpt><trkpt lat="14.51438700046702" lon="121.0528792944754"><ele>19.0</ele><time>2026-04-16T04:13:11.001Z</time></trkpt><trkpt lat="14.514429448146732" lon="121.05280879398268"><ele>19.0</ele><time>2026-04-16T04:13:12.001Z</time></trkpt><trkpt lat="14.51449375937969" lon="121.05269711468831"><ele>19.0</ele><time>2026-04-16T04:13:14.001Z</time></trkpt><trkpt lat="14.514552210952541" lon="121.05260281405839"><ele>19.0</ele><time>2026-04-16T04:13:16.001Z</time></trkpt><trkpt lat="14.514634225426583" lon="121.05250714561996"><ele>20.0</ele><time>2026-04-16T04:13:18.001Z</time></trkpt><trkpt lat="14.514677376049006" lon="121.05245490643244"><ele>21.0</ele><time>2026-04-16T04:13:19.001Z</time></trkpt><trkpt lat="14.51472457616912" lon="121.05240798563278"><ele>22.0</ele><time>2026-04-16T04:13:20.001Z</time></trkpt><trkpt lat="14.514773692313387" lon="121.05236134053567"><ele>23.0</ele><time>2026-04-16T04:13:21.001Z</time></trkpt><trkpt lat="14.514831803745864" lon="121.05232975088974"><ele>24.000000000000004</ele><time>2026-04-16T04:13:22.001Z</time></trkpt><trkpt lat="14.514914609928196" lon="121.05227421364152"><ele>25.0</ele><time>2026-04-16T04:13:24.001Z</time></trkpt><trkpt lat="14.51499506152984" lon="121.05223284244184"><ele>25.0</ele><time>2026-04-16T04:13:26.001Z</time></trkpt><trkpt lat="14.515093375671281" lon="121.05218321475253"><ele>25.0</ele><time>2026-04-16T04:13:28.001Z</time></trkpt><trkpt lat="14.51518419794251" lon="121.05212020409178"><ele>25.0</ele><time>2026-04-16T04:13:30.001Z</time></trkpt><trkpt lat="14.515289371465885" lon="121.05207003173564"><ele>25.0</ele><time>2026-04-16T04:13:32.001Z</time></trkpt><trkpt lat="14.515346574020333" lon="121.0520407741072"><ele>25.0</ele><time>2026-04-16T04:13:33.001Z</time></trkpt><trkpt lat="14.515405315926735" lon="121.05200879531871"><ele>24.833333333333336</ele><time>2026-04-16T04:13:34.001Z</time></trkpt><trkpt lat="14.515472880092297" lon="121.05197668916551"><ele>24.666666666666668</ele><time>2026-04-16T04:13:35.001Z</time></trkpt><trkpt lat="14.515534819069208" lon="121.05194852676489"><ele>24.5</ele><time>2026-04-16T04:13:36.001Z</time></trkpt><trkpt lat="14.515596038070887" lon="121.05191981071685"><ele>24.333333333333336</ele><time>2026-04-16T04:13:37.001Z</time></trkpt><trkpt lat="14.515660386232145" lon="121.05188779268177"><ele>24.166666666666668</ele><time>2026-04-16T04:13:38.001Z</time></trkpt><trkpt lat="14.515737918316894" lon="121.05184989824787"><ele>24.0</ele><time>2026-04-16T04:13:39.001Z</time></trkpt><trkpt lat="14.515823868281954" lon="121.05180838516388"><ele>24.0</ele><time>2026-04-16T04:13:40.001Z</time></trkpt><trkpt lat="14.515915235755713" lon="121.05177203120863"><ele>24.0</ele><time>2026-04-16T04:13:41.001Z</time></trkpt><trkpt lat="14.516010251102346" lon="121.05173291831996"><ele>24.0</ele><time>2026-04-16T04:13:42.001Z</time></trkpt><trkpt lat="14.516088996482221" lon="121.0516979236114"><ele>24.0</ele><time>2026-04-16T04:13:43.001Z</time></trkpt><trkpt lat="14.516158991341356" lon="121.05166382368289"><ele>24.0</ele><time>2026-04-16T04:13:44.001Z</time></trkpt><trkpt lat="14.516221186686973" lon="121.05163351352556"><ele>24.0</ele><time>2026-04-16T04:13:45.001Z</time></trkpt><trkpt lat="14.516314150690087" lon="121.05159310907204"><ele>24.4</ele><time>2026-04-16T04:13:47.001Z</time></trkpt><trkpt lat="14.516370105203201" lon="121.05155583187297"><ele>24.799999999999997</ele><time>2026-04-16T04:13:49.001Z</time></trkpt><trkpt lat="14.516460874123306" lon="121.05149995004392"><ele>25.200000000000003</ele><time>2026-04-16T04:13:51.001Z</time></trkpt><trkpt lat="14.516575044149702" lon="121.05144131100143"><ele>25.6</ele><time>2026-04-16T04:13:53.001Z</time></trkpt><trkpt lat="14.516656959808515" lon="121.05141372865033"><ele>26.0</ele><time>2026-04-16T04:13:54.001Z</time></trkpt><trkpt lat="14.516745584748694" lon="121.05136697208181"><ele>25.999999999999996</ele><time>2026-04-16T04:13:55.001Z</time></trkpt><trkpt lat="14.516842376323037" lon="121.05131543456356"><ele>26.0</ele><time>2026-04-16T04:13:56.001Z</time></trkpt><trkpt lat="14.516898561052946" lon="121.05126929700725"><ele>26.0</ele><time>2026-04-16T04:13:57.001Z</time></trkpt><trkpt lat="14.516984942980221" lon="121.05122286015931"><ele>26.0</ele><time>2026-04-16T04:13:58.001Z</time></trkpt><trkpt lat="14.517069858624222" lon="121.05119496975203"><ele>25.999999999999996</ele><time>2026-04-16T04:13:59.001Z</time></trkpt><trkpt lat="14.517141382972106" lon="121.05117420224263"><ele>26.0</ele><time>2026-04-16T04:14:00.001Z</time></trkpt><trkpt lat="14.51724041398324" lon="121.05113751439724"><ele>24.999999999999996</ele><time>2026-04-16T04:14:02.001Z</time></trkpt><trkpt lat="14.51729965865838" lon="121.05109137551203"><ele>24.0</ele><time>2026-04-16T04:15:13Z</time></trkpt><trkpt lat="14.51736504473007" lon="121.05106042536542"><ele>23.0</ele><time>2026-04-16T04:15:15Z</time></trkpt><trkpt lat="14.517432444908449" lon="121.05103102884854"><ele>22.0</ele><time>2026-04-16T04:15:17Z</time></trkpt><trkpt lat="14.517513488180247" lon="121.05099977099444"><ele>21.0</ele><time>2026-04-16T04:15:19.001Z</time></trkpt><trkpt lat="14.517566267773503" lon="121.0509595018581"><ele>20.0</ele><time>2026-04-16T04:15:20.001Z</time></trkpt><trkpt lat="14.517681341055866" lon="121.05093430063879"><ele>20.0</ele><time>2026-04-16T04:15:22.001Z</time></trkpt><trkpt lat="14.517784299775803" lon="121.0509060792226"><ele>20.0</ele><time>2026-04-16T04:15:24.001Z</time></trkpt><trkpt lat="14.517903391284547" lon="121.05086321663995"><ele>20.0</ele><time>2026-04-16T04:15:26.001Z</time></trkpt><trkpt lat="14.51800317489133" lon="121.0508282927152"><ele>20.0</ele><time>2026-04-16T04:15:28.001Z</time></trkpt><trkpt lat="14.51809860487424" lon="121.05080401472037"><ele>20.0</ele><time>2026-04-16T04:15:30.001Z</time></trkpt><trkpt lat="14.518175324441984" lon="121.05078586712766"><ele>19.5</ele><time>2026-04-16T04:15:32.001Z</time></trkpt><trkpt lat="14.51824766139137" lon="121.05076688285163"><ele>19.0</ele><time>2026-04-16T04:15:34.001Z</time></trkpt><trkpt lat="14.518304097792411" lon="121.05073376200411"><ele>18.5</ele><time>2026-04-16T04:15:37.001Z</time></trkpt><trkpt lat="14.51839134684694" lon="121.05071690104838"><ele>18.0</ele><time>2026-04-16T04:15:39.001Z</time></trkpt><trkpt lat="14.518460520029738" lon="121.0507193838428"><ele>17.5</ele><time>2026-04-16T04:15:41.001Z</time></trkpt><trkpt lat="14.518531703299434" lon="121.0508342800377"><ele>17.0</ele><time>2026-04-16T04:15:43.001Z</time></trkpt><trkpt lat="14.51857817816672" lon="121.05093087406865"><ele>17.0</ele><time>2026-04-16T04:15:45.001Z</time></trkpt><trkpt lat="14.518609717558745" lon="121.05099727995092"><ele>17.0</ele><time>2026-04-16T04:15:46.001Z</time></trkpt><trkpt lat="14.51867163346624" lon="121.05106447925186"><ele>17.0</ele><time>2026-04-16T04:15:48.001Z</time></trkpt><trkpt lat="14.518728347463073" lon="121.0511588994116"><ele>17.0</ele><time>2026-04-16T04:15:50.001Z</time></trkpt><trkpt lat="14.518808414712458" lon="121.0512511906011"><ele>17.0</ele><time>2026-04-16T04:15:52.001Z</time></trkpt><trkpt lat="14.518914105566115" lon="121.05128264291929"><ele>17.2</ele><time>2026-04-16T04:15:54.001Z</time></trkpt><trkpt lat="14.51896863680225" lon="121.05134519122718"><ele>17.4</ele><time>2026-04-16T04:15:56.001Z</time></trkpt><trkpt lat="14.518985077296088" lon="121.05142857575701"><ele>17.6</ele><time>2026-04-16T04:15:58.001Z</time></trkpt><trkpt lat="14.51892977677169" lon="121.05150096906824"><ele>17.8</ele><time>2026-04-16T04:16:01.001Z</time></trkpt><trkpt lat="14.51883617366451" lon="121.05148098076108"><ele>18.0</ele><time>2026-04-16T04:16:04.001Z</time></trkpt><trkpt lat="14.518739869970629" lon="121.05137530791076"><ele>17.8</ele><time>2026-04-16T04:16:06.001Z</time></trkpt><trkpt lat="14.518676283514353" lon="121.05131069953643"><ele>17.6</ele><time>2026-04-16T04:16:07.001Z</time></trkpt><trkpt lat="14.51860665119092" lon="121.05123766149688"><ele>17.4</ele><time>2026-04-16T04:16:08.001Z</time></trkpt><trkpt lat="14.518527513834622" lon="121.05112893014959"><ele>17.2</ele><time>2026-04-16T04:16:09.001Z</time></trkpt><trkpt lat="14.518454593806057" lon="121.05104044821712"><ele>17.0</ele><time>2026-04-16T04:16:09.999Z</time></trkpt><trkpt lat="14.518376266490623" lon="121.0509332605468"><ele>17.0</ele><time>2026-04-16T04:16:10.999Z</time></trkpt><trkpt lat="14.518295120692752" lon="121.0508330348164"><ele>17.0</ele><time>2026-04-16T04:16:11.999Z</time></trkpt><trkpt lat="14.518217012559942" lon="121.05072431175557"><ele>17.0</ele><time>2026-04-16T04:16:12.999Z</time></trkpt><trkpt lat="14.518136262377594" lon="121.05061001833465"><ele>17.0</ele><time>2026-04-16T04:16:13.999Z</time></trkpt><trkpt lat="14.518054413504183" lon="121.05048911062875"><ele>16.25</ele><time>2026-04-16T04:16:14.999Z</time></trkpt><trkpt lat="14.51797428410246" lon="121.05036947348174"><ele>15.5</ele><time>2026-04-16T04:16:15.999Z</time></trkpt><trkpt lat="14.517897413684771" lon="121.0502491663057"><ele>14.75</ele><time>2026-04-16T04:16:16.999Z</time></trkpt><trkpt lat="14.5178269784945" lon="121.05013814832215"><ele>14.0</ele><time>2026-04-16T04:16:17.999Z</time></trkpt><trkpt lat="14.517765329350016" lon="121.05003267453868"><ele>15.75</ele><time>2026-04-16T04:16:18.999Z</time></trkpt><trkpt lat="14.51770344976421" lon="121.04992037241024"><ele>17.5</ele><time>2026-04-16T04:16:19.999Z</time></trkpt><trkpt lat="14.517641794776493" lon="121.04980369094585"><ele>19.25</ele><time>2026-04-16T04:16:20.999Z</time></trkpt><trkpt lat="14.5175835781559" lon="121.0496931474645"><ele>21.0</ele><time>2026-04-16T04:16:21.999Z</time></trkpt><trkpt lat="14.517527151109743" lon="121.04958535657757"><ele>21.0</ele><time>2026-04-16T04:16:22.999Z</time></trkpt><trkpt lat="14.517470640884445" lon="121.04947434902476"><ele>21.0</ele><time>2026-04-16T04:16:23.999Z</time></trkpt><trkpt lat="14.517420112047073" lon="121.04937512618474"><ele>21.0</ele><time>2026-04-16T04:16:24.999Z</time></trkpt><trkpt lat="14.517370528690277" lon="121.04927914610631"><ele>21.0</ele><time>2026-04-16T04:16:25.999Z</time></trkpt><trkpt lat="14.517324419080845" lon="121.04918538752004"><ele>21.0</ele><time>2026-04-16T04:16:26.999Z</time></trkpt><trkpt lat="14.51727453050687" lon="121.04908240644998"><ele>20.75</ele><time>2026-04-16T04:16:27.999Z</time></trkpt><trkpt lat="14.51722792534948" lon="121.04897427630075"><ele>20.5</ele><time>2026-04-16T04:16:28.999Z</time></trkpt><trkpt lat="14.517183028917044" lon="121.04886475944599"><ele>20.25</ele><time>2026-04-16T04:16:29.999Z</time></trkpt><trkpt lat="14.517136340603392" lon="121.04875686684257"><ele>20.0</ele><time>2026-04-16T04:16:30.999Z</time></trkpt><trkpt lat="14.517086685886234" lon="121.04864874442195"><ele>21.75</ele><time>2026-04-16T04:16:32Z</time></trkpt><trkpt lat="14.5170358611757" lon="121.04853504187598"><ele>23.5</ele><time>2026-04-16T04:16:33Z</time></trkpt><trkpt lat="14.51698863812904" lon="121.04841735171001"><ele>25.25</ele><time>2026-04-16T04:16:34Z</time></trkpt><trkpt lat="14.516943785248804" lon="121.04829427069042"><ele>27.0</ele><time>2026-04-16T04:16:35Z</time></trkpt><trkpt lat="14.5169050915885" lon="121.04816691002763"><ele>27.5</ele><time>2026-04-16T04:16:36Z</time></trkpt><trkpt lat="14.516859661054571" lon="121.04802671518465"><ele>28.0</ele><time>2026-04-16T04:16:37Z</time></trkpt><trkpt lat="14.516818381424615" lon="121.0478844146106"><ele>28.5</ele><time>2026-04-16T04:16:38Z</time></trkpt><trkpt lat="14.516779198759865" lon="121.04773552989776"><ele>29.0</ele><time>2026-04-16T04:16:39Z</time></trkpt><trkpt lat="14.516757874925718" lon="121.04757859390351"><ele>29.666666666666664</ele><time>2026-04-16T04:16:40Z</time></trkpt><trkpt lat="14.516720842846672" lon="121.04742153805022"><ele>30.333333333333336</ele><time>2026-04-16T04:16:41Z</time></trkpt><trkpt lat="14.516683685657814" lon="121.04726412613032"><ele>31.0</ele><time>2026-04-16T04:16:42Z</time></trkpt><trkpt lat="14.516647841397683" lon="121.04711344386374"><ele>31.0</ele><time>2026-04-16T04:16:43Z</time></trkpt><trkpt lat="14.51661319307183" lon="121.04696778901649"><ele>31.0</ele><time>2026-04-16T04:16:44Z</time></trkpt><trkpt lat="14.516583714501108" lon="121.046823850988"><ele>31.0</ele><time>2026-04-16T04:16:45Z</time></trkpt><trkpt lat="14.516540110073088" lon="121.04667366829311"><ele>31.0</ele><time>2026-04-16T04:16:46Z</time></trkpt><trkpt lat="14.516520438737388" lon="121.04652022092309"><ele>30.666666666666668</ele><time>2026-04-16T04:16:47Z</time></trkpt><trkpt lat="14.516501403245863" lon="121.04635165565044"><ele>30.333333333333336</ele><time>2026-04-16T04:16:48Z</time></trkpt><trkpt lat="14.516475417315725" lon="121.04618243947813"><ele>30.0</ele><time>2026-04-16T04:16:49Z</time></trkpt><trkpt lat="14.516452422041306" lon="121.04600334602088"><ele>30.0</ele><time>2026-04-16T04:16:50Z</time></trkpt><trkpt lat="14.516429581853968" lon="121.04581768693627"><ele>30.0</ele><time>2026-04-16T04:16:51Z</time></trkpt><trkpt lat="14.516411431822231" lon="121.04562889803037"><ele>30.0</ele><time>2026-04-16T04:16:52Z</time></trkpt><trkpt lat="14.51639367540224" lon="121.04543630043926"><ele>29.0</ele><time>2026-04-16T04:16:53Z</time></trkpt><trkpt lat="14.516377653152768" lon="121.04525315215345"><ele>28.0</ele><time>2026-04-16T04:16:54Z</time></trkpt><trkpt lat="14.51636271526199" lon="121.04507981523233"><ele>27.0</ele><time>2026-04-16T04:16:55Z</time></trkpt><trkpt lat="14.516349302675051" lon="121.04490854520941"><ele>26.0</ele><time>2026-04-16T04:16:56Z</time></trkpt><trkpt lat="14.516354516157161" lon="121.04473876974612"><ele>25.0</ele><time>2026-04-16T04:16:57Z</time></trkpt><trkpt lat="14.516351775680146" lon="121.04457106879906"><ele>24.0</ele><time>2026-04-16T04:16:58Z</time></trkpt><trkpt lat="14.516349232467073" lon="121.0444051837585"><ele>24.0</ele><time>2026-04-16T04:16:59Z</time></trkpt><trkpt lat="14.51634652939421" lon="121.04423840424822"><ele>24.0</ele><time>2026-04-16T04:17:00Z</time></trkpt><trkpt lat="14.516343860677651" lon="121.04407374455623"><ele>24.0</ele><time>2026-04-16T04:17:01Z</time></trkpt><trkpt lat="14.51634115957553" lon="121.04390708662734"><ele>23.666666666666668</ele><time>2026-04-16T04:17:02Z</time></trkpt><trkpt lat="14.516338607498493" lon="121.04374962345621"><ele>23.333333333333336</ele><time>2026-04-16T04:17:03Z</time></trkpt><trkpt lat="14.516336172130515" lon="121.04359553386949"><ele>23.0</ele><time>2026-04-16T04:17:04Z</time></trkpt><trkpt lat="14.516333489376184" lon="121.04343683867117"><ele>22.666666666666668</ele><time>2026-04-16T04:17:05Z</time></trkpt><trkpt lat="14.516331233415382" lon="121.04327918989719"><ele>22.333333333333332</ele><time>2026-04-16T04:17:06Z</time></trkpt><trkpt lat="14.516329093641234" lon="121.04312268538669"><ele>22.0</ele><time>2026-04-16T04:17:07Z</time></trkpt><trkpt lat="14.516326940755262" lon="121.04296522198273"><ele>22.0</ele><time>2026-04-16T04:17:08Z</time></trkpt><trkpt lat="14.516325378671736" lon="121.04280504393556"><ele>22.0</ele><time>2026-04-16T04:17:09Z</time></trkpt><trkpt lat="14.516323944222894" lon="121.04264500424901"><ele>22.0</ele><time>2026-04-16T04:17:10Z</time></trkpt><trkpt lat="14.516321921420493" lon="121.04248434716276"><ele>22.0</ele><time>2026-04-16T04:17:11Z</time></trkpt><trkpt lat="14.516319751712787" lon="121.0423248788994"><ele>22.0</ele><time>2026-04-16T04:17:12Z</time></trkpt><trkpt lat="14.516317389724609" lon="121.04215613318017"><ele>22.0</ele><time>2026-04-16T04:17:13Z</time></trkpt><trkpt lat="14.516315451934267" lon="121.04199075902353"><ele>22.0</ele><time>2026-04-16T04:17:14Z</time></trkpt><trkpt lat="14.516313629599434" lon="121.04182767190531"><ele>22.0</ele><time>2026-04-16T04:17:15Z</time></trkpt><trkpt lat="14.51631169902889" lon="121.0416733005773"><ele>22.0</ele><time>2026-04-16T04:17:16Z</time></trkpt><trkpt lat="14.516309871373418" lon="121.04152715843632"><ele>22.0</ele><time>2026-04-16T04:17:17Z</time></trkpt><trkpt lat="14.51629406110786" lon="121.04138964085362"><ele>22.0</ele><time>2026-04-16T04:17:18Z</time></trkpt><trkpt lat="14.51629641354429" lon="121.04125417691453"><ele>22.0</ele><time>2026-04-16T04:17:19Z</time></trkpt><trkpt lat="14.516295506722127" lon="121.04112515779936"><ele>22.0</ele><time>2026-04-16T04:17:20Z</time></trkpt><trkpt lat="14.516293918561006" lon="121.04101015865642"><ele>22.0</ele><time>2026-04-16T04:17:21Z</time></trkpt><trkpt lat="14.516288149392524" lon="121.04089650660856"><ele>21.75</ele><time>2026-04-16T04:17:22Z</time></trkpt><trkpt lat="14.516283942854365" lon="121.04078203660191"><ele>21.5</ele><time>2026-04-16T04:17:23Z</time></trkpt><trkpt lat="14.516277847945114" lon="121.04066181714418"><ele>21.25</ele><time>2026-04-16T04:17:24Z</time></trkpt><trkpt lat="14.516271695258233" lon="121.04053302991088"><ele>21.0</ele><time>2026-04-16T04:17:25Z</time></trkpt><trkpt lat="14.516268376319275" lon="121.04039873886593"><ele>21.0</ele><time>2026-04-16T04:17:26Z</time></trkpt><trkpt lat="14.51626528180023" lon="121.04025506038815"><ele>21.0</ele><time>2026-04-16T04:17:27Z</time></trkpt><trkpt lat="14.516256410088111" lon="121.04010662410226"><ele>21.0</ele><time>2026-04-16T04:17:28Z</time></trkpt><trkpt lat="14.51625582913397" lon="121.03994830566548"><ele>21.0</ele><time>2026-04-16T04:17:29Z</time></trkpt><trkpt lat="14.51625891846505" lon="121.0397862492335"><ele>21.333333333333332</ele><time>2026-04-16T04:17:30Z</time></trkpt><trkpt lat="14.516261380091127" lon="121.03961958059834"><ele>21.666666666666664</ele><time>2026-04-16T04:17:31Z</time></trkpt><trkpt lat="14.516263309796685" lon="121.03945580697307"><ele>22.0</ele><time>2026-04-16T04:17:32Z</time></trkpt><trkpt lat="14.516267035599244" lon="121.03930688855645"><ele>22.0</ele><time>2026-04-16T04:17:33Z</time></trkpt><trkpt lat="14.516272273203132" lon="121.03917571766888"><ele>22.0</ele><time>2026-04-16T04:17:34Z</time></trkpt><trkpt lat="14.51627276392123" lon="121.03906336270296"><ele>22.0</ele><time>2026-04-16T04:17:35Z</time></trkpt><trkpt lat="14.516276533685792" lon="121.03895981460258"><ele>22.0</ele><time>2026-04-16T04:17:36Z</time></trkpt><trkpt lat="14.516273286309044" lon="121.03886998398605"><ele>22.0</ele><time>2026-04-16T04:17:37Z</time></trkpt><trkpt lat="14.516271947778586" lon="121.0387790638816"><ele>22.0</ele><time>2026-04-16T04:17:38.001Z</time></trkpt><trkpt lat="14.51627415772088" lon="121.03868830061046"><ele>22.0</ele><time>2026-04-16T04:17:39.001Z</time></trkpt><trkpt lat="14.516281494310437" lon="121.0385972443139"><ele>22.0</ele><time>2026-04-16T04:17:40.001Z</time></trkpt><trkpt lat="14.516288844080103" lon="121.03850349508744"><ele>22.0</ele><time>2026-04-16T04:17:41.001Z</time></trkpt><trkpt lat="14.51628853351798" lon="121.03839947602746"><ele>22.0</ele><time>2026-04-16T04:17:42.001Z</time></trkpt><trkpt lat="14.51627951934917" lon="121.03829094333123"><ele>22.5</ele><time>2026-04-16T04:17:43.001Z</time></trkpt><trkpt lat="14.516270016335275" lon="121.03817140492733"><ele>23.0</ele><time>2026-04-16T04:17:44.001Z</time></trkpt><trkpt lat="14.51626397859537" lon="121.03805023493447"><ele>23.5</ele><time>2026-04-16T04:17:45.001Z</time></trkpt><trkpt lat="14.516253143290886" lon="121.03791541897775"><ele>24.0</ele><time>2026-04-16T04:17:46.001Z</time></trkpt><trkpt lat="14.516243607484991" lon="121.03778455139131"><ele>23.25</ele><time>2026-04-16T04:17:47.001Z</time></trkpt><trkpt lat="14.516229006014388" lon="121.03764772410179"><ele>22.5</ele><time>2026-04-16T04:17:48.001Z</time></trkpt><trkpt lat="14.516208841183156" lon="121.03750838364815"><ele>21.75</ele><time>2026-04-16T04:17:49.001Z</time></trkpt><trkpt lat="14.516183494037435" lon="121.03736791776637"><ele>21.0</ele><time>2026-04-16T04:17:50.001Z</time></trkpt><trkpt lat="14.51615041758237" lon="121.03722101330241"><ele>20.75</ele><time>2026-04-16T04:17:51.001Z</time></trkpt><trkpt lat="14.516119340764824" lon="121.03708582244585"><ele>20.5</ele><time>2026-04-16T04:17:52.001Z</time></trkpt><trkpt lat="14.516075255579358" lon="121.03694643333947"><ele>20.25</ele><time>2026-04-16T04:17:53.001Z</time></trkpt><trkpt lat="14.516023845957868" lon="121.03681005020998"><ele>20.0</ele><time>2026-04-16T04:17:54.001Z</time></trkpt><trkpt lat="14.515964254595167" lon="121.03667054156713"><ele>19.5</ele><time>2026-04-16T04:17:55.001Z</time></trkpt><trkpt lat="14.51590528510691" lon="121.03652572784654"><ele>19.0</ele><time>2026-04-16T04:17:56.001Z</time></trkpt><trkpt lat="14.515857515449781" lon="121.03638835328489"><ele>18.5</ele><time>2026-04-16T04:17:57.001Z</time></trkpt><trkpt lat="14.515805203220307" lon="121.03625803711726"><ele>18.0</ele><time>2026-04-16T04:17:58.001Z</time></trkpt><trkpt lat="14.515754823662789" lon="121.03612972390212"><ele>18.0</ele><time>2026-04-16T04:17:59.001Z</time></trkpt><trkpt lat="14.515697556692036" lon="121.03600283519887"><ele>18.0</ele><time>2026-04-16T04:18:00.001Z</time></trkpt><trkpt lat="14.515628632251556" lon="121.0358745610517"><ele>18.0</ele><time>2026-04-16T04:18:01.001Z</time></trkpt><trkpt lat="14.51556506019956" lon="121.03575142403055"><ele>18.0</ele><time>2026-04-16T04:18:02.001Z</time></trkpt><trkpt lat="14.515499273436095" lon="121.03562621952871"><ele>18.0</ele><time>2026-04-16T04:18:03.001Z</time></trkpt><trkpt lat="14.515433307847756" lon="121.03550491484751"><ele>18.0</ele><time>2026-04-16T04:18:04.001Z</time></trkpt><trkpt lat="14.515370013604963" lon="121.0353942722918"><ele>18.0</ele><time>2026-04-16T04:18:05.001Z</time></trkpt><trkpt lat="14.51530693088452" lon="121.03527869356617"><ele>18.0</ele><time>2026-04-16T04:18:06.001Z</time></trkpt><trkpt lat="14.515248701194425" lon="121.0351668500867"><ele>18.0</ele><time>2026-04-16T04:18:07.001Z</time></trkpt><trkpt lat="14.515192625513626" lon="121.03505254750466"><ele>18.0</ele><time>2026-04-16T04:18:08.001Z</time></trkpt><trkpt lat="14.515134901716163" lon="121.03494739816473"><ele>18.0</ele><time>2026-04-16T04:18:09.001Z</time></trkpt><trkpt lat="14.515072647888974" lon="121.03484310620185"><ele>18.0</ele><time>2026-04-16T04:18:10.001Z</time></trkpt><trkpt lat="14.515033303053762" lon="121.03473378845626"><ele>18.0</ele><time>2026-04-16T04:18:11.001Z</time></trkpt><trkpt lat="14.51498202833109" lon="121.03462614350475"><ele>18.0</ele><time>2026-04-16T04:18:12.001Z</time></trkpt><trkpt lat="14.514898261013757" lon="121.0345344001997"><ele>18.0</ele><time>2026-04-16T04:18:13.001Z</time></trkpt><trkpt lat="14.514829422430207" lon="121.03443454523801"><ele>18.0</ele><time>2026-04-16T04:18:14.001Z</time></trkpt><trkpt lat="14.514750927343382" lon="121.03433502647931"><ele>18.0</ele><time>2026-04-16T04:18:15.001Z</time></trkpt><trkpt lat="14.514668700802352" lon="121.03423769486238"><ele>18.0</ele><time>2026-04-16T04:18:15.999Z</time></trkpt><trkpt lat="14.514582320462704" lon="121.03414279153573"><ele>18.0</ele><time>2026-04-16T04:18:16.999Z</time></trkpt><trkpt lat="14.514484147169584" lon="121.0340383948913"><ele>18.0</ele><time>2026-04-16T04:18:17.999Z</time></trkpt><trkpt lat="14.514385780559772" lon="121.03393653427071"><ele>19.25</ele><time>2026-04-16T04:18:18.999Z</time></trkpt><trkpt lat="14.514287837566732" lon="121.03383455139098"><ele>20.5</ele><time>2026-04-16T04:18:19.999Z</time></trkpt><trkpt lat="14.514184460777477" lon="121.03373689121442"><ele>21.75</ele><time>2026-04-16T04:18:21Z</time></trkpt><trkpt lat="14.514078047690639" lon="121.03364809026355"><ele>23.0</ele><time>2026-04-16T04:18:22Z</time></trkpt><trkpt lat="14.513959386018689" lon="121.03356389489971"><ele>23.0</ele><time>2026-04-16T04:18:23Z</time></trkpt><trkpt lat="14.51384422744392" lon="121.03348314106013"><ele>23.0</ele><time>2026-04-16T04:18:24Z</time></trkpt><trkpt lat="14.513733795241672" lon="121.03339748843796"><ele>23.0</ele><time>2026-04-16T04:18:25Z</time></trkpt><trkpt lat="14.513632532161527" lon="121.03331694077491"><ele>23.0</ele><time>2026-04-16T04:18:26Z</time></trkpt><trkpt lat="14.513544950044928" lon="121.03324583431905"><ele>23.5</ele><time>2026-04-16T04:18:27Z</time></trkpt><trkpt lat="14.513467312243" lon="121.03318109987319"><ele>24.0</ele><time>2026-04-16T04:18:28Z</time></trkpt><trkpt lat="14.513387912569243" lon="121.03311910446371"><ele>24.5</ele><time>2026-04-16T04:18:29Z</time></trkpt><trkpt lat="14.513329482779387" lon="121.03307448547513"><ele>25.0</ele><time>2026-04-16T04:18:30Z</time></trkpt><trkpt lat="14.513281516473066" lon="121.03301281851375"><ele>25.499999999999996</ele><time>2026-04-16T04:18:32Z</time></trkpt><trkpt lat="14.513215557217945" lon="121.03299256300159"><ele>26.0</ele><time>2026-04-16T04:18:34Z</time></trkpt><trkpt lat="14.513163606704985" lon="121.03295222049381"><ele>25.999999999999996</ele><time>2026-04-16T04:18:37Z</time></trkpt><trkpt lat="14.513106720025366" lon="121.03290921551607"><ele>26.0</ele><time>2026-04-16T04:18:40Z</time></trkpt><trkpt lat="14.513046378632582" lon="121.0328573613865"><ele>26.0</ele><time>2026-04-16T04:18:58Z</time></trkpt><trkpt lat="14.51295990673592" lon="121.03280442449571"><ele>26.0</ele><time>2026-04-16T04:19:00Z</time></trkpt><trkpt lat="14.51285396805984" lon="121.03278305759363"><ele>25.999999999999996</ele><time>2026-04-16T04:19:02Z</time></trkpt><trkpt lat="14.512776589718861" lon="121.03280713038919"><ele>26.0</ele><time>2026-04-16T04:19:04Z</time></trkpt><trkpt lat="14.512674676753646" lon="121.03286832975785"><ele>26.200000000000003</ele><time>2026-04-16T04:19:06Z</time></trkpt><trkpt lat="14.512571647033914" lon="121.03292465004014"><ele>26.400000000000002</ele><time>2026-04-16T04:19:08Z</time></trkpt><trkpt lat="14.512494261155856" lon="121.03296250308603"><ele>26.6</ele><time>2026-04-16T04:19:10Z</time></trkpt><trkpt lat="14.512421750802355" lon="121.0330063535004"><ele>26.8</ele><time>2026-04-16T04:19:12Z</time></trkpt><trkpt lat="14.512347401898356" lon="121.03305433407085"><ele>27.0</ele><time>2026-04-16T04:19:14Z</time></trkpt><trkpt lat="14.51226913315659" lon="121.03310389057657"><ele>27.0</ele><time>2026-04-16T04:19:16Z</time></trkpt><trkpt lat="14.512171441824563" lon="121.03316207776416"><ele>27.000000000000004</ele><time>2026-04-16T04:19:18Z</time></trkpt><trkpt lat="14.512084607055698" lon="121.0332116634982"><ele>27.000000000000004</ele><time>2026-04-16T04:19:21Z</time></trkpt><trkpt lat="14.512015856828942" lon="121.03325368473028"><ele>27.0</ele><time>2026-04-16T04:19:22Z</time></trkpt><trkpt lat="14.511948539920594" lon="121.03328557296798"><ele>27.0</ele><time>2026-04-16T04:19:23Z</time></trkpt><trkpt lat="14.511866033295366" lon="121.03332959154804"><ele>27.0</ele><time>2026-04-16T04:19:24Z</time></trkpt><trkpt lat="14.511789605006562" lon="121.03335896375995"><ele>27.000000000000004</ele><time>2026-04-16T04:19:25Z</time></trkpt><trkpt lat="14.51169773890723" lon="121.03339953240784"><ele>27.000000000000004</ele><time>2026-04-16T04:19:26Z</time></trkpt><trkpt lat="14.51159545391395" lon="121.0334381541917"><ele>27.0</ele><time>2026-04-16T04:19:27Z</time></trkpt><trkpt lat="14.511492025452535" lon="121.03347550563647"><ele>27.0</ele><time>2026-04-16T04:19:28Z</time></trkpt><trkpt lat="14.511387541250057" lon="121.0335086289535"><ele>27.0</ele><time>2026-04-16T04:19:29Z</time></trkpt><trkpt lat="14.511284223806795" lon="121.03354725851689"><ele>27.0</ele><time>2026-04-16T04:19:30Z</time></trkpt><trkpt lat="14.511175114380329" lon="121.03359623590744"><ele>27.0</ele><time>2026-04-16T04:19:31Z</time></trkpt><trkpt lat="14.51107015634975" lon="121.03363692149502"><ele>27.0</ele><time>2026-04-16T04:19:32Z</time></trkpt><trkpt lat="14.510957183569062" lon="121.03368990330303"><ele>27.0</ele><time>2026-04-16T04:19:33Z</time></trkpt><trkpt lat="14.510838972900666" lon="121.03373022812161"><ele>27.0</ele><time>2026-04-16T04:19:34Z</time></trkpt><trkpt lat="14.510713281499982" lon="121.03377808596612"><ele>27.0</ele><time>2026-04-16T04:19:35Z</time></trkpt><trkpt lat="14.510595271505359" lon="121.03383391946957"><ele>27.0</ele><time>2026-04-16T04:19:36Z</time></trkpt><trkpt lat="14.510487028711566" lon="121.03389903655753"><ele>26.0</ele><time>2026-04-16T04:19:37.001Z</time></trkpt><trkpt lat="14.510387667856824" lon="121.03396147750264"><ele>25.0</ele><time>2026-04-16T04:19:38.001Z</time></trkpt><trkpt lat="14.51028104722622" lon="121.03401894306343"><ele>24.0</ele><time>2026-04-16T04:19:39.001Z</time></trkpt><trkpt lat="14.510172015243118" lon="121.03406619690271"><ele>23.0</ele><time>2026-04-16T04:19:40.001Z</time></trkpt><trkpt lat="14.510057074372554" lon="121.0341209313714"><ele>23.5</ele><time>2026-04-16T04:19:41.001Z</time></trkpt><trkpt lat="14.509935556444455" lon="121.03418859207969"><ele>24.0</ele><time>2026-04-16T04:19:42.001Z</time></trkpt><trkpt lat="14.50980973182572" lon="121.03426906748587"><ele>24.5</ele><time>2026-04-16T04:19:43.001Z</time></trkpt><trkpt lat="14.509681681767269" lon="121.03434656184068"><ele>25.0</ele><time>2026-04-16T04:19:44.001Z</time></trkpt><trkpt lat="14.509554678855961" lon="121.03441852414802"><ele>25.0</ele><time>2026-04-16T04:19:45.001Z</time></trkpt><trkpt lat="14.509438266048083" lon="121.03448309809477"><ele>25.0</ele><time>2026-04-16T04:19:46.001Z</time></trkpt><trkpt lat="14.509326637626039" lon="121.03454276994552"><ele>25.0</ele><time>2026-04-16T04:19:47.001Z</time></trkpt><trkpt lat="14.509217273441694" lon="121.0345972796872"><ele>25.0</ele><time>2026-04-16T04:19:48.001Z</time></trkpt><trkpt lat="14.509098343051583" lon="121.03464562267088"><ele>25.0</ele><time>2026-04-16T04:19:49.001Z</time></trkpt><trkpt lat="14.508971863731988" lon="121.03468597794665"><ele>25.0</ele><time>2026-04-16T04:19:50.001Z</time></trkpt><trkpt lat="14.508850789052634" lon="121.03471012356063"><ele>25.0</ele><time>2026-04-16T04:19:51.001Z</time></trkpt><trkpt lat="14.508734425764741" lon="121.03472752431776"><ele>25.0</ele><time>2026-04-16T04:19:52.001Z</time></trkpt><trkpt lat="14.508630036202922" lon="121.03474678719603"><ele>24.000000000000004</ele><time>2026-04-16T04:19:53.001Z</time></trkpt><trkpt lat="14.50852609908063" lon="121.03476142550872"><ele>23.0</ele><time>2026-04-16T04:19:54.001Z</time></trkpt><trkpt lat="14.508440425872633" lon="121.03478254417999"><ele>22.0</ele><time>2026-04-16T04:19:55.001Z</time></trkpt><trkpt lat="14.50837626021746" lon="121.03479255956401"><ele>21.0</ele><time>2026-04-16T04:19:56.001Z</time></trkpt><trkpt lat="14.50829422535355" lon="121.03480858675339"><ele>20.0</ele><time>2026-04-16T04:19:58.001Z</time></trkpt><trkpt lat="14.508224962626612" lon="121.03482966564242"><ele>19.0</ele><time>2026-04-16T04:20:02.001Z</time></trkpt><trkpt lat="14.508146516182958" lon="121.03486818356163"><ele>19.0</ele><time>2026-04-16T04:20:08.001Z</time></trkpt><trkpt lat="14.508080137283708" lon="121.03488946874388"><ele>19.0</ele><time>2026-04-16T04:20:12.001Z</time></trkpt><trkpt lat="14.507978629288752" lon="121.03492627861893"><ele>19.0</ele><time>2026-04-16T04:20:14.001Z</time></trkpt><trkpt lat="14.50791333629604" lon="121.03495955116342"><ele>19.0</ele><time>2026-04-16T04:20:15.001Z</time></trkpt><trkpt lat="14.50785127649603" lon="121.03498282111809"><ele>19.0</ele><time>2026-04-16T04:20:16.001Z</time></trkpt><trkpt lat="14.507789454037729" lon="121.03500547234712"><ele>19.0</ele><time>2026-04-16T04:20:17.001Z</time></trkpt><trkpt lat="14.507722018813885" lon="121.03504331661495"><ele>19.4</ele><time>2026-04-16T04:20:18.001Z</time></trkpt><trkpt lat="14.507631100859559" lon="121.0351068747095"><ele>19.799999999999997</ele><time>2026-04-16T04:20:19.001Z</time></trkpt><trkpt lat="14.507549968102333" lon="121.0351439811646"><ele>20.200000000000003</ele><time>2026-04-16T04:20:20.001Z</time></trkpt><trkpt lat="14.507456027602423" lon="121.0351936612741"><ele>20.6</ele><time>2026-04-16T04:20:21.001Z</time></trkpt><trkpt lat="14.507357037502336" lon="121.03524805593585"><ele>21.0</ele><time>2026-04-16T04:20:22Z</time></trkpt><trkpt lat="14.50725898432205" lon="121.03530661304922"><ele>21.0</ele><time>2026-04-16T04:20:23Z</time></trkpt><trkpt lat="14.507151741898463" lon="121.03536857899981"><ele>21.0</ele><time>2026-04-16T04:20:24Z</time></trkpt><trkpt lat="14.507058424763596" lon="121.03541560984115"><ele>21.0</ele><time>2026-04-16T04:20:25Z</time></trkpt><trkpt lat="14.506960973349738" lon="121.035465888453"><ele>21.0</ele><time>2026-04-16T04:20:26Z</time></trkpt><trkpt lat="14.506857015216188" lon="121.03551939555881"><ele>20.5</ele><time>2026-04-16T04:20:27Z</time></trkpt><trkpt lat="14.50675163636708" lon="121.03556871806272"><ele>20.0</ele><time>2026-04-16T04:20:28Z</time></trkpt><trkpt lat="14.50664473080568" lon="121.03562304499428"><ele>19.5</ele><time>2026-04-16T04:20:29Z</time></trkpt><trkpt lat="14.506538497459754" lon="121.03567416482369"><ele>19.0</ele><time>2026-04-16T04:20:30Z</time></trkpt><trkpt lat="14.506432750091019" lon="121.03573641653469"><ele>19.0</ele><time>2026-04-16T04:20:31Z</time></trkpt><trkpt lat="14.506340172780094" lon="121.03578746126894"><ele>19.0</ele><time>2026-04-16T04:20:32Z</time></trkpt><trkpt lat="14.506244219060372" lon="121.03584222219268"><ele>19.0</ele><time>2026-04-16T04:20:33Z</time></trkpt><trkpt lat="14.50615542117151" lon="121.03589435180973"><ele>19.0</ele><time>2026-04-16T04:20:34Z</time></trkpt><trkpt lat="14.50607643316563" lon="121.03593898268893"><ele>19.0</ele><time>2026-04-16T04:20:35Z</time></trkpt><trkpt lat="14.506005340958483" lon="121.03598073486977"><ele>19.4</ele><time>2026-04-16T04:20:36Z</time></trkpt><trkpt lat="14.505927749317127" lon="121.03603023327875"><ele>19.799999999999997</ele><time>2026-04-16T04:20:37Z</time></trkpt><trkpt lat="14.5058448912171" lon="121.03607401135656"><ele>20.200000000000003</ele><time>2026-04-16T04:20:38Z</time></trkpt><trkpt lat="14.50575233725153" lon="121.03612669386523"><ele>20.6</ele><time>2026-04-16T04:20:39Z</time></trkpt><trkpt lat="14.505650587119097" lon="121.03618779208627"><ele>21.0</ele><time>2026-04-16T04:20:40Z</time></trkpt><trkpt lat="14.505553024734155" lon="121.03624156563671"><ele>21.0</ele><time>2026-04-16T04:20:41Z</time></trkpt><trkpt lat="14.505454247368139" lon="121.0362902614136"><ele>21.0</ele><time>2026-04-16T04:20:42Z</time></trkpt><trkpt lat="14.50535109372626" lon="121.03634555524455"><ele>21.0</ele><time>2026-04-16T04:20:43Z</time></trkpt><trkpt lat="14.505245749267349" lon="121.03639783872947"><ele>21.0</ele><time>2026-04-16T04:20:44Z</time></trkpt><trkpt lat="14.505145461126014" lon="121.03644468937539"><ele>21.200000000000003</ele><time>2026-04-16T04:20:45Z</time></trkpt><trkpt lat="14.505048927597409" lon="121.03648855706314"><ele>21.400000000000002</ele><time>2026-04-16T04:20:46Z</time></trkpt><trkpt lat="14.504956639650421" lon="121.03653090075112"><ele>21.6</ele><time>2026-04-16T04:20:47Z</time></trkpt><trkpt lat="14.504861009240932" lon="121.03657870810102"><ele>21.8</ele><time>2026-04-16T04:20:48Z</time></trkpt><trkpt lat="14.504770531718451" lon="121.03662805999035"><ele>22.0</ele><time>2026-04-16T04:20:49Z</time></trkpt><trkpt lat="14.504677289194143" lon="121.03667838086218"><ele>22.0</ele><time>2026-04-16T04:20:50Z</time></trkpt><trkpt lat="14.50458302473961" lon="121.03673105166409"><ele>22.0</ele><time>2026-04-16T04:20:51Z</time></trkpt><trkpt lat="14.504488944322555" lon="121.03678134320103"><ele>22.0</ele><time>2026-04-16T04:20:52Z</time></trkpt><trkpt lat="14.504395370331352" lon="121.03683054333551"><ele>22.0</ele><time>2026-04-16T04:20:53Z</time></trkpt><trkpt lat="14.504300950526549" lon="121.03687731334051"><ele>22.0</ele><time>2026-04-16T04:20:54Z</time></trkpt><trkpt lat="14.504210273292962" lon="121.03692115060755"><ele>22.400000000000002</ele><time>2026-04-16T04:20:55Z</time></trkpt><trkpt lat="14.504115259313592" lon="121.03697389884485"><ele>22.8</ele><time>2026-04-16T04:20:56Z</time></trkpt><trkpt lat="14.504020072534047" lon="121.03702196732416"><ele>23.2</ele><time>2026-04-16T04:20:57Z</time></trkpt><trkpt lat="14.503931720542385" lon="121.03706732978529"><ele>23.6</ele><time>2026-04-16T04:20:58Z</time></trkpt><trkpt lat="14.503845148087244" lon="121.03711795141467"><ele>24.0</ele><time>2026-04-16T04:20:59Z</time></trkpt><trkpt lat="14.50375440964562" lon="121.03716584343971"><ele>23.833333333333332</ele><time>2026-04-16T04:21:00Z</time></trkpt><trkpt lat="14.503668309309708" lon="121.03721033224409"><ele>23.666666666666668</ele><time>2026-04-16T04:21:01Z</time></trkpt><trkpt lat="14.50358636923534" lon="121.03725722758219"><ele>23.5</ele><time>2026-04-16T04:21:02Z</time></trkpt><trkpt lat="14.503517687591613" lon="121.0372925447575"><ele>23.333333333333336</ele><time>2026-04-16T04:21:03Z</time></trkpt><trkpt lat="14.503448399119877" lon="121.03732772947693"><ele>23.166666666666668</ele><time>2026-04-16T04:21:04Z</time></trkpt><trkpt lat="14.50338426180325" lon="121.03736015594035"><ele>23.0</ele><time>2026-04-16T04:21:05Z</time></trkpt><trkpt lat="14.503313845993679" lon="121.03739578774939"><ele>23.0</ele><time>2026-04-16T04:21:06Z</time></trkpt><trkpt lat="14.503231384009569" lon="121.03743703260572"><ele>23.0</ele><time>2026-04-16T04:21:07Z</time></trkpt><trkpt lat="14.503125707217018" lon="121.03748181161795"><ele>23.0</ele><time>2026-04-16T04:21:08Z</time></trkpt><trkpt lat="14.503033391392494" lon="121.03750871200467"><ele>23.0</ele><time>2026-04-16T04:21:09Z</time></trkpt><trkpt lat="14.502964334776268" lon="121.03748886146339"><ele>23.0</ele><time>2026-04-16T04:21:11Z</time></trkpt><trkpt lat="14.502853770956477" lon="121.03759962837876"><ele>23.2</ele><time>2026-04-16T04:21:13Z</time></trkpt><trkpt lat="14.502764049441199" lon="121.03763865948967"><ele>23.4</ele><time>2026-04-16T04:21:14Z</time></trkpt><trkpt lat="14.502687293579077" lon="121.0376736907973"><ele>23.599999999999998</ele><time>2026-04-16T04:21:15Z</time></trkpt><trkpt lat="14.502606428371323" lon="121.03772022168536"><ele>23.799999999999997</ele><time>2026-04-16T04:21:16Z</time></trkpt><trkpt lat="14.502530723931944" lon="121.03775791944453"><ele>24.0</ele><time>2026-04-16T04:21:17Z</time></trkpt><trkpt lat="14.502422999046818" lon="121.03782534206212"><ele>23.999999999999996</ele><time>2026-04-16T04:21:19Z</time></trkpt><trkpt lat="14.502361728288092" lon="121.03785536523398"><ele>24.0</ele><time>2026-04-16T04:21:20Z</time></trkpt><trkpt lat="14.502288859994579" lon="121.03789310205224"><ele>24.0</ele><time>2026-04-16T04:21:21Z</time></trkpt><trkpt lat="14.50221940069223" lon="121.0379329711265"><ele>24.0</ele><time>2026-04-16T04:21:22Z</time></trkpt><trkpt lat="14.502159620334934" lon="121.03796475136909"><ele>24.0</ele><time>2026-04-16T04:21:23Z</time></trkpt><trkpt lat="14.502104524340602" lon="121.0379980019939"><ele>23.999999999999996</ele><time>2026-04-16T04:21:24Z</time></trkpt><trkpt lat="14.502044953934957" lon="121.03803618235376"><ele>24.0</ele><time>2026-04-16T04:21:25Z</time></trkpt><trkpt lat="14.501977376536493" lon="121.03807381965552"><ele>24.2</ele><time>2026-04-16T04:21:26Z</time></trkpt><trkpt lat="14.501885580400037" lon="121.03812796183126"><ele>24.4</ele><time>2026-04-16T04:21:27Z</time></trkpt><trkpt lat="14.501793566118204" lon="121.03817420203515"><ele>24.6</ele><time>2026-04-16T04:21:28Z</time></trkpt><trkpt lat="14.501698634674389" lon="121.03822191349252"><ele>24.8</ele><time>2026-04-16T04:21:29Z</time></trkpt><trkpt lat="14.501610210477535" lon="121.0382721895496"><ele>25.0</ele><time>2026-04-16T04:21:30Z</time></trkpt><trkpt lat="14.501530300540708" lon="121.03831382569831"><ele>25.000000000000004</ele><time>2026-04-16T04:21:31Z</time></trkpt><trkpt lat="14.501459503189333" lon="121.03835389270239"><ele>25.0</ele><time>2026-04-16T04:21:32Z</time></trkpt><trkpt lat="14.501390566541298" lon="121.03839265345273"><ele>25.0</ele><time>2026-04-16T04:21:33Z</time></trkpt><trkpt lat="14.501325448728178" lon="121.03842767580707"><ele>25.0</ele><time>2026-04-16T04:21:34Z</time></trkpt><trkpt lat="14.501268616898091" lon="121.03845895828562"><ele>25.0</ele><time>2026-04-16T04:21:35Z</time></trkpt><trkpt lat="14.501209498250612" lon="121.03849153127331"><ele>25.000000000000004</ele><time>2026-04-16T04:21:36Z</time></trkpt><trkpt lat="14.501151660625053" lon="121.03852676612425"><ele>25.0</ele><time>2026-04-16T04:21:37Z</time></trkpt><trkpt lat="14.501092888154904" lon="121.03855616508325"><ele>25.4</ele><time>2026-04-16T04:21:38Z</time></trkpt><trkpt lat="14.50102479169087" lon="121.03859335504607"><ele>25.8</ele><time>2026-04-16T04:21:39Z</time></trkpt><trkpt lat="14.500945936979743" lon="121.03863404766837"><ele>26.200000000000003</ele><time>2026-04-16T04:21:40Z</time></trkpt><trkpt lat="14.50086341437782" lon="121.03867435156546"><ele>26.6</ele><time>2026-04-16T04:21:41Z</time></trkpt><trkpt lat="14.500762685291095" lon="121.03872911023313"><ele>27.0</ele><time>2026-04-16T04:21:42.001Z</time></trkpt><trkpt lat="14.500666012419988" lon="121.03878177895473"><ele>27.0</ele><time>2026-04-16T04:21:43.001Z</time></trkpt><trkpt lat="14.500573748017118" lon="121.03883681021341"><ele>27.000000000000004</ele><time>2026-04-16T04:21:44.001Z</time></trkpt><trkpt lat="14.50047608532154" lon="121.03889014191489"><ele>27.000000000000004</ele><time>2026-04-16T04:21:45.001Z</time></trkpt><trkpt lat="14.500377687506006" lon="121.03894628182555"><ele>27.0</ele><time>2026-04-16T04:21:46.001Z</time></trkpt><trkpt lat="14.500288439017348" lon="121.03899258305788"><ele>27.0</ele><time>2026-04-16T04:21:47.001Z</time></trkpt><trkpt lat="14.500205064861342" lon="121.0390432864471"><ele>26.8</ele><time>2026-04-16T04:21:48.001Z</time></trkpt><trkpt lat="14.500118290444536" lon="121.03909031458876"><ele>26.6</ele><time>2026-04-16T04:21:49.001Z</time></trkpt><trkpt lat="14.500032959343795" lon="121.03913734021565"><ele>26.400000000000002</ele><time>2026-04-16T04:21:50.001Z</time></trkpt><trkpt lat="14.499939164412211" lon="121.03918872025872"><ele>26.200000000000003</ele><time>2026-04-16T04:21:51.001Z</time></trkpt><trkpt lat="14.49985216159827" lon="121.0392291153769"><ele>26.0</ele><time>2026-04-16T04:21:52.001Z</time></trkpt><trkpt lat="14.499752853822738" lon="121.03927779657579"><ele>25.8</ele><time>2026-04-16T04:21:53.001Z</time></trkpt><trkpt lat="14.499650445001858" lon="121.0393300791048"><ele>25.6</ele><time>2026-04-16T04:21:54.001Z</time></trkpt><trkpt lat="14.499561139696532" lon="121.03937839456412"><ele>25.4</ele><time>2026-04-16T04:21:55.001Z</time></trkpt><trkpt lat="14.499462242950761" lon="121.0394366437588"><ele>25.2</ele><time>2026-04-16T04:21:56.001Z</time></trkpt><trkpt lat="14.499368939020245" lon="121.03948287469828"><ele>25.0</ele><time>2026-04-16T04:21:57.001Z</time></trkpt><trkpt lat="14.499272094639556" lon="121.03953962295913"><ele>25.6</ele><time>2026-04-16T04:21:58.001Z</time></trkpt><trkpt lat="14.499182318980164" lon="121.03958671381115"><ele>26.2</ele><time>2026-04-16T04:21:59.001Z</time></trkpt><trkpt lat="14.499095124931976" lon="121.03963839078313"><ele>26.799999999999997</ele><time>2026-04-16T04:22:00.001Z</time></trkpt><trkpt lat="14.499009860466835" lon="121.0396826905483"><ele>27.4</ele><time>2026-04-16T04:22:01.001Z</time></trkpt><trkpt lat="14.498924751369412" lon="121.03973097102512"><ele>28.0</ele><time>2026-04-16T04:22:02.001Z</time></trkpt><trkpt lat="14.498840023111896" lon="121.03977806372474"><ele>28.599999999999998</ele><time>2026-04-16T04:22:03.001Z</time></trkpt><trkpt lat="14.498747914654237" lon="121.03982729522413"><ele>29.199999999999996</ele><time>2026-04-16T04:22:04.001Z</time></trkpt><trkpt lat="14.498666255354411" lon="121.03986913525277"><ele>29.8</ele><time>2026-04-16T04:22:05.001Z</time></trkpt><trkpt lat="14.498580303046635" lon="121.03992250250252"><ele>30.4</ele><time>2026-04-16T04:22:06.001Z</time></trkpt><trkpt lat="14.498491159023486" lon="121.03996373563422"><ele>31.0</ele><time>2026-04-16T04:22:07.001Z</time></trkpt><trkpt lat="14.498402375619605" lon="121.040016629221"><ele>31.4</ele><time>2026-04-16T04:22:08.001Z</time></trkpt><trkpt lat="14.498310781690495" lon="121.04005623727653"><ele>31.8</ele><time>2026-04-16T04:22:09.001Z</time></trkpt><trkpt lat="14.498220189538262" lon="121.04009921442874"><ele>32.199999999999996</ele><time>2026-04-16T04:22:10.001Z</time></trkpt><trkpt lat="14.498132166617447" lon="121.04015152606226"><ele>32.6</ele><time>2026-04-16T04:22:11.001Z</time></trkpt><trkpt lat="14.49804308009619" lon="121.0402012668213"><ele>33.0</ele><time>2026-04-16T04:22:12.001Z</time></trkpt><trkpt lat="14.497948923624293" lon="121.04024913951886"><ele>32.8</ele><time>2026-04-16T04:22:13.001Z</time></trkpt><trkpt lat="14.497854773892914" lon="121.04029582931236"><ele>32.599999999999994</ele><time>2026-04-16T04:22:14.001Z</time></trkpt><trkpt lat="14.49775997060371" lon="121.04034679060622"><ele>32.400000000000006</ele><time>2026-04-16T04:22:15.001Z</time></trkpt><trkpt lat="14.497665325048976" lon="121.04040660063458"><ele>32.2</ele><time>2026-04-16T04:22:16.001Z</time></trkpt><trkpt lat="14.49756674419707" lon="121.04045755881094"><ele>32.0</ele><time>2026-04-16T04:22:17.001Z</time></trkpt><trkpt lat="14.497470509852533" lon="121.04051615942222"><ele>32.0</ele><time>2026-04-16T04:22:18.001Z</time></trkpt><trkpt lat="14.497369103715927" lon="121.04057191074722"><ele>32.0</ele><time>2026-04-16T04:22:19.001Z</time></trkpt><trkpt lat="14.49726808253077" lon="121.04062723606556"><ele>32.0</ele><time>2026-04-16T04:22:20.001Z</time></trkpt><trkpt lat="14.49717308003848" lon="121.04067894446315"><ele>32.0</ele><time>2026-04-16T04:22:21.001Z</time></trkpt><trkpt lat="14.497087932276422" lon="121.04073800861983"><ele>32.0</ele><time>2026-04-16T04:22:22.001Z</time></trkpt><trkpt lat="14.49699345532781" lon="121.04077659396464"><ele>31.6</ele><time>2026-04-16T04:22:23.001Z</time></trkpt><trkpt lat="14.496900827228831" lon="121.04082640780801"><ele>31.200000000000003</ele><time>2026-04-16T04:22:24.001Z</time></trkpt><trkpt lat="14.49680731972321" lon="121.04087635766116"><ele>30.8</ele><time>2026-04-16T04:22:25.001Z</time></trkpt><trkpt lat="14.496713219323603" lon="121.04092769747814"><ele>30.4</ele><time>2026-04-16T04:22:26.001Z</time></trkpt><trkpt lat="14.49661961990501" lon="121.04098313770626"><ele>30.0</ele><time>2026-04-16T04:22:27.001Z</time></trkpt><trkpt lat="14.49652030391221" lon="121.04103799515946"><ele>30.0</ele><time>2026-04-16T04:22:28Z</time></trkpt><trkpt lat="14.496423639763977" lon="121.04108767212357"><ele>30.0</ele><time>2026-04-16T04:22:29Z</time></trkpt><trkpt lat="14.496331161213721" lon="121.04113563675436"><ele>30.0</ele><time>2026-04-16T04:22:30Z</time></trkpt><trkpt lat="14.496239808345903" lon="121.04118833879552"><ele>30.0</ele><time>2026-04-16T04:22:31Z</time></trkpt><trkpt lat="14.49615444616227" lon="121.0412321759025"><ele>30.0</ele><time>2026-04-16T04:22:32Z</time></trkpt><trkpt lat="14.496065520043045" lon="121.04128436517556"><ele>29.8</ele><time>2026-04-16T04:22:33Z</time></trkpt><trkpt lat="14.495971005447828" lon="121.04133212634015"><ele>29.6</ele><time>2026-04-16T04:22:34Z</time></trkpt><trkpt lat="14.495886035315149" lon="121.04137364923035"><ele>29.4</ele><time>2026-04-16T04:22:35Z</time></trkpt><trkpt lat="14.495806419364975" lon="121.04142124925208"><ele>29.2</ele><time>2026-04-16T04:22:36Z</time></trkpt><trkpt lat="14.495727703290937" lon="121.0414640650719"><ele>29.0</ele><time>2026-04-16T04:22:37Z</time></trkpt><trkpt lat="14.495643421664969" lon="121.04151077327795"><ele>29.0</ele><time>2026-04-16T04:22:38Z</time></trkpt><trkpt lat="14.495560744176826" lon="121.04155518065024"><ele>29.0</ele><time>2026-04-16T04:22:39Z</time></trkpt><trkpt lat="14.49547676622616" lon="121.041599959046"><ele>29.0</ele><time>2026-04-16T04:22:40Z</time></trkpt><trkpt lat="14.495401373882977" lon="121.04164144258469"><ele>29.0</ele><time>2026-04-16T04:22:41Z</time></trkpt><trkpt lat="14.495324565021761" lon="121.04168337271854"><ele>29.0</ele><time>2026-04-16T04:22:42Z</time></trkpt><trkpt lat="14.495244601238966" lon="121.04172884235417"><ele>28.833333333333332</ele><time>2026-04-16T04:22:43Z</time></trkpt><trkpt lat="14.495164952118271" lon="121.04176892348809"><ele>28.666666666666664</ele><time>2026-04-16T04:22:44Z</time></trkpt><trkpt lat="14.49508965208368" lon="121.04181054474766"><ele>28.5</ele><time>2026-04-16T04:22:45Z</time></trkpt><trkpt lat="14.495010018573662" lon="121.04185400221331"><ele>28.333333333333336</ele><time>2026-04-16T04:22:46Z</time></trkpt><trkpt lat="14.494936057243155" lon="121.04189083761095"><ele>28.166666666666668</ele><time>2026-04-16T04:22:47Z</time></trkpt><trkpt lat="14.494861129718178" lon="121.04193201268393"><ele>28.0</ele><time>2026-04-16T04:22:48Z</time></trkpt><trkpt lat="14.494795158011517" lon="121.04196758801865"><ele>28.000000000000004</ele><time>2026-04-16T04:22:49Z</time></trkpt><trkpt lat="14.494727434236774" lon="121.04200569019814"><ele>28.0</ele><time>2026-04-16T04:22:50Z</time></trkpt><trkpt lat="14.49462276310272" lon="121.0420584961114"><ele>28.0</ele><time>2026-04-16T04:22:52Z</time></trkpt><trkpt lat="14.494555727185217" lon="121.04209704012631"><ele>28.0</ele><time>2026-04-16T04:22:55Z</time></trkpt><trkpt lat="14.494484108770111" lon="121.04211443955789"><ele>28.000000000000004</ele><time>2026-04-16T04:22:58Z</time></trkpt><trkpt lat="14.494431145640535" lon="121.0421646424391"><ele>28.0</ele><time>2026-04-16T04:23:00Z</time></trkpt><trkpt lat="14.494341289837207" lon="121.04221273745073"><ele>27.833333333333336</ele><time>2026-04-16T04:23:02Z</time></trkpt><trkpt lat="14.494273206547055" lon="121.04224648604875"><ele>27.666666666666668</ele><time>2026-04-16T04:23:03Z</time></trkpt><trkpt lat="14.49420599756051" lon="121.04228580195306"><ele>27.5</ele><time>2026-04-16T04:23:04Z</time></trkpt><trkpt lat="14.494118749206802" lon="121.04231279124272"><ele>27.333333333333336</ele><time>2026-04-16T04:23:05Z</time></trkpt><trkpt lat="14.494198028777873" lon="121.0422715377294"><ele>27.166666666666668</ele><time>2026-04-16T04:23:06Z</time></trkpt><trkpt lat="14.494128836957737" lon="121.04230836424743"><ele>27.0</ele><time>2026-04-16T04:23:09Z</time></trkpt><trkpt lat="14.494064761938917" lon="121.04234013372917"><ele>27.0</ele><time>2026-04-16T04:23:10Z</time></trkpt><trkpt lat="14.493985620899748" lon="121.04238021559355"><ele>27.000000000000004</ele><time>2026-04-16T04:23:11Z</time></trkpt><trkpt lat="14.493896341440784" lon="121.04242543241475"><ele>27.000000000000004</ele><time>2026-04-16T04:23:12Z</time></trkpt><trkpt lat="14.493800054421376" lon="121.04248292350167"><ele>27.0</ele><time>2026-04-16T04:23:13Z</time></trkpt><trkpt lat="14.4936960678181" lon="121.04254080291015"><ele>27.0</ele><time>2026-04-16T04:23:14Z</time></trkpt><trkpt lat="14.493583959746296" lon="121.04260363244438"><ele>28.0</ele><time>2026-04-16T04:23:15Z</time></trkpt><trkpt lat="14.493465628950357" lon="121.04267191670387"><ele>29.0</ele><time>2026-04-16T04:23:16Z</time></trkpt><trkpt lat="14.493338672798146" lon="121.04273723842579"><ele>30.0</ele><time>2026-04-16T04:23:17Z</time></trkpt><trkpt lat="14.493207465057182" lon="121.04280596801672"><ele>31.0</ele><time>2026-04-16T04:23:18Z</time></trkpt><trkpt lat="14.493075212205927" lon="121.04287524506711"><ele>31.0</ele><time>2026-04-16T04:23:19Z</time></trkpt><trkpt lat="14.492936615492038" lon="121.04294829025402"><ele>31.0</ele><time>2026-04-16T04:23:20Z</time></trkpt><trkpt lat="14.49279677305421" lon="121.04302211580489"><ele>31.0</ele><time>2026-04-16T04:23:21Z</time></trkpt><trkpt lat="14.492661360800316" lon="121.04309904481666"><ele>31.25</ele><time>2026-04-16T04:23:22Z</time></trkpt><trkpt lat="14.492527283189256" lon="121.04317431454136"><ele>31.5</ele><time>2026-04-16T04:23:23Z</time></trkpt><trkpt lat="14.492395815810362" lon="121.04324510950413"><ele>31.75</ele><time>2026-04-16T04:23:24Z</time></trkpt><trkpt lat="14.492268666400495" lon="121.04331209123845"><ele>32.0</ele><time>2026-04-16T04:23:25Z</time></trkpt><trkpt lat="14.492141729503937" lon="121.04337764789905"><ele>32.75</ele><time>2026-04-16T04:23:26Z</time></trkpt><trkpt lat="14.49202171519994" lon="121.04343962939622"><ele>33.5</ele><time>2026-04-16T04:23:27Z</time></trkpt><trkpt lat="14.491923390087988" lon="121.04349040947483"><ele>34.25</ele><time>2026-04-16T04:23:28Z</time></trkpt><trkpt lat="14.491816801937654" lon="121.04354545701868"><ele>35.0</ele><time>2026-04-16T04:23:29Z</time></trkpt><trkpt lat="14.491697174864514" lon="121.04360774274774"><ele>35.0</ele><time>2026-04-16T04:23:30Z</time></trkpt><trkpt lat="14.4915684966551" lon="121.04367742906231"><ele>35.0</ele><time>2026-04-16T04:23:31Z</time></trkpt><trkpt lat="14.491436509165283" lon="121.04374977852787"><ele>35.0</ele><time>2026-04-16T04:23:32Z</time></trkpt><trkpt lat="14.49129972177174" lon="121.04382475908578"><ele>35.25</ele><time>2026-04-16T04:23:33Z</time></trkpt><trkpt lat="14.49117142557495" lon="121.0438950851609"><ele>35.5</ele><time>2026-04-16T04:23:34Z</time></trkpt><trkpt lat="14.491044694475978" lon="121.04396455331604"><ele>35.75</ele><time>2026-04-16T04:23:35Z</time></trkpt><trkpt lat="14.490917139499587" lon="121.0440344730924"><ele>36.0</ele><time>2026-04-16T04:23:36Z</time></trkpt><trkpt lat="14.49078320568786" lon="121.0441078894477"><ele>36.333333333333336</ele><time>2026-04-16T04:23:37Z</time></trkpt><trkpt lat="14.490648343753879" lon="121.04418165734174"><ele>36.66666666666667</ele><time>2026-04-16T04:23:38Z</time></trkpt><trkpt lat="14.490506275149615" lon="121.04425960265998"><ele>37.0</ele><time>2026-04-16T04:23:39Z</time></trkpt><trkpt lat="14.490370488405414" lon="121.04433415468348"><ele>37.0</ele><time>2026-04-16T04:23:40Z</time></trkpt><trkpt lat="14.490222141137899" lon="121.04441525940243"><ele>37.0</ele><time>2026-04-16T04:23:41Z</time></trkpt><trkpt lat="14.49008940091634" lon="121.04448750896655"><ele>37.0</ele><time>2026-04-16T04:23:42Z</time></trkpt><trkpt lat="14.489966974651644" lon="121.04455414468943"><ele>37.0</ele><time>2026-04-16T04:23:43Z</time></trkpt><trkpt lat="14.489845805155936" lon="121.04462009640501"><ele>37.0</ele><time>2026-04-16T04:23:44Z</time></trkpt><trkpt lat="14.489737451681046" lon="121.0446790724205"><ele>37.0</ele><time>2026-04-16T04:23:45.001Z</time></trkpt><trkpt lat="14.489663002326168" lon="121.04474955158561"><ele>37.0</ele><time>2026-04-16T04:23:46.001Z</time></trkpt><trkpt lat="14.489588957721322" lon="121.04480554470929"><ele>36.5</ele><time>2026-04-16T04:23:47.001Z</time></trkpt><trkpt lat="14.489541071238317" lon="121.04486121953103"><ele>36.0</ele><time>2026-04-16T04:23:48.001Z</time></trkpt><trkpt lat="14.489525466056119" lon="121.0449304234604"><ele>35.5</ele><time>2026-04-16T04:23:49.001Z</time></trkpt><trkpt lat="14.489508478364524" lon="121.04502178217524"><ele>35.0</ele><time>2026-04-16T04:23:50.001Z</time></trkpt><trkpt lat="14.489504885974638" lon="121.04510552479805"><ele>34.5</ele><time>2026-04-16T04:23:51.001Z</time></trkpt><trkpt lat="14.489502576971587" lon="121.04519414400481"><ele>34.0</ele><time>2026-04-16T04:23:52.001Z</time></trkpt><trkpt lat="14.489491078573774" lon="121.04528155984191"><ele>34.0</ele><time>2026-04-16T04:23:53.001Z</time></trkpt><trkpt lat="14.489483377356528" lon="121.0453805476004"><ele>34.0</ele><time>2026-04-16T04:23:54.001Z</time></trkpt><trkpt lat="14.489471463617173" lon="121.04547585042955"><ele>34.0</ele><time>2026-04-16T04:23:55.001Z</time></trkpt><trkpt lat="14.489459444824888" lon="121.04557968531326"><ele>34.0</ele><time>2026-04-16T04:23:56.001Z</time></trkpt><trkpt lat="14.489444472535261" lon="121.04567356847109"><ele>34.0</ele><time>2026-04-16T04:23:57.001Z</time></trkpt><trkpt lat="14.489435247781575" lon="121.0457814083982"><ele>34.4</ele><time>2026-04-16T04:23:58.001Z</time></trkpt><trkpt lat="14.489422349735081" lon="121.04589111599087"><ele>34.8</ele><time>2026-04-16T04:23:59.001Z</time></trkpt><trkpt lat="14.489410634800869" lon="121.04599240096543"><ele>35.2</ele><time>2026-04-16T04:24:00.001Z</time></trkpt><trkpt lat="14.48939653851649" lon="121.0460972238174"><ele>35.6</ele><time>2026-04-16T04:24:01.001Z</time></trkpt><trkpt lat="14.489383694214812" lon="121.04621240405824"><ele>36.0</ele><time>2026-04-16T04:24:02.001Z</time></trkpt><trkpt lat="14.489367497170356" lon="121.04630443631993"><ele>36.0</ele><time>2026-04-16T04:24:03.001Z</time></trkpt><trkpt lat="14.489355608665488" lon="121.04639546018855"><ele>36.0</ele><time>2026-04-16T04:24:04.001Z</time></trkpt><trkpt lat="14.489344714368942" lon="121.0464930436278"><ele>36.0</ele><time>2026-04-16T04:24:05.001Z</time></trkpt><trkpt lat="14.489333047012073" lon="121.0465670075482"><ele>36.0</ele><time>2026-04-16T04:24:06.001Z</time></trkpt><trkpt lat="14.489326074748698" lon="121.04664324778922"><ele>36.0</ele><time>2026-04-16T04:24:07.001Z</time></trkpt><trkpt lat="14.489311498335983" lon="121.0467134757921"><ele>36.0</ele><time>2026-04-16T04:24:08.001Z</time></trkpt><trkpt lat="14.489295049290924" lon="121.04679579012952"><ele>36.166666666666664</ele><time>2026-04-16T04:24:09.001Z</time></trkpt><trkpt lat="14.489262655362324" lon="121.04686919420135"><ele>36.333333333333336</ele><time>2026-04-16T04:24:10.001Z</time></trkpt><trkpt lat="14.489212036176653" lon="121.0469310992529"><ele>36.5</ele><time>2026-04-16T04:24:11.001Z</time></trkpt><trkpt lat="14.489149299212286" lon="121.04697914519117"><ele>36.66666666666667</ele><time>2026-04-16T04:24:12.001Z</time></trkpt><trkpt lat="14.489076643133817" lon="121.04701638819996"><ele>36.833333333333336</ele><time>2026-04-16T04:24:13.001Z</time></trkpt><trkpt lat="14.489014140650514" lon="121.04703067368438"><ele>37.0</ele><time>2026-04-16T04:24:14.001Z</time></trkpt><trkpt lat="14.488939261217212" lon="121.04701753093565"><ele>37.0</ele><time>2026-04-16T04:24:15.001Z</time></trkpt><trkpt lat="14.488865912155898" lon="121.04702225670255"><ele>37.0</ele><time>2026-04-16T04:24:16.001Z</time></trkpt><trkpt lat="14.488787611364435" lon="121.04699736477724"><ele>37.0</ele><time>2026-04-16T04:24:17.001Z</time></trkpt><trkpt lat="14.488691612701661" lon="121.04697215634484"><ele>37.0</ele><time>2026-04-16T04:24:18.001Z</time></trkpt><trkpt lat="14.488597153929582" lon="121.04694574929401"><ele>37.0</ele><time>2026-04-16T04:24:19.001Z</time></trkpt><trkpt lat="14.488500461438308" lon="121.04691938920134"><ele>37.285714285714285</ele><time>2026-04-16T04:24:20.001Z</time></trkpt><trkpt lat="14.48842325527692" lon="121.04687982228806"><ele>37.57142857142857</ele><time>2026-04-16T04:24:21.001Z</time></trkpt><trkpt lat="14.488339672157123" lon="121.04687350362407"><ele>37.85714285714286</ele><time>2026-04-16T04:24:22.001Z</time></trkpt><trkpt lat="14.488271266680687" lon="121.0468562666111"><ele>38.14285714285714</ele><time>2026-04-16T04:24:23.001Z</time></trkpt><trkpt lat="14.488203426340428" lon="121.04684133069256"><ele>38.42857142857142</ele><time>2026-04-16T04:24:24.001Z</time></trkpt><trkpt lat="14.488134880597503" lon="121.0468242549883"><ele>38.714285714285715</ele><time>2026-04-16T04:24:25.001Z</time></trkpt><trkpt lat="14.488071150290036" lon="121.04680996359969"><ele>39.0</ele><time>2026-04-16T04:24:26.001Z</time></trkpt><trkpt lat="14.48800118705255" lon="121.04679467141219"><ele>38.8</ele><time>2026-04-16T04:24:27.001Z</time></trkpt><trkpt lat="14.487926573546043" lon="121.04677837788479"><ele>38.599999999999994</ele><time>2026-04-16T04:24:28.001Z</time></trkpt><trkpt lat="14.48780463122191" lon="121.04674501984722"><ele>38.4</ele><time>2026-04-16T04:24:30.001Z</time></trkpt><trkpt lat="14.487723650033258" lon="121.04673102504313"><ele>38.199999999999996</ele><time>2026-04-16T04:24:31.001Z</time></trkpt><trkpt lat="14.487612555952529" lon="121.04668842533218"><ele>38.0</ele><time>2026-04-16T04:24:33.001Z</time></trkpt><trkpt lat="14.487569130802724" lon="121.04663850916415"><ele>37.83333333333333</ele><time>2026-04-16T04:24:34Z</time></trkpt><trkpt lat="14.48749618644719" lon="121.04656093617201"><ele>37.666666666666664</ele><time>2026-04-16T04:24:36Z</time></trkpt><trkpt lat="14.487478078669593" lon="121.04649400356541"><ele>37.5</ele><time>2026-04-16T04:24:37Z</time></trkpt><trkpt lat="14.487444194712293" lon="121.0464212609197"><ele>37.333333333333336</ele><time>2026-04-16T04:24:38Z</time></trkpt><trkpt lat="14.487430495156966" lon="121.04634183044035"><ele>37.16666666666667</ele><time>2026-04-16T04:24:39Z</time></trkpt><trkpt lat="14.487397552047177" lon="121.04624950367348"><ele>37.0</ele><time>2026-04-16T04:24:40Z</time></trkpt><trkpt lat="14.48736774865849" lon="121.0461659762491"><ele>37.0</ele><time>2026-04-16T04:24:41Z</time></trkpt><trkpt lat="14.487337635485128" lon="121.04609097327291"><ele>37.0</ele><time>2026-04-16T04:24:42Z</time></trkpt><trkpt lat="14.487299646319435" lon="121.04602785945875"><ele>37.0</ele><time>2026-04-16T04:24:43Z</time></trkpt><trkpt lat="14.487278728788654" lon="121.04596301296401"><ele>37.0</ele><time>2026-04-16T04:24:44Z</time></trkpt><trkpt lat="14.487241066682355" lon="121.04585964756201"><ele>37.0</ele><time>2026-04-16T04:24:46Z</time></trkpt><trkpt lat="14.487209693591637" lon="121.04577176408829"><ele>37.0</ele><time>2026-04-16T04:24:48Z</time></trkpt><trkpt lat="14.487178173983066" lon="121.04568535368134"><ele>36.5</ele><time>2026-04-16T04:24:50Z</time></trkpt><trkpt lat="14.487148260816246" lon="121.0456045741566"><ele>36.0</ele><time>2026-04-16T04:24:52Z</time></trkpt><trkpt lat="14.486991386617417" lon="121.04553131642389"><ele>35.5</ele><time>2026-04-16T04:24:54Z</time></trkpt><trkpt lat="14.48687910483819" lon="121.04552506900802"><ele>35.0</ele><time>2026-04-16T04:24:56Z</time></trkpt><trkpt lat="14.48677160182307" lon="121.04552257852099"><ele>34.83333333333333</ele><time>2026-04-16T04:24:58Z</time></trkpt><trkpt lat="14.486696434004621" lon="121.04552090917674"><ele>34.666666666666664</ele><time>2026-04-16T04:24:59Z</time></trkpt><trkpt lat="14.486610184272065" lon="121.04551878370195"><ele>34.5</ele><time>2026-04-16T04:25:00Z</time></trkpt><trkpt lat="14.486527252410491" lon="121.04551258232259"><ele>34.333333333333336</ele><time>2026-04-16T04:25:01Z</time></trkpt><trkpt lat="14.48645985202443" lon="121.045505504141"><ele>34.16666666666667</ele><time>2026-04-16T04:25:02Z</time></trkpt><trkpt lat="14.486381014036564" lon="121.04549728012387"><ele>34.0</ele><time>2026-04-16T04:25:03Z</time></trkpt><trkpt lat="14.486299780428762" lon="121.04548880620312"><ele>34.2</ele><time>2026-04-16T04:25:04Z</time></trkpt><trkpt lat="14.486205508440037" lon="121.04547897217778"><ele>34.4</ele><time>2026-04-16T04:25:05Z</time></trkpt><trkpt lat="14.486106741404175" lon="121.04546558663556"><ele>34.6</ele><time>2026-04-16T04:25:06Z</time></trkpt><trkpt lat="14.486010538585335" lon="121.04545260022194"><ele>34.8</ele><time>2026-04-16T04:25:07Z</time></trkpt><trkpt lat="14.485915390895851" lon="121.04543975624175"><ele>35.0</ele><time>2026-04-16T04:25:08Z</time></trkpt><trkpt lat="14.48583453045875" lon="121.0454288408941"><ele>35.0</ele><time>2026-04-16T04:25:09Z</time></trkpt><trkpt lat="14.485751214703454" lon="121.0454179014671"><ele>35.0</ele><time>2026-04-16T04:25:10Z</time></trkpt><trkpt lat="14.48567084372382" lon="121.04540970812029"><ele>35.0</ele><time>2026-04-16T04:25:11Z</time></trkpt><trkpt lat="14.485599238872824" lon="121.04540240810233"><ele>35.0</ele><time>2026-04-16T04:25:12Z</time></trkpt><trkpt lat="14.485535985923981" lon="121.04539595954807"><ele>35.0</ele><time>2026-04-16T04:25:13Z</time></trkpt><trkpt lat="14.48541994133913" lon="121.0453841289589"><ele>35.0</ele><time>2026-04-16T04:25:15Z</time></trkpt><trkpt lat="14.485303229243762" lon="121.04537241753482"><ele>34.166666666666664</ele><time>2026-04-16T04:25:17Z</time></trkpt><trkpt lat="14.485232702214027" lon="121.04536349195287"><ele>33.33333333333333</ele><time>2026-04-16T04:25:18Z</time></trkpt><trkpt lat="14.485163460896425" lon="121.04535395046385"><ele>32.5</ele><time>2026-04-16T04:25:19Z</time></trkpt><trkpt lat="14.485082816564281" lon="121.0453428376264"><ele>31.666666666666664</ele><time>2026-04-16T04:25:20Z</time></trkpt><trkpt lat="14.485000120986902" lon="121.04533144212648"><ele>30.833333333333332</ele><time>2026-04-16T04:25:21Z</time></trkpt><trkpt lat="14.484911186611567" lon="121.04531918692243"><ele>30.0</ele><time>2026-04-16T04:25:22Z</time></trkpt><trkpt lat="14.484817366961519" lon="121.04531333940547"><ele>30.0</ele><time>2026-04-16T04:25:23Z</time></trkpt><trkpt lat="14.484727313755434" lon="121.04530756058922"><ele>30.0</ele><time>2026-04-16T04:25:24Z</time></trkpt><trkpt lat="14.484636332928249" lon="121.0453013665748"><ele>30.0</ele><time>2026-04-16T04:25:25Z</time></trkpt><trkpt lat="14.484541816404906" lon="121.04529492635669"><ele>30.0</ele><time>2026-04-16T04:25:26Z</time></trkpt><trkpt lat="14.484440053203615" lon="121.04529720196834"><ele>30.0</ele><time>2026-04-16T04:25:27Z</time></trkpt><trkpt lat="14.48435959171462" lon="121.04529756045422"><ele>30.166666666666668</ele><time>2026-04-16T04:25:28Z</time></trkpt><trkpt lat="14.484280110209756" lon="121.04529791457531"><ele>30.333333333333336</ele><time>2026-04-16T04:25:29Z</time></trkpt><trkpt lat="14.484197768828562" lon="121.04529828143794"><ele>30.5</ele><time>2026-04-16T04:25:30Z</time></trkpt><trkpt lat="14.484115471739836" lon="121.04529864810233"><ele>30.666666666666668</ele><time>2026-04-16T04:25:31Z</time></trkpt><trkpt lat="14.484022629678712" lon="121.0452990617495"><ele>30.833333333333336</ele><time>2026-04-16T04:25:32Z</time></trkpt><trkpt lat="14.48393910276562" lon="121.04529943389413"><ele>31.0</ele><time>2026-04-16T04:25:33Z</time></trkpt><trkpt lat="14.483850992060292" lon="121.04529982646055"><ele>31.000000000000004</ele><time>2026-04-16T04:25:34Z</time></trkpt><trkpt lat="14.483764610530331" lon="121.04530021132328"><ele>31.0</ele><time>2026-04-16T04:25:35Z</time></trkpt><trkpt lat="14.483679479672713" lon="121.04530059061523"><ele>31.0</ele><time>2026-04-16T04:25:36Z</time></trkpt><trkpt lat="14.483596358931006" lon="121.04530096095027"><ele>31.0</ele><time>2026-04-16T04:25:37Z</time></trkpt><trkpt lat="14.483513748593474" lon="121.04530132901033"><ele>31.000000000000004</ele><time>2026-04-16T04:25:38Z</time></trkpt><trkpt lat="14.483437589884675" lon="121.04530166832714"><ele>31.0</ele><time>2026-04-16T04:25:39Z</time></trkpt><trkpt lat="14.483360136625512" lon="121.04530201341062"><ele>31.166666666666668</ele><time>2026-04-16T04:25:40Z</time></trkpt><trkpt lat="14.483277613619377" lon="121.0453023810823"><ele>31.333333333333336</ele><time>2026-04-16T04:25:41Z</time></trkpt><trkpt lat="14.48319568210046" lon="121.04530274611862"><ele>31.5</ele><time>2026-04-16T04:25:42Z</time></trkpt><trkpt lat="14.483128530757051" lon="121.04530304530323"><ele>31.666666666666664</ele><time>2026-04-16T04:25:43.001Z</time></trkpt><trkpt lat="14.483008240055387" lon="121.0453042975743"><ele>31.833333333333332</ele><time>2026-04-16T04:25:45.001Z</time></trkpt><trkpt lat="14.482945266955733" lon="121.04530500028855"><ele>32.0</ele><time>2026-04-16T04:25:46.001Z</time></trkpt><trkpt lat="14.48287979849341" lon="121.04530544917587"><ele>32.2</ele><time>2026-04-16T04:25:47.001Z</time></trkpt><trkpt lat="14.482791986118604" lon="121.04530605126487"><ele>32.400000000000006</ele><time>2026-04-16T04:25:49.001Z</time></trkpt><trkpt lat="14.482708724441782" lon="121.04530603920999"><ele>32.599999999999994</ele><time>2026-04-16T04:25:51.001Z</time></trkpt><trkpt lat="14.482618008724012" lon="121.04530665877729"><ele>32.8</ele><time>2026-04-16T04:25:53.001Z</time></trkpt><trkpt lat="14.482512499818615" lon="121.04530730128491"><ele>33.0</ele><time>2026-04-16T04:25:55.001Z</time></trkpt><trkpt lat="14.482398025708827" lon="121.04530771535495"><ele>33.0</ele><time>2026-04-16T04:25:57.001Z</time></trkpt><trkpt lat="14.482287867653985" lon="121.0453080465434"><ele>33.0</ele><time>2026-04-16T04:25:59.001Z</time></trkpt><trkpt lat="14.48218975943909" lon="121.04530834150351"><ele>33.0</ele><time>2026-04-16T04:26:01.001Z</time></trkpt><trkpt lat="14.482098863515631" lon="121.0453086147797"><ele>33.0</ele><time>2026-04-16T04:26:03.001Z</time></trkpt><trkpt lat="14.48201939043153" lon="121.04530958206868"><ele>33.0</ele><time>2026-04-16T04:26:05.001Z</time></trkpt><trkpt lat="14.481940970133452" lon="121.04531077177163"><ele>33.0</ele><time>2026-04-16T04:26:08.001Z</time></trkpt><trkpt lat="14.481869136409824" lon="121.04531168020155"><ele>33.0</ele><time>2026-04-16T04:26:10.001Z</time></trkpt><trkpt lat="14.48180600223801" lon="121.04531247861419"><ele>33.0</ele><time>2026-04-16T04:26:12.001Z</time></trkpt><trkpt lat="14.481734918186156" lon="121.0453133775635"><ele>33.0</ele><time>2026-04-16T04:26:14.001Z</time></trkpt><trkpt lat="14.481645620012756" lon="121.04531450685326"><ele>33.0</ele><time>2026-04-16T04:26:16.001Z</time></trkpt><trkpt lat="14.48157260575716" lon="121.0453154302115"><ele>33.0</ele><time>2026-04-16T04:26:18.001Z</time></trkpt><trkpt lat="14.481500979347636" lon="121.04531633602043"><ele>33.0</ele><time>2026-04-16T04:26:20.001Z</time></trkpt><trkpt lat="14.481409883290699" lon="121.04531789915387"><ele>33.0</ele><time>2026-04-16T04:26:23.001Z</time></trkpt><trkpt lat="14.481299014672638" lon="121.04532007304901"><ele>33.0</ele><time>2026-04-16T04:26:25.001Z</time></trkpt><trkpt lat="14.481208215448023" lon="121.04532193994932"><ele>33.0</ele><time>2026-04-16T04:26:27.001Z</time></trkpt><trkpt lat="14.481088121001264" lon="121.04532449630885"><ele>33.0</ele><time>2026-04-16T04:26:29.001Z</time></trkpt><trkpt lat="14.481006651376022" lon="121.04532623048975"><ele>33.0</ele><time>2026-04-16T04:26:30.001Z</time></trkpt><trkpt lat="14.480924478193602" lon="121.04532797964806"><ele>32.8</ele><time>2026-04-16T04:26:31.001Z</time></trkpt><trkpt lat="14.480859141825992" lon="121.04532937041304"><ele>32.599999999999994</ele><time>2026-04-16T04:26:32.001Z</time></trkpt><trkpt lat="14.480759766973105" lon="121.04533054210583"><ele>32.400000000000006</ele><time>2026-04-16T04:26:34.001Z</time></trkpt><trkpt lat="14.480674224797184" lon="121.04533098395109"><ele>32.2</ele><time>2026-04-16T04:26:38.001Z</time></trkpt><trkpt lat="14.48057379824437" lon="121.04533150223048"><ele>32.0</ele><time>2026-04-16T04:26:40Z</time></trkpt><trkpt lat="14.48044922879915" lon="121.04532763656002"><ele>32.166666666666664</ele><time>2026-04-16T04:26:42Z</time></trkpt><trkpt lat="14.48037959687694" lon="121.04532789190952"><ele>32.33333333333333</ele><time>2026-04-16T04:26:43Z</time></trkpt><trkpt lat="14.480297220069613" lon="121.04532819399878"><ele>32.5</ele><time>2026-04-16T04:26:44Z</time></trkpt><trkpt lat="14.480202652019234" lon="121.04532854079352"><ele>32.666666666666664</ele><time>2026-04-16T04:26:45Z</time></trkpt><trkpt lat="14.480101944606963" lon="121.04532891010392"><ele>32.833333333333336</ele><time>2026-04-16T04:26:46Z</time></trkpt><trkpt lat="14.480000572341607" lon="121.04532651516736"><ele>33.0</ele><time>2026-04-16T04:26:47Z</time></trkpt><trkpt lat="14.479893125372573" lon="121.04539513744405"><ele>33.0</ele><time>2026-04-16T04:26:48Z</time></trkpt><trkpt lat="14.479779665542686" lon="121.04539728170793"><ele>33.0</ele><time>2026-04-16T04:26:49Z</time></trkpt><trkpt lat="14.479660998411816" lon="121.0453985096004"><ele>33.0</ele><time>2026-04-16T04:26:50Z</time></trkpt><trkpt lat="14.479532668179578" lon="121.0454025160372"><ele>33.0</ele><time>2026-04-16T04:26:51Z</time></trkpt><trkpt lat="14.479393757232245" lon="121.04540240928827"><ele>33.666666666666664</ele><time>2026-04-16T04:26:52Z</time></trkpt><trkpt lat="14.47924257365589" lon="121.04541153010528"><ele>34.33333333333333</ele><time>2026-04-16T04:26:53Z</time></trkpt><trkpt lat="14.479090077743114" lon="121.04541013213444"><ele>35.0</ele><time>2026-04-16T04:26:54Z</time></trkpt><trkpt lat="14.478942126231653" lon="121.0454055160277"><ele>35.0</ele><time>2026-04-16T04:26:55Z</time></trkpt><trkpt lat="14.478807288609207" lon="121.04540231998698"><ele>35.0</ele><time>2026-04-16T04:26:56Z</time></trkpt><trkpt lat="14.478684980382361" lon="121.04539963193851"><ele>35.0</ele><time>2026-04-16T04:26:57Z</time></trkpt><trkpt lat="14.478574846183742" lon="121.045321027033"><ele>35.0</ele><time>2026-04-16T04:26:58Z</time></trkpt><trkpt lat="14.478479304026385" lon="121.0453212541805"><ele>35.0</ele><time>2026-04-16T04:26:59Z</time></trkpt><trkpt lat="14.478387104917008" lon="121.04532147338058"><ele>35.0</ele><time>2026-04-16T04:27:00Z</time></trkpt><trkpt lat="14.4783024559491" lon="121.0453216746302"><ele>35.0</ele><time>2026-04-16T04:27:01Z</time></trkpt><trkpt lat="14.47823213001816" lon="121.04532184182648"><ele>35.0</ele><time>2026-04-16T04:27:02Z</time></trkpt><trkpt lat="14.478143941643118" lon="121.04532205149104"><ele>35.0</ele><time>2026-04-16T04:27:04Z</time></trkpt><trkpt lat="14.478069554608766" lon="121.04532284664616"><ele>35.0</ele><time>2026-04-16T04:27:06Z</time></trkpt><trkpt lat="14.477993011527527" lon="121.04532430183788"><ele>34.6</ele><time>2026-04-16T04:27:09Z</time></trkpt><trkpt lat="14.477898661673567" lon="121.04532609556266"><ele>34.2</ele><time>2026-04-16T04:27:12Z</time></trkpt><trkpt lat="14.477822140529778" lon="121.04532739003858"><ele>33.8</ele><time>2026-04-16T04:27:14Z</time></trkpt><trkpt lat="14.477690496209012" lon="121.04532844389156"><ele>33.4</ele><time>2026-04-16T04:27:16Z</time></trkpt><trkpt lat="14.47760395294961" lon="121.04532895372847"><ele>33.0</ele><time>2026-04-16T04:27:17Z</time></trkpt><trkpt lat="14.477506300117668" lon="121.04532929330722"><ele>33.0</ele><time>2026-04-16T04:27:18Z</time></trkpt><trkpt lat="14.47739558378523" lon="121.0453296783114"><ele>33.0</ele><time>2026-04-16T04:27:19Z</time></trkpt><trkpt lat="14.477277155045824" lon="121.04533009013484"><ele>33.0</ele><time>2026-04-16T04:27:20Z</time></trkpt><trkpt lat="14.47714487395973" lon="121.0453302396061"><ele>33.0</ele><time>2026-04-16T04:27:21Z</time></trkpt><trkpt lat="14.477018991769647" lon="121.04533023960659"><ele>33.75</ele><time>2026-04-16T04:27:22Z</time></trkpt><trkpt lat="14.476883387201436" lon="121.0453305920454"><ele>34.5</ele><time>2026-04-16T04:27:23Z</time></trkpt><trkpt lat="14.476741581686866" lon="121.04533127785955"><ele>35.25</ele><time>2026-04-16T04:27:24Z</time></trkpt><trkpt lat="14.47659957710225" lon="121.04540301228025"><ele>36.0</ele><time>2026-04-16T04:27:25Z</time></trkpt><trkpt lat="14.476454269170254" lon="121.04540200146614"><ele>36.0</ele><time>2026-04-16T04:27:26Z</time></trkpt><trkpt lat="14.476303361563433" lon="121.04540606320964"><ele>36.0</ele><time>2026-04-16T04:27:27Z</time></trkpt><trkpt lat="14.47615246705561" lon="121.04540742622403"><ele>36.0</ele><time>2026-04-16T04:27:28Z</time></trkpt><trkpt lat="14.47599633285246" lon="121.04533814955116"><ele>36.333333333333336</ele><time>2026-04-16T04:27:29Z</time></trkpt><trkpt lat="14.475830417889016" lon="121.04533949270137"><ele>36.66666666666667</ele><time>2026-04-16T04:27:30Z</time></trkpt><trkpt lat="14.475667526361088" lon="121.04534081101359"><ele>37.0</ele><time>2026-04-16T04:27:31Z</time></trkpt><trkpt lat="14.475497769046243" lon="121.04534218489115"><ele>36.66666666666667</ele><time>2026-04-16T04:27:32Z</time></trkpt><trkpt lat="14.475326053208658" lon="121.04534357461934"><ele>36.333333333333336</ele><time>2026-04-16T04:27:33Z</time></trkpt><trkpt lat="14.47513895664812" lon="121.04534508882601"><ele>36.0</ele><time>2026-04-16T04:27:34Z</time></trkpt><trkpt lat="14.47496803450248" lon="121.04534647213028"><ele>36.0</ele><time>2026-04-16T04:27:35Z</time></trkpt><trkpt lat="14.474792657064736" lon="121.04534789149311"><ele>36.0</ele><time>2026-04-16T04:27:36Z</time></trkpt><trkpt lat="14.47461113984641" lon="121.0453492283687"><ele>36.0</ele><time>2026-04-16T04:27:37Z</time></trkpt><trkpt lat="14.47443501356918" lon="121.04534763997971"><ele>35.666666666666664</ele><time>2026-04-16T04:27:38Z</time></trkpt><trkpt lat="14.474247435001054" lon="121.04534763997877"><ele>35.33333333333333</ele><time>2026-04-16T04:27:39Z</time></trkpt><trkpt lat="14.474068111178838" lon="121.0453476399781"><ele>35.0</ele><time>2026-04-16T04:27:40Z</time></trkpt><trkpt lat="14.473887329470388" lon="121.04534790765763"><ele>34.0</ele><time>2026-04-16T04:27:41Z</time></trkpt><trkpt lat="14.473706721404714" lon="121.04534853762846"><ele>33.0</ele><time>2026-04-16T04:27:42Z</time></trkpt><trkpt lat="14.473519416035817" lon="121.0453489399742"><ele>32.0</ele><time>2026-04-16T04:27:43Z</time></trkpt><trkpt lat="14.473327518795537" lon="121.04534893997298"><ele>32.0</ele><time>2026-04-16T04:27:44Z</time></trkpt><trkpt lat="14.473138200727224" lon="121.0453489399721"><ele>32.0</ele><time>2026-04-16T04:27:45Z</time></trkpt><trkpt lat="14.472948767306015" lon="121.04534893997099"><ele>32.0</ele><time>2026-04-16T04:27:46Z</time></trkpt><trkpt lat="14.472762411838975" lon="121.0453489399691"><ele>31.0</ele><time>2026-04-16T04:27:47Z</time></trkpt><trkpt lat="14.472590499254528" lon="121.0453479424899"><ele>30.0</ele><time>2026-04-16T04:27:48Z</time></trkpt><trkpt lat="14.472435016640702" lon="121.04534694482155"><ele>29.0</ele><time>2026-04-16T04:27:49Z</time></trkpt><trkpt lat="14.47228630404169" lon="121.0453468320827"><ele>29.0</ele><time>2026-04-16T04:27:50.001Z</time></trkpt><trkpt lat="14.472155846253626" lon="121.04541157520043"><ele>29.0</ele><time>2026-04-16T04:27:51.001Z</time></trkpt><trkpt lat="14.472014562705477" lon="121.04541374288043"><ele>29.0</ele><time>2026-04-16T04:27:52.001Z</time></trkpt><trkpt lat="14.471863845249699" lon="121.04542134242801"><ele>29.0</ele><time>2026-04-16T04:27:53.001Z</time></trkpt><trkpt lat="14.471716959698961" lon="121.0454165105965"><ele>29.333333333333332</ele><time>2026-04-16T04:27:54.001Z</time></trkpt><trkpt lat="14.471554238598966" lon="121.04535298001461"><ele>29.666666666666664</ele><time>2026-04-16T04:27:55.001Z</time></trkpt><trkpt lat="14.471411810451947" lon="121.04535413224153"><ele>30.0</ele><time>2026-04-16T04:27:56.001Z</time></trkpt><trkpt lat="14.471262917520836" lon="121.04535456521764"><ele>30.25</ele><time>2026-04-16T04:27:57.001Z</time></trkpt><trkpt lat="14.471107737163358" lon="121.04535553036068"><ele>30.5</ele><time>2026-04-16T04:27:58.001Z</time></trkpt><trkpt lat="14.470961012144778" lon="121.04535564032857"><ele>30.75</ele><time>2026-04-16T04:27:59.001Z</time></trkpt><trkpt lat="14.470814870072616" lon="121.04535564032858"><ele>31.0</ele><time>2026-04-16T04:28:00.001Z</time></trkpt><trkpt lat="14.47066830389841" lon="121.0453556403293"><ele>31.0</ele><time>2026-04-16T04:28:01.001Z</time></trkpt><trkpt lat="14.47052559504922" lon="121.04535564032953"><ele>31.0</ele><time>2026-04-16T04:28:02.001Z</time></trkpt><trkpt lat="14.47038415585549" lon="121.04536048574789"><ele>31.0</ele><time>2026-04-16T04:28:03.001Z</time></trkpt><trkpt lat="14.470255684415084" lon="121.04536213022548"><ele>31.0</ele><time>2026-04-16T04:28:04.001Z</time></trkpt><trkpt lat="14.470126154177644" lon="121.04536155669317"><ele>31.0</ele><time>2026-04-16T04:28:05.001Z</time></trkpt><trkpt lat="14.46999998743038" lon="121.04536104033114"><ele>31.0</ele><time>2026-04-16T04:28:06.001Z</time></trkpt><trkpt lat="14.469883082490766" lon="121.04536104033158"><ele>31.0</ele><time>2026-04-16T04:28:07.001Z</time></trkpt><trkpt lat="14.469774576742862" lon="121.04536104033257"><ele>31.0</ele><time>2026-04-16T04:28:08.001Z</time></trkpt><trkpt lat="14.469656285962426" lon="121.04536104033195"><ele>31.200000000000003</ele><time>2026-04-16T04:28:09.001Z</time></trkpt><trkpt lat="14.46954299811854" lon="121.04536104033211"><ele>31.400000000000002</ele><time>2026-04-16T04:28:10.001Z</time></trkpt><trkpt lat="14.469442514221262" lon="121.04536104033215"><ele>31.6</ele><time>2026-04-16T04:28:11.001Z</time></trkpt><trkpt lat="14.469338147088987" lon="121.04536259735383"><ele>31.8</ele><time>2026-04-16T04:28:12.001Z</time></trkpt><trkpt lat="14.469246057774487" lon="121.04536371358685"><ele>32.0</ele><time>2026-04-16T04:28:13.001Z</time></trkpt><trkpt lat="14.469172299039199" lon="121.04536460763217"><ele>31.999999999999996</ele><time>2026-04-16T04:28:14.001Z</time></trkpt><trkpt lat="14.469101662159622" lon="121.04536546383783"><ele>32.0</ele><time>2026-04-16T04:28:15.001Z</time></trkpt><trkpt lat="14.469035968887415" lon="121.04536626011983"><ele>32.0</ele><time>2026-04-16T04:28:16.001Z</time></trkpt><trkpt lat="14.468901775652544" lon="121.04536706612514"><ele>32.0</ele><time>2026-04-16T04:28:18.001Z</time></trkpt><trkpt lat="14.46882080271625" lon="121.04536749057966"><ele>31.999999999999996</ele><time>2026-04-16T04:28:19.001Z</time></trkpt><trkpt lat="14.46873347312498" lon="121.04536779607417"><ele>32.0</ele><time>2026-04-16T04:28:20.001Z</time></trkpt><trkpt lat="14.468652705872723" lon="121.04536790943207"><ele>32.2</ele><time>2026-04-16T04:28:21.001Z</time></trkpt><trkpt lat="14.468561788692618" lon="121.04536803703563"><ele>32.400000000000006</ele><time>2026-04-16T04:28:22.001Z</time></trkpt><trkpt lat="14.468471955888756" lon="121.04536816311658"><ele>32.599999999999994</ele><time>2026-04-16T04:28:23.001Z</time></trkpt><trkpt lat="14.46837713389186" lon="121.04536829620052"><ele>32.8</ele><time>2026-04-16T04:28:24.001Z</time></trkpt><trkpt lat="14.468287387854344" lon="121.04536842215978"><ele>33.0</ele><time>2026-04-16T04:28:25.001Z</time></trkpt><trkpt lat="14.468197461679827" lon="121.04536854837227"><ele>33.0</ele><time>2026-04-16T04:28:26.001Z</time></trkpt><trkpt lat="14.468102492829205" lon="121.04536868166167"><ele>33.0</ele><time>2026-04-16T04:28:27.001Z</time></trkpt><trkpt lat="14.46799468622823" lon="121.04536883296998"><ele>33.0</ele><time>2026-04-16T04:28:28.001Z</time></trkpt><trkpt lat="14.467902694520946" lon="121.04536896208039"><ele>33.0</ele><time>2026-04-16T04:28:29.001Z</time></trkpt><trkpt lat="14.46780096703646" lon="121.04536910485591"><ele>33.0</ele><time>2026-04-16T04:28:30.001Z</time></trkpt><trkpt lat="14.467696915903128" lon="121.04542916287998"><ele>33.75</ele><time>2026-04-16T04:28:31.001Z</time></trkpt><trkpt lat="14.467589024885756" lon="121.04542936871967"><ele>34.5</ele><time>2026-04-16T04:28:32.001Z</time></trkpt><trkpt lat="14.467475188924233" lon="121.04542696715119"><ele>35.25</ele><time>2026-04-16T04:28:33.001Z</time></trkpt><trkpt lat="14.467356903130037" lon="121.04542635692137"><ele>36.0</ele><time>2026-04-16T04:28:34.002Z</time></trkpt><trkpt lat="14.467241227491595" lon="121.04537044033941"><ele>36.0</ele><time>2026-04-16T04:28:35.002Z</time></trkpt><trkpt lat="14.467111371589324" lon="121.04537123188948"><ele>36.0</ele><time>2026-04-16T04:28:36.002Z</time></trkpt><trkpt lat="14.466971473727849" lon="121.04537174034341"><ele>36.0</ele><time>2026-04-16T04:28:37.002Z</time></trkpt><trkpt lat="14.466825740442804" lon="121.04537174034444"><ele>36.0</ele><time>2026-04-16T04:28:38.002Z</time></trkpt><trkpt lat="14.46668447311502" lon="121.04537174034483"><ele>36.4</ele><time>2026-04-16T04:28:39.002Z</time></trkpt><trkpt lat="14.466567592105513" lon="121.04537193233843"><ele>36.8</ele><time>2026-04-16T04:28:40.002Z</time></trkpt><trkpt lat="14.46646668916022" lon="121.0453726037472"><ele>37.199999999999996</ele><time>2026-04-16T04:28:41.002Z</time></trkpt><trkpt lat="14.466382067939044" lon="121.0453731407189"><ele>37.6</ele><time>2026-04-16T04:28:42.002Z</time></trkpt><trkpt lat="14.46630058141788" lon="121.0453731407189"><ele>38.0</ele><time>2026-04-16T04:28:43.002Z</time></trkpt><trkpt lat="14.46621316396614" lon="121.04537314071918"><ele>38.0</ele><time>2026-04-16T04:28:44.002Z</time></trkpt><trkpt lat="14.46612326861339" lon="121.04543023257386"><ele>38.0</ele><time>2026-04-16T04:28:45.002Z</time></trkpt><trkpt lat="14.466034860950474" lon="121.04543217728285"><ele>38.0</ele><time>2026-04-16T04:28:46.001Z</time></trkpt><trkpt lat="14.465945506018594" lon="121.04543177828242"><ele>38.0</ele><time>2026-04-16T04:28:47.001Z</time></trkpt><trkpt lat="14.465848178050654" lon="121.04543332667166"><ele>38.0</ele><time>2026-04-16T04:28:48.001Z</time></trkpt><trkpt lat="14.465760138547422" lon="121.04538003805006"><ele>38.0</ele><time>2026-04-16T04:28:49.001Z</time></trkpt><trkpt lat="14.465666397005068" lon="121.04538152275235"><ele>38.0</ele><time>2026-04-16T04:28:50.001Z</time></trkpt><trkpt lat="14.465585255912673" lon="121.04538280788503"><ele>38.0</ele><time>2026-04-16T04:28:51.001Z</time></trkpt><trkpt lat="14.465500685522857" lon="121.0453841473319"><ele>38.0</ele><time>2026-04-16T04:28:52.001Z</time></trkpt><trkpt lat="14.465409064324646" lon="121.04538559845199"><ele>38.0</ele><time>2026-04-16T04:28:53.001Z</time></trkpt><trkpt lat="14.465331461656506" lon="121.0453868742972"><ele>38.0</ele><time>2026-04-16T04:28:54.001Z</time></trkpt><trkpt lat="14.465264906165572" lon="121.04538810169211"><ele>38.0</ele><time>2026-04-16T04:28:55.001Z</time></trkpt><trkpt lat="14.465193065799031" lon="121.04538942655"><ele>38.0</ele><time>2026-04-16T04:28:56.001Z</time></trkpt><trkpt lat="14.465119235191846" lon="121.04539063443383"><ele>38.0</ele><time>2026-04-16T04:28:57.001Z</time></trkpt><trkpt lat="14.46503989692242" lon="121.04539118482766"><ele>38.0</ele><time>2026-04-16T04:28:58.001Z</time></trkpt><trkpt lat="14.464950840679897" lon="121.04539180263838"><ele>38.0</ele><time>2026-04-16T04:28:59.001Z</time></trkpt><trkpt lat="14.464863035804331" lon="121.04539241176741"><ele>38.0</ele><time>2026-04-16T04:29:00.001Z</time></trkpt><trkpt lat="14.464781635462549" lon="121.0453929764667"><ele>38.0</ele><time>2026-04-16T04:29:01.001Z</time></trkpt><trkpt lat="14.46470287740114" lon="121.0453935228358"><ele>38.0</ele><time>2026-04-16T04:29:02.001Z</time></trkpt><trkpt lat="14.464629362999935" lon="121.0453940328274"><ele>38.0</ele><time>2026-04-16T04:29:03.001Z</time></trkpt><trkpt lat="14.464555457157603" lon="121.04539454553424"><ele>38.0</ele><time>2026-04-16T04:29:04.001Z</time></trkpt><trkpt lat="14.464488232800502" lon="121.0453950118908"><ele>38.0</ele><time>2026-04-16T04:29:05.001Z</time></trkpt><trkpt lat="14.464365487901647" lon="121.04539586340924"><ele>38.0</ele><time>2026-04-16T04:29:07.001Z</time></trkpt><trkpt lat="14.464269085506794" lon="121.04539653218096"><ele>38.0</ele><time>2026-04-16T04:29:09.001Z</time></trkpt><trkpt lat="14.464203539823277" lon="121.04539698689123"><ele>38.0</ele><time>2026-04-16T04:29:13.001Z</time></trkpt><trkpt lat="14.464139032842517" lon="121.04539743439527"><ele>38.0</ele><time>2026-04-16T04:29:15.001Z</time></trkpt><trkpt lat="14.46405714314866" lon="121.04539800249027"><ele>38.0</ele><time>2026-04-16T04:29:17.001Z</time></trkpt><trkpt lat="14.46398526938394" lon="121.04539850110126"><ele>38.0</ele><time>2026-04-16T04:29:20.001Z</time></trkpt><trkpt lat="14.463914342952172" lon="121.04541064006816"><ele>38.0</ele><time>2026-04-16T04:29:22.001Z</time></trkpt><trkpt lat="14.463812297374476" lon="121.04539969483245"><ele>37.6</ele><time>2026-04-16T04:29:24.001Z</time></trkpt><trkpt lat="14.463729597403914" lon="121.04540026517405"><ele>37.199999999999996</ele><time>2026-04-16T04:29:26.001Z</time></trkpt><trkpt lat="14.46364391668799" lon="121.04540085607637"><ele>36.8</ele><time>2026-04-16T04:29:29.001Z</time></trkpt><trkpt lat="14.463544035995376" lon="121.04540154490898"><ele>36.4</ele><time>2026-04-16T04:29:32.001Z</time></trkpt><trkpt lat="14.463410115652236" lon="121.04540246849768"><ele>36.0</ele><time>2026-04-16T04:29:34.001Z</time></trkpt><trkpt lat="14.463323332026752" lon="121.04540306700584"><ele>36.0</ele><time>2026-04-16T04:29:35.001Z</time></trkpt><trkpt lat="14.463224370839194" lon="121.04540374949545"><ele>36.0</ele><time>2026-04-16T04:29:36.001Z</time></trkpt><trkpt lat="14.463099331298139" lon="121.04540461183586"><ele>36.0</ele><time>2026-04-16T04:29:37.001Z</time></trkpt><trkpt lat="14.46296632117675" lon="121.04540552914222"><ele>36.0</ele><time>2026-04-16T04:29:38.001Z</time></trkpt><trkpt lat="14.462847647224656" lon="121.04540473953676"><ele>36.25</ele><time>2026-04-16T04:29:39.001Z</time></trkpt><trkpt lat="14.462708531621795" lon="121.04540416704452"><ele>36.5</ele><time>2026-04-16T04:29:40.001Z</time></trkpt><trkpt lat="14.462565356933036" lon="121.04540367700419"><ele>36.75</ele><time>2026-04-16T04:29:41.001Z</time></trkpt><trkpt lat="14.462415328656721" lon="121.04540322826607"><ele>37.0</ele><time>2026-04-16T04:29:42.001Z</time></trkpt><trkpt lat="14.462268471965773" lon="121.04540278901364"><ele>37.333333333333336</ele><time>2026-04-16T04:29:43.001Z</time></trkpt><trkpt lat="14.462112977558157" lon="121.04540232392489"><ele>37.666666666666664</ele><time>2026-04-16T04:29:44.001Z</time></trkpt><trkpt lat="14.46196009573777" lon="121.04540186665102"><ele>38.0</ele><time>2026-04-16T04:29:45.001Z</time></trkpt><trkpt lat="14.46180401678368" lon="121.0454013998148"><ele>38.0</ele><time>2026-04-16T04:29:46.001Z</time></trkpt><trkpt lat="14.461645172149888" lon="121.0454017334683"><ele>38.0</ele><time>2026-04-16T04:29:47.001Z</time></trkpt><trkpt lat="14.461489593993702" lon="121.0454024598674"><ele>38.0</ele><time>2026-04-16T04:29:48.001Z</time></trkpt><trkpt lat="14.461341372861776" lon="121.04540316255395"><ele>38.5</ele><time>2026-04-16T04:29:49.001Z</time></trkpt><trkpt lat="14.461196684958837" lon="121.04540385230133"><ele>39.0</ele><time>2026-04-16T04:29:50.001Z</time></trkpt><trkpt lat="14.46105648100162" lon="121.0454046577805"><ele>39.5</ele><time>2026-04-16T04:29:51.001Z</time></trkpt><trkpt lat="14.460908843688356" lon="121.04540552814676"><ele>40.0</ele><time>2026-04-16T04:29:52.001Z</time></trkpt><trkpt lat="14.460768266037629" lon="121.04540635689422"><ele>40.0</ele><time>2026-04-16T04:29:53.001Z</time></trkpt><trkpt lat="14.460634741849647" lon="121.04540714405853"><ele>40.0</ele><time>2026-04-16T04:29:54.001Z</time></trkpt><trkpt lat="14.460520977782995" lon="121.04540781473044"><ele>40.0</ele><time>2026-04-16T04:29:55.001Z</time></trkpt><trkpt lat="14.460415981337567" lon="121.04540843371615"><ele>40.0</ele><time>2026-04-16T04:29:56.001Z</time></trkpt><trkpt lat="14.46032597400506" lon="121.04540896433629"><ele>40.0</ele><time>2026-04-16T04:29:57.001Z</time></trkpt><trkpt lat="14.460235565312" lon="121.04540949732099"><ele>40.333333333333336</ele><time>2026-04-16T04:29:58.001Z</time></trkpt><trkpt lat="14.46015657953055" lon="121.04540996296652"><ele>40.66666666666667</ele><time>2026-04-16T04:29:59.001Z</time></trkpt><trkpt lat="14.46007037997981" lon="121.04541047113871"><ele>41.0</ele><time>2026-04-16T04:30:00.001Z</time></trkpt><trkpt lat="14.459987827098514" lon="121.04541232001105"><ele>41.333333333333336</ele><time>2026-04-16T04:30:01.001Z</time></trkpt><trkpt lat="14.459914077516588" lon="121.04541463364859"><ele>41.666666666666664</ele><time>2026-04-16T04:30:02.002Z</time></trkpt><trkpt lat="14.459846357564283" lon="121.04541675812744"><ele>42.0</ele><time>2026-04-16T04:30:03.002Z</time></trkpt><trkpt lat="14.459777974628542" lon="121.04541890340579"><ele>42.0</ele><time>2026-04-16T04:30:04.002Z</time></trkpt><trkpt lat="14.459709063604977" lon="121.04542106524974"><ele>42.0</ele><time>2026-04-16T04:30:05.002Z</time></trkpt><trkpt lat="14.459639801609637" lon="121.04542321507799"><ele>42.0</ele><time>2026-04-16T04:30:06.002Z</time></trkpt><trkpt lat="14.459564088249914" lon="121.04542547855681"><ele>42.0</ele><time>2026-04-16T04:30:07.002Z</time></trkpt><trkpt lat="14.459491673213194" lon="121.04542764343546"><ele>42.0</ele><time>2026-04-16T04:30:08.002Z</time></trkpt><trkpt lat="14.459424405336488" lon="121.04542947341152"><ele>42.0</ele><time>2026-04-16T04:30:09.002Z</time></trkpt><trkpt lat="14.45934954052437" lon="121.04543157213233"><ele>42.0</ele><time>2026-04-16T04:30:10.002Z</time></trkpt><trkpt lat="14.459268530457054" lon="121.04543388869227"><ele>42.0</ele><time>2026-04-16T04:30:11.002Z</time></trkpt><trkpt lat="14.459184977885757" lon="121.04545191983907"><ele>42.0</ele><time>2026-04-16T04:30:12.002Z</time></trkpt><trkpt lat="14.459097285994853" lon="121.04545234926056"><ele>42.0</ele><time>2026-04-16T04:30:13.002Z</time></trkpt><trkpt lat="14.458997614103417" lon="121.04544622708724"><ele>42.0</ele><time>2026-04-16T04:30:14.002Z</time></trkpt><trkpt lat="14.458904232741464" lon="121.04544988239894"><ele>42.0</ele><time>2026-04-16T04:30:15.002Z</time></trkpt><trkpt lat="14.458831048246864" lon="121.04545153113429"><ele>42.0</ele><time>2026-04-16T04:30:16.002Z</time></trkpt><trkpt lat="14.458720722260942" lon="121.04543848191805"><ele>41.833333333333336</ele><time>2026-04-16T04:30:18.002Z</time></trkpt><trkpt lat="14.4585958018996" lon="121.04543721626064"><ele>41.666666666666664</ele><time>2026-04-16T04:30:20.002Z</time></trkpt><trkpt lat="14.458522894731297" lon="121.04543647758544"><ele>41.5</ele><time>2026-04-16T04:30:21.002Z</time></trkpt><trkpt lat="14.458446703953744" lon="121.04543535736721"><ele>41.33333333333333</ele><time>2026-04-16T04:30:22.002Z</time></trkpt><trkpt lat="14.458366046355" lon="121.04543460504458"><ele>41.166666666666664</ele><time>2026-04-16T04:30:23.002Z</time></trkpt><trkpt lat="14.458273140721817" lon="121.04543362339862"><ele>41.0</ele><time>2026-04-16T04:30:24.002Z</time></trkpt><trkpt lat="14.458182224749597" lon="121.04543266507609"><ele>41.0</ele><time>2026-04-16T04:30:25.002Z</time></trkpt><trkpt lat="14.458091836110885" lon="121.04543203416426"><ele>41.0</ele><time>2026-04-16T04:30:26.002Z</time></trkpt><trkpt lat="14.458005169986063" lon="121.04543068934429"><ele>41.0</ele><time>2026-04-16T04:30:27.002Z</time></trkpt><trkpt lat="14.457911755780366" lon="121.04544516686653"><ele>41.0</ele><time>2026-04-16T04:30:28.002Z</time></trkpt><trkpt lat="14.457814515789433" lon="121.04542776900419"><ele>41.0</ele><time>2026-04-16T04:30:29.002Z</time></trkpt><trkpt lat="14.457712662431549" lon="121.04542674107938"><ele>40.199999999999996</ele><time>2026-04-16T04:30:30.002Z</time></trkpt><trkpt lat="14.457614145742115" lon="121.04544093243418"><ele>39.4</ele><time>2026-04-16T04:30:31.002Z</time></trkpt><trkpt lat="14.457514325833227" lon="121.04542529839958"><ele>38.6</ele><time>2026-04-16T04:30:32.002Z</time></trkpt><trkpt lat="14.45741204343077" lon="121.04543972423734"><ele>37.8</ele><time>2026-04-16T04:30:33.002Z</time></trkpt><trkpt lat="14.457302283401235" lon="121.04543774385897"><ele>37.0</ele><time>2026-04-16T04:30:34.002Z</time></trkpt><trkpt lat="14.457193524692581" lon="121.04543558934016"><ele>36.800000000000004</ele><time>2026-04-16T04:30:35.002Z</time></trkpt><trkpt lat="14.45709155133839" lon="121.04542940593062"><ele>36.6</ele><time>2026-04-16T04:30:36.002Z</time></trkpt><trkpt lat="14.456996458265678" lon="121.04542788084292"><ele>36.400000000000006</ele><time>2026-04-16T04:30:37.002Z</time></trkpt><trkpt lat="14.45690264534463" lon="121.0454253368105"><ele>36.2</ele><time>2026-04-16T04:30:38.002Z</time></trkpt><trkpt lat="14.456820065855188" lon="121.04542846606125"><ele>36.0</ele><time>2026-04-16T04:30:39.002Z</time></trkpt><trkpt lat="14.45673680302793" lon="121.04543530180847"><ele>36.0</ele><time>2026-04-16T04:30:40.002Z</time></trkpt><trkpt lat="14.45665460897225" lon="121.04544299605102"><ele>36.0</ele><time>2026-04-16T04:30:41.002Z</time></trkpt><trkpt lat="14.456545311622294" lon="121.04544415944676"><ele>36.0</ele><time>2026-04-16T04:30:43.002Z</time></trkpt><trkpt lat="14.456448462884062" lon="121.04545182680744"><ele>36.0</ele><time>2026-04-16T04:30:45.002Z</time></trkpt><trkpt lat="14.456338832869195" lon="121.0454517181723"><ele>36.0</ele><time>2026-04-16T04:30:47.002Z</time></trkpt><trkpt lat="14.456269485260426" lon="121.04545077293379"><ele>36.333333333333336</ele><time>2026-04-16T04:30:48.002Z</time></trkpt><trkpt lat="14.45619302509232" lon="121.0454552042643"><ele>36.666666666666664</ele><time>2026-04-16T04:30:49.002Z</time></trkpt><trkpt lat="14.456121043453534" lon="121.04545757110957"><ele>37.0</ele><time>2026-04-16T04:30:50.002Z</time></trkpt><trkpt lat="14.4560274599756" lon="121.04545607766963"><ele>37.33333333333333</ele><time>2026-04-16T04:30:51.002Z</time></trkpt><trkpt lat="14.455943126857443" lon="121.04545321029511"><ele>37.666666666666664</ele><time>2026-04-16T04:30:52.001Z</time></trkpt><trkpt lat="14.455853326551868" lon="121.0454541139836"><ele>38.0</ele><time>2026-04-16T04:30:53.001Z</time></trkpt><trkpt lat="14.455756488637375" lon="121.04545495925554"><ele>38.0</ele><time>2026-04-16T04:30:54.001Z</time></trkpt><trkpt lat="14.455661471145424" lon="121.04545893399099"><ele>38.0</ele><time>2026-04-16T04:30:55.001Z</time></trkpt><trkpt lat="14.455559395984547" lon="121.04546367991821"><ele>38.0</ele><time>2026-04-16T04:30:56.001Z</time></trkpt><trkpt lat="14.455462229458862" lon="121.04547017430481"><ele>38.0</ele><time>2026-04-16T04:30:57.001Z</time></trkpt><trkpt lat="14.455364551838109" lon="121.045482784483"><ele>38.0</ele><time>2026-04-16T04:30:58.001Z</time></trkpt><trkpt lat="14.455268537291833" lon="121.04549690666927"><ele>36.8</ele><time>2026-04-16T04:30:59.001Z</time></trkpt><trkpt lat="14.455173671472837" lon="121.04551298052571"><ele>35.599999999999994</ele><time>2026-04-16T04:31:00.001Z</time></trkpt><trkpt lat="14.455076058151139" lon="121.04553468557215"><ele>34.400000000000006</ele><time>2026-04-16T04:31:01.001Z</time></trkpt><trkpt lat="14.45497649447156" lon="121.04555935726039"><ele>33.2</ele><time>2026-04-16T04:31:02.001Z</time></trkpt><trkpt lat="14.45486850964856" lon="121.04558882036437"><ele>32.0</ele><time>2026-04-16T04:31:03.001Z</time></trkpt><trkpt lat="14.454759769603436" lon="121.04562166559025"><ele>32.0</ele><time>2026-04-16T04:31:04.001Z</time></trkpt><trkpt lat="14.454659968143007" lon="121.0456543829833"><ele>32.0</ele><time>2026-04-16T04:31:05.001Z</time></trkpt><trkpt lat="14.454569917732586" lon="121.04568127418437"><ele>32.0</ele><time>2026-04-16T04:31:06.001Z</time></trkpt><trkpt lat="14.454480603339624" lon="121.04570891254565"><ele>32.0</ele><time>2026-04-16T04:31:07.001Z</time></trkpt><trkpt lat="14.454394395317626" lon="121.04573646526079"><ele>32.0</ele><time>2026-04-16T04:31:08.001Z</time></trkpt><trkpt lat="14.454296150612304" lon="121.04574703291328"><ele>31.285714285714285</ele><time>2026-04-16T04:31:09.001Z</time></trkpt><trkpt lat="14.454222710971054" lon="121.04576985931624"><ele>30.57142857142857</ele><time>2026-04-16T04:31:10.001Z</time></trkpt><trkpt lat="14.45414861169754" lon="121.04579289073828"><ele>29.857142857142854</ele><time>2026-04-16T04:31:11.001Z</time></trkpt><trkpt lat="14.45408506574543" lon="121.045813195394"><ele>29.142857142857142</ele><time>2026-04-16T04:31:12.001Z</time></trkpt><trkpt lat="14.454014904896342" lon="121.04583629736247"><ele>28.428571428571427</ele><time>2026-04-16T04:31:13.001Z</time></trkpt><trkpt lat="14.45395418207968" lon="121.04585762990624"><ele>27.714285714285715</ele><time>2026-04-16T04:31:14.001Z</time></trkpt><trkpt lat="14.453890776358268" lon="121.04588082955988"><ele>27.0</ele><time>2026-04-16T04:31:15.001Z</time></trkpt><trkpt lat="14.453794513425812" lon="121.04591399789066"><ele>26.5</ele><time>2026-04-16T04:31:17.001Z</time></trkpt><trkpt lat="14.453712987595688" lon="121.0459392377328"><ele>26.0</ele><time>2026-04-16T04:31:19.001Z</time></trkpt><trkpt lat="14.453650851507085" lon="121.04597422812748"><ele>25.5</ele><time>2026-04-16T04:31:21.001Z</time></trkpt><trkpt lat="14.453561174816747" lon="121.04597541353502"><ele>25.0</ele><time>2026-04-16T04:31:23.001Z</time></trkpt><trkpt lat="14.453496473984368" lon="121.04596019652702"><ele>24.5</ele><time>2026-04-16T04:31:27.001Z</time></trkpt><trkpt lat="14.453364124670335" lon="121.04593328321565"><ele>24.0</ele><time>2026-04-16T04:31:29.001Z</time></trkpt><trkpt lat="14.453285269168388" lon="121.04590358774708"><ele>24.0</ele><time>2026-04-16T04:31:30.001Z</time></trkpt><trkpt lat="14.453195075131468" lon="121.04586485150777"><ele>24.0</ele><time>2026-04-16T04:31:31.001Z</time></trkpt><trkpt lat="14.45311133788372" lon="121.04582261225201"><ele>24.0</ele><time>2026-04-16T04:31:32.001Z</time></trkpt><trkpt lat="14.453024986928709" lon="121.04577724065224"><ele>24.0</ele><time>2026-04-16T04:31:33.001Z</time></trkpt><trkpt lat="14.452940375370037" lon="121.04573534311064"><ele>24.0</ele><time>2026-04-16T04:31:34.001Z</time></trkpt><trkpt lat="14.452859915025552" lon="121.04569773248618"><ele>23.166666666666668</ele><time>2026-04-16T04:31:35.001Z</time></trkpt><trkpt lat="14.452774129838502" lon="121.04566826142116"><ele>22.333333333333332</ele><time>2026-04-16T04:31:36.001Z</time></trkpt><trkpt lat="14.452698362288539" lon="121.04562417912811"><ele>21.5</ele><time>2026-04-16T04:31:37.001Z</time></trkpt><trkpt lat="14.452613114066203" lon="121.04559538593229"><ele>20.666666666666664</ele><time>2026-04-16T04:31:38.001Z</time></trkpt><trkpt lat="14.452527593066606" lon="121.04557269907633"><ele>19.833333333333332</ele><time>2026-04-16T04:31:39.001Z</time></trkpt><trkpt lat="14.452438158952598" lon="121.04556688436672"><ele>19.0</ele><time>2026-04-16T04:31:40.001Z</time></trkpt><trkpt lat="14.452349389543475" lon="121.0455462108388"><ele>19.0</ele><time>2026-04-16T04:31:41.001Z</time></trkpt><trkpt lat="14.45225908656361" lon="121.04552792956954"><ele>19.0</ele><time>2026-04-16T04:31:42.001Z</time></trkpt><trkpt lat="14.452149391045317" lon="121.04550911136336"><ele>19.0</ele><time>2026-04-16T04:31:43.001Z</time></trkpt><trkpt lat="14.452036523215563" lon="121.04549928043532"><ele>19.0</ele><time>2026-04-16T04:31:44.001Z</time></trkpt><trkpt lat="14.451919698414567" lon="121.04548485009187"><ele>19.0</ele><time>2026-04-16T04:31:45.001Z</time></trkpt><trkpt lat="14.451801226800331" lon="121.04547723870455"><ele>19.2</ele><time>2026-04-16T04:31:46.001Z</time></trkpt><trkpt lat="14.451691671220624" lon="121.04547546266389"><ele>19.4</ele><time>2026-04-16T04:31:47.001Z</time></trkpt><trkpt lat="14.451584076246768" lon="121.04547592157907"><ele>19.6</ele><time>2026-04-16T04:31:48.001Z</time></trkpt><trkpt lat="14.451472569945778" lon="121.04547797117337"><ele>19.8</ele><time>2026-04-16T04:31:49.001Z</time></trkpt><trkpt lat="14.451371528542204" lon="121.04547862372414"><ele>20.0</ele><time>2026-04-16T04:31:50.001Z</time></trkpt><trkpt lat="14.451279736828392" lon="121.04548057713215"><ele>20.0</ele><time>2026-04-16T04:31:51.001Z</time></trkpt><trkpt lat="14.451187201054545" lon="121.04548002539651"><ele>20.0</ele><time>2026-04-16T04:31:52.001Z</time></trkpt><trkpt lat="14.451095345786737" lon="121.0454805300746"><ele>20.0</ele><time>2026-04-16T04:31:53.001Z</time></trkpt><trkpt lat="14.450999892078864" lon="121.04548107133712"><ele>20.0</ele><time>2026-04-16T04:31:54.001Z</time></trkpt><trkpt lat="14.450906252881728" lon="121.04546603610413"><ele>20.0</ele><time>2026-04-16T04:31:55.001Z</time></trkpt><trkpt lat="14.45082141018986" lon="121.04546415615269"><ele>20.0</ele><time>2026-04-16T04:31:56.001Z</time></trkpt><trkpt lat="14.450745309949117" lon="121.04547788804729"><ele>20.0</ele><time>2026-04-16T04:31:57.001Z</time></trkpt><trkpt lat="14.450670799028241" lon="121.04547686149489"><ele>20.0</ele><time>2026-04-16T04:31:58.001Z</time></trkpt><trkpt lat="14.450596077833563" lon="121.0454588298885"><ele>20.0</ele><time>2026-04-16T04:31:59.001Z</time></trkpt><trkpt lat="14.450519017955859" lon="121.0454573872275"><ele>20.0</ele><time>2026-04-16T04:32:00.001Z</time></trkpt><trkpt lat="14.450440494427637" lon="121.04545591716663"><ele>20.0</ele><time>2026-04-16T04:32:01.001Z</time></trkpt><trkpt lat="14.450362220433536" lon="121.04545445177507"><ele>19.833333333333336</ele><time>2026-04-16T04:32:02.001Z</time></trkpt><trkpt lat="14.450277426624123" lon="121.04545265724076"><ele>19.666666666666668</ele><time>2026-04-16T04:32:03.001Z</time></trkpt><trkpt lat="14.45019168305636" lon="121.04545062639379"><ele>19.5</ele><time>2026-04-16T04:32:04.001Z</time></trkpt><trkpt lat="14.450121645115932" lon="121.04544896753657"><ele>19.333333333333332</ele><time>2026-04-16T04:32:05.001Z</time></trkpt><trkpt lat="14.450051317958955" lon="121.04544730182917"><ele>19.166666666666664</ele><time>2026-04-16T04:32:06.001Z</time></trkpt><trkpt lat="14.449978042365322" lon="121.04544825993301"><ele>19.0</ele><time>2026-04-16T04:32:07.001Z</time></trkpt><trkpt lat="14.449904612411114" lon="121.04545020855966"><ele>19.0</ele><time>2026-04-16T04:32:08.001Z</time></trkpt><trkpt lat="14.449834273311831" lon="121.04545207516769"><ele>19.0</ele><time>2026-04-16T04:32:09.001Z</time></trkpt><trkpt lat="14.449764001370134" lon="121.04545121599075"><ele>19.0</ele><time>2026-04-16T04:32:10.001Z</time></trkpt><trkpt lat="14.44969123545666" lon="121.0454513923113"><ele>19.0</ele><time>2026-04-16T04:32:11.001Z</time></trkpt><trkpt lat="14.449622770739506" lon="121.04545155820858"><ele>19.0</ele><time>2026-04-16T04:32:12.001Z</time></trkpt><trkpt lat="14.449559050696699" lon="121.04545171261006"><ele>19.0</ele><time>2026-04-16T04:32:13.001Z</time></trkpt><trkpt lat="14.44944640478886" lon="121.04545198556376"><ele>18.666666666666664</ele><time>2026-04-16T04:32:15.001Z</time></trkpt><trkpt lat="14.449355250042784" lon="121.0454522064415"><ele>18.333333333333332</ele><time>2026-04-16T04:32:17.002Z</time></trkpt><trkpt lat="14.449290494146565" lon="121.04545224174662"><ele>18.0</ele><time>2026-04-16T04:32:26.002Z</time></trkpt><trkpt lat="14.449222607294667" lon="121.04545224174664"><ele>17.666666666666668</ele><time>2026-04-16T04:32:29.002Z</time></trkpt><trkpt lat="14.449114729161364" lon="121.04545224174599"><ele>17.333333333333336</ele><time>2026-04-16T04:32:32.002Z</time></trkpt><trkpt lat="14.449033837199172" lon="121.04545224174622"><ele>17.0</ele><time>2026-04-16T04:32:35.002Z</time></trkpt><trkpt lat="14.448961804392948" lon="121.04545224174531"><ele>17.0</ele><time>2026-04-16T04:32:37.002Z</time></trkpt><trkpt lat="14.448866519644195" lon="121.04545224174409"><ele>17.0</ele><time>2026-04-16T04:32:39.002Z</time></trkpt><trkpt lat="14.44876363845954" lon="121.04545174330114"><ele>17.0</ele><time>2026-04-16T04:32:41.002Z</time></trkpt><trkpt lat="14.448630995177217" lon="121.04545110203502"><ele>17.0</ele><time>2026-04-16T04:32:43.002Z</time></trkpt><trkpt lat="14.448553785062446" lon="121.04545072875975"><ele>17.0</ele><time>2026-04-16T04:32:44.002Z</time></trkpt><trkpt lat="14.448490220160037" lon="121.04544739583045"><ele>16.5</ele><time>2026-04-16T04:32:45.002Z</time></trkpt><trkpt lat="14.448412642787337" lon="121.04544708658729"><ele>16.0</ele><time>2026-04-16T04:32:46.002Z</time></trkpt><trkpt lat="14.448333535160998" lon="121.04544740713874"><ele>15.5</ele><time>2026-04-16T04:32:47.002Z</time></trkpt><trkpt lat="14.448261731403141" lon="121.04544769809401"><ele>15.0</ele><time>2026-04-16T04:32:48.002Z</time></trkpt><trkpt lat="14.448144445386152" lon="121.04544817334853"><ele>14.500000000000002</ele><time>2026-04-16T04:32:50.002Z</time></trkpt><trkpt lat="14.448063933385821" lon="121.0454516275865"><ele>14.0</ele><time>2026-04-16T04:32:51.002Z</time></trkpt><trkpt lat="14.447969536622312" lon="121.04545668230104"><ele>14.2</ele><time>2026-04-16T04:32:52.002Z</time></trkpt><trkpt lat="14.44788484101602" lon="121.04545725718074"><ele>14.399999999999999</ele><time>2026-04-16T04:32:53.002Z</time></trkpt><trkpt lat="14.447783196600929" lon="121.04545836379418"><ele>14.6</ele><time>2026-04-16T04:32:54.002Z</time></trkpt><trkpt lat="14.447676068968281" lon="121.04545894173881"><ele>14.8</ele><time>2026-04-16T04:32:55.002Z</time></trkpt><trkpt lat="14.447560892409516" lon="121.04545894173864"><ele>15.0</ele><time>2026-04-16T04:32:56.002Z</time></trkpt><trkpt lat="14.447440734913735" lon="121.04545894173884"><ele>15.0</ele><time>2026-04-16T04:32:57.002Z</time></trkpt><trkpt lat="14.44731145079933" lon="121.04545894173953"><ele>15.0</ele><time>2026-04-16T04:32:58.001Z</time></trkpt><trkpt lat="14.447174768150278" lon="121.04545894212072"><ele>15.0</ele><time>2026-04-16T04:32:59.001Z</time></trkpt><trkpt lat="14.447035034615658" lon="121.04545894212039"><ele>15.0</ele><time>2026-04-16T04:33:00.001Z</time></trkpt><trkpt lat="14.446892944917366" lon="121.0454589421203"><ele>15.5</ele><time>2026-04-16T04:33:01.001Z</time></trkpt><trkpt lat="14.446749542885055" lon="121.0454589421206"><ele>16.0</ele><time>2026-04-16T04:33:02.001Z</time></trkpt><trkpt lat="14.446608039579884" lon="121.04545894212013"><ele>16.5</ele><time>2026-04-16T04:33:03.001Z</time></trkpt><trkpt lat="14.446476717591068" lon="121.0454589421201"><ele>17.0</ele><time>2026-04-16T04:33:04.001Z</time></trkpt><trkpt lat="14.446353115356475" lon="121.04545894212052"><ele>17.25</ele><time>2026-04-16T04:33:05.001Z</time></trkpt><trkpt lat="14.446225971137718" lon="121.04545982258766"><ele>17.5</ele><time>2026-04-16T04:33:06.001Z</time></trkpt><trkpt lat="14.446101465408137" lon="121.04546165855388"><ele>17.75</ele><time>2026-04-16T04:33:07.001Z</time></trkpt><trkpt lat="14.445969131020902" lon="121.04546164211973"><ele>18.0</ele><time>2026-04-16T04:33:08.001Z</time></trkpt><trkpt lat="14.445837426930423" lon="121.04546294211966"><ele>18.0</ele><time>2026-04-16T04:33:09.001Z</time></trkpt><trkpt lat="14.44571594070597" lon="121.04546294211956"><ele>18.0</ele><time>2026-04-16T04:33:10.001Z</time></trkpt><trkpt lat="14.445606959102218" lon="121.04546339199838"><ele>18.0</ele><time>2026-04-16T04:33:11.001Z</time></trkpt><trkpt lat="14.445501692570575" lon="121.0454639738107"><ele>18.0</ele><time>2026-04-16T04:33:12.001Z</time></trkpt><trkpt lat="14.445406797490259" lon="121.04546434211986"><ele>18.0</ele><time>2026-04-16T04:33:13.001Z</time></trkpt><trkpt lat="14.445324975654719" lon="121.04546434212031"><ele>17.666666666666668</ele><time>2026-04-16T04:33:14.001Z</time></trkpt><trkpt lat="14.445248715157293" lon="121.04546899525583"><ele>17.333333333333332</ele><time>2026-04-16T04:33:15.001Z</time></trkpt><trkpt lat="14.445178678603146" lon="121.04547433203007"><ele>17.0</ele><time>2026-04-16T04:33:16.001Z</time></trkpt><trkpt lat="14.44509664822483" lon="121.04547921149204"><ele>16.666666666666664</ele><time>2026-04-16T04:33:18.001Z</time></trkpt><trkpt lat="14.445002730031472" lon="121.04548450912729"><ele>16.333333333333332</ele><time>2026-04-16T04:33:20.001Z</time></trkpt><trkpt lat="14.444909881037368" lon="121.04547212177981"><ele>16.0</ele><time>2026-04-16T04:33:22.001Z</time></trkpt><trkpt lat="14.44480563065703" lon="121.0454807435618"><ele>16.0</ele><time>2026-04-16T04:33:24.001Z</time></trkpt><trkpt lat="14.444707187938649" lon="121.04548602358874"><ele>16.0</ele><time>2026-04-16T04:33:26.001Z</time></trkpt><trkpt lat="14.444587317550793" lon="121.04549981944629"><ele>16.0</ele><time>2026-04-16T04:33:28.001Z</time></trkpt><trkpt lat="14.44449740543231" lon="121.0455051622482"><ele>16.0</ele><time>2026-04-16T04:33:29.001Z</time></trkpt><trkpt lat="14.444406364637974" lon="121.04550890848883"><ele>16.0</ele><time>2026-04-16T04:33:30.001Z</time></trkpt><trkpt lat="14.444330680236948" lon="121.04549904576665"><ele>16.400000000000002</ele><time>2026-04-16T04:33:31.001Z</time></trkpt><trkpt lat="14.444252180759099" lon="121.04548291880039"><ele>16.8</ele><time>2026-04-16T04:33:32.001Z</time></trkpt><trkpt lat="14.44415790258466" lon="121.04547309207241"><ele>17.200000000000003</ele><time>2026-04-16T04:33:33.001Z</time></trkpt><trkpt lat="14.44406199001949" lon="121.04547362094732"><ele>17.6</ele><time>2026-04-16T04:33:34.001Z</time></trkpt><trkpt lat="14.443964835571323" lon="121.04547082728527"><ele>18.0</ele><time>2026-04-16T04:33:35.001Z</time></trkpt><trkpt lat="14.443864828280766" lon="121.04547653473571"><ele>17.833333333333332</ele><time>2026-04-16T04:33:36.001Z</time></trkpt><trkpt lat="14.443750704816717" lon="121.04548390356226"><ele>17.666666666666668</ele><time>2026-04-16T04:33:37.001Z</time></trkpt><trkpt lat="14.443654994291691" lon="121.04547730845317"><ele>17.5</ele><time>2026-04-16T04:33:38.001Z</time></trkpt><trkpt lat="14.443580655102833" lon="121.045469051264"><ele>17.333333333333336</ele><time>2026-04-16T04:33:39.001Z</time></trkpt><trkpt lat="14.443504343078812" lon="121.04547241783719"><ele>17.166666666666668</ele><time>2026-04-16T04:33:40.001Z</time></trkpt><trkpt lat="14.44341818786407" lon="121.04547502170034"><ele>17.0</ele><time>2026-04-16T04:33:41.001Z</time></trkpt><trkpt lat="14.443330241767683" lon="121.04547364537937"><ele>17.0</ele><time>2026-04-16T04:33:42.001Z</time></trkpt><trkpt lat="14.44323341020211" lon="121.0454718398943"><ele>17.0</ele><time>2026-04-16T04:33:43.001Z</time></trkpt><trkpt lat="14.443132267877647" lon="121.0454667791997"><ele>17.0</ele><time>2026-04-16T04:33:44.001Z</time></trkpt><trkpt lat="14.443027356097426" lon="121.04546655222987"><ele>17.0</ele><time>2026-04-16T04:33:45.001Z</time></trkpt><trkpt lat="14.442931418567078" lon="121.0454753923862"><ele>17.0</ele><time>2026-04-16T04:33:46.001Z</time></trkpt><trkpt lat="14.442847581924427" lon="121.04547206456171"><ele>16.5</ele><time>2026-04-16T04:33:47.001Z</time></trkpt><trkpt lat="14.442754115772354" lon="121.04546516085055"><ele>16.0</ele><time>2026-04-16T04:33:48.001Z</time></trkpt><trkpt lat="14.442628975492216" lon="121.04547177807841"><ele>15.5</ele><time>2026-04-16T04:33:49.001Z</time></trkpt><trkpt lat="14.4425085199572" lon="121.04547134135545"><ele>15.0</ele><time>2026-04-16T04:33:50.001Z</time></trkpt><trkpt lat="14.442392736691131" lon="121.04547627333092"><ele>15.0</ele><time>2026-04-16T04:33:51.001Z</time></trkpt><trkpt lat="14.442279446944418" lon="121.04549121149883"><ele>15.0</ele><time>2026-04-16T04:33:52.001Z</time></trkpt><trkpt lat="14.44215737710663" lon="121.04549876270232"><ele>15.0</ele><time>2026-04-16T04:33:53.001Z</time></trkpt><trkpt lat="14.442032150741476" lon="121.04550754315879"><ele>15.0</ele><time>2026-04-16T04:33:54.001Z</time></trkpt><trkpt lat="14.441907325709149" lon="121.04551797163028"><ele>15.25</ele><time>2026-04-16T04:33:55.001Z</time></trkpt><trkpt lat="14.441794178324658" lon="121.04553453435138"><ele>15.5</ele><time>2026-04-16T04:33:56.001Z</time></trkpt><trkpt lat="14.441678977088037" lon="121.04554575675837"><ele>15.75</ele><time>2026-04-16T04:33:57.001Z</time></trkpt><trkpt lat="14.441566812355958" lon="121.04555439116577"><ele>16.0</ele><time>2026-04-16T04:33:58.001Z</time></trkpt><trkpt lat="14.441445319052846" lon="121.04555609519923"><ele>16.0</ele><time>2026-04-16T04:33:59.001Z</time></trkpt><trkpt lat="14.441319829982033" lon="121.04556170671363"><ele>16.0</ele><time>2026-04-16T04:34:00.001Z</time></trkpt><trkpt lat="14.44119541880472" lon="121.04556135313612"><ele>16.0</ele><time>2026-04-16T04:34:01.001Z</time></trkpt><trkpt lat="14.44106561120246" lon="121.04556588424803"><ele>16.0</ele><time>2026-04-16T04:34:02.001Z</time></trkpt><trkpt lat="14.440933400741965" lon="121.04556642774708"><ele>16.5</ele><time>2026-04-16T04:34:03.001Z</time></trkpt><trkpt lat="14.440810792455093" lon="121.04556912963201"><ele>17.0</ele><time>2026-04-16T04:34:04.001Z</time></trkpt><trkpt lat="14.440699106542779" lon="121.0455671148654"><ele>17.5</ele><time>2026-04-16T04:34:05.001Z</time></trkpt><trkpt lat="14.440564235165601" lon="121.04557510772318"><ele>18.0</ele><time>2026-04-16T04:34:06.001Z</time></trkpt><trkpt lat="14.440444648774323" lon="121.0455767907311"><ele>18.0</ele><time>2026-04-16T04:34:07.001Z</time></trkpt><trkpt lat="14.440308601916025" lon="121.04557497733278"><ele>18.0</ele><time>2026-04-16T04:34:08.001Z</time></trkpt><trkpt lat="14.440174884410903" lon="121.04557171527827"><ele>18.0</ele><time>2026-04-16T04:34:09.001Z</time></trkpt><trkpt lat="14.44004729995199" lon="121.04556887170634"><ele>18.0</ele><time>2026-04-16T04:34:10.001Z</time></trkpt><trkpt lat="14.439924546373021" lon="121.04556757294378"><ele>18.0</ele><time>2026-04-16T04:34:11.001Z</time></trkpt><trkpt lat="14.439805825240077" lon="121.0455691059763"><ele>18.0</ele><time>2026-04-16T04:34:12.001Z</time></trkpt><trkpt lat="14.439707833258574" lon="121.04556695174213"><ele>18.0</ele><time>2026-04-16T04:34:13.001Z</time></trkpt><trkpt lat="14.439613089353703" lon="121.04556677907725"><ele>18.0</ele><time>2026-04-16T04:34:14.001Z</time></trkpt><trkpt lat="14.439533247553284" lon="121.04556235700427"><ele>18.0</ele><time>2026-04-16T04:34:15.001Z</time></trkpt><trkpt lat="14.439453751934066" lon="121.04556051769319"><ele>17.6</ele><time>2026-04-16T04:34:16.001Z</time></trkpt><trkpt lat="14.439374192597812" lon="121.04555521519349"><ele>17.200000000000003</ele><time>2026-04-16T04:34:17.001Z</time></trkpt><trkpt lat="14.43928414952851" lon="121.04554831445343"><ele>16.8</ele><time>2026-04-16T04:34:18.001Z</time></trkpt><trkpt lat="14.43919458553963" lon="121.04553931945344"><ele>16.400000000000002</ele><time>2026-04-16T04:34:19.001Z</time></trkpt><trkpt lat="14.439094804109578" lon="121.04553167378495"><ele>16.0</ele><time>2026-04-16T04:34:20.001Z</time></trkpt><trkpt lat="14.438999279782776" lon="121.0455245095331"><ele>16.0</ele><time>2026-04-16T04:34:21.001Z</time></trkpt><trkpt lat="14.438905410943782" lon="121.04552289207315"><ele>16.0</ele><time>2026-04-16T04:34:22.001Z</time></trkpt><trkpt lat="14.438814280895343" lon="121.04550427921154"><ele>16.0</ele><time>2026-04-16T04:34:23.001Z</time></trkpt><trkpt lat="14.438722950467826" lon="121.04549323424405"><ele>16.0</ele><time>2026-04-16T04:34:24.001Z</time></trkpt><trkpt lat="14.438630228516422" lon="121.04548711844564"><ele>16.0</ele><time>2026-04-16T04:34:25.001Z</time></trkpt><trkpt lat="14.438537995395533" lon="121.04549692034846"><ele>15.4</ele><time>2026-04-16T04:34:26.001Z</time></trkpt><trkpt lat="14.438436229190492" lon="121.04550257530003"><ele>14.8</ele><time>2026-04-16T04:34:27.001Z</time></trkpt><trkpt lat="14.438341470987279" lon="121.0454983030691"><ele>14.200000000000001</ele><time>2026-04-16T04:34:28.001Z</time></trkpt><trkpt lat="14.438235490770769" lon="121.04549555528519"><ele>13.600000000000001</ele><time>2026-04-16T04:34:29.001Z</time></trkpt><trkpt lat="14.438138703245158" lon="121.04549617004294"><ele>13.0</ele><time>2026-04-16T04:34:30.001Z</time></trkpt><trkpt lat="14.438049032848916" lon="121.0454902015585"><ele>12.4</ele><time>2026-04-16T04:34:31.001Z</time></trkpt><trkpt lat="14.43795405275952" lon="121.04548582710984"><ele>11.8</ele><time>2026-04-16T04:34:32.002Z</time></trkpt><trkpt lat="14.43786089985641" lon="121.04548229402225"><ele>11.2</ele><time>2026-04-16T04:34:33.002Z</time></trkpt><trkpt lat="14.437758284395482" lon="121.0454928803295"><ele>10.6</ele><time>2026-04-16T04:34:34.002Z</time></trkpt><trkpt lat="14.437658959785471" lon="121.04549745927355"><ele>10.0</ele><time>2026-04-16T04:34:35.002Z</time></trkpt><trkpt lat="14.437556656690392" lon="121.04549637741516"><ele>10.0</ele><time>2026-04-16T04:34:36.002Z</time></trkpt><trkpt lat="14.43746198905272" lon="121.04549964967006"><ele>10.0</ele><time>2026-04-16T04:34:37.002Z</time></trkpt><trkpt lat="14.437363264071495" lon="121.04549920342234"><ele>10.0</ele><time>2026-04-16T04:34:38.002Z</time></trkpt><trkpt lat="14.437272229692917" lon="121.04549452429215"><ele>10.0</ele><time>2026-04-16T04:34:39.002Z</time></trkpt><trkpt lat="14.437170761734842" lon="121.04550153862263"><ele>10.0</ele><time>2026-04-16T04:34:40.002Z</time></trkpt><trkpt lat="14.437073549069968" lon="121.04550059138369"><ele>10.2</ele><time>2026-04-16T04:34:41.002Z</time></trkpt><trkpt lat="14.436975275211157" lon="121.04550839368692"><ele>10.4</ele><time>2026-04-16T04:34:42.002Z</time></trkpt><trkpt lat="14.436876233632558" lon="121.04551658303706"><ele>10.600000000000001</ele><time>2026-04-16T04:34:43.002Z</time></trkpt><trkpt lat="14.436778436456107" lon="121.04550960731983"><ele>10.8</ele><time>2026-04-16T04:34:44.002Z</time></trkpt><trkpt lat="14.436674416113815" lon="121.04550242820721"><ele>11.0</ele><time>2026-04-16T04:34:45.002Z</time></trkpt><trkpt lat="14.43657310595555" lon="121.04550238395241"><ele>11.0</ele><time>2026-04-16T04:34:46.002Z</time></trkpt><trkpt lat="14.436466420235789" lon="121.04549991733799"><ele>11.0</ele><time>2026-04-16T04:34:47.002Z</time></trkpt><trkpt lat="14.436376375769713" lon="121.04550078894555"><ele>11.0</ele><time>2026-04-16T04:34:48.002Z</time></trkpt><trkpt lat="14.436281936793108" lon="121.04550544623761"><ele>11.0</ele><time>2026-04-16T04:34:49.002Z</time></trkpt><trkpt lat="14.436191083355148" lon="121.04550692166966"><ele>11.0</ele><time>2026-04-16T04:34:50.002Z</time></trkpt><trkpt lat="14.436096297935125" lon="121.04551413516057"><ele>11.166666666666666</ele><time>2026-04-16T04:34:51.002Z</time></trkpt><trkpt lat="14.436025334149294" lon="121.04552226776065"><ele>11.333333333333332</ele><time>2026-04-16T04:34:52.002Z</time></trkpt><trkpt lat="14.435958804326907" lon="121.0455199439559"><ele>11.5</ele><time>2026-04-16T04:34:53.002Z</time></trkpt><trkpt lat="14.435895339106803" lon="121.04551676508416"><ele>11.666666666666666</ele><time>2026-04-16T04:34:54.002Z</time></trkpt><trkpt lat="14.435828181889052" lon="121.04551284606622"><ele>11.833333333333334</ele><time>2026-04-16T04:34:55.002Z</time></trkpt><trkpt lat="14.435716709146389" lon="121.04553349511534"><ele>12.0</ele><time>2026-04-16T04:34:56.002Z</time></trkpt><trkpt lat="14.435611732275165" lon="121.04553908522388"><ele>12.0</ele><time>2026-04-16T04:34:57.002Z</time></trkpt><trkpt lat="14.435507075272302" lon="121.04555160268296"><ele>12.0</ele><time>2026-04-16T04:34:58.002Z</time></trkpt><trkpt lat="14.435400995054556" lon="121.04555179001767"><ele>12.0</ele><time>2026-04-16T04:34:59.002Z</time></trkpt><trkpt lat="14.435302720337578" lon="121.04555177543159"><ele>12.0</ele><time>2026-04-16T04:35:00.002Z</time></trkpt><trkpt lat="14.435210523808394" lon="121.04554962828047"><ele>12.0</ele><time>2026-04-16T04:35:01.002Z</time></trkpt><trkpt lat="14.435131079476966" lon="121.04554381839395"><ele>11.714285714285714</ele><time>2026-04-16T04:35:02.002Z</time></trkpt><trkpt lat="14.435057160530208" lon="121.04554585678001"><ele>11.428571428571429</ele><time>2026-04-16T04:35:03.002Z</time></trkpt><trkpt lat="14.434981718037388" lon="121.04554802310473"><ele>11.142857142857142</ele><time>2026-04-16T04:35:04.001Z</time></trkpt><trkpt lat="14.43490717087355" lon="121.04554878218359"><ele>10.857142857142858</ele><time>2026-04-16T04:35:05.001Z</time></trkpt><trkpt lat="14.434837155098137" lon="121.04554650980396"><ele>10.571428571428571</ele><time>2026-04-16T04:35:06.001Z</time></trkpt><trkpt lat="14.434768029566778" lon="121.04554218490985"><ele>10.285714285714285</ele><time>2026-04-16T04:35:07.001Z</time></trkpt><trkpt lat="14.434703514225824" lon="121.04554292628058"><ele>10.0</ele><time>2026-04-16T04:35:08.001Z</time></trkpt><trkpt lat="14.434580373518985" lon="121.04554201434192"><ele>9.857142857142858</ele><time>2026-04-16T04:35:10.001Z</time></trkpt><trkpt lat="14.434509653867691" lon="121.04554680942388"><ele>9.714285714285715</ele><time>2026-04-16T04:35:11.001Z</time></trkpt><trkpt lat="14.43443654508562" lon="121.04553977912093"><ele>9.571428571428573</ele><time>2026-04-16T04:35:12.001Z</time></trkpt><trkpt lat="14.434367711814348" lon="121.04554356123225"><ele>9.428571428571429</ele><time>2026-04-16T04:35:13.001Z</time></trkpt><trkpt lat="14.434299985317208" lon="121.04554270604196"><ele>9.285714285714286</ele><time>2026-04-16T04:35:14.001Z</time></trkpt><trkpt lat="14.434232274715646" lon="121.04554087205051"><ele>9.142857142857144</ele><time>2026-04-16T04:35:15.001Z</time></trkpt><trkpt lat="14.434162626259527" lon="121.04554050182556"><ele>9.0</ele><time>2026-04-16T04:35:16.001Z</time></trkpt><trkpt lat="14.434080638783716" lon="121.04554082002814"><ele>9.0</ele><time>2026-04-16T04:35:17.001Z</time></trkpt><trkpt lat="14.434002459223878" lon="121.04554377420587"><ele>9.0</ele><time>2026-04-16T04:35:18.001Z</time></trkpt><trkpt lat="14.433931799538414" lon="121.04555120519939"><ele>9.0</ele><time>2026-04-16T04:35:19.001Z</time></trkpt><trkpt lat="14.433849810883595" lon="121.04555412598259"><ele>9.0</ele><time>2026-04-16T04:35:20.001Z</time></trkpt><trkpt lat="14.433783537571312" lon="121.04554963632481"><ele>9.0</ele><time>2026-04-16T04:35:21.001Z</time></trkpt><trkpt lat="14.433675893895735" lon="121.04554459051852"><ele>9.0</ele><time>2026-04-16T04:35:23.001Z</time></trkpt><trkpt lat="14.43358514186912" lon="121.04554800169916"><ele>9.333333333333334</ele><time>2026-04-16T04:35:25.001Z</time></trkpt><trkpt lat="14.433492911009381" lon="121.04555367906374"><ele>9.666666666666666</ele><time>2026-04-16T04:35:27.001Z</time></trkpt><trkpt lat="14.433392708886393" lon="121.04555400582434"><ele>10.0</ele><time>2026-04-16T04:35:29.001Z</time></trkpt><trkpt lat="14.433326330091694" lon="121.04554454192359"><ele>10.333333333333332</ele><time>2026-04-16T04:35:30.001Z</time></trkpt><trkpt lat="14.433249128438344" lon="121.04554865600488"><ele>10.666666666666666</ele><time>2026-04-16T04:35:31.001Z</time></trkpt><trkpt lat="14.43316908125035" lon="121.04555371400743"><ele>11.0</ele><time>2026-04-16T04:35:32.001Z</time></trkpt><trkpt lat="14.433056218825367" lon="121.0455527281031"><ele>11.166666666666666</ele><time>2026-04-16T04:35:34.001Z</time></trkpt><trkpt lat="14.432930929524938" lon="121.04555963277123"><ele>11.333333333333332</ele><time>2026-04-16T04:35:36.001Z</time></trkpt><trkpt lat="14.432862138860498" lon="121.04555803828262"><ele>11.5</ele><time>2026-04-16T04:35:37.001Z</time></trkpt><trkpt lat="14.432790559374553" lon="121.04555495287856"><ele>11.666666666666666</ele><time>2026-04-16T04:35:38.001Z</time></trkpt><trkpt lat="14.432713850477588" lon="121.04555136265571"><ele>11.833333333333334</ele><time>2026-04-16T04:35:39.001Z</time></trkpt><trkpt lat="14.432635991913761" lon="121.04555056599476"><ele>12.0</ele><time>2026-04-16T04:35:40.001Z</time></trkpt><trkpt lat="14.432557423882502" lon="121.04554795192641"><ele>12.0</ele><time>2026-04-16T04:35:41.001Z</time></trkpt><trkpt lat="14.432469231771744" lon="121.04555454358443"><ele>12.0</ele><time>2026-04-16T04:35:42.001Z</time></trkpt><trkpt lat="14.43238867931044" lon="121.04554794500282"><ele>12.0</ele><time>2026-04-16T04:35:43.001Z</time></trkpt><trkpt lat="14.432305539434111" lon="121.04553839050064"><ele>12.0</ele><time>2026-04-16T04:35:44.001Z</time></trkpt><trkpt lat="14.43223639252299" lon="121.04553823590511"><ele>12.0</ele><time>2026-04-16T04:35:45.001Z</time></trkpt><trkpt lat="14.432170280477445" lon="121.04554459403728"><ele>12.0</ele><time>2026-04-16T04:35:46.001Z</time></trkpt><trkpt lat="14.432103819939984" lon="121.04553939623034"><ele>11.8</ele><time>2026-04-16T04:35:47.001Z</time></trkpt><trkpt lat="14.43203129291622" lon="121.04554684823208"><ele>11.6</ele><time>2026-04-16T04:35:48.001Z</time></trkpt><trkpt lat="14.431913431165379" lon="121.04554800584526"><ele>11.4</ele><time>2026-04-16T04:35:50.001Z</time></trkpt><trkpt lat="14.431815843166095" lon="121.04555225591257"><ele>11.200000000000001</ele><time>2026-04-16T04:35:52.001Z</time></trkpt><trkpt lat="14.43169692048302" lon="121.04555148871486"><ele>11.0</ele><time>2026-04-16T04:35:54.001Z</time></trkpt><trkpt lat="14.431607950168585" lon="121.04555748835314"><ele>11.0</ele><time>2026-04-16T04:35:56.001Z</time></trkpt><trkpt lat="14.431534773938978" lon="121.04555994972065"><ele>11.0</ele><time>2026-04-16T04:35:58.001Z</time></trkpt><trkpt lat="14.43142334220287" lon="121.0455513753024"><ele>11.0</ele><time>2026-04-16T04:36:00.001Z</time></trkpt><trkpt lat="14.431351908344944" lon="121.04555420417515"><ele>11.0</ele><time>2026-04-16T04:36:01.001Z</time></trkpt><trkpt lat="14.431277263262148" lon="121.04555244191702"><ele>11.0</ele><time>2026-04-16T04:36:02.001Z</time></trkpt><trkpt lat="14.43115079498021" lon="121.04556687688738"><ele>10.833333333333332</ele><time>2026-04-16T04:36:04.001Z</time></trkpt><trkpt lat="14.431041331593581" lon="121.04557171133062"><ele>10.666666666666666</ele><time>2026-04-16T04:36:06.001Z</time></trkpt><trkpt lat="14.43097228198948" lon="121.04557332629362"><ele>10.5</ele><time>2026-04-16T04:36:08.001Z</time></trkpt><trkpt lat="14.43089942852521" lon="121.0455639001794"><ele>10.333333333333334</ele><time>2026-04-16T04:36:18.001Z</time></trkpt><trkpt lat="14.430781864558982" lon="121.0455637621617"><ele>10.166666666666668</ele><time>2026-04-16T04:36:20.001Z</time></trkpt><trkpt lat="14.430717760402395" lon="121.04557227481234"><ele>10.0</ele><time>2026-04-16T04:36:21.001Z</time></trkpt><trkpt lat="14.430625015976968" lon="121.04558262374933"><ele>10.0</ele><time>2026-04-16T04:36:23.001Z</time></trkpt><trkpt lat="14.430560617805162" lon="121.04558083458089"><ele>10.0</ele><time>2026-04-16T04:36:25.001Z</time></trkpt><trkpt lat="14.430486961049551" lon="121.04557850545024"><ele>10.0</ele><time>2026-04-16T04:36:27.001Z</time></trkpt><trkpt lat="14.430388308374114" lon="121.04557816610236"><ele>10.0</ele><time>2026-04-16T04:36:29.001Z</time></trkpt><trkpt lat="14.4302911839316" lon="121.04557553462166"><ele>10.0</ele><time>2026-04-16T04:36:31.001Z</time></trkpt><trkpt lat="14.430187988426137" lon="121.0455764917067"><ele>10.0</ele><time>2026-04-16T04:36:33.001Z</time></trkpt><trkpt lat="14.430066693274558" lon="121.04557605856746"><ele>10.0</ele><time>2026-04-16T04:36:35.001Z</time></trkpt><trkpt lat="14.429994881889089" lon="121.0455803152103"><ele>10.0</ele><time>2026-04-16T04:36:36.001Z</time></trkpt><trkpt lat="14.429919836917184" lon="121.04558392519706"><ele>10.0</ele><time>2026-04-16T04:36:37.001Z</time></trkpt><trkpt lat="14.429846933455496" lon="121.04558507566313"><ele>10.0</ele><time>2026-04-16T04:36:38.001Z</time></trkpt><trkpt lat="14.429778719296213" lon="121.04559090127327"><ele>10.0</ele><time>2026-04-16T04:36:39.001Z</time></trkpt><trkpt lat="14.429709447739599" lon="121.0455877949334"><ele>10.0</ele><time>2026-04-16T04:36:40.001Z</time></trkpt><trkpt lat="14.429632383315104" lon="121.04559014373018"><ele>10.0</ele><time>2026-04-16T04:36:41.001Z</time></trkpt><trkpt lat="14.429547562178739" lon="121.04558945947493"><ele>10.333333333333334</ele><time>2026-04-16T04:36:42.001Z</time></trkpt><trkpt lat="14.429454244479222" lon="121.04559534073611"><ele>10.666666666666668</ele><time>2026-04-16T04:36:43.001Z</time></trkpt><trkpt lat="14.429372851471504" lon="121.04558583815377"><ele>11.0</ele><time>2026-04-16T04:36:44.001Z</time></trkpt><trkpt lat="14.429280068669819" lon="121.04558803046255"><ele>11.333333333333334</ele><time>2026-04-16T04:36:45.001Z</time></trkpt><trkpt lat="14.429199347898642" lon="121.04558796943844"><ele>11.666666666666666</ele><time>2026-04-16T04:36:46.001Z</time></trkpt><trkpt lat="14.429119043004087" lon="121.04558538094585"><ele>12.0</ele><time>2026-04-16T04:36:47.001Z</time></trkpt><trkpt lat="14.429029173418128" lon="121.04558281538584"><ele>12.0</ele><time>2026-04-16T04:36:48.001Z</time></trkpt><trkpt lat="14.42893562671045" lon="121.0455822993958"><ele>12.0</ele><time>2026-04-16T04:36:49.001Z</time></trkpt><trkpt lat="14.428845071631763" lon="121.04558167508642"><ele>12.0</ele><time>2026-04-16T04:36:50.001Z</time></trkpt><trkpt lat="14.428756537872792" lon="121.04558060267811"><ele>12.0</ele><time>2026-04-16T04:36:51.001Z</time></trkpt><trkpt lat="14.428669871764587" lon="121.04558153499714"><ele>12.0</ele><time>2026-04-16T04:36:52.001Z</time></trkpt><trkpt lat="14.428575608247538" lon="121.04558188796445"><ele>12.0</ele><time>2026-04-16T04:36:53.001Z</time></trkpt><trkpt lat="14.428477571607873" lon="121.04557777880935"><ele>12.0</ele><time>2026-04-16T04:36:54.002Z</time></trkpt><trkpt lat="14.428363258369309" lon="121.0455837621455"><ele>12.0</ele><time>2026-04-16T04:36:55.002Z</time></trkpt><trkpt lat="14.428263711730514" lon="121.04559221857026"><ele>12.0</ele><time>2026-04-16T04:36:56.002Z</time></trkpt><trkpt lat="14.42814924473538" lon="121.04558948612322"><ele>12.0</ele><time>2026-04-16T04:36:57.002Z</time></trkpt><trkpt lat="14.428027918807949" lon="121.0455949193998"><ele>11.8</ele><time>2026-04-16T04:36:58.002Z</time></trkpt><trkpt lat="14.427910084128335" lon="121.04558478045944"><ele>11.6</ele><time>2026-04-16T04:36:59.002Z</time></trkpt><trkpt lat="14.427827550446281" lon="121.04559245539936"><ele>11.4</ele><time>2026-04-16T04:37:00.002Z</time></trkpt><trkpt lat="14.427746247361021" lon="121.04559895981747"><ele>11.200000000000001</ele><time>2026-04-16T04:37:01.002Z</time></trkpt><trkpt lat="14.42763609581697" lon="121.04559660624946"><ele>11.0</ele><time>2026-04-16T04:37:02.002Z</time></trkpt><trkpt lat="14.427554503697626" lon="121.04559254657336"><ele>11.0</ele><time>2026-04-16T04:37:03.002Z</time></trkpt><trkpt lat="14.427482611059174" lon="121.04559697402657"><ele>11.0</ele><time>2026-04-16T04:37:04.002Z</time></trkpt><trkpt lat="14.42741108029568" lon="121.04559584875085"><ele>11.0</ele><time>2026-04-16T04:37:05.002Z</time></trkpt><trkpt lat="14.427337757405127" lon="121.04559710830448"><ele>11.0</ele><time>2026-04-16T04:37:06.002Z</time></trkpt><trkpt lat="14.42725627036469" lon="121.04559718505922"><ele>11.0</ele><time>2026-04-16T04:37:07.002Z</time></trkpt><trkpt lat="14.42717487706654" lon="121.04559635515535"><ele>11.0</ele><time>2026-04-16T04:37:08.002Z</time></trkpt><trkpt lat="14.427102689529681" lon="121.04559623390264"><ele>11.333333333333332</ele><time>2026-04-16T04:37:09.002Z</time></trkpt><trkpt lat="14.427021526685381" lon="121.04559537499125"><ele>11.666666666666666</ele><time>2026-04-16T04:37:10.001Z</time></trkpt><trkpt lat="14.426939592555284" lon="121.04559988983287"><ele>12.0</ele><time>2026-04-16T04:37:11.001Z</time></trkpt><trkpt lat="14.426856688447556" lon="121.04559746854208"><ele>12.333333333333332</ele><time>2026-04-16T04:37:12.001Z</time></trkpt><trkpt lat="14.426775089197713" lon="121.04559539924125"><ele>12.666666666666666</ele><time>2026-04-16T04:37:13.001Z</time></trkpt><trkpt lat="14.426694225990623" lon="121.0455951414918"><ele>13.0</ele><time>2026-04-16T04:37:14.001Z</time></trkpt><trkpt lat="14.426610511578845" lon="121.04559207840138"><ele>12.999999999999998</ele><time>2026-04-16T04:37:15.001Z</time></trkpt><trkpt lat="14.426540375578087" lon="121.04559218310365"><ele>13.0</ele><time>2026-04-16T04:37:16.001Z</time></trkpt><trkpt lat="14.42646651431018" lon="121.04559479103699"><ele>13.0</ele><time>2026-04-16T04:37:17.001Z</time></trkpt><trkpt lat="14.42639896413348" lon="121.04559239046057"><ele>13.0</ele><time>2026-04-16T04:37:18.001Z</time></trkpt><trkpt lat="14.426323491471303" lon="121.04559508021173"><ele>12.999999999999998</ele><time>2026-04-16T04:37:19.001Z</time></trkpt><trkpt lat="14.42625439294865" lon="121.0455932665594"><ele>13.0</ele><time>2026-04-16T04:37:20.001Z</time></trkpt><trkpt lat="14.426123537117283" lon="121.04559376586793"><ele>13.166666666666666</ele><time>2026-04-16T04:37:22.001Z</time></trkpt><trkpt lat="14.426039068444227" lon="121.0455968274687"><ele>13.333333333333332</ele><time>2026-04-16T04:37:23.001Z</time></trkpt><trkpt lat="14.425973547641945" lon="121.04559495780904"><ele>13.5</ele><time>2026-04-16T04:37:24.001Z</time></trkpt><trkpt lat="14.425909713853514" lon="121.0455986824518"><ele>13.666666666666668</ele><time>2026-04-16T04:37:25.001Z</time></trkpt><trkpt lat="14.425784106341249" lon="121.04558882737857"><ele>13.833333333333334</ele><time>2026-04-16T04:37:27.001Z</time></trkpt><trkpt lat="14.425712993367693" lon="121.04559314414264"><ele>14.0</ele><time>2026-04-16T04:37:28.001Z</time></trkpt><trkpt lat="14.425600663804156" lon="121.04559270361656"><ele>14.0</ele><time>2026-04-16T04:37:30.001Z</time></trkpt><trkpt lat="14.42548938594687" lon="121.04559316575657"><ele>13.999999999999998</ele><time>2026-04-16T04:37:32.001Z</time></trkpt><trkpt lat="14.4253792621015" lon="121.04559415687817"><ele>13.999999999999998</ele><time>2026-04-16T04:37:34.001Z</time></trkpt><trkpt lat="14.425314363589418" lon="121.04560356951154"><ele>14.0</ele><time>2026-04-16T04:37:49.001Z</time></trkpt><trkpt lat="14.425205929172911" lon="121.0456080241045"><ele>14.0</ele><time>2026-04-16T04:37:52.001Z</time></trkpt><trkpt lat="14.425136962726842" lon="121.04559605254988"><ele>13.799999999999999</ele><time>2026-04-16T04:37:54.001Z</time></trkpt><trkpt lat="14.42504974095961" lon="121.04561057331762"><ele>13.599999999999998</ele><time>2026-04-16T04:37:56.001Z</time></trkpt><trkpt lat="14.424931419352815" lon="121.0456120407669"><ele>13.4</ele><time>2026-04-16T04:37:58.001Z</time></trkpt><trkpt lat="14.424846958266185" lon="121.04561319183898"><ele>13.2</ele><time>2026-04-16T04:37:59.001Z</time></trkpt><trkpt lat="14.424748854524484" lon="121.04561309569004"><ele>13.0</ele><time>2026-04-16T04:38:00.001Z</time></trkpt><trkpt lat="14.424659527351132" lon="121.04560786790151"><ele>13.8</ele><time>2026-04-16T04:38:01.001Z</time></trkpt><trkpt lat="14.42458129459571" lon="121.04560261279474"><ele>14.600000000000001</ele><time>2026-04-16T04:38:02.001Z</time></trkpt><trkpt lat="14.42451485173137" lon="121.04560031194777"><ele>15.399999999999999</ele><time>2026-04-16T04:38:03.001Z</time></trkpt><trkpt lat="14.424445094276942" lon="121.0456036609804"><ele>16.2</ele><time>2026-04-16T04:38:04.001Z</time></trkpt><trkpt lat="14.424298208735681" lon="121.04561088184919"><ele>17.0</ele><time>2026-04-16T04:38:06.001Z</time></trkpt><trkpt lat="14.424195918563317" lon="121.04560787343607"><ele>17.0</ele><time>2026-04-16T04:38:07.001Z</time></trkpt><trkpt lat="14.424091822541374" lon="121.04560323483315"><ele>17.0</ele><time>2026-04-16T04:38:08.001Z</time></trkpt><trkpt lat="14.42398092986843" lon="121.04559773701179"><ele>17.0</ele><time>2026-04-16T04:38:09.001Z</time></trkpt><trkpt lat="14.423857652888028" lon="121.04560710101183"><ele>17.0</ele><time>2026-04-16T04:38:10.001Z</time></trkpt><trkpt lat="14.423732586447839" lon="121.04560348184334"><ele>16.0</ele><time>2026-04-16T04:38:11.001Z</time></trkpt><trkpt lat="14.423596549520477" lon="121.04560084027301"><ele>15.0</ele><time>2026-04-16T04:38:12.001Z</time></trkpt><trkpt lat="14.423463778320416" lon="121.0455983927566"><ele>14.0</ele><time>2026-04-16T04:38:13.001Z</time></trkpt><trkpt lat="14.423338905358683" lon="121.04560400330979"><ele>13.0</ele><time>2026-04-16T04:38:14.001Z</time></trkpt><trkpt lat="14.42321096116599" lon="121.04562257043514"><ele>13.0</ele><time>2026-04-16T04:38:15.001Z</time></trkpt><trkpt lat="14.423084585651456" lon="121.04563920651482"><ele>13.0</ele><time>2026-04-16T04:38:16.001Z</time></trkpt><trkpt lat="14.42296045472074" lon="121.04566658451459"><ele>13.0</ele><time>2026-04-16T04:38:17.001Z</time></trkpt><trkpt lat="14.422841830563186" lon="121.04569091103652"><ele>13.0</ele><time>2026-04-16T04:38:18.001Z</time></trkpt><trkpt lat="14.422729571384988" lon="121.04571975662942"><ele>12.4</ele><time>2026-04-16T04:38:19.001Z</time></trkpt><trkpt lat="14.422619742792449" lon="121.04573756520944"><ele>11.8</ele><time>2026-04-16T04:38:20.001Z</time></trkpt><trkpt lat="14.422515854355861" lon="121.04574852710664"><ele>11.2</ele><time>2026-04-16T04:38:21.001Z</time></trkpt><trkpt lat="14.422409877648171" lon="121.04575102481519"><ele>10.6</ele><time>2026-04-16T04:38:22.001Z</time></trkpt><trkpt lat="14.42229540798848" lon="121.04575233998987"><ele>10.0</ele><time>2026-04-16T04:38:23.001Z</time></trkpt><trkpt lat="14.422189169511167" lon="121.04575147986196"><ele>10.0</ele><time>2026-04-16T04:38:24.001Z</time></trkpt><trkpt lat="14.422088000440601" lon="121.04574949786152"><ele>10.0</ele><time>2026-04-16T04:38:25.001Z</time></trkpt><trkpt lat="14.421994767794684" lon="121.04575094202022"><ele>10.0</ele><time>2026-04-16T04:38:26.001Z</time></trkpt><trkpt lat="14.421908993170847" lon="121.04575279806518"><ele>10.0</ele><time>2026-04-16T04:38:27.001Z</time></trkpt><trkpt lat="14.421816188803955" lon="121.04574767715597"><ele>10.0</ele><time>2026-04-16T04:38:28.001Z</time></trkpt><trkpt lat="14.421725472698007" lon="121.04573901272494"><ele>10.0</ele><time>2026-04-16T04:38:29.001Z</time></trkpt><trkpt lat="14.421634369388979" lon="121.0457248944972"><ele>10.0</ele><time>2026-04-16T04:38:30.001Z</time></trkpt><trkpt lat="14.421547107408541" lon="121.04571191747155"><ele>10.0</ele><time>2026-04-16T04:38:31.001Z</time></trkpt><trkpt lat="14.421441887563628" lon="121.04570467844309"><ele>10.0</ele><time>2026-04-16T04:38:32.001Z</time></trkpt><trkpt lat="14.421342608434234" lon="121.0457008615645"><ele>10.0</ele><time>2026-04-16T04:38:33.001Z</time></trkpt><trkpt lat="14.421248349957155" lon="121.045697464135"><ele>11.0</ele><time>2026-04-16T04:38:34.001Z</time></trkpt><trkpt lat="14.42116218926821" lon="121.04569675597048"><ele>12.0</ele><time>2026-04-16T04:38:35.001Z</time></trkpt><trkpt lat="14.421071707123819" lon="121.04569491769412"><ele>13.0</ele><time>2026-04-16T04:38:36.001Z</time></trkpt><trkpt lat="14.420976057715993" lon="121.04568623390185"><ele>14.0</ele><time>2026-04-16T04:38:37.001Z</time></trkpt><trkpt lat="14.420863939105635" lon="121.04567630584941"><ele>15.0</ele><time>2026-04-16T04:38:38.001Z</time></trkpt><trkpt lat="14.420761692042499" lon="121.04565927111902"><ele>15.0</ele><time>2026-04-16T04:38:39.001Z</time></trkpt><trkpt lat="14.420673178054342" lon="121.04564432571966"><ele>15.0</ele><time>2026-04-16T04:38:40.001Z</time></trkpt><trkpt lat="14.42059145326422" lon="121.04563030876079"><ele>15.0</ele><time>2026-04-16T04:38:41.001Z</time></trkpt><trkpt lat="14.420522174133849" lon="121.045617015638"><ele>15.0</ele><time>2026-04-16T04:38:42.001Z</time></trkpt><trkpt lat="14.420463479591819" lon="121.04558740623615"><ele>15.0</ele><time>2026-04-16T04:38:43.001Z</time></trkpt><trkpt lat="14.420380300561204" lon="121.04553398759151"><ele>15.0</ele><time>2026-04-16T04:38:45.001Z</time></trkpt><trkpt lat="14.420287418441616" lon="121.04549958229111"><ele>15.4</ele><time>2026-04-16T04:38:47.001Z</time></trkpt><trkpt lat="14.4202340876348" lon="121.0454630855371"><ele>15.8</ele><time>2026-04-16T04:38:48.001Z</time></trkpt><trkpt lat="14.420175622480443" lon="121.04541308846177"><ele>16.2</ele><time>2026-04-16T04:38:49.001Z</time></trkpt><trkpt lat="14.420069154065352" lon="121.04536111676498"><ele>16.6</ele><time>2026-04-16T04:38:51.001Z</time></trkpt><trkpt lat="14.419946138686363" lon="121.04535371929722"><ele>17.0</ele><time>2026-04-16T04:38:53.001Z</time></trkpt><trkpt lat="14.419853353373751" lon="121.04534114386804"><ele>17.0</ele><time>2026-04-16T04:38:55.001Z</time></trkpt><trkpt lat="14.419782097886388" lon="121.0453243198529"><ele>17.0</ele><time>2026-04-16T04:38:57.001Z</time></trkpt><trkpt lat="14.419588773251986" lon="121.04529320043335"><ele>17.0</ele><time>2026-04-16T04:41:14.002Z</time></trkpt><trkpt lat="14.419516367354722" lon="121.0452759076521"><ele>17.0</ele><time>2026-04-16T04:41:15.002Z</time></trkpt><trkpt lat="14.419412451915573" lon="121.04521115820239"><ele>17.2</ele><time>2026-04-16T04:41:17.002Z</time></trkpt><trkpt lat="14.419357742404115" lon="121.04517425350248"><ele>17.4</ele><time>2026-04-16T04:41:19.002Z</time></trkpt><trkpt lat="14.419321024946148" lon="121.0451119345291"><ele>17.6</ele><time>2026-04-16T04:41:21.001Z</time></trkpt><trkpt lat="14.41921631492677" lon="121.04509509146875"><ele>17.8</ele><time>2026-04-16T04:41:23.001Z</time></trkpt><trkpt lat="14.41916776978615" lon="121.04500309943737"><ele>18.0</ele><time>2026-04-16T04:41:25.001Z</time></trkpt><trkpt lat="14.419164211385644" lon="121.04488687693991"><ele>17.5</ele><time>2026-04-16T04:41:27.001Z</time></trkpt><trkpt lat="14.419165771799383" lon="121.04474031853661"><ele>17.0</ele><time>2026-04-16T04:41:29.001Z</time></trkpt><trkpt lat="14.419165513208142" lon="121.04467284322446"><ele>16.5</ele><time>2026-04-16T04:41:30.001Z</time></trkpt><trkpt lat="14.419150565936484" lon="121.04460940715798"><ele>16.0</ele><time>2026-04-16T04:41:31.001Z</time></trkpt><trkpt lat="14.419153828948005" lon="121.04451524738413"><ele>15.5</ele><time>2026-04-16T04:41:32.001Z</time></trkpt><trkpt lat="14.419154320420816" lon="121.0444335015225"><ele>15.0</ele><time>2026-04-16T04:41:33.001Z</time></trkpt><trkpt lat="14.419155291421108" lon="121.04436383433158"><ele>15.0</ele><time>2026-04-16T04:41:34.001Z</time></trkpt><trkpt lat="14.419155555137918" lon="121.0442928105977"><ele>15.0</ele><time>2026-04-16T04:41:35.001Z</time></trkpt><trkpt lat="14.419146304268022" lon="121.04421325957254"><ele>15.0</ele><time>2026-04-16T04:41:36.001Z</time></trkpt><trkpt lat="14.419153896320024" lon="121.04412366860277"><ele>15.0</ele><time>2026-04-16T04:41:37.001Z</time></trkpt><trkpt lat="14.419170568900254" lon="121.04404334005477"><ele>15.0</ele><time>2026-04-16T04:41:38.001Z</time></trkpt><trkpt lat="14.419191292266113" lon="121.04397638079737"><ele>15.0</ele><time>2026-04-16T04:41:39.001Z</time></trkpt><trkpt lat="14.419226157609959" lon="121.0439114370779"><ele>15.0</ele><time>2026-04-16T04:41:40.001Z</time></trkpt><trkpt lat="14.419319936733581" lon="121.04382205523352"><ele>15.0</ele><time>2026-04-16T04:41:42.001Z</time></trkpt><trkpt lat="14.419382959012536" lon="121.04377634892693"><ele>15.0</ele><time>2026-04-16T04:41:44.001Z</time></trkpt><trkpt lat="14.419442779508373" lon="121.04372833906233"><ele>15.0</ele><time>2026-04-16T04:41:50.001Z</time></trkpt><trkpt lat="14.419512572264416" lon="121.0436610474226"><ele>15.0</ele><time>2026-04-16T04:41:54.001Z</time></trkpt><trkpt lat="14.419572379230091" lon="121.04358689722616"><ele>15.0</ele><time>2026-04-16T04:41:56.001Z</time></trkpt><trkpt lat="14.419628091089374" lon="121.04353500296253"><ele>15.0</ele><time>2026-04-16T04:41:59.001Z</time></trkpt><trkpt lat="14.419684496762484" lon="121.04346487126278"><ele>15.0</ele><time>2026-04-16T04:42:01.001Z</time></trkpt><trkpt lat="14.419744253741095" lon="121.04338791591144"><ele>15.0</ele><time>2026-04-16T04:42:03.001Z</time></trkpt><trkpt lat="14.419794882365846" lon="121.04332880563717"><ele>15.0</ele><time>2026-04-16T04:42:05.001Z</time></trkpt><trkpt lat="14.419862837624786" lon="121.04325542897836"><ele>15.0</ele><time>2026-04-16T04:42:07.001Z</time></trkpt><trkpt lat="14.419945989257263" lon="121.04316105421424"><ele>15.4</ele><time>2026-04-16T04:42:09.001Z</time></trkpt><trkpt lat="14.420037793235934" lon="121.0430614549357"><ele>15.8</ele><time>2026-04-16T04:42:11.001Z</time></trkpt><trkpt lat="14.420081493355848" lon="121.04299973979957"><ele>16.2</ele><time>2026-04-16T04:42:12.001Z</time></trkpt><trkpt lat="14.420125759490496" lon="121.04293312685019"><ele>16.6</ele><time>2026-04-16T04:42:13.001Z</time></trkpt><trkpt lat="14.420175824781996" lon="121.04286009287753"><ele>17.0</ele><time>2026-04-16T04:42:14.001Z</time></trkpt><trkpt lat="14.420228531855185" lon="121.0427752032214"><ele>17.0</ele><time>2026-04-16T04:42:15.001Z</time></trkpt><trkpt lat="14.420284006086666" lon="121.0426860225486"><ele>17.0</ele><time>2026-04-16T04:42:16.001Z</time></trkpt><trkpt lat="14.420338107212478" lon="121.04260823422676"><ele>17.0</ele><time>2026-04-16T04:42:17.001Z</time></trkpt><trkpt lat="14.420383164394542" lon="121.04254630175275"><ele>17.0</ele><time>2026-04-16T04:42:18.001Z</time></trkpt><trkpt lat="14.420440098241892" lon="121.04246952079376"><ele>17.0</ele><time>2026-04-16T04:42:19.001Z</time></trkpt><trkpt lat="14.420477690877597" lon="121.04240545389825"><ele>17.0</ele><time>2026-04-16T04:42:20.001Z</time></trkpt><trkpt lat="14.420526178051393" lon="121.04233762504023"><ele>17.666666666666668</ele><time>2026-04-16T04:42:21.001Z</time></trkpt><trkpt lat="14.420581891391603" lon="121.04226899188123"><ele>18.333333333333332</ele><time>2026-04-16T04:42:23.001Z</time></trkpt><trkpt lat="14.420426656198648" lon="121.04206342272069"><ele>19.0</ele><time>2026-04-16T04:42:25.001Z</time></trkpt><trkpt lat="14.420315451734705" lon="121.04198497070662"><ele>19.6</ele><time>2026-04-16T04:42:27.001Z</time></trkpt><trkpt lat="14.420251973013011" lon="121.04192374476848"><ele>20.2</ele><time>2026-04-16T04:42:28.001Z</time></trkpt><trkpt lat="14.420225502943534" lon="121.0418573456956"><ele>20.8</ele><time>2026-04-16T04:42:29.001Z</time></trkpt><trkpt lat="14.42019693405282" lon="121.04177008872965"><ele>21.400000000000002</ele><time>2026-04-16T04:42:30.001Z</time></trkpt><trkpt lat="14.420117166213915" lon="121.04169802949608"><ele>22.0</ele><time>2026-04-16T04:42:31.001Z</time></trkpt><trkpt lat="14.420023092029767" lon="121.0416380541272"><ele>21.200000000000003</ele><time>2026-04-16T04:42:32.001Z</time></trkpt><trkpt lat="14.419957339329585" lon="121.04154555381292"><ele>20.400000000000002</ele><time>2026-04-16T04:42:33.001Z</time></trkpt><trkpt lat="14.419898248210743" lon="121.04145293459055"><ele>19.6</ele><time>2026-04-16T04:42:34.001Z</time></trkpt><trkpt lat="14.419872605820213" lon="121.04135170031515"><ele>18.8</ele><time>2026-04-16T04:42:35.001Z</time></trkpt><trkpt lat="14.419819743955824" lon="121.04125763455268"><ele>18.0</ele><time>2026-04-16T04:42:36.001Z</time></trkpt><trkpt lat="14.419802550345205" lon="121.04114322481661"><ele>18.0</ele><time>2026-04-16T04:42:37.001Z</time></trkpt><trkpt lat="14.419743046917617" lon="121.0409885849086"><ele>18.0</ele><time>2026-04-16T04:42:38.001Z</time></trkpt><trkpt lat="14.419715222145191" lon="121.04086413675442"><ele>18.0</ele><time>2026-04-16T04:42:39.001Z</time></trkpt><trkpt lat="14.419690432183462" lon="121.04075155607046"><ele>18.0</ele><time>2026-04-16T04:42:40.001Z</time></trkpt><trkpt lat="14.41966874205571" lon="121.04064694212578"><ele>19.4</ele><time>2026-04-16T04:42:41.001Z</time></trkpt><trkpt lat="14.419651537236685" lon="121.0405445734527"><ele>20.8</ele><time>2026-04-16T04:42:42.001Z</time></trkpt><trkpt lat="14.419636043010202" lon="121.04045238280158"><ele>22.2</ele><time>2026-04-16T04:42:43.001Z</time></trkpt><trkpt lat="14.419618198785015" lon="121.04038345668273"><ele>23.6</ele><time>2026-04-16T04:42:44.001Z</time></trkpt><trkpt lat="14.419602570803297" lon="121.04030518944589"><ele>25.0</ele><time>2026-04-16T04:42:45.001Z</time></trkpt><trkpt lat="14.41959472935995" lon="121.04018923032916"><ele>25.0</ele><time>2026-04-16T04:42:47.001Z</time></trkpt><trkpt lat="14.41957443806769" lon="121.04009795153347"><ele>25.0</ele><time>2026-04-16T04:42:49.001Z</time></trkpt><trkpt lat="14.419561889935856" lon="121.04002694699446"><ele>25.0</ele><time>2026-04-16T04:42:52.001Z</time></trkpt><trkpt lat="14.419518262811259" lon="121.039947496978"><ele>25.0</ele><time>2026-04-16T04:44:12.001Z</time></trkpt><trkpt lat="14.41950641134241" lon="121.03980665317174"><ele>25.0</ele><time>2026-04-16T04:44:14.001Z</time></trkpt><trkpt lat="14.419433873606215" lon="121.03970703519435"><ele>24.8</ele><time>2026-04-16T04:44:15.001Z</time></trkpt><trkpt lat="14.41938290149749" lon="121.0395790730685"><ele>24.6</ele><time>2026-04-16T04:44:16.001Z</time></trkpt><trkpt lat="14.419318655096443" lon="121.03945973266629"><ele>24.4</ele><time>2026-04-16T04:44:17.001Z</time></trkpt><trkpt lat="14.419272778544482" lon="121.0394075899572"><ele>24.2</ele><time>2026-04-16T04:44:18.001Z</time></trkpt><trkpt lat="14.4192223396459" lon="121.0393288799681"><ele>24.0</ele><time>2026-04-16T04:44:19.001Z</time></trkpt><trkpt lat="14.419175560321726" lon="121.03927776681249"><ele>24.0</ele><time>2026-04-16T04:44:20.001Z</time></trkpt><trkpt lat="14.419133064233957" lon="121.03921895687951"><ele>24.0</ele><time>2026-04-16T04:44:21.001Z</time></trkpt><trkpt lat="14.419034862159815" lon="121.03905894742425"><ele>24.0</ele><time>2026-04-16T04:44:22.001Z</time></trkpt><trkpt lat="14.418965754801604" lon="121.03896425005937"><ele>24.0</ele><time>2026-04-16T04:44:23.001Z</time></trkpt><trkpt lat="14.418891885813617" lon="121.03887230985721"><ele>25.2</ele><time>2026-04-16T04:44:24.001Z</time></trkpt><trkpt lat="14.41882666316703" lon="121.0387958418989"><ele>26.4</ele><time>2026-04-16T04:44:25.001Z</time></trkpt><trkpt lat="14.418762545937316" lon="121.03872619332982"><ele>27.6</ele><time>2026-04-16T04:44:26.001Z</time></trkpt><trkpt lat="14.41870460567237" lon="121.0386639329129"><ele>28.8</ele><time>2026-04-16T04:44:27.001Z</time></trkpt><trkpt lat="14.418648230197306" lon="121.03860051887459"><ele>30.0</ele><time>2026-04-16T04:44:28.001Z</time></trkpt><trkpt lat="14.418575863635553" lon="121.03848648777372"><ele>30.0</ele><time>2026-04-16T04:44:30.001Z</time></trkpt><trkpt lat="14.41855199602391" lon="121.03840635269131"><ele>30.0</ele><time>2026-04-16T04:44:31.001Z</time></trkpt><trkpt lat="14.418546885592798" lon="121.03831644255013"><ele>30.0</ele><time>2026-04-16T04:44:32.001Z</time></trkpt><trkpt lat="14.418580822674294" lon="121.03823694944163"><ele>30.0</ele><time>2026-04-16T04:44:33.001Z</time></trkpt><trkpt lat="14.418629718303242" lon="121.03815192959264"><ele>30.0</ele><time>2026-04-16T04:44:34.001Z</time></trkpt><trkpt lat="14.418672535881035" lon="121.03804520126428"><ele>29.0</ele><time>2026-04-16T04:44:35.001Z</time></trkpt><trkpt lat="14.418726733763405" lon="121.03794216864894"><ele>28.0</ele><time>2026-04-16T04:44:36.001Z</time></trkpt><trkpt lat="14.418787096528197" lon="121.03784613562459"><ele>27.0</ele><time>2026-04-16T04:44:37.001Z</time></trkpt><trkpt lat="14.41884509904881" lon="121.03774483732187"><ele>26.0</ele><time>2026-04-16T04:44:38.001Z</time></trkpt><trkpt lat="14.418899641270025" lon="121.0376453861097"><ele>25.0</ele><time>2026-04-16T04:44:39.001Z</time></trkpt><trkpt lat="14.41895480947339" lon="121.03754899069655"><ele>25.2</ele><time>2026-04-16T04:44:40.001Z</time></trkpt><trkpt lat="14.419014740980383" lon="121.0374525290749"><ele>25.4</ele><time>2026-04-16T04:44:41.001Z</time></trkpt><trkpt lat="14.419070751788222" lon="121.03736797273929"><ele>25.6</ele><time>2026-04-16T04:44:42.001Z</time></trkpt><trkpt lat="14.41912083889982" lon="121.03727900802248"><ele>25.8</ele><time>2026-04-16T04:44:43.001Z</time></trkpt><trkpt lat="14.419167659464964" lon="121.037197402215"><ele>26.0</ele><time>2026-04-16T04:44:44.001Z</time></trkpt><trkpt lat="14.41920778303412" lon="121.03712109100147"><ele>25.999999999999996</ele><time>2026-04-16T04:44:45.001Z</time></trkpt><trkpt lat="14.419243729174589" lon="121.03705810503946"><ele>26.0</ele><time>2026-04-16T04:44:46.001Z</time></trkpt><trkpt lat="14.419277399286297" lon="121.03700059037324"><ele>26.0</ele><time>2026-04-16T04:44:47.001Z</time></trkpt><trkpt lat="14.419322262171319" lon="121.03689818536031"><ele>26.0</ele><time>2026-04-16T04:44:49.001Z</time></trkpt><trkpt lat="14.419364018137196" lon="121.03682840976822"><ele>25.999999999999996</ele><time>2026-04-16T04:44:51.001Z</time></trkpt><trkpt lat="14.41941115948315" lon="121.03675325341707"><ele>26.0</ele><time>2026-04-16T04:45:47Z</time></trkpt><trkpt lat="14.419465086780502" lon="121.03662708437712"><ele>26.4</ele><time>2026-04-16T04:45:49Z</time></trkpt><trkpt lat="14.419505310717971" lon="121.03654854574378"><ele>26.8</ele><time>2026-04-16T04:45:50Z</time></trkpt><trkpt lat="14.41955055366909" lon="121.03646437614755"><ele>27.199999999999996</ele><time>2026-04-16T04:45:51Z</time></trkpt><trkpt lat="14.419608765282224" lon="121.03637806111848"><ele>27.599999999999998</ele><time>2026-04-16T04:45:52Z</time></trkpt><trkpt lat="14.419668059761644" lon="121.03624498162554"><ele>28.0</ele><time>2026-04-16T04:45:53Z</time></trkpt><trkpt lat="14.41973325492812" lon="121.03612399791969"><ele>27.25</ele><time>2026-04-16T04:45:54Z</time></trkpt><trkpt lat="14.419791875137115" lon="121.0360162501847"><ele>26.5</ele><time>2026-04-16T04:45:55Z</time></trkpt><trkpt lat="14.419853568395974" lon="121.03591204428237"><ele>25.75</ele><time>2026-04-16T04:45:56Z</time></trkpt><trkpt lat="14.419910020640897" lon="121.03581253016418"><ele>25.0</ele><time>2026-04-16T04:45:57Z</time></trkpt><trkpt lat="14.419968766179199" lon="121.03569795938705"><ele>25.000000000000004</ele><time>2026-04-16T04:45:58Z</time></trkpt><trkpt lat="14.420019191381124" lon="121.03560699875601"><ele>25.0</ele><time>2026-04-16T04:45:59Z</time></trkpt><trkpt lat="14.42006871930952" lon="121.03551731311967"><ele>25.0</ele><time>2026-04-16T04:46:00Z</time></trkpt><trkpt lat="14.420116295760538" lon="121.0354336819604"><ele>25.0</ele><time>2026-04-16T04:46:01Z</time></trkpt><trkpt lat="14.420150769898392" lon="121.03536851048251"><ele>25.000000000000004</ele><time>2026-04-16T04:46:02Z</time></trkpt><trkpt lat="14.420180299186423" lon="121.03530810750175"><ele>25.0</ele><time>2026-04-16T04:46:03Z</time></trkpt><trkpt lat="14.420216461293395" lon="121.03524772595539"><ele>25.000000000000004</ele><time>2026-04-16T04:46:04Z</time></trkpt><trkpt lat="14.420251999433779" lon="121.03517749635661"><ele>25.0</ele><time>2026-04-16T04:46:06Z</time></trkpt><trkpt lat="14.420290705779818" lon="121.03510065628936"><ele>25.0</ele><time>2026-04-16T04:46:29.001Z</time></trkpt><trkpt lat="14.420354185633084" lon="121.03502059085041"><ele>25.0</ele><time>2026-04-16T04:46:31.001Z</time></trkpt><trkpt lat="14.420391471644136" lon="121.03496525012558"><ele>25.000000000000004</ele><time>2026-04-16T04:46:32.001Z</time></trkpt><trkpt lat="14.420438481973322" lon="121.03489674941642"><ele>25.0</ele><time>2026-04-16T04:46:33.001Z</time></trkpt><trkpt lat="14.420482776893293" lon="121.03482143021978"><ele>24.6</ele><time>2026-04-16T04:46:34.001Z</time></trkpt><trkpt lat="14.420534606132996" lon="121.03473464933693"><ele>24.2</ele><time>2026-04-16T04:46:35.001Z</time></trkpt><trkpt lat="14.420594788741838" lon="121.03463958980124"><ele>23.799999999999997</ele><time>2026-04-16T04:46:36.001Z</time></trkpt><trkpt lat="14.420619352275569" lon="121.03456385507653"><ele>23.4</ele><time>2026-04-16T04:46:37.001Z</time></trkpt><trkpt lat="14.420664903582184" lon="121.03446726059101"><ele>23.0</ele><time>2026-04-16T04:46:38.001Z</time></trkpt><trkpt lat="14.420706410954143" lon="121.0343795082911"><ele>23.0</ele><time>2026-04-16T04:46:39.001Z</time></trkpt><trkpt lat="14.420742607706574" lon="121.03428673537712"><ele>23.0</ele><time>2026-04-16T04:46:40.001Z</time></trkpt><trkpt lat="14.420778360399831" lon="121.03418763606123"><ele>23.0</ele><time>2026-04-16T04:46:41.001Z</time></trkpt><trkpt lat="14.420812342358898" lon="121.03409206098101"><ele>23.0</ele><time>2026-04-16T04:46:42.001Z</time></trkpt><trkpt lat="14.420848598276384" lon="121.03399713159034"><ele>23.0</ele><time>2026-04-16T04:46:43.001Z</time></trkpt><trkpt lat="14.42088134709298" lon="121.03390082454071"><ele>24.75</ele><time>2026-04-16T04:46:44.001Z</time></trkpt><trkpt lat="14.420903626434779" lon="121.03377609569024"><ele>26.5</ele><time>2026-04-16T04:46:45.001Z</time></trkpt><trkpt lat="14.42093927206219" lon="121.03362726381569"><ele>28.25</ele><time>2026-04-16T04:46:46.001Z</time></trkpt><trkpt lat="14.42096169128417" lon="121.03353679448743"><ele>30.0</ele><time>2026-04-16T04:46:47.001Z</time></trkpt><trkpt lat="14.421008648441768" lon="121.03338541242735"><ele>30.75</ele><time>2026-04-16T04:46:48.001Z</time></trkpt><trkpt lat="14.421047309229541" lon="121.03323451595723"><ele>31.5</ele><time>2026-04-16T04:46:49.001Z</time></trkpt><trkpt lat="14.421078611803013" lon="121.03311319535624"><ele>32.25</ele><time>2026-04-16T04:46:50.001Z</time></trkpt><trkpt lat="14.421109210356555" lon="121.03299460327067"><ele>33.0</ele><time>2026-04-16T04:46:51.001Z</time></trkpt><trkpt lat="14.421137016242675" lon="121.03284448209233"><ele>33.0</ele><time>2026-04-16T04:46:52.001Z</time></trkpt><trkpt lat="14.42116918142848" lon="121.03272735345578"><ele>33.0</ele><time>2026-04-16T04:46:53.001Z</time></trkpt><trkpt lat="14.421200005699983" lon="121.0326307162773"><ele>33.0</ele><time>2026-04-16T04:46:54.001Z</time></trkpt><trkpt lat="14.42121932803745" lon="121.03254767644208"><ele>33.0</ele><time>2026-04-16T04:46:55.001Z</time></trkpt><trkpt lat="14.421233669363291" lon="121.03247808182168"><ele>33.0</ele><time>2026-04-16T04:46:56.001Z</time></trkpt><trkpt lat="14.421261774449361" lon="121.03238658146985"><ele>31.833333333333332</ele><time>2026-04-16T04:46:58.001Z</time></trkpt><trkpt lat="14.421304664375228" lon="121.03229836019696"><ele>30.666666666666664</ele><time>2026-04-16T04:47:00.001Z</time></trkpt><trkpt lat="14.421307910118056" lon="121.03222488094902"><ele>29.5</ele><time>2026-04-16T04:47:01.001Z</time></trkpt><trkpt lat="14.421349426965854" lon="121.03213929908199"><ele>28.333333333333332</ele><time>2026-04-16T04:47:03.001Z</time></trkpt><trkpt lat="14.421348496292989" lon="121.03206369029"><ele>27.166666666666664</ele><time>2026-04-16T04:47:04.001Z</time></trkpt><trkpt lat="14.42136909067755" lon="121.03199802696071"><ele>26.0</ele><time>2026-04-16T04:47:05.001Z</time></trkpt><trkpt lat="14.421379273955084" lon="121.03192266299534"><ele>25.999999999999996</ele><time>2026-04-16T04:47:06.001Z</time></trkpt><trkpt lat="14.421402011245382" lon="121.03185164001579"><ele>26.0</ele><time>2026-04-16T04:47:07.001Z</time></trkpt><trkpt lat="14.4214307847726" lon="121.03177726976926"><ele>26.0</ele><time>2026-04-16T04:47:08.001Z</time></trkpt><trkpt lat="14.421441473504526" lon="121.0316846100497"><ele>26.0</ele><time>2026-04-16T04:47:09.001Z</time></trkpt><trkpt lat="14.421475550973001" lon="121.03158963707533"><ele>25.999999999999996</ele><time>2026-04-16T04:47:10.001Z</time></trkpt><trkpt lat="14.421509315998673" lon="121.0314841710885"><ele>26.0</ele><time>2026-04-16T04:47:11.001Z</time></trkpt><trkpt lat="14.42153589690541" lon="121.03138491087928"><ele>25.999999999999996</ele><time>2026-04-16T04:47:12.001Z</time></trkpt><trkpt lat="14.42155752350897" lon="121.03130321399708"><ele>26.0</ele><time>2026-04-16T04:47:13.001Z</time></trkpt><trkpt lat="14.42158208425938" lon="121.03121641212304"><ele>26.0</ele><time>2026-04-16T04:47:14.001Z</time></trkpt><trkpt lat="14.421597783034654" lon="121.03113965629835"><ele>26.0</ele><time>2026-04-16T04:47:15.001Z</time></trkpt><trkpt lat="14.421618749386472" lon="121.0310767653548"><ele>25.999999999999996</ele><time>2026-04-16T04:47:16.001Z</time></trkpt><trkpt lat="14.421637166124274" lon="121.030976604728"><ele>26.0</ele><time>2026-04-16T04:47:18.001Z</time></trkpt><trkpt lat="14.421655926645585" lon="121.03089448806233"><ele>25.0</ele><time>2026-04-16T04:47:20.001Z</time></trkpt><trkpt lat="14.421676644811415" lon="121.03079026805221"><ele>24.0</ele><time>2026-04-16T04:47:22.001Z</time></trkpt><trkpt lat="14.421694902660924" lon="121.03071308291217"><ele>23.0</ele><time>2026-04-16T04:47:23.001Z</time></trkpt><trkpt lat="14.421713413467899" lon="121.030626578208"><ele>22.0</ele><time>2026-04-16T04:47:24.001Z</time></trkpt><trkpt lat="14.42172973729726" lon="121.03053405999442"><ele>21.0</ele><time>2026-04-16T04:47:25.001Z</time></trkpt><trkpt lat="14.421745046361954" lon="121.03042543267291"><ele>21.0</ele><time>2026-04-16T04:47:26.001Z</time></trkpt><trkpt lat="14.421775337804679" lon="121.030314005223"><ele>21.0</ele><time>2026-04-16T04:47:27.001Z</time></trkpt><trkpt lat="14.421814667001016" lon="121.03019214171414"><ele>21.0</ele><time>2026-04-16T04:47:28.001Z</time></trkpt><trkpt lat="14.421850765869069" lon="121.03006453948278"><ele>21.0</ele><time>2026-04-16T04:47:29.001Z</time></trkpt><trkpt lat="14.421887062278484" lon="121.0299375750962"><ele>22.5</ele><time>2026-04-16T04:47:30.001Z</time></trkpt><trkpt lat="14.421922272069457" lon="121.02981661245363"><ele>24.0</ele><time>2026-04-16T04:47:31.001Z</time></trkpt><trkpt lat="14.421956865078474" lon="121.02967934115738"><ele>25.5</ele><time>2026-04-16T04:47:32.001Z</time></trkpt><trkpt lat="14.42199839487752" lon="121.0295415447239"><ele>27.0</ele><time>2026-04-16T04:47:33.001Z</time></trkpt><trkpt lat="14.42201625489682" lon="121.0294358343882"><ele>27.0</ele><time>2026-04-16T04:47:34.001Z</time></trkpt><trkpt lat="14.422053512041611" lon="121.02931365145785"><ele>27.0</ele><time>2026-04-16T04:47:35.001Z</time></trkpt><trkpt lat="14.422074485553237" lon="121.02918444784257"><ele>27.0</ele><time>2026-04-16T04:47:36.001Z</time></trkpt><trkpt lat="14.422115158023901" lon="121.02903354028179"><ele>27.0</ele><time>2026-04-16T04:47:37.001Z</time></trkpt><trkpt lat="14.422165394202603" lon="121.02891215968779"><ele>27.833333333333332</ele><time>2026-04-16T04:47:38.001Z</time></trkpt><trkpt lat="14.422180820806473" lon="121.02881252840619"><ele>28.666666666666664</ele><time>2026-04-16T04:47:39Z</time></trkpt><trkpt lat="14.42220376710687" lon="121.02872294762238"><ele>29.5</ele><time>2026-04-16T04:47:40Z</time></trkpt><trkpt lat="14.422204456760527" lon="121.02865788798675"><ele>30.333333333333332</ele><time>2026-04-16T04:47:41Z</time></trkpt><trkpt lat="14.422220460586141" lon="121.0285448025118"><ele>31.166666666666664</ele><time>2026-04-16T04:47:43Z</time></trkpt><trkpt lat="14.422239032028559" lon="121.02847767420404"><ele>32.0</ele><time>2026-04-16T04:47:46Z</time></trkpt><trkpt lat="14.422255651616103" lon="121.02840605744676"><ele>32.0</ele><time>2026-04-16T04:48:17Z</time></trkpt><trkpt lat="14.422276499231893" lon="121.02833033437263"><ele>32.0</ele><time>2026-04-16T04:48:19Z</time></trkpt><trkpt lat="14.422307595570715" lon="121.02821862442075"><ele>32.0</ele><time>2026-04-16T04:48:21Z</time></trkpt><trkpt lat="14.422347140535795" lon="121.02809911510127"><ele>32.0</ele><time>2026-04-16T04:48:23Z</time></trkpt><trkpt lat="14.422362523723354" lon="121.0280159471793"><ele>32.0</ele><time>2026-04-16T04:48:24Z</time></trkpt><trkpt lat="14.4223806715141" lon="121.02794140408469"><ele>32.5</ele><time>2026-04-16T04:48:25Z</time></trkpt><trkpt lat="14.422399846369816" lon="121.02785039032457"><ele>33.0</ele><time>2026-04-16T04:48:26Z</time></trkpt><trkpt lat="14.422412268729357" lon="121.02772511914581"><ele>33.5</ele><time>2026-04-16T04:48:27Z</time></trkpt><trkpt lat="14.422444942897544" lon="121.02759242562668"><ele>34.0</ele><time>2026-04-16T04:48:28Z</time></trkpt><trkpt lat="14.422489363802178" lon="121.02748030121592"><ele>33.8</ele><time>2026-04-16T04:48:29Z</time></trkpt><trkpt lat="14.42251797373938" lon="121.02736880359248"><ele>33.599999999999994</ele><time>2026-04-16T04:48:30Z</time></trkpt><trkpt lat="14.422548606470812" lon="121.02725185447771"><ele>33.4</ele><time>2026-04-16T04:48:31Z</time></trkpt><trkpt lat="14.422571941787183" lon="121.02715411995156"><ele>33.199999999999996</ele><time>2026-04-16T04:48:32Z</time></trkpt><trkpt lat="14.42259597487432" lon="121.02706975347301"><ele>33.0</ele><time>2026-04-16T04:48:33Z</time></trkpt><trkpt lat="14.422617038182382" lon="121.02699970935335"><ele>33.0</ele><time>2026-04-16T04:48:34Z</time></trkpt><trkpt lat="14.422640168437544" lon="121.02691920407939"><ele>33.0</ele><time>2026-04-16T04:48:35Z</time></trkpt><trkpt lat="14.42266806501642" lon="121.02685386191133"><ele>33.0</ele><time>2026-04-16T04:48:36Z</time></trkpt><trkpt lat="14.422698835480384" lon="121.0267944310939"><ele>33.0</ele><time>2026-04-16T04:48:37Z</time></trkpt><trkpt lat="14.422728103682468" lon="121.02671236341922"><ele>33.0</ele><time>2026-04-16T04:48:38Z</time></trkpt><trkpt lat="14.422757161052607" lon="121.02658857099757"><ele>33.0</ele><time>2026-04-16T04:48:39Z</time></trkpt><trkpt lat="14.422783314044457" lon="121.02647652872072"><ele>33.8</ele><time>2026-04-16T04:48:40Z</time></trkpt><trkpt lat="14.422811894357258" lon="121.02637838765344"><ele>34.599999999999994</ele><time>2026-04-16T04:48:41Z</time></trkpt><trkpt lat="14.422840606410878" lon="121.02627582840552"><ele>35.400000000000006</ele><time>2026-04-16T04:48:42Z</time></trkpt><trkpt lat="14.422872629372312" lon="121.02617507165702"><ele>36.2</ele><time>2026-04-16T04:48:43Z</time></trkpt><trkpt lat="14.422902706671195" lon="121.02608417812972"><ele>37.0</ele><time>2026-04-16T04:48:44Z</time></trkpt><trkpt lat="14.422928585627092" lon="121.0259995427049"><ele>37.0</ele><time>2026-04-16T04:48:45Z</time></trkpt><trkpt lat="14.422952737197122" lon="121.02589623450595"><ele>37.0</ele><time>2026-04-16T04:48:46Z</time></trkpt><trkpt lat="14.422982768557818" lon="121.02579870756284"><ele>37.0</ele><time>2026-04-16T04:48:47Z</time></trkpt><trkpt lat="14.423015199210006" lon="121.02570287411457"><ele>37.0</ele><time>2026-04-16T04:48:48.001Z</time></trkpt><trkpt lat="14.42304838951068" lon="121.02559347087036"><ele>37.0</ele><time>2026-04-16T04:48:49.001Z</time></trkpt><trkpt lat="14.423076951968772" lon="121.02548474627474"><ele>37.6</ele><time>2026-04-16T04:48:50.001Z</time></trkpt><trkpt lat="14.42309962346594" lon="121.02538470237255"><ele>38.2</ele><time>2026-04-16T04:48:51.001Z</time></trkpt><trkpt lat="14.423123989836368" lon="121.02529766260787"><ele>38.8</ele><time>2026-04-16T04:48:52.001Z</time></trkpt><trkpt lat="14.423146397869914" lon="121.02521478112068"><ele>39.4</ele><time>2026-04-16T04:48:53.001Z</time></trkpt><trkpt lat="14.423166604784196" lon="121.02514331535897"><ele>40.0</ele><time>2026-04-16T04:48:54.001Z</time></trkpt><trkpt lat="14.423198389237553" lon="121.02502464086284"><ele>42.0</ele><time>2026-04-16T04:48:56.001Z</time></trkpt><trkpt lat="14.42321475899317" lon="121.0249546051704"><ele>44.0</ele><time>2026-04-16T04:48:57.001Z</time></trkpt><trkpt lat="14.423225431676578" lon="121.0248843486516"><ele>46.0</ele><time>2026-04-16T04:48:58.001Z</time></trkpt><trkpt lat="14.423259369592644" lon="121.02475557962991"><ele>48.0</ele><time>2026-04-16T04:49:00.001Z</time></trkpt><trkpt lat="14.423274790465202" lon="121.02468872902844"><ele>49.99999999999999</ele><time>2026-04-16T04:49:01.001Z</time></trkpt><trkpt lat="14.423304266666074" lon="121.02457804726278"><ele>52.0</ele><time>2026-04-16T04:49:03.001Z</time></trkpt><trkpt lat="14.423319466376629" lon="121.02446357358664"><ele>51.99999999999999</ele><time>2026-04-16T04:49:05.001Z</time></trkpt><trkpt lat="14.423339500874878" lon="121.02436229028226"><ele>52.0</ele><time>2026-04-16T04:49:07.001Z</time></trkpt><trkpt lat="14.423373330100965" lon="121.02426121258958"><ele>52.0</ele><time>2026-04-16T04:49:10.001Z</time></trkpt><trkpt lat="14.423413507516374" lon="121.02419230335387"><ele>52.0</ele><time>2026-04-16T04:49:14.001Z</time></trkpt><trkpt lat="14.42344356891621" lon="121.02412967752811"><ele>51.99999999999999</ele><time>2026-04-16T04:49:17.001Z</time></trkpt><trkpt lat="14.423455324061974" lon="121.02406562100701"><ele>52.0</ele><time>2026-04-16T04:49:21.001Z</time></trkpt><trkpt lat="14.423468101823364" lon="121.02399114534703"><ele>51.0</ele><time>2026-04-16T04:49:43.001Z</time></trkpt><trkpt lat="14.42348368878603" lon="121.02392105892213"><ele>50.0</ele><time>2026-04-16T04:49:44Z</time></trkpt><trkpt lat="14.423502233878931" lon="121.02381395261233"><ele>49.0</ele><time>2026-04-16T04:49:45Z</time></trkpt><trkpt lat="14.423511580321412" lon="121.02370159348426"><ele>48.0</ele><time>2026-04-16T04:49:46Z</time></trkpt><trkpt lat="14.423521231850017" lon="121.02359202310141"><ele>47.0</ele><time>2026-04-16T04:49:47Z</time></trkpt><trkpt lat="14.423539659837898" lon="121.02344855258443"><ele>47.0</ele><time>2026-04-16T04:49:48Z</time></trkpt><trkpt lat="14.423543798231272" lon="121.023325513388"><ele>47.0</ele><time>2026-04-16T04:49:49Z</time></trkpt><trkpt lat="14.423529627909138" lon="121.02321391018737"><ele>47.0</ele><time>2026-04-16T04:49:50Z</time></trkpt><trkpt lat="14.423502268537831" lon="121.02311985529323"><ele>47.0</ele><time>2026-04-16T04:49:51Z</time></trkpt><trkpt lat="14.423481465136849" lon="121.02299676293751"><ele>47.0</ele><time>2026-04-16T04:49:52Z</time></trkpt><trkpt lat="14.42347367356197" lon="121.02287943069149"><ele>46.8</ele><time>2026-04-16T04:49:53Z</time></trkpt><trkpt lat="14.423467801796681" lon="121.02276267051978"><ele>46.6</ele><time>2026-04-16T04:49:54Z</time></trkpt><trkpt lat="14.42345606853355" lon="121.02265545513431"><ele>46.4</ele><time>2026-04-16T04:49:55Z</time></trkpt><trkpt lat="14.423445349260627" lon="121.0225714231031"><ele>46.199999999999996</ele><time>2026-04-16T04:49:57Z</time></trkpt><trkpt lat="14.423441219532748" lon="121.02249300652949"><ele>46.0</ele><time>2026-04-16T04:49:59Z</time></trkpt><trkpt lat="14.42330779238219" lon="121.02242703221872"><ele>46.0</ele><time>2026-04-16T04:50:01Z</time></trkpt><trkpt lat="14.42322702638563" lon="121.02241697018405"><ele>46.0</ele><time>2026-04-16T04:50:02Z</time></trkpt><trkpt lat="14.423128670526301" lon="121.02242598748617"><ele>46.0</ele><time>2026-04-16T04:50:03Z</time></trkpt><trkpt lat="14.423015741165946" lon="121.02244657041393"><ele>46.0</ele><time>2026-04-16T04:50:04Z</time></trkpt><trkpt lat="14.422897404615112" lon="121.02246007262798"><ele>46.0</ele><time>2026-04-16T04:50:05Z</time></trkpt><trkpt lat="14.422770186465863" lon="121.02247231459472"><ele>46.0</ele><time>2026-04-16T04:50:06Z</time></trkpt><trkpt lat="14.422636802486322" lon="121.02245630709461"><ele>46.0</ele><time>2026-04-16T04:50:07Z</time></trkpt><trkpt lat="14.422515120517462" lon="121.02240462042332"><ele>46.0</ele><time>2026-04-16T04:50:08Z</time></trkpt><trkpt lat="14.42239419516621" lon="121.02233148327896"><ele>46.0</ele><time>2026-04-16T04:50:09Z</time></trkpt><trkpt lat="14.422270981779986" lon="121.02224789946182"><ele>45.75</ele><time>2026-04-16T04:50:10Z</time></trkpt><trkpt lat="14.422144464807445" lon="121.02215874231669"><ele>45.5</ele><time>2026-04-16T04:50:11Z</time></trkpt><trkpt lat="14.422021188229285" lon="121.0220716229101"><ele>45.25</ele><time>2026-04-16T04:50:12Z</time></trkpt><trkpt lat="14.421902896522838" lon="121.02199544397979"><ele>45.0</ele><time>2026-04-16T04:50:13Z</time></trkpt><trkpt lat="14.421788392637598" lon="121.02192138747063"><ele>45.0</ele><time>2026-04-16T04:50:14Z</time></trkpt><trkpt lat="14.421677715114132" lon="121.02185092529709"><ele>45.0</ele><time>2026-04-16T04:50:15Z</time></trkpt><trkpt lat="14.421560946992477" lon="121.0217816282054"><ele>45.0</ele><time>2026-04-16T04:50:16Z</time></trkpt><trkpt lat="14.421442664773922" lon="121.02171259818242"><ele>45.0</ele><time>2026-04-16T04:50:17Z</time></trkpt><trkpt lat="14.421317849382685" lon="121.02163667398771"><ele>44.666666666666664</ele><time>2026-04-16T04:50:18Z</time></trkpt><trkpt lat="14.42119248656111" lon="121.02155019090696"><ele>44.33333333333333</ele><time>2026-04-16T04:50:19Z</time></trkpt><trkpt lat="14.421061100968702" lon="121.02146812962911"><ele>44.0</ele><time>2026-04-16T04:50:20Z</time></trkpt><trkpt lat="14.42092460826887" lon="121.02138019047871"><ele>44.0</ele><time>2026-04-16T04:50:21Z</time></trkpt><trkpt lat="14.420782923378136" lon="121.021291990598"><ele>44.0</ele><time>2026-04-16T04:50:22Z</time></trkpt><trkpt lat="14.42063812960912" lon="121.02119791454147"><ele>44.0</ele><time>2026-04-16T04:50:23Z</time></trkpt><trkpt lat="14.420490012793413" lon="121.02111231129618"><ele>44.0</ele><time>2026-04-16T04:50:24Z</time></trkpt><trkpt lat="14.42033644272318" lon="121.02102310618478"><ele>44.0</ele><time>2026-04-16T04:50:25Z</time></trkpt><trkpt lat="14.420186035700674" lon="121.02093419572178"><ele>44.0</ele><time>2026-04-16T04:50:26Z</time></trkpt><trkpt lat="14.420036005107448" lon="121.02084116551278"><ele>44.0</ele><time>2026-04-16T04:50:27Z</time></trkpt><trkpt lat="14.419882539388924" lon="121.02074454907424"><ele>44.0</ele><time>2026-04-16T04:50:28Z</time></trkpt><trkpt lat="14.419729244767327" lon="121.02064518271132"><ele>44.0</ele><time>2026-04-16T04:50:29Z</time></trkpt><trkpt lat="14.419572227156536" lon="121.02054526752998"><ele>44.0</ele><time>2026-04-16T04:50:30Z</time></trkpt><trkpt lat="14.419415363835402" lon="121.02044494166621"><ele>44.0</ele><time>2026-04-16T04:50:31Z</time></trkpt><trkpt lat="14.419255761032263" lon="121.02034366619225"><ele>44.0</ele><time>2026-04-16T04:50:32Z</time></trkpt><trkpt lat="14.419102511381155" lon="121.02024185765144"><ele>44.0</ele><time>2026-04-16T04:50:33Z</time></trkpt><trkpt lat="14.418945926530684" lon="121.02014000738181"><ele>44.0</ele><time>2026-04-16T04:50:34Z</time></trkpt><trkpt lat="14.41878358335403" lon="121.02003947223542"><ele>44.0</ele><time>2026-04-16T04:50:35Z</time></trkpt><trkpt lat="14.418629349886524" lon="121.01993992614369"><ele>44.33333333333333</ele><time>2026-04-16T04:50:36Z</time></trkpt><trkpt lat="14.418471904234464" lon="121.01983352742653"><ele>44.666666666666664</ele><time>2026-04-16T04:50:37Z</time></trkpt><trkpt lat="14.41831552000518" lon="121.01973338981361"><ele>45.0</ele><time>2026-04-16T04:50:38Z</time></trkpt><trkpt lat="14.418164348591505" lon="121.01964148339007"><ele>45.0</ele><time>2026-04-16T04:50:39Z</time></trkpt><trkpt lat="14.418010256628401" lon="121.01954810332538"><ele>45.0</ele><time>2026-04-16T04:50:40Z</time></trkpt><trkpt lat="14.417862553963227" lon="121.0194548108613"><ele>45.0</ele><time>2026-04-16T04:50:41Z</time></trkpt><trkpt lat="14.417708194643133" lon="121.01935124109896"><ele>45.666666666666664</ele><time>2026-04-16T04:50:42Z</time></trkpt><trkpt lat="14.417553091179034" lon="121.01924728264814"><ele>46.33333333333333</ele><time>2026-04-16T04:50:43Z</time></trkpt><trkpt lat="14.417394075837464" lon="121.01914478591843"><ele>47.0</ele><time>2026-04-16T04:50:44Z</time></trkpt><trkpt lat="14.417227782560786" lon="121.01904082296005"><ele>46.666666666666664</ele><time>2026-04-16T04:50:45Z</time></trkpt><trkpt lat="14.417058082718128" lon="121.01893765490331"><ele>46.333333333333336</ele><time>2026-04-16T04:50:46Z</time></trkpt><trkpt lat="14.416893306602677" lon="121.01883634184351"><ele>46.0</ele><time>2026-04-16T04:50:47Z</time></trkpt><trkpt lat="14.416732314222218" lon="121.01873693098553"><ele>46.0</ele><time>2026-04-16T04:50:48Z</time></trkpt><trkpt lat="14.416583835468955" lon="121.01864358356032"><ele>46.0</ele><time>2026-04-16T04:50:49Z</time></trkpt><trkpt lat="14.416446154299626" lon="121.01855183185602"><ele>46.0</ele><time>2026-04-16T04:50:50Z</time></trkpt><trkpt lat="14.416319151025476" lon="121.01846710421724"><ele>45.5</ele><time>2026-04-16T04:50:51Z</time></trkpt><trkpt lat="14.416201801231974" lon="121.01839545913953"><ele>45.0</ele><time>2026-04-16T04:50:52Z</time></trkpt><trkpt lat="14.416088897927947" lon="121.01833186570215"><ele>44.5</ele><time>2026-04-16T04:50:53Z</time></trkpt><trkpt lat="14.415983839862966" lon="121.01827096251174"><ele>44.0</ele><time>2026-04-16T04:50:54Z</time></trkpt><trkpt lat="14.415877725577333" lon="121.01821836139379"><ele>44.0</ele><time>2026-04-16T04:50:55Z</time></trkpt><trkpt lat="14.415766308873758" lon="121.01816098869585"><ele>44.0</ele><time>2026-04-16T04:50:56.001Z</time></trkpt><trkpt lat="14.415657448610963" lon="121.01809371175268"><ele>44.0</ele><time>2026-04-16T04:50:57.001Z</time></trkpt><trkpt lat="14.415545034591702" lon="121.01801852071208"><ele>44.0</ele><time>2026-04-16T04:50:58.001Z</time></trkpt><trkpt lat="14.415421450111477" lon="121.01794229337648"><ele>44.33333333333333</ele><time>2026-04-16T04:50:59.001Z</time></trkpt><trkpt lat="14.41529852011194" lon="121.01786235621309"><ele>44.666666666666664</ele><time>2026-04-16T04:51:00.001Z</time></trkpt><trkpt lat="14.415169540896812" lon="121.01778384929437"><ele>45.0</ele><time>2026-04-16T04:51:01.001Z</time></trkpt><trkpt lat="14.415034522759603" lon="121.01770422383791"><ele>45.0</ele><time>2026-04-16T04:51:02.001Z</time></trkpt><trkpt lat="14.414899216422238" lon="121.0176211804198"><ele>45.0</ele><time>2026-04-16T04:51:03.001Z</time></trkpt><trkpt lat="14.414760209091872" lon="121.01753299381265"><ele>45.0</ele><time>2026-04-16T04:51:04.001Z</time></trkpt><trkpt lat="14.414620206119134" lon="121.0174421410795"><ele>45.0</ele><time>2026-04-16T04:51:05.001Z</time></trkpt><trkpt lat="14.414477482230106" lon="121.01734646388148"><ele>45.0</ele><time>2026-04-16T04:51:06.001Z</time></trkpt><trkpt lat="14.414345062827678" lon="121.01723468609613"><ele>45.0</ele><time>2026-04-16T04:51:07.001Z</time></trkpt><trkpt lat="14.414243859647025" lon="121.0171050570792"><ele>45.0</ele><time>2026-04-16T04:51:08.001Z</time></trkpt><trkpt lat="14.41416735318976" lon="121.01696204580317"><ele>45.0</ele><time>2026-04-16T04:51:09.001Z</time></trkpt><trkpt lat="14.414106435850892" lon="121.01681373124397"><ele>45.0</ele><time>2026-04-16T04:51:10.001Z</time></trkpt><trkpt lat="14.414052944858236" lon="121.01666786351663"><ele>45.0</ele><time>2026-04-16T04:51:11.001Z</time></trkpt><trkpt lat="14.413980117325519" lon="121.01652780186299"><ele>45.0</ele><time>2026-04-16T04:51:12.001Z</time></trkpt><trkpt lat="14.413878724159858" lon="121.01640595519656"><ele>45.0</ele><time>2026-04-16T04:51:13.001Z</time></trkpt><trkpt lat="14.413757571276783" lon="121.0162948588577"><ele>45.0</ele><time>2026-04-16T04:51:14.001Z</time></trkpt><trkpt lat="14.413622454687454" lon="121.01619926554885"><ele>45.0</ele><time>2026-04-16T04:51:15.001Z</time></trkpt><trkpt lat="14.413473346151584" lon="121.01610994422434"><ele>45.0</ele><time>2026-04-16T04:51:16.001Z</time></trkpt><trkpt lat="14.413321218230887" lon="121.01602020269608"><ele>45.0</ele><time>2026-04-16T04:51:17.001Z</time></trkpt><trkpt lat="14.41316729279845" lon="121.01592078069557"><ele>45.0</ele><time>2026-04-16T04:51:18.001Z</time></trkpt><trkpt lat="14.413019701155113" lon="121.0158245891696"><ele>45.0</ele><time>2026-04-16T04:51:19.001Z</time></trkpt><trkpt lat="14.412868748043172" lon="121.0157255149673"><ele>45.666666666666664</ele><time>2026-04-16T04:51:20.001Z</time></trkpt><trkpt lat="14.412714574396446" lon="121.01562708141766"><ele>46.33333333333333</ele><time>2026-04-16T04:51:21.001Z</time></trkpt><trkpt lat="14.412558308562817" lon="121.01552663238243"><ele>47.0</ele><time>2026-04-16T04:51:22.001Z</time></trkpt><trkpt lat="14.412392333553322" lon="121.0154249521739"><ele>47.0</ele><time>2026-04-16T04:51:23.001Z</time></trkpt><trkpt lat="14.41222925778376" lon="121.01532437068096"><ele>47.0</ele><time>2026-04-16T04:51:24.001Z</time></trkpt><trkpt lat="14.412060208526258" lon="121.01521971994848"><ele>47.0</ele><time>2026-04-16T04:51:25.001Z</time></trkpt><trkpt lat="14.411894910314738" lon="121.01511531185214"><ele>48.0</ele><time>2026-04-16T04:51:26.001Z</time></trkpt><trkpt lat="14.411721946966683" lon="121.01500175602742"><ele>49.0</ele><time>2026-04-16T04:51:27.001Z</time></trkpt><trkpt lat="14.411552262649789" lon="121.0148890487063"><ele>50.0</ele><time>2026-04-16T04:51:28.001Z</time></trkpt><trkpt lat="14.411380097987342" lon="121.01477387123626"><ele>49.333333333333336</ele><time>2026-04-16T04:51:29.001Z</time></trkpt><trkpt lat="14.411203734825026" lon="121.01465674263554"><ele>48.66666666666667</ele><time>2026-04-16T04:51:30.001Z</time></trkpt><trkpt lat="14.41103065317311" lon="121.01454129734599"><ele>48.0</ele><time>2026-04-16T04:51:31.001Z</time></trkpt><trkpt lat="14.410849272497192" lon="121.01442348741844"><ele>48.0</ele><time>2026-04-16T04:51:32.001Z</time></trkpt><trkpt lat="14.410672973573318" lon="121.01430843403938"><ele>48.0</ele><time>2026-04-16T04:51:33.001Z</time></trkpt><trkpt lat="14.410486502100499" lon="121.01419265905122"><ele>48.0</ele><time>2026-04-16T04:51:34.001Z</time></trkpt><trkpt lat="14.410298861116999" lon="121.01407680417871"><ele>49.0</ele><time>2026-04-16T04:51:35.001Z</time></trkpt><trkpt lat="14.410113753630453" lon="121.01396014641672"><ele>50.0</ele><time>2026-04-16T04:51:36.001Z</time></trkpt><trkpt lat="14.409934244681194" lon="121.01384471455623"><ele>51.0</ele><time>2026-04-16T04:51:37.001Z</time></trkpt><trkpt lat="14.409759460943553" lon="121.01372763252124"><ele>50.66666666666667</ele><time>2026-04-16T04:51:38.001Z</time></trkpt><trkpt lat="14.409589369285627" lon="121.01361499473926"><ele>50.333333333333336</ele><time>2026-04-16T04:51:39.001Z</time></trkpt><trkpt lat="14.40940428322684" lon="121.01350197083399"><ele>50.0</ele><time>2026-04-16T04:51:40.001Z</time></trkpt><trkpt lat="14.409228793965104" lon="121.01339103889114"><ele>50.0</ele><time>2026-04-16T04:51:41.001Z</time></trkpt><trkpt lat="14.409056784190284" lon="121.01328062806601"><ele>50.0</ele><time>2026-04-16T04:51:42.001Z</time></trkpt><trkpt lat="14.408886217793746" lon="121.01316659519946"><ele>50.0</ele><time>2026-04-16T04:51:43.001Z</time></trkpt><trkpt lat="14.408715292323489" lon="121.01304859797321"><ele>50.0</ele><time>2026-04-16T04:51:44.001Z</time></trkpt><trkpt lat="14.408540433502829" lon="121.01293947867353"><ele>50.0</ele><time>2026-04-16T04:51:45.001Z</time></trkpt><trkpt lat="14.408402919903773" lon="121.01281929322677"><ele>50.0</ele><time>2026-04-16T04:51:46.001Z</time></trkpt><trkpt lat="14.408223086606396" lon="121.01271541258015"><ele>50.0</ele><time>2026-04-16T04:51:47.001Z</time></trkpt><trkpt lat="14.408034441441188" lon="121.01262087652259"><ele>50.0</ele><time>2026-04-16T04:51:48.001Z</time></trkpt><trkpt lat="14.407859177001473" lon="121.01252147438808"><ele>50.0</ele><time>2026-04-16T04:51:49.001Z</time></trkpt><trkpt lat="14.407700446702808" lon="121.01242368688601"><ele>49.66666666666667</ele><time>2026-04-16T04:51:49.999Z</time></trkpt><trkpt lat="14.407561592474826" lon="121.0123272365036"><ele>49.33333333333333</ele><time>2026-04-16T04:51:50.999Z</time></trkpt><trkpt lat="14.407425742059758" lon="121.01223403933929"><ele>49.0</ele><time>2026-04-16T04:51:51.999Z</time></trkpt><trkpt lat="14.40729017406853" lon="121.01214727116285"><ele>49.5</ele><time>2026-04-16T04:51:52.999Z</time></trkpt><trkpt lat="14.407157725637434" lon="121.01206245822782"><ele>50.0</ele><time>2026-04-16T04:51:53.999Z</time></trkpt><trkpt lat="14.407030662962963" lon="121.01198141141101"><ele>50.5</ele><time>2026-04-16T04:51:54.999Z</time></trkpt><trkpt lat="14.406910045007367" lon="121.01191276465441"><ele>51.0</ele><time>2026-04-16T04:51:56Z</time></trkpt><trkpt lat="14.406789665445247" lon="121.01185751806835"><ele>51.0</ele><time>2026-04-16T04:51:57Z</time></trkpt><trkpt lat="14.406662792120354" lon="121.01181222157913"><ele>51.0</ele><time>2026-04-16T04:51:58Z</time></trkpt><trkpt lat="14.406517626876333" lon="121.01177621133428"><ele>51.0</ele><time>2026-04-16T04:51:59Z</time></trkpt><trkpt lat="14.406364488858626" lon="121.01174901855843"><ele>51.0</ele><time>2026-04-16T04:52:00Z</time></trkpt><trkpt lat="14.406207901385171" lon="121.01173167683646"><ele>51.33333333333333</ele><time>2026-04-16T04:52:01Z</time></trkpt><trkpt lat="14.40604195171124" lon="121.01172884350925"><ele>51.666666666666664</ele><time>2026-04-16T04:52:02Z</time></trkpt><trkpt lat="14.405890910374195" lon="121.01174561074836"><ele>52.0</ele><time>2026-04-16T04:52:03Z</time></trkpt><trkpt lat="14.405745385005924" lon="121.01177992929225"><ele>52.0</ele><time>2026-04-16T04:52:04Z</time></trkpt><trkpt lat="14.405615021273785" lon="121.0118234286331"><ele>52.0</ele><time>2026-04-16T04:52:05Z</time></trkpt><trkpt lat="14.405499747777124" lon="121.01188214187245"><ele>52.0</ele><time>2026-04-16T04:52:06Z</time></trkpt><trkpt lat="14.405397435003414" lon="121.01196086981653"><ele>52.0</ele><time>2026-04-16T04:52:07Z</time></trkpt><trkpt lat="14.40530041969134" lon="121.0120597567721"><ele>52.25</ele><time>2026-04-16T04:52:08Z</time></trkpt><trkpt lat="14.405208048190278" lon="121.0121565330481"><ele>52.5</ele><time>2026-04-16T04:52:09Z</time></trkpt><trkpt lat="14.405096186343822" lon="121.01223075815871"><ele>52.75</ele><time>2026-04-16T04:52:10Z</time></trkpt><trkpt lat="14.404967605141069" lon="121.01228073177532"><ele>53.0</ele><time>2026-04-16T04:52:11Z</time></trkpt><trkpt lat="14.404830466902956" lon="121.01229672992602"><ele>53.0</ele><time>2026-04-16T04:52:12Z</time></trkpt><trkpt lat="14.404682190445746" lon="121.01228736836056"><ele>53.0</ele><time>2026-04-16T04:52:13Z</time></trkpt><trkpt lat="14.404529266457878" lon="121.01226143704004"><ele>53.0</ele><time>2026-04-16T04:52:14Z</time></trkpt><trkpt lat="14.40437113666496" lon="121.01223406444049"><ele>52.66666666666667</ele><time>2026-04-16T04:52:15Z</time></trkpt><trkpt lat="14.404209239323622" lon="121.01220900019543"><ele>52.33333333333333</ele><time>2026-04-16T04:52:16Z</time></trkpt><trkpt lat="14.40403397479357" lon="121.0121910599346"><ele>52.0</ele><time>2026-04-16T04:52:17Z</time></trkpt><trkpt lat="14.403864196011481" lon="121.01217215170362"><ele>51.666666666666664</ele><time>2026-04-16T04:52:18Z</time></trkpt><trkpt lat="14.403684327935617" lon="121.01215425808293"><ele>51.33333333333333</ele><time>2026-04-16T04:52:19Z</time></trkpt><trkpt lat="14.40350916518281" lon="121.0121353998576"><ele>51.0</ele><time>2026-04-16T04:52:20Z</time></trkpt><trkpt lat="14.403346729532752" lon="121.01211937958725"><ele>51.0</ele><time>2026-04-16T04:52:21Z</time></trkpt><trkpt lat="14.403187668640319" lon="121.01208342337846"><ele>51.0</ele><time>2026-04-16T04:52:22Z</time></trkpt><trkpt lat="14.403027341963499" lon="121.01208465298329"><ele>51.0</ele><time>2026-04-16T04:52:23Z</time></trkpt><trkpt lat="14.402878696880682" lon="121.01206742787446"><ele>51.199999999999996</ele><time>2026-04-16T04:52:24Z</time></trkpt><trkpt lat="14.402748243816887" lon="121.01205084359427"><ele>51.4</ele><time>2026-04-16T04:52:25Z</time></trkpt><trkpt lat="14.402633961988418" lon="121.01203187213628"><ele>51.6</ele><time>2026-04-16T04:52:26Z</time></trkpt><trkpt lat="14.402543000733779" lon="121.01201488365666"><ele>51.8</ele><time>2026-04-16T04:52:27Z</time></trkpt><trkpt lat="14.402454047086408" lon="121.0119981559678"><ele>52.0</ele><time>2026-04-16T04:52:28Z</time></trkpt><trkpt lat="14.402381703823684" lon="121.01199072106114"><ele>51.99999999999999</ele><time>2026-04-16T04:52:29Z</time></trkpt><trkpt lat="14.402309155297367" lon="121.0119822866363"><ele>52.0</ele><time>2026-04-16T04:52:30Z</time></trkpt><trkpt lat="14.40218059219519" lon="121.0119586128739"><ele>52.0</ele><time>2026-04-16T04:52:32Z</time></trkpt><trkpt lat="14.402105282002683" lon="121.01194550214497"><ele>52.0</ele><time>2026-04-16T04:52:33Z</time></trkpt><trkpt lat="14.402025783697786" lon="121.01193100593335"><ele>51.99999999999999</ele><time>2026-04-16T04:52:34Z</time></trkpt><trkpt lat="14.401937960017376" lon="121.0119224340665"><ele>52.0</ele><time>2026-04-16T04:52:35Z</time></trkpt><trkpt lat="14.401846277236517" lon="121.0119101948176"><ele>52.2</ele><time>2026-04-16T04:52:36Z</time></trkpt><trkpt lat="14.401750612406342" lon="121.01190208429767"><ele>52.400000000000006</ele><time>2026-04-16T04:52:37Z</time></trkpt><trkpt lat="14.401655288432313" lon="121.01189364384372"><ele>52.599999999999994</ele><time>2026-04-16T04:52:38Z</time></trkpt><trkpt lat="14.401559136430219" lon="121.01188826641389"><ele>52.8</ele><time>2026-04-16T04:52:39Z</time></trkpt><trkpt lat="14.40145080105275" lon="121.01188923377909"><ele>53.0</ele><time>2026-04-16T04:52:40Z</time></trkpt><trkpt lat="14.401331619536087" lon="121.01188499321053"><ele>54.0</ele><time>2026-04-16T04:52:41Z</time></trkpt><trkpt lat="14.401199439194627" lon="121.01187104098905"><ele>55.0</ele><time>2026-04-16T04:52:42Z</time></trkpt><trkpt lat="14.401064400431618" lon="121.01184650312719"><ele>56.0</ele><time>2026-04-16T04:52:43Z</time></trkpt><trkpt lat="14.4009209731107" lon="121.01182776031261"><ele>57.0</ele><time>2026-04-16T04:52:44Z</time></trkpt><trkpt lat="14.400784733549074" lon="121.0118114773487"><ele>57.0</ele><time>2026-04-16T04:52:45Z</time></trkpt><trkpt lat="14.400640945532134" lon="121.01179604223925"><ele>57.0</ele><time>2026-04-16T04:52:46Z</time></trkpt><trkpt lat="14.400546080380318" lon="121.01178635557507"><ele>57.0</ele><time>2026-04-16T04:52:47Z</time></trkpt><trkpt lat="14.400466545327008" lon="121.01178538876016"><ele>57.0</ele><time>2026-04-16T04:54:00Z</time></trkpt><trkpt lat="14.400387396838417" lon="121.01177885162834"><ele>57.0</ele><time>2026-04-16T04:54:01Z</time></trkpt><trkpt lat="14.400289761800732" lon="121.01176768403077"><ele>55.75</ele><time>2026-04-16T04:54:02Z</time></trkpt><trkpt lat="14.40017725685424" lon="121.01175661404511"><ele>54.5</ele><time>2026-04-16T04:54:03Z</time></trkpt><trkpt lat="14.400061219203941" lon="121.01174672502655"><ele>53.25</ele><time>2026-04-16T04:54:04Z</time></trkpt><trkpt lat="14.399939990050372" lon="121.01173920607943"><ele>52.0</ele><time>2026-04-16T04:54:05Z</time></trkpt><trkpt lat="14.399797345185823" lon="121.01172972205626"><ele>53.0</ele><time>2026-04-16T04:54:06Z</time></trkpt><trkpt lat="14.399647317302" lon="121.0117131640741"><ele>54.0</ele><time>2026-04-16T04:54:07Z</time></trkpt><trkpt lat="14.399494530158812" lon="121.01169410383481"><ele>55.0</ele><time>2026-04-16T04:54:08Z</time></trkpt><trkpt lat="14.399332642012435" lon="121.01167390822472"><ele>55.33333333333333</ele><time>2026-04-16T04:54:09Z</time></trkpt><trkpt lat="14.399165714813627" lon="121.01165212266501"><ele>55.66666666666667</ele><time>2026-04-16T04:54:10Z</time></trkpt><trkpt lat="14.39899268153149" lon="121.01163046397052"><ele>56.0</ele><time>2026-04-16T04:54:11Z</time></trkpt><trkpt lat="14.398817249535378" lon="121.01159806279945"><ele>56.0</ele><time>2026-04-16T04:54:12Z</time></trkpt><trkpt lat="14.398641477295014" lon="121.01154826684443"><ele>56.0</ele><time>2026-04-16T04:54:13Z</time></trkpt><trkpt lat="14.398469255248948" lon="121.01148969749792"><ele>56.0</ele><time>2026-04-16T04:54:14Z</time></trkpt><trkpt lat="14.39829054967149" lon="121.01142269538406"><ele>56.0</ele><time>2026-04-16T04:54:15Z</time></trkpt><trkpt lat="14.398114524602473" lon="121.01136034670785"><ele>56.0</ele><time>2026-04-16T04:54:16Z</time></trkpt><trkpt lat="14.397943874455017" lon="121.01130467796098"><ele>56.0</ele><time>2026-04-16T04:54:17Z</time></trkpt><trkpt lat="14.397781327189112" lon="121.01125232652902"><ele>55.75</ele><time>2026-04-16T04:54:18Z</time></trkpt><trkpt lat="14.397627944636115" lon="121.01120223367836"><ele>55.5</ele><time>2026-04-16T04:54:19Z</time></trkpt><trkpt lat="14.397485877105101" lon="121.01115682784197"><ele>55.25</ele><time>2026-04-16T04:54:20Z</time></trkpt><trkpt lat="14.397352682958495" lon="121.01111315395195"><ele>55.0</ele><time>2026-04-16T04:54:21Z</time></trkpt><trkpt lat="14.397241007432484" lon="121.01107535108824"><ele>55.4</ele><time>2026-04-16T04:54:22Z</time></trkpt><trkpt lat="14.397159794254602" lon="121.01104916897796"><ele>55.8</ele><time>2026-04-16T04:54:23Z</time></trkpt><trkpt lat="14.397071882065987" lon="121.01103722521523"><ele>56.2</ele><time>2026-04-16T04:54:25Z</time></trkpt><trkpt lat="14.396959901613956" lon="121.01099173165566"><ele>56.6</ele><time>2026-04-16T04:55:09.001Z</time></trkpt><trkpt lat="14.396886253746526" lon="121.01096451435157"><ele>57.0</ele><time>2026-04-16T04:55:10.001Z</time></trkpt><trkpt lat="14.39679262710567" lon="121.01093107337707"><ele>57.0</ele><time>2026-04-16T04:55:11.001Z</time></trkpt><trkpt lat="14.396681479171791" lon="121.01089479482347"><ele>57.0</ele><time>2026-04-16T04:55:12.001Z</time></trkpt><trkpt lat="14.396559883324134" lon="121.01085515912804"><ele>57.0</ele><time>2026-04-16T04:55:13.001Z</time></trkpt><trkpt lat="14.39642509689116" lon="121.01081287490048"><ele>57.0</ele><time>2026-04-16T04:55:14.001Z</time></trkpt><trkpt lat="14.396286007387781" lon="121.01076868502236"><ele>57.33333333333333</ele><time>2026-04-16T04:55:15.001Z</time></trkpt><trkpt lat="14.396138936071257" lon="121.01072124689573"><ele>57.666666666666664</ele><time>2026-04-16T04:55:16.001Z</time></trkpt><trkpt lat="14.395984629835278" lon="121.01067025879581"><ele>58.0</ele><time>2026-04-16T04:55:17.001Z</time></trkpt><trkpt lat="14.395822537668597" lon="121.01061737785855"><ele>58.0</ele><time>2026-04-16T04:55:18.001Z</time></trkpt><trkpt lat="14.395657150572472" lon="121.0105633470815"><ele>58.0</ele><time>2026-04-16T04:55:19.001Z</time></trkpt><trkpt lat="14.395484153627427" lon="121.01050803508964"><ele>58.0</ele><time>2026-04-16T04:55:20.001Z</time></trkpt><trkpt lat="14.395306257360721" lon="121.01045395519557"><ele>58.33333333333333</ele><time>2026-04-16T04:55:21.001Z</time></trkpt><trkpt lat="14.395117961185738" lon="121.01039536487421"><ele>58.66666666666667</ele><time>2026-04-16T04:55:22.001Z</time></trkpt><trkpt lat="14.394937544181488" lon="121.01033776107737"><ele>59.0</ele><time>2026-04-16T04:55:23.001Z</time></trkpt><trkpt lat="14.394747768316856" lon="121.0102786314181"><ele>59.0</ele><time>2026-04-16T04:55:24.001Z</time></trkpt><trkpt lat="14.39455214051817" lon="121.01021694782966"><ele>59.0</ele><time>2026-04-16T04:55:25.001Z</time></trkpt><trkpt lat="14.394354467305956" lon="121.01015400344073"><ele>59.0</ele><time>2026-04-16T04:55:26.001Z</time></trkpt><trkpt lat="14.394157790122625" lon="121.01009139802159"><ele>59.0</ele><time>2026-04-16T04:55:27.001Z</time></trkpt><trkpt lat="14.393955270167874" lon="121.01002195728255"><ele>59.0</ele><time>2026-04-16T04:55:28.001Z</time></trkpt><trkpt lat="14.393752537823072" lon="121.00995647569262"><ele>59.0</ele><time>2026-04-16T04:55:29.001Z</time></trkpt><trkpt lat="14.393543040337732" lon="121.00989195665498"><ele>59.333333333333336</ele><time>2026-04-16T04:55:30.001Z</time></trkpt><trkpt lat="14.393336676069007" lon="121.00982614223085"><ele>59.66666666666667</ele><time>2026-04-16T04:55:31.001Z</time></trkpt><trkpt lat="14.393124813986326" lon="121.0097574628167"><ele>60.0</ele><time>2026-04-16T04:55:32.001Z</time></trkpt><trkpt lat="14.392916211423577" lon="121.00969176843059"><ele>60.0</ele><time>2026-04-16T04:55:33.001Z</time></trkpt><trkpt lat="14.392707381511435" lon="121.00962516067928"><ele>60.0</ele><time>2026-04-16T04:55:34.001Z</time></trkpt><trkpt lat="14.392497200304774" lon="121.00955775554932"><ele>60.0</ele><time>2026-04-16T04:55:35.001Z</time></trkpt><trkpt lat="14.392300984844795" lon="121.0094930408498"><ele>59.33333333333333</ele><time>2026-04-16T04:55:36.001Z</time></trkpt><trkpt lat="14.392119707019466" lon="121.00942667610916"><ele>58.666666666666664</ele><time>2026-04-16T04:55:37.001Z</time></trkpt><trkpt lat="14.39194953181512" lon="121.0093599667886"><ele>58.0</ele><time>2026-04-16T04:55:38.001Z</time></trkpt><trkpt lat="14.391787875375373" lon="121.00929950517084"><ele>58.0</ele><time>2026-04-16T04:55:39.001Z</time></trkpt><trkpt lat="14.391628700932188" lon="121.00925973864973"><ele>58.0</ele><time>2026-04-16T04:55:40.001Z</time></trkpt><trkpt lat="14.391460322228838" lon="121.0092510338101"><ele>58.0</ele><time>2026-04-16T04:55:41.001Z</time></trkpt><trkpt lat="14.391298392261149" lon="121.00927270811025"><ele>57.0</ele><time>2026-04-16T04:55:42.001Z</time></trkpt><trkpt lat="14.391122925250976" lon="121.00931256169979"><ele>56.0</ele><time>2026-04-16T04:55:43.001Z</time></trkpt><trkpt lat="14.390937760999146" lon="121.00935065538559"><ele>55.0</ele><time>2026-04-16T04:55:44.001Z</time></trkpt><trkpt lat="14.390750051682296" lon="121.00938253181984"><ele>55.0</ele><time>2026-04-16T04:55:45.001Z</time></trkpt><trkpt lat="14.390555576619226" lon="121.00941128311976"><ele>55.0</ele><time>2026-04-16T04:55:46.001Z</time></trkpt><trkpt lat="14.390354177689959" lon="121.00944267060477"><ele>55.0</ele><time>2026-04-16T04:55:47.001Z</time></trkpt><trkpt lat="14.390143364642313" lon="121.00947594994807"><ele>54.33333333333333</ele><time>2026-04-16T04:55:48.001Z</time></trkpt><trkpt lat="14.389925183084904" lon="121.00951379628536"><ele>53.66666666666667</ele><time>2026-04-16T04:55:49.001Z</time></trkpt><trkpt lat="14.38971411709631" lon="121.0095499100825"><ele>53.0</ele><time>2026-04-16T04:55:50.001Z</time></trkpt><trkpt lat="14.389489881636345" lon="121.00958703107773"><ele>51.333333333333336</ele><time>2026-04-16T04:55:51.001Z</time></trkpt><trkpt lat="14.389280798952926" lon="121.00962014113567"><ele>49.66666666666667</ele><time>2026-04-16T04:55:52.001Z</time></trkpt><trkpt lat="14.389066307895419" lon="121.00965730034125"><ele>48.0</ele><time>2026-04-16T04:55:53.001Z</time></trkpt><trkpt lat="14.388854435000866" lon="121.00969239797217"><ele>49.66666666666667</ele><time>2026-04-16T04:55:54.001Z</time></trkpt><trkpt lat="14.388651673969125" lon="121.0097218600688"><ele>51.333333333333336</ele><time>2026-04-16T04:55:55.001Z</time></trkpt><trkpt lat="14.388441446115403" lon="121.00975674451348"><ele>53.0</ele><time>2026-04-16T04:55:56.001Z</time></trkpt><trkpt lat="14.388233409386947" lon="121.00978869772158"><ele>53.0</ele><time>2026-04-16T04:55:57.001Z</time></trkpt><trkpt lat="14.388021060595513" lon="121.00982286165943"><ele>53.0</ele><time>2026-04-16T04:55:58.001Z</time></trkpt><trkpt lat="14.387809922072517" lon="121.00985748347927"><ele>53.0</ele><time>2026-04-16T04:55:59.001Z</time></trkpt><trkpt lat="14.387598372485742" lon="121.0098935427592"><ele>53.333333333333336</ele><time>2026-04-16T04:56:00.001Z</time></trkpt><trkpt lat="14.387390401181584" lon="121.00992739203936"><ele>53.66666666666667</ele><time>2026-04-16T04:56:01.001Z</time></trkpt><trkpt lat="14.387175063486612" lon="121.00996238021361"><ele>54.0</ele><time>2026-04-16T04:56:02Z</time></trkpt><trkpt lat="14.386959893737892" lon="121.0099983535842"><ele>55.66666666666667</ele><time>2026-04-16T04:56:03Z</time></trkpt><trkpt lat="14.38675207985074" lon="121.0100293210943"><ele>57.333333333333336</ele><time>2026-04-16T04:56:04Z</time></trkpt><trkpt lat="14.386549066185104" lon="121.01005804769925"><ele>59.0</ele><time>2026-04-16T04:56:05Z</time></trkpt><trkpt lat="14.386363490371481" lon="121.01008760513348"><ele>59.0</ele><time>2026-04-16T04:56:06Z</time></trkpt><trkpt lat="14.38619177881565" lon="121.01011366020658"><ele>59.0</ele><time>2026-04-16T04:56:07Z</time></trkpt><trkpt lat="14.38602832071228" lon="121.01013961418197"><ele>59.0</ele><time>2026-04-16T04:56:08Z</time></trkpt><trkpt lat="14.385874229227703" lon="121.01016518013127"><ele>59.0</ele><time>2026-04-16T04:56:09Z</time></trkpt><trkpt lat="14.385731897574829" lon="121.01018663585856"><ele>59.0</ele><time>2026-04-16T04:56:10Z</time></trkpt><trkpt lat="14.385599415148606" lon="121.01020682984743"><ele>59.0</ele><time>2026-04-16T04:56:11Z</time></trkpt><trkpt lat="14.385481853809766" lon="121.01022592320537"><ele>59.0</ele><time>2026-04-16T04:56:12Z</time></trkpt><trkpt lat="14.38538520441909" lon="121.01024284466618"><ele>58.6</ele><time>2026-04-16T04:56:13Z</time></trkpt><trkpt lat="14.385316215095953" lon="121.01025622064223"><ele>58.2</ele><time>2026-04-16T04:56:14Z</time></trkpt><trkpt lat="14.385233457379028" lon="121.01027381886878"><ele>57.800000000000004</ele><time>2026-04-16T04:56:16Z</time></trkpt><trkpt lat="14.385105175840039" lon="121.01029880004958"><ele>57.400000000000006</ele><time>2026-04-16T04:56:27Z</time></trkpt><trkpt lat="14.385016904891899" lon="121.01031794387127"><ele>57.0</ele><time>2026-04-16T04:56:28Z</time></trkpt><trkpt lat="14.384912502093314" lon="121.01034459526007"><ele>57.0</ele><time>2026-04-16T04:56:29Z</time></trkpt><trkpt lat="14.384794144244495" lon="121.01038662217125"><ele>57.0</ele><time>2026-04-16T04:56:30Z</time></trkpt><trkpt lat="14.38466430084944" lon="121.0104441301623"><ele>57.0</ele><time>2026-04-16T04:56:31Z</time></trkpt><trkpt lat="14.384586660506262" lon="121.01047825801132"><ele>57.0</ele><time>2026-04-16T04:56:32Z</time></trkpt><trkpt lat="14.384465247648237" lon="121.01056791829207"><ele>58.33333333333333</ele><time>2026-04-16T04:56:33Z</time></trkpt><trkpt lat="14.384338187393364" lon="121.01065539612534"><ele>59.666666666666664</ele><time>2026-04-16T04:56:34Z</time></trkpt><trkpt lat="14.384206077523217" lon="121.01074811107715"><ele>61.0</ele><time>2026-04-16T04:56:35Z</time></trkpt><trkpt lat="14.384065750875182" lon="121.0108442340862"><ele>61.0</ele><time>2026-04-16T04:56:36Z</time></trkpt><trkpt lat="14.383921960321723" lon="121.01093767476175"><ele>61.0</ele><time>2026-04-16T04:56:37Z</time></trkpt><trkpt lat="14.383772709271003" lon="121.01103881821093"><ele>61.0</ele><time>2026-04-16T04:56:38Z</time></trkpt><trkpt lat="14.383617623072823" lon="121.0111395741039"><ele>61.0</ele><time>2026-04-16T04:56:39Z</time></trkpt><trkpt lat="14.383459409076655" lon="121.01124547529834"><ele>61.0</ele><time>2026-04-16T04:56:40Z</time></trkpt><trkpt lat="14.383303378697349" lon="121.01135404254924"><ele>61.0</ele><time>2026-04-16T04:56:41Z</time></trkpt><trkpt lat="14.383139927904253" lon="121.01146564463592"><ele>60.666666666666664</ele><time>2026-04-16T04:56:42Z</time></trkpt><trkpt lat="14.382976904790135" lon="121.01158077151145"><ele>60.33333333333333</ele><time>2026-04-16T04:56:43Z</time></trkpt><trkpt lat="14.382809599995369" lon="121.01169599295939"><ele>60.0</ele><time>2026-04-16T04:56:44Z</time></trkpt><trkpt lat="14.38264307885243" lon="121.01181000011825"><ele>61.0</ele><time>2026-04-16T04:56:45Z</time></trkpt><trkpt lat="14.382469514030387" lon="121.01192852333287"><ele>62.0</ele><time>2026-04-16T04:56:46Z</time></trkpt><trkpt lat="14.382299088645599" lon="121.01204318429812"><ele>63.0</ele><time>2026-04-16T04:56:47.001Z</time></trkpt><trkpt lat="14.382127188874167" lon="121.01215904439854"><ele>63.0</ele><time>2026-04-16T04:56:48.001Z</time></trkpt><trkpt lat="14.381953570859778" lon="121.01227928412023"><ele>63.0</ele><time>2026-04-16T04:56:49.001Z</time></trkpt><trkpt lat="14.381779840602958" lon="121.01240146415164"><ele>63.0</ele><time>2026-04-16T04:56:50.001Z</time></trkpt><trkpt lat="14.381601951810424" lon="121.0125216866925"><ele>63.0</ele><time>2026-04-16T04:56:51.001Z</time></trkpt><trkpt lat="14.381427247320097" lon="121.01264112542015"><ele>63.0</ele><time>2026-04-16T04:56:52.001Z</time></trkpt><trkpt lat="14.381250490981506" lon="121.01276598127238"><ele>63.0</ele><time>2026-04-16T04:56:53.001Z</time></trkpt><trkpt lat="14.381078196316913" lon="121.01289117637141"><ele>63.0</ele><time>2026-04-16T04:56:54.001Z</time></trkpt><trkpt lat="14.380908364199746" lon="121.01299967658328"><ele>63.0</ele><time>2026-04-16T04:56:55.001Z</time></trkpt><trkpt lat="14.38075653454196" lon="121.01310013072268"><ele>63.0</ele><time>2026-04-16T04:56:56.001Z</time></trkpt><trkpt lat="14.380601886322667" lon="121.01320452611515"><ele>63.66666666666667</ele><time>2026-04-16T04:56:57.001Z</time></trkpt><trkpt lat="14.380442800333723" lon="121.01329242480605"><ele>64.33333333333334</ele><time>2026-04-16T04:56:58.001Z</time></trkpt><trkpt lat="14.380281221244902" lon="121.01336376893502"><ele>65.0</ele><time>2026-04-16T04:56:59.001Z</time></trkpt><trkpt lat="14.380105847537148" lon="121.01341509241902"><ele>65.0</ele><time>2026-04-16T04:57:00.001Z</time></trkpt><trkpt lat="14.379928685028599" lon="121.01344140146497"><ele>65.0</ele><time>2026-04-16T04:57:01.001Z</time></trkpt><trkpt lat="14.37974247446752" lon="121.0134395626096"><ele>65.0</ele><time>2026-04-16T04:57:02.001Z</time></trkpt><trkpt lat="14.37955477364155" lon="121.0134224779746"><ele>63.66666666666667</ele><time>2026-04-16T04:57:03.001Z</time></trkpt><trkpt lat="14.379367915417458" lon="121.01339557945289"><ele>62.33333333333333</ele><time>2026-04-16T04:57:04.001Z</time></trkpt><trkpt lat="14.379178811889643" lon="121.01336117307238"><ele>61.0</ele><time>2026-04-16T04:57:05.001Z</time></trkpt><trkpt lat="14.378982124168939" lon="121.01332079668701"><ele>60.0</ele><time>2026-04-16T04:57:06.001Z</time></trkpt><trkpt lat="14.378782061732307" lon="121.01328526943254"><ele>59.0</ele><time>2026-04-16T04:57:07.001Z</time></trkpt><trkpt lat="14.378580618654622" lon="121.0132513336327"><ele>58.0</ele><time>2026-04-16T04:57:08.001Z</time></trkpt><trkpt lat="14.378378636229764" lon="121.0132173958107"><ele>58.0</ele><time>2026-04-16T04:57:09.001Z</time></trkpt><trkpt lat="14.378176898333228" lon="121.0131797137006"><ele>58.0</ele><time>2026-04-16T04:57:10.001Z</time></trkpt><trkpt lat="14.37797706461584" lon="121.01314256953657"><ele>58.0</ele><time>2026-04-16T04:57:11.001Z</time></trkpt><trkpt lat="14.37778513112589" lon="121.01310760635262"><ele>59.666666666666664</ele><time>2026-04-16T04:57:12.001Z</time></trkpt><trkpt lat="14.377609575563946" lon="121.01307676278626"><ele>61.33333333333333</ele><time>2026-04-16T04:57:13.001Z</time></trkpt><trkpt lat="14.377447532662709" lon="121.01304582152262"><ele>63.0</ele><time>2026-04-16T04:57:14.001Z</time></trkpt><trkpt lat="14.377292189840116" lon="121.01301948545807"><ele>63.0</ele><time>2026-04-16T04:57:15.001Z</time></trkpt><trkpt lat="14.37714689995917" lon="121.01299641444626"><ele>63.0</ele><time>2026-04-16T04:57:16.001Z</time></trkpt><trkpt lat="14.377012218390428" lon="121.01297415458446"><ele>63.0</ele><time>2026-04-16T04:57:17.001Z</time></trkpt><trkpt lat="14.376890881155623" lon="121.01295162338003"><ele>63.0</ele><time>2026-04-16T04:57:18.001Z</time></trkpt><trkpt lat="14.376790168883842" lon="121.01293339359007"><ele>63.0</ele><time>2026-04-16T04:57:19.001Z</time></trkpt><trkpt lat="14.376704915690793" lon="121.01291930763105"><ele>63.0</ele><time>2026-04-16T04:57:20.001Z</time></trkpt><trkpt lat="14.376603089094889" lon="121.01290172358306"><ele>63.0</ele><time>2026-04-16T04:57:22.001Z</time></trkpt><trkpt lat="14.37649017895196" lon="121.0128806481592"><ele>63.0</ele><time>2026-04-16T04:57:27.001Z</time></trkpt><trkpt lat="14.376408995389777" lon="121.01286473010445"><ele>63.0</ele><time>2026-04-16T04:57:28.001Z</time></trkpt><trkpt lat="14.376315373634624" lon="121.01284691903162"><ele>63.75</ele><time>2026-04-16T04:57:29.001Z</time></trkpt><trkpt lat="14.376210858652923" lon="121.01282874291833"><ele>64.5</ele><time>2026-04-16T04:57:30.001Z</time></trkpt><trkpt lat="14.376105965747547" lon="121.01281019535863"><ele>65.25</ele><time>2026-04-16T04:57:31.001Z</time></trkpt><trkpt lat="14.375990907808601" lon="121.01278929886045"><ele>66.0</ele><time>2026-04-16T04:57:32.001Z</time></trkpt><trkpt lat="14.375872666141364" lon="121.01276566220535"><ele>66.0</ele><time>2026-04-16T04:57:33.001Z</time></trkpt><trkpt lat="14.375776644720684" lon="121.01273885643948"><ele>66.0</ele><time>2026-04-16T04:57:34.001Z</time></trkpt><trkpt lat="14.375686915018639" lon="121.01270606744212"><ele>66.0</ele><time>2026-04-16T04:57:35.001Z</time></trkpt><trkpt lat="14.375600959658344" lon="121.01266104022709"><ele>66.0</ele><time>2026-04-16T04:57:36.001Z</time></trkpt><trkpt lat="14.375518116267122" lon="121.0126128198468"><ele>66.0</ele><time>2026-04-16T04:57:37.001Z</time></trkpt><trkpt lat="14.375421104587469" lon="121.01256150979317"><ele>66.25</ele><time>2026-04-16T04:57:38.001Z</time></trkpt><trkpt lat="14.375326395397131" lon="121.01249596080302"><ele>66.5</ele><time>2026-04-16T04:57:39.001Z</time></trkpt><trkpt lat="14.375228774387152" lon="121.01241416544379"><ele>66.75</ele><time>2026-04-16T04:57:40.001Z</time></trkpt><trkpt lat="14.375140475680796" lon="121.01232022897268"><ele>67.0</ele><time>2026-04-16T04:57:41.001Z</time></trkpt><trkpt lat="14.375056636842446" lon="121.01221917597742"><ele>66.25</ele><time>2026-04-16T04:57:42.001Z</time></trkpt><trkpt lat="14.374980137058651" lon="121.01210864806251"><ele>65.5</ele><time>2026-04-16T04:57:43.001Z</time></trkpt><trkpt lat="14.374917285181166" lon="121.0119915966301"><ele>64.75</ele><time>2026-04-16T04:57:44.001Z</time></trkpt><trkpt lat="14.37486635575065" lon="121.01186595082243"><ele>64.0</ele><time>2026-04-16T04:57:45.001Z</time></trkpt><trkpt lat="14.374817539908513" lon="121.01172850963067"><ele>62.25</ele><time>2026-04-16T04:57:46.001Z</time></trkpt><trkpt lat="14.374785961099105" lon="121.01159153499974"><ele>60.5</ele><time>2026-04-16T04:57:47.001Z</time></trkpt><trkpt lat="14.374767983402805" lon="121.01145204979582"><ele>58.75</ele><time>2026-04-16T04:57:48.001Z</time></trkpt><trkpt lat="14.37475452264495" lon="121.01129315522483"><ele>57.0</ele><time>2026-04-16T04:57:49.001Z</time></trkpt><trkpt lat="14.374749373540746" lon="121.0111421981097"><ele>57.0</ele><time>2026-04-16T04:57:50.001Z</time></trkpt><trkpt lat="14.374750089157459" lon="121.01098396290779"><ele>57.0</ele><time>2026-04-16T04:57:51.001Z</time></trkpt><trkpt lat="14.374741342426471" lon="121.01082251120175"><ele>57.0</ele><time>2026-04-16T04:57:52.001Z</time></trkpt><trkpt lat="14.374738147642484" lon="121.01067876093411"><ele>57.0</ele><time>2026-04-16T04:57:53.001Z</time></trkpt><trkpt lat="14.374732815373301" lon="121.01053495537992"><ele>57.75</ele><time>2026-04-16T04:57:54.001Z</time></trkpt><trkpt lat="14.37473288728188" lon="121.01039489835946"><ele>58.5</ele><time>2026-04-16T04:57:55.001Z</time></trkpt><trkpt lat="14.374729748901245" lon="121.01024971269882"><ele>59.25</ele><time>2026-04-16T04:57:56.001Z</time></trkpt><trkpt lat="14.374723187407717" lon="121.01008844424118"><ele>60.0</ele><time>2026-04-16T04:57:57.001Z</time></trkpt><trkpt lat="14.374718800129706" lon="121.0099237801705"><ele>62.0</ele><time>2026-04-16T04:57:58.001Z</time></trkpt><trkpt lat="14.374716468606277" lon="121.00975511104434"><ele>64.0</ele><time>2026-04-16T04:57:59.001Z</time></trkpt><trkpt lat="14.374725498706356" lon="121.00959511806342"><ele>66.0</ele><time>2026-04-16T04:58:00.002Z</time></trkpt><trkpt lat="14.374725782993226" lon="121.00942657203069"><ele>66.0</ele><time>2026-04-16T04:58:01.002Z</time></trkpt><trkpt lat="14.374726378873866" lon="121.00925917038654"><ele>66.0</ele><time>2026-04-16T04:58:02.002Z</time></trkpt><trkpt lat="14.374720590125268" lon="121.00908707248887"><ele>66.0</ele><time>2026-04-16T04:58:03.002Z</time></trkpt><trkpt lat="14.374729470871184" lon="121.00893042915035"><ele>66.0</ele><time>2026-04-16T04:58:04.002Z</time></trkpt><trkpt lat="14.374734853317886" lon="121.00877860413357"><ele>66.0</ele><time>2026-04-16T04:58:05.002Z</time></trkpt><trkpt lat="14.374734600943363" lon="121.00864098016262"><ele>66.0</ele><time>2026-04-16T04:58:06.002Z</time></trkpt><trkpt lat="14.374739504854716" lon="121.0085232321969"><ele>66.0</ele><time>2026-04-16T04:58:07.002Z</time></trkpt><trkpt lat="14.374744313438214" lon="121.00841975855849"><ele>66.16666666666667</ele><time>2026-04-16T04:58:08Z</time></trkpt><trkpt lat="14.374751873187925" lon="121.00832487089374"><ele>66.33333333333333</ele><time>2026-04-16T04:58:09Z</time></trkpt><trkpt lat="14.374764366516672" lon="121.00824180699702"><ele>66.5</ele><time>2026-04-16T04:58:10Z</time></trkpt><trkpt lat="14.374771005169455" lon="121.00816565004276"><ele>66.66666666666666</ele><time>2026-04-16T04:58:11Z</time></trkpt><trkpt lat="14.374774750734568" lon="121.00809910637848"><ele>66.83333333333333</ele><time>2026-04-16T04:58:12Z</time></trkpt><trkpt lat="14.37477890080247" lon="121.00800025452911"><ele>67.0</ele><time>2026-04-16T04:58:14Z</time></trkpt><trkpt lat="14.374779126114397" lon="121.00793126737729"><ele>67.0</ele><time>2026-04-16T04:58:16Z</time></trkpt><trkpt lat="14.374790353769887" lon="121.00784998876168"><ele>67.0</ele><time>2026-04-16T04:58:28Z</time></trkpt><trkpt lat="14.374771750725818" lon="121.0077228946475"><ele>67.0</ele><time>2026-04-16T04:58:30Z</time></trkpt><trkpt lat="14.374766660668548" lon="121.00765096837229"><ele>67.0</ele><time>2026-04-16T04:58:31Z</time></trkpt><trkpt lat="14.374763040937856" lon="121.00757185827277"><ele>67.0</ele><time>2026-04-16T04:58:32Z</time></trkpt><trkpt lat="14.374760908574862" lon="121.00746931961936"><ele>66.0</ele><time>2026-04-16T04:58:33Z</time></trkpt><trkpt lat="14.374764793396501" lon="121.00736584644895"><ele>65.0</ele><time>2026-04-16T04:58:34Z</time></trkpt><trkpt lat="14.37477228089349" lon="121.00723505934856"><ele>64.0</ele><time>2026-04-16T04:58:35Z</time></trkpt><trkpt lat="14.374775922279955" lon="121.00710131017878"><ele>63.0</ele><time>2026-04-16T04:58:36Z</time></trkpt><trkpt lat="14.374776066701093" lon="121.00695785426738"><ele>63.0</ele><time>2026-04-16T04:58:37Z</time></trkpt><trkpt lat="14.374772921392953" lon="121.00680765228914"><ele>63.0</ele><time>2026-04-16T04:58:38Z</time></trkpt><trkpt lat="14.374771202938234" lon="121.00665164141797"><ele>63.0</ele><time>2026-04-16T04:58:39Z</time></trkpt><trkpt lat="14.374771139178657" lon="121.00649469093219"><ele>63.0</ele><time>2026-04-16T04:58:40Z</time></trkpt><trkpt lat="14.374769573594667" lon="121.00633561127799"><ele>62.0</ele><time>2026-04-16T04:58:41Z</time></trkpt><trkpt lat="14.374769834794776" lon="121.00617869884798"><ele>61.0</ele><time>2026-04-16T04:58:42Z</time></trkpt><trkpt lat="14.374773973491552" lon="121.00601640275535"><ele>60.0</ele><time>2026-04-16T04:58:43Z</time></trkpt><trkpt lat="14.374779469746748" lon="121.00584946481057"><ele>60.0</ele><time>2026-04-16T04:58:44Z</time></trkpt><trkpt lat="14.374782560486178" lon="121.00567761965563"><ele>60.0</ele><time>2026-04-16T04:58:45Z</time></trkpt><trkpt lat="14.374783088156889" lon="121.0055010486074"><ele>60.0</ele><time>2026-04-16T04:58:46Z</time></trkpt><trkpt lat="14.374786240671368" lon="121.00532583571248"><ele>60.0</ele><time>2026-04-16T04:58:47.001Z</time></trkpt><trkpt lat="14.374791022079057" lon="121.00515174634378"><ele>60.0</ele><time>2026-04-16T04:58:48.001Z</time></trkpt><trkpt lat="14.374796030904506" lon="121.00498233201641"><ele>60.0</ele><time>2026-04-16T04:58:49.001Z</time></trkpt><trkpt lat="14.37479396454884" lon="121.00481110519185"><ele>61.66666666666667</ele><time>2026-04-16T04:58:50.001Z</time></trkpt><trkpt lat="14.37478610286735" lon="121.00464782598134"><ele>63.333333333333336</ele><time>2026-04-16T04:58:51.001Z</time></trkpt><trkpt lat="14.37478101881381" lon="121.00448178424023"><ele>65.0</ele><time>2026-04-16T04:58:52.001Z</time></trkpt><trkpt lat="14.374772681449834" lon="121.00430562545048"><ele>65.33333333333334</ele><time>2026-04-16T04:58:53.001Z</time></trkpt><trkpt lat="14.374755283522914" lon="121.00412752606674"><ele>65.66666666666667</ele><time>2026-04-16T04:58:54.001Z</time></trkpt><trkpt lat="14.37473080585272" lon="121.00395048187099"><ele>66.0</ele><time>2026-04-16T04:58:55.001Z</time></trkpt><trkpt lat="14.374702503435861" lon="121.00376675719902"><ele>65.66666666666667</ele><time>2026-04-16T04:58:56.001Z</time></trkpt><trkpt lat="14.374673320074551" lon="121.00358248823633"><ele>65.33333333333334</ele><time>2026-04-16T04:58:57.001Z</time></trkpt><trkpt lat="14.374646567264646" lon="121.00339788884364"><ele>65.0</ele><time>2026-04-16T04:58:58.001Z</time></trkpt><trkpt lat="14.3746227699146" lon="121.00321352488324"><ele>66.0</ele><time>2026-04-16T04:58:59.001Z</time></trkpt><trkpt lat="14.374599789062273" lon="121.00302943278471"><ele>67.0</ele><time>2026-04-16T04:59:00.001Z</time></trkpt><trkpt lat="14.37457620914144" lon="121.0028471870568"><ele>68.0</ele><time>2026-04-16T04:59:01.001Z</time></trkpt><trkpt lat="14.374565545551171" lon="121.00267874560232"><ele>68.0</ele><time>2026-04-16T04:59:02.001Z</time></trkpt><trkpt lat="14.374581507271126" lon="121.0025114264115"><ele>68.0</ele><time>2026-04-16T04:59:03.001Z</time></trkpt><trkpt lat="14.37461979692967" lon="121.00234166156845"><ele>68.0</ele><time>2026-04-16T04:59:04.001Z</time></trkpt><trkpt lat="14.37466640904448" lon="121.00217079130647"><ele>67.66666666666667</ele><time>2026-04-16T04:59:05.001Z</time></trkpt><trkpt lat="14.374709428128918" lon="121.00199568559826"><ele>67.33333333333333</ele><time>2026-04-16T04:59:06.001Z</time></trkpt><trkpt lat="14.374750256094933" lon="121.0018182446209"><ele>67.0</ele><time>2026-04-16T04:59:07.001Z</time></trkpt><trkpt lat="14.374786664706205" lon="121.00164555006393"><ele>66.66666666666666</ele><time>2026-04-16T04:59:08.001Z</time></trkpt><trkpt lat="14.374825131933576" lon="121.00146659745279"><ele>66.33333333333333</ele><time>2026-04-16T04:59:09.001Z</time></trkpt><trkpt lat="14.374862815165823" lon="121.00128718714076"><ele>66.0</ele><time>2026-04-16T04:59:10.001Z</time></trkpt><trkpt lat="14.374899424183171" lon="121.00110562333343"><ele>66.0</ele><time>2026-04-16T04:59:11.001Z</time></trkpt><trkpt lat="14.374940717494946" lon="121.00091589428122"><ele>66.0</ele><time>2026-04-16T04:59:12.001Z</time></trkpt><trkpt lat="14.374981513251269" lon="121.00072486199993"><ele>66.0</ele><time>2026-04-16T04:59:13.001Z</time></trkpt><trkpt lat="14.375027231851668" lon="121.00052870981378"><ele>65.33333333333333</ele><time>2026-04-16T04:59:14.001Z</time></trkpt><trkpt lat="14.375081791116715" lon="121.00033453890423"><ele>64.66666666666666</ele><time>2026-04-16T04:59:15.001Z</time></trkpt><trkpt lat="14.375153185318952" lon="121.00014479822843"><ele>64.0</ele><time>2026-04-16T04:59:16.001Z</time></trkpt><trkpt lat="14.375248916908436" lon="120.99996585419518"><ele>64.0</ele><time>2026-04-16T04:59:17.001Z</time></trkpt><trkpt lat="14.375362821853495" lon="120.9997979779112"><ele>64.0</ele><time>2026-04-16T04:59:18.001Z</time></trkpt><trkpt lat="14.375485311433025" lon="120.99963448588582"><ele>64.0</ele><time>2026-04-16T04:59:19.001Z</time></trkpt><trkpt lat="14.375603713842384" lon="120.999480463518"><ele>63.666666666666664</ele><time>2026-04-16T04:59:20.001Z</time></trkpt><trkpt lat="14.375730367025659" lon="120.99932007897787"><ele>63.33333333333333</ele><time>2026-04-16T04:59:21.001Z</time></trkpt><trkpt lat="14.375863670437136" lon="120.99917613954779"><ele>63.0</ele><time>2026-04-16T04:59:22.001Z</time></trkpt><trkpt lat="14.3760124209865" lon="120.99903954314136"><ele>63.66666666666667</ele><time>2026-04-16T04:59:23.001Z</time></trkpt><trkpt lat="14.376177548757425" lon="120.99891205826914"><ele>64.33333333333334</ele><time>2026-04-16T04:59:24.001Z</time></trkpt><trkpt lat="14.376349470290856" lon="120.99879484485827"><ele>65.0</ele><time>2026-04-16T04:59:25.001Z</time></trkpt><trkpt lat="14.376520157532868" lon="120.99867688655233"><ele>66.33333333333334</ele><time>2026-04-16T04:59:26.001Z</time></trkpt><trkpt lat="14.376681884374541" lon="120.99855942540077"><ele>67.66666666666667</ele><time>2026-04-16T04:59:27.001Z</time></trkpt><trkpt lat="14.376832918797145" lon="120.9984483401835"><ele>69.0</ele><time>2026-04-16T04:59:28.001Z</time></trkpt><trkpt lat="14.376980202022597" lon="120.99834414623216"><ele>68.33333333333333</ele><time>2026-04-16T04:59:29.001Z</time></trkpt><trkpt lat="14.377118548385427" lon="120.99824641018934"><ele>67.66666666666666</ele><time>2026-04-16T04:59:30.001Z</time></trkpt><trkpt lat="14.377256779158786" lon="120.99814942414143"><ele>67.0</ele><time>2026-04-16T04:59:31.001Z</time></trkpt><trkpt lat="14.377394503696738" lon="120.99805094513835"><ele>66.33333333333333</ele><time>2026-04-16T04:59:32.001Z</time></trkpt><trkpt lat="14.377523971386418" lon="120.99795345863676"><ele>65.66666666666667</ele><time>2026-04-16T04:59:33.001Z</time></trkpt><trkpt lat="14.377647208833967" lon="120.9978665876081"><ele>65.0</ele><time>2026-04-16T04:59:34.001Z</time></trkpt><trkpt lat="14.377765922634765" lon="120.99778701502339"><ele>65.0</ele><time>2026-04-16T04:59:35.001Z</time></trkpt><trkpt lat="14.377877057258905" lon="120.99770583369676"><ele>65.0</ele><time>2026-04-16T04:59:36.001Z</time></trkpt><trkpt lat="14.37797677862195" lon="120.99763267540222"><ele>65.0</ele><time>2026-04-16T04:59:37.001Z</time></trkpt><trkpt lat="14.378072566232703" lon="120.99756248256435"><ele>65.0</ele><time>2026-04-16T04:59:38.001Z</time></trkpt><trkpt lat="14.378151736174928" lon="120.99750557703466"><ele>64.66666666666667</ele><time>2026-04-16T04:59:39.001Z</time></trkpt><trkpt lat="14.378226821354234" lon="120.99745131134709"><ele>64.33333333333334</ele><time>2026-04-16T04:59:40.001Z</time></trkpt><trkpt lat="14.378295829456029" lon="120.99740572255149"><ele>64.0</ele><time>2026-04-16T04:59:41.001Z</time></trkpt><trkpt lat="14.378362011344855" lon="120.99737123443816"><ele>63.66666666666667</ele><time>2026-04-16T04:59:42.001Z</time></trkpt><trkpt lat="14.378424066161896" lon="120.99734367733853"><ele>63.333333333333336</ele><time>2026-04-16T04:59:43.001Z</time></trkpt><trkpt lat="14.378502525503322" lon="120.99729221942953"><ele>63.0</ele><time>2026-04-16T04:59:45.001Z</time></trkpt><trkpt lat="14.378553860327326" lon="120.9972401364425"><ele>63.0</ele><time>2026-04-16T04:59:48.001Z</time></trkpt><trkpt lat="14.378614004145346" lon="120.99717593906112"><ele>63.0</ele><time>2026-04-16T04:59:51.001Z</time></trkpt><trkpt lat="14.378728374878541" lon="120.99708930804381"><ele>63.0</ele><time>2026-04-16T04:59:53.001Z</time></trkpt><trkpt lat="14.378804972675626" lon="120.99702452623859"><ele>63.0</ele><time>2026-04-16T04:59:54.001Z</time></trkpt><trkpt lat="14.37889572941219" lon="120.99695919990411"><ele>63.0</ele><time>2026-04-16T04:59:55.001Z</time></trkpt><trkpt lat="14.378993584400979" lon="120.99689567827832"><ele>63.0</ele><time>2026-04-16T04:59:56.001Z</time></trkpt><trkpt lat="14.37909715205475" lon="120.99681276574341"><ele>63.0</ele><time>2026-04-16T04:59:57.002Z</time></trkpt><trkpt lat="14.379206380195424" lon="120.99673702505085"><ele>63.0</ele><time>2026-04-16T04:59:58.002Z</time></trkpt><trkpt lat="14.379322056245593" lon="120.99665387023343"><ele>63.0</ele><time>2026-04-16T04:59:59.002Z</time></trkpt><trkpt lat="14.379443676668744" lon="120.99656823650632"><ele>63.0</ele><time>2026-04-16T05:00:00.002Z</time></trkpt><trkpt lat="14.379570199045611" lon="120.9964687125327"><ele>63.0</ele><time>2026-04-16T05:00:01.002Z</time></trkpt><trkpt lat="14.379683155028586" lon="120.99636942859406"><ele>63.0</ele><time>2026-04-16T05:00:02.002Z</time></trkpt><trkpt lat="14.37979161690805" lon="120.99625438179939"><ele>62.33333333333333</ele><time>2026-04-16T05:00:03.002Z</time></trkpt><trkpt lat="14.379890745048096" lon="120.99612983911878"><ele>61.666666666666664</ele><time>2026-04-16T05:00:04.002Z</time></trkpt><trkpt lat="14.379986598533323" lon="120.99599719601281"><ele>61.0</ele><time>2026-04-16T05:00:05.002Z</time></trkpt><trkpt lat="14.380080775536586" lon="120.99585401505662"><ele>61.0</ele><time>2026-04-16T05:00:06.002Z</time></trkpt><trkpt lat="14.380173537969178" lon="120.99570690652948"><ele>61.0</ele><time>2026-04-16T05:00:07.002Z</time></trkpt><trkpt lat="14.380267463988279" lon="120.99555408317808"><ele>61.0</ele><time>2026-04-16T05:00:08.002Z</time></trkpt><trkpt lat="14.380360297567965" lon="120.9954074982472"><ele>61.0</ele><time>2026-04-16T05:00:09.002Z</time></trkpt><trkpt lat="14.380444673105655" lon="120.99527477357819"><ele>61.0</ele><time>2026-04-16T05:00:10.002Z</time></trkpt><trkpt lat="14.380527646130385" lon="120.99513849455548"><ele>61.0</ele><time>2026-04-16T05:00:11.002Z</time></trkpt><trkpt lat="14.38060463430137" lon="120.99501215527422"><ele>61.25</ele><time>2026-04-16T05:00:12.002Z</time></trkpt><trkpt lat="14.380669525458101" lon="120.99489053542985"><ele>61.5</ele><time>2026-04-16T05:00:13.002Z</time></trkpt><trkpt lat="14.380718229885952" lon="120.99478051487264"><ele>61.75</ele><time>2026-04-16T05:00:14Z</time></trkpt><trkpt lat="14.380748741758923" lon="120.99467730594905"><ele>62.0</ele><time>2026-04-16T05:00:15Z</time></trkpt><trkpt lat="14.380763079780351" lon="120.99456861947358"><ele>62.0</ele><time>2026-04-16T05:00:16Z</time></trkpt><trkpt lat="14.380766964519196" lon="120.99443971466901"><ele>62.0</ele><time>2026-04-16T05:00:17Z</time></trkpt><trkpt lat="14.380764040532313" lon="120.99429628952886"><ele>62.0</ele><time>2026-04-16T05:00:18Z</time></trkpt><trkpt lat="14.380757100662885" lon="120.99414127980056"><ele>62.0</ele><time>2026-04-16T05:00:19Z</time></trkpt><trkpt lat="14.380743687220225" lon="120.99398178315589"><ele>61.333333333333336</ele><time>2026-04-16T05:00:20Z</time></trkpt><trkpt lat="14.380733138738359" lon="120.9938106313722"><ele>60.66666666666667</ele><time>2026-04-16T05:00:21Z</time></trkpt><trkpt lat="14.380720586311728" lon="120.99363526967971"><ele>60.0</ele><time>2026-04-16T05:00:22Z</time></trkpt><trkpt lat="14.380706113135979" lon="120.99345412634402"><ele>59.33333333333333</ele><time>2026-04-16T05:00:23Z</time></trkpt><trkpt lat="14.380692078167064" lon="120.99327394260709"><ele>58.666666666666664</ele><time>2026-04-16T05:00:24Z</time></trkpt><trkpt lat="14.380679533875488" lon="120.99308538822177"><ele>58.0</ele><time>2026-04-16T05:00:25Z</time></trkpt><trkpt lat="14.380665639455255" lon="120.99289551766408"><ele>58.0</ele><time>2026-04-16T05:00:26Z</time></trkpt><trkpt lat="14.380648211696869" lon="120.99270392610985"><ele>58.0</ele><time>2026-04-16T05:00:27Z</time></trkpt><trkpt lat="14.3806321929787" lon="120.99250816720824"><ele>58.0</ele><time>2026-04-16T05:00:28Z</time></trkpt><trkpt lat="14.380617052981167" lon="120.99231603405296"><ele>57.33333333333333</ele><time>2026-04-16T05:00:29Z</time></trkpt><trkpt lat="14.380600002787382" lon="120.99213415387442"><ele>56.66666666666667</ele><time>2026-04-16T05:00:30Z</time></trkpt><trkpt lat="14.380587820832748" lon="120.99195517865596"><ele>56.0</ele><time>2026-04-16T05:00:31Z</time></trkpt><trkpt lat="14.380587153693634" lon="120.9917882819474"><ele>56.333333333333336</ele><time>2026-04-16T05:00:32Z</time></trkpt><trkpt lat="14.38061123589373" lon="120.99162713751925"><ele>56.66666666666667</ele><time>2026-04-16T05:00:33Z</time></trkpt><trkpt lat="14.380666650009534" lon="120.99147045261036"><ele>57.0</ele><time>2026-04-16T05:00:34Z</time></trkpt><trkpt lat="14.380752213584751" lon="120.99132640388139"><ele>57.0</ele><time>2026-04-16T05:00:35Z</time></trkpt><trkpt lat="14.380860655688332" lon="120.99118965405405"><ele>57.0</ele><time>2026-04-16T05:00:36Z</time></trkpt><trkpt lat="14.380973989602957" lon="120.99105626180554"><ele>57.0</ele><time>2026-04-16T05:00:37Z</time></trkpt><trkpt lat="14.381081301941604" lon="120.99091127460173"><ele>57.0</ele><time>2026-04-16T05:00:38Z</time></trkpt><trkpt lat="14.38118578882671" lon="120.99076648698835"><ele>57.0</ele><time>2026-04-16T05:00:39.001Z</time></trkpt><trkpt lat="14.381296422847312" lon="120.9906211326818"><ele>57.0</ele><time>2026-04-16T05:00:40.001Z</time></trkpt><trkpt lat="14.38141128576599" lon="120.990476231474"><ele>57.0</ele><time>2026-04-16T05:00:41.001Z</time></trkpt><trkpt lat="14.381527555982156" lon="120.99032898443362"><ele>57.0</ele><time>2026-04-16T05:00:42.001Z</time></trkpt><trkpt lat="14.381624218677315" lon="120.99018353980236"><ele>57.0</ele><time>2026-04-16T05:00:43.001Z</time></trkpt><trkpt lat="14.381716777633606" lon="120.99002356182679"><ele>55.33333333333333</ele><time>2026-04-16T05:00:44.001Z</time></trkpt><trkpt lat="14.381800254218426" lon="120.98985250293292"><ele>53.666666666666664</ele><time>2026-04-16T05:00:45.001Z</time></trkpt><trkpt lat="14.38185534696069" lon="120.98968387774492"><ele>52.0</ele><time>2026-04-16T05:00:46.001Z</time></trkpt><trkpt lat="14.381888526297184" lon="120.98951005088712"><ele>52.0</ele><time>2026-04-16T05:00:47.001Z</time></trkpt><trkpt lat="14.381906190734354" lon="120.98934109146278"><ele>52.0</ele><time>2026-04-16T05:00:48.001Z</time></trkpt><trkpt lat="14.381923762520477" lon="120.989159522458"><ele>52.0</ele><time>2026-04-16T05:00:49.001Z</time></trkpt><trkpt lat="14.38194807179721" lon="120.98897612775187"><ele>49.75</ele><time>2026-04-16T05:00:50.001Z</time></trkpt><trkpt lat="14.381923795557938" lon="120.98884103323579"><ele>47.5</ele><time>2026-04-16T05:00:51.001Z</time></trkpt><trkpt lat="14.381934975766987" lon="120.98867572311606"><ele>45.25</ele><time>2026-04-16T05:00:52.001Z</time></trkpt><trkpt lat="14.38193668702047" lon="120.98852791085507"><ele>43.0</ele><time>2026-04-16T05:00:53.001Z</time></trkpt><trkpt lat="14.381939864243186" lon="120.98838117952572"><ele>43.0</ele><time>2026-04-16T05:00:54.001Z</time></trkpt><trkpt lat="14.3819425240189" lon="120.98825011182463"><ele>43.0</ele><time>2026-04-16T05:00:55.001Z</time></trkpt><trkpt lat="14.381954625706372" lon="120.9881338910797"><ele>43.0</ele><time>2026-04-16T05:00:56.001Z</time></trkpt><trkpt lat="14.381977616123356" lon="120.98801528255618"><ele>43.0</ele><time>2026-04-16T05:00:57.001Z</time></trkpt><trkpt lat="14.382013118442359" lon="120.98791846876902"><ele>43.0</ele><time>2026-04-16T05:00:58.001Z</time></trkpt><trkpt lat="14.38206064795583" lon="120.98781755617011"><ele>43.0</ele><time>2026-04-16T05:00:59.001Z</time></trkpt><trkpt lat="14.38210818200957" lon="120.98773369888778"><ele>43.0</ele><time>2026-04-16T05:01:00.001Z</time></trkpt><trkpt lat="14.382149557383997" lon="120.98766054076754"><ele>43.0</ele><time>2026-04-16T05:01:01.001Z</time></trkpt><trkpt lat="14.382192465681873" lon="120.98758043482816"><ele>43.0</ele><time>2026-04-16T05:01:02.001Z</time></trkpt><trkpt lat="14.382229045843573" lon="120.98750893386024"><ele>43.5</ele><time>2026-04-16T05:01:03.001Z</time></trkpt><trkpt lat="14.382268835059225" lon="120.98743660609993"><ele>44.0</ele><time>2026-04-16T05:01:04.001Z</time></trkpt><trkpt lat="14.38230178789791" lon="120.98737680679794"><ele>44.5</ele><time>2026-04-16T05:01:05.001Z</time></trkpt><trkpt lat="14.382341015439264" lon="120.98729295600238"><ele>45.0</ele><time>2026-04-16T05:01:07.001Z</time></trkpt><trkpt lat="14.382369893986922" lon="120.98722850981186"><ele>45.5</ele><time>2026-04-16T05:01:09.001Z</time></trkpt><trkpt lat="14.382393440571931" lon="120.98716147094022"><ele>46.0</ele><time>2026-04-16T05:01:13.001Z</time></trkpt><trkpt lat="14.382560567040478" lon="120.98726605716689"><ele>46.0</ele><time>2026-04-16T05:01:38.001Z</time></trkpt><trkpt lat="14.38245884077808" lon="120.98730417006523"><ele>46.0</ele><time>2026-04-16T05:03:54.039Z</time></trkpt><trkpt lat="14.382416290425898" lon="120.98717449266184"><ele>46.0</ele><time>2026-04-16T05:03:55.039Z</time></trkpt><trkpt lat="14.382361107450981" lon="120.98699969635295"><ele>46.0</ele><time>2026-04-16T05:03:56.037Z</time></trkpt><trkpt lat="14.382483542104966" lon="120.98698010599148"><ele>46.0</ele><time>2026-04-16T05:03:57.043Z</time></trkpt><trkpt lat="14.382501224491389" lon="120.9870470936621"><ele>46.0</ele><time>2026-04-16T05:04:18.034Z</time></trkpt><trkpt lat="14.382441720389524" lon="120.98707065849707"><ele>46.0</ele><time>2026-04-16T05:04:25.029Z</time></trkpt><trkpt lat="14.38248509155428" lon="120.98711823690093"><ele>46.0</ele><time>2026-04-16T05:05:07.015Z</time></trkpt><trkpt lat="14.38251068345919" lon="120.9871891813975"><ele>46.0</ele><time>2026-04-16T05:05:14.018Z</time></trkpt><trkpt lat="14.382550562284115" lon="120.98724488212086"><ele>46.0</ele><time>2026-04-16T05:05:17.018Z</time></trkpt><trkpt lat="14.382483899647816" lon="120.98720170424028"><ele>46.0</ele><time>2026-04-16T05:05:24.019Z</time></trkpt><trkpt lat="14.382439925058305" lon="120.98714366294497"><ele>46.0</ele><time>2026-04-16T05:05:27.02Z</time></trkpt><trkpt lat="14.382372764001735" lon="120.98708076114848"><ele>46.0</ele><time>2026-04-16T05:05:29.02Z</time></trkpt><trkpt lat="14.382407993101811" lon="120.98713777961638"><ele>46.0</ele><time>2026-04-16T05:05:34.003Z</time></trkpt><trkpt lat="14.382443816594558" lon="120.98720297435604"><ele>46.0</ele><time>2026-04-16T05:05:37.003Z</time></trkpt><trkpt lat="14.382483056425427" lon="120.98714412731525"><ele>46.0</ele><time>2026-04-16T05:06:04.001Z</time></trkpt><trkpt lat="14.382499625996662" lon="120.98707293815764"><ele>46.0</ele><time>2026-04-16T05:06:14.001Z</time></trkpt><trkpt lat="14.382558684580015" lon="120.98711635581019"><ele>46.0</ele><time>2026-04-16T05:06:24.001Z</time></trkpt><trkpt lat="14.382579550050295" lon="120.98718129570094"><ele>46.0</ele><time>2026-04-16T05:06:36.001Z</time></trkpt><trkpt lat="14.382631330704616" lon="120.98722326450347"><ele>46.0</ele><time>2026-04-16T05:11:14.001Z</time></trkpt><trkpt lat="14.382667468855159" lon="120.98727965609811"><ele>46.0</ele><time>2026-04-16T05:11:20.001Z</time></trkpt><trkpt lat="14.382713258605861" lon="120.9873370970568"><ele>46.0</ele><time>2026-04-16T05:11:24.001Z</time></trkpt><trkpt lat="14.382774484379812" lon="120.98729908590272"><ele>46.0</ele><time>2026-04-16T05:12:49Z</time></trkpt><trkpt lat="14.382718435758944" lon="120.9873425770727"><ele>46.0</ele><time>2026-04-16T05:13:09.001Z</time></trkpt><trkpt lat="14.38266252309089" lon="120.98726346504719"><ele>46.0</ele><time>2026-04-16T05:13:16.001Z</time></trkpt><trkpt lat="14.382579726508473" lon="120.9872247543122"><ele>46.0</ele><time>2026-04-16T05:16:33.001Z</time></trkpt><trkpt lat="14.382594914881741" lon="120.98711885467273"><ele>46.0</ele><time>2026-04-16T05:16:39.001Z</time></trkpt><trkpt lat="14.382668024824756" lon="120.9873008781517"><ele>46.0</ele><time>2026-04-16T05:17:55.002Z</time></trkpt><trkpt lat="14.382729758054651" lon="120.98734335342027"><ele>46.0</ele><time>2026-04-16T05:18:02.002Z</time></trkpt><trkpt lat="14.382662951093064" lon="120.98734786035628"><ele>46.0</ele><time>2026-04-16T05:18:16.003Z</time></trkpt><trkpt lat="14.382604638632852" lon="120.98729802696604"><ele>46.0</ele><time>2026-04-16T05:18:21.002Z</time></trkpt><trkpt lat="14.382492733942119" lon="120.9873290505506"><ele>46.0</ele><time>2026-04-16T05:19:59.002Z</time></trkpt><trkpt lat="14.38269845955321" lon="120.9873457869152"><ele>46.0</ele><time>2026-04-16T05:22:18.002Z</time></trkpt><trkpt lat="14.382719723166907" lon="120.98728452218717"><ele>46.0</ele><time>2026-04-16T05:22:21.002Z</time></trkpt><trkpt lat="14.382764940900937" lon="120.98722701642788"><ele>46.0</ele><time>2026-04-16T05:22:27.002Z</time></trkpt><trkpt lat="14.382810710613109" lon="120.98717135268276"><ele>46.0</ele><time>2026-04-16T05:22:32Z</time></trkpt><trkpt lat="14.382914808015876" lon="120.98721253726454"><ele>46.0</ele><time>2026-04-16T05:22:50.072Z</time></trkpt><trkpt lat="14.382910123963109" lon="120.98728351943646"><ele>46.0</ele><time>2026-04-16T05:23:05.06Z</time></trkpt><trkpt lat="14.382853749859606" lon="120.98733935880183"><ele>46.0</ele><time>2026-04-16T05:23:09.052Z</time></trkpt><trkpt lat="14.382819222278144" lon="120.98742363920653"><ele>46.0</ele><time>2026-04-16T05:23:16.026Z</time></trkpt><trkpt lat="14.382755951922201" lon="120.98749314301729"><ele>46.0</ele><time>2026-04-16T05:23:40.01Z</time></trkpt><trkpt lat="14.382626569341872" lon="120.98744915508196"><ele>46.0</ele><time>2026-04-16T05:23:42.013Z</time></trkpt><trkpt lat="14.38254737212879" lon="120.98742820093575"><ele>46.0</ele><time>2026-04-16T05:23:45.013Z</time></trkpt><trkpt lat="14.382482446831151" lon="120.98739993477324"><ele>46.0</ele><time>2026-04-16T05:23:47.015Z</time></trkpt><trkpt lat="14.382267790865427" lon="120.98732541746227"><ele>46.0</ele><time>2026-04-16T05:23:50.014Z</time></trkpt><trkpt lat="14.38241935897276" lon="120.98733750144285"><ele>46.0</ele><time>2026-04-16T05:23:53.019Z</time></trkpt><trkpt lat="14.382600254902698" lon="120.98737336674233"><ele>46.0</ele><time>2026-04-16T05:23:55.019Z</time></trkpt><trkpt lat="14.382538867649178" lon="120.98741519761022"><ele>46.0</ele><time>2026-04-16T05:23:59.02Z</time></trkpt><trkpt lat="14.382517473821919" lon="120.9873216968731"><ele>46.0</ele><time>2026-04-16T05:24:22.019Z</time></trkpt><trkpt lat="14.382424410497283" lon="120.9872873413265"><ele>46.0</ele><time>2026-04-16T05:28:46.004Z</time></trkpt><trkpt lat="14.382494558447682" lon="120.98728395067788"><ele>46.0</ele><time>2026-04-16T05:28:53.999Z</time></trkpt><trkpt lat="14.382564063862059" lon="120.98728713711324"><ele>46.0</ele><time>2026-04-16T05:29:10Z</time></trkpt><trkpt lat="14.3825009174546" lon="120.9873084157431"><ele>46.0</ele><time>2026-04-16T05:30:17.001Z</time></trkpt><trkpt lat="14.382444336103708" lon="120.98724532681146"><ele>46.0</ele><time>2026-04-16T05:30:56.001Z</time></trkpt><trkpt lat="14.38239683073376" lon="120.98719040484511"><ele>46.0</ele><time>2026-04-16T05:31:03.001Z</time></trkpt><trkpt lat="14.382445261092457" lon="120.98725681822359"><ele>46.0</ele><time>2026-04-16T05:31:10.001Z</time></trkpt><trkpt lat="14.382462831907414" lon="120.98732674571949"><ele>46.0</ele><time>2026-04-16T05:31:11.001Z</time></trkpt><trkpt lat="14.382517359462078" lon="120.9872848517826"><ele>46.0</ele><time>2026-04-16T05:31:25.001Z</time></trkpt><trkpt lat="14.382448807239136" lon="120.98724285445535"><ele>46.0</ele><time>2026-04-16T05:33:55.001Z</time></trkpt><trkpt lat="14.38240139446494" lon="120.98719516414666"><ele>46.0</ele><time>2026-04-16T05:33:57.001Z</time></trkpt><trkpt lat="14.382396958153267" lon="120.98711182761816"><ele>46.0</ele><time>2026-04-16T05:34:00.001Z</time></trkpt><trkpt lat="14.382429622626484" lon="120.98705539082782"><ele>46.0</ele><time>2026-04-16T05:34:01.001Z</time></trkpt><trkpt lat="14.382465678423271" lon="120.9869939301541"><ele>46.0</ele><time>2026-04-16T05:34:02.001Z</time></trkpt><trkpt lat="14.382499646623621" lon="120.98691973261359"><ele>46.0</ele><time>2026-04-16T05:34:03.001Z</time></trkpt><trkpt lat="14.382536460999168" lon="120.98684241442507"><ele>46.0</ele><time>2026-04-16T05:34:04.001Z</time></trkpt><trkpt lat="14.382573806372458" lon="120.98676027063534"><ele>46.0</ele><time>2026-04-16T05:34:05.001Z</time></trkpt><trkpt lat="14.382611890630969" lon="120.98667299004703"><ele>46.0</ele><time>2026-04-16T05:34:06.001Z</time></trkpt><trkpt lat="14.382650077944893" lon="120.98657732731331"><ele>45.75</ele><time>2026-04-16T05:34:07.001Z</time></trkpt><trkpt lat="14.382695829479117" lon="120.98647638658166"><ele>45.5</ele><time>2026-04-16T05:34:08.001Z</time></trkpt><trkpt lat="14.382747236805297" lon="120.98637202752819"><ele>45.25</ele><time>2026-04-16T05:34:09.001Z</time></trkpt><trkpt lat="14.38280008338803" lon="120.98626214291865"><ele>45.0</ele><time>2026-04-16T05:34:10.001Z</time></trkpt><trkpt lat="14.382855412787023" lon="120.98614869701952"><ele>45.0</ele><time>2026-04-16T05:34:11.001Z</time></trkpt><trkpt lat="14.38290994343895" lon="120.98603408556788"><ele>45.0</ele><time>2026-04-16T05:34:12.001Z</time></trkpt><trkpt lat="14.38296137424732" lon="120.98591478225036"><ele>45.0</ele><time>2026-04-16T05:34:13.001Z</time></trkpt><trkpt lat="14.383019007450592" lon="120.9857964483007"><ele>45.0</ele><time>2026-04-16T05:34:14.001Z</time></trkpt><trkpt lat="14.383074829171907" lon="120.98567304739288"><ele>45.5</ele><time>2026-04-16T05:34:15.001Z</time></trkpt><trkpt lat="14.383130315528652" lon="120.98555223526573"><ele>46.0</ele><time>2026-04-16T05:34:16.001Z</time></trkpt><trkpt lat="14.383185234917764" lon="120.98542738752388"><ele>46.5</ele><time>2026-04-16T05:34:17.001Z</time></trkpt><trkpt lat="14.38323778314514" lon="120.98530532622506"><ele>47.0</ele><time>2026-04-16T05:34:18.001Z</time></trkpt><trkpt lat="14.38329155550129" lon="120.98518070024019"><ele>47.0</ele><time>2026-04-16T05:34:19.001Z</time></trkpt><trkpt lat="14.383345421609873" lon="120.98505483361161"><ele>47.0</ele><time>2026-04-16T05:34:20.001Z</time></trkpt><trkpt lat="14.383398028731731" lon="120.98492622765282"><ele>47.0</ele><time>2026-04-16T05:34:21.001Z</time></trkpt><trkpt lat="14.383448514439962" lon="120.98479349286362"><ele>47.0</ele><time>2026-04-16T05:34:22.001Z</time></trkpt><trkpt lat="14.383481237922263" lon="120.98465206050932"><ele>47.0</ele><time>2026-04-16T05:34:23.001Z</time></trkpt><trkpt lat="14.38353149385946" lon="120.98450737079534"><ele>47.0</ele><time>2026-04-16T05:34:24.001Z</time></trkpt><trkpt lat="14.383562368720801" lon="120.98437236235542"><ele>47.0</ele><time>2026-04-16T05:34:25.001Z</time></trkpt><trkpt lat="14.383593573178224" lon="120.98422637451304"><ele>47.0</ele><time>2026-04-16T05:34:26.001Z</time></trkpt><trkpt lat="14.383603900768263" lon="120.98407031248206"><ele>47.0</ele><time>2026-04-16T05:34:27.001Z</time></trkpt><trkpt lat="14.38361221929708" lon="120.98391207155501"><ele>47.0</ele><time>2026-04-16T05:34:28.001Z</time></trkpt><trkpt lat="14.383620100273447" lon="120.98375509805224"><ele>47.0</ele><time>2026-04-16T05:34:29.001Z</time></trkpt><trkpt lat="14.383618260627925" lon="120.98359465310604"><ele>47.0</ele><time>2026-04-16T05:34:30.001Z</time></trkpt><trkpt lat="14.383605085378003" lon="120.98343235724215"><ele>47.0</ele><time>2026-04-16T05:34:31.001Z</time></trkpt><trkpt lat="14.383599042429529" lon="120.98326241198575"><ele>47.0</ele><time>2026-04-16T05:34:32.001Z</time></trkpt><trkpt lat="14.383590248760958" lon="120.98309608999719"><ele>46.666666666666664</ele><time>2026-04-16T05:34:33.001Z</time></trkpt><trkpt lat="14.383585038304497" lon="120.98292831680035"><ele>46.333333333333336</ele><time>2026-04-16T05:34:34.001Z</time></trkpt><trkpt lat="14.383579494241303" lon="120.98276109002154"><ele>46.0</ele><time>2026-04-16T05:34:35.001Z</time></trkpt><trkpt lat="14.383575766355303" lon="120.9825939004962"><ele>45.75</ele><time>2026-04-16T05:34:36.002Z</time></trkpt><trkpt lat="14.3835744496756" lon="120.98243081672533"><ele>45.5</ele><time>2026-04-16T05:34:37.002Z</time></trkpt><trkpt lat="14.383573410255726" lon="120.98227741168547"><ele>45.25</ele><time>2026-04-16T05:34:38.002Z</time></trkpt><trkpt lat="14.383570497163545" lon="120.98213272408937"><ele>45.0</ele><time>2026-04-16T05:34:39.002Z</time></trkpt><trkpt lat="14.383566060879224" lon="120.98199457947136"><ele>45.0</ele><time>2026-04-16T05:34:40.002Z</time></trkpt><trkpt lat="14.383556889313487" lon="120.98186073031978"><ele>45.0</ele><time>2026-04-16T05:34:41.002Z</time></trkpt><trkpt lat="14.383548402693128" lon="120.98173030635137"><ele>45.0</ele><time>2026-04-16T05:34:42.002Z</time></trkpt><trkpt lat="14.38354409112492" lon="120.98160856198992"><ele>45.0</ele><time>2026-04-16T05:34:43.002Z</time></trkpt><trkpt lat="14.383542102570475" lon="120.98149301364433"><ele>44.6</ele><time>2026-04-16T05:34:44.002Z</time></trkpt><trkpt lat="14.383536171158582" lon="120.98138216585498"><ele>44.2</ele><time>2026-04-16T05:34:45.002Z</time></trkpt><trkpt lat="14.383534696059447" lon="120.98127877201313"><ele>43.8</ele><time>2026-04-16T05:34:46.002Z</time></trkpt><trkpt lat="14.383533778075469" lon="120.98118209163114"><ele>43.4</ele><time>2026-04-16T05:34:47.002Z</time></trkpt><trkpt lat="14.383536025381346" lon="120.98110124321262"><ele>43.0</ele><time>2026-04-16T05:34:48.002Z</time></trkpt><trkpt lat="14.383533756595936" lon="120.98101339195686"><ele>43.0</ele><time>2026-04-16T05:34:49.002Z</time></trkpt><trkpt lat="14.38352988586868" lon="120.98093656879118"><ele>43.0</ele><time>2026-04-16T05:34:50.002Z</time></trkpt><trkpt lat="14.383532603997937" lon="120.98087065361473"><ele>43.0</ele><time>2026-04-16T05:34:51.002Z</time></trkpt><trkpt lat="14.383540359296397" lon="120.98079401590246"><ele>43.0</ele><time>2026-04-16T05:34:52.002Z</time></trkpt><trkpt lat="14.383560129182715" lon="120.98070654944657"><ele>43.0</ele><time>2026-04-16T05:34:53.002Z</time></trkpt><trkpt lat="14.383605333183688" lon="120.98062504655883"><ele>43.0</ele><time>2026-04-16T05:34:54.002Z</time></trkpt><trkpt lat="14.383668730117053" lon="120.98054964261712"><ele>43.0</ele><time>2026-04-16T05:34:55.002Z</time></trkpt><trkpt lat="14.383745892988086" lon="120.98048333697153"><ele>43.0</ele><time>2026-04-16T05:34:56.002Z</time></trkpt><trkpt lat="14.383831112414324" lon="120.98042532901646"><ele>43.0</ele><time>2026-04-16T05:34:57.002Z</time></trkpt><trkpt lat="14.383931998912127" lon="120.98038591413625"><ele>43.0</ele><time>2026-04-16T05:34:58.002Z</time></trkpt><trkpt lat="14.384050918177978" lon="120.98034013096422"><ele>43.0</ele><time>2026-04-16T05:34:59.002Z</time></trkpt><trkpt lat="14.38417443252703" lon="120.98030080090797"><ele>43.0</ele><time>2026-04-16T05:35:00.002Z</time></trkpt><trkpt lat="14.384305737264292" lon="120.98025539308765"><ele>43.0</ele><time>2026-04-16T05:35:01.002Z</time></trkpt><trkpt lat="14.384431681996393" lon="120.98021229837786"><ele>43.0</ele><time>2026-04-16T05:35:02.002Z</time></trkpt><trkpt lat="14.384545707695384" lon="120.98017281712328"><ele>43.0</ele><time>2026-04-16T05:35:03.002Z</time></trkpt><trkpt lat="14.384652026047721" lon="120.98013420854124"><ele>43.0</ele><time>2026-04-16T05:35:04.002Z</time></trkpt><trkpt lat="14.384749647373537" lon="120.9801004988405"><ele>43.0</ele><time>2026-04-16T05:35:05.002Z</time></trkpt><trkpt lat="14.384839984681484" lon="120.98006745777246"><ele>43.0</ele><time>2026-04-16T05:35:06.002Z</time></trkpt><trkpt lat="14.38493054034869" lon="120.98002916123961"><ele>43.0</ele><time>2026-04-16T05:35:07.002Z</time></trkpt><trkpt lat="14.385026001019021" lon="120.97998841483344"><ele>43.0</ele><time>2026-04-16T05:35:08Z</time></trkpt><trkpt lat="14.385128270595546" lon="120.97995117743359"><ele>43.0</ele><time>2026-04-16T05:35:09Z</time></trkpt><trkpt lat="14.385243532588627" lon="120.97990373768094"><ele>43.0</ele><time>2026-04-16T05:35:10Z</time></trkpt><trkpt lat="14.385353302550158" lon="120.97986028540218"><ele>43.0</ele><time>2026-04-16T05:35:11Z</time></trkpt><trkpt lat="14.385465208801302" lon="120.97980532767876"><ele>43.0</ele><time>2026-04-16T05:35:12Z</time></trkpt><trkpt lat="14.385561455217827" lon="120.9797466351581"><ele>42.5</ele><time>2026-04-16T05:35:13Z</time></trkpt><trkpt lat="14.385660382456592" lon="120.97966174316497"><ele>42.0</ele><time>2026-04-16T05:35:14Z</time></trkpt><trkpt lat="14.38573329948531" lon="120.9795663058988"><ele>41.5</ele><time>2026-04-16T05:35:15Z</time></trkpt><trkpt lat="14.385807823817128" lon="120.97945127765695"><ele>41.0</ele><time>2026-04-16T05:35:16Z</time></trkpt><trkpt lat="14.385868470849216" lon="120.97932740148642"><ele>41.0</ele><time>2026-04-16T05:35:17Z</time></trkpt><trkpt lat="14.385904610711451" lon="120.97919867021275"><ele>41.0</ele><time>2026-04-16T05:35:18Z</time></trkpt><trkpt lat="14.38593563891782" lon="120.97905981151494"><ele>41.0</ele><time>2026-04-16T05:35:19Z</time></trkpt><trkpt lat="14.385949055922016" lon="120.97891584837942"><ele>41.0</ele><time>2026-04-16T05:35:20Z</time></trkpt><trkpt lat="14.38596027748098" lon="120.97878654134549"><ele>41.599999999999994</ele><time>2026-04-16T05:35:21Z</time></trkpt><trkpt lat="14.38597761728623" lon="120.97867004494545"><ele>42.2</ele><time>2026-04-16T05:35:22Z</time></trkpt><trkpt lat="14.38599880741506" lon="120.97855941004526"><ele>42.8</ele><time>2026-04-16T05:35:23Z</time></trkpt><trkpt lat="14.38601213579116" lon="120.97846986516065"><ele>43.400000000000006</ele><time>2026-04-16T05:35:24Z</time></trkpt><trkpt lat="14.386026404511052" lon="120.9783962140828"><ele>44.0</ele><time>2026-04-16T05:35:25Z</time></trkpt><trkpt lat="14.386043721634215" lon="120.97827924065409"><ele>44.800000000000004</ele><time>2026-04-16T05:35:27Z</time></trkpt><trkpt lat="14.386052271221262" lon="120.97818568920165"><ele>45.6</ele><time>2026-04-16T05:35:29Z</time></trkpt><trkpt lat="14.386056470026157" lon="120.97811134513358"><ele>46.4</ele><time>2026-04-16T05:35:32Z</time></trkpt><trkpt lat="14.386060364748957" lon="120.9780130323088"><ele>47.2</ele><time>2026-04-16T05:36:37.001Z</time></trkpt><trkpt lat="14.386079632499671" lon="120.97787540462019"><ele>48.0</ele><time>2026-04-16T05:36:39.001Z</time></trkpt><trkpt lat="14.386089822071131" lon="120.97777340888885"><ele>48.0</ele><time>2026-04-16T05:36:40.001Z</time></trkpt><trkpt lat="14.386109092349347" lon="120.97766947218365"><ele>48.0</ele><time>2026-04-16T05:36:41.001Z</time></trkpt><trkpt lat="14.38611530951315" lon="120.9775620614626"><ele>48.0</ele><time>2026-04-16T05:36:42.001Z</time></trkpt><trkpt lat="14.386140270694334" lon="120.97742617189411"><ele>48.0</ele><time>2026-04-16T05:36:43.001Z</time></trkpt><trkpt lat="14.386161301771457" lon="120.97730201485662"><ele>47.5</ele><time>2026-04-16T05:36:44.001Z</time></trkpt><trkpt lat="14.386188718674696" lon="120.97715812174465"><ele>47.0</ele><time>2026-04-16T05:36:45.001Z</time></trkpt><trkpt lat="14.386225923273878" lon="120.97701178377035"><ele>46.5</ele><time>2026-04-16T05:36:46.001Z</time></trkpt><trkpt lat="14.386268885190052" lon="120.97686401368259"><ele>46.0</ele><time>2026-04-16T05:36:47.001Z</time></trkpt><trkpt lat="14.386311740515403" lon="120.97671483623631"><ele>46.333333333333336</ele><time>2026-04-16T05:36:48.001Z</time></trkpt><trkpt lat="14.386353626840728" lon="120.97655073908469"><ele>46.666666666666664</ele><time>2026-04-16T05:36:49.001Z</time></trkpt><trkpt lat="14.386394652237954" lon="120.97640742592945"><ele>47.0</ele><time>2026-04-16T05:36:50.001Z</time></trkpt><trkpt lat="14.386435935801245" lon="120.97624569795533"><ele>47.0</ele><time>2026-04-16T05:36:51.001Z</time></trkpt><trkpt lat="14.386474474276763" lon="120.97609514926167"><ele>47.0</ele><time>2026-04-16T05:36:52.001Z</time></trkpt><trkpt lat="14.386519143107998" lon="120.97595901340675"><ele>47.0</ele><time>2026-04-16T05:36:53.001Z</time></trkpt><trkpt lat="14.386547205025522" lon="120.97580860550234"><ele>47.0</ele><time>2026-04-16T05:36:54.001Z</time></trkpt><trkpt lat="14.386595500660563" lon="120.97567145149723"><ele>46.2</ele><time>2026-04-16T05:36:55.001Z</time></trkpt><trkpt lat="14.386636099626733" lon="120.9755391911004"><ele>45.400000000000006</ele><time>2026-04-16T05:36:56.001Z</time></trkpt><trkpt lat="14.386672551479851" lon="120.97541788545767"><ele>44.599999999999994</ele><time>2026-04-16T05:36:57.001Z</time></trkpt><trkpt lat="14.386705776624574" lon="120.97531925386377"><ele>43.8</ele><time>2026-04-16T05:36:58.001Z</time></trkpt><trkpt lat="14.386728382910496" lon="120.97522915828745"><ele>43.0</ele><time>2026-04-16T05:36:59.001Z</time></trkpt><trkpt lat="14.386753506656715" lon="120.97516130854473"><ele>43.0</ele><time>2026-04-16T05:37:00.001Z</time></trkpt><trkpt lat="14.386775809904028" lon="120.97507769168423"><ele>43.0</ele><time>2026-04-16T05:37:01.001Z</time></trkpt><trkpt lat="14.386805519618477" lon="120.97498304902952"><ele>43.0</ele><time>2026-04-16T05:37:02.001Z</time></trkpt><trkpt lat="14.38683177549219" lon="120.97487557531015"><ele>43.0</ele><time>2026-04-16T05:37:03.001Z</time></trkpt><trkpt lat="14.386859443265301" lon="120.97476000894598"><ele>43.0</ele><time>2026-04-16T05:37:04.001Z</time></trkpt><trkpt lat="14.386885563694191" lon="120.97463771771916"><ele>43.5</ele><time>2026-04-16T05:37:05.001Z</time></trkpt><trkpt lat="14.386916396075287" lon="120.97452145873106"><ele>44.0</ele><time>2026-04-16T05:37:06.001Z</time></trkpt><trkpt lat="14.386919392682755" lon="120.97435229847652"><ele>44.5</ele><time>2026-04-16T05:37:07.001Z</time></trkpt><trkpt lat="14.386938738023739" lon="120.97421283728936"><ele>45.0</ele><time>2026-04-16T05:37:08.001Z</time></trkpt><trkpt lat="14.386961673795826" lon="120.97408579239404"><ele>45.0</ele><time>2026-04-16T05:37:09.001Z</time></trkpt><trkpt lat="14.38698493156228" lon="120.97396231266971"><ele>45.0</ele><time>2026-04-16T05:37:10.001Z</time></trkpt><trkpt lat="14.387021452880978" lon="120.97384598541501"><ele>45.0</ele><time>2026-04-16T05:37:11.001Z</time></trkpt><trkpt lat="14.387057957472509" lon="120.97372001229878"><ele>45.0</ele><time>2026-04-16T05:37:12.001Z</time></trkpt><trkpt lat="14.387092073436264" lon="120.97360504450376"><ele>45.0</ele><time>2026-04-16T05:37:13.001Z</time></trkpt><trkpt lat="14.387128767600013" lon="120.97350246099325"><ele>45.0</ele><time>2026-04-16T05:37:14Z</time></trkpt><trkpt lat="14.387165621046297" lon="120.97340893758353"><ele>45.0</ele><time>2026-04-16T05:37:15Z</time></trkpt><trkpt lat="14.387202049707458" lon="120.97332286703973"><ele>45.0</ele><time>2026-04-16T05:37:16Z</time></trkpt><trkpt lat="14.387236636364323" lon="120.97322524419147"><ele>45.0</ele><time>2026-04-16T05:37:17Z</time></trkpt><trkpt lat="14.387268979739238" lon="120.97312470500187"><ele>44.833333333333336</ele><time>2026-04-16T05:37:18Z</time></trkpt><trkpt lat="14.387297438983408" lon="120.97302807208465"><ele>44.666666666666664</ele><time>2026-04-16T05:37:19Z</time></trkpt><trkpt lat="14.387315278117859" lon="120.97293352246491"><ele>44.5</ele><time>2026-04-16T05:37:20Z</time></trkpt><trkpt lat="14.387329889312714" lon="120.9728520836591"><ele>44.33333333333333</ele><time>2026-04-16T05:37:21Z</time></trkpt><trkpt lat="14.387341462438775" lon="120.97278583959054"><ele>44.166666666666664</ele><time>2026-04-16T05:37:22Z</time></trkpt><trkpt lat="14.387358151272247" lon="120.97269269395265"><ele>44.0</ele><time>2026-04-16T05:37:24Z</time></trkpt><trkpt lat="14.387379248538839" lon="120.97261113005636"><ele>44.0</ele><time>2026-04-16T05:37:26Z</time></trkpt><trkpt lat="14.387396451334915" lon="120.97253687955431"><ele>44.0</ele><time>2026-04-16T05:37:28Z</time></trkpt><trkpt lat="14.387420851455506" lon="120.97244640007763"><ele>44.0</ele><time>2026-04-16T05:37:30Z</time></trkpt><trkpt lat="14.387448638927767" lon="120.97236983626992"><ele>44.0</ele><time>2026-04-16T05:37:32Z</time></trkpt><trkpt lat="14.387491292105697" lon="120.97226121427116"><ele>44.0</ele><time>2026-04-16T05:37:34Z</time></trkpt><trkpt lat="14.387515618701752" lon="120.97215861724192"><ele>43.5</ele><time>2026-04-16T05:37:35Z</time></trkpt><trkpt lat="14.387530882922663" lon="120.9720558732694"><ele>43.0</ele><time>2026-04-16T05:37:36Z</time></trkpt><trkpt lat="14.387556498545798" lon="120.9719415376417"><ele>42.5</ele><time>2026-04-16T05:37:37Z</time></trkpt><trkpt lat="14.38758309512545" lon="120.97182233142556"><ele>42.0</ele><time>2026-04-16T05:37:38Z</time></trkpt><trkpt lat="14.387616691530988" lon="120.97168613314011"><ele>42.0</ele><time>2026-04-16T05:37:39Z</time></trkpt><trkpt lat="14.387649696507259" lon="120.97155268652007"><ele>42.0</ele><time>2026-04-16T05:37:40Z</time></trkpt><trkpt lat="14.387684267802232" lon="120.97142791611577"><ele>42.0</ele><time>2026-04-16T05:37:41Z</time></trkpt><trkpt lat="14.387716497987164" lon="120.97131921742489"><ele>42.0</ele><time>2026-04-16T05:37:42Z</time></trkpt><trkpt lat="14.387744855293748" lon="120.97121859904063"><ele>42.0</ele><time>2026-04-16T05:37:43Z</time></trkpt><trkpt lat="14.38777273067955" lon="120.97111767092234"><ele>42.0</ele><time>2026-04-16T05:37:44Z</time></trkpt><trkpt lat="14.387794907569768" lon="120.97102856761563"><ele>42.0</ele><time>2026-04-16T05:37:45Z</time></trkpt><trkpt lat="14.387812795643137" lon="120.97094839766274"><ele>42.0</ele><time>2026-04-16T05:37:46Z</time></trkpt><trkpt lat="14.387836663629672" lon="120.97085178520337"><ele>42.0</ele><time>2026-04-16T05:37:47Z</time></trkpt><trkpt lat="14.387869010692917" lon="120.97075267711035"><ele>42.6</ele><time>2026-04-16T05:37:48Z</time></trkpt><trkpt lat="14.387910920263858" lon="120.97065473687823"><ele>43.2</ele><time>2026-04-16T05:37:49Z</time></trkpt><trkpt lat="14.387957675132347" lon="120.97057595056349"><ele>43.8</ele><time>2026-04-16T05:37:50Z</time></trkpt><trkpt lat="14.387999406692686" lon="120.9705115337063"><ele>44.4</ele><time>2026-04-16T05:37:51Z</time></trkpt><trkpt lat="14.38807801881974" lon="120.9703677230798"><ele>45.0</ele><time>2026-04-16T05:37:52Z</time></trkpt><trkpt lat="14.388150351215952" lon="120.97026973185436"><ele>45.0</ele><time>2026-04-16T05:37:53Z</time></trkpt><trkpt lat="14.38822055932358" lon="120.9701717535291"><ele>45.0</ele><time>2026-04-16T05:37:54Z</time></trkpt><trkpt lat="14.388292981854912" lon="120.97006718023674"><ele>45.0</ele><time>2026-04-16T05:37:55Z</time></trkpt><trkpt lat="14.388362667263767" lon="120.96994929895938"><ele>45.0</ele><time>2026-04-16T05:37:56Z</time></trkpt><trkpt lat="14.388421463029006" lon="120.96981387689104"><ele>45.0</ele><time>2026-04-16T05:37:57Z</time></trkpt><trkpt lat="14.388472330107426" lon="120.96967162460687"><ele>45.0</ele><time>2026-04-16T05:37:58Z</time></trkpt><trkpt lat="14.388518489866481" lon="120.9695197706958"><ele>45.0</ele><time>2026-04-16T05:37:59Z</time></trkpt><trkpt lat="14.38856608334344" lon="120.96936185380764"><ele>45.0</ele><time>2026-04-16T05:38:00Z</time></trkpt><trkpt lat="14.388615264107704" lon="120.96919853771568"><ele>45.0</ele><time>2026-04-16T05:38:01Z</time></trkpt><trkpt lat="14.388668265177204" lon="120.96904090740655"><ele>45.0</ele><time>2026-04-16T05:38:02Z</time></trkpt><trkpt lat="14.388722269120567" lon="120.96888023718618"><ele>44.333333333333336</ele><time>2026-04-16T05:38:03Z</time></trkpt><trkpt lat="14.388765972439481" lon="120.96872013243168"><ele>43.66666666666667</ele><time>2026-04-16T05:38:04Z</time></trkpt><trkpt lat="14.388809169322617" lon="120.96855705314091"><ele>43.0</ele><time>2026-04-16T05:38:05Z</time></trkpt><trkpt lat="14.388838165303802" lon="120.9683892835503"><ele>42.5</ele><time>2026-04-16T05:38:06.001Z</time></trkpt><trkpt lat="14.388847452535414" lon="120.9682270455752"><ele>42.0</ele><time>2026-04-16T05:38:07.001Z</time></trkpt><trkpt lat="14.388849345889675" lon="120.96808290968946"><ele>41.5</ele><time>2026-04-16T05:38:08.001Z</time></trkpt><trkpt lat="14.388848640787447" lon="120.96794619025874"><ele>41.0</ele><time>2026-04-16T05:38:09.001Z</time></trkpt><trkpt lat="14.388844034804222" lon="120.96781671217609"><ele>42.0</ele><time>2026-04-16T05:38:10.001Z</time></trkpt><trkpt lat="14.388837020381658" lon="120.96769704301485"><ele>43.0</ele><time>2026-04-16T05:38:11.001Z</time></trkpt><trkpt lat="14.38882896374631" lon="120.96758260780793"><ele>44.0</ele><time>2026-04-16T05:38:12.001Z</time></trkpt><trkpt lat="14.388825794246337" lon="120.9674624246272"><ele>45.0</ele><time>2026-04-16T05:38:13.001Z</time></trkpt><trkpt lat="14.388834738650324" lon="120.96734043317399"><ele>45.25</ele><time>2026-04-16T05:38:14.001Z</time></trkpt><trkpt lat="14.388830849555502" lon="120.96722058654422"><ele>45.5</ele><time>2026-04-16T05:38:15.001Z</time></trkpt><trkpt lat="14.38881731867345" lon="120.96709489959508"><ele>45.75</ele><time>2026-04-16T05:38:16.001Z</time></trkpt><trkpt lat="14.388789079561109" lon="120.96696229289643"><ele>46.0</ele><time>2026-04-16T05:38:17.001Z</time></trkpt><trkpt lat="14.388756921662186" lon="120.9668265172704"><ele>45.75</ele><time>2026-04-16T05:38:18.001Z</time></trkpt><trkpt lat="14.388730451277164" lon="120.96668699305063"><ele>45.5</ele><time>2026-04-16T05:38:19.001Z</time></trkpt><trkpt lat="14.388704865575283" lon="120.96654289556633"><ele>45.25</ele><time>2026-04-16T05:38:20.001Z</time></trkpt><trkpt lat="14.388669874664346" lon="120.9663980146402"><ele>45.0</ele><time>2026-04-16T05:38:21.001Z</time></trkpt><trkpt lat="14.388626342620478" lon="120.96625121799592"><ele>45.0</ele><time>2026-04-16T05:38:22.001Z</time></trkpt><trkpt lat="14.38857899011988" lon="120.96609735179018"><ele>45.0</ele><time>2026-04-16T05:38:23.001Z</time></trkpt><trkpt lat="14.388534714861082" lon="120.96593891453601"><ele>45.0</ele><time>2026-04-16T05:38:24.001Z</time></trkpt><trkpt lat="14.38849523023337" lon="120.96577283731062"><ele>44.666666666666664</ele><time>2026-04-16T05:38:25.001Z</time></trkpt><trkpt lat="14.388457426023427" lon="120.96560168365065"><ele>44.33333333333333</ele><time>2026-04-16T05:38:26.001Z</time></trkpt><trkpt lat="14.388419378948097" lon="120.96542704674671"><ele>44.0</ele><time>2026-04-16T05:38:27.001Z</time></trkpt><trkpt lat="14.388379081478055" lon="120.96525146659123"><ele>44.0</ele><time>2026-04-16T05:38:28.001Z</time></trkpt><trkpt lat="14.38832991338873" lon="120.96507168108292"><ele>44.0</ele><time>2026-04-16T05:38:29.001Z</time></trkpt><trkpt lat="14.388272721873449" lon="120.9648939096556"><ele>44.0</ele><time>2026-04-16T05:38:30.001Z</time></trkpt><trkpt lat="14.38821197670762" lon="120.96472308110718"><ele>43.666666666666664</ele><time>2026-04-16T05:38:31.001Z</time></trkpt><trkpt lat="14.388138225570605" lon="120.96454555112207"><ele>43.333333333333336</ele><time>2026-04-16T05:38:32.001Z</time></trkpt><trkpt lat="14.388057214192006" lon="120.96436172603089"><ele>43.0</ele><time>2026-04-16T05:38:33.001Z</time></trkpt><trkpt lat="14.38797314439302" lon="120.96418168631314"><ele>42.66666666666667</ele><time>2026-04-16T05:38:34.001Z</time></trkpt><trkpt lat="14.387904378622029" lon="120.96399664040376"><ele>42.333333333333336</ele><time>2026-04-16T05:38:35.001Z</time></trkpt><trkpt lat="14.387819345850989" lon="120.96380863017788"><ele>42.0</ele><time>2026-04-16T05:38:36.001Z</time></trkpt><trkpt lat="14.387736257686347" lon="120.96362815113675"><ele>42.0</ele><time>2026-04-16T05:38:37.001Z</time></trkpt><trkpt lat="14.387633451015732" lon="120.963454209864"><ele>42.0</ele><time>2026-04-16T05:38:38.001Z</time></trkpt><trkpt lat="14.387553740333068" lon="120.9632809530359"><ele>42.0</ele><time>2026-04-16T05:38:39.001Z</time></trkpt><trkpt lat="14.387480779781956" lon="120.96312006913519"><ele>41.666666666666664</ele><time>2026-04-16T05:38:40.001Z</time></trkpt><trkpt lat="14.387407722451476" lon="120.96296449877828"><ele>41.33333333333333</ele><time>2026-04-16T05:38:41.001Z</time></trkpt><trkpt lat="14.387337030103438" lon="120.96280983769533"><ele>41.0</ele><time>2026-04-16T05:38:42.001Z</time></trkpt><trkpt lat="14.38726334837895" lon="120.96265189650937"><ele>41.0</ele><time>2026-04-16T05:38:43.001Z</time></trkpt><trkpt lat="14.387186185292336" lon="120.96249296222994"><ele>41.0</ele><time>2026-04-16T05:38:44.001Z</time></trkpt><trkpt lat="14.387106914544619" lon="120.96232959862273"><ele>41.0</ele><time>2026-04-16T05:38:45.001Z</time></trkpt><trkpt lat="14.387032808616093" lon="120.96216851743694"><ele>41.0</ele><time>2026-04-16T05:38:46.001Z</time></trkpt><trkpt lat="14.386954388279596" lon="120.96200071451807"><ele>41.0</ele><time>2026-04-16T05:38:47.001Z</time></trkpt><trkpt lat="14.386878247248736" lon="120.96184093588036"><ele>41.0</ele><time>2026-04-16T05:38:48.001Z</time></trkpt><trkpt lat="14.386799371045802" lon="120.96167679329396"><ele>40.0</ele><time>2026-04-16T05:38:49.001Z</time></trkpt><trkpt lat="14.386722489972867" lon="120.96152085612894"><ele>39.0</ele><time>2026-04-16T05:38:50.001Z</time></trkpt><trkpt lat="14.386648072186732" lon="120.96136448771387"><ele>38.0</ele><time>2026-04-16T05:38:51.001Z</time></trkpt><trkpt lat="14.38656815107474" lon="120.96120947750312"><ele>38.0</ele><time>2026-04-16T05:38:52.001Z</time></trkpt><trkpt lat="14.386484412854902" lon="120.96105768409221"><ele>38.0</ele><time>2026-04-16T05:38:53.001Z</time></trkpt><trkpt lat="14.386391164705511" lon="120.96090750159081"><ele>38.0</ele><time>2026-04-16T05:38:54.001Z</time></trkpt><trkpt lat="14.386285172852821" lon="120.96076852625937"><ele>39.33333333333333</ele><time>2026-04-16T05:38:55.001Z</time></trkpt><trkpt lat="14.386164727066555" lon="120.96063268345435"><ele>40.666666666666664</ele><time>2026-04-16T05:38:56.001Z</time></trkpt><trkpt lat="14.386036360886372" lon="120.96050122688098"><ele>42.0</ele><time>2026-04-16T05:38:57.001Z</time></trkpt><trkpt lat="14.385902475007295" lon="120.96037188760502"><ele>42.0</ele><time>2026-04-16T05:38:58.001Z</time></trkpt><trkpt lat="14.38576467543071" lon="120.96024601887355"><ele>42.0</ele><time>2026-04-16T05:38:59.001Z</time></trkpt><trkpt lat="14.385616747702429" lon="120.96012204246308"><ele>42.0</ele><time>2026-04-16T05:39:00.001Z</time></trkpt><trkpt lat="14.385471962359956" lon="120.96000802064731"><ele>42.333333333333336</ele><time>2026-04-16T05:39:01.001Z</time></trkpt><trkpt lat="14.385318916953832" lon="120.95989574097938"><ele>42.66666666666667</ele><time>2026-04-16T05:39:02.001Z</time></trkpt><trkpt lat="14.385165333272042" lon="120.95978783510029"><ele>43.0</ele><time>2026-04-16T05:39:03.001Z</time></trkpt><trkpt lat="14.385013954686723" lon="120.95968311675506"><ele>43.0</ele><time>2026-04-16T05:39:04.001Z</time></trkpt><trkpt lat="14.384860805833526" lon="120.95957809784113"><ele>43.0</ele><time>2026-04-16T05:39:05.001Z</time></trkpt><trkpt lat="14.384705964818728" lon="120.95947200782942"><ele>43.0</ele><time>2026-04-16T05:39:06.001Z</time></trkpt><trkpt lat="14.384551044141663" lon="120.95936666688593"><ele>43.0</ele><time>2026-04-16T05:39:07.001Z</time></trkpt><trkpt lat="14.384398611699325" lon="120.95926176920129"><ele>43.0</ele><time>2026-04-16T05:39:08.001Z</time></trkpt><trkpt lat="14.384251401480455" lon="120.95916511557802"><ele>43.0</ele><time>2026-04-16T05:39:09.001Z</time></trkpt><trkpt lat="14.384112507203087" lon="120.95907112127658"><ele>43.0</ele><time>2026-04-16T05:39:10.001Z</time></trkpt><trkpt lat="14.383981902955686" lon="120.9589805395641"><ele>43.0</ele><time>2026-04-16T05:39:11.001Z</time></trkpt><trkpt lat="14.383849576514102" lon="120.958889773825"><ele>43.0</ele><time>2026-04-16T05:39:12.001Z</time></trkpt><trkpt lat="14.383716281688864" lon="120.95880112604833"><ele>43.0</ele><time>2026-04-16T05:39:13.001Z</time></trkpt><trkpt lat="14.383583703452674" lon="120.95871645991085"><ele>43.0</ele><time>2026-04-16T05:39:14.001Z</time></trkpt><trkpt lat="14.383449214899741" lon="120.9586298770907"><ele>43.0</ele><time>2026-04-16T05:39:15.001Z</time></trkpt><trkpt lat="14.383317581483476" lon="120.95854143392673"><ele>43.0</ele><time>2026-04-16T05:39:16.001Z</time></trkpt><trkpt lat="14.383189236375133" lon="120.95845121897288"><ele>43.0</ele><time>2026-04-16T05:39:17.001Z</time></trkpt><trkpt lat="14.383063317591052" lon="120.95836343778691"><ele>43.0</ele><time>2026-04-16T05:39:18.001Z</time></trkpt><trkpt lat="14.382932309147678" lon="120.9582748349265"><ele>42.333333333333336</ele><time>2026-04-16T05:39:19.001Z</time></trkpt><trkpt lat="14.38279271731529" lon="120.95818344506802"><ele>41.666666666666664</ele><time>2026-04-16T05:39:20Z</time></trkpt><trkpt lat="14.382653394763462" lon="120.958090756571"><ele>41.0</ele><time>2026-04-16T05:39:21Z</time></trkpt><trkpt lat="14.382514507109597" lon="120.95799737796483"><ele>41.0</ele><time>2026-04-16T05:39:22Z</time></trkpt><trkpt lat="14.382375115102347" lon="120.9579034183492"><ele>41.0</ele><time>2026-04-16T05:39:23Z</time></trkpt><trkpt lat="14.382233779961194" lon="120.95780863786364"><ele>41.0</ele><time>2026-04-16T05:39:24Z</time></trkpt><trkpt lat="14.382096378529717" lon="120.9577144765229"><ele>41.33333333333333</ele><time>2026-04-16T05:39:25Z</time></trkpt><trkpt lat="14.381962848849033" lon="120.95761559962719"><ele>41.666666666666664</ele><time>2026-04-16T05:39:26Z</time></trkpt><trkpt lat="14.381832990126908" lon="120.95751465777583"><ele>42.0</ele><time>2026-04-16T05:39:27Z</time></trkpt><trkpt lat="14.381710382799461" lon="120.95741250774559"><ele>42.333333333333336</ele><time>2026-04-16T05:39:28Z</time></trkpt><trkpt lat="14.381601979318905" lon="120.9572961347232"><ele>42.66666666666667</ele><time>2026-04-16T05:39:29Z</time></trkpt><trkpt lat="14.38148746906256" lon="120.95718533888696"><ele>43.0</ele><time>2026-04-16T05:39:30Z</time></trkpt><trkpt lat="14.381370225021406" lon="120.95706757359888"><ele>43.0</ele><time>2026-04-16T05:39:31Z</time></trkpt><trkpt lat="14.381250409609724" lon="120.95693756021333"><ele>43.0</ele><time>2026-04-16T05:39:32Z</time></trkpt><trkpt lat="14.381130430342449" lon="120.95680529804694"><ele>43.0</ele><time>2026-04-16T05:39:33Z</time></trkpt><trkpt lat="14.381006600545001" lon="120.9566675076793"><ele>43.0</ele><time>2026-04-16T05:39:34Z</time></trkpt><trkpt lat="14.380889575518824" lon="120.95653449756203"><ele>43.0</ele><time>2026-04-16T05:39:35Z</time></trkpt><trkpt lat="14.380756280599664" lon="120.95639723361353"><ele>43.0</ele><time>2026-04-16T05:39:36Z</time></trkpt><trkpt lat="14.380633201663537" lon="120.95625336667376"><ele>42.333333333333336</ele><time>2026-04-16T05:39:37Z</time></trkpt><trkpt lat="14.380501546397118" lon="120.95610801203803"><ele>41.666666666666664</ele><time>2026-04-16T05:39:38Z</time></trkpt><trkpt lat="14.380375606401264" lon="120.95596587126171"><ele>41.0</ele><time>2026-04-16T05:39:39Z</time></trkpt><trkpt lat="14.380242322254352" lon="120.95581808384529"><ele>41.0</ele><time>2026-04-16T05:39:40Z</time></trkpt><trkpt lat="14.38011170446277" lon="120.95567612956019"><ele>41.0</ele><time>2026-04-16T05:39:41Z</time></trkpt><trkpt lat="14.379991663189669" lon="120.95554508308253"><ele>41.0</ele><time>2026-04-16T05:39:42Z</time></trkpt><trkpt lat="14.379871918302502" lon="120.95541345508569"><ele>41.0</ele><time>2026-04-16T05:39:43Z</time></trkpt><trkpt lat="14.37975291799433" lon="120.95528069825139"><ele>41.0</ele><time>2026-04-16T05:39:44Z</time></trkpt><trkpt lat="14.379634715113658" lon="120.95514529744018"><ele>41.0</ele><time>2026-04-16T05:39:45Z</time></trkpt><trkpt lat="14.37952140646861" lon="120.95500873805712"><ele>41.5</ele><time>2026-04-16T05:39:46Z</time></trkpt><trkpt lat="14.379420715312246" lon="120.95488611545382"><ele>42.0</ele><time>2026-04-16T05:39:47Z</time></trkpt><trkpt lat="14.3793335268624" lon="120.95478881078704"><ele>42.5</ele><time>2026-04-16T05:39:48Z</time></trkpt><trkpt lat="14.379262899567575" lon="120.9547083002521"><ele>43.0</ele><time>2026-04-16T05:39:49Z</time></trkpt><trkpt lat="14.379195378163287" lon="120.95463147059655"><ele>43.0</ele><time>2026-04-16T05:39:50Z</time></trkpt><trkpt lat="14.379134892433385" lon="120.95455823265996"><ele>43.0</ele><time>2026-04-16T05:39:51Z</time></trkpt><trkpt lat="14.379071634102566" lon="120.95448190794927"><ele>43.0</ele><time>2026-04-16T05:39:52Z</time></trkpt><trkpt lat="14.378997540939089" lon="120.95439902324092"><ele>43.0</ele><time>2026-04-16T05:39:53Z</time></trkpt><trkpt lat="14.37892797648039" lon="120.95431307600052"><ele>43.0</ele><time>2026-04-16T05:39:54Z</time></trkpt><trkpt lat="14.37885363070926" lon="120.95422444439457"><ele>43.25</ele><time>2026-04-16T05:39:55Z</time></trkpt><trkpt lat="14.378774797194215" lon="120.95412939836808"><ele>43.5</ele><time>2026-04-16T05:39:56Z</time></trkpt><trkpt lat="14.378692769547465" lon="120.9540337593693"><ele>43.75</ele><time>2026-04-16T05:39:57Z</time></trkpt><trkpt lat="14.378592205855684" lon="120.95392842084048"><ele>44.0</ele><time>2026-04-16T05:39:58Z</time></trkpt><trkpt lat="14.378504032139315" lon="120.95382858787164"><ele>44.0</ele><time>2026-04-16T05:39:59Z</time></trkpt><trkpt lat="14.378421440600627" lon="120.95371048105046"><ele>44.0</ele><time>2026-04-16T05:40:00Z</time></trkpt><trkpt lat="14.378335429581117" lon="120.95359160716299"><ele>44.0</ele><time>2026-04-16T05:40:01Z</time></trkpt><trkpt lat="14.378243282708125" lon="120.95346425304851"><ele>44.0</ele><time>2026-04-16T05:40:02Z</time></trkpt><trkpt lat="14.378160814871537" lon="120.95333182977205"><ele>44.0</ele><time>2026-04-16T05:40:03Z</time></trkpt><trkpt lat="14.378082772250895" lon="120.95319477569977"><ele>44.0</ele><time>2026-04-16T05:40:04Z</time></trkpt><trkpt lat="14.378006611896511" lon="120.95305911354286"><ele>44.0</ele><time>2026-04-16T05:40:05Z</time></trkpt><trkpt lat="14.377933422613873" lon="120.95292703455911"><ele>44.25</ele><time>2026-04-16T05:40:06Z</time></trkpt><trkpt lat="14.377866757159374" lon="120.9528033088052"><ele>44.5</ele><time>2026-04-16T05:40:07Z</time></trkpt><trkpt lat="14.37781112720633" lon="120.95267828155889"><ele>44.75</ele><time>2026-04-16T05:40:08Z</time></trkpt><trkpt lat="14.377745778012285" lon="120.95256451539109"><ele>45.0</ele><time>2026-04-16T05:40:09Z</time></trkpt><trkpt lat="14.377716252144236" lon="120.9524357188463"><ele>43.333333333333336</ele><time>2026-04-16T05:40:10Z</time></trkpt><trkpt lat="14.37766564624945" lon="120.95229476020154"><ele>41.66666666666667</ele><time>2026-04-16T05:40:11Z</time></trkpt><trkpt lat="14.377611566348419" lon="120.95214636912569"><ele>40.0</ele><time>2026-04-16T05:40:12Z</time></trkpt><trkpt lat="14.377552393418604" lon="120.95198259717283"><ele>40.0</ele><time>2026-04-16T05:40:13Z</time></trkpt><trkpt lat="14.377496091216472" lon="120.95181808294063"><ele>40.0</ele><time>2026-04-16T05:40:14Z</time></trkpt><trkpt lat="14.377436480034827" lon="120.95164119793408"><ele>40.0</ele><time>2026-04-16T05:40:15Z</time></trkpt><trkpt lat="14.377374199236936" lon="120.95146453489845"><ele>41.0</ele><time>2026-04-16T05:40:16Z</time></trkpt><trkpt lat="14.37730578647022" lon="120.95127268564512"><ele>42.0</ele><time>2026-04-16T05:40:17Z</time></trkpt><trkpt lat="14.377238653429602" lon="120.95108607388136"><ele>43.0</ele><time>2026-04-16T05:40:18Z</time></trkpt><trkpt lat="14.377170369687999" lon="120.9508964909525"><ele>42.66666666666667</ele><time>2026-04-16T05:40:19Z</time></trkpt><trkpt lat="14.377103474826885" lon="120.95070994715681"><ele>42.333333333333336</ele><time>2026-04-16T05:40:20Z</time></trkpt><trkpt lat="14.377021446378055" lon="120.95053182521669"><ele>42.0</ele><time>2026-04-16T05:40:21Z</time></trkpt><trkpt lat="14.376953898903404" lon="120.95034234492668"><ele>42.0</ele><time>2026-04-16T05:40:22Z</time></trkpt><trkpt lat="14.37688655060949" lon="120.9501422322362"><ele>42.0</ele><time>2026-04-16T05:40:23Z</time></trkpt><trkpt lat="14.37684127713268" lon="120.94997803008987"><ele>42.0</ele><time>2026-04-16T05:40:24Z</time></trkpt><trkpt lat="14.376767969089796" lon="120.94977915666614"><ele>41.0</ele><time>2026-04-16T05:40:25.001Z</time></trkpt><trkpt lat="14.376675497575997" lon="120.94957503496364"><ele>40.0</ele><time>2026-04-16T05:40:26.001Z</time></trkpt><trkpt lat="14.37663356141785" lon="120.94941316014324"><ele>39.0</ele><time>2026-04-16T05:40:27.001Z</time></trkpt><trkpt lat="14.376562073770979" lon="120.94921870930308"><ele>39.0</ele><time>2026-04-16T05:40:28.001Z</time></trkpt><trkpt lat="14.376490452760471" lon="120.94902450771811"><ele>39.0</ele><time>2026-04-16T05:40:29.001Z</time></trkpt><trkpt lat="14.376419088125688" lon="120.94882586092633"><ele>39.0</ele><time>2026-04-16T05:40:30.001Z</time></trkpt><trkpt lat="14.37634661714149" lon="120.94862355047692"><ele>39.0</ele><time>2026-04-16T05:40:31.001Z</time></trkpt><trkpt lat="14.37627378861724" lon="120.9484234217861"><ele>39.0</ele><time>2026-04-16T05:40:32.001Z</time></trkpt><trkpt lat="14.376203617956198" lon="120.94822705402252"><ele>39.0</ele><time>2026-04-16T05:40:33.001Z</time></trkpt><trkpt lat="14.376120822324252" lon="120.9480451343457"><ele>38.0</ele><time>2026-04-16T05:40:34.001Z</time></trkpt><trkpt lat="14.376062415887164" lon="120.94786893213872"><ele>37.0</ele><time>2026-04-16T05:40:35.001Z</time></trkpt><trkpt lat="14.376004350548184" lon="120.94770287788855"><ele>36.0</ele><time>2026-04-16T05:40:36.001Z</time></trkpt><trkpt lat="14.375952264865507" lon="120.94755324052156"><ele>36.5</ele><time>2026-04-16T05:40:37.001Z</time></trkpt><trkpt lat="14.375905683249714" lon="120.94741517285517"><ele>37.0</ele><time>2026-04-16T05:40:38.001Z</time></trkpt><trkpt lat="14.375857356147948" lon="120.94728025190206"><ele>37.5</ele><time>2026-04-16T05:40:39.001Z</time></trkpt><trkpt lat="14.37579767638483" lon="120.94713820696067"><ele>38.0</ele><time>2026-04-16T05:40:40.001Z</time></trkpt><trkpt lat="14.375740621451323" lon="120.94698243046113"><ele>38.0</ele><time>2026-04-16T05:40:41.001Z</time></trkpt><trkpt lat="14.37568786357151" lon="120.94681885620102"><ele>38.0</ele><time>2026-04-16T05:40:42.001Z</time></trkpt><trkpt lat="14.375629183855782" lon="120.94665588292958"><ele>38.0</ele><time>2026-04-16T05:40:43.001Z</time></trkpt><trkpt lat="14.375566251102555" lon="120.94649800973116"><ele>38.666666666666664</ele><time>2026-04-16T05:40:44.001Z</time></trkpt><trkpt lat="14.375502369720884" lon="120.94634395264485"><ele>39.333333333333336</ele><time>2026-04-16T05:40:45.001Z</time></trkpt><trkpt lat="14.37542518766666" lon="120.94619536304492"><ele>40.0</ele><time>2026-04-16T05:40:46.001Z</time></trkpt><trkpt lat="14.375336430124957" lon="120.94605886644517"><ele>40.0</ele><time>2026-04-16T05:40:47.001Z</time></trkpt><trkpt lat="14.375248693420362" lon="120.94592501168854"><ele>40.0</ele><time>2026-04-16T05:40:48.001Z</time></trkpt><trkpt lat="14.375152900120403" lon="120.94579470112254"><ele>40.0</ele><time>2026-04-16T05:40:49.001Z</time></trkpt><trkpt lat="14.375066050417487" lon="120.94564586457643"><ele>40.66666666666667</ele><time>2026-04-16T05:40:50.001Z</time></trkpt><trkpt lat="14.37496019584041" lon="120.94550431543352"><ele>41.333333333333336</ele><time>2026-04-16T05:40:51.001Z</time></trkpt><trkpt lat="14.374837726046469" lon="120.94536463550865"><ele>42.0</ele><time>2026-04-16T05:40:52.001Z</time></trkpt><trkpt lat="14.37470577530193" lon="120.9452293021689"><ele>42.0</ele><time>2026-04-16T05:40:53.001Z</time></trkpt><trkpt lat="14.374581843028448" lon="120.9450769491855"><ele>42.0</ele><time>2026-04-16T05:40:54.001Z</time></trkpt><trkpt lat="14.374449830381664" lon="120.94491732299115"><ele>42.0</ele><time>2026-04-16T05:40:55.001Z</time></trkpt><trkpt lat="14.374331288146713" lon="120.94476279349308"><ele>41.666666666666664</ele><time>2026-04-16T05:40:56.001Z</time></trkpt><trkpt lat="14.374222645309997" lon="120.94461632428943"><ele>41.33333333333333</ele><time>2026-04-16T05:40:57.001Z</time></trkpt><trkpt lat="14.374072187809874" lon="120.9444275117124"><ele>41.0</ele><time>2026-04-16T05:40:58.001Z</time></trkpt><trkpt lat="14.373943435971078" lon="120.94426155937637"><ele>41.0</ele><time>2026-04-16T05:40:59.001Z</time></trkpt><trkpt lat="14.373812921528927" lon="120.94409294032457"><ele>41.0</ele><time>2026-04-16T05:41:00.001Z</time></trkpt><trkpt lat="14.373677361818308" lon="120.943924876149"><ele>41.0</ele><time>2026-04-16T05:41:01.001Z</time></trkpt><trkpt lat="14.373554995751205" lon="120.94374445660827"><ele>41.0</ele><time>2026-04-16T05:41:02.001Z</time></trkpt><trkpt lat="14.37342201976692" lon="120.94356802176682"><ele>41.0</ele><time>2026-04-16T05:41:03.001Z</time></trkpt><trkpt lat="14.373329348457647" lon="120.94337222511216"><ele>41.0</ele><time>2026-04-16T05:41:04.001Z</time></trkpt><trkpt lat="14.373261810680123" lon="120.94316448563166"><ele>40.666666666666664</ele><time>2026-04-16T05:41:05.001Z</time></trkpt><trkpt lat="14.373217843922797" lon="120.94297101190473"><ele>40.333333333333336</ele><time>2026-04-16T05:41:06.001Z</time></trkpt><trkpt lat="14.37319675950316" lon="120.94278677288207"><ele>40.0</ele><time>2026-04-16T05:41:07.001Z</time></trkpt><trkpt lat="14.373192559256301" lon="120.94261342257538"><ele>39.333333333333336</ele><time>2026-04-16T05:41:08.001Z</time></trkpt><trkpt lat="14.373178397526607" lon="120.942446739652"><ele>38.666666666666664</ele><time>2026-04-16T05:41:09.001Z</time></trkpt><trkpt lat="14.373169641584825" lon="120.9422944226959"><ele>38.0</ele><time>2026-04-16T05:41:10.001Z</time></trkpt><trkpt lat="14.373160686785921" lon="120.94214044222711"><ele>38.0</ele><time>2026-04-16T05:41:11.001Z</time></trkpt><trkpt lat="14.373154706968888" lon="120.94198432793523"><ele>38.0</ele><time>2026-04-16T05:41:12.001Z</time></trkpt><trkpt lat="14.373154297819921" lon="120.94182918718036"><ele>38.0</ele><time>2026-04-16T05:41:13.001Z</time></trkpt><trkpt lat="14.373152669849267" lon="120.94169341578494"><ele>38.0</ele><time>2026-04-16T05:41:14.001Z</time></trkpt><trkpt lat="14.373146585086062" lon="120.94156502123586"><ele>38.8</ele><time>2026-04-16T05:41:15.001Z</time></trkpt><trkpt lat="14.373134381661504" lon="120.9414352597073"><ele>39.599999999999994</ele><time>2026-04-16T05:41:16.001Z</time></trkpt><trkpt lat="14.37311787454893" lon="120.94130575117784"><ele>40.400000000000006</ele><time>2026-04-16T05:41:17.001Z</time></trkpt><trkpt lat="14.373081043162777" lon="120.9411880828864"><ele>41.2</ele><time>2026-04-16T05:41:18.001Z</time></trkpt><trkpt lat="14.373061149696706" lon="120.94111340207505"><ele>42.0</ele><time>2026-04-16T05:41:19.001Z</time></trkpt><trkpt lat="14.37305758631352" lon="120.94104056261942"><ele>42.0</ele><time>2026-04-16T05:41:20.001Z</time></trkpt><trkpt lat="14.373025396012286" lon="120.94094258696566"><ele>42.0</ele><time>2026-04-16T05:41:21.001Z</time></trkpt><trkpt lat="14.372980866000791" lon="120.94082163750338"><ele>42.0</ele><time>2026-04-16T05:41:22.001Z</time></trkpt><trkpt lat="14.372928623760748" lon="120.94070820227881"><ele>42.0</ele><time>2026-04-16T05:41:23.001Z</time></trkpt><trkpt lat="14.372864831862387" lon="120.94058196135997"><ele>42.0</ele><time>2026-04-16T05:41:24.001Z</time></trkpt><trkpt lat="14.372791539077152" lon="120.94043044064753"><ele>42.0</ele><time>2026-04-16T05:41:25.001Z</time></trkpt><trkpt lat="14.37271572588092" lon="120.94029084731876"><ele>42.0</ele><time>2026-04-16T05:41:26Z</time></trkpt><trkpt lat="14.372635772970531" lon="120.94015033253008"><ele>42.0</ele><time>2026-04-16T05:41:27Z</time></trkpt><trkpt lat="14.372546663097456" lon="120.93999641793661"><ele>42.0</ele><time>2026-04-16T05:41:28Z</time></trkpt><trkpt lat="14.372455449609186" lon="120.93984688419533"><ele>42.0</ele><time>2026-04-16T05:41:29Z</time></trkpt><trkpt lat="14.372357927413628" lon="120.93969145755663"><ele>42.0</ele><time>2026-04-16T05:41:30Z</time></trkpt><trkpt lat="14.372257225918672" lon="120.93954139893754"><ele>42.0</ele><time>2026-04-16T05:41:31Z</time></trkpt><trkpt lat="14.372157919535681" lon="120.93938796400677"><ele>42.0</ele><time>2026-04-16T05:41:31.999Z</time></trkpt><trkpt lat="14.372051685175132" lon="120.93923872490836"><ele>41.666666666666664</ele><time>2026-04-16T05:41:33Z</time></trkpt><trkpt lat="14.371948223552085" lon="120.93909222522299"><ele>41.33333333333333</ele><time>2026-04-16T05:41:34Z</time></trkpt><trkpt lat="14.371844716456202" lon="120.93894280802333"><ele>41.0</ele><time>2026-04-16T05:41:35Z</time></trkpt><trkpt lat="14.371739462713881" lon="120.93879677171998"><ele>41.0</ele><time>2026-04-16T05:41:36Z</time></trkpt><trkpt lat="14.371632777363233" lon="120.93866077074586"><ele>41.0</ele><time>2026-04-16T05:41:37Z</time></trkpt><trkpt lat="14.371517580931966" lon="120.93853228853385"><ele>41.0</ele><time>2026-04-16T05:41:38Z</time></trkpt><trkpt lat="14.371394060094087" lon="120.93841305444366"><ele>40.666666666666664</ele><time>2026-04-16T05:41:39Z</time></trkpt><trkpt lat="14.371267271588284" lon="120.93830487037738"><ele>40.333333333333336</ele><time>2026-04-16T05:41:40Z</time></trkpt><trkpt lat="14.371116196383895" lon="120.93819961835"><ele>40.0</ele><time>2026-04-16T05:41:41Z</time></trkpt><trkpt lat="14.37097263100603" lon="120.93809081265161"><ele>40.0</ele><time>2026-04-16T05:41:42Z</time></trkpt><trkpt lat="14.370836486175172" lon="120.93798902350125"><ele>40.0</ele><time>2026-04-16T05:41:43Z</time></trkpt><trkpt lat="14.370710197343396" lon="120.93789151621773"><ele>40.0</ele><time>2026-04-16T05:41:44Z</time></trkpt><trkpt lat="14.370588203300619" lon="120.93780497845697"><ele>40.5</ele><time>2026-04-16T05:41:45Z</time></trkpt><trkpt lat="14.370482713795019" lon="120.93772297367046"><ele>41.0</ele><time>2026-04-16T05:41:46Z</time></trkpt><trkpt lat="14.370382796563863" lon="120.93764688887406"><ele>41.5</ele><time>2026-04-16T05:41:47Z</time></trkpt><trkpt lat="14.370292867562288" lon="120.93756015990668"><ele>42.0</ele><time>2026-04-16T05:41:48Z</time></trkpt><trkpt lat="14.370175574254988" lon="120.93752366620589"><ele>42.0</ele><time>2026-04-16T05:41:49Z</time></trkpt><trkpt lat="14.370078028273397" lon="120.93747621025327"><ele>42.0</ele><time>2026-04-16T05:41:50Z</time></trkpt><trkpt lat="14.369990437397266" lon="120.93743361855701"><ele>42.0</ele><time>2026-04-16T05:41:51Z</time></trkpt><trkpt lat="14.369900908279899" lon="120.93739087465296"><ele>42.0</ele><time>2026-04-16T05:41:52Z</time></trkpt><trkpt lat="14.369840684532582" lon="120.93730841529202"><ele>42.0</ele><time>2026-04-16T05:41:53Z</time></trkpt><trkpt lat="14.36976305127268" lon="120.93724680498133"><ele>42.0</ele><time>2026-04-16T05:41:54Z</time></trkpt><trkpt lat="14.369724700416299" lon="120.93716699012765"><ele>42.0</ele><time>2026-04-16T05:41:55Z</time></trkpt><trkpt lat="14.369687236055718" lon="120.93707738967817"><ele>42.0</ele><time>2026-04-16T05:41:56Z</time></trkpt><trkpt lat="14.369645337670669" lon="120.93696924593027"><ele>42.0</ele><time>2026-04-16T05:41:57Z</time></trkpt><trkpt lat="14.369602599725354" lon="120.93686019884753"><ele>42.0</ele><time>2026-04-16T05:41:58Z</time></trkpt><trkpt lat="14.369564636890836" lon="120.93676333558732"><ele>41.666666666666664</ele><time>2026-04-16T05:41:59Z</time></trkpt><trkpt lat="14.36952574485019" lon="120.93666539330273"><ele>41.333333333333336</ele><time>2026-04-16T05:42:00Z</time></trkpt><trkpt lat="14.369493547139314" lon="120.93658464281599"><ele>41.0</ele><time>2026-04-16T05:42:01Z</time></trkpt><trkpt lat="14.369460333151995" lon="120.93650134354617"><ele>40.66666666666667</ele><time>2026-04-16T05:42:02Z</time></trkpt><trkpt lat="14.369433317645678" lon="120.93643358979546"><ele>40.333333333333336</ele><time>2026-04-16T05:42:03Z</time></trkpt><trkpt lat="14.36940641658508" lon="120.93636612307948"><ele>40.0</ele><time>2026-04-16T05:42:04Z</time></trkpt><trkpt lat="14.369377989771563" lon="120.9362921345094"><ele>40.0</ele><time>2026-04-16T05:42:05Z</time></trkpt><trkpt lat="14.369352036769143" lon="120.93622441859148"><ele>40.0</ele><time>2026-04-16T05:42:06Z</time></trkpt><trkpt lat="14.369319865186574" lon="120.93614181981262"><ele>40.0</ele><time>2026-04-16T05:42:07Z</time></trkpt><trkpt lat="14.369286750668316" lon="120.93605766267892"><ele>40.0</ele><time>2026-04-16T05:42:08Z</time></trkpt><trkpt lat="14.369256391572073" lon="120.93598098246586"><ele>40.0</ele><time>2026-04-16T05:42:09Z</time></trkpt><trkpt lat="14.369219033642388" lon="120.93588330787836"><ele>40.0</ele><time>2026-04-16T05:42:10Z</time></trkpt><trkpt lat="14.369180292493208" lon="120.93578526021268"><ele>39.8</ele><time>2026-04-16T05:42:11Z</time></trkpt><trkpt lat="14.369146829982645" lon="120.93570028158105"><ele>39.6</ele><time>2026-04-16T05:42:12Z</time></trkpt><trkpt lat="14.369108963935204" lon="120.93560289934864"><ele>39.4</ele><time>2026-04-16T05:42:13Z</time></trkpt><trkpt lat="14.369071772433356" lon="120.93550754324227"><ele>39.2</ele><time>2026-04-16T05:42:14Z</time></trkpt><trkpt lat="14.36903453714919" lon="120.93541441165029"><ele>39.0</ele><time>2026-04-16T05:42:15Z</time></trkpt><trkpt lat="14.368994167783692" lon="120.93532712726771"><ele>39.0</ele><time>2026-04-16T05:42:16Z</time></trkpt><trkpt lat="14.368952719457265" lon="120.93523814554227"><ele>39.0</ele><time>2026-04-16T05:42:17Z</time></trkpt><trkpt lat="14.368902338046572" lon="120.93513208962534"><ele>39.0</ele><time>2026-04-16T05:42:18Z</time></trkpt><trkpt lat="14.368851872931481" lon="120.93503546429038"><ele>39.0</ele><time>2026-04-16T05:42:19Z</time></trkpt><trkpt lat="14.368801509352782" lon="120.93493895441094"><ele>39.0</ele><time>2026-04-16T05:42:20Z</time></trkpt><trkpt lat="14.368741843917416" lon="120.9348312741804"><ele>39.2</ele><time>2026-04-16T05:42:21Z</time></trkpt><trkpt lat="14.368677629116371" lon="120.93471598314154"><ele>39.4</ele><time>2026-04-16T05:42:22Z</time></trkpt><trkpt lat="14.368643951899838" lon="120.9346551488778"><ele>39.6</ele><time>2026-04-16T05:42:23Z</time></trkpt><trkpt lat="14.368599681262959" lon="120.93457214153017"><ele>39.8</ele><time>2026-04-16T05:42:24Z</time></trkpt><trkpt lat="14.368557584056134" lon="120.93449518839367"><ele>40.0</ele><time>2026-04-16T05:42:25Z</time></trkpt><trkpt lat="14.368518610001217" lon="120.93442233076496"><ele>40.0</ele><time>2026-04-16T05:42:26Z</time></trkpt><trkpt lat="14.368474596755622" lon="120.93434005295005"><ele>40.0</ele><time>2026-04-16T05:42:27Z</time></trkpt><trkpt lat="14.368427215478965" lon="120.93425147897148"><ele>40.0</ele><time>2026-04-16T05:42:28Z</time></trkpt><trkpt lat="14.368376515954038" lon="120.93415647983977"><ele>40.0</ele><time>2026-04-16T05:42:29Z</time></trkpt><trkpt lat="14.368326848132947" lon="120.9340627779291"><ele>40.0</ele><time>2026-04-16T05:42:30Z</time></trkpt><trkpt lat="14.368273079769349" lon="120.93396249992816"><ele>39.8</ele><time>2026-04-16T05:42:31Z</time></trkpt><trkpt lat="14.36821918638525" lon="120.93386179173928"><ele>39.6</ele><time>2026-04-16T05:42:32Z</time></trkpt><trkpt lat="14.368168969302529" lon="120.93376703592168"><ele>39.4</ele><time>2026-04-16T05:42:33Z</time></trkpt><trkpt lat="14.368119431071056" lon="120.93367375600512"><ele>39.2</ele><time>2026-04-16T05:42:34Z</time></trkpt><trkpt lat="14.368071422094033" lon="120.93358335566495"><ele>39.0</ele><time>2026-04-16T05:42:35Z</time></trkpt><trkpt lat="14.3680285903936" lon="120.93350270407608"><ele>39.4</ele><time>2026-04-16T05:42:36Z</time></trkpt><trkpt lat="14.367984585958286" lon="120.9334198442387"><ele>39.8</ele><time>2026-04-16T05:42:37.001Z</time></trkpt><trkpt lat="14.367939048676892" lon="120.93333409813008"><ele>40.199999999999996</ele><time>2026-04-16T05:42:38.001Z</time></trkpt><trkpt lat="14.3678903950217" lon="120.93324654426551"><ele>40.599999999999994</ele><time>2026-04-16T05:42:39.001Z</time></trkpt><trkpt lat="14.367847432792074" lon="120.93316942727196"><ele>41.0</ele><time>2026-04-16T05:42:40.001Z</time></trkpt><trkpt lat="14.367805280493293" lon="120.93309060301998"><ele>41.0</ele><time>2026-04-16T05:42:41.001Z</time></trkpt><trkpt lat="14.367764677977378" lon="120.93300237071406"><ele>41.0</ele><time>2026-04-16T05:42:42.001Z</time></trkpt><trkpt lat="14.36775049162034" lon="120.93290824694606"><ele>41.0</ele><time>2026-04-16T05:42:43.001Z</time></trkpt><trkpt lat="14.367741398841353" lon="120.93281406186884"><ele>41.0</ele><time>2026-04-16T05:42:44.001Z</time></trkpt><trkpt lat="14.367731517645664" lon="120.93268447870614"><ele>41.0</ele><time>2026-04-16T05:42:45.001Z</time></trkpt><trkpt lat="14.367719353595865" lon="120.93255212409058"><ele>41.0</ele><time>2026-04-16T05:42:46.001Z</time></trkpt><trkpt lat="14.367705538912526" lon="120.9324018092597"><ele>41.0</ele><time>2026-04-16T05:42:47.001Z</time></trkpt><trkpt lat="14.367692553334628" lon="120.9322605157601"><ele>41.0</ele><time>2026-04-16T05:42:48.001Z</time></trkpt><trkpt lat="14.367678220195629" lon="120.93210455972049"><ele>41.0</ele><time>2026-04-16T05:42:49.001Z</time></trkpt><trkpt lat="14.367665013533868" lon="120.93196086065471"><ele>41.0</ele><time>2026-04-16T05:42:50.001Z</time></trkpt><trkpt lat="14.367652836524183" lon="120.93182836501535"><ele>41.0</ele><time>2026-04-16T05:42:51.001Z</time></trkpt><trkpt lat="14.367584466512348" lon="120.93170492378702"><ele>41.0</ele><time>2026-04-16T05:42:52.001Z</time></trkpt><trkpt lat="14.367568642220672" lon="120.93157749706928"><ele>41.0</ele><time>2026-04-16T05:42:53.001Z</time></trkpt><trkpt lat="14.367576065141215" lon="120.93148812459506"><ele>41.14285714285714</ele><time>2026-04-16T05:42:54.001Z</time></trkpt><trkpt lat="14.367569476845356" lon="120.93139536674069"><ele>41.285714285714285</ele><time>2026-04-16T05:42:55.001Z</time></trkpt><trkpt lat="14.367564043483343" lon="120.93131886945307"><ele>41.42857142857143</ele><time>2026-04-16T05:42:56.001Z</time></trkpt><trkpt lat="14.367558897796965" lon="120.93124642238097"><ele>41.57142857142857</ele><time>2026-04-16T05:42:57.001Z</time></trkpt><trkpt lat="14.367554098200015" lon="120.93117884798835"><ele>41.714285714285715</ele><time>2026-04-16T05:42:58.001Z</time></trkpt><trkpt lat="14.367548906667228" lon="120.9311057554473"><ele>41.857142857142854</ele><time>2026-04-16T05:42:59.001Z</time></trkpt><trkpt lat="14.367543349290422" lon="120.93102793292927"><ele>42.0</ele><time>2026-04-16T05:43:00.001Z</time></trkpt><trkpt lat="14.367533208193342" lon="120.93088599149016"><ele>42.0</ele><time>2026-04-16T05:43:02.001Z</time></trkpt><trkpt lat="14.367527431594274" lon="120.9308051384316"><ele>42.0</ele><time>2026-04-16T05:43:03.001Z</time></trkpt><trkpt lat="14.3675217092939" lon="120.93072504536391"><ele>42.0</ele><time>2026-04-16T05:43:04.001Z</time></trkpt><trkpt lat="14.36751503156189" lon="120.93063117500547"><ele>42.0</ele><time>2026-04-16T05:43:05.001Z</time></trkpt><trkpt lat="14.367510326343888" lon="120.93056477657416"><ele>42.0</ele><time>2026-04-16T05:43:06.001Z</time></trkpt><trkpt lat="14.367505575400884" lon="120.9304977328722"><ele>42.0</ele><time>2026-04-16T05:43:07.001Z</time></trkpt><trkpt lat="14.36749907302253" lon="120.93040597352649"><ele>42.0</ele><time>2026-04-16T05:43:09.001Z</time></trkpt><trkpt lat="14.367492914538076" lon="120.93031906709373"><ele>42.0</ele><time>2026-04-16T05:43:11.001Z</time></trkpt><trkpt lat="14.367487983623132" lon="120.93024948370919"><ele>42.0</ele><time>2026-04-16T05:43:14.001Z</time></trkpt><trkpt lat="14.367482508414119" lon="120.93017221935462"><ele>42.0</ele><time>2026-04-16T05:43:18.001Z</time></trkpt><trkpt lat="14.367461413316578" lon="120.93009654146583"><ele>42.0</ele><time>2026-04-16T05:43:20.001Z</time></trkpt><trkpt lat="14.367460032749692" lon="120.930011479784"><ele>42.0</ele><time>2026-04-16T05:43:23.001Z</time></trkpt><trkpt lat="14.367457447853509" lon="120.9298989326049"><ele>42.0</ele><time>2026-04-16T05:43:26.001Z</time></trkpt><trkpt lat="14.367454740126721" lon="120.9298330521233"><ele>42.0</ele><time>2026-04-16T05:43:28.001Z</time></trkpt><trkpt lat="14.367436748295209" lon="120.92973305441954"><ele>42.0</ele><time>2026-04-16T05:43:32Z</time></trkpt><trkpt lat="14.367433917533674" lon="120.92965804850898"><ele>42.0</ele><time>2026-04-16T05:43:35Z</time></trkpt><trkpt lat="14.367430754565104" lon="120.92956025796052"><ele>42.0</ele><time>2026-04-16T05:43:37Z</time></trkpt><trkpt lat="14.367425449696341" lon="120.92944448381866"><ele>42.0</ele><time>2026-04-16T05:43:39Z</time></trkpt><trkpt lat="14.367425259898154" lon="120.92936709194055"><ele>42.0</ele><time>2026-04-16T05:43:40Z</time></trkpt><trkpt lat="14.367429294162555" lon="120.92929527063484"><ele>42.0</ele><time>2026-04-16T05:43:41Z</time></trkpt><trkpt lat="14.367424929062832" lon="120.92919804300341"><ele>42.0</ele><time>2026-04-16T05:43:43Z</time></trkpt><trkpt lat="14.3674215609327" lon="120.92911336570505"><ele>42.0</ele><time>2026-04-16T05:43:46.999Z</time></trkpt><trkpt lat="14.367414738956466" lon="120.92898027640611"><ele>42.0</ele><time>2026-04-16T05:43:49Z</time></trkpt><trkpt lat="14.367415118228353" lon="120.92887714635208"><ele>41.833333333333336</ele><time>2026-04-16T05:43:51Z</time></trkpt><trkpt lat="14.367418856633932" lon="120.92877383150426"><ele>41.666666666666664</ele><time>2026-04-16T05:43:53Z</time></trkpt><trkpt lat="14.367429141839049" lon="120.92868695268383"><ele>41.5</ele><time>2026-04-16T05:43:55Z</time></trkpt><trkpt lat="14.367464863564562" lon="120.92860673887371"><ele>41.33333333333333</ele><time>2026-04-16T05:43:57Z</time></trkpt><trkpt lat="14.3675163311064" lon="120.92855190604365"><ele>41.166666666666664</ele><time>2026-04-16T05:43:59Z</time></trkpt><trkpt lat="14.367554381831594" lon="120.92847606953057"><ele>41.0</ele><time>2026-04-16T05:44:02Z</time></trkpt><trkpt lat="14.367588063267709" lon="120.92836468041516"><ele>40.4</ele><time>2026-04-16T05:44:04Z</time></trkpt><trkpt lat="14.367620662316265" lon="120.92827136426129"><ele>39.8</ele><time>2026-04-16T05:44:05Z</time></trkpt><trkpt lat="14.367653607772933" lon="120.92818621316285"><ele>39.199999999999996</ele><time>2026-04-16T05:44:06Z</time></trkpt><trkpt lat="14.367697972505896" lon="120.9280719914816"><ele>38.599999999999994</ele><time>2026-04-16T05:44:07Z</time></trkpt><trkpt lat="14.367737639563055" lon="120.92797183056814"><ele>38.0</ele><time>2026-04-16T05:44:08Z</time></trkpt><trkpt lat="14.367786483800883" lon="120.92784742901702"><ele>38.0</ele><time>2026-04-16T05:44:09Z</time></trkpt><trkpt lat="14.367842847487259" lon="120.92772022141124"><ele>38.0</ele><time>2026-04-16T05:44:10Z</time></trkpt><trkpt lat="14.36789146261186" lon="120.92759695136154"><ele>38.0</ele><time>2026-04-16T05:44:11Z</time></trkpt><trkpt lat="14.367922836355357" lon="120.92748092647096"><ele>38.0</ele><time>2026-04-16T05:44:12Z</time></trkpt><trkpt lat="14.367928208267957" lon="120.92736712952384"><ele>39.0</ele><time>2026-04-16T05:44:13Z</time></trkpt><trkpt lat="14.367907155836674" lon="120.9272539943168"><ele>40.0</ele><time>2026-04-16T05:44:14Z</time></trkpt><trkpt lat="14.367867281590684" lon="120.9271410640839"><ele>41.0</ele><time>2026-04-16T05:44:15Z</time></trkpt><trkpt lat="14.36782883432243" lon="120.92701686927525"><ele>42.0</ele><time>2026-04-16T05:44:16Z</time></trkpt><trkpt lat="14.36780624212874" lon="120.92688650465445"><ele>42.0</ele><time>2026-04-16T05:44:17Z</time></trkpt><trkpt lat="14.367779013111086" lon="120.92675416246185"><ele>42.0</ele><time>2026-04-16T05:44:18Z</time></trkpt><trkpt lat="14.367746212867171" lon="120.92662471970263"><ele>42.0</ele><time>2026-04-16T05:44:19Z</time></trkpt><trkpt lat="14.367718300433749" lon="120.92649788476153"><ele>42.0</ele><time>2026-04-16T05:44:20Z</time></trkpt><trkpt lat="14.367691410284012" lon="120.92637408065535"><ele>42.0</ele><time>2026-04-16T05:44:21Z</time></trkpt><trkpt lat="14.367673205623182" lon="120.92625511939505"><ele>42.0</ele><time>2026-04-16T05:44:22Z</time></trkpt><trkpt lat="14.36766554389485" lon="120.9261332175239"><ele>42.0</ele><time>2026-04-16T05:44:23Z</time></trkpt><trkpt lat="14.367666528687042" lon="120.92601373902936"><ele>42.0</ele><time>2026-04-16T05:44:24Z</time></trkpt><trkpt lat="14.367674845650374" lon="120.92589906074974"><ele>41.8</ele><time>2026-04-16T05:44:25Z</time></trkpt><trkpt lat="14.367683112704903" lon="120.92578816437826"><ele>41.6</ele><time>2026-04-16T05:44:26Z</time></trkpt><trkpt lat="14.367687755122844" lon="120.92567953124693"><ele>41.4</ele><time>2026-04-16T05:44:27Z</time></trkpt><trkpt lat="14.367696489115081" lon="120.92558037235409"><ele>41.199999999999996</ele><time>2026-04-16T05:44:28Z</time></trkpt><trkpt lat="14.367702460825695" lon="120.92548371380057"><ele>41.0</ele><time>2026-04-16T05:44:29Z</time></trkpt><trkpt lat="14.367708591107403" lon="120.92539267438424"><ele>41.0</ele><time>2026-04-16T05:44:30Z</time></trkpt><trkpt lat="14.36772003768799" lon="120.92529804123626"><ele>41.0</ele><time>2026-04-16T05:44:31Z</time></trkpt><trkpt lat="14.367720672028847" lon="120.92519440831204"><ele>41.0</ele><time>2026-04-16T05:44:32Z</time></trkpt><trkpt lat="14.367714809481035" lon="120.92509446055935"><ele>41.0</ele><time>2026-04-16T05:44:33Z</time></trkpt><trkpt lat="14.367698640322692" lon="120.92498599947956"><ele>41.0</ele><time>2026-04-16T05:44:34Z</time></trkpt><trkpt lat="14.367669309415886" lon="120.92486998936518"><ele>41.0</ele><time>2026-04-16T05:44:35Z</time></trkpt><trkpt lat="14.367632320416222" lon="120.92474828933041"><ele>41.0</ele><time>2026-04-16T05:44:36Z</time></trkpt><trkpt lat="14.367595760278544" lon="120.92463401274813"><ele>41.0</ele><time>2026-04-16T05:44:37Z</time></trkpt><trkpt lat="14.367558497088577" lon="120.92452572337662"><ele>41.0</ele><time>2026-04-16T05:44:38Z</time></trkpt><trkpt lat="14.367510262230446" lon="120.92440228642104"><ele>41.0</ele><time>2026-04-16T05:44:39Z</time></trkpt><trkpt lat="14.367469465029414" lon="120.92427670239802"><ele>41.0</ele><time>2026-04-16T05:44:40Z</time></trkpt><trkpt lat="14.367432714213395" lon="120.92414140654435"><ele>41.0</ele><time>2026-04-16T05:44:41Z</time></trkpt><trkpt lat="14.367409486533909" lon="120.92399846058413"><ele>41.0</ele><time>2026-04-16T05:44:42Z</time></trkpt><trkpt lat="14.36739116805741" lon="120.92384605397714"><ele>41.0</ele><time>2026-04-16T05:44:43Z</time></trkpt><trkpt lat="14.367375020336386" lon="120.92368844623181"><ele>41.0</ele><time>2026-04-16T05:44:44Z</time></trkpt><trkpt lat="14.367350734397952" lon="120.92352863211337"><ele>41.0</ele><time>2026-04-16T05:44:45Z</time></trkpt><trkpt lat="14.367322062117966" lon="120.92336691232734"><ele>41.0</ele><time>2026-04-16T05:44:46Z</time></trkpt><trkpt lat="14.367299982972078" lon="120.92321027369073"><ele>41.0</ele><time>2026-04-16T05:44:47.001Z</time></trkpt><trkpt lat="14.367274143913512" lon="120.92303472611582"><ele>41.0</ele><time>2026-04-16T05:44:48.001Z</time></trkpt><trkpt lat="14.367256239472834" lon="120.92287211293281"><ele>41.0</ele><time>2026-04-16T05:44:49.001Z</time></trkpt><trkpt lat="14.36723785257378" lon="120.92271083489582"><ele>41.0</ele><time>2026-04-16T05:44:50.001Z</time></trkpt><trkpt lat="14.367212476788623" lon="120.9225323886457"><ele>41.0</ele><time>2026-04-16T05:44:51.001Z</time></trkpt><trkpt lat="14.367187529498429" lon="120.92235347664678"><ele>40.33333333333333</ele><time>2026-04-16T05:44:52.001Z</time></trkpt><trkpt lat="14.367163562509164" lon="120.92217547740223"><ele>39.666666666666664</ele><time>2026-04-16T05:44:53.001Z</time></trkpt><trkpt lat="14.367142413434069" lon="120.92199170433896"><ele>39.0</ele><time>2026-04-16T05:44:54.001Z</time></trkpt><trkpt lat="14.36712096789271" lon="120.92182140940236"><ele>39.0</ele><time>2026-04-16T05:44:55.001Z</time></trkpt><trkpt lat="14.367091353695605" lon="120.92163148358387"><ele>39.0</ele><time>2026-04-16T05:44:56.001Z</time></trkpt><trkpt lat="14.367061982851816" lon="120.92145298042264"><ele>39.0</ele><time>2026-04-16T05:44:57.001Z</time></trkpt><trkpt lat="14.367030751308794" lon="120.92126663564663"><ele>39.0</ele><time>2026-04-16T05:44:58.001Z</time></trkpt><trkpt lat="14.366998459769945" lon="120.92107767234978"><ele>39.0</ele><time>2026-04-16T05:44:59.001Z</time></trkpt><trkpt lat="14.366967707077588" lon="120.92088816111564"><ele>39.0</ele><time>2026-04-16T05:45:00.001Z</time></trkpt><trkpt lat="14.366935245093126" lon="120.92070598639476"><ele>39.666666666666664</ele><time>2026-04-16T05:45:01.001Z</time></trkpt><trkpt lat="14.36690557104888" lon="120.92054037094192"><ele>40.33333333333333</ele><time>2026-04-16T05:45:02.001Z</time></trkpt><trkpt lat="14.366877023046978" lon="120.92038016317508"><ele>41.0</ele><time>2026-04-16T05:45:03.001Z</time></trkpt><trkpt lat="14.366851453204232" lon="120.92024498819774"><ele>41.0</ele><time>2026-04-16T05:45:04.001Z</time></trkpt><trkpt lat="14.36683069473062" lon="120.92012130296118"><ele>41.0</ele><time>2026-04-16T05:45:05.001Z</time></trkpt><trkpt lat="14.366810662183289" lon="120.9200050997439"><ele>41.0</ele><time>2026-04-16T05:45:06.001Z</time></trkpt><trkpt lat="14.366794997417887" lon="120.91989899199586"><ele>41.0</ele><time>2026-04-16T05:45:07.001Z</time></trkpt><trkpt lat="14.366776763410948" lon="120.91980121260274"><ele>41.0</ele><time>2026-04-16T05:45:08.001Z</time></trkpt><trkpt lat="14.366758958616101" lon="120.9197150128494"><ele>41.599999999999994</ele><time>2026-04-16T05:45:09.001Z</time></trkpt><trkpt lat="14.36674016154368" lon="120.9196350508534"><ele>42.2</ele><time>2026-04-16T05:45:10.001Z</time></trkpt><trkpt lat="14.366718625558965" lon="120.91951881357153"><ele>42.8</ele><time>2026-04-16T05:45:12.001Z</time></trkpt><trkpt lat="14.366715836445755" lon="120.91945359098631"><ele>43.400000000000006</ele><time>2026-04-16T05:45:14.001Z</time></trkpt><trkpt lat="14.366812566860391" lon="120.91943809143685"><ele>44.0</ele><time>2026-04-16T05:45:15.001Z</time></trkpt><trkpt lat="14.366916076177754" lon="120.91940479904166"><ele>44.0</ele><time>2026-04-16T05:45:17.001Z</time></trkpt><trkpt lat="14.366981316911222" lon="120.91938565758109"><ele>44.0</ele><time>2026-04-16T05:45:18.001Z</time></trkpt><trkpt lat="14.367091159453214" lon="120.91935272528326"><ele>44.0</ele><time>2026-04-16T05:45:20.001Z</time></trkpt><trkpt lat="14.36715168531152" lon="120.91933458714493"><ele>44.0</ele><time>2026-04-16T05:45:21.001Z</time></trkpt><trkpt lat="14.367266942243718" lon="120.9193000766842"><ele>44.0</ele><time>2026-04-16T05:45:23.001Z</time></trkpt><trkpt lat="14.367320705145417" lon="120.91925463061754"><ele>44.0</ele><time>2026-04-16T05:45:24.001Z</time></trkpt><trkpt lat="14.36742411903025" lon="120.91922657700967"><ele>44.166666666666664</ele><time>2026-04-16T05:45:26.001Z</time></trkpt><trkpt lat="14.367509911578397" lon="120.91921561538419"><ele>44.33333333333333</ele><time>2026-04-16T05:45:28.001Z</time></trkpt><trkpt lat="14.367571374885703" lon="120.91919736092663"><ele>44.5</ele><time>2026-04-16T05:45:29.001Z</time></trkpt><trkpt lat="14.36767323757749" lon="120.91917303706816"><ele>44.666666666666664</ele><time>2026-04-16T05:45:31.001Z</time></trkpt><trkpt lat="14.367770169203602" lon="120.91915003166947"><ele>44.833333333333336</ele><time>2026-04-16T05:45:33.001Z</time></trkpt><trkpt lat="14.367839731129758" lon="120.91914240894475"><ele>45.0</ele><time>2026-04-16T05:45:34.001Z</time></trkpt><trkpt lat="14.36792045213446" lon="120.9191274892061"><ele>45.0</ele><time>2026-04-16T05:45:35.001Z</time></trkpt><trkpt lat="14.368011424137457" lon="120.91911067454961"><ele>45.0</ele><time>2026-04-16T05:45:36.001Z</time></trkpt><trkpt lat="14.368107036797245" lon="120.91907831456656"><ele>45.0</ele><time>2026-04-16T05:45:37.001Z</time></trkpt><trkpt lat="14.368216760679708" lon="120.9190611407766"><ele>45.0</ele><time>2026-04-16T05:45:38Z</time></trkpt><trkpt lat="14.368333071307541" lon="120.91904404437952"><ele>45.0</ele><time>2026-04-16T05:45:39Z</time></trkpt><trkpt lat="14.368464289834598" lon="120.919009973887"><ele>44.75</ele><time>2026-04-16T05:45:40Z</time></trkpt><trkpt lat="14.368592629000661" lon="120.9189916179409"><ele>44.5</ele><time>2026-04-16T05:45:41Z</time></trkpt><trkpt lat="14.368730733294694" lon="120.91897178130964"><ele>44.25</ele><time>2026-04-16T05:45:42Z</time></trkpt><trkpt lat="14.36887849425969" lon="120.91894296654301"><ele>44.0</ele><time>2026-04-16T05:45:43Z</time></trkpt><trkpt lat="14.369032429783683" lon="120.91891280092248"><ele>43.33333333333333</ele><time>2026-04-16T05:45:44Z</time></trkpt><trkpt lat="14.369186589819492" lon="120.91888983151176"><ele>42.666666666666664</ele><time>2026-04-16T05:45:45Z</time></trkpt><trkpt lat="14.369344676578343" lon="120.91886318938279"><ele>42.0</ele><time>2026-04-16T05:45:46Z</time></trkpt><trkpt lat="14.369502830703047" lon="120.91883409913957"><ele>42.0</ele><time>2026-04-16T05:45:47Z</time></trkpt><trkpt lat="14.369650227463577" lon="120.91880995269875"><ele>42.0</ele><time>2026-04-16T05:45:48Z</time></trkpt><trkpt lat="14.369790810821629" lon="120.91878313829429"><ele>42.0</ele><time>2026-04-16T05:45:49Z</time></trkpt><trkpt lat="14.369928545982567" lon="120.91875923322722"><ele>42.0</ele><time>2026-04-16T05:45:50Z</time></trkpt><trkpt lat="14.370066769175072" lon="120.91873589163477"><ele>41.0</ele><time>2026-04-16T05:45:51Z</time></trkpt><trkpt lat="14.370200834338258" lon="120.91871687317813"><ele>40.0</ele><time>2026-04-16T05:45:52Z</time></trkpt><trkpt lat="14.3703279191014" lon="120.91869254286132"><ele>39.0</ele><time>2026-04-16T05:45:53Z</time></trkpt><trkpt lat="14.370447382742901" lon="120.91866835033412"><ele>38.0</ele><time>2026-04-16T05:45:54Z</time></trkpt><trkpt lat="14.370562197394065" lon="120.91864732433032"><ele>38.0</ele><time>2026-04-16T05:45:55Z</time></trkpt><trkpt lat="14.370669190039019" lon="120.91862580530147"><ele>38.0</ele><time>2026-04-16T05:45:56Z</time></trkpt><trkpt lat="14.370765069655866" lon="120.91860881248367"><ele>38.0</ele><time>2026-04-16T05:45:57Z</time></trkpt><trkpt lat="14.370866516887741" lon="120.91859122697682"><ele>38.0</ele><time>2026-04-16T05:45:58Z</time></trkpt><trkpt lat="14.370960312990738" lon="120.91859392131462"><ele>38.0</ele><time>2026-04-16T05:45:59Z</time></trkpt><trkpt lat="14.371069440874257" lon="120.91859636844428"><ele>38.0</ele><time>2026-04-16T05:46:00Z</time></trkpt><trkpt lat="14.371175154727158" lon="120.9186113923133"><ele>38.0</ele><time>2026-04-16T05:46:01Z</time></trkpt><trkpt lat="14.371289322957693" lon="120.9186243399194"><ele>38.0</ele><time>2026-04-16T05:46:02Z</time></trkpt><trkpt lat="14.37139487019312" lon="120.91864051152326"><ele>38.0</ele><time>2026-04-16T05:46:03Z</time></trkpt><trkpt lat="14.371515197447582" lon="120.91864201534743"><ele>38.0</ele><time>2026-04-16T05:46:04Z</time></trkpt><trkpt lat="14.371641054395964" lon="120.91863765820217"><ele>37.25</ele><time>2026-04-16T05:46:05Z</time></trkpt><trkpt lat="14.371774473778807" lon="120.91862964609285"><ele>36.5</ele><time>2026-04-16T05:46:06Z</time></trkpt><trkpt lat="14.371908981154423" lon="120.9186131210701"><ele>35.75</ele><time>2026-04-16T05:46:07Z</time></trkpt><trkpt lat="14.372047097882072" lon="120.91859132202718"><ele>35.0</ele><time>2026-04-16T05:46:08Z</time></trkpt><trkpt lat="14.372178230550265" lon="120.91857642519217"><ele>35.0</ele><time>2026-04-16T05:46:09Z</time></trkpt><trkpt lat="14.372311548247188" lon="120.91856372505958"><ele>35.0</ele><time>2026-04-16T05:46:10Z</time></trkpt><trkpt lat="14.37244961106759" lon="120.9185448313073"><ele>35.0</ele><time>2026-04-16T05:46:11Z</time></trkpt><trkpt lat="14.3725887177695" lon="120.9185216647522"><ele>35.0</ele><time>2026-04-16T05:46:12Z</time></trkpt><trkpt lat="14.372726378988004" lon="120.91850744301254"><ele>35.0</ele><time>2026-04-16T05:46:13Z</time></trkpt><trkpt lat="14.372859938864837" lon="120.91849989795331"><ele>35.0</ele><time>2026-04-16T05:46:14Z</time></trkpt><trkpt lat="14.373008351985646" lon="120.91848692517567"><ele>35.0</ele><time>2026-04-16T05:46:15Z</time></trkpt><trkpt lat="14.373151275918437" lon="120.91847144332608"><ele>35.0</ele><time>2026-04-16T05:46:16Z</time></trkpt><trkpt lat="14.37331906924692" lon="120.91846346725332"><ele>35.0</ele><time>2026-04-16T05:46:17Z</time></trkpt><trkpt lat="14.373482704977931" lon="120.91845183072041"><ele>35.0</ele><time>2026-04-16T05:46:18Z</time></trkpt><trkpt lat="14.373654629113021" lon="120.91844014433435"><ele>35.0</ele><time>2026-04-16T05:46:19Z</time></trkpt><trkpt lat="14.373847653175186" lon="120.91841363022948"><ele>35.0</ele><time>2026-04-16T05:46:20Z</time></trkpt><trkpt lat="14.374027673570318" lon="120.91837524082071"><ele>35.0</ele><time>2026-04-16T05:46:21Z</time></trkpt><trkpt lat="14.374202717267426" lon="120.91833425782778"><ele>35.0</ele><time>2026-04-16T05:46:22Z</time></trkpt><trkpt lat="14.37436877500351" lon="120.91830395889308"><ele>35.0</ele><time>2026-04-16T05:46:23Z</time></trkpt><trkpt lat="14.374574805851081" lon="120.91826858387321"><ele>35.0</ele><time>2026-04-16T05:46:24Z</time></trkpt><trkpt lat="14.374766804278591" lon="120.91822768378472"><ele>35.0</ele><time>2026-04-16T05:46:25Z</time></trkpt><trkpt lat="14.374957811802219" lon="120.91818714465884"><ele>35.33333333333333</ele><time>2026-04-16T05:46:26Z</time></trkpt><trkpt lat="14.375146666714842" lon="120.9181462767922"><ele>35.666666666666664</ele><time>2026-04-16T05:46:27Z</time></trkpt><trkpt lat="14.375335186212018" lon="120.91809909767471"><ele>36.0</ele><time>2026-04-16T05:46:28Z</time></trkpt><trkpt lat="14.375523401425154" lon="120.91805166352506"><ele>35.333333333333336</ele><time>2026-04-16T05:46:29Z</time></trkpt><trkpt lat="14.3757096954187" lon="120.91800540969864"><ele>34.66666666666667</ele><time>2026-04-16T05:46:30Z</time></trkpt><trkpt lat="14.375884440565953" lon="120.91795235888397"><ele>34.0</ele><time>2026-04-16T05:46:31Z</time></trkpt><trkpt lat="14.37604192469546" lon="120.91789349005951"><ele>34.0</ele><time>2026-04-16T05:46:32Z</time></trkpt><trkpt lat="14.37619015296741" lon="120.91782719339263"><ele>34.0</ele><time>2026-04-16T05:46:33Z</time></trkpt><trkpt lat="14.376331103091827" lon="120.9177699402614"><ele>34.0</ele><time>2026-04-16T05:46:34Z</time></trkpt><trkpt lat="14.376469473171037" lon="120.91771700878287"><ele>34.0</ele><time>2026-04-16T05:46:35Z</time></trkpt><trkpt lat="14.376605359406264" lon="120.91765195361378"><ele>34.0</ele><time>2026-04-16T05:46:36Z</time></trkpt><trkpt lat="14.376737582551923" lon="120.91757772541376"><ele>34.0</ele><time>2026-04-16T05:46:37Z</time></trkpt><trkpt lat="14.376866760861278" lon="120.91748415956665"><ele>34.333333333333336</ele><time>2026-04-16T05:46:38Z</time></trkpt><trkpt lat="14.376992519623268" lon="120.91737428256435"><ele>34.666666666666664</ele><time>2026-04-16T05:46:39Z</time></trkpt><trkpt lat="14.377118131566306" lon="120.91726729776853"><ele>35.0</ele><time>2026-04-16T05:46:40.001Z</time></trkpt><trkpt lat="14.377257758681974" lon="120.91717022783264"><ele>34.33333333333333</ele><time>2026-04-16T05:46:41.001Z</time></trkpt><trkpt lat="14.377405606721112" lon="120.91707917604269"><ele>33.666666666666664</ele><time>2026-04-16T05:46:42.001Z</time></trkpt><trkpt lat="14.377558270043997" lon="120.91699567782835"><ele>33.0</ele><time>2026-04-16T05:46:43.001Z</time></trkpt><trkpt lat="14.377714035961354" lon="120.91692006358501"><ele>33.0</ele><time>2026-04-16T05:46:44.001Z</time></trkpt><trkpt lat="14.377868319014565" lon="120.91684837106902"><ele>33.0</ele><time>2026-04-16T05:46:45.001Z</time></trkpt><trkpt lat="14.378009056183222" lon="120.91678402498735"><ele>33.0</ele><time>2026-04-16T05:46:46.001Z</time></trkpt><trkpt lat="14.378145624860846" lon="120.91672454914865"><ele>33.0</ele><time>2026-04-16T05:46:47.001Z</time></trkpt><trkpt lat="14.378276969419497" lon="120.91666590669098"><ele>33.0</ele><time>2026-04-16T05:46:48.001Z</time></trkpt><trkpt lat="14.378412599533224" lon="120.91661304988563"><ele>33.0</ele><time>2026-04-16T05:46:49.001Z</time></trkpt><trkpt lat="14.378556470501339" lon="120.91657622268092"><ele>33.0</ele><time>2026-04-16T05:46:50.001Z</time></trkpt><trkpt lat="14.37870602334907" lon="120.91654321026472"><ele>34.0</ele><time>2026-04-16T05:46:51.001Z</time></trkpt><trkpt lat="14.378861532771648" lon="120.91650799437548"><ele>35.0</ele><time>2026-04-16T05:46:52.001Z</time></trkpt><trkpt lat="14.379021746804117" lon="120.91648092209901"><ele>36.0</ele><time>2026-04-16T05:46:53.001Z</time></trkpt><trkpt lat="14.379179920114757" lon="120.91646274287103"><ele>36.0</ele><time>2026-04-16T05:46:54.001Z</time></trkpt><trkpt lat="14.379341931974187" lon="120.91644638159796"><ele>36.0</ele><time>2026-04-16T05:46:55.001Z</time></trkpt><trkpt lat="14.379515575354462" lon="120.91642653559231"><ele>36.0</ele><time>2026-04-16T05:46:56.001Z</time></trkpt><trkpt lat="14.379687560454439" lon="120.91641323260359"><ele>35.0</ele><time>2026-04-16T05:46:57.001Z</time></trkpt><trkpt lat="14.37985825919885" lon="120.91640269213913"><ele>34.0</ele><time>2026-04-16T05:46:58.001Z</time></trkpt><trkpt lat="14.380029504043359" lon="120.91639001567897"><ele>33.0</ele><time>2026-04-16T05:46:59.001Z</time></trkpt><trkpt lat="14.380168688019538" lon="120.91638227592352"><ele>33.0</ele><time>2026-04-16T05:47:00.001Z</time></trkpt><trkpt lat="14.380318189610145" lon="120.91637225010884"><ele>33.0</ele><time>2026-04-16T05:47:01.001Z</time></trkpt><trkpt lat="14.380486426465236" lon="120.91637683126397"><ele>33.0</ele><time>2026-04-16T05:47:02.001Z</time></trkpt><trkpt lat="14.38065047029491" lon="120.91636735227392"><ele>32.333333333333336</ele><time>2026-04-16T05:47:03.001Z</time></trkpt><trkpt lat="14.380814079115003" lon="120.91635741330342"><ele>31.666666666666668</ele><time>2026-04-16T05:47:04.001Z</time></trkpt><trkpt lat="14.380965418412506" lon="120.91633453055806"><ele>31.0</ele><time>2026-04-16T05:47:05.001Z</time></trkpt><trkpt lat="14.381125233446246" lon="120.9163279736173"><ele>31.0</ele><time>2026-04-16T05:47:06.001Z</time></trkpt><trkpt lat="14.381288196866455" lon="120.91632284605268"><ele>31.0</ele><time>2026-04-16T05:47:07.001Z</time></trkpt><trkpt lat="14.381436721644684" lon="120.91631874432466"><ele>31.0</ele><time>2026-04-16T05:47:08.001Z</time></trkpt><trkpt lat="14.381599692191578" lon="120.9163172793574"><ele>31.0</ele><time>2026-04-16T05:47:09.001Z</time></trkpt><trkpt lat="14.381754788802603" lon="120.91630702129345"><ele>31.0</ele><time>2026-04-16T05:47:10.001Z</time></trkpt><trkpt lat="14.381931055440358" lon="120.91628975374036"><ele>31.0</ele><time>2026-04-16T05:47:11.001Z</time></trkpt><trkpt lat="14.382101622650879" lon="120.91627401096567"><ele>30.666666666666668</ele><time>2026-04-16T05:47:12.001Z</time></trkpt><trkpt lat="14.382275921965622" lon="120.91625907185588"><ele>30.333333333333336</ele><time>2026-04-16T05:47:13.001Z</time></trkpt><trkpt lat="14.382452277308326" lon="120.91624656009833"><ele>30.0</ele><time>2026-04-16T05:47:14.001Z</time></trkpt><trkpt lat="14.382625051535205" lon="120.91623712348105"><ele>30.0</ele><time>2026-04-16T05:47:15.001Z</time></trkpt><trkpt lat="14.382808444541142" lon="120.91622740335494"><ele>30.0</ele><time>2026-04-16T05:47:16.001Z</time></trkpt><trkpt lat="14.382997938841816" lon="120.91622954245376"><ele>30.0</ele><time>2026-04-16T05:47:17.001Z</time></trkpt><trkpt lat="14.383154861718207" lon="120.91621825451192"><ele>30.0</ele><time>2026-04-16T05:47:18.001Z</time></trkpt><trkpt lat="14.38330442271668" lon="120.9162259145201"><ele>30.0</ele><time>2026-04-16T05:47:19.001Z</time></trkpt><trkpt lat="14.383463307379122" lon="120.91623041321488"><ele>30.0</ele><time>2026-04-16T05:47:20.001Z</time></trkpt><trkpt lat="14.38361535618918" lon="120.91623391448881"><ele>30.0</ele><time>2026-04-16T05:47:21.001Z</time></trkpt><trkpt lat="14.383750036910238" lon="120.91623303422783"><ele>30.0</ele><time>2026-04-16T05:47:22.001Z</time></trkpt><trkpt lat="14.383877800520313" lon="120.91623157298727"><ele>30.0</ele><time>2026-04-16T05:47:23.001Z</time></trkpt><trkpt lat="14.383997151073945" lon="120.91622494023493"><ele>30.0</ele><time>2026-04-16T05:47:24.001Z</time></trkpt><trkpt lat="14.384122116198801" lon="120.9162357406784"><ele>30.25</ele><time>2026-04-16T05:47:25.001Z</time></trkpt><trkpt lat="14.384215525812776" lon="120.91627025453376"><ele>30.5</ele><time>2026-04-16T05:47:26.001Z</time></trkpt><trkpt lat="14.384304597457803" lon="120.91634864057251"><ele>30.75</ele><time>2026-04-16T05:47:27.001Z</time></trkpt><trkpt lat="14.384386578327508" lon="120.91644047253448"><ele>31.0</ele><time>2026-04-16T05:47:28.001Z</time></trkpt><trkpt lat="14.384442738078754" lon="120.91654203166387"><ele>31.0</ele><time>2026-04-16T05:47:29.001Z</time></trkpt><trkpt lat="14.384515252583215" lon="120.91665473059165"><ele>31.0</ele><time>2026-04-16T05:47:30.001Z</time></trkpt><trkpt lat="14.384587924699616" lon="120.9167640487682"><ele>31.0</ele><time>2026-04-16T05:47:31.001Z</time></trkpt><trkpt lat="14.384660459975864" lon="120.91687339070607"><ele>31.0</ele><time>2026-04-16T05:47:32.001Z</time></trkpt><trkpt lat="14.384740469144305" lon="120.91697761910359"><ele>30.25</ele><time>2026-04-16T05:47:33.001Z</time></trkpt><trkpt lat="14.38482956304741" lon="120.91707976920429"><ele>29.5</ele><time>2026-04-16T05:47:34.001Z</time></trkpt><trkpt lat="14.384927638902884" lon="120.91718247558283"><ele>28.75</ele><time>2026-04-16T05:47:35.001Z</time></trkpt><trkpt lat="14.38501227771647" lon="120.9172858760498"><ele>28.0</ele><time>2026-04-16T05:47:36.001Z</time></trkpt><trkpt lat="14.385100167040513" lon="120.91739146909718"><ele>28.0</ele><time>2026-04-16T05:47:37.001Z</time></trkpt><trkpt lat="14.3851837173244" lon="120.91750578964562"><ele>28.0</ele><time>2026-04-16T05:47:38.001Z</time></trkpt><trkpt lat="14.38526989239285" lon="120.9176277345593"><ele>28.0</ele><time>2026-04-16T05:47:39.001Z</time></trkpt><trkpt lat="14.385368605783782" lon="120.91775332167441"><ele>28.0</ele><time>2026-04-16T05:47:40.001Z</time></trkpt><trkpt lat="14.385469510430983" lon="120.91786646056057"><ele>27.75</ele><time>2026-04-16T05:47:41.001Z</time></trkpt><trkpt lat="14.385559911800884" lon="120.91796570884651"><ele>27.5</ele><time>2026-04-16T05:47:42.001Z</time></trkpt><trkpt lat="14.385673367851386" lon="120.91807220389093"><ele>27.25</ele><time>2026-04-16T05:47:43.001Z</time></trkpt><trkpt lat="14.385779333785143" lon="120.91817651834022"><ele>27.0</ele><time>2026-04-16T05:47:44Z</time></trkpt><trkpt lat="14.385884282297983" lon="120.91828322050421"><ele>27.0</ele><time>2026-04-16T05:47:45Z</time></trkpt><trkpt lat="14.385983386139277" lon="120.91839510594674"><ele>27.0</ele><time>2026-04-16T05:47:46Z</time></trkpt><trkpt lat="14.38609012282143" lon="120.91851335948733"><ele>27.0</ele><time>2026-04-16T05:47:47Z</time></trkpt><trkpt lat="14.386191954721504" lon="120.91862903863195"><ele>27.0</ele><time>2026-04-16T05:47:48Z</time></trkpt><trkpt lat="14.386290809609896" lon="120.91873212850864"><ele>27.0</ele><time>2026-04-16T05:47:49Z</time></trkpt><trkpt lat="14.3863892019408" lon="120.91882133580665"><ele>27.0</ele><time>2026-04-16T05:47:50Z</time></trkpt><trkpt lat="14.386479039494128" lon="120.9188948273445"><ele>27.0</ele><time>2026-04-16T05:47:51Z</time></trkpt><trkpt lat="14.386586333914309" lon="120.9189467271257"><ele>27.0</ele><time>2026-04-16T05:47:52Z</time></trkpt><trkpt lat="14.38670084180062" lon="120.91895765664792"><ele>27.0</ele><time>2026-04-16T05:47:53Z</time></trkpt><trkpt lat="14.38680698348726" lon="120.91894807102341"><ele>27.0</ele><time>2026-04-16T05:47:54Z</time></trkpt><trkpt lat="14.386919462537128" lon="120.91891992097142"><ele>27.0</ele><time>2026-04-16T05:47:55Z</time></trkpt><trkpt lat="14.38704443823337" lon="120.91889774661435"><ele>26.0</ele><time>2026-04-16T05:47:56Z</time></trkpt><trkpt lat="14.387178962614843" lon="120.91888274269992"><ele>25.0</ele><time>2026-04-16T05:47:57Z</time></trkpt><trkpt lat="14.38732500446071" lon="120.91886936371347"><ele>24.0</ele><time>2026-04-16T05:47:58Z</time></trkpt><trkpt lat="14.387469199594632" lon="120.91886467438705"><ele>23.0</ele><time>2026-04-16T05:47:59Z</time></trkpt><trkpt lat="14.387617661377543" lon="120.91885731638187"><ele>23.0</ele><time>2026-04-16T05:48:00Z</time></trkpt><trkpt lat="14.387763060535267" lon="120.91885094629929"><ele>23.0</ele><time>2026-04-16T05:48:01Z</time></trkpt><trkpt lat="14.387908123043953" lon="120.91884621180196"><ele>23.0</ele><time>2026-04-16T05:48:02Z</time></trkpt><trkpt lat="14.388040688996764" lon="120.91884490391831"><ele>23.0</ele><time>2026-04-16T05:48:03Z</time></trkpt><trkpt lat="14.388178271217846" lon="120.91884844805213"><ele>23.5</ele><time>2026-04-16T05:48:04Z</time></trkpt><trkpt lat="14.388317922016796" lon="120.91885845434167"><ele>24.0</ele><time>2026-04-16T05:48:05Z</time></trkpt><trkpt lat="14.388463903187818" lon="120.91887983677883"><ele>24.5</ele><time>2026-04-16T05:48:06Z</time></trkpt><trkpt lat="14.388610385015477" lon="120.91889512098318"><ele>25.0</ele><time>2026-04-16T05:48:07Z</time></trkpt><trkpt lat="14.388772509666433" lon="120.91890152835697"><ele>24.75</ele><time>2026-04-16T05:48:08Z</time></trkpt><trkpt lat="14.388921101008327" lon="120.91889872738963"><ele>24.5</ele><time>2026-04-16T05:48:09Z</time></trkpt><trkpt lat="14.38906822025235" lon="120.91889619214756"><ele>24.25</ele><time>2026-04-16T05:48:10Z</time></trkpt><trkpt lat="14.389220094180677" lon="120.91887879535795"><ele>24.0</ele><time>2026-04-16T05:48:11Z</time></trkpt><trkpt lat="14.38936624131719" lon="120.91885984462823"><ele>24.0</ele><time>2026-04-16T05:48:12Z</time></trkpt><trkpt lat="14.389509297900108" lon="120.9188456029223"><ele>24.0</ele><time>2026-04-16T05:48:13Z</time></trkpt><trkpt lat="14.38964733764894" lon="120.91883240004734"><ele>24.0</ele><time>2026-04-16T05:48:14Z</time></trkpt><trkpt lat="14.38977901480628" lon="120.91881571318162"><ele>24.0</ele><time>2026-04-16T05:48:15Z</time></trkpt><trkpt lat="14.389909459497687" lon="120.91879125755294"><ele>24.0</ele><time>2026-04-16T05:48:16Z</time></trkpt><trkpt lat="14.390012888637413" lon="120.91876120332807"><ele>24.0</ele><time>2026-04-16T05:48:17Z</time></trkpt><trkpt lat="14.390108504721951" lon="120.91871320340513"><ele>24.0</ele><time>2026-04-16T05:48:18Z</time></trkpt><trkpt lat="14.390198788036704" lon="120.91863096132752"><ele>24.0</ele><time>2026-04-16T05:48:19Z</time></trkpt><trkpt lat="14.390285580107625" lon="120.91854183546909"><ele>24.0</ele><time>2026-04-16T05:48:20Z</time></trkpt><trkpt lat="14.390379429220948" lon="120.91845165311295"><ele>24.0</ele><time>2026-04-16T05:48:21Z</time></trkpt><trkpt lat="14.390477678891958" lon="120.91836585551324"><ele>24.0</ele><time>2026-04-16T05:48:22Z</time></trkpt><trkpt lat="14.390580023893683" lon="120.91828277880735"><ele>24.0</ele><time>2026-04-16T05:48:23Z</time></trkpt><trkpt lat="14.39069026728391" lon="120.91821690714082"><ele>24.0</ele><time>2026-04-16T05:48:24Z</time></trkpt><trkpt lat="14.390818052222528" lon="120.9181574223674"><ele>24.0</ele><time>2026-04-16T05:48:25Z</time></trkpt><trkpt lat="14.390947959772443" lon="120.91811509716077"><ele>24.0</ele><time>2026-04-16T05:48:26Z</time></trkpt><trkpt lat="14.391092681204116" lon="120.9180592889737"><ele>24.0</ele><time>2026-04-16T05:48:27Z</time></trkpt><trkpt lat="14.391235907062487" lon="120.91800520715401"><ele>23.666666666666668</ele><time>2026-04-16T05:48:28Z</time></trkpt><trkpt lat="14.391384438620282" lon="120.91794694072775"><ele>23.333333333333336</ele><time>2026-04-16T05:48:29Z</time></trkpt><trkpt lat="14.39153003107759" lon="120.91790125319773"><ele>23.0</ele><time>2026-04-16T05:48:30Z</time></trkpt><trkpt lat="14.391684200660924" lon="120.91786931334808"><ele>23.0</ele><time>2026-04-16T05:48:31Z</time></trkpt><trkpt lat="14.39183864520435" lon="120.91786069854469"><ele>23.0</ele><time>2026-04-16T05:48:32Z</time></trkpt><trkpt lat="14.391993421792911" lon="120.91786389575196"><ele>23.0</ele><time>2026-04-16T05:48:33Z</time></trkpt><trkpt lat="14.392156702843979" lon="120.91786334599334"><ele>23.333333333333336</ele><time>2026-04-16T05:48:34Z</time></trkpt><trkpt lat="14.392314967155295" lon="120.91786640540074"><ele>23.666666666666668</ele><time>2026-04-16T05:48:35Z</time></trkpt><trkpt lat="14.392463353912836" lon="120.91786127230733"><ele>24.0</ele><time>2026-04-16T05:48:36Z</time></trkpt><trkpt lat="14.392609449932397" lon="120.91785566407451"><ele>24.0</ele><time>2026-04-16T05:48:37Z</time></trkpt><trkpt lat="14.39275562114633" lon="120.91785591082822"><ele>24.0</ele><time>2026-04-16T05:48:38Z</time></trkpt><trkpt lat="14.392894597673944" lon="120.91785665955288"><ele>24.0</ele><time>2026-04-16T05:48:39Z</time></trkpt><trkpt lat="14.393038469799313" lon="120.91785115662249"><ele>24.0</ele><time>2026-04-16T05:48:40Z</time></trkpt><trkpt lat="14.393167072937729" lon="120.91784633510072"><ele>23.6</ele><time>2026-04-16T05:48:41Z</time></trkpt><trkpt lat="14.393291432145219" lon="120.91784038289677"><ele>23.2</ele><time>2026-04-16T05:48:42.001Z</time></trkpt><trkpt lat="14.393398703183975" lon="120.91784275327156"><ele>22.8</ele><time>2026-04-16T05:48:43.001Z</time></trkpt><trkpt lat="14.393507198211237" lon="120.91784485809572"><ele>22.400000000000002</ele><time>2026-04-16T05:48:44.001Z</time></trkpt><trkpt lat="14.393613154182553" lon="120.91784192575624"><ele>22.0</ele><time>2026-04-16T05:48:45.001Z</time></trkpt><trkpt lat="14.393705842957093" lon="120.91784028130601"><ele>22.0</ele><time>2026-04-16T05:48:46.001Z</time></trkpt><trkpt lat="14.393787409485618" lon="120.91783791358495"><ele>22.0</ele><time>2026-04-16T05:48:47.001Z</time></trkpt><trkpt lat="14.39386958876117" lon="120.91783065390673"><ele>22.0</ele><time>2026-04-16T05:48:48.001Z</time></trkpt><trkpt lat="14.393956146631078" lon="120.91782724056796"><ele>22.0</ele><time>2026-04-16T05:48:49.001Z</time></trkpt><trkpt lat="14.394050911191327" lon="120.91782421703523"><ele>22.0</ele><time>2026-04-16T05:48:50.001Z</time></trkpt><trkpt lat="14.394146976941132" lon="120.91782357252804"><ele>22.0</ele><time>2026-04-16T05:48:51.001Z</time></trkpt><trkpt lat="14.394257446451801" lon="120.91781755409372"><ele>22.0</ele><time>2026-04-16T05:48:52.001Z</time></trkpt><trkpt lat="14.39435227519824" lon="120.91781434750122"><ele>22.0</ele><time>2026-04-16T05:48:53.001Z</time></trkpt><trkpt lat="14.39444968314367" lon="120.91781175469474"><ele>22.0</ele><time>2026-04-16T05:48:54.001Z</time></trkpt><trkpt lat="14.394539990263468" lon="120.91780846402077"><ele>22.0</ele><time>2026-04-16T05:48:55.001Z</time></trkpt><trkpt lat="14.394634379032196" lon="120.91780250714282"><ele>22.0</ele><time>2026-04-16T05:48:56.001Z</time></trkpt><trkpt lat="14.394732180585846" lon="120.91779428937654"><ele>22.0</ele><time>2026-04-16T05:48:57.001Z</time></trkpt><trkpt lat="14.394855805357478" lon="120.91778418151705"><ele>22.0</ele><time>2026-04-16T05:48:58.001Z</time></trkpt><trkpt lat="14.39498676738218" lon="120.917782452816"><ele>22.0</ele><time>2026-04-16T05:48:59.001Z</time></trkpt><trkpt lat="14.395120347303667" lon="120.9177784958714"><ele>22.0</ele><time>2026-04-16T05:49:00.001Z</time></trkpt><trkpt lat="14.395252617131154" lon="120.91777400417041"><ele>22.0</ele><time>2026-04-16T05:49:01.001Z</time></trkpt><trkpt lat="14.395402078012754" lon="120.91776322850188"><ele>22.0</ele><time>2026-04-16T05:49:02.001Z</time></trkpt><trkpt lat="14.3955460348479" lon="120.91775209924593"><ele>22.0</ele><time>2026-04-16T05:49:03.001Z</time></trkpt><trkpt lat="14.39570909458216" lon="120.91774033128394"><ele>21.666666666666664</ele><time>2026-04-16T05:49:04.001Z</time></trkpt><trkpt lat="14.395866695654698" lon="120.91773107421488"><ele>21.333333333333332</ele><time>2026-04-16T05:49:05.001Z</time></trkpt><trkpt lat="14.396029236810826" lon="120.91772539106032"><ele>21.0</ele><time>2026-04-16T05:49:06.001Z</time></trkpt><trkpt lat="14.396189238028462" lon="120.91772150936497"><ele>21.0</ele><time>2026-04-16T05:49:07.001Z</time></trkpt><trkpt lat="14.396348906211891" lon="120.91772371748094"><ele>21.0</ele><time>2026-04-16T05:49:08.001Z</time></trkpt><trkpt lat="14.396515292777279" lon="120.9177328496537"><ele>21.0</ele><time>2026-04-16T05:49:09.001Z</time></trkpt><trkpt lat="14.39668063654763" lon="120.91774432607234"><ele>21.0</ele><time>2026-04-16T05:49:10.001Z</time></trkpt><trkpt lat="14.396847867058854" lon="120.91775023899375"><ele>21.0</ele><time>2026-04-16T05:49:11.001Z</time></trkpt><trkpt lat="14.397028329398099" lon="120.9177520051072"><ele>21.0</ele><time>2026-04-16T05:49:12.001Z</time></trkpt><trkpt lat="14.397195457543845" lon="120.91774963177478"><ele>21.0</ele><time>2026-04-16T05:49:13.001Z</time></trkpt><trkpt lat="14.397364337158535" lon="120.91774600601303"><ele>21.0</ele><time>2026-04-16T05:49:14.001Z</time></trkpt><trkpt lat="14.397546025854487" lon="120.91774593985731"><ele>21.0</ele><time>2026-04-16T05:49:15.001Z</time></trkpt><trkpt lat="14.397720905123856" lon="120.91774745116079"><ele>21.0</ele><time>2026-04-16T05:49:16.001Z</time></trkpt><trkpt lat="14.397892087137254" lon="120.9177504065475"><ele>21.0</ele><time>2026-04-16T05:49:17.001Z</time></trkpt><trkpt lat="14.398059327422276" lon="120.91775156870699"><ele>21.0</ele><time>2026-04-16T05:49:18.001Z</time></trkpt><trkpt lat="14.398235234663183" lon="120.91774889071415"><ele>21.0</ele><time>2026-04-16T05:49:19.001Z</time></trkpt><trkpt lat="14.398412577163723" lon="120.91774913117871"><ele>21.0</ele><time>2026-04-16T05:49:20.001Z</time></trkpt><trkpt lat="14.398581150240569" lon="120.91774973047643"><ele>21.0</ele><time>2026-04-16T05:49:21.001Z</time></trkpt><trkpt lat="14.398770957317168" lon="120.91775185308222"><ele>20.333333333333332</ele><time>2026-04-16T05:49:22.001Z</time></trkpt><trkpt lat="14.398941807340021" lon="120.91774907739935"><ele>19.666666666666664</ele><time>2026-04-16T05:49:23.001Z</time></trkpt><trkpt lat="14.39913184995041" lon="120.91774347436086"><ele>19.0</ele><time>2026-04-16T05:49:24.001Z</time></trkpt><trkpt lat="14.39931259249799" lon="120.91773265271651"><ele>19.0</ele><time>2026-04-16T05:49:25.001Z</time></trkpt><trkpt lat="14.39949273893392" lon="120.91771456266282"><ele>19.0</ele><time>2026-04-16T05:49:26.001Z</time></trkpt><trkpt lat="14.39967668759011" lon="120.91770194561934"><ele>19.0</ele><time>2026-04-16T05:49:27.001Z</time></trkpt><trkpt lat="14.399855367781294" lon="120.91768839189452"><ele>19.333333333333332</ele><time>2026-04-16T05:49:28.001Z</time></trkpt><trkpt lat="14.4000234506879" lon="120.91767223700795"><ele>19.666666666666668</ele><time>2026-04-16T05:49:29.001Z</time></trkpt><trkpt lat="14.400179581483123" lon="120.9176586276825"><ele>20.0</ele><time>2026-04-16T05:49:30.001Z</time></trkpt><trkpt lat="14.400334475670284" lon="120.91763132584381"><ele>20.0</ele><time>2026-04-16T05:49:31.001Z</time></trkpt><trkpt lat="14.400479495725973" lon="120.917599419936"><ele>20.0</ele><time>2026-04-16T05:49:32.001Z</time></trkpt><trkpt lat="14.400616654997213" lon="120.91757084116425"><ele>20.0</ele><time>2026-04-16T05:49:33.001Z</time></trkpt><trkpt lat="14.40075146448654" lon="120.917539342439"><ele>20.0</ele><time>2026-04-16T05:49:34.001Z</time></trkpt><trkpt lat="14.400880192480088" lon="120.91750880367067"><ele>19.8</ele><time>2026-04-16T05:49:35.001Z</time></trkpt><trkpt lat="14.401000949552639" lon="120.9174856283969"><ele>19.6</ele><time>2026-04-16T05:49:36.001Z</time></trkpt><trkpt lat="14.401106820166198" lon="120.9174850221699"><ele>19.4</ele><time>2026-04-16T05:49:37.001Z</time></trkpt><trkpt lat="14.4012133963248" lon="120.91750981060773"><ele>19.2</ele><time>2026-04-16T05:49:38.001Z</time></trkpt><trkpt lat="14.401315644552303" lon="120.91755448639213"><ele>19.0</ele><time>2026-04-16T05:49:39.001Z</time></trkpt><trkpt lat="14.401423897692919" lon="120.9176013553697"><ele>19.0</ele><time>2026-04-16T05:49:40.001Z</time></trkpt><trkpt lat="14.40151955747833" lon="120.91763308155569"><ele>19.0</ele><time>2026-04-16T05:49:41.001Z</time></trkpt><trkpt lat="14.401623784267175" lon="120.91764897587252"><ele>19.0</ele><time>2026-04-16T05:49:42.001Z</time></trkpt><trkpt lat="14.401735607890544" lon="120.91765068197161"><ele>19.0</ele><time>2026-04-16T05:49:43.001Z</time></trkpt><trkpt lat="14.401841640561067" lon="120.9176514036471"><ele>19.0</ele><time>2026-04-16T05:49:44.001Z</time></trkpt><trkpt lat="14.401940199109788" lon="120.91765352078919"><ele>19.0</ele><time>2026-04-16T05:49:45.001Z</time></trkpt><trkpt lat="14.402030755707502" lon="120.91766245236576"><ele>19.0</ele><time>2026-04-16T05:49:46.001Z</time></trkpt><trkpt lat="14.402126274731337" lon="120.91767481632918"><ele>19.0</ele><time>2026-04-16T05:49:47.001Z</time></trkpt><trkpt lat="14.402226398513752" lon="120.9176892448004"><ele>19.0</ele><time>2026-04-16T05:49:48.001Z</time></trkpt><trkpt lat="14.40232292281778" lon="120.91769993495295"><ele>19.0</ele><time>2026-04-16T05:49:49.001Z</time></trkpt><trkpt lat="14.402447777776981" lon="120.9177061447664"><ele>18.5</ele><time>2026-04-16T05:49:50Z</time></trkpt><trkpt lat="14.40255976484018" lon="120.91771118124915"><ele>18.0</ele><time>2026-04-16T05:49:51Z</time></trkpt><trkpt lat="14.402701923613014" lon="120.91770377700128"><ele>17.5</ele><time>2026-04-16T05:49:52Z</time></trkpt><trkpt lat="14.402827679943197" lon="120.91769974220732"><ele>17.0</ele><time>2026-04-16T05:49:53Z</time></trkpt><trkpt lat="14.402963179262738" lon="120.91770299830944"><ele>17.25</ele><time>2026-04-16T05:49:54Z</time></trkpt><trkpt lat="14.40309344247618" lon="120.917708261738"><ele>17.5</ele><time>2026-04-16T05:49:55Z</time></trkpt><trkpt lat="14.403227106120855" lon="120.91770551388983"><ele>17.75</ele><time>2026-04-16T05:49:56Z</time></trkpt><trkpt lat="14.403351116409906" lon="120.9177262748592"><ele>18.0</ele><time>2026-04-16T05:49:57Z</time></trkpt><trkpt lat="14.40346340810964" lon="120.91773067030323"><ele>18.0</ele><time>2026-04-16T05:49:58Z</time></trkpt><trkpt lat="14.40356537322934" lon="120.9177251355944"><ele>18.0</ele><time>2026-04-16T05:49:59Z</time></trkpt><trkpt lat="14.403667984816256" lon="120.91773312970186"><ele>18.0</ele><time>2026-04-16T05:50:00Z</time></trkpt><trkpt lat="14.403756348047962" lon="120.91775277140059"><ele>18.0</ele><time>2026-04-16T05:50:01Z</time></trkpt><trkpt lat="14.40385294440425" lon="120.9177570342225"><ele>18.0</ele><time>2026-04-16T05:50:02Z</time></trkpt><trkpt lat="14.403949754935638" lon="120.91777354540504"><ele>17.8</ele><time>2026-04-16T05:50:03Z</time></trkpt><trkpt lat="14.404060174923748" lon="120.91776166492828"><ele>17.6</ele><time>2026-04-16T05:50:04Z</time></trkpt><trkpt lat="14.404173141779946" lon="120.91776543992387"><ele>17.4</ele><time>2026-04-16T05:50:05Z</time></trkpt><trkpt lat="14.404265435136" lon="120.91778533404194"><ele>17.2</ele><time>2026-04-16T05:50:06Z</time></trkpt><trkpt lat="14.404378397435138" lon="120.91778458412213"><ele>17.0</ele><time>2026-04-16T05:50:07Z</time></trkpt><trkpt lat="14.404496128216927" lon="120.91779482383654"><ele>17.0</ele><time>2026-04-16T05:50:08Z</time></trkpt><trkpt lat="14.404615178960297" lon="120.9177991174511"><ele>17.0</ele><time>2026-04-16T05:50:09Z</time></trkpt><trkpt lat="14.404736042425698" lon="120.91779995106107"><ele>17.0</ele><time>2026-04-16T05:50:10Z</time></trkpt><trkpt lat="14.404847496355812" lon="120.91780273044283"><ele>17.0</ele><time>2026-04-16T05:50:11Z</time></trkpt><trkpt lat="14.40494258450783" lon="120.91782018347779"><ele>17.0</ele><time>2026-04-16T05:50:12Z</time></trkpt><trkpt lat="14.405034892566148" lon="120.91784572495231"><ele>17.0</ele><time>2026-04-16T05:50:13Z</time></trkpt><trkpt lat="14.40512245447373" lon="120.91786651546163"><ele>17.0</ele><time>2026-04-16T05:50:14Z</time></trkpt><trkpt lat="14.40519781446831" lon="120.91790272103059"><ele>17.0</ele><time>2026-04-16T05:50:15Z</time></trkpt><trkpt lat="14.405279472168795" lon="120.91792755096297"><ele>17.0</ele><time>2026-04-16T05:50:16Z</time></trkpt><trkpt lat="14.405331327800875" lon="120.91801524407717"><ele>17.0</ele><time>2026-04-16T05:50:17Z</time></trkpt><trkpt lat="14.40539846763551" lon="120.91805685604133"><ele>17.0</ele><time>2026-04-16T05:50:18Z</time></trkpt><trkpt lat="14.405464789257717" lon="120.9180725364178"><ele>17.333333333333336</ele><time>2026-04-16T05:50:19Z</time></trkpt><trkpt lat="14.405544708564772" lon="120.91806313119555"><ele>17.666666666666668</ele><time>2026-04-16T05:50:20Z</time></trkpt><trkpt lat="14.405627713643899" lon="120.91803226195172"><ele>18.0</ele><time>2026-04-16T05:50:21Z</time></trkpt><trkpt lat="14.40569915829081" lon="120.9179907524596"><ele>18.333333333333332</ele><time>2026-04-16T05:50:22Z</time></trkpt><trkpt lat="14.405773240992982" lon="120.9179276885593"><ele>18.666666666666664</ele><time>2026-04-16T05:50:23Z</time></trkpt><trkpt lat="14.40584586091338" lon="120.9178792112549"><ele>19.0</ele><time>2026-04-16T05:50:24Z</time></trkpt><trkpt lat="14.405941615518136" lon="120.91785175985073"><ele>19.0</ele><time>2026-04-16T05:50:25Z</time></trkpt><trkpt lat="14.40604427326191" lon="120.91784963378987"><ele>19.0</ele><time>2026-04-16T05:50:26Z</time></trkpt><trkpt lat="14.406160954294672" lon="120.91784982314839"><ele>19.0</ele><time>2026-04-16T05:50:27Z</time></trkpt><trkpt lat="14.406263961924825" lon="120.91784905768641"><ele>19.0</ele><time>2026-04-16T05:50:28Z</time></trkpt><trkpt lat="14.406389798023561" lon="120.91784162197001"><ele>19.0</ele><time>2026-04-16T05:50:29Z</time></trkpt><trkpt lat="14.406505200865931" lon="120.91781632527658"><ele>18.5</ele><time>2026-04-16T05:50:30Z</time></trkpt><trkpt lat="14.406626514125064" lon="120.91778522711753"><ele>18.0</ele><time>2026-04-16T05:50:31Z</time></trkpt><trkpt lat="14.40673698943932" lon="120.91775439754748"><ele>17.5</ele><time>2026-04-16T05:50:32Z</time></trkpt><trkpt lat="14.40686055737075" lon="120.91772719143789"><ele>17.0</ele><time>2026-04-16T05:50:33Z</time></trkpt><trkpt lat="14.406985542006034" lon="120.91770247556721"><ele>17.0</ele><time>2026-04-16T05:50:34Z</time></trkpt><trkpt lat="14.407105846232898" lon="120.91767494734478"><ele>17.0</ele><time>2026-04-16T05:50:35Z</time></trkpt><trkpt lat="14.407216211707752" lon="120.91764845084118"><ele>17.0</ele><time>2026-04-16T05:50:36Z</time></trkpt><trkpt lat="14.407318673192135" lon="120.91762449192055"><ele>17.0</ele><time>2026-04-16T05:50:37Z</time></trkpt><trkpt lat="14.407415653748965" lon="120.91760085296524"><ele>17.0</ele><time>2026-04-16T05:50:38Z</time></trkpt><trkpt lat="14.40750490371633" lon="120.91758256622022"><ele>17.166666666666668</ele><time>2026-04-16T05:50:39Z</time></trkpt><trkpt lat="14.407590436447263" lon="120.91759215699527"><ele>17.333333333333336</ele><time>2026-04-16T05:50:40Z</time></trkpt><trkpt lat="14.407668440894463" lon="120.91762180151494"><ele>17.5</ele><time>2026-04-16T05:50:41Z</time></trkpt><trkpt lat="14.407741677402697" lon="120.9176615917855"><ele>17.666666666666668</ele><time>2026-04-16T05:50:42.001Z</time></trkpt><trkpt lat="14.407804144773364" lon="120.91771411252671"><ele>17.833333333333332</ele><time>2026-04-16T05:50:43.001Z</time></trkpt><trkpt lat="14.407860080987236" lon="120.91778001536323"><ele>18.0</ele><time>2026-04-16T05:50:44.001Z</time></trkpt><trkpt lat="14.407899819852322" lon="120.91784749015856"><ele>18.0</ele><time>2026-04-16T05:50:45.001Z</time></trkpt><trkpt lat="14.407924345959257" lon="120.91792388783531"><ele>18.0</ele><time>2026-04-16T05:50:46.001Z</time></trkpt><trkpt lat="14.407928213985471" lon="120.9180139608471"><ele>18.0</ele><time>2026-04-16T05:50:47.001Z</time></trkpt><trkpt lat="14.407921906432597" lon="120.918110825374"><ele>18.0</ele><time>2026-04-16T05:50:48.001Z</time></trkpt><trkpt lat="14.407922028351734" lon="120.91821310174912"><ele>18.0</ele><time>2026-04-16T05:50:49.001Z</time></trkpt><trkpt lat="14.407925435355786" lon="120.91832052918772"><ele>17.5</ele><time>2026-04-16T05:50:50.001Z</time></trkpt><trkpt lat="14.407928052226884" lon="120.91843437467611"><ele>17.0</ele><time>2026-04-16T05:50:51.001Z</time></trkpt><trkpt lat="14.407935611141449" lon="120.91854909469176"><ele>16.5</ele><time>2026-04-16T05:50:52.001Z</time></trkpt><trkpt lat="14.40794044063819" lon="120.9186665083784"><ele>16.0</ele><time>2026-04-16T05:50:53.001Z</time></trkpt><trkpt lat="14.407944496109641" lon="120.91878958354948"><ele>16.0</ele><time>2026-04-16T05:50:54.001Z</time></trkpt><trkpt lat="14.407951211302864" lon="120.91891297991783"><ele>16.0</ele><time>2026-04-16T05:50:55.001Z</time></trkpt><trkpt lat="14.407959561585674" lon="120.91903786803036"><ele>16.0</ele><time>2026-04-16T05:50:56.001Z</time></trkpt><trkpt lat="14.407964053746584" lon="120.91916132818345"><ele>16.0</ele><time>2026-04-16T05:50:57.001Z</time></trkpt><trkpt lat="14.407967648249544" lon="120.91927977831756"><ele>15.75</ele><time>2026-04-16T05:50:58.001Z</time></trkpt><trkpt lat="14.40797126529796" lon="120.9193999228223"><ele>15.5</ele><time>2026-04-16T05:50:59.001Z</time></trkpt><trkpt lat="14.407977537631533" lon="120.91952040816419"><ele>15.25</ele><time>2026-04-16T05:51:00.001Z</time></trkpt><trkpt lat="14.4079855105208" lon="120.91964558811769"><ele>15.0</ele><time>2026-04-16T05:51:01.001Z</time></trkpt><trkpt lat="14.40798579859746" lon="120.91975799208919"><ele>15.25</ele><time>2026-04-16T05:51:02.001Z</time></trkpt><trkpt lat="14.407997247881346" lon="120.9198950736045"><ele>15.5</ele><time>2026-04-16T05:51:03.001Z</time></trkpt><trkpt lat="14.408000790670016" lon="120.92001413016114"><ele>15.75</ele><time>2026-04-16T05:51:04.001Z</time></trkpt><trkpt lat="14.408011620586112" lon="120.92014825321104"><ele>16.0</ele><time>2026-04-16T05:51:05.001Z</time></trkpt><trkpt lat="14.40801471849113" lon="120.92026285751324"><ele>16.2</ele><time>2026-04-16T05:51:06.001Z</time></trkpt><trkpt lat="14.40802290443023" lon="120.92037602072284"><ele>16.400000000000002</ele><time>2026-04-16T05:51:07.001Z</time></trkpt><trkpt lat="14.40803155346872" lon="120.92048472032889"><ele>16.6</ele><time>2026-04-16T05:51:08.001Z</time></trkpt><trkpt lat="14.408048313890836" lon="120.92059719819528"><ele>16.8</ele><time>2026-04-16T05:51:09.001Z</time></trkpt><trkpt lat="14.40807588238966" lon="120.92071439966091"><ele>17.0</ele><time>2026-04-16T05:51:10.001Z</time></trkpt><trkpt lat="14.408109022108961" lon="120.92083461949595"><ele>17.2</ele><time>2026-04-16T05:51:11.001Z</time></trkpt><trkpt lat="14.40813891915851" lon="120.92094778124864"><ele>17.4</ele><time>2026-04-16T05:51:12.001Z</time></trkpt><trkpt lat="14.408168821858922" lon="120.92106010104693"><ele>17.6</ele><time>2026-04-16T05:51:13.001Z</time></trkpt><trkpt lat="14.408194281459958" lon="120.9211621537721"><ele>17.8</ele><time>2026-04-16T05:51:14.001Z</time></trkpt><trkpt lat="14.408218817431775" lon="120.92127110172966"><ele>18.0</ele><time>2026-04-16T05:51:15.001Z</time></trkpt><trkpt lat="14.408241218866584" lon="120.92136975094787"><ele>18.0</ele><time>2026-04-16T05:51:16.001Z</time></trkpt><trkpt lat="14.408267461816406" lon="120.92147214481656"><ele>18.0</ele><time>2026-04-16T05:51:17.001Z</time></trkpt><trkpt lat="14.408285429195818" lon="120.92156057904377"><ele>18.0</ele><time>2026-04-16T05:51:18.001Z</time></trkpt><trkpt lat="14.408298794203315" lon="120.92163984640143"><ele>18.0</ele><time>2026-04-16T05:51:19.001Z</time></trkpt><trkpt lat="14.408323580109426" lon="120.92176699028353"><ele>18.0</ele><time>2026-04-16T05:51:21.001Z</time></trkpt><trkpt lat="14.408344898530862" lon="120.92186388067034"><ele>17.666666666666668</ele><time>2026-04-16T05:51:23.001Z</time></trkpt><trkpt lat="14.408364980001462" lon="120.92192616991649"><ele>17.333333333333332</ele><time>2026-04-16T05:51:27.001Z</time></trkpt><trkpt lat="14.408373074780767" lon="120.92202082025743"><ele>17.0</ele><time>2026-04-16T05:51:29.001Z</time></trkpt><trkpt lat="14.408376202407617" lon="120.92212547928835"><ele>16.666666666666664</ele><time>2026-04-16T05:51:31.001Z</time></trkpt><trkpt lat="14.408384287205857" lon="120.92219087731537"><ele>16.333333333333332</ele><time>2026-04-16T05:51:32.001Z</time></trkpt><trkpt lat="14.408396774825706" lon="120.92225598867319"><ele>16.0</ele><time>2026-04-16T05:51:33.001Z</time></trkpt><trkpt lat="14.408428694880259" lon="120.92232904240548"><ele>15.999999999999998</ele><time>2026-04-16T05:51:34.001Z</time></trkpt><trkpt lat="14.408470051322649" lon="120.92238908899277"><ele>16.0</ele><time>2026-04-16T05:51:35.001Z</time></trkpt><trkpt lat="14.408519801683934" lon="120.92243393070741"><ele>16.0</ele><time>2026-04-16T05:51:36.001Z</time></trkpt><trkpt lat="14.408586444892775" lon="120.92247474505129"><ele>16.0</ele><time>2026-04-16T05:51:37.001Z</time></trkpt><trkpt lat="14.408649496537318" lon="120.92249696399212"><ele>15.999999999999998</ele><time>2026-04-16T05:51:38.001Z</time></trkpt><trkpt lat="14.408749917422917" lon="120.92251706273979"><ele>16.0</ele><time>2026-04-16T05:51:40.001Z</time></trkpt><trkpt lat="14.408837367773229" lon="120.92256931239089"><ele>15.999999999999998</ele><time>2026-04-16T05:51:42.001Z</time></trkpt><trkpt lat="14.408876177651411" lon="120.92262489719361"><ele>16.0</ele><time>2026-04-16T05:51:43.001Z</time></trkpt><trkpt lat="14.40889592754161" lon="120.92270000682751"><ele>16.0</ele><time>2026-04-16T05:51:44.001Z</time></trkpt><trkpt lat="14.408912980571825" lon="120.92278963517488"><ele>16.0</ele><time>2026-04-16T05:51:45.001Z</time></trkpt><trkpt lat="14.40892603336662" lon="120.9228760402587"><ele>15.999999999999998</ele><time>2026-04-16T05:51:46.001Z</time></trkpt><trkpt lat="14.408944306118478" lon="120.92298180659273"><ele>16.0</ele><time>2026-04-16T05:51:47.001Z</time></trkpt><trkpt lat="14.408962059417583" lon="120.9230891404828"><ele>16.0</ele><time>2026-04-16T05:51:48.001Z</time></trkpt><trkpt lat="14.408974578618453" lon="120.92318225534902"><ele>16.0</ele><time>2026-04-16T05:51:49.001Z</time></trkpt><trkpt lat="14.4089899705826" lon="120.9232864092851"><ele>16.0</ele><time>2026-04-16T05:51:50.001Z</time></trkpt><trkpt lat="14.409002645410705" lon="120.92338153925587"><ele>16.0</ele><time>2026-04-16T05:51:51.001Z</time></trkpt><trkpt lat="14.409019364553446" lon="120.92347874975859"><ele>16.0</ele><time>2026-04-16T05:51:52.001Z</time></trkpt><trkpt lat="14.409031204318312" lon="120.9235626095476"><ele>15.8</ele><time>2026-04-16T05:51:53.001Z</time></trkpt><trkpt lat="14.409045626047705" lon="120.92365919929925"><ele>15.600000000000001</ele><time>2026-04-16T05:51:54.001Z</time></trkpt><trkpt lat="14.409061492592242" lon="120.92376147503907"><ele>15.4</ele><time>2026-04-16T05:51:55.001Z</time></trkpt><trkpt lat="14.409080809938397" lon="120.92386819453365"><ele>15.2</ele><time>2026-04-16T05:51:56Z</time></trkpt><trkpt lat="14.409101834299369" lon="120.92397425824379"><ele>15.0</ele><time>2026-04-16T05:51:57Z</time></trkpt><trkpt lat="14.40912120284854" lon="120.92408140178415"><ele>15.0</ele><time>2026-04-16T05:51:58Z</time></trkpt><trkpt lat="14.409133744964544" lon="120.92418063319272"><ele>15.0</ele><time>2026-04-16T05:51:59Z</time></trkpt><trkpt lat="14.409145897588825" lon="120.92426903121228"><ele>15.0</ele><time>2026-04-16T05:52:00Z</time></trkpt><trkpt lat="14.409156239181828" lon="120.92434460772073"><ele>15.0</ele><time>2026-04-16T05:52:01Z</time></trkpt><trkpt lat="14.409167013619046" lon="120.92441056542181"><ele>15.0</ele><time>2026-04-16T05:52:02Z</time></trkpt><trkpt lat="14.409183116360035" lon="120.92452699539518"><ele>15.0</ele><time>2026-04-16T05:52:04Z</time></trkpt><trkpt lat="14.409189870374739" lon="120.92460019693216"><ele>15.333333333333334</ele><time>2026-04-16T05:52:06Z</time></trkpt><trkpt lat="14.409212029039312" lon="120.9246816260819"><ele>15.666666666666668</ele><time>2026-04-16T05:52:09Z</time></trkpt><trkpt lat="14.409311778952452" lon="120.92472112933719"><ele>16.0</ele><time>2026-04-16T05:52:12Z</time></trkpt><trkpt lat="14.409374397842694" lon="120.92469531029916"><ele>16.333333333333336</ele><time>2026-04-16T05:52:13Z</time></trkpt><trkpt lat="14.409456389207838" lon="120.92467252139753"><ele>16.666666666666668</ele><time>2026-04-16T05:52:14Z</time></trkpt><trkpt lat="14.409526768399031" lon="120.92465069564595"><ele>17.0</ele><time>2026-04-16T05:52:15Z</time></trkpt><trkpt lat="14.409614721427484" lon="120.92461844103299"><ele>17.285714285714285</ele><time>2026-04-16T05:52:16Z</time></trkpt><trkpt lat="14.409678993245157" lon="120.92459026142532"><ele>17.57142857142857</ele><time>2026-04-16T05:52:17Z</time></trkpt><trkpt lat="14.40975735751502" lon="120.9245766053768"><ele>17.857142857142854</ele><time>2026-04-16T05:52:18Z</time></trkpt><trkpt lat="14.409818677010533" lon="120.9245512488097"><ele>18.142857142857142</ele><time>2026-04-16T05:52:19Z</time></trkpt><trkpt lat="14.40988338487001" lon="120.92452449109557"><ele>18.42857142857143</ele><time>2026-04-16T05:52:20Z</time></trkpt><trkpt lat="14.409957495431955" lon="120.92449384521699"><ele>18.71428571428571</ele><time>2026-04-16T05:52:21Z</time></trkpt><trkpt lat="14.410022866247443" lon="120.92446681335329"><ele>19.0</ele><time>2026-04-16T05:52:22Z</time></trkpt><trkpt lat="14.410089530232598" lon="120.92443924677036"><ele>19.0</ele><time>2026-04-16T05:52:23Z</time></trkpt><trkpt lat="14.410148436610033" lon="120.92441438575865"><ele>19.0</ele><time>2026-04-16T05:52:24Z</time></trkpt><trkpt lat="14.410220612449953" lon="120.92438402306087"><ele>19.0</ele><time>2026-04-16T05:52:25Z</time></trkpt><trkpt lat="14.41029390841189" lon="120.92435318914288"><ele>19.0</ele><time>2026-04-16T05:52:26Z</time></trkpt><trkpt lat="14.410387846095407" lon="120.92431367174429"><ele>19.0</ele><time>2026-04-16T05:52:27Z</time></trkpt><trkpt lat="14.41048399369998" lon="120.92427015536569"><ele>19.0</ele><time>2026-04-16T05:52:28Z</time></trkpt><trkpt lat="14.410582787313514" lon="120.924224955675"><ele>19.5</ele><time>2026-04-16T05:52:29Z</time></trkpt><trkpt lat="14.410688529099794" lon="120.92417657709454"><ele>20.0</ele><time>2026-04-16T05:52:30Z</time></trkpt><trkpt lat="14.410801435549617" lon="120.92412714278792"><ele>20.5</ele><time>2026-04-16T05:52:31Z</time></trkpt><trkpt lat="14.410916424476344" lon="120.92409011752767"><ele>21.0</ele><time>2026-04-16T05:52:32Z</time></trkpt><trkpt lat="14.411032485670829" lon="120.92406624326937"><ele>21.0</ele><time>2026-04-16T05:52:33Z</time></trkpt><trkpt lat="14.411150251471216" lon="120.92405787331666"><ele>21.0</ele><time>2026-04-16T05:52:34Z</time></trkpt><trkpt lat="14.411285185427007" lon="120.92405411594021"><ele>21.0</ele><time>2026-04-16T05:52:35Z</time></trkpt><trkpt lat="14.41141522708245" lon="120.92405673095149"><ele>21.0</ele><time>2026-04-16T05:52:36Z</time></trkpt><trkpt lat="14.41155745771209" lon="120.92406109484689"><ele>20.5</ele><time>2026-04-16T05:52:37Z</time></trkpt><trkpt lat="14.41169539978878" lon="120.92406532715567"><ele>20.0</ele><time>2026-04-16T05:52:38Z</time></trkpt><trkpt lat="14.411837764469631" lon="120.9240755600071"><ele>19.5</ele><time>2026-04-16T05:52:39Z</time></trkpt><trkpt lat="14.411993492008433" lon="120.92408658079749"><ele>19.0</ele><time>2026-04-16T05:52:40Z</time></trkpt><trkpt lat="14.412125839207867" lon="120.92410939276876"><ele>18.25</ele><time>2026-04-16T05:52:41Z</time></trkpt><trkpt lat="14.412253546787777" lon="120.92412906422895"><ele>17.5</ele><time>2026-04-16T05:52:42Z</time></trkpt><trkpt lat="14.412380314563563" lon="120.92414667951417"><ele>16.75</ele><time>2026-04-16T05:52:43Z</time></trkpt><trkpt lat="14.41251114861509" lon="120.92416485983725"><ele>16.0</ele><time>2026-04-16T05:52:44Z</time></trkpt><trkpt lat="14.41262230667116" lon="120.92418387235242"><ele>16.0</ele><time>2026-04-16T05:52:45Z</time></trkpt><trkpt lat="14.41272711386801" lon="120.92421367313257"><ele>16.0</ele><time>2026-04-16T05:52:46Z</time></trkpt><trkpt lat="14.412845383654751" lon="120.9242502451079"><ele>16.0</ele><time>2026-04-16T05:52:47Z</time></trkpt><trkpt lat="14.412964496475567" lon="120.92428298364598"><ele>16.0</ele><time>2026-04-16T05:52:48Z</time></trkpt><trkpt lat="14.413094068753995" lon="120.92429365537456"><ele>15.75</ele><time>2026-04-16T05:52:49Z</time></trkpt><trkpt lat="14.413216791404619" lon="120.92431170275697"><ele>15.5</ele><time>2026-04-16T05:52:50Z</time></trkpt><trkpt lat="14.413342517048225" lon="120.92432287252295"><ele>15.25</ele><time>2026-04-16T05:52:51Z</time></trkpt><trkpt lat="14.413465297971067" lon="120.92432929576451"><ele>15.0</ele><time>2026-04-16T05:52:52Z</time></trkpt><trkpt lat="14.413606803799597" lon="120.92433079209972"><ele>15.0</ele><time>2026-04-16T05:52:53Z</time></trkpt><trkpt lat="14.413736124982782" lon="120.92431286798002"><ele>15.0</ele><time>2026-04-16T05:52:54.001Z</time></trkpt><trkpt lat="14.41387383282596" lon="120.92429378149691"><ele>15.0</ele><time>2026-04-16T05:52:55.001Z</time></trkpt><trkpt lat="14.414018907266938" lon="120.92425455831832"><ele>15.0</ele><time>2026-04-16T05:52:56.001Z</time></trkpt><trkpt lat="14.414159067504622" lon="120.92422022478105"><ele>14.75</ele><time>2026-04-16T05:52:57.001Z</time></trkpt><trkpt lat="14.414301278955488" lon="120.92418531368384"><ele>14.5</ele><time>2026-04-16T05:52:58.001Z</time></trkpt><trkpt lat="14.414443574949145" lon="120.92415056424824"><ele>14.25</ele><time>2026-04-16T05:52:59.001Z</time></trkpt><trkpt lat="14.41458045457351" lon="120.92411984310804"><ele>14.0</ele><time>2026-04-16T05:53:00.001Z</time></trkpt><trkpt lat="14.41471513096622" lon="120.92409074376172"><ele>14.0</ele><time>2026-04-16T05:53:01.001Z</time></trkpt><trkpt lat="14.414847036185376" lon="120.92406224318228"><ele>14.0</ele><time>2026-04-16T05:53:02.001Z</time></trkpt><trkpt lat="14.414973993979647" lon="120.92403567068787"><ele>14.0</ele><time>2026-04-16T05:53:03.001Z</time></trkpt><trkpt lat="14.415109103170279" lon="120.92400807577188"><ele>14.0</ele><time>2026-04-16T05:53:04.001Z</time></trkpt><trkpt lat="14.415242940880802" lon="120.92399289006032"><ele>14.0</ele><time>2026-04-16T05:53:05.001Z</time></trkpt><trkpt lat="14.41537172007652" lon="120.92398139733268"><ele>14.0</ele><time>2026-04-16T05:53:06.001Z</time></trkpt><trkpt lat="14.41551701243063" lon="120.9239683955776"><ele>14.0</ele><time>2026-04-16T05:53:07.001Z</time></trkpt><trkpt lat="14.415656854621583" lon="120.9239558815387"><ele>14.0</ele><time>2026-04-16T05:53:08.001Z</time></trkpt><trkpt lat="14.415798604379797" lon="120.92394288181777"><ele>13.75</ele><time>2026-04-16T05:53:09.001Z</time></trkpt><trkpt lat="14.415924792790054" lon="120.92393108081528"><ele>13.5</ele><time>2026-04-16T05:53:10.001Z</time></trkpt><trkpt lat="14.416056968252388" lon="120.92391904616616"><ele>13.25</ele><time>2026-04-16T05:53:11.001Z</time></trkpt><trkpt lat="14.416199214714121" lon="120.9239061788921"><ele>13.0</ele><time>2026-04-16T05:53:12.001Z</time></trkpt><trkpt lat="14.416327532562246" lon="120.9238772596273"><ele>13.0</ele><time>2026-04-16T05:53:13.001Z</time></trkpt><trkpt lat="14.416457652275648" lon="120.92386523223851"><ele>13.0</ele><time>2026-04-16T05:53:14.001Z</time></trkpt><trkpt lat="14.416583139904105" lon="120.92385444670957"><ele>13.0</ele><time>2026-04-16T05:53:15.001Z</time></trkpt><trkpt lat="14.416700139998426" lon="120.92384394962355"><ele>13.0</ele><time>2026-04-16T05:53:16.001Z</time></trkpt><trkpt lat="14.416823495099745" lon="120.92382931885355"><ele>13.0</ele><time>2026-04-16T05:53:17.001Z</time></trkpt><trkpt lat="14.416944120732492" lon="120.9238355467447"><ele>13.0</ele><time>2026-04-16T05:53:18.001Z</time></trkpt><trkpt lat="14.41707540096692" lon="120.92382462694728"><ele>13.0</ele><time>2026-04-16T05:53:19.001Z</time></trkpt><trkpt lat="14.417207333642304" lon="120.92381390899295"><ele>13.0</ele><time>2026-04-16T05:53:20.001Z</time></trkpt><trkpt lat="14.417332801342988" lon="120.92380662976107"><ele>13.25</ele><time>2026-04-16T05:53:21.001Z</time></trkpt><trkpt lat="14.417461047311633" lon="120.92379939211803"><ele>13.5</ele><time>2026-04-16T05:53:22.001Z</time></trkpt><trkpt lat="14.417597604061841" lon="120.92377717983756"><ele>13.75</ele><time>2026-04-16T05:53:23.001Z</time></trkpt><trkpt lat="14.41773965617968" lon="120.9237708882425"><ele>14.0</ele><time>2026-04-16T05:53:24.001Z</time></trkpt><trkpt lat="14.417865364459686" lon="120.92375892111872"><ele>14.0</ele><time>2026-04-16T05:53:25.001Z</time></trkpt><trkpt lat="14.418011460275075" lon="120.92375001555693"><ele>14.0</ele><time>2026-04-16T05:53:26.001Z</time></trkpt><trkpt lat="14.41814118136762" lon="120.92375521586804"><ele>14.0</ele><time>2026-04-16T05:53:27.001Z</time></trkpt><trkpt lat="14.41827791407694" lon="120.92374414018451"><ele>14.0</ele><time>2026-04-16T05:53:28.001Z</time></trkpt><trkpt lat="14.41841239051802" lon="120.92373334622363"><ele>14.0</ele><time>2026-04-16T05:53:29.001Z</time></trkpt><trkpt lat="14.418549029452581" lon="120.92372274277744"><ele>14.0</ele><time>2026-04-16T05:53:30.001Z</time></trkpt><trkpt lat="14.41869664918294" lon="120.92371128719935"><ele>14.0</ele><time>2026-04-16T05:53:31.001Z</time></trkpt><trkpt lat="14.418830583593872" lon="120.92370083587058"><ele>14.0</ele><time>2026-04-16T05:53:32.001Z</time></trkpt><trkpt lat="14.418976869142579" lon="120.92365566130185"><ele>13.75</ele><time>2026-04-16T05:53:33.001Z</time></trkpt><trkpt lat="14.419118203918279" lon="120.92365670717236"><ele>13.5</ele><time>2026-04-16T05:53:34.001Z</time></trkpt><trkpt lat="14.419263903624323" lon="120.92365490308853"><ele>13.25</ele><time>2026-04-16T05:53:35.001Z</time></trkpt><trkpt lat="14.419406891901358" lon="120.9236480391829"><ele>13.0</ele><time>2026-04-16T05:53:36.001Z</time></trkpt><trkpt lat="14.419552095309717" lon="120.92363781443302"><ele>12.5</ele><time>2026-04-16T05:53:37.001Z</time></trkpt><trkpt lat="14.419695049226506" lon="120.92363210955557"><ele>12.0</ele><time>2026-04-16T05:53:38.001Z</time></trkpt><trkpt lat="14.419832858247409" lon="120.92362193141267"><ele>11.5</ele><time>2026-04-16T05:53:39.001Z</time></trkpt><trkpt lat="14.419973222432539" lon="120.92360844556279"><ele>11.0</ele><time>2026-04-16T05:53:40.001Z</time></trkpt><trkpt lat="14.420110800738614" lon="120.9235952112043"><ele>11.0</ele><time>2026-04-16T05:53:41.001Z</time></trkpt><trkpt lat="14.420235363294985" lon="120.92357503813922"><ele>11.0</ele><time>2026-04-16T05:53:42.001Z</time></trkpt><trkpt lat="14.4203556165929" lon="120.92357978490554"><ele>11.0</ele><time>2026-04-16T05:53:43.001Z</time></trkpt><trkpt lat="14.420476271792207" lon="120.92357268706039"><ele>11.0</ele><time>2026-04-16T05:53:44.001Z</time></trkpt><trkpt lat="14.42059321401289" lon="120.92356449445913"><ele>10.8</ele><time>2026-04-16T05:53:45.001Z</time></trkpt><trkpt lat="14.420698488117509" lon="120.92354061367814"><ele>10.600000000000001</ele><time>2026-04-16T05:53:46.001Z</time></trkpt><trkpt lat="14.420806558819548" lon="120.92353633239023"><ele>10.4</ele><time>2026-04-16T05:53:47.001Z</time></trkpt><trkpt lat="14.420914685452866" lon="120.92353329348144"><ele>10.2</ele><time>2026-04-16T05:53:48.001Z</time></trkpt><trkpt lat="14.42101632324236" lon="120.92354810845572"><ele>10.0</ele><time>2026-04-16T05:53:49.001Z</time></trkpt><trkpt lat="14.42110787926683" lon="120.92354785559294"><ele>10.0</ele><time>2026-04-16T05:53:50.001Z</time></trkpt><trkpt lat="14.421249010408692" lon="120.9235332435521"><ele>10.0</ele><time>2026-04-16T05:53:51.001Z</time></trkpt><trkpt lat="14.421364385556007" lon="120.92353995874649"><ele>10.0</ele><time>2026-04-16T05:53:52.001Z</time></trkpt><trkpt lat="14.421474693314396" lon="120.92354066795008"><ele>10.0</ele><time>2026-04-16T05:53:53.001Z</time></trkpt><trkpt lat="14.421577238840378" lon="120.92354193028649"><ele>10.0</ele><time>2026-04-16T05:53:54.001Z</time></trkpt><trkpt lat="14.421678295435118" lon="120.92354415224669"><ele>10.0</ele><time>2026-04-16T05:53:55.001Z</time></trkpt><trkpt lat="14.421784967791261" lon="120.92354302740705"><ele>10.0</ele><time>2026-04-16T05:53:56.001Z</time></trkpt><trkpt lat="14.421892052023994" lon="120.92353326256828"><ele>10.0</ele><time>2026-04-16T05:53:57.001Z</time></trkpt><trkpt lat="14.422006040485165" lon="120.92351393505906"><ele>10.0</ele><time>2026-04-16T05:53:58.001Z</time></trkpt><trkpt lat="14.422123251397878" lon="120.92349171562813"><ele>10.0</ele><time>2026-04-16T05:53:59.001Z</time></trkpt><trkpt lat="14.422247208297565" lon="120.92346629043591"><ele>10.0</ele><time>2026-04-16T05:54:00.001Z</time></trkpt><trkpt lat="14.42238142848776" lon="120.92345348911324"><ele>10.0</ele><time>2026-04-16T05:54:01.001Z</time></trkpt><trkpt lat="14.42252242298776" lon="120.9234336398209"><ele>10.0</ele><time>2026-04-16T05:54:02Z</time></trkpt><trkpt lat="14.422667414502374" lon="120.92341322782761"><ele>10.25</ele><time>2026-04-16T05:54:03Z</time></trkpt><trkpt lat="14.422812489290338" lon="120.92339244223714"><ele>10.5</ele><time>2026-04-16T05:54:04Z</time></trkpt><trkpt lat="14.42296031334977" lon="120.9233712151708"><ele>10.75</ele><time>2026-04-16T05:54:05Z</time></trkpt><trkpt lat="14.423106206593076" lon="120.92334588938358"><ele>11.0</ele><time>2026-04-16T05:54:06Z</time></trkpt><trkpt lat="14.423250459615922" lon="120.92330884733506"><ele>11.0</ele><time>2026-04-16T05:54:07Z</time></trkpt><trkpt lat="14.423398542666636" lon="120.92328851942385"><ele>11.0</ele><time>2026-04-16T05:54:08Z</time></trkpt><trkpt lat="14.423553627080956" lon="120.92327393171767"><ele>11.0</ele><time>2026-04-16T05:54:09Z</time></trkpt><trkpt lat="14.42371204508272" lon="120.92325870412294"><ele>11.333333333333332</ele><time>2026-04-16T05:54:10Z</time></trkpt><trkpt lat="14.423873266708494" lon="120.92324453655696"><ele>11.666666666666666</ele><time>2026-04-16T05:54:11Z</time></trkpt><trkpt lat="14.424040546077075" lon="120.9232554579065"><ele>12.0</ele><time>2026-04-16T05:54:12Z</time></trkpt><trkpt lat="14.424209675091861" lon="120.9232519109196"><ele>12.0</ele><time>2026-04-16T05:54:13Z</time></trkpt><trkpt lat="14.424377787617788" lon="120.92324887875738"><ele>12.0</ele><time>2026-04-16T05:54:14Z</time></trkpt><trkpt lat="14.424545814549584" lon="120.92325003497237"><ele>12.0</ele><time>2026-04-16T05:54:15Z</time></trkpt><trkpt lat="14.424713491233605" lon="120.92325118877709"><ele>12.0</ele><time>2026-04-16T05:54:16Z</time></trkpt><trkpt lat="14.424882619900519" lon="120.9232523525735"><ele>12.0</ele><time>2026-04-16T05:54:17Z</time></trkpt><trkpt lat="14.425049356389007" lon="120.92325349990878"><ele>12.0</ele><time>2026-04-16T05:54:18Z</time></trkpt><trkpt lat="14.425214068458347" lon="120.9232546333137"><ele>12.0</ele><time>2026-04-16T05:54:19Z</time></trkpt><trkpt lat="14.425375756260655" lon="120.92325574590879"><ele>12.0</ele><time>2026-04-16T05:54:20Z</time></trkpt><trkpt lat="14.42552606050812" lon="120.92325679601926"><ele>12.0</ele><time>2026-04-16T05:54:21Z</time></trkpt><trkpt lat="14.425670342222418" lon="120.9232584225112"><ele>11.5</ele><time>2026-04-16T05:54:22Z</time></trkpt><trkpt lat="14.425816273873572" lon="120.92326006760261"><ele>11.0</ele><time>2026-04-16T05:54:23Z</time></trkpt><trkpt lat="14.425961896956457" lon="120.92325952539994"><ele>10.5</ele><time>2026-04-16T05:54:24Z</time></trkpt><trkpt lat="14.426103918036482" lon="120.92325702094172"><ele>10.0</ele><time>2026-04-16T05:54:25Z</time></trkpt><trkpt lat="14.426238462203429" lon="120.92325528353717"><ele>10.0</ele><time>2026-04-16T05:54:26Z</time></trkpt><trkpt lat="14.426359357916365" lon="120.92325379467371"><ele>10.0</ele><time>2026-04-16T05:54:27Z</time></trkpt><trkpt lat="14.426470092260091" lon="120.92325243131714"><ele>10.0</ele><time>2026-04-16T05:54:28Z</time></trkpt><trkpt lat="14.426568249879441" lon="120.92325195497415"><ele>10.0</ele><time>2026-04-16T05:54:29Z</time></trkpt><trkpt lat="14.426659147292906" lon="120.92325083171751"><ele>10.0</ele><time>2026-04-16T05:54:30Z</time></trkpt><trkpt lat="14.426744486410698" lon="120.92320697460062"><ele>10.0</ele><time>2026-04-16T05:54:31Z</time></trkpt><trkpt lat="14.426818277251009" lon="120.92315008095851"><ele>10.0</ele><time>2026-04-16T05:54:32Z</time></trkpt><trkpt lat="14.42691847863324" lon="120.92310492031352"><ele>10.0</ele><time>2026-04-16T05:54:33Z</time></trkpt><trkpt lat="14.427011844961939" lon="120.92304354432528"><ele>10.0</ele><time>2026-04-16T05:54:34Z</time></trkpt><trkpt lat="14.427108130811568" lon="120.92298493829631"><ele>10.0</ele><time>2026-04-16T05:54:35Z</time></trkpt><trkpt lat="14.427199558299453" lon="120.92293097522068"><ele>10.2</ele><time>2026-04-16T05:54:36Z</time></trkpt><trkpt lat="14.427289616718403" lon="120.9228722640877"><ele>10.4</ele><time>2026-04-16T05:54:37Z</time></trkpt><trkpt lat="14.427377309008472" lon="120.92281690742314"><ele>10.600000000000001</ele><time>2026-04-16T05:54:38Z</time></trkpt><trkpt lat="14.427459921080878" lon="120.92276642223445"><ele>10.8</ele><time>2026-04-16T05:54:39Z</time></trkpt><trkpt lat="14.42753805531199" lon="120.92272085160889"><ele>11.0</ele><time>2026-04-16T05:54:40Z</time></trkpt><trkpt lat="14.427606619043942" lon="120.92268401702076"><ele>11.0</ele><time>2026-04-16T05:54:41Z</time></trkpt><trkpt lat="14.427673194707323" lon="120.92264195636763"><ele>11.0</ele><time>2026-04-16T05:54:42Z</time></trkpt><trkpt lat="14.427748705758406" lon="120.92258090037738"><ele>11.0</ele><time>2026-04-16T05:54:43Z</time></trkpt><trkpt lat="14.427846535709698" lon="120.92252347099388"><ele>11.0</ele><time>2026-04-16T05:54:44Z</time></trkpt><trkpt lat="14.427955518602465" lon="120.92245949446931"><ele>11.0</ele><time>2026-04-16T05:54:45Z</time></trkpt><trkpt lat="14.428066098439244" lon="120.92240637953954"><ele>10.833333333333332</ele><time>2026-04-16T05:54:46Z</time></trkpt><trkpt lat="14.428158732239817" lon="120.92235245657483"><ele>10.666666666666666</ele><time>2026-04-16T05:54:47Z</time></trkpt><trkpt lat="14.428235836221207" lon="120.9223073962219"><ele>10.5</ele><time>2026-04-16T05:54:48Z</time></trkpt><trkpt lat="14.42830515208823" lon="120.92228662406563"><ele>10.333333333333334</ele><time>2026-04-16T05:54:49Z</time></trkpt><trkpt lat="14.428372101070607" lon="120.92228482692481"><ele>10.166666666666668</ele><time>2026-04-16T05:54:50Z</time></trkpt><trkpt lat="14.428436751086904" lon="120.92229175494835"><ele>10.0</ele><time>2026-04-16T05:54:51Z</time></trkpt><trkpt lat="14.428540828554947" lon="120.92232804314565"><ele>10.0</ele><time>2026-04-16T05:54:53Z</time></trkpt><trkpt lat="14.428596774015466" lon="120.92236368121924"><ele>10.0</ele><time>2026-04-16T05:54:55Z</time></trkpt><trkpt lat="14.42857886740632" lon="120.92244947716233"><ele>10.0</ele><time>2026-04-16T05:54:57Z</time></trkpt><trkpt lat="14.428588319324001" lon="120.9225245183329"><ele>10.0</ele><time>2026-04-16T05:54:58Z</time></trkpt><trkpt lat="14.428583992583873" lon="120.9226132472288"><ele>10.0</ele><time>2026-04-16T05:54:59Z</time></trkpt><trkpt lat="14.428563832058607" lon="120.9227076181062"><ele>10.0</ele><time>2026-04-16T05:55:00Z</time></trkpt><trkpt lat="14.428558880007724" lon="120.92279223149855"><ele>10.4</ele><time>2026-04-16T05:55:01Z</time></trkpt><trkpt lat="14.428554125449766" lon="120.92287347039944"><ele>10.8</ele><time>2026-04-16T05:55:02Z</time></trkpt><trkpt lat="14.428549839843638" lon="120.92294669660666"><ele>11.2</ele><time>2026-04-16T05:55:03Z</time></trkpt><trkpt lat="14.428543302980714" lon="120.92308756434771"><ele>11.6</ele><time>2026-04-16T05:55:05Z</time></trkpt><trkpt lat="14.428539781152669" lon="120.92317712393776"><ele>12.0</ele><time>2026-04-16T05:55:06Z</time></trkpt><trkpt lat="14.428535894073539" lon="120.92327597186313"><ele>11.6</ele><time>2026-04-16T05:55:07Z</time></trkpt><trkpt lat="14.428530957497262" lon="120.92340150830957"><ele>11.2</ele><time>2026-04-16T05:55:08Z</time></trkpt><trkpt lat="14.428526476702439" lon="120.92351545431895"><ele>10.8</ele><time>2026-04-16T05:55:09.001Z</time></trkpt><trkpt lat="14.428539470387538" lon="120.92362295255722"><ele>10.4</ele><time>2026-04-16T05:55:10.001Z</time></trkpt><trkpt lat="14.428521745593612" lon="120.92371344791552"><ele>10.0</ele><time>2026-04-16T05:55:11.001Z</time></trkpt><trkpt lat="14.428520460977978" lon="120.92378005027915"><ele>10.0</ele><time>2026-04-16T05:55:12.001Z</time></trkpt><trkpt lat="14.42851855348047" lon="120.92387894667094"><ele>10.0</ele><time>2026-04-16T05:55:14.001Z</time></trkpt><trkpt lat="14.42851721295933" lon="120.92394844755661"><ele>10.0</ele><time>2026-04-16T05:55:16.001Z</time></trkpt><trkpt lat="14.428515469773613" lon="120.92403882505432"><ele>10.0</ele><time>2026-04-16T05:55:19.001Z</time></trkpt><trkpt lat="14.428514141882088" lon="120.92410767102132"><ele>10.0</ele><time>2026-04-16T05:55:21.001Z</time></trkpt><trkpt lat="14.428516338762902" lon="120.92418142552309"><ele>10.0</ele><time>2026-04-16T05:55:23.001Z</time></trkpt><trkpt lat="14.428518552654463" lon="120.92426797541222"><ele>10.0</ele><time>2026-04-16T05:55:25.001Z</time></trkpt><trkpt lat="14.428521218884761" lon="120.9243722090517"><ele>10.0</ele><time>2026-04-16T05:55:27.001Z</time></trkpt><trkpt lat="14.428523556055762" lon="120.92446357848998"><ele>10.0</ele><time>2026-04-16T05:55:29.001Z</time></trkpt><trkpt lat="14.428525699791935" lon="120.92454738570912"><ele>10.0</ele><time>2026-04-16T05:55:31.001Z</time></trkpt><trkpt lat="14.428532859883559" lon="120.9246250972374"><ele>10.0</ele><time>2026-04-16T05:55:33.001Z</time></trkpt><trkpt lat="14.428540271843508" lon="120.92469628743017"><ele>10.0</ele><time>2026-04-16T05:55:35.001Z</time></trkpt><trkpt lat="14.428550270789648" lon="120.92479232507748"><ele>10.0</ele><time>2026-04-16T05:55:37.001Z</time></trkpt><trkpt lat="14.42856080629523" lon="120.92489351623259"><ele>10.0</ele><time>2026-04-16T05:55:39.001Z</time></trkpt><trkpt lat="14.42857129348375" lon="120.92500342812615"><ele>10.0</ele><time>2026-04-16T05:55:41.001Z</time></trkpt><trkpt lat="14.428580976665714" lon="120.92510824432303"><ele>10.0</ele><time>2026-04-16T05:55:43.001Z</time></trkpt><trkpt lat="14.428590464370448" lon="120.92521094456244"><ele>10.0</ele><time>2026-04-16T05:55:45.001Z</time></trkpt><trkpt lat="14.428596333526249" lon="120.92530431381851"><ele>10.0</ele><time>2026-04-16T05:55:47.001Z</time></trkpt><trkpt lat="14.428602693574783" lon="120.92541934146391"><ele>10.0</ele><time>2026-04-16T05:55:49.001Z</time></trkpt><trkpt lat="14.428608940791444" lon="120.92553232846508"><ele>10.0</ele><time>2026-04-16T05:55:51.001Z</time></trkpt><trkpt lat="14.42861528475134" lon="120.92564706498034"><ele>10.0</ele><time>2026-04-16T05:55:53.001Z</time></trkpt><trkpt lat="14.428619593713629" lon="120.92571665615371"><ele>10.0</ele><time>2026-04-16T05:55:54.001Z</time></trkpt><trkpt lat="14.428625106632593" lon="120.92581709383889"><ele>10.25</ele><time>2026-04-16T05:55:55.001Z</time></trkpt><trkpt lat="14.428630984095882" lon="120.9259270136949"><ele>10.5</ele><time>2026-04-16T05:55:56.001Z</time></trkpt><trkpt lat="14.428643212176194" lon="120.92605573084396"><ele>10.75</ele><time>2026-04-16T05:55:57.001Z</time></trkpt><trkpt lat="14.428655359156517" lon="120.92618160009742"><ele>11.0</ele><time>2026-04-16T05:55:58.001Z</time></trkpt><trkpt lat="14.428666770994788" lon="120.92630312051973"><ele>11.0</ele><time>2026-04-16T05:55:59.001Z</time></trkpt><trkpt lat="14.428677759479932" lon="120.92642530871213"><ele>11.0</ele><time>2026-04-16T05:56:00.001Z</time></trkpt><trkpt lat="14.428687356378925" lon="120.92653787839755"><ele>11.0</ele><time>2026-04-16T05:56:01.001Z</time></trkpt><trkpt lat="14.428694229952766" lon="120.9266407176728"><ele>11.0</ele><time>2026-04-16T05:56:02.001Z</time></trkpt><trkpt lat="14.428700958228442" lon="120.92673958657763"><ele>11.0</ele><time>2026-04-16T05:56:03.001Z</time></trkpt><trkpt lat="14.428706497516288" lon="120.92682036265654"><ele>10.833333333333332</ele><time>2026-04-16T05:56:04.001Z</time></trkpt><trkpt lat="14.428714825803004" lon="120.92691753259365"><ele>10.666666666666666</ele><time>2026-04-16T05:56:05.001Z</time></trkpt><trkpt lat="14.428723758221857" lon="120.92700415223689"><ele>10.5</ele><time>2026-04-16T05:56:06.001Z</time></trkpt><trkpt lat="14.428732704330164" lon="120.92709435650904"><ele>10.333333333333334</ele><time>2026-04-16T05:56:07.001Z</time></trkpt><trkpt lat="14.42874029668166" lon="120.92717091076746"><ele>10.166666666666668</ele><time>2026-04-16T05:56:08Z</time></trkpt><trkpt lat="14.428747676296634" lon="120.92724531998306"><ele>10.0</ele><time>2026-04-16T05:56:09Z</time></trkpt><trkpt lat="14.428754274733922" lon="120.92731185253108"><ele>10.0</ele><time>2026-04-16T05:56:10Z</time></trkpt><trkpt lat="14.428765963936511" lon="120.92742971567989"><ele>10.0</ele><time>2026-04-16T05:56:12Z</time></trkpt><trkpt lat="14.428778887942734" lon="120.92756002939916"><ele>10.0</ele><time>2026-04-16T05:56:14Z</time></trkpt><trkpt lat="14.428799259823315" lon="120.92762518546814"><ele>10.0</ele><time>2026-04-16T05:56:15Z</time></trkpt><trkpt lat="14.428796554160636" lon="120.92773815924434"><ele>10.0</ele><time>2026-04-16T05:56:17Z</time></trkpt><trkpt lat="14.42880339910714" lon="120.92780717733586"><ele>10.333333333333334</ele><time>2026-04-16T05:56:19Z</time></trkpt><trkpt lat="14.428810202346025" lon="120.9278757749648"><ele>10.666666666666668</ele><time>2026-04-16T05:56:21Z</time></trkpt><trkpt lat="14.428818247188032" lon="120.92797861235371"><ele>11.0</ele><time>2026-04-16T05:56:23Z</time></trkpt><trkpt lat="14.428824476705913" lon="120.9280508522787"><ele>11.333333333333334</ele><time>2026-04-16T05:56:25Z</time></trkpt><trkpt lat="14.428831833236933" lon="120.92813892439013"><ele>11.666666666666666</ele><time>2026-04-16T05:56:27Z</time></trkpt><trkpt lat="14.428841823502864" lon="120.9282585274578"><ele>12.0</ele><time>2026-04-16T05:56:29Z</time></trkpt><trkpt lat="14.428862736869535" lon="120.92832375312618"><ele>11.714285714285714</ele><time>2026-04-16T05:56:30Z</time></trkpt><trkpt lat="14.428865967720764" lon="120.92839958186234"><ele>11.428571428571429</ele><time>2026-04-16T05:56:31Z</time></trkpt><trkpt lat="14.428874057616873" lon="120.92848186629637"><ele>11.142857142857142</ele><time>2026-04-16T05:56:32Z</time></trkpt><trkpt lat="14.428869690128597" lon="120.92856242853236"><ele>10.857142857142858</ele><time>2026-04-16T05:56:33Z</time></trkpt><trkpt lat="14.42889530224511" lon="120.92864251013829"><ele>10.571428571428571</ele><time>2026-04-16T05:56:34Z</time></trkpt><trkpt lat="14.42890289768237" lon="120.9287136559534"><ele>10.285714285714285</ele><time>2026-04-16T05:56:35Z</time></trkpt><trkpt lat="14.428907132260733" lon="120.92877949863664"><ele>10.0</ele><time>2026-04-16T05:56:36Z</time></trkpt><trkpt lat="14.428916412507167" lon="120.92889726845517"><ele>10.0</ele><time>2026-04-16T05:56:38Z</time></trkpt><trkpt lat="14.42891180705693" lon="120.92900552920324"><ele>10.0</ele><time>2026-04-16T05:56:40Z</time></trkpt><trkpt lat="14.42891973242008" lon="120.92913298051248"><ele>10.0</ele><time>2026-04-16T05:56:42Z</time></trkpt><trkpt lat="14.428923922496946" lon="120.92920036300667"><ele>10.0</ele><time>2026-04-16T05:56:43Z</time></trkpt><trkpt lat="14.428928644387838" lon="120.92927629736081"><ele>10.0</ele><time>2026-04-16T05:56:44Z</time></trkpt><trkpt lat="14.428939055793727" lon="120.92934980043795"><ele>10.0</ele><time>2026-04-16T05:56:45Z</time></trkpt><trkpt lat="14.428947478868544" lon="120.92942961350683"><ele>10.0</ele><time>2026-04-16T05:56:46Z</time></trkpt><trkpt lat="14.428955890940658" lon="120.92950964288862"><ele>10.0</ele><time>2026-04-16T05:56:47Z</time></trkpt><trkpt lat="14.428972289191984" lon="120.92958316238827"><ele>10.0</ele><time>2026-04-16T05:56:48Z</time></trkpt><trkpt lat="14.4289747801124" lon="120.9296924968772"><ele>10.0</ele><time>2026-04-16T05:56:50Z</time></trkpt><trkpt lat="14.428983725672134" lon="120.92978209639293"><ele>10.0</ele><time>2026-04-16T05:56:52Z</time></trkpt><trkpt lat="14.42899242021757" lon="120.9298640814921"><ele>10.0</ele><time>2026-04-16T05:56:54Z</time></trkpt><trkpt lat="14.429000705871823" lon="120.92994221095074"><ele>10.0</ele><time>2026-04-16T05:56:56Z</time></trkpt><trkpt lat="14.42900943521684" lon="120.93002452419618"><ele>10.0</ele><time>2026-04-16T05:56:58Z</time></trkpt><trkpt lat="14.429021734592137" lon="120.93014050100699"><ele>10.0</ele><time>2026-04-16T05:57:00Z</time></trkpt><trkpt lat="14.429029923213234" lon="120.93021771527665"><ele>10.0</ele><time>2026-04-16T05:57:01Z</time></trkpt><trkpt lat="14.429039101015512" lon="120.93031244226454"><ele>10.0</ele><time>2026-04-16T05:57:02Z</time></trkpt><trkpt lat="14.429049606101467" lon="120.93041889294614"><ele>10.75</ele><time>2026-04-16T05:57:03Z</time></trkpt><trkpt lat="14.42906186071205" lon="120.93054307203913"><ele>11.5</ele><time>2026-04-16T05:57:04Z</time></trkpt><trkpt lat="14.429074368828276" lon="120.93066981990964"><ele>12.25</ele><time>2026-04-16T05:57:05Z</time></trkpt><trkpt lat="14.429087421690594" lon="120.93080208783938"><ele>13.0</ele><time>2026-04-16T05:57:06Z</time></trkpt><trkpt lat="14.429100896464137" lon="120.93093863111827"><ele>13.0</ele><time>2026-04-16T05:57:07Z</time></trkpt><trkpt lat="14.4291133722566" lon="120.93107787150043"><ele>13.0</ele><time>2026-04-16T05:57:08Z</time></trkpt><trkpt lat="14.429123773771575" lon="120.93121558048303"><ele>13.0</ele><time>2026-04-16T05:57:09Z</time></trkpt><trkpt lat="14.429134348349258" lon="120.93135635111224"><ele>13.0</ele><time>2026-04-16T05:57:10Z</time></trkpt><trkpt lat="14.429144093501547" lon="120.93148973477268"><ele>13.0</ele><time>2026-04-16T05:57:11.001Z</time></trkpt><trkpt lat="14.429153171228323" lon="120.93161284565534"><ele>13.0</ele><time>2026-04-16T05:57:12.001Z</time></trkpt><trkpt lat="14.42916187681237" lon="120.9317224852149"><ele>13.0</ele><time>2026-04-16T05:57:13.001Z</time></trkpt><trkpt lat="14.429170181847233" lon="120.93182708017571"><ele>13.0</ele><time>2026-04-16T05:57:14.001Z</time></trkpt><trkpt lat="14.429178142812914" lon="120.93192734188929"><ele>13.0</ele><time>2026-04-16T05:57:15.001Z</time></trkpt><trkpt lat="14.429184568035707" lon="120.93200826218786"><ele>12.8</ele><time>2026-04-16T05:57:16.001Z</time></trkpt><trkpt lat="14.429191104099768" lon="120.93208419963396"><ele>12.600000000000001</ele><time>2026-04-16T05:57:17.001Z</time></trkpt><trkpt lat="14.429205735796522" lon="120.93219265822393"><ele>12.399999999999999</ele><time>2026-04-16T05:57:19.001Z</time></trkpt><trkpt lat="14.429236608331044" lon="120.93227826971656"><ele>12.2</ele><time>2026-04-16T05:57:21.001Z</time></trkpt><trkpt lat="14.42922096604481" lon="120.93234238595312"><ele>12.0</ele><time>2026-04-16T05:57:27.001Z</time></trkpt><trkpt lat="14.429094253358915" lon="120.93234957079068"><ele>12.0</ele><time>2026-04-16T05:57:28.001Z</time></trkpt><trkpt lat="14.429021696679788" lon="120.93239265501421"><ele>12.0</ele><time>2026-04-16T05:57:31.001Z</time></trkpt><trkpt lat="14.428937013261255" lon="120.93244106878083"><ele>12.0</ele><time>2026-04-16T05:57:34.001Z</time></trkpt><trkpt lat="14.42887217541555" lon="120.93247994596108"><ele>12.0</ele><time>2026-04-16T05:57:36.001Z</time></trkpt><trkpt lat="14.428784241001454" lon="120.93252958770171"><ele>12.0</ele><time>2026-04-16T05:57:38.001Z</time></trkpt><trkpt lat="14.428703709865554" lon="120.93257525170445"><ele>12.0</ele><time>2026-04-16T05:57:40.001Z</time></trkpt><trkpt lat="14.428644081826876" lon="120.93260836104244"><ele>12.333333333333334</ele><time>2026-04-16T05:57:42.001Z</time></trkpt><trkpt lat="14.42856306875256" lon="120.93265334472552"><ele>12.666666666666668</ele><time>2026-04-16T05:57:45.001Z</time></trkpt><trkpt lat="14.428487373033127" lon="120.93269630976982"><ele>13.0</ele><time>2026-04-16T05:57:47.001Z</time></trkpt><trkpt lat="14.428422493036349" lon="120.93273329864654"><ele>13.333333333333334</ele><time>2026-04-16T05:57:49.001Z</time></trkpt><trkpt lat="14.428345693099272" lon="120.93277636925893"><ele>13.666666666666668</ele><time>2026-04-16T05:57:51.001Z</time></trkpt><trkpt lat="14.428284045773177" lon="120.93285812466767"><ele>14.0</ele><time>2026-04-16T05:57:53.001Z</time></trkpt><trkpt lat="14.428201786957855" lon="120.93290880096141"><ele>14.000000000000002</ele><time>2026-04-16T05:57:55.001Z</time></trkpt><trkpt lat="14.42811076688234" lon="120.93293035844637"><ele>14.0</ele><time>2026-04-16T05:57:57.001Z</time></trkpt><trkpt lat="14.428050235785284" lon="120.93299112328015"><ele>14.0</ele><time>2026-04-16T05:57:59.001Z</time></trkpt><trkpt lat="14.427998031672004" lon="120.93305426273827"><ele>14.0</ele><time>2026-04-16T05:58:01.001Z</time></trkpt><trkpt lat="14.427925768929526" lon="120.93310408811011"><ele>14.000000000000002</ele><time>2026-04-16T05:58:03.001Z</time></trkpt><trkpt lat="14.427864887170111" lon="120.93316192361017"><ele>14.0</ele><time>2026-04-16T05:58:05.001Z</time></trkpt><trkpt lat="14.427833582306077" lon="120.93325507671064"><ele>13.6</ele><time>2026-04-16T05:58:07.001Z</time></trkpt><trkpt lat="14.427873800774112" lon="120.93336265420875"><ele>13.2</ele><time>2026-04-16T05:58:09.001Z</time></trkpt><trkpt lat="14.427906655938191" lon="120.93342582848878"><ele>12.799999999999999</ele><time>2026-04-16T05:58:10.001Z</time></trkpt><trkpt lat="14.427953055263732" lon="120.93354419880134"><ele>12.399999999999999</ele><time>2026-04-16T05:58:12.001Z</time></trkpt><trkpt lat="14.427997708553576" lon="120.93365348917575"><ele>12.0</ele><time>2026-04-16T05:58:13.999Z</time></trkpt><trkpt lat="14.428041683545247" lon="120.9337622634731"><ele>12.0</ele><time>2026-04-16T05:58:15.999Z</time></trkpt><trkpt lat="14.42807502434426" lon="120.93383142404"><ele>12.0</ele><time>2026-04-16T05:58:16.999Z</time></trkpt><trkpt lat="14.4281132088067" lon="120.93391115316442"><ele>12.0</ele><time>2026-04-16T05:58:17.999Z</time></trkpt><trkpt lat="14.42814020113153" lon="120.9340059568486"><ele>12.0</ele><time>2026-04-16T05:58:18.999Z</time></trkpt><trkpt lat="14.42817164243116" lon="120.93411302426249"><ele>12.0</ele><time>2026-04-16T05:58:19.999Z</time></trkpt><trkpt lat="14.42821725770892" lon="120.93421625927392"><ele>11.8</ele><time>2026-04-16T05:58:20.999Z</time></trkpt><trkpt lat="14.428253328528927" lon="120.93430275396489"><ele>11.6</ele><time>2026-04-16T05:58:21.999Z</time></trkpt><trkpt lat="14.42828753025697" lon="120.93438646999094"><ele>11.4</ele><time>2026-04-16T05:58:22.999Z</time></trkpt><trkpt lat="14.428318489014536" lon="120.93445894019848"><ele>11.200000000000001</ele><time>2026-04-16T05:58:23.999Z</time></trkpt><trkpt lat="14.428358997077378" lon="120.93455077265847"><ele>11.0</ele><time>2026-04-16T05:58:25.999Z</time></trkpt><trkpt lat="14.428400297385068" lon="120.93465102807089"><ele>11.0</ele><time>2026-04-16T05:58:28Z</time></trkpt><trkpt lat="14.428426261346566" lon="120.93471661903823"><ele>11.0</ele><time>2026-04-16T05:58:29Z</time></trkpt><trkpt lat="14.428453910266132" lon="120.93478631365582"><ele>11.0</ele><time>2026-04-16T05:58:30Z</time></trkpt><trkpt lat="14.428485523795517" lon="120.93486543754925"><ele>11.0</ele><time>2026-04-16T05:58:31Z</time></trkpt><trkpt lat="14.428520730701495" lon="120.93494954777816"><ele>11.0</ele><time>2026-04-16T05:58:32Z</time></trkpt><trkpt lat="14.428552188907759" lon="120.93502769307983"><ele>11.0</ele><time>2026-04-16T05:58:33Z</time></trkpt><trkpt lat="14.428586703244004" lon="120.93511347125106"><ele>11.0</ele><time>2026-04-16T05:58:34Z</time></trkpt><trkpt lat="14.428618365772797" lon="120.93518762488566"><ele>11.0</ele><time>2026-04-16T05:58:35Z</time></trkpt><trkpt lat="14.428647851241339" lon="120.93525816989197"><ele>11.0</ele><time>2026-04-16T05:58:36Z</time></trkpt><trkpt lat="14.42867625559438" lon="120.93532329904505"><ele>11.0</ele><time>2026-04-16T05:58:37Z</time></trkpt><trkpt lat="14.42870325498146" lon="120.93538982700403"><ele>11.0</ele><time>2026-04-16T05:58:38Z</time></trkpt><trkpt lat="14.428728840894742" lon="120.93546213269083"><ele>11.0</ele><time>2026-04-16T05:58:39Z</time></trkpt><trkpt lat="14.42875543536921" lon="120.93552877076357"><ele>11.0</ele><time>2026-04-16T05:58:40Z</time></trkpt><trkpt lat="14.428783870564649" lon="120.93560600039054"><ele>11.0</ele><time>2026-04-16T05:58:41Z</time></trkpt><trkpt lat="14.428816594930472" lon="120.93569460789652"><ele>11.0</ele><time>2026-04-16T05:58:42Z</time></trkpt><trkpt lat="14.428844082978442" lon="120.9357676780265"><ele>11.0</ele><time>2026-04-16T05:58:43Z</time></trkpt><trkpt lat="14.428871115900247" lon="120.93583253442208"><ele>11.0</ele><time>2026-04-16T05:58:44Z</time></trkpt><trkpt lat="14.428915628405864" lon="120.93594111399588"><ele>11.0</ele><time>2026-04-16T05:58:46Z</time></trkpt><trkpt lat="14.42894842310191" lon="120.93604616057534"><ele>11.0</ele><time>2026-04-16T05:58:48Z</time></trkpt><trkpt lat="14.428907424957684" lon="120.93614270302002"><ele>11.0</ele><time>2026-04-16T05:58:50Z</time></trkpt><trkpt lat="14.42880412447868" lon="120.93619893713223"><ele>11.0</ele><time>2026-04-16T05:58:52Z</time></trkpt><trkpt lat="14.428715404517522" lon="120.93624857900413"><ele>11.0</ele><time>2026-04-16T05:58:54Z</time></trkpt><trkpt lat="14.428727284557143" lon="120.93641770110554"><ele>11.0</ele><time>2026-04-16T05:58:57Z</time></trkpt><trkpt lat="14.4287631242655" lon="120.93647871804698"><ele>11.0</ele><time>2026-04-16T05:58:58Z</time></trkpt><trkpt lat="14.428797977756414" lon="120.93653851885213"><ele>11.0</ele><time>2026-04-16T05:58:59Z</time></trkpt><trkpt lat="14.428851367288633" lon="120.9366321211257"><ele>11.0</ele><time>2026-04-16T05:59:01Z</time></trkpt><trkpt lat="14.428894842350779" lon="120.936721194539"><ele>11.0</ele><time>2026-04-16T05:59:03Z</time></trkpt><trkpt lat="14.428946629068719" lon="120.93682963954826"><ele>10.8</ele><time>2026-04-16T05:59:05Z</time></trkpt><trkpt lat="14.42899076357304" lon="120.93692349618681"><ele>10.600000000000001</ele><time>2026-04-16T05:59:07Z</time></trkpt><trkpt lat="14.429023839749604" lon="120.93699959029608"><ele>10.4</ele><time>2026-04-16T05:59:09Z</time></trkpt><trkpt lat="14.429045607753752" lon="120.93706373400693"><ele>10.2</ele><time>2026-04-16T05:59:11Z</time></trkpt><trkpt lat="14.428935386347291" lon="120.93714763181012"><ele>10.0</ele><time>2026-04-16T06:01:07Z</time></trkpt><trkpt lat="14.429022629127873" lon="120.93704853791293"><ele>10.0</ele><time>2026-04-16T06:17:30.999Z</time></trkpt><trkpt lat="14.429097327496287" lon="120.93701263644073"><ele>10.0</ele><time>2026-04-16T06:17:34.999Z</time></trkpt><trkpt lat="14.429198948985713" lon="120.936984907951"><ele>10.0</ele><time>2026-04-16T06:17:36.999Z</time></trkpt><trkpt lat="14.42929167776809" lon="120.93693030335747"><ele>10.0</ele><time>2026-04-16T06:17:38.999Z</time></trkpt><trkpt lat="14.429329353356055" lon="120.93683827757302"><ele>10.0</ele><time>2026-04-16T06:17:40.999Z</time></trkpt><trkpt lat="14.429279934804782" lon="120.93671548319892"><ele>10.166666666666668</ele><time>2026-04-16T06:17:42.999Z</time></trkpt><trkpt lat="14.429238145505225" lon="120.9366350123777"><ele>10.333333333333334</ele><time>2026-04-16T06:17:43.999Z</time></trkpt><trkpt lat="14.429206377502314" lon="120.93656309393756"><ele>10.5</ele><time>2026-04-16T06:17:44.999Z</time></trkpt><trkpt lat="14.429164073113991" lon="120.93648295281375"><ele>10.666666666666666</ele><time>2026-04-16T06:17:45.999Z</time></trkpt><trkpt lat="14.42912670778325" lon="120.93639876870537"><ele>10.833333333333332</ele><time>2026-04-16T06:17:46.999Z</time></trkpt><trkpt lat="14.429092796407865" lon="120.9363143226596"><ele>11.0</ele><time>2026-04-16T06:17:47.999Z</time></trkpt><trkpt lat="14.429057242137302" lon="120.93622621280099"><ele>11.0</ele><time>2026-04-16T06:17:48.999Z</time></trkpt><trkpt lat="14.429024257109843" lon="120.93614764048701"><ele>11.0</ele><time>2026-04-16T06:17:49.999Z</time></trkpt><trkpt lat="14.428994339868234" lon="120.93607646088292"><ele>11.0</ele><time>2026-04-16T06:17:50.999Z</time></trkpt><trkpt lat="14.428995846300909" lon="120.93600447713072"><ele>11.0</ele><time>2026-04-16T06:17:51.999Z</time></trkpt><trkpt lat="14.428949864395356" lon="120.93589074619298"><ele>11.0</ele><time>2026-04-16T06:17:53.999Z</time></trkpt><trkpt lat="14.428919682682663" lon="120.93581616159594"><ele>11.0</ele><time>2026-04-16T06:17:54.999Z</time></trkpt><trkpt lat="14.428890652932235" lon="120.93574644297281"><ele>11.0</ele><time>2026-04-16T06:17:55.999Z</time></trkpt><trkpt lat="14.428858592082962" lon="120.93566811568755"><ele>11.0</ele><time>2026-04-16T06:17:57Z</time></trkpt><trkpt lat="14.428828053645498" lon="120.93559350799123"><ele>11.0</ele><time>2026-04-16T06:17:58Z</time></trkpt><trkpt lat="14.428800029629919" lon="120.9355247833883"><ele>11.0</ele><time>2026-04-16T06:17:59Z</time></trkpt><trkpt lat="14.4287737659052" lon="120.93546044288722"><ele>11.0</ele><time>2026-04-16T06:18:00Z</time></trkpt><trkpt lat="14.428748779931794" lon="120.93539923257711"><ele>11.0</ele><time>2026-04-16T06:18:01Z</time></trkpt><trkpt lat="14.428711486518216" lon="120.93530628731666"><ele>11.0</ele><time>2026-04-16T06:18:03Z</time></trkpt><trkpt lat="14.428679700072685" lon="120.93522914991549"><ele>11.0</ele><time>2026-04-16T06:18:05Z</time></trkpt><trkpt lat="14.428651213856517" lon="120.93516002134328"><ele>11.0</ele><time>2026-04-16T06:18:07Z</time></trkpt><trkpt lat="14.42862052523659" lon="120.93508554807288"><ele>11.0</ele><time>2026-04-16T06:18:09Z</time></trkpt><trkpt lat="14.428585621070262" lon="120.9350006976648"><ele>11.0</ele><time>2026-04-16T06:18:11Z</time></trkpt><trkpt lat="14.428546689913096" lon="120.93490384340717"><ele>11.0</ele><time>2026-04-16T06:18:13Z</time></trkpt><trkpt lat="14.428507999280352" lon="120.93480758751322"><ele>11.0</ele><time>2026-04-16T06:18:15Z</time></trkpt><trkpt lat="14.428465703183017" lon="120.93470236184574"><ele>11.0</ele><time>2026-04-16T06:18:17Z</time></trkpt><trkpt lat="14.42841844315256" lon="120.93458478676128"><ele>11.0</ele><time>2026-04-16T06:18:19Z</time></trkpt><trkpt lat="14.42838918656654" lon="120.93451200121132"><ele>11.0</ele><time>2026-04-16T06:18:20Z</time></trkpt><trkpt lat="14.428355308476387" lon="120.9344277181488"><ele>11.0</ele><time>2026-04-16T06:18:21Z</time></trkpt><trkpt lat="14.428318156988894" lon="120.93433529179259"><ele>11.0</ele><time>2026-04-16T06:18:22Z</time></trkpt><trkpt lat="14.428278668738052" lon="120.93423550557519"><ele>11.0</ele><time>2026-04-16T06:18:23Z</time></trkpt><trkpt lat="14.428235821403605" lon="120.93412778034558"><ele>11.0</ele><time>2026-04-16T06:18:24Z</time></trkpt><trkpt lat="14.42819143003461" lon="120.9340161731791"><ele>11.0</ele><time>2026-04-16T06:18:25Z</time></trkpt><trkpt lat="14.42814847351932" lon="120.93390817342782"><ele>11.0</ele><time>2026-04-16T06:18:26Z</time></trkpt><trkpt lat="14.428057144437519" lon="120.93382284331436"><ele>11.200000000000001</ele><time>2026-04-16T06:18:27Z</time></trkpt><trkpt lat="14.428020778724582" lon="120.93371348647923"><ele>11.4</ele><time>2026-04-16T06:18:28Z</time></trkpt><trkpt lat="14.427984674125055" lon="120.93362242734257"><ele>11.6</ele><time>2026-04-16T06:18:29Z</time></trkpt><trkpt lat="14.427940158445278" lon="120.93353823940488"><ele>11.8</ele><time>2026-04-16T06:18:30Z</time></trkpt><trkpt lat="14.427956682640062" lon="120.9334228885482"><ele>12.0</ele><time>2026-04-16T06:18:31Z</time></trkpt><trkpt lat="14.42792280453079" lon="120.93333967600756"><ele>12.0</ele><time>2026-04-16T06:18:32Z</time></trkpt><trkpt lat="14.42789412321742" lon="120.93326922856198"><ele>12.0</ele><time>2026-04-16T06:18:33Z</time></trkpt><trkpt lat="14.427860429838386" lon="120.9331830202039"><ele>12.0</ele><time>2026-04-16T06:18:35Z</time></trkpt><trkpt lat="14.428011807838411" lon="120.93307232165536"><ele>12.0</ele><time>2026-04-16T06:18:38Z</time></trkpt><trkpt lat="14.428068223304189" lon="120.93302069915413"><ele>12.0</ele><time>2026-04-16T06:18:39Z</time></trkpt><trkpt lat="14.428112303053949" lon="120.93295811920154"><ele>12.399999999999999</ele><time>2026-04-16T06:18:40Z</time></trkpt><trkpt lat="14.428174595890233" lon="120.93290829311893"><ele>12.799999999999999</ele><time>2026-04-16T06:18:41Z</time></trkpt><trkpt lat="14.428250684672664" lon="120.93285968125053"><ele>13.2</ele><time>2026-04-16T06:18:42Z</time></trkpt><trkpt lat="14.428343944393314" lon="120.93281735807983"><ele>13.6</ele><time>2026-04-16T06:18:43Z</time></trkpt><trkpt lat="14.42844427467444" lon="120.9327669949485"><ele>14.0</ele><time>2026-04-16T06:18:44Z</time></trkpt><trkpt lat="14.428544948092203" lon="120.93270998874632"><ele>14.000000000000002</ele><time>2026-04-16T06:18:45Z</time></trkpt><trkpt lat="14.428633260159012" lon="120.9326615851199"><ele>14.0</ele><time>2026-04-16T06:18:46Z</time></trkpt><trkpt lat="14.428702977043667" lon="120.9326178335853"><ele>14.0</ele><time>2026-04-16T06:18:47Z</time></trkpt><trkpt lat="14.428771759359618" lon="120.93257626568277"><ele>14.0</ele><time>2026-04-16T06:18:48Z</time></trkpt><trkpt lat="14.428844057705716" lon="120.93254163644406"><ele>14.000000000000002</ele><time>2026-04-16T06:18:49Z</time></trkpt><trkpt lat="14.428911995770212" lon="120.9325071706889"><ele>14.0</ele><time>2026-04-16T06:18:50Z</time></trkpt><trkpt lat="14.428980284437419" lon="120.93247262505325"><ele>13.666666666666668</ele><time>2026-04-16T06:18:51Z</time></trkpt><trkpt lat="14.429040701667146" lon="120.93243153820013"><ele>13.333333333333334</ele><time>2026-04-16T06:18:52Z</time></trkpt><trkpt lat="14.429125572380146" lon="120.9323758249117"><ele>13.0</ele><time>2026-04-16T06:18:54Z</time></trkpt><trkpt lat="14.429184530805637" lon="120.9323483755456"><ele>12.666666666666668</ele><time>2026-04-16T06:18:56Z</time></trkpt><trkpt lat="14.429235347957057" lon="120.9323020988383"><ele>12.333333333333334</ele><time>2026-04-16T06:18:59.001Z</time></trkpt><trkpt lat="14.429245544027845" lon="120.9322123923517"><ele>12.0</ele><time>2026-04-16T06:19:01.001Z</time></trkpt><trkpt lat="14.429231003289415" lon="120.93211255705259"><ele>12.0</ele><time>2026-04-16T06:19:03.001Z</time></trkpt><trkpt lat="14.429222345589483" lon="120.93200042358599"><ele>12.0</ele><time>2026-04-16T06:19:05.001Z</time></trkpt><trkpt lat="14.429203830180692" lon="120.9319012640701"><ele>12.0</ele><time>2026-04-16T06:19:07.001Z</time></trkpt><trkpt lat="14.429200800467497" lon="120.93178360795358"><ele>12.0</ele><time>2026-04-16T06:19:09.001Z</time></trkpt><trkpt lat="14.42919045851596" lon="120.93167141413244"><ele>12.0</ele><time>2026-04-16T06:19:11.001Z</time></trkpt><trkpt lat="14.42918017386124" lon="120.93155112930904"><ele>12.2</ele><time>2026-04-16T06:19:13.001Z</time></trkpt><trkpt lat="14.429173070194341" lon="120.931472518368"><ele>12.399999999999999</ele><time>2026-04-16T06:19:13.999Z</time></trkpt><trkpt lat="14.42915859982663" lon="120.9313713283697"><ele>12.600000000000001</ele><time>2026-04-16T06:19:14.999Z</time></trkpt><trkpt lat="14.429148195026807" lon="120.93125938809436"><ele>12.8</ele><time>2026-04-16T06:19:15.999Z</time></trkpt><trkpt lat="14.429141065502511" lon="120.93113671621104"><ele>13.0</ele><time>2026-04-16T06:19:16.999Z</time></trkpt><trkpt lat="14.42914461966069" lon="120.93103184782373"><ele>12.999999999999998</ele><time>2026-04-16T06:19:17.999Z</time></trkpt><trkpt lat="14.429135167316884" lon="120.93092843152469"><ele>13.0</ele><time>2026-04-16T06:19:18.999Z</time></trkpt><trkpt lat="14.429124674270707" lon="120.93083709246548"><ele>13.0</ele><time>2026-04-16T06:19:19.999Z</time></trkpt><trkpt lat="14.429114239327848" lon="120.9307578848468"><ele>13.0</ele><time>2026-04-16T06:19:20.999Z</time></trkpt><trkpt lat="14.42910581248435" lon="120.93068843325797"><ele>12.999999999999998</ele><time>2026-04-16T06:19:21.999Z</time></trkpt><trkpt lat="14.429092805025256" lon="120.93060585306648"><ele>13.0</ele><time>2026-04-16T06:19:23.999Z</time></trkpt><trkpt lat="14.42908816896858" lon="120.93053217087059"><ele>13.0</ele><time>2026-04-16T06:19:25.999Z</time></trkpt><trkpt lat="14.429068896795483" lon="120.93043362840841"><ele>13.0</ele><time>2026-04-16T06:19:27.999Z</time></trkpt><trkpt lat="14.42907759301986" lon="120.93036189498567"><ele>13.0</ele><time>2026-04-16T06:19:28.999Z</time></trkpt><trkpt lat="14.42906925440496" lon="120.93027739765942"><ele>13.0</ele><time>2026-04-16T06:19:29.999Z</time></trkpt><trkpt lat="14.429057538935158" lon="120.93015868225027"><ele>13.0</ele><time>2026-04-16T06:19:30.999Z</time></trkpt><trkpt lat="14.429045835499785" lon="120.93005056956066"><ele>12.25</ele><time>2026-04-16T06:19:31.999Z</time></trkpt><trkpt lat="14.429018956923676" lon="120.92993030972299"><ele>11.5</ele><time>2026-04-16T06:19:32.999Z</time></trkpt><trkpt lat="14.429014823504133" lon="120.92979971779188"><ele>10.75</ele><time>2026-04-16T06:19:33.999Z</time></trkpt><trkpt lat="14.42900315551363" lon="120.9296737594626"><ele>10.0</ele><time>2026-04-16T06:19:34.999Z</time></trkpt><trkpt lat="14.428986823757537" lon="120.92954021254148"><ele>10.0</ele><time>2026-04-16T06:19:36Z</time></trkpt><trkpt lat="14.428974000583086" lon="120.9294144615705"><ele>10.0</ele><time>2026-04-16T06:19:37Z</time></trkpt><trkpt lat="14.428958169852578" lon="120.92929141068817"><ele>10.0</ele><time>2026-04-16T06:19:38Z</time></trkpt><trkpt lat="14.42894849280865" lon="120.92917922639518"><ele>10.0</ele><time>2026-04-16T06:19:39Z</time></trkpt><trkpt lat="14.428939052193723" lon="120.9290746571176"><ele>10.0</ele><time>2026-04-16T06:19:40Z</time></trkpt><trkpt lat="14.428928349514312" lon="120.92897516951594"><ele>10.0</ele><time>2026-04-16T06:19:41Z</time></trkpt><trkpt lat="14.428938102250335" lon="120.92888952457791"><ele>10.0</ele><time>2026-04-16T06:19:42Z</time></trkpt><trkpt lat="14.428930253246858" lon="120.92880444869586"><ele>10.0</ele><time>2026-04-16T06:19:43Z</time></trkpt><trkpt lat="14.428921187709156" lon="120.9287229024143"><ele>10.0</ele><time>2026-04-16T06:19:44Z</time></trkpt><trkpt lat="14.428911515960678" lon="120.92863590316854"><ele>10.0</ele><time>2026-04-16T06:19:45Z</time></trkpt><trkpt lat="14.428887240150639" lon="120.92854686047446"><ele>10.0</ele><time>2026-04-16T06:19:46Z</time></trkpt><trkpt lat="14.428877847781063" lon="120.92845736106133"><ele>10.0</ele><time>2026-04-16T06:19:47Z</time></trkpt><trkpt lat="14.428884394874439" lon="120.92836637107146"><ele>10.0</ele><time>2026-04-16T06:19:48Z</time></trkpt><trkpt lat="14.428876684522281" lon="120.9282740630285"><ele>10.0</ele><time>2026-04-16T06:19:49Z</time></trkpt><trkpt lat="14.42886974882137" lon="120.92819102906792"><ele>10.0</ele><time>2026-04-16T06:19:50Z</time></trkpt><trkpt lat="14.428861805303887" lon="120.92809592958147"><ele>10.0</ele><time>2026-04-16T06:19:52Z</time></trkpt><trkpt lat="14.428855222746117" lon="120.92801712346244"><ele>10.0</ele><time>2026-04-16T06:19:56Z</time></trkpt><trkpt lat="14.428848749019723" lon="120.92793962033139"><ele>10.0</ele><time>2026-04-16T06:19:59Z</time></trkpt><trkpt lat="14.428842331130113" lon="120.92786080479658"><ele>10.0</ele><time>2026-04-16T06:20:01Z</time></trkpt><trkpt lat="14.428835331093618" lon="120.92779022289119"><ele>10.0</ele><time>2026-04-16T06:20:03Z</time></trkpt><trkpt lat="14.428825695191787" lon="120.92769306334466"><ele>10.0</ele><time>2026-04-16T06:20:06Z</time></trkpt><trkpt lat="14.428813553719687" lon="120.92757063992413"><ele>10.0</ele><time>2026-04-16T06:20:08Z</time></trkpt><trkpt lat="14.428806710216195" lon="120.92750163636869"><ele>10.0</ele><time>2026-04-16T06:20:09Z</time></trkpt><trkpt lat="14.428798053835816" lon="120.92741435340156"><ele>10.0</ele><time>2026-04-16T06:20:10Z</time></trkpt><trkpt lat="14.428789668271044" lon="120.92732980111077"><ele>10.0</ele><time>2026-04-16T06:20:11Z</time></trkpt><trkpt lat="14.428780046968432" lon="120.92723278877479"><ele>10.0</ele><time>2026-04-16T06:20:12Z</time></trkpt><trkpt lat="14.428771485867232" lon="120.92714646652183"><ele>10.0</ele><time>2026-04-16T06:20:13Z</time></trkpt><trkpt lat="14.428762624720486" lon="120.92705711891308"><ele>10.0</ele><time>2026-04-16T06:20:14Z</time></trkpt><trkpt lat="14.428740519277392" lon="120.92698606092492"><ele>10.0</ele><time>2026-04-16T06:20:15Z</time></trkpt><trkpt lat="14.428739625605603" lon="120.92691873556025"><ele>10.0</ele><time>2026-04-16T06:20:16Z</time></trkpt><trkpt lat="14.428733764572254" lon="120.92684481503963"><ele>10.0</ele><time>2026-04-16T06:20:17Z</time></trkpt><trkpt lat="14.42872422318141" lon="120.92675730150184"><ele>10.0</ele><time>2026-04-16T06:20:18Z</time></trkpt><trkpt lat="14.428719004889544" lon="120.9266861336773"><ele>10.0</ele><time>2026-04-16T06:20:19Z</time></trkpt><trkpt lat="14.428708078478579" lon="120.926562151655"><ele>10.0</ele><time>2026-04-16T06:20:21Z</time></trkpt><trkpt lat="14.428702753923774" lon="120.92649699834347"><ele>10.2</ele><time>2026-04-16T06:20:22Z</time></trkpt><trkpt lat="14.428695235876445" lon="120.92642907852073"><ele>10.4</ele><time>2026-04-16T06:20:23Z</time></trkpt><trkpt lat="14.428686394609047" lon="120.92632035375372"><ele>10.600000000000001</ele><time>2026-04-16T06:20:25Z</time></trkpt><trkpt lat="14.428691351134864" lon="120.92620634150379"><ele>10.8</ele><time>2026-04-16T06:20:27Z</time></trkpt><trkpt lat="14.42866573040008" lon="120.9260907583564"><ele>11.0</ele><time>2026-04-16T06:20:29.001Z</time></trkpt><trkpt lat="14.428655845474388" lon="120.92599143557253"><ele>10.833333333333332</ele><time>2026-04-16T06:20:31.001Z</time></trkpt><trkpt lat="14.42864713649987" lon="120.92588531186041"><ele>10.666666666666666</ele><time>2026-04-16T06:20:33.001Z</time></trkpt><trkpt lat="14.42864415909462" lon="120.92579589656388"><ele>10.5</ele><time>2026-04-16T06:20:36.001Z</time></trkpt><trkpt lat="14.428639103872822" lon="120.92571439688346"><ele>10.333333333333334</ele><time>2026-04-16T06:20:39.001Z</time></trkpt><trkpt lat="14.428637981574305" lon="120.92563663611229"><ele>10.166666666666668</ele><time>2026-04-16T06:20:41.001Z</time></trkpt><trkpt lat="14.428638450412313" lon="120.92556838348752"><ele>10.0</ele><time>2026-04-16T06:20:43.001Z</time></trkpt><trkpt lat="14.428639480858985" lon="120.92547889390552"><ele>10.0</ele><time>2026-04-16T06:20:45.001Z</time></trkpt><trkpt lat="14.428634381563395" lon="120.92538666819762"><ele>10.0</ele><time>2026-04-16T06:20:46.001Z</time></trkpt><trkpt lat="14.42862821028822" lon="120.92527505466235"><ele>10.0</ele><time>2026-04-16T06:20:47.001Z</time></trkpt><trkpt lat="14.428620114569727" lon="120.9251682906526"><ele>10.0</ele><time>2026-04-16T06:20:48.001Z</time></trkpt><trkpt lat="14.428599658102199" lon="120.92507817773921"><ele>10.0</ele><time>2026-04-16T06:20:49.001Z</time></trkpt><trkpt lat="14.428594114897823" lon="120.92499703664522"><ele>10.0</ele><time>2026-04-16T06:20:50.001Z</time></trkpt><trkpt lat="14.42858105995966" lon="120.92488845454058"><ele>10.0</ele><time>2026-04-16T06:20:52.001Z</time></trkpt><trkpt lat="14.428568783091771" lon="120.92477495197724"><ele>10.0</ele><time>2026-04-16T06:20:54.001Z</time></trkpt><trkpt lat="14.428560751044587" lon="120.92469097063115"><ele>10.0</ele><time>2026-04-16T06:20:56.001Z</time></trkpt><trkpt lat="14.428550901346187" lon="120.92460224881523"><ele>10.0</ele><time>2026-04-16T06:20:58.001Z</time></trkpt><trkpt lat="14.42854340350401" lon="120.92451303413098"><ele>10.0</ele><time>2026-04-16T06:21:00.001Z</time></trkpt><trkpt lat="14.428544106324457" lon="120.92441357485127"><ele>10.0</ele><time>2026-04-16T06:21:02.001Z</time></trkpt><trkpt lat="14.428544685042773" lon="120.92428318889382"><ele>10.0</ele><time>2026-04-16T06:21:04.001Z</time></trkpt><trkpt lat="14.428543424087758" lon="120.924216561782"><ele>10.0</ele><time>2026-04-16T06:21:05.001Z</time></trkpt><trkpt lat="14.428539881671504" lon="120.9241225045691"><ele>10.0</ele><time>2026-04-16T06:21:07.001Z</time></trkpt><trkpt lat="14.428533597554802" lon="120.92400930358657"><ele>10.0</ele><time>2026-04-16T06:21:09.001Z</time></trkpt><trkpt lat="14.428551893313308" lon="120.9238845194386"><ele>10.0</ele><time>2026-04-16T06:21:11.001Z</time></trkpt><trkpt lat="14.428553393052281" lon="120.92380676376095"><ele>10.0</ele><time>2026-04-16T06:21:12.001Z</time></trkpt><trkpt lat="14.42854108187645" lon="120.92373309969805"><ele>10.0</ele><time>2026-04-16T06:21:13.001Z</time></trkpt><trkpt lat="14.428542470854456" lon="120.92365166013957"><ele>10.0</ele><time>2026-04-16T06:21:14.001Z</time></trkpt><trkpt lat="14.428545704807625" lon="120.92357098334398"><ele>10.0</ele><time>2026-04-16T06:21:15.001Z</time></trkpt><trkpt lat="14.428550312654806" lon="120.92348354623509"><ele>10.0</ele><time>2026-04-16T06:21:16.001Z</time></trkpt><trkpt lat="14.428554311170894" lon="120.92341145328157"><ele>10.0</ele><time>2026-04-16T06:21:17.001Z</time></trkpt><trkpt lat="14.428558777018072" lon="120.92328733549674"><ele>10.0</ele><time>2026-04-16T06:21:19.001Z</time></trkpt><trkpt lat="14.428560801968487" lon="120.92318375715226"><ele>10.0</ele><time>2026-04-16T06:21:21Z</time></trkpt><trkpt lat="14.42856509809738" lon="120.92310129681876"><ele>10.0</ele><time>2026-04-16T06:21:23Z</time></trkpt><trkpt lat="14.428571413416401" lon="120.923028303904"><ele>10.0</ele><time>2026-04-16T06:21:25Z</time></trkpt><trkpt lat="14.428575034447991" lon="120.92293857878704"><ele>10.0</ele><time>2026-04-16T06:21:27Z</time></trkpt><trkpt lat="14.428576395969461" lon="120.92286482684894"><ele>10.0</ele><time>2026-04-16T06:21:28Z</time></trkpt><trkpt lat="14.428577665256967" lon="120.92279702897576"><ele>10.0</ele><time>2026-04-16T06:21:29Z</time></trkpt><trkpt lat="14.428586838598997" lon="120.92271006065228"><ele>10.0</ele><time>2026-04-16T06:21:31Z</time></trkpt><trkpt lat="14.42858868116628" lon="120.9226155689511"><ele>10.0</ele><time>2026-04-16T06:21:33Z</time></trkpt><trkpt lat="14.428597860051898" lon="120.92253681240275"><ele>10.0</ele><time>2026-04-16T06:21:35Z</time></trkpt><trkpt lat="14.428601067837636" lon="120.92244431446966"><ele>10.0</ele><time>2026-04-16T06:21:38Z</time></trkpt><trkpt lat="14.428616804346095" lon="120.92237586045148"><ele>10.0</ele><time>2026-04-16T06:21:51Z</time></trkpt><trkpt lat="14.428621059804618" lon="120.92230548248331"><ele>10.0</ele><time>2026-04-16T06:21:54Z</time></trkpt><trkpt lat="14.42842912854974" lon="120.92225614723645"><ele>10.0</ele><time>2026-04-16T06:21:57Z</time></trkpt><trkpt lat="14.42830407703974" lon="120.92225664392734"><ele>10.0</ele><time>2026-04-16T06:21:59Z</time></trkpt><trkpt lat="14.428234865008362" lon="120.92228349030212"><ele>10.0</ele><time>2026-04-16T06:22:00Z</time></trkpt><trkpt lat="14.428171278732583" lon="120.92229274750072"><ele>10.0</ele><time>2026-04-16T06:22:01Z</time></trkpt><trkpt lat="14.428056664591125" lon="120.9222756348321"><ele>10.0</ele><time>2026-04-16T06:22:03Z</time></trkpt><trkpt lat="14.427993619961663" lon="120.92226878885393"><ele>10.0</ele><time>2026-04-16T06:22:04Z</time></trkpt><trkpt lat="14.427892131285986" lon="120.92226557258921"><ele>10.0</ele><time>2026-04-16T06:22:06Z</time></trkpt><trkpt lat="14.42782228817628" lon="120.92226636700146"><ele>10.0</ele><time>2026-04-16T06:22:07Z</time></trkpt><trkpt lat="14.427746655932653" lon="120.92226962027948"><ele>10.0</ele><time>2026-04-16T06:22:08Z</time></trkpt><trkpt lat="14.427619157843829" lon="120.92264926258525"><ele>10.2</ele><time>2026-04-16T06:22:09Z</time></trkpt><trkpt lat="14.427536600294445" lon="120.92269970631806"><ele>10.4</ele><time>2026-04-16T06:22:10Z</time></trkpt><trkpt lat="14.427447215526042" lon="120.92275604581825"><ele>10.600000000000001</ele><time>2026-04-16T06:22:11.001Z</time></trkpt><trkpt lat="14.427349588760835" lon="120.92281872925311"><ele>10.8</ele><time>2026-04-16T06:22:12.001Z</time></trkpt><trkpt lat="14.427254328705642" lon="120.92288469556027"><ele>11.0</ele><time>2026-04-16T06:22:13.001Z</time></trkpt><trkpt lat="14.42715871681822" lon="120.92294808022548"><ele>10.8</ele><time>2026-04-16T06:22:14.001Z</time></trkpt><trkpt lat="14.427064293413805" lon="120.9230111031916"><ele>10.600000000000001</ele><time>2026-04-16T06:22:15.001Z</time></trkpt><trkpt lat="14.426979513466309" lon="120.92306814207895"><ele>10.4</ele><time>2026-04-16T06:22:16.001Z</time></trkpt><trkpt lat="14.426896496664662" lon="120.92311787932823"><ele>10.2</ele><time>2026-04-16T06:22:17.001Z</time></trkpt><trkpt lat="14.42683144722431" lon="120.92315504191431"><ele>10.0</ele><time>2026-04-16T06:22:18.001Z</time></trkpt><trkpt lat="14.426758418287982" lon="120.92314406128475"><ele>10.0</ele><time>2026-04-16T06:22:19.001Z</time></trkpt><trkpt lat="14.426641700498779" lon="120.9232137415658"><ele>10.0</ele><time>2026-04-16T06:22:21.001Z</time></trkpt><trkpt lat="14.426551877499554" lon="120.92322086732791"><ele>10.0</ele><time>2026-04-16T06:22:22.001Z</time></trkpt><trkpt lat="14.426452234522674" lon="120.92323272018729"><ele>10.0</ele><time>2026-04-16T06:22:23.001Z</time></trkpt><trkpt lat="14.426369062721076" lon="120.92322128867112"><ele>10.0</ele><time>2026-04-16T06:22:24.001Z</time></trkpt><trkpt lat="14.426268299210351" lon="120.92322379747934"><ele>10.0</ele><time>2026-04-16T06:22:25.001Z</time></trkpt><trkpt lat="14.426182466763589" lon="120.92321178464954"><ele>10.0</ele><time>2026-04-16T06:22:26.001Z</time></trkpt><trkpt lat="14.426085258898683" lon="120.92321431304973"><ele>10.0</ele><time>2026-04-16T06:22:27.001Z</time></trkpt><trkpt lat="14.42598920913625" lon="120.92321200245408"><ele>10.0</ele><time>2026-04-16T06:22:28.001Z</time></trkpt><trkpt lat="14.425887901844892" lon="120.92320900914486"><ele>10.0</ele><time>2026-04-16T06:22:29.001Z</time></trkpt><trkpt lat="14.425783313279574" lon="120.92320244256928"><ele>10.0</ele><time>2026-04-16T06:22:30.001Z</time></trkpt><trkpt lat="14.425666308441906" lon="120.92320363895789"><ele>10.0</ele><time>2026-04-16T06:22:31.001Z</time></trkpt><trkpt lat="14.425551226097111" lon="120.9231975346302"><ele>10.0</ele><time>2026-04-16T06:22:32.001Z</time></trkpt><trkpt lat="14.425433432464843" lon="120.92320328611787"><ele>10.0</ele><time>2026-04-16T06:22:33.001Z</time></trkpt><trkpt lat="14.425317505437821" lon="120.92321053442978"><ele>10.4</ele><time>2026-04-16T06:22:34.001Z</time></trkpt><trkpt lat="14.425199113926801" lon="120.92321497094545"><ele>10.8</ele><time>2026-04-16T06:22:35.001Z</time></trkpt><trkpt lat="14.425082801526859" lon="120.92321679228633"><ele>11.2</ele><time>2026-04-16T06:22:36.001Z</time></trkpt><trkpt lat="14.424979598162578" lon="120.92321728008359"><ele>11.6</ele><time>2026-04-16T06:22:37.001Z</time></trkpt><trkpt lat="14.424881126700978" lon="120.92320594874896"><ele>12.0</ele><time>2026-04-16T06:22:38.001Z</time></trkpt><trkpt lat="14.424764620084819" lon="120.92321355355487"><ele>12.0</ele><time>2026-04-16T06:22:39.001Z</time></trkpt><trkpt lat="14.424643319771722" lon="120.92321953518312"><ele>12.0</ele><time>2026-04-16T06:22:40.001Z</time></trkpt><trkpt lat="14.424514436080113" lon="120.92321550596584"><ele>12.0</ele><time>2026-04-16T06:22:41.001Z</time></trkpt><trkpt lat="14.424411633935703" lon="120.92320696751142"><ele>12.0</ele><time>2026-04-16T06:22:42.001Z</time></trkpt><trkpt lat="14.42428777848316" lon="120.92319264049011"><ele>12.0</ele><time>2026-04-16T06:22:43.001Z</time></trkpt><trkpt lat="14.424158888117782" lon="120.92321546115221"><ele>12.0</ele><time>2026-04-16T06:22:44.001Z</time></trkpt><trkpt lat="14.424027087470478" lon="120.92323104489724"><ele>12.0</ele><time>2026-04-16T06:22:45.001Z</time></trkpt><trkpt lat="14.423908600047739" lon="120.92322362079956"><ele>12.0</ele><time>2026-04-16T06:22:46.001Z</time></trkpt><trkpt lat="14.42379634033581" lon="120.92324637672202"><ele>11.8</ele><time>2026-04-16T06:22:47.001Z</time></trkpt><trkpt lat="14.423678524274695" lon="120.92324284714951"><ele>11.6</ele><time>2026-04-16T06:22:48.001Z</time></trkpt><trkpt lat="14.423567056707542" lon="120.92325204035254"><ele>11.4</ele><time>2026-04-16T06:22:49.001Z</time></trkpt><trkpt lat="14.423469248510813" lon="120.92327736819327"><ele>11.200000000000001</ele><time>2026-04-16T06:22:50.001Z</time></trkpt><trkpt lat="14.423377565716146" lon="120.92328251345212"><ele>11.0</ele><time>2026-04-16T06:22:51.001Z</time></trkpt><trkpt lat="14.423306422854058" lon="120.92328879902234"><ele>11.0</ele><time>2026-04-16T06:22:52.001Z</time></trkpt><trkpt lat="14.423207179114938" lon="120.9233012179147"><ele>11.0</ele><time>2026-04-16T06:22:54.001Z</time></trkpt><trkpt lat="14.423140819896462" lon="120.92330298252492"><ele>11.0</ele><time>2026-04-16T06:22:56.001Z</time></trkpt><trkpt lat="14.423205686347341" lon="120.92340302697893"><ele>11.0</ele><time>2026-04-16T06:23:00.001Z</time></trkpt><trkpt lat="14.423292994389758" lon="120.92335900034257"><ele>11.0</ele><time>2026-04-16T07:06:54Z</time></trkpt><trkpt lat="14.423410931916743" lon="120.92334602096915"><ele>11.0</ele><time>2026-04-16T07:06:56Z</time></trkpt><trkpt lat="14.423518214864847" lon="120.92333160060987"><ele>11.0</ele><time>2026-04-16T07:06:58Z</time></trkpt><trkpt lat="14.423636848851904" lon="120.92331075737752"><ele>11.0</ele><time>2026-04-16T07:07:00Z</time></trkpt><trkpt lat="14.42376722673445" lon="120.9232967377828"><ele>11.0</ele><time>2026-04-16T07:07:02Z</time></trkpt><trkpt lat="14.423835005962772" lon="120.92329265926189"><ele>11.0</ele><time>2026-04-16T07:07:03Z</time></trkpt><trkpt lat="14.423909074764998" lon="120.92328834538237"><ele>11.142857142857142</ele><time>2026-04-16T07:07:04Z</time></trkpt><trkpt lat="14.423976121427451" lon="120.92328382737651"><ele>11.285714285714285</ele><time>2026-04-16T07:07:05Z</time></trkpt><trkpt lat="14.424044259224196" lon="120.92327966057495"><ele>11.428571428571427</ele><time>2026-04-16T07:07:06Z</time></trkpt><trkpt lat="14.424130263288916" lon="120.92327990691221"><ele>11.571428571428571</ele><time>2026-04-16T07:07:08Z</time></trkpt><trkpt lat="14.424197221030598" lon="120.9232766764415"><ele>11.714285714285714</ele><time>2026-04-16T07:07:10Z</time></trkpt><trkpt lat="14.424272966645836" lon="120.92327282218763"><ele>11.857142857142856</ele><time>2026-04-16T07:07:13.001Z</time></trkpt><trkpt lat="14.42435689064554" lon="120.92326714154463"><ele>12.0</ele><time>2026-04-16T07:07:16.001Z</time></trkpt><trkpt lat="14.424455515726198" lon="120.92326506076685"><ele>12.0</ele><time>2026-04-16T07:07:19.001Z</time></trkpt><trkpt lat="14.424545259720198" lon="120.9232637763473"><ele>12.0</ele><time>2026-04-16T07:07:21.001Z</time></trkpt><trkpt lat="14.424656419167176" lon="120.923261760041"><ele>12.0</ele><time>2026-04-16T07:07:23.001Z</time></trkpt><trkpt lat="14.424727100017986" lon="120.9232570532799"><ele>12.0</ele><time>2026-04-16T07:07:24.001Z</time></trkpt><trkpt lat="14.424797276671823" lon="120.92325227420714"><ele>12.0</ele><time>2026-04-16T07:07:25.001Z</time></trkpt><trkpt lat="14.424881538045073" lon="120.92324685916776"><ele>12.0</ele><time>2026-04-16T07:07:26.001Z</time></trkpt><trkpt lat="14.424952497234937" lon="120.92324908101222"><ele>11.999999999999998</ele><time>2026-04-16T07:07:27.001Z</time></trkpt><trkpt lat="14.425035339425374" lon="120.92325026319048"><ele>12.0</ele><time>2026-04-16T07:07:28.001Z</time></trkpt><trkpt lat="14.425106080556207" lon="120.92325056758075"><ele>12.0</ele><time>2026-04-16T07:07:29.001Z</time></trkpt><trkpt lat="14.425179173640396" lon="120.92325365140057"><ele>12.0</ele><time>2026-04-16T07:07:29.999Z</time></trkpt><trkpt lat="14.425245053681037" lon="120.92325295243809"><ele>12.0</ele><time>2026-04-16T07:07:30.999Z</time></trkpt><trkpt lat="14.425317173475896" lon="120.92325421944207"><ele>11.999999999999998</ele><time>2026-04-16T07:07:31.999Z</time></trkpt><trkpt lat="14.425397584148483" lon="120.92325487658933"><ele>12.0</ele><time>2026-04-16T07:07:32.999Z</time></trkpt><trkpt lat="14.425465287059618" lon="120.92325499701046"><ele>11.5</ele><time>2026-04-16T07:07:33.999Z</time></trkpt><trkpt lat="14.425570608457061" lon="120.92325693223313"><ele>11.0</ele><time>2026-04-16T07:07:35.999Z</time></trkpt><trkpt lat="14.425690937340065" lon="120.92325506460428"><ele>10.5</ele><time>2026-04-16T07:07:37.999Z</time></trkpt><trkpt lat="14.425797410235345" lon="120.92325535417915"><ele>10.0</ele><time>2026-04-16T07:07:39.999Z</time></trkpt><trkpt lat="14.42592076466183" lon="120.92325468788785"><ele>10.0</ele><time>2026-04-16T07:07:41.999Z</time></trkpt><trkpt lat="14.426026475520283" lon="120.92325169440439"><ele>10.0</ele><time>2026-04-16T07:07:43.999Z</time></trkpt><trkpt lat="14.426116164496033" lon="120.92325163194462"><ele>10.0</ele><time>2026-04-16T07:07:46Z</time></trkpt><trkpt lat="14.426222096528578" lon="120.92325109649782"><ele>10.0</ele><time>2026-04-16T07:07:48Z</time></trkpt><trkpt lat="14.426305301757136" lon="120.9232396818623"><ele>10.0</ele><time>2026-04-16T07:07:50Z</time></trkpt><trkpt lat="14.426393191330105" lon="120.92324249018574"><ele>10.0</ele><time>2026-04-16T07:07:52Z</time></trkpt><trkpt lat="14.426508081529839" lon="120.9232460614515"><ele>10.0</ele><time>2026-04-16T07:07:54Z</time></trkpt><trkpt lat="14.426621750840596" lon="120.92323668755576"><ele>10.0</ele><time>2026-04-16T07:07:56Z</time></trkpt><trkpt lat="14.426730105340853" lon="120.92321031963756"><ele>10.0</ele><time>2026-04-16T07:07:58Z</time></trkpt><trkpt lat="14.426828510068509" lon="120.92314362338405"><ele>10.0</ele><time>2026-04-16T07:08:00Z</time></trkpt><trkpt lat="14.426920919389882" lon="120.92308632140674"><ele>10.0</ele><time>2026-04-16T07:08:02Z</time></trkpt><trkpt lat="14.427020512831364" lon="120.92302471928315"><ele>10.0</ele><time>2026-04-16T07:08:04Z</time></trkpt><trkpt lat="14.427077290888956" lon="120.92299057296874"><ele>10.0</ele><time>2026-04-16T07:08:05Z</time></trkpt><trkpt lat="14.427139382014047" lon="120.92295255103953"><ele>10.0</ele><time>2026-04-16T07:08:06Z</time></trkpt><trkpt lat="14.427201147266066" lon="120.92291475607661"><ele>10.0</ele><time>2026-04-16T07:08:07Z</time></trkpt><trkpt lat="14.427273157214657" lon="120.92287069226482"><ele>10.166666666666668</ele><time>2026-04-16T07:08:08Z</time></trkpt><trkpt lat="14.427339504567216" lon="120.9228300934506"><ele>10.333333333333334</ele><time>2026-04-16T07:08:09Z</time></trkpt><trkpt lat="14.427414580809756" lon="120.92278415330271"><ele>10.5</ele><time>2026-04-16T07:08:10Z</time></trkpt><trkpt lat="14.427484964582806" lon="120.92274108455578"><ele>10.666666666666666</ele><time>2026-04-16T07:08:11Z</time></trkpt><trkpt lat="14.427554993221777" lon="120.92269823312641"><ele>10.833333333333332</ele><time>2026-04-16T07:08:12Z</time></trkpt><trkpt lat="14.427620978947932" lon="120.9226578556118"><ele>11.0</ele><time>2026-04-16T07:08:13Z</time></trkpt><trkpt lat="14.427694341637766" lon="120.92261324247217"><ele>11.0</ele><time>2026-04-16T07:08:14Z</time></trkpt><trkpt lat="14.427759137731654" lon="120.92257477649092"><ele>11.0</ele><time>2026-04-16T07:08:15Z</time></trkpt><trkpt lat="14.42783078348549" lon="120.9225327180744"><ele>11.0</ele><time>2026-04-16T07:08:16Z</time></trkpt><trkpt lat="14.427891612604407" lon="120.9224970093855"><ele>11.0</ele><time>2026-04-16T07:08:17Z</time></trkpt><trkpt lat="14.427953238293657" lon="120.92246083307705"><ele>11.0</ele><time>2026-04-16T07:08:18Z</time></trkpt><trkpt lat="14.428021279957582" lon="120.92242089037666"><ele>11.0</ele><time>2026-04-16T07:08:19Z</time></trkpt><trkpt lat="14.428146217946455" lon="120.92236058611927"><ele>10.833333333333332</ele><time>2026-04-16T07:08:21Z</time></trkpt><trkpt lat="14.42820441070857" lon="120.92233487478907"><ele>10.666666666666666</ele><time>2026-04-16T07:08:23Z</time></trkpt><trkpt lat="14.42826471128369" lon="120.92230823214452"><ele>10.5</ele><time>2026-04-16T07:08:26Z</time></trkpt><trkpt lat="14.428368498418449" lon="120.92231678395969"><ele>10.333333333333334</ele><time>2026-04-16T07:08:31Z</time></trkpt><trkpt lat="14.428455658597274" lon="120.92231807252293"><ele>10.166666666666668</ele><time>2026-04-16T07:08:34Z</time></trkpt><trkpt lat="14.428536209543621" lon="120.92232033268768"><ele>10.0</ele><time>2026-04-16T07:08:37Z</time></trkpt><trkpt lat="14.428600962391622" lon="120.92232492214676"><ele>10.0</ele><time>2026-04-16T07:08:45.001Z</time></trkpt><trkpt lat="14.428672774459752" lon="120.92231866799459"><ele>10.0</ele><time>2026-04-16T07:08:47.001Z</time></trkpt><trkpt lat="14.428780068390209" lon="120.92232791734392"><ele>10.0</ele><time>2026-04-16T07:08:49.001Z</time></trkpt><trkpt lat="14.428907531431031" lon="120.92234883380529"><ele>10.0</ele><time>2026-04-16T07:08:51.001Z</time></trkpt><trkpt lat="14.428976673813406" lon="120.92235566418918"><ele>10.0</ele><time>2026-04-16T07:08:52.001Z</time></trkpt><trkpt lat="14.429048869628398" lon="120.9223607050497"><ele>9.833333333333334</ele><time>2026-04-16T07:08:53.001Z</time></trkpt><trkpt lat="14.42912057697646" lon="120.92236344807523"><ele>9.666666666666668</ele><time>2026-04-16T07:08:54.001Z</time></trkpt><trkpt lat="14.42919523166391" lon="120.92237353131914"><ele>9.5</ele><time>2026-04-16T07:08:55.001Z</time></trkpt><trkpt lat="14.429271842641857" lon="120.92238655130616"><ele>9.333333333333334</ele><time>2026-04-16T07:08:56.001Z</time></trkpt><trkpt lat="14.429353147621821" lon="120.92239781457211"><ele>9.166666666666666</ele><time>2026-04-16T07:08:57.001Z</time></trkpt><trkpt lat="14.42943688784966" lon="120.92240333571124"><ele>9.0</ele><time>2026-04-16T07:08:58.001Z</time></trkpt><trkpt lat="14.429505744629713" lon="120.92241058367384"><ele>9.0</ele><time>2026-04-16T07:08:59.001Z</time></trkpt><trkpt lat="14.429623837233681" lon="120.92242513944997"><ele>9.0</ele><time>2026-04-16T07:09:01.001Z</time></trkpt><trkpt lat="14.429751575349052" lon="120.92244118890403"><ele>9.0</ele><time>2026-04-16T07:09:03.001Z</time></trkpt><trkpt lat="14.429826940317842" lon="120.9224535199905"><ele>9.0</ele><time>2026-04-16T07:09:04.001Z</time></trkpt><trkpt lat="14.429909393224285" lon="120.92246591271117"><ele>9.0</ele><time>2026-04-16T07:09:05.001Z</time></trkpt><trkpt lat="14.429998591475227" lon="120.92248100136997"><ele>9.0</ele><time>2026-04-16T07:09:06.001Z</time></trkpt><trkpt lat="14.430095848292046" lon="120.92249352384545"><ele>9.0</ele><time>2026-04-16T07:09:07.001Z</time></trkpt><trkpt lat="14.430196663504754" lon="120.92250467025481"><ele>9.0</ele><time>2026-04-16T07:09:08.001Z</time></trkpt><trkpt lat="14.430289139274606" lon="120.92251374654842"><ele>9.0</ele><time>2026-04-16T07:09:09.001Z</time></trkpt><trkpt lat="14.43036708817705" lon="120.92252896358383"><ele>9.0</ele><time>2026-04-16T07:09:10.001Z</time></trkpt><trkpt lat="14.430439236674871" lon="120.92253194405318"><ele>9.0</ele><time>2026-04-16T07:09:11.001Z</time></trkpt><trkpt lat="14.43052234107207" lon="120.92254259198727"><ele>9.0</ele><time>2026-04-16T07:09:12.001Z</time></trkpt><trkpt lat="14.43059402539707" lon="120.9225521811592"><ele>9.0</ele><time>2026-04-16T07:09:13.001Z</time></trkpt><trkpt lat="14.430705470197754" lon="120.9225559977207"><ele>9.0</ele><time>2026-04-16T07:09:15.001Z</time></trkpt><trkpt lat="14.43080853133094" lon="120.92256099776739"><ele>9.0</ele><time>2026-04-16T07:09:17.001Z</time></trkpt><trkpt lat="14.430916100774544" lon="120.92256715139517"><ele>9.0</ele><time>2026-04-16T07:09:19.001Z</time></trkpt><trkpt lat="14.431033700762411" lon="120.92256536796918"><ele>9.0</ele><time>2026-04-16T07:09:21.001Z</time></trkpt><trkpt lat="14.431106559792084" lon="120.92256178997145"><ele>9.0</ele><time>2026-04-16T07:09:22.001Z</time></trkpt><trkpt lat="14.431180105761795" lon="120.92256264808198"><ele>9.0</ele><time>2026-04-16T07:09:23.001Z</time></trkpt><trkpt lat="14.431252795700708" lon="120.92256003235948"><ele>9.0</ele><time>2026-04-16T07:09:24.001Z</time></trkpt><trkpt lat="14.431317166071667" lon="120.9225541847696"><ele>9.0</ele><time>2026-04-16T07:09:25.001Z</time></trkpt><trkpt lat="14.431413830893955" lon="120.92254478956404"><ele>9.0</ele><time>2026-04-16T07:09:27.001Z</time></trkpt><trkpt lat="14.431504883169715" lon="120.92254172781588"><ele>9.0</ele><time>2026-04-16T07:09:29.001Z</time></trkpt><trkpt lat="14.431597681140486" lon="120.92254326171629"><ele>9.0</ele><time>2026-04-16T07:09:31.001Z</time></trkpt><trkpt lat="14.431720176742092" lon="120.92254647713524"><ele>9.0</ele><time>2026-04-16T07:09:33.001Z</time></trkpt><trkpt lat="14.43178937625977" lon="120.92255177237317"><ele>9.0</ele><time>2026-04-16T07:09:34.001Z</time></trkpt><trkpt lat="14.43185855798573" lon="120.92255843821715"><ele>9.0</ele><time>2026-04-16T07:09:35.001Z</time></trkpt><trkpt lat="14.431936993785516" lon="120.9225775086103"><ele>9.0</ele><time>2026-04-16T07:09:36Z</time></trkpt><trkpt lat="14.432009043855814" lon="120.92260060258424"><ele>8.8</ele><time>2026-04-16T07:09:37Z</time></trkpt><trkpt lat="14.432092849141663" lon="120.92261631127944"><ele>8.600000000000001</ele><time>2026-04-16T07:09:38Z</time></trkpt><trkpt lat="14.432189332335144" lon="120.92262770112704"><ele>8.4</ele><time>2026-04-16T07:09:39Z</time></trkpt><trkpt lat="14.432286629031072" lon="120.92263910751622"><ele>8.200000000000001</ele><time>2026-04-16T07:09:40Z</time></trkpt><trkpt lat="14.432379280652295" lon="120.92265353410792"><ele>8.0</ele><time>2026-04-16T07:09:41.001Z</time></trkpt><trkpt lat="14.432457737694937" lon="120.92266387514186"><ele>7.833333333333333</ele><time>2026-04-16T07:09:42.001Z</time></trkpt><trkpt lat="14.432525627918224" lon="120.9226726264"><ele>7.666666666666666</ele><time>2026-04-16T07:09:43.001Z</time></trkpt><trkpt lat="14.432639476315192" lon="120.92268654450304"><ele>7.5</ele><time>2026-04-16T07:09:45.001Z</time></trkpt><trkpt lat="14.432704236525487" lon="120.92269300756541"><ele>7.333333333333334</ele><time>2026-04-16T07:09:46.001Z</time></trkpt><trkpt lat="14.432818525059595" lon="120.92270993877388"><ele>7.166666666666667</ele><time>2026-04-16T07:09:48.001Z</time></trkpt><trkpt lat="14.432884018484895" lon="120.9227163311904"><ele>7.0</ele><time>2026-04-16T07:09:49.001Z</time></trkpt><trkpt lat="14.432959426775245" lon="120.92272563833343"><ele>7.166666666666667</ele><time>2026-04-16T07:09:50.001Z</time></trkpt><trkpt lat="14.433042170091204" lon="120.92273724747908"><ele>7.333333333333334</ele><time>2026-04-16T07:09:51.001Z</time></trkpt><trkpt lat="14.433117241643885" lon="120.92274814303428"><ele>7.5</ele><time>2026-04-16T07:09:52.001Z</time></trkpt><trkpt lat="14.433199262097192" lon="120.92275772482357"><ele>7.666666666666666</ele><time>2026-04-16T07:09:53.001Z</time></trkpt><trkpt lat="14.433271601354436" lon="120.92276807899692"><ele>7.833333333333333</ele><time>2026-04-16T07:09:54.001Z</time></trkpt><trkpt lat="14.433353407461846" lon="120.92277665373996"><ele>8.0</ele><time>2026-04-16T07:09:55.001Z</time></trkpt><trkpt lat="14.43342842746902" lon="120.92278388352055"><ele>7.999999999999999</ele><time>2026-04-16T07:09:56.001Z</time></trkpt><trkpt lat="14.433510805740069" lon="120.92279056322046"><ele>8.0</ele><time>2026-04-16T07:09:57.001Z</time></trkpt><trkpt lat="14.433581204791821" lon="120.92279765612194"><ele>8.0</ele><time>2026-04-16T07:09:58.001Z</time></trkpt><trkpt lat="14.43365672917237" lon="120.92280333605768"><ele>8.0</ele><time>2026-04-16T07:09:59.001Z</time></trkpt><trkpt lat="14.433738454405338" lon="120.92280794813476"><ele>7.999999999999999</ele><time>2026-04-16T07:10:00.001Z</time></trkpt><trkpt lat="14.433808144558817" lon="120.92280779835123"><ele>8.0</ele><time>2026-04-16T07:10:01.001Z</time></trkpt><trkpt lat="14.433879562356497" lon="120.92280623975961"><ele>7.7142857142857135</ele><time>2026-04-16T07:10:02.001Z</time></trkpt><trkpt lat="14.433945132335273" lon="120.92280815588508"><ele>7.428571428571428</ele><time>2026-04-16T07:10:03.001Z</time></trkpt><trkpt lat="14.434014650653785" lon="120.92280925926245"><ele>7.142857142857142</ele><time>2026-04-16T07:10:04.001Z</time></trkpt><trkpt lat="14.434089168588667" lon="120.92280977263894"><ele>6.857142857142857</ele><time>2026-04-16T07:10:05.001Z</time></trkpt><trkpt lat="14.434155484217168" lon="120.92281292499146"><ele>6.571428571428571</ele><time>2026-04-16T07:10:06.001Z</time></trkpt><trkpt lat="14.434245108715261" lon="120.92280941547395"><ele>6.285714285714285</ele><time>2026-04-16T07:10:07.001Z</time></trkpt><trkpt lat="14.434321586238257" lon="120.9228130278332"><ele>6.0</ele><time>2026-04-16T07:10:08.001Z</time></trkpt><trkpt lat="14.434408747425111" lon="120.92282128404229"><ele>6.0</ele><time>2026-04-16T07:10:09.001Z</time></trkpt><trkpt lat="14.434502434171733" lon="120.92282979432923"><ele>6.0</ele><time>2026-04-16T07:10:10.001Z</time></trkpt><trkpt lat="14.434594602804136" lon="120.92284261570803"><ele>6.0</ele><time>2026-04-16T07:10:11.001Z</time></trkpt><trkpt lat="14.434686806256154" lon="120.9228556072067"><ele>6.0</ele><time>2026-04-16T07:10:12.001Z</time></trkpt><trkpt lat="14.434764638602973" lon="120.92286659085325"><ele>6.0</ele><time>2026-04-16T07:10:13.001Z</time></trkpt><trkpt lat="14.434838995171678" lon="120.92287866886501"><ele>6.0</ele><time>2026-04-16T07:10:14.001Z</time></trkpt><trkpt lat="14.434902461013456" lon="120.92289111165324"><ele>6.333333333333333</ele><time>2026-04-16T07:10:15.001Z</time></trkpt><trkpt lat="14.434967945887585" lon="120.92290437650874"><ele>6.666666666666666</ele><time>2026-04-16T07:10:16.001Z</time></trkpt><trkpt lat="14.43503881975025" lon="120.92292077044475"><ele>7.0</ele><time>2026-04-16T07:10:17.001Z</time></trkpt><trkpt lat="14.43510884506586" lon="120.92293845015868"><ele>7.333333333333333</ele><time>2026-04-16T07:10:18.001Z</time></trkpt><trkpt lat="14.435187739336497" lon="120.92295860393793"><ele>7.666666666666666</ele><time>2026-04-16T07:10:19.001Z</time></trkpt><trkpt lat="14.435274270873363" lon="120.92298120943349"><ele>8.0</ele><time>2026-04-16T07:10:20.001Z</time></trkpt><trkpt lat="14.435355106037107" lon="120.92300228907713"><ele>7.999999999999999</ele><time>2026-04-16T07:10:21.001Z</time></trkpt><trkpt lat="14.4354316555175" lon="120.92302276928382"><ele>8.0</ele><time>2026-04-16T07:10:22.001Z</time></trkpt><trkpt lat="14.43550874550352" lon="120.92304136096504"><ele>8.0</ele><time>2026-04-16T07:10:23.001Z</time></trkpt><trkpt lat="14.4355876260714" lon="120.92306084437847"><ele>8.0</ele><time>2026-04-16T07:10:24.001Z</time></trkpt><trkpt lat="14.435649735843995" lon="120.92308052026888"><ele>7.999999999999999</ele><time>2026-04-16T07:10:25.001Z</time></trkpt><trkpt lat="14.435753074902266" lon="120.9230965185536"><ele>8.0</ele><time>2026-04-16T07:10:26.001Z</time></trkpt><trkpt lat="14.435827886715801" lon="120.9231153407495"><ele>7.999999999999999</ele><time>2026-04-16T07:10:27.001Z</time></trkpt><trkpt lat="14.435910875618946" lon="120.92313485274336"><ele>8.0</ele><time>2026-04-16T07:10:28.001Z</time></trkpt><trkpt lat="14.435995362801231" lon="120.92315413557075"><ele>8.0</ele><time>2026-04-16T07:10:29.002Z</time></trkpt><trkpt lat="14.436069412583814" lon="120.92316829598028"><ele>8.0</ele><time>2026-04-16T07:10:30.002Z</time></trkpt><trkpt lat="14.43613848290924" lon="120.92318459778546"><ele>7.999999999999999</ele><time>2026-04-16T07:10:31.002Z</time></trkpt><trkpt lat="14.436214642252674" lon="120.92320216665097"><ele>8.0</ele><time>2026-04-16T07:10:32.002Z</time></trkpt><trkpt lat="14.436294176888728" lon="120.92321819256077"><ele>7.666666666666666</ele><time>2026-04-16T07:10:33.002Z</time></trkpt><trkpt lat="14.436378431931342" lon="120.92323483122335"><ele>7.333333333333333</ele><time>2026-04-16T07:10:34.002Z</time></trkpt><trkpt lat="14.436462176467273" lon="120.92325438147031"><ele>7.0</ele><time>2026-04-16T07:10:35.002Z</time></trkpt><trkpt lat="14.436538552558625" lon="120.92326872549091"><ele>6.666666666666666</ele><time>2026-04-16T07:10:36.002Z</time></trkpt><trkpt lat="14.436615030661658" lon="120.92328167391761"><ele>6.333333333333333</ele><time>2026-04-16T07:10:37.002Z</time></trkpt><trkpt lat="14.436691502062972" lon="120.92329390385645"><ele>6.0</ele><time>2026-04-16T07:10:38.002Z</time></trkpt><trkpt lat="14.436770476644812" lon="120.92330455995572"><ele>6.0</ele><time>2026-04-16T07:10:39.002Z</time></trkpt><trkpt lat="14.436852267091195" lon="120.92331428442571"><ele>6.0</ele><time>2026-04-16T07:10:40.002Z</time></trkpt><trkpt lat="14.436935723908721" lon="120.92332377530478"><ele>6.0</ele><time>2026-04-16T07:10:41.002Z</time></trkpt><trkpt lat="14.43702488490605" lon="120.92333704735317"><ele>6.0</ele><time>2026-04-16T07:10:42.002Z</time></trkpt><trkpt lat="14.43711249109244" lon="120.92334939181393"><ele>6.0</ele><time>2026-04-16T07:10:43.002Z</time></trkpt><trkpt lat="14.43720094653074" lon="120.92336067012032"><ele>6.0</ele><time>2026-04-16T07:10:44.002Z</time></trkpt><trkpt lat="14.43728175431439" lon="120.92336536828098"><ele>5.833333333333333</ele><time>2026-04-16T07:10:45.002Z</time></trkpt><trkpt lat="14.437362612069945" lon="120.92337340189506"><ele>5.666666666666667</ele><time>2026-04-16T07:10:46.002Z</time></trkpt><trkpt lat="14.437440163251873" lon="120.9233798642478"><ele>5.5</ele><time>2026-04-16T07:10:47.002Z</time></trkpt><trkpt lat="14.43752353011284" lon="120.92338744155296"><ele>5.333333333333334</ele><time>2026-04-16T07:10:48.002Z</time></trkpt><trkpt lat="14.437607832054605" lon="120.92340098863545"><ele>5.166666666666667</ele><time>2026-04-16T07:10:49.002Z</time></trkpt><trkpt lat="14.437692047126328" lon="120.92341304273644"><ele>5.0</ele><time>2026-04-16T07:10:50.002Z</time></trkpt><trkpt lat="14.437767453890732" lon="120.92342520225424"><ele>5.0</ele><time>2026-04-16T07:10:51.002Z</time></trkpt><trkpt lat="14.437856247858022" lon="120.92343565332008"><ele>5.0</ele><time>2026-04-16T07:10:52.002Z</time></trkpt><trkpt lat="14.437928542186977" lon="120.9234396132417"><ele>5.0</ele><time>2026-04-16T07:10:53.002Z</time></trkpt><trkpt lat="14.438008043082208" lon="120.92344846924173"><ele>5.0</ele><time>2026-04-16T07:10:54.002Z</time></trkpt><trkpt lat="14.438071997248368" lon="120.92344635963771"><ele>5.0</ele><time>2026-04-16T07:10:55.002Z</time></trkpt><trkpt lat="14.438186964851695" lon="120.92346074409629"><ele>5.0</ele><time>2026-04-16T07:10:57.002Z</time></trkpt><trkpt lat="14.43831496080175" lon="120.92347931748755"><ele>5.166666666666667</ele><time>2026-04-16T07:10:59.002Z</time></trkpt><trkpt lat="14.438381295246396" lon="120.9234867070956"><ele>5.333333333333334</ele><time>2026-04-16T07:11:00.002Z</time></trkpt><trkpt lat="14.438448911764468" lon="120.92349287617606"><ele>5.5</ele><time>2026-04-16T07:11:01.002Z</time></trkpt><trkpt lat="14.438548050726922" lon="120.92350157212307"><ele>5.666666666666667</ele><time>2026-04-16T07:11:03.002Z</time></trkpt><trkpt lat="14.43864926057823" lon="120.92351858019381"><ele>5.833333333333333</ele><time>2026-04-16T07:11:05.002Z</time></trkpt><trkpt lat="14.438725476404926" lon="120.92352840979989"><ele>6.0</ele><time>2026-04-16T07:11:07.002Z</time></trkpt><trkpt lat="14.438793534255263" lon="120.92354035176209"><ele>6.0</ele><time>2026-04-16T07:11:10.002Z</time></trkpt><trkpt lat="14.438874576050171" lon="120.92354221984662"><ele>6.0</ele><time>2026-04-16T07:11:14.002Z</time></trkpt><trkpt lat="14.438965379449991" lon="120.92352694673546"><ele>6.0</ele><time>2026-04-16T07:11:25.002Z</time></trkpt><trkpt lat="14.43904473906089" lon="120.92353880071431"><ele>6.0</ele><time>2026-04-16T07:11:28.002Z</time></trkpt><trkpt lat="14.43910911017262" lon="120.92353051240107"><ele>6.0</ele><time>2026-04-16T07:11:49.002Z</time></trkpt><trkpt lat="14.439024063900632" lon="120.92381736385867"><ele>6.0</ele><time>2026-04-16T07:12:01.002Z</time></trkpt><trkpt lat="14.439090547351997" lon="120.92381095089526"><ele>6.0</ele><time>2026-04-16T07:12:03.002Z</time></trkpt><trkpt lat="14.439107084374465" lon="120.92387805309613"><ele>6.0</ele><time>2026-04-16T07:12:05.002Z</time></trkpt><trkpt lat="14.439177092964794" lon="120.9239823327813"><ele>6.0</ele><time>2026-04-16T07:12:07.002Z</time></trkpt><trkpt lat="14.439224910683711" lon="120.92404423306287"><ele>6.0</ele><time>2026-04-16T07:12:08.002Z</time></trkpt><trkpt lat="14.439286373040897" lon="120.92410272306549"><ele>6.0</ele><time>2026-04-16T07:12:09.002Z</time></trkpt><trkpt lat="14.439334927885334" lon="120.92415928457946"><ele>5.999999999999999</ele><time>2026-04-16T07:12:10.002Z</time></trkpt><trkpt lat="14.439384995027746" lon="120.92421856552386"><ele>6.0</ele><time>2026-04-16T07:12:11.002Z</time></trkpt><trkpt lat="14.439435038143328" lon="120.92428217636287"><ele>6.0</ele><time>2026-04-16T07:12:12.002Z</time></trkpt><trkpt lat="14.439473749326808" lon="120.9243469357418"><ele>6.0</ele><time>2026-04-16T07:12:13.002Z</time></trkpt><trkpt lat="14.43951442418346" lon="120.92441061207273"><ele>6.0</ele><time>2026-04-16T07:12:14.002Z</time></trkpt><trkpt lat="14.439553693514805" lon="120.92446931586898"><ele>5.999999999999999</ele><time>2026-04-16T07:12:15.002Z</time></trkpt><trkpt lat="14.439603370467761" lon="120.92452258741278"><ele>6.0</ele><time>2026-04-16T07:12:16.002Z</time></trkpt><trkpt lat="14.43967552848785" lon="120.92461762524648"><ele>6.166666666666667</ele><time>2026-04-16T07:12:18.002Z</time></trkpt><trkpt lat="14.439710298924274" lon="120.92467279352937"><ele>6.333333333333334</ele><time>2026-04-16T07:12:19.002Z</time></trkpt><trkpt lat="14.439746673266919" lon="120.92472881637822"><ele>6.5</ele><time>2026-04-16T07:12:20.002Z</time></trkpt><trkpt lat="14.439791105652231" lon="120.9247850422997"><ele>6.666666666666667</ele><time>2026-04-16T07:12:21.002Z</time></trkpt><trkpt lat="14.439830441990715" lon="120.92484148086754"><ele>6.833333333333334</ele><time>2026-04-16T07:12:22.002Z</time></trkpt><trkpt lat="14.439879493342902" lon="120.92489886726801"><ele>7.0</ele><time>2026-04-16T07:12:23.002Z</time></trkpt><trkpt lat="14.43994336090217" lon="120.92499971975927"><ele>7.3999999999999995</ele><time>2026-04-16T07:12:25.002Z</time></trkpt><trkpt lat="14.440002541581677" lon="120.92509379055447"><ele>7.799999999999999</ele><time>2026-04-16T07:12:27.002Z</time></trkpt><trkpt lat="14.440080785041278" lon="120.92518646895402"><ele>8.2</ele><time>2026-04-16T07:12:29.002Z</time></trkpt><trkpt lat="14.440117762290114" lon="120.92524427561199"><ele>8.6</ele><time>2026-04-16T07:12:30.002Z</time></trkpt><trkpt lat="14.440155068535493" lon="120.92530324973035"><ele>9.0</ele><time>2026-04-16T07:12:31.002Z</time></trkpt><trkpt lat="14.440209681112174" lon="120.92538703345622"><ele>9.0</ele><time>2026-04-16T07:12:33.002Z</time></trkpt><trkpt lat="14.440249354115634" lon="120.92545610566053"><ele>9.0</ele><time>2026-04-16T07:12:35.002Z</time></trkpt><trkpt lat="14.440293770304812" lon="120.92550321676168"><ele>9.0</ele><time>2026-04-16T07:12:41.002Z</time></trkpt><trkpt lat="14.440369089169891" lon="120.92552718201863"><ele>9.0</ele><time>2026-04-16T07:12:44.002Z</time></trkpt><trkpt lat="14.440436540743844" lon="120.9254954776167"><ele>9.0</ele><time>2026-04-16T07:12:45.002Z</time></trkpt><trkpt lat="14.440501816643684" lon="120.92545026495755"><ele>9.0</ele><time>2026-04-16T07:12:46.002Z</time></trkpt><trkpt lat="14.440597891271562" lon="120.9253917568368"><ele>8.833333333333334</ele><time>2026-04-16T07:12:48.002Z</time></trkpt><trkpt lat="14.440694308942023" lon="120.92533048945332"><ele>8.666666666666666</ele><time>2026-04-16T07:12:50.002Z</time></trkpt><trkpt lat="14.440748457760826" lon="120.92529525224005"><ele>8.5</ele><time>2026-04-16T07:12:51.002Z</time></trkpt><trkpt lat="14.440806455648527" lon="120.92526720982627"><ele>8.333333333333332</ele><time>2026-04-16T07:12:52.002Z</time></trkpt><trkpt lat="14.440874975219588" lon="120.9252317681446"><ele>8.166666666666666</ele><time>2026-04-16T07:12:53.002Z</time></trkpt><trkpt lat="14.44093696599169" lon="120.92520040310463"><ele>8.0</ele><time>2026-04-16T07:12:54.002Z</time></trkpt><trkpt lat="14.440995961400493" lon="120.92517235005832"><ele>8.0</ele><time>2026-04-16T07:12:55.002Z</time></trkpt><trkpt lat="14.441054913086411" lon="120.92514622266863"><ele>7.999999999999999</ele><time>2026-04-16T07:12:56.002Z</time></trkpt><trkpt lat="14.441112000559565" lon="120.92511313833141"><ele>8.0</ele><time>2026-04-16T07:12:57.002Z</time></trkpt><trkpt lat="14.441165222656773" lon="120.92507590872057"><ele>8.0</ele><time>2026-04-16T07:12:58.002Z</time></trkpt><trkpt lat="14.441231501282452" lon="120.925036449894"><ele>7.999999999999999</ele><time>2026-04-16T07:12:59.002Z</time></trkpt><trkpt lat="14.441289599194922" lon="120.92500234860881"><ele>8.0</ele><time>2026-04-16T07:13:00.002Z</time></trkpt><trkpt lat="14.441350334600097" lon="120.92497019083567"><ele>8.0</ele><time>2026-04-16T07:13:01.002Z</time></trkpt><trkpt lat="14.441416159707279" lon="120.92493638380961"><ele>7.999999999999999</ele><time>2026-04-16T07:13:02.002Z</time></trkpt><trkpt lat="14.441481220634314" lon="120.92490074399214"><ele>8.0</ele><time>2026-04-16T07:13:03.002Z</time></trkpt><trkpt lat="14.441554407234273" lon="120.9248625311292"><ele>8.0</ele><time>2026-04-16T07:13:04.002Z</time></trkpt><trkpt lat="14.441616906261508" lon="120.92482952172689"><ele>8.0</ele><time>2026-04-16T07:13:05.002Z</time></trkpt><trkpt lat="14.441684972580795" lon="120.9247884870398"><ele>7.999999999999999</ele><time>2026-04-16T07:13:06.002Z</time></trkpt><trkpt lat="14.44175177282232" lon="120.92474763855179"><ele>8.0</ele><time>2026-04-16T07:13:07.002Z</time></trkpt><trkpt lat="14.441816653296149" lon="120.92471070735715"><ele>7.999999999999999</ele><time>2026-04-16T07:13:08.002Z</time></trkpt><trkpt lat="14.441882894580322" lon="120.92467521349903"><ele>8.0</ele><time>2026-04-16T07:13:09.002Z</time></trkpt><trkpt lat="14.441948621392484" lon="120.9246400242109"><ele>8.0</ele><time>2026-04-16T07:13:10.002Z</time></trkpt><trkpt lat="14.4420133216817" lon="120.9246037343947"><ele>8.0</ele><time>2026-04-16T07:13:11.002Z</time></trkpt><trkpt lat="14.442068406031865" lon="120.92457048058142"><ele>7.999999999999999</ele><time>2026-04-16T07:13:12.002Z</time></trkpt><trkpt lat="14.442172882199548" lon="120.92451291270885"><ele>8.0</ele><time>2026-04-16T07:13:14.002Z</time></trkpt><trkpt lat="14.442228715525966" lon="120.92448203392321"><ele>8.0</ele><time>2026-04-16T07:13:15.002Z</time></trkpt><trkpt lat="14.442331273302248" lon="120.92442744935651"><ele>8.0</ele><time>2026-04-16T07:13:17.002Z</time></trkpt><trkpt lat="14.44243050737716" lon="120.92437815020807"><ele>8.0</ele><time>2026-04-16T07:13:19.002Z</time></trkpt><trkpt lat="14.442521967268988" lon="120.92432758647733"><ele>8.0</ele><time>2026-04-16T07:13:21.002Z</time></trkpt><trkpt lat="14.442603263437181" lon="120.92429037674653"><ele>8.0</ele><time>2026-04-16T07:13:23.002Z</time></trkpt><trkpt lat="14.442674072807483" lon="120.92426172039198"><ele>8.0</ele><time>2026-04-16T07:13:26.002Z</time></trkpt><trkpt lat="14.442755099270867" lon="120.9242050747467"><ele>8.0</ele><time>2026-04-16T07:13:46.003Z</time></trkpt><trkpt lat="14.442859889117758" lon="120.92414797494376"><ele>8.0</ele><time>2026-04-16T07:13:48.002Z</time></trkpt><trkpt lat="14.442977363430526" lon="120.92408601158564"><ele>8.0</ele><time>2026-04-16T07:13:50.002Z</time></trkpt><trkpt lat="14.443047488464638" lon="120.92405633020272"><ele>8.0</ele><time>2026-04-16T07:13:51.002Z</time></trkpt><trkpt lat="14.443116237169507" lon="120.92400999974835"><ele>7.999999999999999</ele><time>2026-04-16T07:13:52.002Z</time></trkpt><trkpt lat="14.443194404610642" lon="120.92396808779064"><ele>8.0</ele><time>2026-04-16T07:13:53.002Z</time></trkpt><trkpt lat="14.4432794755954" lon="120.92392524509434"><ele>8.0</ele><time>2026-04-16T07:13:54.002Z</time></trkpt><trkpt lat="14.443362353212782" lon="120.9238816498986"><ele>8.0</ele><time>2026-04-16T07:13:55.002Z</time></trkpt><trkpt lat="14.443436322872229" lon="120.92384466990578"><ele>7.999999999999999</ele><time>2026-04-16T07:13:56.002Z</time></trkpt><trkpt lat="14.443502756962403" lon="120.92380819521257"><ele>8.0</ele><time>2026-04-16T07:13:57.002Z</time></trkpt><trkpt lat="14.443570212748437" lon="120.92377241987857"><ele>8.0</ele><time>2026-04-16T07:13:58.002Z</time></trkpt><trkpt lat="14.443694360685566" lon="120.9237137003128"><ele>8.0</ele><time>2026-04-16T07:14:00.002Z</time></trkpt><trkpt lat="14.443809098695509" lon="120.92367883825574"><ele>8.0</ele><time>2026-04-16T07:14:02.002Z</time></trkpt><trkpt lat="14.443879207835572" lon="120.92366042931927"><ele>8.0</ele><time>2026-04-16T07:14:03.002Z</time></trkpt><trkpt lat="14.443944087518291" lon="120.92364993572583"><ele>8.0</ele><time>2026-04-16T07:14:04.002Z</time></trkpt><trkpt lat="14.444013584158025" lon="120.9236455609144"><ele>7.800000000000001</ele><time>2026-04-16T07:14:06.002Z</time></trkpt><trkpt lat="14.444091626797176" lon="120.92363576347323"><ele>7.6000000000000005</ele><time>2026-04-16T07:14:24.002Z</time></trkpt><trkpt lat="14.444196712684569" lon="120.92361308359764"><ele>7.3999999999999995</ele><time>2026-04-16T07:14:26.002Z</time></trkpt><trkpt lat="14.444261392756038" lon="120.92360443697207"><ele>7.199999999999999</ele><time>2026-04-16T07:14:27.002Z</time></trkpt><trkpt lat="14.444354930909068" lon="120.92358962596975"><ele>7.0</ele><time>2026-04-16T07:14:28.002Z</time></trkpt><trkpt lat="14.44448544497" lon="120.92356203270772"><ele>7.000000000000001</ele><time>2026-04-16T07:14:30.002Z</time></trkpt><trkpt lat="14.444570269874124" lon="120.9235431679956"><ele>7.0</ele><time>2026-04-16T07:14:31.002Z</time></trkpt><trkpt lat="14.444644596960137" lon="120.9235304384249"><ele>7.0</ele><time>2026-04-16T07:14:32.002Z</time></trkpt><trkpt lat="14.444711357836082" lon="120.92351962254028"><ele>7.0</ele><time>2026-04-16T07:14:33.002Z</time></trkpt><trkpt lat="14.444773837483769" lon="120.92351005351824"><ele>7.000000000000001</ele><time>2026-04-16T07:14:34.002Z</time></trkpt><trkpt lat="14.444889064309676" lon="120.92348756446833"><ele>7.0</ele><time>2026-04-16T07:14:36.002Z</time></trkpt><trkpt lat="14.444957270925329" lon="120.92347278171891"><ele>6.8</ele><time>2026-04-16T07:14:37.002Z</time></trkpt><trkpt lat="14.445030121355847" lon="120.92345635105895"><ele>6.6</ele><time>2026-04-16T07:14:38.002Z</time></trkpt><trkpt lat="14.445120435398632" lon="120.92343370767921"><ele>6.3999999999999995</ele><time>2026-04-16T07:14:39.002Z</time></trkpt><trkpt lat="14.445225558300686" lon="120.92340965302073"><ele>6.199999999999999</ele><time>2026-04-16T07:14:40.002Z</time></trkpt><trkpt lat="14.445335177430891" lon="120.9233969311609"><ele>6.0</ele><time>2026-04-16T07:14:41.002Z</time></trkpt><trkpt lat="14.445448004057738" lon="120.9233871255985"><ele>6.0</ele><time>2026-04-16T07:14:42.002Z</time></trkpt><trkpt lat="14.44556286270204" lon="120.9233728025081"><ele>6.0</ele><time>2026-04-16T07:14:43.002Z</time></trkpt><trkpt lat="14.445662106379855" lon="120.92335059473754"><ele>6.0</ele><time>2026-04-16T07:14:44.002Z</time></trkpt><trkpt lat="14.44574887762902" lon="120.92333762025717"><ele>6.0</ele><time>2026-04-16T07:14:45.002Z</time></trkpt><trkpt lat="14.445849775140962" lon="120.9233222516981"><ele>6.0</ele><time>2026-04-16T07:14:46.002Z</time></trkpt><trkpt lat="14.445946213448652" lon="120.92331566665163"><ele>6.0</ele><time>2026-04-16T07:14:47.002Z</time></trkpt><trkpt lat="14.446033757845647" lon="120.92331726246023"><ele>6.0</ele><time>2026-04-16T07:14:48.002Z</time></trkpt><trkpt lat="14.446117568646352" lon="120.92332953012372"><ele>6.0</ele><time>2026-04-16T07:14:49.002Z</time></trkpt><trkpt lat="14.446212781437163" lon="120.92334564869421"><ele>6.0</ele><time>2026-04-16T07:14:50.002Z</time></trkpt><trkpt lat="14.446303933073647" lon="120.92336646841382"><ele>6.0</ele><time>2026-04-16T07:14:51.002Z</time></trkpt><trkpt lat="14.44639677945309" lon="120.92338459363835"><ele>6.4</ele><time>2026-04-16T07:14:52.002Z</time></trkpt><trkpt lat="14.446489558004133" lon="120.9234015410047"><ele>6.8</ele><time>2026-04-16T07:14:53.002Z</time></trkpt><trkpt lat="14.446593493887656" lon="120.92342321052945"><ele>7.200000000000001</ele><time>2026-04-16T07:14:54.002Z</time></trkpt><trkpt lat="14.446680351345345" lon="120.92343863145986"><ele>7.6000000000000005</ele><time>2026-04-16T07:14:55.002Z</time></trkpt><trkpt lat="14.446770396696829" lon="120.92345252175335"><ele>8.0</ele><time>2026-04-16T07:14:56.002Z</time></trkpt><trkpt lat="14.446857227424195" lon="120.92346579895778"><ele>7.999999999999999</ele><time>2026-04-16T07:14:57.002Z</time></trkpt><trkpt lat="14.446947597717633" lon="120.92347799814497"><ele>8.0</ele><time>2026-04-16T07:14:58.002Z</time></trkpt><trkpt lat="14.447027106753792" lon="120.92349033822936"><ele>8.0</ele><time>2026-04-16T07:14:59.002Z</time></trkpt><trkpt lat="14.447114725003527" lon="120.92349903593077"><ele>8.0</ele><time>2026-04-16T07:15:00.002Z</time></trkpt><trkpt lat="14.447206576821163" lon="120.92349722168623"><ele>7.999999999999999</ele><time>2026-04-16T07:15:01.002Z</time></trkpt><trkpt lat="14.447295863204824" lon="120.92349565653481"><ele>8.0</ele><time>2026-04-16T07:15:02.002Z</time></trkpt><trkpt lat="14.447380738526233" lon="120.92349086610635"><ele>8.166666666666666</ele><time>2026-04-16T07:15:03.002Z</time></trkpt><trkpt lat="14.447455957549632" lon="120.92348797905089"><ele>8.333333333333332</ele><time>2026-04-16T07:15:04.002Z</time></trkpt><trkpt lat="14.44752848293877" lon="120.92348627975976"><ele>8.5</ele><time>2026-04-16T07:15:05.002Z</time></trkpt><trkpt lat="14.447598560975756" lon="120.92348703254416"><ele>8.666666666666666</ele><time>2026-04-16T07:15:06.002Z</time></trkpt><trkpt lat="14.447668416021276" lon="120.9234874924937"><ele>8.833333333333334</ele><time>2026-04-16T07:15:07.002Z</time></trkpt><trkpt lat="14.447770164179973" lon="120.92348418028696"><ele>9.0</ele><time>2026-04-16T07:15:09.002Z</time></trkpt><trkpt lat="14.447836166953616" lon="120.92348614901194"><ele>9.000000000000002</ele><time>2026-04-16T07:15:12.002Z</time></trkpt><trkpt lat="14.447851388704136" lon="120.92356038326938"><ele>9.0</ele><time>2026-04-16T07:15:20.002Z</time></trkpt><trkpt lat="14.447860116687274" lon="120.92363812660204"><ele>9.0</ele><time>2026-04-16T07:15:24.002Z</time></trkpt><trkpt lat="14.447845200766832" lon="120.92370375867542"><ele>9.0</ele><time>2026-04-16T07:15:33.002Z</time></trkpt><trkpt lat="14.447829641041125" lon="120.92363828593282"><ele>9.0</ele><time>2026-04-16T07:17:05.002Z</time></trkpt><trkpt lat="14.44778698661128" lon="120.92358203023787"><ele>9.000000000000002</ele><time>2026-04-16T07:17:17.002Z</time></trkpt><trkpt lat="14.447712510924008" lon="120.92360031550858"><ele>9.0</ele><time>2026-04-16T07:19:26.001Z</time></trkpt><trkpt lat="14.447644407293918" lon="120.92362243722629"><ele>9.0</ele><time>2026-04-16T07:19:32.001Z</time></trkpt><trkpt lat="14.447623955672137" lon="120.92368530134853"><ele>9.0</ele><time>2026-04-16T07:19:38.002Z</time></trkpt><trkpt lat="14.46000993043123" lon="120.94920322786564"><ele>8.6</ele><time>2026-04-16T07:36:04.001Z</time></trkpt><trkpt lat="14.46001394540852" lon="120.94928140358057"><ele>8.2</ele><time>2026-04-16T07:36:05.001Z</time></trkpt><trkpt lat="14.46001987076384" lon="120.949356186382"><ele>7.799999999999999</ele><time>2026-04-16T07:36:06.001Z</time></trkpt><trkpt lat="14.460036114296486" lon="120.94948078882487"><ele>7.3999999999999995</ele><time>2026-04-16T07:36:08.001Z</time></trkpt><trkpt lat="14.460047957830332" lon="120.94962148703908"><ele>7.0</ele><time>2026-04-16T07:36:10.001Z</time></trkpt><trkpt lat="14.46005333904309" lon="120.94970308290195"><ele>7.0</ele><time>2026-04-16T07:36:11.001Z</time></trkpt><trkpt lat="14.460056723379628" lon="120.94979853695531"><ele>7.0</ele><time>2026-04-16T07:36:12.001Z</time></trkpt><trkpt lat="14.460063153273579" lon="120.94988912281389"><ele>7.0</ele><time>2026-04-16T07:36:13.001Z</time></trkpt><trkpt lat="14.460077230812649" lon="120.95000518733312"><ele>7.0</ele><time>2026-04-16T07:36:14.001Z</time></trkpt><trkpt lat="14.460120660583023" lon="120.95029869334516"><ele>7.5</ele><time>2026-04-16T07:36:16.001Z</time></trkpt><trkpt lat="14.460140170221738" lon="120.9504327747208"><ele>8.0</ele><time>2026-04-16T07:36:17.001Z</time></trkpt><trkpt lat="14.460152531966294" lon="120.95054866402818"><ele>8.5</ele><time>2026-04-16T07:36:18.001Z</time></trkpt><trkpt lat="14.46016293136335" lon="120.95068171563237"><ele>9.0</ele><time>2026-04-16T07:36:19.001Z</time></trkpt><trkpt lat="14.46018121119058" lon="120.95082982472384"><ele>8.75</ele><time>2026-04-16T07:36:20.001Z</time></trkpt><trkpt lat="14.46019386473101" lon="120.95095960332146"><ele>8.5</ele><time>2026-04-16T07:36:21.001Z</time></trkpt><trkpt lat="14.460206896783436" lon="120.95108300468623"><ele>8.25</ele><time>2026-04-16T07:36:22.001Z</time></trkpt><trkpt lat="14.460219100186519" lon="120.9512046885036"><ele>8.0</ele><time>2026-04-16T07:36:23.001Z</time></trkpt><trkpt lat="14.4602285959934" lon="120.95133459091339"><ele>8.0</ele><time>2026-04-16T07:36:24.001Z</time></trkpt><trkpt lat="14.460241700925701" lon="120.95146030686544"><ele>8.0</ele><time>2026-04-16T07:36:25.001Z</time></trkpt><trkpt lat="14.460257676392855" lon="120.95159360241367"><ele>8.0</ele><time>2026-04-16T07:36:26.001Z</time></trkpt><trkpt lat="14.460275088349263" lon="120.9517181811171"><ele>8.0</ele><time>2026-04-16T07:36:27.001Z</time></trkpt><trkpt lat="14.460286459838672" lon="120.95183523048283"><ele>7.75</ele><time>2026-04-16T07:36:28.001Z</time></trkpt><trkpt lat="14.460300863571677" lon="120.95196105785338"><ele>7.5</ele><time>2026-04-16T07:36:29.001Z</time></trkpt><trkpt lat="14.460316901886555" lon="120.95208910215193"><ele>7.25</ele><time>2026-04-16T07:36:30.001Z</time></trkpt><trkpt lat="14.460330572623743" lon="120.95220733724203"><ele>7.0</ele><time>2026-04-16T07:36:31.001Z</time></trkpt><trkpt lat="14.460344000643646" lon="120.9523363990289"><ele>7.0</ele><time>2026-04-16T07:36:32.001Z</time></trkpt><trkpt lat="14.460360608780013" lon="120.95245384770331"><ele>7.0</ele><time>2026-04-16T07:36:33.001Z</time></trkpt><trkpt lat="14.460372428119932" lon="120.9525957985151"><ele>7.0</ele><time>2026-04-16T07:36:34.001Z</time></trkpt><trkpt lat="14.46038656627204" lon="120.9527093488921"><ele>7.0</ele><time>2026-04-16T07:36:35.002Z</time></trkpt><trkpt lat="14.460417013305019" lon="120.95296139873628"><ele>7.0</ele><time>2026-04-16T07:36:37.002Z</time></trkpt><trkpt lat="14.460437104491353" lon="120.95307157938431"><ele>6.999999999999999</ele><time>2026-04-16T07:36:38.002Z</time></trkpt><trkpt lat="14.460460813343053" lon="120.95318431210195"><ele>6.999999999999999</ele><time>2026-04-16T07:36:39.002Z</time></trkpt><trkpt lat="14.460488227348806" lon="120.95327894043496"><ele>7.0</ele><time>2026-04-16T07:36:40.002Z</time></trkpt><trkpt lat="14.460513498190425" lon="120.95336178854387"><ele>7.0</ele><time>2026-04-16T07:36:41.002Z</time></trkpt><trkpt lat="14.460530841029469" lon="120.95345289666976"><ele>7.199999999999999</ele><time>2026-04-16T07:36:42.002Z</time></trkpt><trkpt lat="14.460548334781915" lon="120.95354246806838"><ele>7.3999999999999995</ele><time>2026-04-16T07:36:43.002Z</time></trkpt><trkpt lat="14.460571140619482" lon="120.95363872795974"><ele>7.6000000000000005</ele><time>2026-04-16T07:36:44.002Z</time></trkpt><trkpt lat="14.460602403600602" lon="120.95372667265697"><ele>7.800000000000001</ele><time>2026-04-16T07:36:45.002Z</time></trkpt><trkpt lat="14.460630814044903" lon="120.95382411073491"><ele>8.0</ele><time>2026-04-16T07:36:46.002Z</time></trkpt><trkpt lat="14.460655326536466" lon="120.95391189450281"><ele>8.0</ele><time>2026-04-16T07:36:47.002Z</time></trkpt><trkpt lat="14.46067775029152" lon="120.95399145104341"><ele>8.0</ele><time>2026-04-16T07:36:48.002Z</time></trkpt><trkpt lat="14.46069388162561" lon="120.95406916892784"><ele>8.0</ele><time>2026-04-16T07:36:49.002Z</time></trkpt><trkpt lat="14.460712930630683" lon="120.9541315484028"><ele>8.0</ele><time>2026-04-16T07:36:50.002Z</time></trkpt><trkpt lat="14.460743118274438" lon="120.95424802626033"><ele>8.0</ele><time>2026-04-16T07:36:52.002Z</time></trkpt><trkpt lat="14.4607820742636" lon="120.95437799753603"><ele>8.0</ele><time>2026-04-16T07:36:54.001Z</time></trkpt><trkpt lat="14.460800228161373" lon="120.95445263317546"><ele>8.0</ele><time>2026-04-16T07:36:55.001Z</time></trkpt><trkpt lat="14.460818686331132" lon="120.95452635505376"><ele>8.0</ele><time>2026-04-16T07:36:56.001Z</time></trkpt><trkpt lat="14.460857856217654" lon="120.9546658227244"><ele>8.0</ele><time>2026-04-16T07:36:58.001Z</time></trkpt><trkpt lat="14.46088986667252" lon="120.95479640425404"><ele>8.0</ele><time>2026-04-16T07:37:00.001Z</time></trkpt><trkpt lat="14.46092682359774" lon="120.95492449344458"><ele>7.999999999999999</ele><time>2026-04-16T07:37:02.001Z</time></trkpt><trkpt lat="14.460948947770595" lon="120.95500873300581"><ele>8.0</ele><time>2026-04-16T07:37:03.001Z</time></trkpt><trkpt lat="14.460970756054332" lon="120.95509145541631"><ele>8.0</ele><time>2026-04-16T07:37:04.001Z</time></trkpt><trkpt lat="14.46099298845841" lon="120.95517413048005"><ele>8.0</ele><time>2026-04-16T07:37:05.001Z</time></trkpt><trkpt lat="14.461012386072772" lon="120.95525310461278"><ele>7.999999999999999</ele><time>2026-04-16T07:37:06.001Z</time></trkpt><trkpt lat="14.461038076880271" lon="120.95534093665117"><ele>8.0</ele><time>2026-04-16T07:37:07.001Z</time></trkpt><trkpt lat="14.461059928471565" lon="120.95541630821143"><ele>8.333333333333332</ele><time>2026-04-16T07:37:08.001Z</time></trkpt><trkpt lat="14.4610772269707" lon="120.95550957461525"><ele>8.666666666666666</ele><time>2026-04-16T07:37:10.001Z</time></trkpt><trkpt lat="14.461088718023705" lon="120.95559565547494"><ele>9.0</ele><time>2026-04-16T07:37:13.001Z</time></trkpt><trkpt lat="14.461122891259324" lon="120.95569617993529"><ele>9.333333333333334</ele><time>2026-04-16T07:37:15.001Z</time></trkpt><trkpt lat="14.461153523832547" lon="120.95577183676926"><ele>9.666666666666668</ele><time>2026-04-16T07:37:16.001Z</time></trkpt><trkpt lat="14.461180623829717" lon="120.95585493567563"><ele>10.0</ele><time>2026-04-16T07:37:17.001Z</time></trkpt><trkpt lat="14.461226530764892" lon="120.95602044485001"><ele>9.0</ele><time>2026-04-16T07:37:19.001Z</time></trkpt><trkpt lat="14.461259082173244" lon="120.95611735053913"><ele>8.0</ele><time>2026-04-16T07:37:20.001Z</time></trkpt><trkpt lat="14.461293842074557" lon="120.95622031057266"><ele>7.0</ele><time>2026-04-16T07:37:21.001Z</time></trkpt><trkpt lat="14.461331087351619" lon="120.95635794406431"><ele>6.0</ele><time>2026-04-16T07:37:22.001Z</time></trkpt><trkpt lat="14.46136455073858" lon="120.95650541706591"><ele>6.0</ele><time>2026-04-16T07:37:23.001Z</time></trkpt><trkpt lat="14.461392463914855" lon="120.95664377982483"><ele>6.0</ele><time>2026-04-16T07:37:24.001Z</time></trkpt><trkpt lat="14.461427888143216" lon="120.95676952836169"><ele>6.0</ele><time>2026-04-16T07:37:25.001Z</time></trkpt><trkpt lat="14.461464946755617" lon="120.95689051641025"><ele>6.0</ele><time>2026-04-16T07:37:26.001Z</time></trkpt><trkpt lat="14.461480606909694" lon="120.95699066271533"><ele>6.0</ele><time>2026-04-16T07:37:27.001Z</time></trkpt><trkpt lat="14.461519029493715" lon="120.95711377458551"><ele>6.0</ele><time>2026-04-16T07:37:28.001Z</time></trkpt><trkpt lat="14.461546894445492" lon="120.9572299191233"><ele>6.0</ele><time>2026-04-16T07:37:29.001Z</time></trkpt><trkpt lat="14.461572304005003" lon="120.95734445790241"><ele>6.0</ele><time>2026-04-16T07:37:30.001Z</time></trkpt><trkpt lat="14.461604541121986" lon="120.95746206364254"><ele>6.199999999999999</ele><time>2026-04-16T07:37:31.001Z</time></trkpt><trkpt lat="14.461633427537972" lon="120.9575749434094"><ele>6.3999999999999995</ele><time>2026-04-16T07:37:32.001Z</time></trkpt><trkpt lat="14.461666060173188" lon="120.95768195738675"><ele>6.6</ele><time>2026-04-16T07:37:33.001Z</time></trkpt><trkpt lat="14.461697609081046" lon="120.95779218007617"><ele>6.8</ele><time>2026-04-16T07:37:34.001Z</time></trkpt><trkpt lat="14.461727745652878" lon="120.95790571124405"><ele>7.0</ele><time>2026-04-16T07:37:35.001Z</time></trkpt><trkpt lat="14.461752733806652" lon="120.95800220770943"><ele>7.0</ele><time>2026-04-16T07:37:36.001Z</time></trkpt><trkpt lat="14.461777488720685" lon="120.9580971920785"><ele>6.999999999999999</ele><time>2026-04-16T07:37:37.001Z</time></trkpt><trkpt lat="14.461800954315486" lon="120.95818116857959"><ele>6.999999999999999</ele><time>2026-04-16T07:37:38.001Z</time></trkpt><trkpt lat="14.461841195840755" lon="120.95833179290167"><ele>7.0</ele><time>2026-04-16T07:37:40.001Z</time></trkpt><trkpt lat="14.461862457312012" lon="120.95841124952051"><ele>7.0</ele><time>2026-04-16T07:37:41.001Z</time></trkpt><trkpt lat="14.461885173220507" lon="120.95850039352304"><ele>7.199999999999999</ele><time>2026-04-16T07:37:42.001Z</time></trkpt><trkpt lat="14.461907513543728" lon="120.95858862635215"><ele>7.3999999999999995</ele><time>2026-04-16T07:37:43.001Z</time></trkpt><trkpt lat="14.461929968327167" lon="120.95868282454968"><ele>7.6000000000000005</ele><time>2026-04-16T07:37:44.001Z</time></trkpt><trkpt lat="14.46195624685548" lon="120.95877803320273"><ele>7.800000000000001</ele><time>2026-04-16T07:37:45.001Z</time></trkpt><trkpt lat="14.461990523278414" lon="120.95889112305548"><ele>8.0</ele><time>2026-04-16T07:37:46.001Z</time></trkpt><trkpt lat="14.46201967413562" lon="120.95899689911933"><ele>8.0</ele><time>2026-04-16T07:37:47.001Z</time></trkpt><trkpt lat="14.462051219617578" lon="120.95910989830283"><ele>8.0</ele><time>2026-04-16T07:37:48.001Z</time></trkpt><trkpt lat="14.462078762800685" lon="120.95920924337926"><ele>8.0</ele><time>2026-04-16T07:37:49.001Z</time></trkpt><trkpt lat="14.462107855782207" lon="120.95930272105107"><ele>8.0</ele><time>2026-04-16T07:37:50.001Z</time></trkpt><trkpt lat="14.462130593522225" lon="120.95938911300766"><ele>8.0</ele><time>2026-04-16T07:37:51.001Z</time></trkpt><trkpt lat="14.462145494556491" lon="120.95945420921797"><ele>7.4</ele><time>2026-04-16T07:37:52.001Z</time></trkpt><trkpt lat="14.462168039464729" lon="120.95956941283652"><ele>6.800000000000001</ele><time>2026-04-16T07:37:54.001Z</time></trkpt><trkpt lat="14.462185612646062" lon="120.959635088973"><ele>6.2</ele><time>2026-04-16T07:37:55.001Z</time></trkpt><trkpt lat="14.462216034591064" lon="120.95972335089175"><ele>5.6</ele><time>2026-04-16T07:37:56.001Z</time></trkpt><trkpt lat="14.462244919604435" lon="120.95981454128918"><ele>5.0</ele><time>2026-04-16T07:37:57.001Z</time></trkpt><trkpt lat="14.462282546574741" lon="120.95991885337678"><ele>5.0</ele><time>2026-04-16T07:37:58.001Z</time></trkpt><trkpt lat="14.462307204015449" lon="120.96002386617434"><ele>5.0</ele><time>2026-04-16T07:37:59.001Z</time></trkpt><trkpt lat="14.46235140349488" lon="120.96020013375103"><ele>5.0</ele><time>2026-04-16T07:38:02.001Z</time></trkpt><trkpt lat="14.462378465775725" lon="120.9602923746801"><ele>5.0</ele><time>2026-04-16T07:38:05.001Z</time></trkpt><trkpt lat="14.462429396964456" lon="120.96043411170069"><ele>5.0</ele><time>2026-04-16T07:38:07.001Z</time></trkpt><trkpt lat="14.462456442035267" lon="120.96052527914135"><ele>5.0</ele><time>2026-04-16T07:38:08.001Z</time></trkpt><trkpt lat="14.462478527499" lon="120.96062856374218"><ele>5.0</ele><time>2026-04-16T07:38:09.001Z</time></trkpt><trkpt lat="14.462493957575518" lon="120.96073128934495"><ele>5.0</ele><time>2026-04-16T07:38:10.001Z</time></trkpt><trkpt lat="14.462504822251407" lon="120.96083593534796"><ele>5.0</ele><time>2026-04-16T07:38:11.001Z</time></trkpt><trkpt lat="14.462513374153568" lon="120.96094333657616"><ele>5.5</ele><time>2026-04-16T07:38:12.001Z</time></trkpt><trkpt lat="14.462511764451994" lon="120.96103660141306"><ele>6.0</ele><time>2026-04-16T07:38:13.001Z</time></trkpt><trkpt lat="14.462506743411168" lon="120.96110925461446"><ele>6.5</ele><time>2026-04-16T07:38:14.001Z</time></trkpt><trkpt lat="14.462504307518664" lon="120.96120012939919"><ele>7.0</ele><time>2026-04-16T07:38:15.001Z</time></trkpt><trkpt lat="14.462497238423932" lon="120.96127394864898"><ele>7.499999999999999</ele><time>2026-04-16T07:38:16.001Z</time></trkpt><trkpt lat="14.462485363086845" lon="120.96135513232468"><ele>8.0</ele><time>2026-04-16T07:38:17.001Z</time></trkpt><trkpt lat="14.46246926703077" lon="120.96143281030538"><ele>8.0</ele><time>2026-04-16T07:38:18.001Z</time></trkpt><trkpt lat="14.46245066676055" lon="120.96149644939295"><ele>8.0</ele><time>2026-04-16T07:38:19.001Z</time></trkpt><trkpt lat="14.462413552973889" lon="120.96161745444019"><ele>8.0</ele><time>2026-04-16T07:38:21.001Z</time></trkpt><trkpt lat="14.462350075919451" lon="120.961796600743"><ele>8.0</ele><time>2026-04-16T07:38:25.001Z</time></trkpt><trkpt lat="14.462325740516574" lon="120.9618618402132"><ele>8.0</ele><time>2026-04-16T07:38:27.001Z</time></trkpt><trkpt lat="14.462308569545774" lon="120.9619275682679"><ele>8.600000000000001</ele><time>2026-04-16T07:38:29.001Z</time></trkpt><trkpt lat="14.462277839107728" lon="120.96202240963001"><ele>9.200000000000001</ele><time>2026-04-16T07:38:31.001Z</time></trkpt><trkpt lat="14.462239080965144" lon="120.96212942048139"><ele>9.8</ele><time>2026-04-16T07:38:33.001Z</time></trkpt><trkpt lat="14.462209588495597" lon="120.96221238422207"><ele>10.4</ele><time>2026-04-16T07:38:35.001Z</time></trkpt><trkpt lat="14.4621788780018" lon="120.96229952402297"><ele>11.0</ele><time>2026-04-16T07:38:37.001Z</time></trkpt><trkpt lat="14.462155158071909" lon="120.96239907466469"><ele>11.0</ele><time>2026-04-16T07:38:39.001Z</time></trkpt><trkpt lat="14.462124522426604" lon="120.96246333813434"><ele>11.0</ele><time>2026-04-16T07:38:42.001Z</time></trkpt><trkpt lat="14.462046242402637" lon="120.96263986685906"><ele>11.0</ele><time>2026-04-16T07:38:47.001Z</time></trkpt><trkpt lat="14.462003208060308" lon="120.96269817064353"><ele>11.0</ele><time>2026-04-16T07:38:49.001Z</time></trkpt><trkpt lat="14.461960549118697" lon="120.96275090401403"><ele>11.0</ele><time>2026-04-16T07:38:52.001Z</time></trkpt><trkpt lat="14.461909106688283" lon="120.96282117819491"><ele>10.4</ele><time>2026-04-16T07:40:21.001Z</time></trkpt><trkpt lat="14.46190301412658" lon="120.96303116090246"><ele>9.8</ele><time>2026-04-16T07:40:26.001Z</time></trkpt><trkpt lat="14.461946288276474" lon="120.96313530208673"><ele>9.200000000000001</ele><time>2026-04-16T07:40:28.001Z</time></trkpt><trkpt lat="14.46199342934191" lon="120.9631864564216"><ele>8.600000000000001</ele><time>2026-04-16T07:40:29.001Z</time></trkpt><trkpt lat="14.462040075410867" lon="120.9632365708798"><ele>8.0</ele><time>2026-04-16T07:40:30.001Z</time></trkpt><trkpt lat="14.462099296992683" lon="120.96330616231722"><ele>8.166666666666666</ele><time>2026-04-16T07:40:31.001Z</time></trkpt><trkpt lat="14.462140071947749" lon="120.96336252465618"><ele>8.333333333333332</ele><time>2026-04-16T07:40:32.001Z</time></trkpt><trkpt lat="14.462189567658076" lon="120.96342550192931"><ele>8.5</ele><time>2026-04-16T07:40:33.001Z</time></trkpt><trkpt lat="14.462226237842689" lon="120.9634897943617"><ele>8.666666666666666</ele><time>2026-04-16T07:40:34.001Z</time></trkpt><trkpt lat="14.46226524859971" lon="120.96356388473566"><ele>8.833333333333334</ele><time>2026-04-16T07:40:35.001Z</time></trkpt><trkpt lat="14.462327210236428" lon="120.96364551266767"><ele>9.0</ele><time>2026-04-16T07:40:36.001Z</time></trkpt><trkpt lat="14.4623745346926" lon="120.96372139054218"><ele>9.0</ele><time>2026-04-16T07:40:37.001Z</time></trkpt><trkpt lat="14.462429318564551" lon="120.96380229504787"><ele>9.0</ele><time>2026-04-16T07:40:38.001Z</time></trkpt><trkpt lat="14.462485224601632" lon="120.96388609136065"><ele>9.0</ele><time>2026-04-16T07:40:39.001Z</time></trkpt><trkpt lat="14.462542783360693" lon="120.96397343395633"><ele>9.0</ele><time>2026-04-16T07:40:40.001Z</time></trkpt><trkpt lat="14.46260319042302" lon="120.9640683287698"><ele>9.0</ele><time>2026-04-16T07:40:41.001Z</time></trkpt><trkpt lat="14.46266004393535" lon="120.96417021905239"><ele>8.666666666666666</ele><time>2026-04-16T07:40:42.001Z</time></trkpt><trkpt lat="14.462787535101462" lon="120.96437806073726"><ele>8.333333333333332</ele><time>2026-04-16T07:40:44.001Z</time></trkpt><trkpt lat="14.462850955379128" lon="120.96447248249656"><ele>8.0</ele><time>2026-04-16T07:40:45.001Z</time></trkpt><trkpt lat="14.462903277197157" lon="120.96456584883762"><ele>8.0</ele><time>2026-04-16T07:40:46.001Z</time></trkpt><trkpt lat="14.462972361002231" lon="120.96465945165781"><ele>8.0</ele><time>2026-04-16T07:40:47.001Z</time></trkpt><trkpt lat="14.46303673260114" lon="120.96475500075277"><ele>8.0</ele><time>2026-04-16T07:40:48.001Z</time></trkpt><trkpt lat="14.463095530880633" lon="120.96484671425287"><ele>8.0</ele><time>2026-04-16T07:40:49.001Z</time></trkpt><trkpt lat="14.463159938263196" lon="120.9649418874315"><ele>8.0</ele><time>2026-04-16T07:40:50.001Z</time></trkpt><trkpt lat="14.463223920099912" lon="120.96503922522504"><ele>8.200000000000001</ele><time>2026-04-16T07:40:51.001Z</time></trkpt><trkpt lat="14.463287454178477" lon="120.96513243485505"><ele>8.4</ele><time>2026-04-16T07:40:52.001Z</time></trkpt><trkpt lat="14.46334800639673" lon="120.96522057119975"><ele>8.600000000000001</ele><time>2026-04-16T07:40:53.001Z</time></trkpt><trkpt lat="14.46341470893621" lon="120.96531539047348"><ele>8.8</ele><time>2026-04-16T07:40:54.001Z</time></trkpt><trkpt lat="14.463477455067128" lon="120.96540347269989"><ele>9.0</ele><time>2026-04-16T07:40:55.001Z</time></trkpt><trkpt lat="14.463531425678129" lon="120.96548442219887"><ele>9.0</ele><time>2026-04-16T07:40:56.001Z</time></trkpt><trkpt lat="14.463577502720522" lon="120.96555786003886"><ele>9.0</ele><time>2026-04-16T07:40:57.001Z</time></trkpt><trkpt lat="14.463622048751233" lon="120.9656280850235"><ele>9.0</ele><time>2026-04-16T07:40:58.001Z</time></trkpt><trkpt lat="14.463664284497032" lon="120.96568667127664"><ele>9.0</ele><time>2026-04-16T07:40:59.001Z</time></trkpt><trkpt lat="14.463704477292428" lon="120.96574257689747"><ele>9.0</ele><time>2026-04-16T07:41:00.001Z</time></trkpt><trkpt lat="14.463766210042218" lon="120.96582726312451"><ele>9.0</ele><time>2026-04-16T07:41:02.001Z</time></trkpt><trkpt lat="14.463820274743181" lon="120.96590337762518"><ele>9.0</ele><time>2026-04-16T07:41:04.001Z</time></trkpt><trkpt lat="14.463953854970116" lon="120.96610398489175"><ele>9.0</ele><time>2026-04-16T07:41:08.001Z</time></trkpt><trkpt lat="14.464010272329656" lon="120.96619106475025"><ele>9.0</ele><time>2026-04-16T07:41:10.001Z</time></trkpt><trkpt lat="14.464066405363894" lon="120.96627911112733"><ele>9.0</ele><time>2026-04-16T07:41:12.001Z</time></trkpt><trkpt lat="14.464127166130869" lon="120.96637845635101"><ele>9.0</ele><time>2026-04-16T07:41:14Z</time></trkpt><trkpt lat="14.464177965197159" lon="120.96646451755622"><ele>9.0</ele><time>2026-04-16T07:41:16Z</time></trkpt><trkpt lat="14.464245211270821" lon="120.96657995737367"><ele>9.0</ele><time>2026-04-16T07:41:18Z</time></trkpt><trkpt lat="14.46428482897683" lon="120.96664774786457"><ele>9.0</ele><time>2026-04-16T07:41:19Z</time></trkpt><trkpt lat="14.464338047509056" lon="120.96672860407647"><ele>9.0</ele><time>2026-04-16T07:41:20Z</time></trkpt><trkpt lat="14.464379984115325" lon="120.96680677045232"><ele>8.8</ele><time>2026-04-16T07:41:21Z</time></trkpt><trkpt lat="14.464427271773511" lon="120.96688301765576"><ele>8.600000000000001</ele><time>2026-04-16T07:41:22Z</time></trkpt><trkpt lat="14.464453168749147" lon="120.96694235075292"><ele>8.4</ele><time>2026-04-16T07:41:23.001Z</time></trkpt><trkpt lat="14.464518572078727" lon="120.96702291826483"><ele>8.200000000000001</ele><time>2026-04-16T07:41:26.001Z</time></trkpt><trkpt lat="14.464632714229406" lon="120.96717508091955"><ele>8.0</ele><time>2026-04-16T07:41:29.001Z</time></trkpt><trkpt lat="14.464682313645069" lon="120.96723034167965"><ele>8.333333333333332</ele><time>2026-04-16T07:41:30.001Z</time></trkpt><trkpt lat="14.464731057902233" lon="120.9672732188766"><ele>8.666666666666666</ele><time>2026-04-16T07:41:31.001Z</time></trkpt><trkpt lat="14.464780307036266" lon="120.96731397198934"><ele>9.0</ele><time>2026-04-16T07:41:32.001Z</time></trkpt><trkpt lat="14.464882003943508" lon="120.96739219632732"><ele>9.333333333333334</ele><time>2026-04-16T07:41:34.001Z</time></trkpt><trkpt lat="14.464933234622082" lon="120.96743372535049"><ele>9.666666666666668</ele><time>2026-04-16T07:41:35.001Z</time></trkpt><trkpt lat="14.465040876120932" lon="120.96749993455445"><ele>10.0</ele><time>2026-04-16T07:41:37.001Z</time></trkpt><trkpt lat="14.465103891779933" lon="120.96753655601802"><ele>10.0</ele><time>2026-04-16T07:41:38.001Z</time></trkpt><trkpt lat="14.46516924959333" lon="120.967576238079"><ele>10.0</ele><time>2026-04-16T07:41:39.001Z</time></trkpt><trkpt lat="14.465237094178443" lon="120.96762078061701"><ele>10.0</ele><time>2026-04-16T07:41:40.001Z</time></trkpt><trkpt lat="14.46531004851225" lon="120.96767263624619"><ele>10.0</ele><time>2026-04-16T07:41:41.001Z</time></trkpt><trkpt lat="14.465370985218843" lon="120.96771850180883"><ele>10.0</ele><time>2026-04-16T07:41:42.001Z</time></trkpt><trkpt lat="14.465431960735373" lon="120.96776021492435"><ele>10.0</ele><time>2026-04-16T07:41:43.001Z</time></trkpt><trkpt lat="14.465485789423395" lon="120.96779763762892"><ele>9.0</ele><time>2026-04-16T07:41:44.001Z</time></trkpt><trkpt lat="14.465561246345233" lon="120.96785803645697"><ele>8.0</ele><time>2026-04-16T07:41:46.001Z</time></trkpt><trkpt lat="14.465627723406907" lon="120.967903573232"><ele>7.0</ele><time>2026-04-16T07:41:49.001Z</time></trkpt><trkpt lat="14.465859578276916" lon="120.96809892787476"><ele>7.0</ele><time>2026-04-16T07:43:20.001Z</time></trkpt><trkpt lat="14.465929477303899" lon="120.96816120240672"><ele>6.999999999999999</ele><time>2026-04-16T07:43:21.001Z</time></trkpt><trkpt lat="14.466003242901285" lon="120.96823567393704"><ele>6.999999999999999</ele><time>2026-04-16T07:43:22.001Z</time></trkpt><trkpt lat="14.4660591367828" lon="120.9682706929987"><ele>7.0</ele><time>2026-04-16T07:43:23.001Z</time></trkpt><trkpt lat="14.466148039662091" lon="120.96833813934053"><ele>7.0</ele><time>2026-04-16T07:43:24Z</time></trkpt><trkpt lat="14.466239920868546" lon="120.9684115526983"><ele>7.199999999999999</ele><time>2026-04-16T07:43:25.001Z</time></trkpt><trkpt lat="14.466331008214297" lon="120.96848856339756"><ele>7.3999999999999995</ele><time>2026-04-16T07:43:26.001Z</time></trkpt><trkpt lat="14.46641067938341" lon="120.96855318802642"><ele>7.6000000000000005</ele><time>2026-04-16T07:43:27.001Z</time></trkpt><trkpt lat="14.466486153496147" lon="120.968607350956"><ele>7.800000000000001</ele><time>2026-04-16T07:43:28.001Z</time></trkpt><trkpt lat="14.466554692650552" lon="120.96866272268295"><ele>8.0</ele><time>2026-04-16T07:43:29.001Z</time></trkpt><trkpt lat="14.466619862905743" lon="120.96871119428937"><ele>7.999999999999999</ele><time>2026-04-16T07:43:30.001Z</time></trkpt><trkpt lat="14.466675599907205" lon="120.96876113752555"><ele>8.0</ele><time>2026-04-16T07:43:31.001Z</time></trkpt><trkpt lat="14.46672315696939" lon="120.96880572431084"><ele>8.0</ele><time>2026-04-16T07:43:32.001Z</time></trkpt><trkpt lat="14.466788675950959" lon="120.96885856562633"><ele>8.0</ele><time>2026-04-16T07:43:34.001Z</time></trkpt><trkpt lat="14.466838583643492" lon="120.96880580948405"><ele>7.999999999999999</ele><time>2026-04-16T07:43:38.001Z</time></trkpt><trkpt lat="14.466943660436145" lon="120.96878218313756"><ele>8.0</ele><time>2026-04-16T07:43:46.001Z</time></trkpt><trkpt lat="14.466998985014179" lon="120.96883069236168"><ele>8.0</ele><time>2026-04-16T07:44:24.001Z</time></trkpt><trkpt lat="14.46701271285882" lon="120.96902766932102"><ele>8.0</ele><time>2026-04-16T07:44:31.001Z</time></trkpt><trkpt lat="14.467053856186684" lon="120.96908015492663"><ele>8.0</ele><time>2026-04-16T07:44:32.001Z</time></trkpt><trkpt lat="14.467105263590533" lon="120.9691246592779"><ele>8.0</ele><time>2026-04-16T07:44:33.001Z</time></trkpt><trkpt lat="14.467159720201279" lon="120.96917045466282"><ele>8.0</ele><time>2026-04-16T07:44:34.001Z</time></trkpt><trkpt lat="14.46720778037705" lon="120.96921413640807"><ele>7.833333333333333</ele><time>2026-04-16T07:44:35.001Z</time></trkpt><trkpt lat="14.467262383257559" lon="120.96925920583746"><ele>7.666666666666666</ele><time>2026-04-16T07:44:36.001Z</time></trkpt><trkpt lat="14.467318319207896" lon="120.96932465703581"><ele>7.5</ele><time>2026-04-16T07:44:38.001Z</time></trkpt><trkpt lat="14.467344675914886" lon="120.96939213059721"><ele>7.333333333333334</ele><time>2026-04-16T07:44:42.001Z</time></trkpt><trkpt lat="14.467334993970374" lon="120.96948144389192"><ele>7.166666666666667</ele><time>2026-04-16T07:44:46.001Z</time></trkpt><trkpt lat="14.467220038328712" lon="120.96951290099139"><ele>7.0</ele><time>2026-04-16T07:44:52.001Z</time></trkpt><trkpt lat="14.467238133349381" lon="120.96944268770537"><ele>7.0</ele><time>2026-04-16T07:45:29Z</time></trkpt><trkpt lat="14.467289635520602" lon="120.96932366682594"><ele>6.999999999999999</ele><time>2026-04-16T07:45:34Z</time></trkpt><trkpt lat="14.46724338640285" lon="120.96923318582289"><ele>6.999999999999999</ele><time>2026-04-16T07:45:36Z</time></trkpt><trkpt lat="14.46717415878662" lon="120.96915745459047"><ele>7.0</ele><time>2026-04-16T07:45:38Z</time></trkpt><trkpt lat="14.467119429350957" lon="120.96909264610505"><ele>7.0</ele><time>2026-04-16T07:45:40Z</time></trkpt><trkpt lat="14.467051541950685" lon="120.96902024504102"><ele>7.166666666666667</ele><time>2026-04-16T07:45:42.001Z</time></trkpt><trkpt lat="14.466985259123742" lon="120.9689699662435"><ele>7.333333333333334</ele><time>2026-04-16T07:45:44.001Z</time></trkpt><trkpt lat="14.466969182981643" lon="120.96890602763705"><ele>7.5</ele><time>2026-04-16T07:45:47.001Z</time></trkpt><trkpt lat="14.466968843268146" lon="120.96882221308826"><ele>7.666666666666666</ele><time>2026-04-16T07:45:50.001Z</time></trkpt><trkpt lat="14.46688774362169" lon="120.96881303064467"><ele>7.833333333333333</ele><time>2026-04-16T07:50:10Z</time></trkpt><trkpt lat="14.46687045964569" lon="120.96889637358754"><ele>8.0</ele><time>2026-04-16T07:50:38.001Z</time></trkpt><trkpt lat="14.466995224162568" lon="120.96904648072542"><ele>7.999999999999999</ele><time>2026-04-16T07:50:43.001Z</time></trkpt><trkpt lat="14.467049449337305" lon="120.96909866896655"><ele>8.0</ele><time>2026-04-16T07:50:44.001Z</time></trkpt><trkpt lat="14.467109489701942" lon="120.96914750080052"><ele>8.0</ele><time>2026-04-16T07:50:45.001Z</time></trkpt><trkpt lat="14.467162215603723" lon="120.96919379823363"><ele>8.0</ele><time>2026-04-16T07:50:46.001Z</time></trkpt><trkpt lat="14.467247243846565" lon="120.96926278048794"><ele>7.999999999999999</ele><time>2026-04-16T07:50:48.001Z</time></trkpt><trkpt lat="14.467313916752717" lon="120.9693195031759"><ele>8.0</ele><time>2026-04-16T07:50:50.001Z</time></trkpt><trkpt lat="14.467314731652795" lon="120.96940968053042"><ele>7.833333333333333</ele><time>2026-04-16T07:50:54.001Z</time></trkpt><trkpt lat="14.467346938582079" lon="120.96947992212785"><ele>7.666666666666666</ele><time>2026-04-16T07:50:56.001Z</time></trkpt><trkpt lat="14.467398411930011" lon="120.96953364295567"><ele>7.5</ele><time>2026-04-16T07:50:58.001Z</time></trkpt><trkpt lat="14.467444462423652" lon="120.96958166497315"><ele>7.333333333333334</ele><time>2026-04-16T07:51:00.001Z</time></trkpt><trkpt lat="14.467365956597916" lon="120.96969633436288"><ele>7.166666666666667</ele><time>2026-04-16T07:51:15.001Z</time></trkpt><trkpt lat="14.467383807679965" lon="120.96976171963729"><ele>7.0</ele><time>2026-04-16T07:51:18.001Z</time></trkpt><trkpt lat="14.467360308909267" lon="120.96969840155086"><ele>7.0</ele><time>2026-04-16T08:05:51.001Z</time></trkpt><trkpt lat="14.467471510955887" lon="120.96955334605272"><ele>6.999999999999999</ele><time>2026-04-16T08:09:57.001Z</time></trkpt><trkpt lat="14.467544059717365" lon="120.96952237255964"><ele>6.999999999999999</ele><time>2026-04-16T08:10:02.001Z</time></trkpt><trkpt lat="14.467610192810646" lon="120.96955269870888"><ele>7.0</ele><time>2026-04-16T08:10:04.001Z</time></trkpt><trkpt lat="14.46767647140338" lon="120.96955398927601"><ele>7.0</ele><time>2026-04-16T08:10:06.001Z</time></trkpt><trkpt lat="14.4677294980774" lon="120.96959532356843"><ele>7.000000000000001</ele><time>2026-04-16T08:10:07.001Z</time></trkpt><trkpt lat="14.467800958886233" lon="120.96964397316866"><ele>7.0</ele><time>2026-04-16T08:10:08.001Z</time></trkpt><trkpt lat="14.467868345254768" lon="120.96969801534662"><ele>7.0</ele><time>2026-04-16T08:10:09.001Z</time></trkpt><trkpt lat="14.467919038290226" lon="120.96973929491064"><ele>7.0</ele><time>2026-04-16T08:10:10.001Z</time></trkpt><trkpt lat="14.46798462400193" lon="120.96978362565314"><ele>7.000000000000001</ele><time>2026-04-16T08:10:12.002Z</time></trkpt><trkpt lat="14.468085102697037" lon="120.96985458774074"><ele>7.0</ele><time>2026-04-16T08:10:14.002Z</time></trkpt><trkpt lat="14.46825313239354" lon="120.96996009444977"><ele>7.000000000000001</ele><time>2026-04-16T08:10:17.002Z</time></trkpt><trkpt lat="14.468311105901037" lon="120.96998894155058"><ele>7.0</ele><time>2026-04-16T08:10:18.002Z</time></trkpt><trkpt lat="14.468374047174638" lon="120.9700225445398"><ele>7.0</ele><time>2026-04-16T08:10:19.002Z</time></trkpt><trkpt lat="14.468460467855346" lon="120.97005872180137"><ele>7.0</ele><time>2026-04-16T08:10:20.002Z</time></trkpt><trkpt lat="14.468555414576173" lon="120.97009232775014"><ele>7.000000000000001</ele><time>2026-04-16T08:10:21.002Z</time></trkpt><trkpt lat="14.468651950805564" lon="120.97012281565547"><ele>7.0</ele><time>2026-04-16T08:10:22.002Z</time></trkpt><trkpt lat="14.468743368937933" lon="120.9701506951868"><ele>7.166666666666667</ele><time>2026-04-16T08:10:23.002Z</time></trkpt><trkpt lat="14.468832187314458" lon="120.97019000914857"><ele>7.333333333333334</ele><time>2026-04-16T08:10:24.002Z</time></trkpt><trkpt lat="14.468914657494496" lon="120.97022737391791"><ele>7.5</ele><time>2026-04-16T08:10:25.002Z</time></trkpt><trkpt lat="14.468982271548782" lon="120.97027340122078"><ele>7.666666666666666</ele><time>2026-04-16T08:10:26.002Z</time></trkpt><trkpt lat="14.46904515756722" lon="120.97032225304932"><ele>7.833333333333333</ele><time>2026-04-16T08:10:27.002Z</time></trkpt><trkpt lat="14.469096279615915" lon="120.97037118366312"><ele>8.0</ele><time>2026-04-16T08:10:28.001Z</time></trkpt><trkpt lat="14.46917828539039" lon="120.97046061893036"><ele>8.0</ele><time>2026-04-16T08:10:30.001Z</time></trkpt><trkpt lat="14.469261742501315" lon="120.97055902494255"><ele>8.0</ele><time>2026-04-16T08:10:32.001Z</time></trkpt><trkpt lat="14.469308801813249" lon="120.97061936700256"><ele>8.0</ele><time>2026-04-16T08:10:33.001Z</time></trkpt><trkpt lat="14.469356293383363" lon="120.97068257055992"><ele>8.0</ele><time>2026-04-16T08:10:34.001Z</time></trkpt><trkpt lat="14.469412159045444" lon="120.97073793804242"><ele>8.0</ele><time>2026-04-16T08:10:35.001Z</time></trkpt><trkpt lat="14.469503038931808" lon="120.97084085139487"><ele>7.857142857142857</ele><time>2026-04-16T08:10:37.001Z</time></trkpt><trkpt lat="14.469554624582086" lon="120.97089941803989"><ele>7.7142857142857135</ele><time>2026-04-16T08:10:38.001Z</time></trkpt><trkpt lat="14.469602488549882" lon="120.97095182403206"><ele>7.571428571428571</ele><time>2026-04-16T08:10:39.001Z</time></trkpt><trkpt lat="14.469655276655816" lon="120.97101007492968"><ele>7.428571428571429</ele><time>2026-04-16T08:10:40.001Z</time></trkpt><trkpt lat="14.469710699253545" lon="120.97106752355866"><ele>7.285714285714286</ele><time>2026-04-16T08:10:41.001Z</time></trkpt><trkpt lat="14.469764186710247" lon="120.97112127580013"><ele>7.142857142857142</ele><time>2026-04-16T08:10:42.001Z</time></trkpt><trkpt lat="14.46980957432799" lon="120.97117531993591"><ele>7.0</ele><time>2026-04-16T08:10:43.001Z</time></trkpt><trkpt lat="14.469893180405203" lon="120.97127674949517"><ele>7.000000000000001</ele><time>2026-04-16T08:10:45.001Z</time></trkpt><trkpt lat="14.469936239307795" lon="120.97133255175966"><ele>7.0</ele><time>2026-04-16T08:10:46.001Z</time></trkpt><trkpt lat="14.469983844850232" lon="120.97140063444603"><ele>7.0</ele><time>2026-04-16T08:10:47.001Z</time></trkpt><trkpt lat="14.470032823520766" lon="120.97146686221697"><ele>7.0</ele><time>2026-04-16T08:10:48.001Z</time></trkpt><trkpt lat="14.47008320743578" lon="120.97154005554637"><ele>7.000000000000001</ele><time>2026-04-16T08:10:49.001Z</time></trkpt><trkpt lat="14.470133008991926" lon="120.97160824961433"><ele>7.0</ele><time>2026-04-16T08:10:50.001Z</time></trkpt><trkpt lat="14.470180623234944" lon="120.97167853573393"><ele>7.000000000000001</ele><time>2026-04-16T08:10:51.001Z</time></trkpt><trkpt lat="14.47023130346819" lon="120.9717520768489"><ele>7.0</ele><time>2026-04-16T08:10:52.001Z</time></trkpt><trkpt lat="14.470283891242532" lon="120.97182481377396"><ele>7.0</ele><time>2026-04-16T08:10:53.001Z</time></trkpt><trkpt lat="14.470336459243835" lon="120.97190304177442"><ele>7.0</ele><time>2026-04-16T08:10:54.001Z</time></trkpt><trkpt lat="14.470380312393777" lon="120.97196764740649"><ele>7.000000000000001</ele><time>2026-04-16T08:10:55.001Z</time></trkpt><trkpt lat="14.470416014824643" lon="120.97202931805475"><ele>7.0</ele><time>2026-04-16T08:10:56.001Z</time></trkpt><trkpt lat="14.470482728558494" lon="120.97214188518302"><ele>7.000000000000001</ele><time>2026-04-16T08:10:58.001Z</time></trkpt><trkpt lat="14.470517924334798" lon="120.97220037089802"><ele>7.0</ele><time>2026-04-16T08:10:59.001Z</time></trkpt><trkpt lat="14.470556553486214" lon="120.97226107832206"><ele>7.0</ele><time>2026-04-16T08:11:00.001Z</time></trkpt><trkpt lat="14.470590769717411" lon="120.97231727860041"><ele>7.0</ele><time>2026-04-16T08:11:01.001Z</time></trkpt><trkpt lat="14.470659244103288" lon="120.97243729863474"><ele>7.000000000000001</ele><time>2026-04-16T08:11:03.001Z</time></trkpt><trkpt lat="14.470689715578839" lon="120.97249644718521"><ele>7.0</ele><time>2026-04-16T08:11:04.001Z</time></trkpt><trkpt lat="14.470732945516536" lon="120.9725640741513"><ele>7.000000000000001</ele><time>2026-04-16T08:11:05.001Z</time></trkpt><trkpt lat="14.47077379464355" lon="120.97263543157783"><ele>7.0</ele><time>2026-04-16T08:11:06.001Z</time></trkpt><trkpt lat="14.470825762002972" lon="120.97272256545295"><ele>7.0</ele><time>2026-04-16T08:11:07.001Z</time></trkpt><trkpt lat="14.470874151291762" lon="120.9728008304222"><ele>7.0</ele><time>2026-04-16T08:11:08.001Z</time></trkpt><trkpt lat="14.470918586671498" lon="120.97287643715106"><ele>7.000000000000001</ele><time>2026-04-16T08:11:09.001Z</time></trkpt><trkpt lat="14.470950722389555" lon="120.9729385183082"><ele>7.0</ele><time>2026-04-16T08:11:10.001Z</time></trkpt><trkpt lat="14.470986061922002" lon="120.9730106256763"><ele>7.000000000000001</ele><time>2026-04-16T08:11:11.001Z</time></trkpt><trkpt lat="14.471022809142024" lon="120.97307775241228"><ele>7.0</ele><time>2026-04-16T08:11:12.001Z</time></trkpt><trkpt lat="14.471060244779435" lon="120.97315081634747"><ele>7.0</ele><time>2026-04-16T08:11:13.001Z</time></trkpt><trkpt lat="14.47110301739669" lon="120.97322854177659"><ele>7.0</ele><time>2026-04-16T08:11:14.001Z</time></trkpt><trkpt lat="14.471141062749048" lon="120.97330672488698"><ele>7.000000000000001</ele><time>2026-04-16T08:11:15.001Z</time></trkpt><trkpt lat="14.471184082276025" lon="120.97339246890454"><ele>7.0</ele><time>2026-04-16T08:11:16.001Z</time></trkpt><trkpt lat="14.471225602330822" lon="120.97347666371523"><ele>6.8</ele><time>2026-04-16T08:11:17.001Z</time></trkpt><trkpt lat="14.47129534511536" lon="120.9736103430488"><ele>6.6</ele><time>2026-04-16T08:11:19.001Z</time></trkpt><trkpt lat="14.471327199792666" lon="120.97366972291569"><ele>6.3999999999999995</ele><time>2026-04-16T08:11:20.001Z</time></trkpt><trkpt lat="14.47138004817345" lon="120.97377977169764"><ele>6.199999999999999</ele><time>2026-04-16T08:11:22.001Z</time></trkpt><trkpt lat="14.47142944988551" lon="120.97387325477169"><ele>6.0</ele><time>2026-04-16T08:11:24.001Z</time></trkpt><trkpt lat="14.47147749366166" lon="120.97396564736263"><ele>6.0</ele><time>2026-04-16T08:11:26.001Z</time></trkpt><trkpt lat="14.471504447696626" lon="120.9740279069787"><ele>6.0</ele><time>2026-04-16T08:11:27.001Z</time></trkpt><trkpt lat="14.471537260304991" lon="120.97409728900436"><ele>6.0</ele><time>2026-04-16T08:11:28.001Z</time></trkpt><trkpt lat="14.471576839989972" lon="120.97418865207386"><ele>6.0</ele><time>2026-04-16T08:11:29.001Z</time></trkpt><trkpt lat="14.47162346324582" lon="120.97427796534559"><ele>6.0</ele><time>2026-04-16T08:11:30.001Z</time></trkpt><trkpt lat="14.471682317898912" lon="120.97437372449824"><ele>6.0</ele><time>2026-04-16T08:11:31.001Z</time></trkpt><trkpt lat="14.471744834815114" lon="120.9744809288982"><ele>6.199999999999999</ele><time>2026-04-16T08:11:32.001Z</time></trkpt><trkpt lat="14.471798050935222" lon="120.97457832339035"><ele>6.3999999999999995</ele><time>2026-04-16T08:11:33.001Z</time></trkpt><trkpt lat="14.471847542832732" lon="120.9746720058261"><ele>6.6</ele><time>2026-04-16T08:11:34.001Z</time></trkpt><trkpt lat="14.471888020266151" lon="120.97474566587934"><ele>6.8</ele><time>2026-04-16T08:11:35.001Z</time></trkpt><trkpt lat="14.471934515457527" lon="120.97481950403129"><ele>7.0</ele><time>2026-04-16T08:11:36.001Z</time></trkpt><trkpt lat="14.471979093307851" lon="120.97489088341909"><ele>7.0</ele><time>2026-04-16T08:11:37.001Z</time></trkpt><trkpt lat="14.472018856962002" lon="120.97496336239183"><ele>6.999999999999999</ele><time>2026-04-16T08:11:38.001Z</time></trkpt><trkpt lat="14.472117207598401" lon="120.97511771345825"><ele>6.999999999999999</ele><time>2026-04-16T08:11:40.001Z</time></trkpt><trkpt lat="14.472169587951052" lon="120.97519919049144"><ele>7.0</ele><time>2026-04-16T08:11:41.001Z</time></trkpt><trkpt lat="14.472221037581196" lon="120.97527647450978"><ele>7.0</ele><time>2026-04-16T08:11:42.001Z</time></trkpt><trkpt lat="14.472274482505252" lon="120.97535800102622"><ele>7.000000000000001</ele><time>2026-04-16T08:11:43.001Z</time></trkpt><trkpt lat="14.47232434806765" lon="120.97542462487066"><ele>7.0</ele><time>2026-04-16T08:11:44.001Z</time></trkpt><trkpt lat="14.472379160698571" lon="120.97550153523387"><ele>7.0</ele><time>2026-04-16T08:11:45.001Z</time></trkpt><trkpt lat="14.472431576104102" lon="120.97557633548266"><ele>7.0</ele><time>2026-04-16T08:11:46.001Z</time></trkpt><trkpt lat="14.472487317581917" lon="120.97565001715851"><ele>7.000000000000001</ele><time>2026-04-16T08:11:47.001Z</time></trkpt><trkpt lat="14.472541756811909" lon="120.97571977972365"><ele>7.0</ele><time>2026-04-16T08:11:48.001Z</time></trkpt><trkpt lat="14.472602419159726" lon="120.97578865532817"><ele>7.166666666666667</ele><time>2026-04-16T08:11:49.001Z</time></trkpt><trkpt lat="14.472662844836718" lon="120.97586274462228"><ele>7.333333333333334</ele><time>2026-04-16T08:11:50.001Z</time></trkpt><trkpt lat="14.472721707501309" lon="120.97593568871116"><ele>7.5</ele><time>2026-04-16T08:11:51.001Z</time></trkpt><trkpt lat="14.472775260669977" lon="120.97600746699746"><ele>7.666666666666666</ele><time>2026-04-16T08:11:52.001Z</time></trkpt><trkpt lat="14.472826790152133" lon="120.97607188285299"><ele>7.833333333333333</ele><time>2026-04-16T08:11:53.001Z</time></trkpt><trkpt lat="14.472875966703938" lon="120.97613257587516"><ele>8.0</ele><time>2026-04-16T08:11:54.001Z</time></trkpt><trkpt lat="14.472916611248715" lon="120.97618681698123"><ele>7.800000000000001</ele><time>2026-04-16T08:11:55.001Z</time></trkpt><trkpt lat="14.472961683801493" lon="120.97624380999606"><ele>7.6000000000000005</ele><time>2026-04-16T08:11:56.001Z</time></trkpt><trkpt lat="14.473029519898406" lon="120.97632822437616"><ele>7.3999999999999995</ele><time>2026-04-16T08:11:58.001Z</time></trkpt><trkpt lat="14.473075785268518" lon="120.97639257802501"><ele>7.199999999999999</ele><time>2026-04-16T08:12:01.001Z</time></trkpt><trkpt lat="14.473164106321276" lon="120.97651259006032"><ele>7.0</ele><time>2026-04-16T08:12:06.001Z</time></trkpt><trkpt lat="14.473218629889264" lon="120.97657972277386"><ele>7.000000000000001</ele><time>2026-04-16T08:12:08.001Z</time></trkpt><trkpt lat="14.473269604723301" lon="120.97665430424624"><ele>7.0</ele><time>2026-04-16T08:12:10.001Z</time></trkpt><trkpt lat="14.473333124059168" lon="120.97674888969284"><ele>7.0</ele><time>2026-04-16T08:12:12.001Z</time></trkpt><trkpt lat="14.47337348011482" lon="120.97680412675244"><ele>7.0</ele><time>2026-04-16T08:12:13.001Z</time></trkpt><trkpt lat="14.47341311410963" lon="120.97686347556528"><ele>7.000000000000001</ele><time>2026-04-16T08:12:14.001Z</time></trkpt><trkpt lat="14.473449674431954" lon="120.9769210077347"><ele>7.0</ele><time>2026-04-16T08:12:15.001Z</time></trkpt><trkpt lat="14.473521078125966" lon="120.97701592013267"><ele>6.8</ele><time>2026-04-16T08:12:17.001Z</time></trkpt><trkpt lat="14.473571714007935" lon="120.97710073787087"><ele>6.6</ele><time>2026-04-16T08:12:19.002Z</time></trkpt><trkpt lat="14.473616612481432" lon="120.97717816322395"><ele>6.3999999999999995</ele><time>2026-04-16T08:12:21.002Z</time></trkpt><trkpt lat="14.473660103290882" lon="120.97726367919996"><ele>6.199999999999999</ele><time>2026-04-16T08:12:23.002Z</time></trkpt><trkpt lat="14.473736039138712" lon="120.97739600377078"><ele>6.0</ele><time>2026-04-16T08:12:30.002Z</time></trkpt><trkpt lat="14.47377028311258" lon="120.9774727245551"><ele>6.0</ele><time>2026-04-16T08:12:32.002Z</time></trkpt><trkpt lat="14.473798340786294" lon="120.9775395903997"><ele>6.0</ele><time>2026-04-16T08:12:35Z</time></trkpt><trkpt lat="14.47383942827779" lon="120.97759488424825"><ele>6.0</ele><time>2026-04-16T08:12:38Z</time></trkpt><trkpt lat="14.473892102579013" lon="120.97768073585593"><ele>6.0</ele><time>2026-04-16T08:12:41Z</time></trkpt><trkpt lat="14.473946130430278" lon="120.97777265835335"><ele>6.0</ele><time>2026-04-16T08:12:43Z</time></trkpt><trkpt lat="14.473989551041617" lon="120.97786984868821"><ele>6.0</ele><time>2026-04-16T08:12:45Z</time></trkpt><trkpt lat="14.473982134639595" lon="120.97813235195656"><ele>6.0</ele><time>2026-04-16T08:12:49Z</time></trkpt><trkpt lat="14.473953059810691" lon="120.97820527060381"><ele>6.0</ele><time>2026-04-16T08:12:50Z</time></trkpt><trkpt lat="14.47392119217954" lon="120.9782885736552"><ele>6.0</ele><time>2026-04-16T08:12:51Z</time></trkpt><trkpt lat="14.47388814390623" lon="120.97837327187388"><ele>6.0</ele><time>2026-04-16T08:12:52Z</time></trkpt><trkpt lat="14.473849202827369" lon="120.97846654870217"><ele>6.0</ele><time>2026-04-16T08:12:53Z</time></trkpt><trkpt lat="14.473811596521497" lon="120.97855169692438"><ele>6.0</ele><time>2026-04-16T08:12:54Z</time></trkpt><trkpt lat="14.473784112572991" lon="120.9786131772192"><ele>6.5</ele><time>2026-04-16T08:12:55Z</time></trkpt><trkpt lat="14.473739140941575" lon="120.97872715105969"><ele>7.0</ele><time>2026-04-16T08:12:57Z</time></trkpt><trkpt lat="14.47372638022677" lon="120.97879319027902"><ele>7.5</ele><time>2026-04-16T08:12:58Z</time></trkpt><trkpt lat="14.473720308596103" lon="120.97887262922046"><ele>8.0</ele><time>2026-04-16T08:12:59Z</time></trkpt><trkpt lat="14.473719463649788" lon="120.97896552279018"><ele>8.5</ele><time>2026-04-16T08:13:00Z</time></trkpt><trkpt lat="14.473717234608527" lon="120.97906113017584"><ele>9.0</ele><time>2026-04-16T08:13:01Z</time></trkpt><trkpt lat="14.473730548895318" lon="120.97917151034127"><ele>8.25</ele><time>2026-04-16T08:13:02Z</time></trkpt><trkpt lat="14.473741274508601" lon="120.97927982953675"><ele>7.5</ele><time>2026-04-16T08:13:03Z</time></trkpt><trkpt lat="14.473753333110782" lon="120.9793999307734"><ele>6.75</ele><time>2026-04-16T08:13:04Z</time></trkpt><trkpt lat="14.473766020718113" lon="120.97951915105514"><ele>6.0</ele><time>2026-04-16T08:13:05Z</time></trkpt><trkpt lat="14.473779889598276" lon="120.97963995070592"><ele>6.0</ele><time>2026-04-16T08:13:06Z</time></trkpt><trkpt lat="14.473807626305431" lon="120.97985969368837"><ele>6.0</ele><time>2026-04-16T08:13:08Z</time></trkpt><trkpt lat="14.47383439319608" lon="120.97996419386065"><ele>6.0</ele><time>2026-04-16T08:13:09.001Z</time></trkpt><trkpt lat="14.473851066791065" lon="120.98007923104616"><ele>6.0</ele><time>2026-04-16T08:13:10.001Z</time></trkpt><trkpt lat="14.47388165150803" lon="120.98019513820928"><ele>5.75</ele><time>2026-04-16T08:13:11.001Z</time></trkpt><trkpt lat="14.473923573902677" lon="120.98031111461135"><ele>5.5</ele><time>2026-04-16T08:13:12.001Z</time></trkpt><trkpt lat="14.473985227920753" lon="120.98042640687679"><ele>5.25</ele><time>2026-04-16T08:13:13.001Z</time></trkpt><trkpt lat="14.47405505844491" lon="120.98053634767744"><ele>5.0</ele><time>2026-04-16T08:13:14.001Z</time></trkpt><trkpt lat="14.47412836619364" lon="120.98065693838969"><ele>5.0</ele><time>2026-04-16T08:13:15.001Z</time></trkpt><trkpt lat="14.474200817026116" lon="120.98078114133564"><ele>5.0</ele><time>2026-04-16T08:13:16.001Z</time></trkpt><trkpt lat="14.474275353744028" lon="120.98090737843192"><ele>5.0</ele><time>2026-04-16T08:13:17.001Z</time></trkpt><trkpt lat="14.47435702574419" lon="120.98103359879485"><ele>5.0</ele><time>2026-04-16T08:13:18.001Z</time></trkpt><trkpt lat="14.474446779248563" lon="120.9811619760379"><ele>6.0</ele><time>2026-04-16T08:13:19.001Z</time></trkpt><trkpt lat="14.474542796878133" lon="120.98128399273818"><ele>7.0</ele><time>2026-04-16T08:13:20.001Z</time></trkpt><trkpt lat="14.47464558737715" lon="120.98140328325486"><ele>8.0</ele><time>2026-04-16T08:13:21.001Z</time></trkpt><trkpt lat="14.474746076969554" lon="120.9815131361922"><ele>8.0</ele><time>2026-04-16T08:13:22.001Z</time></trkpt><trkpt lat="14.474845949746308" lon="120.98162002678997"><ele>8.0</ele><time>2026-04-16T08:13:23.001Z</time></trkpt><trkpt lat="14.47494939951819" lon="120.98172162638151"><ele>8.0</ele><time>2026-04-16T08:13:24.001Z</time></trkpt><trkpt lat="14.475051608365563" lon="120.9818216799259"><ele>8.0</ele><time>2026-04-16T08:13:25.001Z</time></trkpt><trkpt lat="14.475152362081587" lon="120.98192453306706"><ele>8.0</ele><time>2026-04-16T08:13:26.001Z</time></trkpt><trkpt lat="14.475254131716348" lon="120.98203237394308"><ele>8.0</ele><time>2026-04-16T08:13:27.001Z</time></trkpt><trkpt lat="14.475467225074148" lon="120.98224952468233"><ele>8.0</ele><time>2026-04-16T08:13:29.001Z</time></trkpt><trkpt lat="14.475564804922149" lon="120.98235099298249"><ele>8.0</ele><time>2026-04-16T08:13:30.001Z</time></trkpt><trkpt lat="14.475661914192871" lon="120.98245346665097"><ele>8.0</ele><time>2026-04-16T08:13:31.001Z</time></trkpt><trkpt lat="14.475762668764778" lon="120.98255672675353"><ele>8.0</ele><time>2026-04-16T08:13:32.001Z</time></trkpt><trkpt lat="14.475860523705466" lon="120.98265491526043"><ele>8.0</ele><time>2026-04-16T08:13:33.001Z</time></trkpt><trkpt lat="14.4759515984287" lon="120.98274861098317"><ele>7.75</ele><time>2026-04-16T08:13:34.001Z</time></trkpt><trkpt lat="14.476039460114995" lon="120.98284033343018"><ele>7.5</ele><time>2026-04-16T08:13:35.001Z</time></trkpt><trkpt lat="14.476133675800593" lon="120.98293074097664"><ele>7.25</ele><time>2026-04-16T08:13:36.001Z</time></trkpt><trkpt lat="14.476227354485587" lon="120.98302433041574"><ele>7.0</ele><time>2026-04-16T08:13:37.001Z</time></trkpt><trkpt lat="14.476313111809874" lon="120.98311291524419"><ele>7.0</ele><time>2026-04-16T08:13:38.001Z</time></trkpt><trkpt lat="14.476401471671643" lon="120.98320104182004"><ele>7.0</ele><time>2026-04-16T08:13:39.001Z</time></trkpt><trkpt lat="14.476483070143898" lon="120.9832875195271"><ele>7.0</ele><time>2026-04-16T08:13:40.001Z</time></trkpt><trkpt lat="14.476563924000672" lon="120.9833695041617"><ele>7.0</ele><time>2026-04-16T08:13:41.001Z</time></trkpt><trkpt lat="14.476641389376493" lon="120.9834518319574"><ele>7.3999999999999995</ele><time>2026-04-16T08:13:42.001Z</time></trkpt><trkpt lat="14.47671079740345" lon="120.98352552392221"><ele>7.799999999999999</ele><time>2026-04-16T08:13:43.001Z</time></trkpt><trkpt lat="14.47677555197565" lon="120.98359606575362"><ele>8.2</ele><time>2026-04-16T08:13:44.001Z</time></trkpt><trkpt lat="14.476844902810784" lon="120.98366404796374"><ele>8.6</ele><time>2026-04-16T08:13:45.001Z</time></trkpt><trkpt lat="14.476921503962812" lon="120.98373854023889"><ele>9.0</ele><time>2026-04-16T08:13:46.001Z</time></trkpt><trkpt lat="14.47699985271221" lon="120.98381655593526"><ele>9.0</ele><time>2026-04-16T08:13:47.001Z</time></trkpt><trkpt lat="14.477091085338468" lon="120.98390932936414"><ele>9.0</ele><time>2026-04-16T08:13:48.001Z</time></trkpt><trkpt lat="14.47727351084212" lon="120.98409994120567"><ele>9.0</ele><time>2026-04-16T08:13:50.001Z</time></trkpt><trkpt lat="14.477378119276732" lon="120.98420136113455"><ele>7.25</ele><time>2026-04-16T08:13:51.001Z</time></trkpt><trkpt lat="14.477480175554675" lon="120.98430070554025"><ele>5.5</ele><time>2026-04-16T08:13:52.001Z</time></trkpt><trkpt lat="14.477584695203063" lon="120.98440267375001"><ele>3.75</ele><time>2026-04-16T08:13:53.001Z</time></trkpt><trkpt lat="14.477689888049548" lon="120.98450717055621"><ele>2.0</ele><time>2026-04-16T08:13:54.001Z</time></trkpt><trkpt lat="14.477795523027376" lon="120.984612204318"><ele>2.0</ele><time>2026-04-16T08:13:55.001Z</time></trkpt><trkpt lat="14.4779038274641" lon="120.98471804051657"><ele>2.0</ele><time>2026-04-16T08:13:56.001Z</time></trkpt><trkpt lat="14.47801231374785" lon="120.98481960631423"><ele>2.0</ele><time>2026-04-16T08:13:57.001Z</time></trkpt><trkpt lat="14.478112917781866" lon="120.98492538192998"><ele>2.0</ele><time>2026-04-16T08:13:58.001Z</time></trkpt><trkpt lat="14.478214446432144" lon="120.9850305933472"><ele>4.25</ele><time>2026-04-16T08:13:59.001Z</time></trkpt><trkpt lat="14.478316588272412" lon="120.98513837681904"><ele>6.5</ele><time>2026-04-16T08:14:00.001Z</time></trkpt><trkpt lat="14.478422589647911" lon="120.98524649973848"><ele>8.75</ele><time>2026-04-16T08:14:01.001Z</time></trkpt><trkpt lat="14.47852371825794" lon="120.98535559538934"><ele>11.0</ele><time>2026-04-16T08:14:02.001Z</time></trkpt><trkpt lat="14.478623417897316" lon="120.98545696333856"><ele>11.0</ele><time>2026-04-16T08:14:03.001Z</time></trkpt><trkpt lat="14.478710474967615" lon="120.98554701232264"><ele>11.0</ele><time>2026-04-16T08:14:04.001Z</time></trkpt><trkpt lat="14.47878668371231" lon="120.98563027068256"><ele>11.0</ele><time>2026-04-16T08:14:05.001Z</time></trkpt><trkpt lat="14.478847958735276" lon="120.98569744225759"><ele>11.0</ele><time>2026-04-16T08:14:06.001Z</time></trkpt><trkpt lat="14.478908819905149" lon="120.98576299375226"><ele>11.0</ele><time>2026-04-16T08:14:07.001Z</time></trkpt><trkpt lat="14.47897084537689" lon="120.98582939947525"><ele>8.75</ele><time>2026-04-16T08:14:08.001Z</time></trkpt><trkpt lat="14.47904119105628" lon="120.98589642030078"><ele>6.5</ele><time>2026-04-16T08:14:09.001Z</time></trkpt><trkpt lat="14.479183999004503" lon="120.9860376610126"><ele>4.25</ele><time>2026-04-16T08:14:11.001Z</time></trkpt><trkpt lat="14.479253909339162" lon="120.98611716564183"><ele>2.0</ele><time>2026-04-16T08:14:12.001Z</time></trkpt><trkpt lat="14.479330997560487" lon="120.98619864094776"><ele>2.0</ele><time>2026-04-16T08:14:13.001Z</time></trkpt><trkpt lat="14.479407720279216" lon="120.98627644742142"><ele>2.0</ele><time>2026-04-16T08:14:14.001Z</time></trkpt><trkpt lat="14.479493867263" lon="120.9863632274767"><ele>2.0</ele><time>2026-04-16T08:14:15.001Z</time></trkpt><trkpt lat="14.479579546375566" lon="120.98645250901556"><ele>2.0</ele><time>2026-04-16T08:14:16.001Z</time></trkpt><trkpt lat="14.47966510332491" lon="120.98654903365235"><ele>2.0</ele><time>2026-04-16T08:14:17.001Z</time></trkpt><trkpt lat="14.479757155034006" lon="120.98664846350756"><ele>2.0</ele><time>2026-04-16T08:14:18.001Z</time></trkpt><trkpt lat="14.479857869327468" lon="120.98675330153159"><ele>2.0</ele><time>2026-04-16T08:14:19.001Z</time></trkpt><trkpt lat="14.479959821889087" lon="120.9868583012069"><ele>2.0</ele><time>2026-04-16T08:14:20.001Z</time></trkpt><trkpt lat="14.480062093416151" lon="120.9869661764415"><ele>1.75</ele><time>2026-04-16T08:14:21.001Z</time></trkpt><trkpt lat="14.480164511442043" lon="120.9870711694117"><ele>1.5</ele><time>2026-04-16T08:14:22.001Z</time></trkpt><trkpt lat="14.480271897282485" lon="120.98717996232378"><ele>1.25</ele><time>2026-04-16T08:14:23.001Z</time></trkpt><trkpt lat="14.480377130588701" lon="120.9872799171144"><ele>1.0</ele><time>2026-04-16T08:14:24.001Z</time></trkpt><trkpt lat="14.480486866134745" lon="120.98736278487091"><ele>1.0</ele><time>2026-04-16T08:14:25.001Z</time></trkpt><trkpt lat="14.48060260147401" lon="120.9874362856592"><ele>1.0</ele><time>2026-04-16T08:14:26.001Z</time></trkpt><trkpt lat="14.480725016434485" lon="120.98749941587914"><ele>1.0</ele><time>2026-04-16T08:14:27.001Z</time></trkpt><trkpt lat="14.48085058702525" lon="120.98755744251537"><ele>1.0</ele><time>2026-04-16T08:14:28.001Z</time></trkpt><trkpt lat="14.480979674299112" lon="120.98760624675798"><ele>1.6666666666666665</ele><time>2026-04-16T08:14:29.001Z</time></trkpt><trkpt lat="14.481100936450538" lon="120.9876615092894"><ele>2.3333333333333335</ele><time>2026-04-16T08:14:30.001Z</time></trkpt><trkpt lat="14.48134000602653" lon="120.98779019631945"><ele>3.0</ele><time>2026-04-16T08:14:32.001Z</time></trkpt><trkpt lat="14.481467638718103" lon="120.98785056810317"><ele>1.25</ele><time>2026-04-16T08:14:33.001Z</time></trkpt><trkpt lat="14.481597955869628" lon="120.98791573439253"><ele>-0.5</ele><time>2026-04-16T08:14:34.001Z</time></trkpt><trkpt lat="14.481727698242452" lon="120.98798209392851"><ele>-2.25</ele><time>2026-04-16T08:14:35.001Z</time></trkpt><trkpt lat="14.481857777282103" lon="120.98804682905734"><ele>-4.0</ele><time>2026-04-16T08:14:36.001Z</time></trkpt><trkpt lat="14.481991642549222" lon="120.98811075778195"><ele>-2.5</ele><time>2026-04-16T08:14:37.001Z</time></trkpt><trkpt lat="14.482123374361343" lon="120.98817416060017"><ele>-1.0</ele><time>2026-04-16T08:14:38.001Z</time></trkpt><trkpt lat="14.482255178586318" lon="120.98823819931786"><ele>0.5</ele><time>2026-04-16T08:14:39.001Z</time></trkpt><trkpt lat="14.482382317815636" lon="120.98830184497875"><ele>2.0</ele><time>2026-04-16T08:14:40Z</time></trkpt><trkpt lat="14.482499580846271" lon="120.98836297300595"><ele>2.25</ele><time>2026-04-16T08:14:41Z</time></trkpt><trkpt lat="14.482611393189472" lon="120.98842308195526"><ele>2.5</ele><time>2026-04-16T08:14:42Z</time></trkpt><trkpt lat="14.482720737837115" lon="120.98849126668772"><ele>2.75</ele><time>2026-04-16T08:14:43Z</time></trkpt><trkpt lat="14.482808369113467" lon="120.98856445234591"><ele>3.0</ele><time>2026-04-16T08:14:44Z</time></trkpt><trkpt lat="14.48289047344253" lon="120.98865954353224"><ele>3.2</ele><time>2026-04-16T08:14:45Z</time></trkpt><trkpt lat="14.482949285594845" lon="120.98875816561772"><ele>3.4</ele><time>2026-04-16T08:14:46Z</time></trkpt><trkpt lat="14.483004105317477" lon="120.98885856027577"><ele>3.6000000000000005</ele><time>2026-04-16T08:14:47Z</time></trkpt><trkpt lat="14.483047602599047" lon="120.98895430280801"><ele>3.8000000000000003</ele><time>2026-04-16T08:14:48Z</time></trkpt><trkpt lat="14.483092036549708" lon="120.98904624572273"><ele>4.0</ele><time>2026-04-16T08:14:49Z</time></trkpt><trkpt lat="14.483145496076926" lon="120.98915041679007"><ele>3.6666666666666665</ele><time>2026-04-16T08:14:50Z</time></trkpt><trkpt lat="14.483203743793576" lon="120.9892674969325"><ele>3.333333333333333</ele><time>2026-04-16T08:14:51Z</time></trkpt><trkpt lat="14.48331201354135" lon="120.98948435918821"><ele>3.0</ele><time>2026-04-16T08:14:53Z</time></trkpt><trkpt lat="14.48337698596948" lon="120.98959973367327"><ele>3.0</ele><time>2026-04-16T08:14:54Z</time></trkpt><trkpt lat="14.483428742133768" lon="120.989707922305"><ele>3.0</ele><time>2026-04-16T08:14:55Z</time></trkpt><trkpt lat="14.483467395690289" lon="120.98981297453139"><ele>3.0</ele><time>2026-04-16T08:14:56Z</time></trkpt><trkpt lat="14.483502763379768" lon="120.98993351470799"><ele>3.0</ele><time>2026-04-16T08:14:57Z</time></trkpt><trkpt lat="14.48349915265194" lon="120.99004607590939"><ele>4.0</ele><time>2026-04-16T08:14:58Z</time></trkpt><trkpt lat="14.4834865195401" lon="120.99016508457291"><ele>5.0</ele><time>2026-04-16T08:14:59Z</time></trkpt><trkpt lat="14.483446736306538" lon="120.99028584816237"><ele>6.0</ele><time>2026-04-16T08:15:00Z</time></trkpt><trkpt lat="14.483393986637715" lon="120.9904004981222"><ele>7.0</ele><time>2026-04-16T08:15:01Z</time></trkpt><trkpt lat="14.48333957526284" lon="120.99050877291833"><ele>7.0</ele><time>2026-04-16T08:15:02Z</time></trkpt><trkpt lat="14.483295461036175" lon="120.99064025126142"><ele>7.0</ele><time>2026-04-16T08:15:03Z</time></trkpt><trkpt lat="14.483251285934749" lon="120.99075922152495"><ele>7.0</ele><time>2026-04-16T08:15:04Z</time></trkpt><trkpt lat="14.483215249659407" lon="120.99088790467346"><ele>7.0</ele><time>2026-04-16T08:15:05Z</time></trkpt><trkpt lat="14.483181879706926" lon="120.99101985737114"><ele>7.0</ele><time>2026-04-16T08:15:06Z</time></trkpt><trkpt lat="14.483162098625902" lon="120.99114650821166"><ele>7.0</ele><time>2026-04-16T08:15:07Z</time></trkpt><trkpt lat="14.483154932986798" lon="120.99126377885985"><ele>7.0</ele><time>2026-04-16T08:15:08Z</time></trkpt><trkpt lat="14.483168803164391" lon="120.99139338623043"><ele>7.0</ele><time>2026-04-16T08:15:09Z</time></trkpt><trkpt lat="14.483193804238875" lon="120.99151708372538"><ele>7.0</ele><time>2026-04-16T08:15:10Z</time></trkpt><trkpt lat="14.483233045221501" lon="120.99164321686916"><ele>7.0</ele><time>2026-04-16T08:15:11Z</time></trkpt><trkpt lat="14.483272108428501" lon="120.99176403713273"><ele>7.0</ele><time>2026-04-16T08:15:12Z</time></trkpt><trkpt lat="14.48335542577296" lon="120.99199035659738"><ele>6.166666666666667</ele><time>2026-04-16T08:15:14Z</time></trkpt><trkpt lat="14.483386448973086" lon="120.99208358295719"><ele>5.333333333333334</ele><time>2026-04-16T08:15:15Z</time></trkpt><trkpt lat="14.4834143629958" lon="120.99217013919564"><ele>4.5</ele><time>2026-04-16T08:15:16Z</time></trkpt><trkpt lat="14.483442621572525" lon="120.9922435195231"><ele>3.666666666666667</ele><time>2026-04-16T08:15:17.001Z</time></trkpt><trkpt lat="14.483466570786687" lon="120.99230847129681"><ele>2.833333333333333</ele><time>2026-04-16T08:15:18.001Z</time></trkpt><trkpt lat="14.483517871703015" lon="120.99241175254167"><ele>2.0</ele><time>2026-04-16T08:15:20.001Z</time></trkpt><trkpt lat="14.483572536515192" lon="120.99247525157892"><ele>2.6666666666666665</ele><time>2026-04-16T08:15:21.001Z</time></trkpt><trkpt lat="14.483644456979066" lon="120.99252381641394"><ele>3.333333333333333</ele><time>2026-04-16T08:15:22.001Z</time></trkpt><trkpt lat="14.48371826433645" lon="120.99257277745448"><ele>4.0</ele><time>2026-04-16T08:15:23.001Z</time></trkpt><trkpt lat="14.483801076138885" lon="120.99262628305243"><ele>4.666666666666667</ele><time>2026-04-16T08:15:24.001Z</time></trkpt><trkpt lat="14.483879478460809" lon="120.99267865585003"><ele>5.333333333333333</ele><time>2026-04-16T08:15:25.001Z</time></trkpt><trkpt lat="14.483947334513763" lon="120.99272796246271"><ele>6.0</ele><time>2026-04-16T08:15:26.001Z</time></trkpt><trkpt lat="14.484013039589444" lon="120.99277335106301"><ele>6.0</ele><time>2026-04-16T08:15:27.001Z</time></trkpt><trkpt lat="14.484080585110704" lon="120.99281974469277"><ele>6.0</ele><time>2026-04-16T08:15:28.001Z</time></trkpt><trkpt lat="14.484144780810395" lon="120.99285909597648"><ele>6.0</ele><time>2026-04-16T08:15:29.001Z</time></trkpt><trkpt lat="14.484234532049811" lon="120.99292222654303"><ele>6.0</ele><time>2026-04-16T08:15:31.001Z</time></trkpt><trkpt lat="14.484293704578944" lon="120.9929528003105"><ele>6.0</ele><time>2026-04-16T08:15:33.001Z</time></trkpt><trkpt lat="14.484414805577932" lon="120.99303543077073"><ele>6.0</ele><time>2026-04-16T08:15:44.001Z</time></trkpt><trkpt lat="14.484469936265096" lon="120.99306704766845"><ele>6.0</ele><time>2026-04-16T08:15:51.001Z</time></trkpt><trkpt lat="14.484532489694228" lon="120.9931047530142"><ele>6.0</ele><time>2026-04-16T08:16:12.001Z</time></trkpt><trkpt lat="14.4847361622892" lon="120.99323262843133"><ele>6.0</ele><time>2026-04-16T08:17:49.001Z</time></trkpt><trkpt lat="14.484802675232556" lon="120.99320347612458"><ele>6.0</ele><time>2026-04-16T08:17:51.001Z</time></trkpt><trkpt lat="14.484866262313318" lon="120.9931389488451"><ele>6.199999999999999</ele><time>2026-04-16T08:17:53.001Z</time></trkpt><trkpt lat="14.484938097445102" lon="120.99308307441478"><ele>6.3999999999999995</ele><time>2026-04-16T08:17:55.001Z</time></trkpt><trkpt lat="14.484987040183215" lon="120.99297141530342"><ele>6.6</ele><time>2026-04-16T08:17:57.001Z</time></trkpt><trkpt lat="14.485003733332421" lon="120.99288971245845"><ele>6.8</ele><time>2026-04-16T08:17:58.001Z</time></trkpt><trkpt lat="14.485014930976154" lon="120.9928034872322"><ele>7.0</ele><time>2026-04-16T08:17:59.001Z</time></trkpt><trkpt lat="14.48503051520936" lon="120.99271649867755"><ele>7.0</ele><time>2026-04-16T08:18:00.001Z</time></trkpt><trkpt lat="14.485052385787547" lon="120.99262088270497"><ele>6.999999999999999</ele><time>2026-04-16T08:18:01.001Z</time></trkpt><trkpt lat="14.485081473378166" lon="120.99251238952924"><ele>6.999999999999999</ele><time>2026-04-16T08:18:02.001Z</time></trkpt><trkpt lat="14.48512023234588" lon="120.99240948525343"><ele>7.0</ele><time>2026-04-16T08:18:03.001Z</time></trkpt><trkpt lat="14.48516472265683" lon="120.99230498672097"><ele>7.0</ele><time>2026-04-16T08:18:04.001Z</time></trkpt><trkpt lat="14.485219251483043" lon="120.99220770279916"><ele>7.0</ele><time>2026-04-16T08:18:05.001Z</time></trkpt><trkpt lat="14.485335106540294" lon="120.99203702677859"><ele>7.0</ele><time>2026-04-16T08:18:07.001Z</time></trkpt><trkpt lat="14.485394997773302" lon="120.99195454004403"><ele>7.0</ele><time>2026-04-16T08:18:08.001Z</time></trkpt><trkpt lat="14.485453881798128" lon="120.99188543323505"><ele>7.0</ele><time>2026-04-16T08:18:09.001Z</time></trkpt><trkpt lat="14.485521475337931" lon="120.99181108357733"><ele>7.000000000000001</ele><time>2026-04-16T08:18:10.001Z</time></trkpt><trkpt lat="14.485583261227049" lon="120.99174870817157"><ele>7.0</ele><time>2026-04-16T08:18:11.001Z</time></trkpt><trkpt lat="14.4856445140862" lon="120.99169807669435"><ele>7.0</ele><time>2026-04-16T08:18:12.001Z</time></trkpt><trkpt lat="14.485712186306152" lon="120.99164544636871"><ele>7.0</ele><time>2026-04-16T08:18:13.001Z</time></trkpt><trkpt lat="14.485775970074913" lon="120.99158881464665"><ele>7.000000000000001</ele><time>2026-04-16T08:18:14.001Z</time></trkpt><trkpt lat="14.485839053677232" lon="120.99154902592834"><ele>7.0</ele><time>2026-04-16T08:18:15.001Z</time></trkpt><trkpt lat="14.4859177092829" lon="120.9915089792196"><ele>7.199999999999999</ele><time>2026-04-16T08:18:16.001Z</time></trkpt><trkpt lat="14.486011262268484" lon="120.99145870007949"><ele>7.3999999999999995</ele><time>2026-04-16T08:18:17.001Z</time></trkpt><trkpt lat="14.486107181805254" lon="120.9914050314574"><ele>7.6000000000000005</ele><time>2026-04-16T08:18:18.001Z</time></trkpt><trkpt lat="14.486203116734345" lon="120.99137292700944"><ele>7.800000000000001</ele><time>2026-04-16T08:18:19.001Z</time></trkpt><trkpt lat="14.486301905904543" lon="120.99134282271932"><ele>8.0</ele><time>2026-04-16T08:18:20.001Z</time></trkpt><trkpt lat="14.486402921986244" lon="120.99131494957633"><ele>8.0</ele><time>2026-04-16T08:18:21.001Z</time></trkpt><trkpt lat="14.48651192747234" lon="120.99129061591142"><ele>8.0</ele><time>2026-04-16T08:18:22.001Z</time></trkpt><trkpt lat="14.486630054637509" lon="120.99127350392854"><ele>8.0</ele><time>2026-04-16T08:18:23.001Z</time></trkpt><trkpt lat="14.486746031403456" lon="120.99127472015061"><ele>8.0</ele><time>2026-04-16T08:18:24.001Z</time></trkpt><trkpt lat="14.486876297269468" lon="120.99127280557961"><ele>8.0</ele><time>2026-04-16T08:18:25.001Z</time></trkpt><trkpt lat="14.486990666088397" lon="120.99128441888078"><ele>8.0</ele><time>2026-04-16T08:18:26.001Z</time></trkpt><trkpt lat="14.487206372382339" lon="120.99131047024267"><ele>8.0</ele><time>2026-04-16T08:18:28.001Z</time></trkpt><trkpt lat="14.487307116219522" lon="120.99131973191062"><ele>8.0</ele><time>2026-04-16T08:18:29.001Z</time></trkpt><trkpt lat="14.487400182407553" lon="120.99133124814807"><ele>7.999999999999999</ele><time>2026-04-16T08:18:30.001Z</time></trkpt><trkpt lat="14.487489437796746" lon="120.99133986700082"><ele>8.0</ele><time>2026-04-16T08:18:31.001Z</time></trkpt><trkpt lat="14.487555528888096" lon="120.99135543649713"><ele>8.0</ele><time>2026-04-16T08:18:32.001Z</time></trkpt><trkpt lat="14.487641412641876" lon="120.99135163359186"><ele>8.0</ele><time>2026-04-16T08:18:33.001Z</time></trkpt><trkpt lat="14.487716355093916" lon="120.99137324282073"><ele>7.999999999999999</ele><time>2026-04-16T08:18:34.001Z</time></trkpt><trkpt lat="14.487786593561289" lon="120.99138799471578"><ele>8.0</ele><time>2026-04-16T08:18:35.001Z</time></trkpt><trkpt lat="14.487853328429365" lon="120.99139390424403"><ele>7.75</ele><time>2026-04-16T08:18:36.001Z</time></trkpt><trkpt lat="14.487952378375514" lon="120.99140455028245"><ele>7.5</ele><time>2026-04-16T08:18:38.001Z</time></trkpt><trkpt lat="14.488099291941582" lon="120.99142571099226"><ele>7.25</ele><time>2026-04-16T08:18:40.001Z</time></trkpt><trkpt lat="14.488201682076705" lon="120.99143978434864"><ele>7.0</ele><time>2026-04-16T08:18:41.001Z</time></trkpt><trkpt lat="14.488305399557857" lon="120.99145106395316"><ele>7.0</ele><time>2026-04-16T08:18:42.001Z</time></trkpt><trkpt lat="14.488421054797763" lon="120.9914673463685"><ele>7.0</ele><time>2026-04-16T08:18:43.001Z</time></trkpt><trkpt lat="14.488537609195088" lon="120.99148674189215"><ele>7.0</ele><time>2026-04-16T08:18:44.001Z</time></trkpt><trkpt lat="14.488674023177287" lon="120.99150851408238"><ele>7.0</ele><time>2026-04-16T08:18:45.001Z</time></trkpt><trkpt lat="14.488813116636424" lon="120.99153168296013"><ele>6.5</ele><time>2026-04-16T08:18:46.001Z</time></trkpt><trkpt lat="14.488968086768587" lon="120.99155298098172"><ele>6.0</ele><time>2026-04-16T08:18:47.001Z</time></trkpt><trkpt lat="14.48928137235772" lon="120.99160315200007"><ele>6.0</ele><time>2026-04-16T08:18:49.001Z</time></trkpt><trkpt lat="14.489438762574217" lon="120.99163092553586"><ele>6.0</ele><time>2026-04-16T08:18:50.001Z</time></trkpt><trkpt lat="14.489603755379733" lon="120.99165730371197"><ele>6.0</ele><time>2026-04-16T08:18:51.001Z</time></trkpt><trkpt lat="14.489770150113223" lon="120.9916822725369"><ele>5.666666666666667</ele><time>2026-04-16T08:18:52.001Z</time></trkpt><trkpt lat="14.489936800568753" lon="120.99171060428374"><ele>5.333333333333334</ele><time>2026-04-16T08:18:53.001Z</time></trkpt><trkpt lat="14.490107179192211" lon="120.99174132603756"><ele>5.0</ele><time>2026-04-16T08:18:54.001Z</time></trkpt><trkpt lat="14.490268581720915" lon="120.99176638937978"><ele>5.0</ele><time>2026-04-16T08:18:55.001Z</time></trkpt><trkpt lat="14.490425867663577" lon="120.99179147690714"><ele>5.0</ele><time>2026-04-16T08:18:56.001Z</time></trkpt><trkpt lat="14.490562549159096" lon="120.9918138489946"><ele>5.0</ele><time>2026-04-16T08:18:57.001Z</time></trkpt><trkpt lat="14.490698242754009" lon="120.9918357341989"><ele>5.0</ele><time>2026-04-16T08:18:58.001Z</time></trkpt><trkpt lat="14.490831456482946" lon="120.99185667722958"><ele>5.0</ele><time>2026-04-16T08:18:59.001Z</time></trkpt><trkpt lat="14.490970657013744" lon="120.99187482634466"><ele>5.0</ele><time>2026-04-16T08:19:00.001Z</time></trkpt><trkpt lat="14.49111888789453" lon="120.99189931915424"><ele>5.0</ele><time>2026-04-16T08:19:01.001Z</time></trkpt><trkpt lat="14.49126057746076" lon="120.99192081082627"><ele>5.0</ele><time>2026-04-16T08:19:02.001Z</time></trkpt><trkpt lat="14.491408405899662" lon="120.99194911068747"><ele>5.75</ele><time>2026-04-16T08:19:03.001Z</time></trkpt><trkpt lat="14.491543557916392" lon="120.99197665949342"><ele>6.5</ele><time>2026-04-16T08:19:04.001Z</time></trkpt><trkpt lat="14.491666669799445" lon="120.99199795739527"><ele>7.25</ele><time>2026-04-16T08:19:05.001Z</time></trkpt><trkpt lat="14.491781175048512" lon="120.99201907578858"><ele>8.0</ele><time>2026-04-16T08:19:06.001Z</time></trkpt><trkpt lat="14.491877493031986" lon="120.99203816226613"><ele>8.0</ele><time>2026-04-16T08:19:07.001Z</time></trkpt><trkpt lat="14.491944825422696" lon="120.99205271055664"><ele>8.0</ele><time>2026-04-16T08:19:08.001Z</time></trkpt><trkpt lat="14.492093288686638" lon="120.99209379350869"><ele>8.0</ele><time>2026-04-16T08:19:11.001Z</time></trkpt><trkpt lat="14.49215902338504" lon="120.99209011097736"><ele>8.0</ele><time>2026-04-16T08:19:14.001Z</time></trkpt><trkpt lat="14.49222039726881" lon="120.99210516592052"><ele>8.0</ele><time>2026-04-16T08:19:22.001Z</time></trkpt><trkpt lat="14.492328083293351" lon="120.99211512854471"><ele>7.800000000000001</ele><time>2026-04-16T08:19:24.001Z</time></trkpt><trkpt lat="14.49240669838868" lon="120.99212507536534"><ele>7.6000000000000005</ele><time>2026-04-16T08:19:25.001Z</time></trkpt><trkpt lat="14.49249624127507" lon="120.99213451887537"><ele>7.3999999999999995</ele><time>2026-04-16T08:19:26.001Z</time></trkpt><trkpt lat="14.49260023436065" lon="120.99214565964299"><ele>7.199999999999999</ele><time>2026-04-16T08:19:27.001Z</time></trkpt><trkpt lat="14.492712879505572" lon="120.99215748031263"><ele>7.0</ele><time>2026-04-16T08:19:28.001Z</time></trkpt><trkpt lat="14.492833888718097" lon="120.99217504902083"><ele>6.333333333333334</ele><time>2026-04-16T08:19:29.001Z</time></trkpt><trkpt lat="14.493094409359779" lon="120.99221749389055"><ele>5.666666666666667</ele><time>2026-04-16T08:19:31.001Z</time></trkpt><trkpt lat="14.493237889677038" lon="120.99224117252085"><ele>5.0</ele><time>2026-04-16T08:19:32.001Z</time></trkpt><trkpt lat="14.49338861134391" lon="120.99226564170736"><ele>5.0</ele><time>2026-04-16T08:19:33.001Z</time></trkpt><trkpt lat="14.493544120304842" lon="120.99229183818461"><ele>5.0</ele><time>2026-04-16T08:19:34.001Z</time></trkpt><trkpt lat="14.493703531232198" lon="120.99231615776658"><ele>5.0</ele><time>2026-04-16T08:19:35.001Z</time></trkpt><trkpt lat="14.493862574989233" lon="120.99233990801172"><ele>5.666666666666667</ele><time>2026-04-16T08:19:36.001Z</time></trkpt><trkpt lat="14.494029855209382" lon="120.99236662918321"><ele>6.333333333333334</ele><time>2026-04-16T08:19:37.001Z</time></trkpt><trkpt lat="14.494198486413406" lon="120.99239732765272"><ele>7.0</ele><time>2026-04-16T08:19:38.001Z</time></trkpt><trkpt lat="14.494364991171722" lon="120.99242641843752"><ele>7.0</ele><time>2026-04-16T08:19:39.001Z</time></trkpt><trkpt lat="14.494531095440907" lon="120.9924528067238"><ele>7.0</ele><time>2026-04-16T08:19:40.001Z</time></trkpt><trkpt lat="14.494701158526027" lon="120.99248012428512"><ele>7.0</ele><time>2026-04-16T08:19:41.001Z</time></trkpt><trkpt lat="14.494868961160961" lon="120.99250665846753"><ele>6.0</ele><time>2026-04-16T08:19:42.001Z</time></trkpt><trkpt lat="14.495040646840764" lon="120.99253483981913"><ele>5.0</ele><time>2026-04-16T08:19:43.001Z</time></trkpt><trkpt lat="14.495208856054996" lon="120.9925625138853"><ele>4.0</ele><time>2026-04-16T08:19:44.001Z</time></trkpt><trkpt lat="14.495380532711243" lon="120.99259145170365"><ele>5.0</ele><time>2026-04-16T08:19:45.001Z</time></trkpt><trkpt lat="14.495542571872644" lon="120.99261646249437"><ele>6.0</ele><time>2026-04-16T08:19:46.001Z</time></trkpt><trkpt lat="14.49569344065075" lon="120.99264293555947"><ele>7.0</ele><time>2026-04-16T08:19:47.001Z</time></trkpt><trkpt lat="14.495839177151172" lon="120.99266638384235"><ele>7.0</ele><time>2026-04-16T08:19:48.001Z</time></trkpt><trkpt lat="14.495994872202264" lon="120.99268670877439"><ele>7.0</ele><time>2026-04-16T08:19:49.001Z</time></trkpt><trkpt lat="14.496149095179351" lon="120.99270534222887"><ele>7.0</ele><time>2026-04-16T08:19:50.001Z</time></trkpt><trkpt lat="14.496463049831148" lon="120.99273462922774"><ele>6.666666666666667</ele><time>2026-04-16T08:19:52.001Z</time></trkpt><trkpt lat="14.496614905749889" lon="120.99273533641183"><ele>6.333333333333334</ele><time>2026-04-16T08:19:53.001Z</time></trkpt><trkpt lat="14.496775928751273" lon="120.99272316154786"><ele>6.0</ele><time>2026-04-16T08:19:54.001Z</time></trkpt><trkpt lat="14.496932405222733" lon="120.9927082763752"><ele>6.25</ele><time>2026-04-16T08:19:55.001Z</time></trkpt><trkpt lat="14.497086831154851" lon="120.99268601225396"><ele>6.5</ele><time>2026-04-16T08:19:56.001Z</time></trkpt><trkpt lat="14.497221827666133" lon="120.99266101311889"><ele>6.75</ele><time>2026-04-16T08:19:57.001Z</time></trkpt><trkpt lat="14.497341759273551" lon="120.99263641232648"><ele>7.0</ele><time>2026-04-16T08:19:58.001Z</time></trkpt><trkpt lat="14.497457936851513" lon="120.99262674775999"><ele>7.0</ele><time>2026-04-16T08:19:59.001Z</time></trkpt><trkpt lat="14.497597726416323" lon="120.99261017105776"><ele>7.0</ele><time>2026-04-16T08:20:00.001Z</time></trkpt><trkpt lat="14.497732247239568" lon="120.99259422930265"><ele>7.0</ele><time>2026-04-16T08:20:01.001Z</time></trkpt><trkpt lat="14.49787615301957" lon="120.99258305848008"><ele>7.0</ele><time>2026-04-16T08:20:02.001Z</time></trkpt><trkpt lat="14.498010856434592" lon="120.9925818432867"><ele>7.0</ele><time>2026-04-16T08:20:03.001Z</time></trkpt><trkpt lat="14.498150602812318" lon="120.99259365211607"><ele>7.0</ele><time>2026-04-16T08:20:04.001Z</time></trkpt><trkpt lat="14.498273370493138" lon="120.9926234322011"><ele>7.0</ele><time>2026-04-16T08:20:05.001Z</time></trkpt><trkpt lat="14.49837660177898" lon="120.99267941763432"><ele>7.0</ele><time>2026-04-16T08:20:06.001Z</time></trkpt><trkpt lat="14.498466365364363" lon="120.99275202608744"><ele>7.0</ele><time>2026-04-16T08:20:07.001Z</time></trkpt><trkpt lat="14.498544656735929" lon="120.99283864910763"><ele>7.0</ele><time>2026-04-16T08:20:08.001Z</time></trkpt><trkpt lat="14.498610636933009" lon="120.99293627286465"><ele>7.0</ele><time>2026-04-16T08:20:09.001Z</time></trkpt><trkpt lat="14.498670354079906" lon="120.99304396516517"><ele>7.0</ele><time>2026-04-16T08:20:10.001Z</time></trkpt><trkpt lat="14.498713760690201" lon="120.99316560385176"><ele>6.333333333333334</ele><time>2026-04-16T08:20:11.001Z</time></trkpt><trkpt lat="14.498755654678407" lon="120.99343334223417"><ele>5.666666666666667</ele><time>2026-04-16T08:20:13.001Z</time></trkpt><trkpt lat="14.498784040954062" lon="120.99358323098542"><ele>5.0</ele><time>2026-04-16T08:20:14.001Z</time></trkpt><trkpt lat="14.498811346350303" lon="120.99373497351017"><ele>5.0</ele><time>2026-04-16T08:20:15.001Z</time></trkpt><trkpt lat="14.498835578260206" lon="120.99387231413648"><ele>5.0</ele><time>2026-04-16T08:20:16.001Z</time></trkpt><trkpt lat="14.498860991083946" lon="120.9940099437607"><ele>5.0</ele><time>2026-04-16T08:20:17.001Z</time></trkpt><trkpt lat="14.498889822744328" lon="120.99415573732219"><ele>5.0</ele><time>2026-04-16T08:20:18.001Z</time></trkpt><trkpt lat="14.498917977594688" lon="120.99428896790442"><ele>4.75</ele><time>2026-04-16T08:20:19.001Z</time></trkpt><trkpt lat="14.498943694197187" lon="120.9944254652537"><ele>4.5</ele><time>2026-04-16T08:20:20.001Z</time></trkpt><trkpt lat="14.498962709779663" lon="120.99455611983865"><ele>4.25</ele><time>2026-04-16T08:20:21.001Z</time></trkpt><trkpt lat="14.498986096488693" lon="120.9946864544022"><ele>4.0</ele><time>2026-04-16T08:20:22.001Z</time></trkpt><trkpt lat="14.499008829229897" lon="120.99481045141319"><ele>4.0</ele><time>2026-04-16T08:20:23.001Z</time></trkpt><trkpt lat="14.499029460927998" lon="120.99493071738618"><ele>4.0</ele><time>2026-04-16T08:20:24.001Z</time></trkpt><trkpt lat="14.499054445847568" lon="120.99505421457322"><ele>4.0</ele><time>2026-04-16T08:20:25.001Z</time></trkpt><trkpt lat="14.499082008874604" lon="120.99517719482884"><ele>4.0</ele><time>2026-04-16T08:20:26.001Z</time></trkpt><trkpt lat="14.499109774550561" lon="120.99530431005616"><ele>4.0</ele><time>2026-04-16T08:20:27.001Z</time></trkpt><trkpt lat="14.499141211057651" lon="120.99543069167568"><ele>4.0</ele><time>2026-04-16T08:20:28.001Z</time></trkpt><trkpt lat="14.499179840823091" lon="120.99554918043123"><ele>4.0</ele><time>2026-04-16T08:20:29.001Z</time></trkpt><trkpt lat="14.499221372294679" lon="120.99566870285119"><ele>4.0</ele><time>2026-04-16T08:20:30.001Z</time></trkpt><trkpt lat="14.49926752840146" lon="120.99579229833614"><ele>5.333333333333333</ele><time>2026-04-16T08:20:31.001Z</time></trkpt><trkpt lat="14.499320417385634" lon="120.99591551859642"><ele>6.666666666666666</ele><time>2026-04-16T08:20:32.001Z</time></trkpt><trkpt lat="14.499437452504182" lon="120.99615647441074"><ele>8.0</ele><time>2026-04-16T08:20:34.001Z</time></trkpt><trkpt lat="14.499497778712897" lon="120.99626795319227"><ele>8.0</ele><time>2026-04-16T08:20:35.001Z</time></trkpt><trkpt lat="14.49955493545253" lon="120.99637308419334"><ele>8.0</ele><time>2026-04-16T08:20:36.001Z</time></trkpt><trkpt lat="14.499613165560998" lon="120.99646929163242"><ele>8.0</ele><time>2026-04-16T08:20:37.001Z</time></trkpt><trkpt lat="14.499671315709566" lon="120.99655546183625"><ele>8.0</ele><time>2026-04-16T08:20:38.001Z</time></trkpt><trkpt lat="14.499723941038951" lon="120.99663884160911"><ele>8.0</ele><time>2026-04-16T08:20:39.001Z</time></trkpt><trkpt lat="14.499768192776425" lon="120.99670043711568"><ele>7.666666666666666</ele><time>2026-04-16T08:20:40.001Z</time></trkpt><trkpt lat="14.49980945096999" lon="120.99675663360482"><ele>7.333333333333333</ele><time>2026-04-16T08:20:41.001Z</time></trkpt><trkpt lat="14.49987788908378" lon="120.99683682927362"><ele>7.0</ele><time>2026-04-16T08:20:43.001Z</time></trkpt><trkpt lat="14.499928177868929" lon="120.99690803676772"><ele>6.666666666666666</ele><time>2026-04-16T08:20:45.001Z</time></trkpt><trkpt lat="14.499967136767605" lon="120.9969608278783"><ele>6.333333333333333</ele><time>2026-04-16T08:20:47.001Z</time></trkpt><trkpt lat="14.500018700481215" lon="120.99701695223438"><ele>6.0</ele><time>2026-04-16T08:21:14.001Z</time></trkpt><trkpt lat="14.50016580905272" lon="120.99717956324643"><ele>6.0</ele><time>2026-04-16T08:21:18.001Z</time></trkpt><trkpt lat="14.500236524012264" lon="120.99724792764869"><ele>6.0</ele><time>2026-04-16T08:21:20.001Z</time></trkpt><trkpt lat="14.500305615500722" lon="120.99731336210446"><ele>6.0</ele><time>2026-04-16T08:21:22.001Z</time></trkpt><trkpt lat="14.500389292746112" lon="120.99738425434857"><ele>6.0</ele><time>2026-04-16T08:21:24.001Z</time></trkpt><trkpt lat="14.500468383129208" lon="120.99745252382598"><ele>6.0</ele><time>2026-04-16T08:21:26.001Z</time></trkpt><trkpt lat="14.500554569592396" lon="120.99752959646466"><ele>5.8</ele><time>2026-04-16T08:21:28.001Z</time></trkpt><trkpt lat="14.500642746622516" lon="120.99760662638504"><ele>5.6</ele><time>2026-04-16T08:21:30.001Z</time></trkpt><trkpt lat="14.500710843419167" lon="120.99765769805501"><ele>5.4</ele><time>2026-04-16T08:21:31.001Z</time></trkpt><trkpt lat="14.500783754830788" lon="120.9977132424759"><ele>5.2</ele><time>2026-04-16T08:21:32.001Z</time></trkpt><trkpt lat="14.500867075502027" lon="120.99777207236139"><ele>5.0</ele><time>2026-04-16T08:21:33.001Z</time></trkpt><trkpt lat="14.50095487755192" lon="120.99782636847532"><ele>5.0</ele><time>2026-04-16T08:21:34.001Z</time></trkpt><trkpt lat="14.50105729248539" lon="120.99788686498628"><ele>5.0</ele><time>2026-04-16T08:21:35.001Z</time></trkpt><trkpt lat="14.5012579358147" lon="120.99800870245399"><ele>5.0</ele><time>2026-04-16T08:21:37.001Z</time></trkpt><trkpt lat="14.501350087977482" lon="120.99806700403286"><ele>5.2</ele><time>2026-04-16T08:21:38.001Z</time></trkpt><trkpt lat="14.501442763677177" lon="120.99812363741897"><ele>5.4</ele><time>2026-04-16T08:21:39.001Z</time></trkpt><trkpt lat="14.501527129385416" lon="120.9981810413918"><ele>5.6</ele><time>2026-04-16T08:21:40.001Z</time></trkpt><trkpt lat="14.501623290870771" lon="120.99823873312889"><ele>5.8</ele><time>2026-04-16T08:21:41.001Z</time></trkpt><trkpt lat="14.501716103240298" lon="120.99829449052912"><ele>6.0</ele><time>2026-04-16T08:21:42.001Z</time></trkpt><trkpt lat="14.501816804235032" lon="120.99835401213798"><ele>6.75</ele><time>2026-04-16T08:21:43.001Z</time></trkpt><trkpt lat="14.5019264587569" lon="120.99842080607567"><ele>7.5</ele><time>2026-04-16T08:21:44.001Z</time></trkpt><trkpt lat="14.502017165554356" lon="120.99848526595174"><ele>8.25</ele><time>2026-04-16T08:21:45.001Z</time></trkpt><trkpt lat="14.502107973191366" lon="120.99854663307423"><ele>9.0</ele><time>2026-04-16T08:21:46.001Z</time></trkpt><trkpt lat="14.502203740308554" lon="120.99860403193982"><ele>9.0</ele><time>2026-04-16T08:21:47.001Z</time></trkpt><trkpt lat="14.502284233731972" lon="120.9986553536038"><ele>9.0</ele><time>2026-04-16T08:21:48.001Z</time></trkpt><trkpt lat="14.502393665826192" lon="120.99871689719717"><ele>9.0</ele><time>2026-04-16T08:21:49.001Z</time></trkpt><trkpt lat="14.502479685040656" lon="120.99876316721662"><ele>9.0</ele><time>2026-04-16T08:21:50.001Z</time></trkpt><trkpt lat="14.502571131342254" lon="120.99881701001387"><ele>9.0</ele><time>2026-04-16T08:21:51.001Z</time></trkpt><trkpt lat="14.502662535266698" lon="120.99887179615713"><ele>9.0</ele><time>2026-04-16T08:21:52.001Z</time></trkpt><trkpt lat="14.502750519771885" lon="120.99892213696994"><ele>9.0</ele><time>2026-04-16T08:21:53.001Z</time></trkpt><trkpt lat="14.502837935511316" lon="120.99897444432244"><ele>9.0</ele><time>2026-04-16T08:21:54.001Z</time></trkpt><trkpt lat="14.50291946207065" lon="120.9990269240267"><ele>9.0</ele><time>2026-04-16T08:21:55.001Z</time></trkpt><trkpt lat="14.502992331865803" lon="120.99907243895977"><ele>9.0</ele><time>2026-04-16T08:21:56.001Z</time></trkpt><trkpt lat="14.503136498053633" lon="120.99915959543917"><ele>9.0</ele><time>2026-04-16T08:21:58.001Z</time></trkpt><trkpt lat="14.50322128936345" lon="120.9992127888272"><ele>9.0</ele><time>2026-04-16T08:21:59.001Z</time></trkpt><trkpt lat="14.50330862390272" lon="120.99926797860722"><ele>9.0</ele><time>2026-04-16T08:22:00.001Z</time></trkpt><trkpt lat="14.503404859986832" lon="120.99933169951258"><ele>9.0</ele><time>2026-04-16T08:22:01.001Z</time></trkpt><trkpt lat="14.503504229553847" lon="120.99939599038446"><ele>9.0</ele><time>2026-04-16T08:22:02.001Z</time></trkpt><trkpt lat="14.50360390243039" lon="120.999459127645"><ele>9.0</ele><time>2026-04-16T08:22:03.001Z</time></trkpt><trkpt lat="14.50369386475631" lon="120.99952058228281"><ele>9.0</ele><time>2026-04-16T08:22:04.001Z</time></trkpt><trkpt lat="14.503803953969053" lon="120.99958891050798"><ele>9.0</ele><time>2026-04-16T08:22:05.001Z</time></trkpt><trkpt lat="14.503905605046716" lon="120.99965139208517"><ele>9.0</ele><time>2026-04-16T08:22:06.001Z</time></trkpt><trkpt lat="14.504019163126124" lon="120.9997230107305"><ele>9.25</ele><time>2026-04-16T08:22:07.001Z</time></trkpt><trkpt lat="14.504128776618584" lon="120.99979613460053"><ele>9.5</ele><time>2026-04-16T08:22:08.001Z</time></trkpt><trkpt lat="14.504244780579267" lon="120.99987633994438"><ele>9.75</ele><time>2026-04-16T08:22:09.001Z</time></trkpt><trkpt lat="14.504353680307345" lon="120.99995847653211"><ele>10.0</ele><time>2026-04-16T08:22:10.001Z</time></trkpt><trkpt lat="14.504467838855202" lon="121.000048065252"><ele>10.0</ele><time>2026-04-16T08:22:11.001Z</time></trkpt><trkpt lat="14.50457772753777" lon="121.00013165716403"><ele>10.0</ele><time>2026-04-16T08:22:12.001Z</time></trkpt><trkpt lat="14.504684442708934" lon="121.00020452593166"><ele>10.0</ele><time>2026-04-16T08:22:13.001Z</time></trkpt><trkpt lat="14.504790268766184" lon="121.00026815641108"><ele>10.0</ele><time>2026-04-16T08:22:14.001Z</time></trkpt><trkpt lat="14.504888081370659" lon="121.00032932779996"><ele>9.25</ele><time>2026-04-16T08:22:15.001Z</time></trkpt><trkpt lat="14.504978658398832" lon="121.00038712690781"><ele>8.5</ele><time>2026-04-16T08:22:16.001Z</time></trkpt><trkpt lat="14.505068937306111" lon="121.00044409993349"><ele>7.75</ele><time>2026-04-16T08:22:17.001Z</time></trkpt><trkpt lat="14.505248836782425" lon="121.00055677795166"><ele>7.0</ele><time>2026-04-16T08:22:19.001Z</time></trkpt><trkpt lat="14.505343369812959" lon="121.00061189792883"><ele>7.75</ele><time>2026-04-16T08:22:20.001Z</time></trkpt><trkpt lat="14.505443174592287" lon="121.0006703997894"><ele>8.5</ele><time>2026-04-16T08:22:21.001Z</time></trkpt><trkpt lat="14.505543426748556" lon="121.00072287259799"><ele>9.25</ele><time>2026-04-16T08:22:22.001Z</time></trkpt><trkpt lat="14.505658542796994" lon="121.00077364958115"><ele>10.0</ele><time>2026-04-16T08:22:23.001Z</time></trkpt><trkpt lat="14.505779730243392" lon="121.0008188853601"><ele>10.0</ele><time>2026-04-16T08:22:24.001Z</time></trkpt><trkpt lat="14.50590878066396" lon="121.00087378123824"><ele>10.0</ele><time>2026-04-16T08:22:25.001Z</time></trkpt><trkpt lat="14.506043092978237" lon="121.0009360257791"><ele>10.0</ele><time>2026-04-16T08:22:26.001Z</time></trkpt><trkpt lat="14.506184499223108" lon="121.00099832327176"><ele>10.0</ele><time>2026-04-16T08:22:27.001Z</time></trkpt><trkpt lat="14.506325072772457" lon="121.00105258106805"><ele>10.0</ele><time>2026-04-16T08:22:28.001Z</time></trkpt><trkpt lat="14.506458458309195" lon="121.00110191001087"><ele>10.0</ele><time>2026-04-16T08:22:29.001Z</time></trkpt><trkpt lat="14.506582873125318" lon="121.0011420991478"><ele>10.0</ele><time>2026-04-16T08:22:30.001Z</time></trkpt><trkpt lat="14.506697338419896" lon="121.00117731583092"><ele>10.0</ele><time>2026-04-16T08:22:31.001Z</time></trkpt><trkpt lat="14.506814152670232" lon="121.00122122636893"><ele>10.0</ele><time>2026-04-16T08:22:32.001Z</time></trkpt><trkpt lat="14.506916654846393" lon="121.00126025889733"><ele>10.0</ele><time>2026-04-16T08:22:33.001Z</time></trkpt><trkpt lat="14.507012035497015" lon="121.00129819870958"><ele>10.0</ele><time>2026-04-16T08:22:34.001Z</time></trkpt><trkpt lat="14.507099062435417" lon="121.00133055087504"><ele>10.0</ele><time>2026-04-16T08:22:35.001Z</time></trkpt><trkpt lat="14.507179724478132" lon="121.00136069669269"><ele>10.0</ele><time>2026-04-16T08:22:36.001Z</time></trkpt><trkpt lat="14.507260375183092" lon="121.0013921422662"><ele>9.5</ele><time>2026-04-16T08:22:37.001Z</time></trkpt><trkpt lat="14.507326271250776" lon="121.00142037638547"><ele>9.0</ele><time>2026-04-16T08:22:38.001Z</time></trkpt><trkpt lat="14.507516867043044" lon="121.00149607363313"><ele>8.5</ele><time>2026-04-16T08:22:40.001Z</time></trkpt><trkpt lat="14.507610956651645" lon="121.00154305299529"><ele>8.0</ele><time>2026-04-16T08:22:41.001Z</time></trkpt><trkpt lat="14.507704587905081" lon="121.00159970652956"><ele>8.0</ele><time>2026-04-16T08:22:42.001Z</time></trkpt><trkpt lat="14.507800854752215" lon="121.00166174198534"><ele>8.0</ele><time>2026-04-16T08:22:43.001Z</time></trkpt><trkpt lat="14.50789666811367" lon="121.00172156644808"><ele>8.0</ele><time>2026-04-16T08:22:44.001Z</time></trkpt><trkpt lat="14.50799618002538" lon="121.0017852377597"><ele>8.0</ele><time>2026-04-16T08:22:45.001Z</time></trkpt><trkpt lat="14.508084817676922" lon="121.00182943117053"><ele>8.0</ele><time>2026-04-16T08:22:46.001Z</time></trkpt><trkpt lat="14.508183971065565" lon="121.00187184821561"><ele>8.25</ele><time>2026-04-16T08:22:47.001Z</time></trkpt><trkpt lat="14.508287272908909" lon="121.0019046694493"><ele>8.5</ele><time>2026-04-16T08:22:48.001Z</time></trkpt><trkpt lat="14.508403618212336" lon="121.00194556739726"><ele>8.75</ele><time>2026-04-16T08:22:49.001Z</time></trkpt><trkpt lat="14.508517215870304" lon="121.00197922549712"><ele>9.0</ele><time>2026-04-16T08:22:50.001Z</time></trkpt><trkpt lat="14.508640098789359" lon="121.00201761333011"><ele>8.5</ele><time>2026-04-16T08:22:51.001Z</time></trkpt><trkpt lat="14.508765889464508" lon="121.00205169642275"><ele>8.0</ele><time>2026-04-16T08:22:52.001Z</time></trkpt><trkpt lat="14.508896939448372" lon="121.00207784838474"><ele>7.5</ele><time>2026-04-16T08:22:53.001Z</time></trkpt><trkpt lat="14.509036416166992" lon="121.00210202433381"><ele>7.0</ele><time>2026-04-16T08:22:54.001Z</time></trkpt><trkpt lat="14.509171794721675" lon="121.00212447349669"><ele>7.0</ele><time>2026-04-16T08:22:55.001Z</time></trkpt><trkpt lat="14.509310577174443" lon="121.00216352088049"><ele>7.0</ele><time>2026-04-16T08:22:56.001Z</time></trkpt><trkpt lat="14.50944159470673" lon="121.00221633958722"><ele>7.0</ele><time>2026-04-16T08:22:57.001Z</time></trkpt><trkpt lat="14.509582972682736" lon="121.00227503048734"><ele>7.0</ele><time>2026-04-16T08:22:58.001Z</time></trkpt><trkpt lat="14.509723423518587" lon="121.0023302067893"><ele>6.0</ele><time>2026-04-16T08:22:59.001Z</time></trkpt><trkpt lat="14.51002759507576" lon="121.00244687743886"><ele>5.0</ele><time>2026-04-16T08:23:01.001Z</time></trkpt><trkpt lat="14.510182236571204" lon="121.00250874006505"><ele>5.0</ele><time>2026-04-16T08:23:02.001Z</time></trkpt><trkpt lat="14.51033136750651" lon="121.0025589988051"><ele>5.0</ele><time>2026-04-16T08:23:03.001Z</time></trkpt><trkpt lat="14.510475631872595" lon="121.00260949179132"><ele>5.0</ele><time>2026-04-16T08:23:04.001Z</time></trkpt><trkpt lat="14.510618793513046" lon="121.00265800543377"><ele>5.333333333333334</ele><time>2026-04-16T08:23:05.001Z</time></trkpt><trkpt lat="14.510767545834176" lon="121.00270980917462"><ele>5.666666666666667</ele><time>2026-04-16T08:23:06.001Z</time></trkpt><trkpt lat="14.510915047238285" lon="121.00276582509878"><ele>6.0</ele><time>2026-04-16T08:23:07.001Z</time></trkpt><trkpt lat="14.511067608181994" lon="121.0028184785099"><ele>6.0</ele><time>2026-04-16T08:23:08.001Z</time></trkpt><trkpt lat="14.511207159037648" lon="121.0028680693696"><ele>6.0</ele><time>2026-04-16T08:23:09.001Z</time></trkpt><trkpt lat="14.511331399765151" lon="121.00291444053626"><ele>6.0</ele><time>2026-04-16T08:23:10.001Z</time></trkpt><trkpt lat="14.511443510511338" lon="121.00295848558538"><ele>6.0</ele><time>2026-04-16T08:23:11.001Z</time></trkpt><trkpt lat="14.511553494420431" lon="121.00300239684846"><ele>6.0</ele><time>2026-04-16T08:23:12.001Z</time></trkpt><trkpt lat="14.511656777750403" lon="121.00304807829693"><ele>6.0</ele><time>2026-04-16T08:23:13.001Z</time></trkpt><trkpt lat="14.511768584036018" lon="121.00309132567746"><ele>6.0</ele><time>2026-04-16T08:23:14.001Z</time></trkpt><trkpt lat="14.511892134756877" lon="121.0031364962232"><ele>6.0</ele><time>2026-04-16T08:23:15.001Z</time></trkpt><trkpt lat="14.512020142563111" lon="121.00318420747564"><ele>6.25</ele><time>2026-04-16T08:23:16.001Z</time></trkpt><trkpt lat="14.512151420541693" lon="121.0032291524534"><ele>6.5</ele><time>2026-04-16T08:23:17.001Z</time></trkpt><trkpt lat="14.512287834728149" lon="121.00327608831762"><ele>6.75</ele><time>2026-04-16T08:23:18.001Z</time></trkpt><trkpt lat="14.51243012346324" lon="121.00332315607419"><ele>7.0</ele><time>2026-04-16T08:23:19.001Z</time></trkpt><trkpt lat="14.51257239337798" lon="121.00337129668843"><ele>7.0</ele><time>2026-04-16T08:23:20.001Z</time></trkpt><trkpt lat="14.512864359613046" lon="121.0034682449842"><ele>7.0</ele><time>2026-04-16T08:23:22.001Z</time></trkpt><trkpt lat="14.513009081680838" lon="121.00352316893041"><ele>7.25</ele><time>2026-04-16T08:23:23.001Z</time></trkpt><trkpt lat="14.513152280144261" lon="121.00357214816894"><ele>7.5</ele><time>2026-04-16T08:23:24.001Z</time></trkpt><trkpt lat="14.513294682389194" lon="121.00361497618907"><ele>7.75</ele><time>2026-04-16T08:23:25.001Z</time></trkpt><trkpt lat="14.513429979891137" lon="121.0036584512"><ele>8.0</ele><time>2026-04-16T08:23:26.001Z</time></trkpt><trkpt lat="14.513548807004648" lon="121.00369969864626"><ele>8.0</ele><time>2026-04-16T08:23:27.001Z</time></trkpt><trkpt lat="14.513674497452014" lon="121.00374298499905"><ele>8.0</ele><time>2026-04-16T08:23:28.001Z</time></trkpt><trkpt lat="14.513804066190165" lon="121.00378669907403"><ele>8.0</ele><time>2026-04-16T08:23:29.001Z</time></trkpt><trkpt lat="14.513929849769921" lon="121.00383189466547"><ele>8.0</ele><time>2026-04-16T08:23:30.001Z</time></trkpt><trkpt lat="14.514051457207204" lon="121.00387624560219"><ele>8.8</ele><time>2026-04-16T08:23:31.001Z</time></trkpt><trkpt lat="14.514167154601044" lon="121.0039200661942"><ele>9.600000000000001</ele><time>2026-04-16T08:23:32.001Z</time></trkpt><trkpt lat="14.514266640839656" lon="121.00395861927574"><ele>10.399999999999999</ele><time>2026-04-16T08:23:33.001Z</time></trkpt><trkpt lat="14.514361818445872" lon="121.00399266246785"><ele>11.2</ele><time>2026-04-16T08:23:34.001Z</time></trkpt><trkpt lat="14.514442952649135" lon="121.00402348607649"><ele>12.0</ele><time>2026-04-16T08:23:35.001Z</time></trkpt><trkpt lat="14.514508886544458" lon="121.00404564322942"><ele>11.5</ele><time>2026-04-16T08:23:36.001Z</time></trkpt><trkpt lat="14.514605053825528" lon="121.00408236074458"><ele>11.0</ele><time>2026-04-16T08:23:38.001Z</time></trkpt><trkpt lat="14.514678594119147" lon="121.00411153597402"><ele>10.5</ele><time>2026-04-16T08:23:40.001Z</time></trkpt><trkpt lat="14.514741918679404" lon="121.00412744257885"><ele>10.0</ele><time>2026-04-16T08:25:19.001Z</time></trkpt><trkpt lat="14.51487181703564" lon="121.00417558244715"><ele>9.5</ele><time>2026-04-16T08:25:23Z</time></trkpt><trkpt lat="14.514933838530284" lon="121.0041920612968"><ele>9.0</ele><time>2026-04-16T08:25:25Z</time></trkpt><trkpt lat="14.515024726859476" lon="121.00422776544343"><ele>9.0</ele><time>2026-04-16T08:25:27Z</time></trkpt><trkpt lat="14.515091699781955" lon="121.00424998812613"><ele>9.0</ele><time>2026-04-16T08:25:28Z</time></trkpt><trkpt lat="14.515200332422568" lon="121.00427178021218"><ele>9.0</ele><time>2026-04-16T08:25:30Z</time></trkpt><trkpt lat="14.515286129007622" lon="121.00427380090953"><ele>9.0</ele><time>2026-04-16T08:25:32Z</time></trkpt><trkpt lat="14.515373802470437" lon="121.00425604379093"><ele>9.0</ele><time>2026-04-16T08:25:34Z</time></trkpt><trkpt lat="14.515449774781564" lon="121.00419966172673"><ele>8.8</ele><time>2026-04-16T08:25:37Z</time></trkpt><trkpt lat="14.515485767648157" lon="121.00414096567815"><ele>8.600000000000001</ele><time>2026-04-16T08:25:38Z</time></trkpt><trkpt lat="14.51552338482165" lon="121.00406832826287"><ele>8.4</ele><time>2026-04-16T08:25:39Z</time></trkpt><trkpt lat="14.515569284438197" lon="121.00399720145265"><ele>8.200000000000001</ele><time>2026-04-16T08:25:40Z</time></trkpt><trkpt lat="14.515645836492636" lon="121.00381538116515"><ele>8.0</ele><time>2026-04-16T08:25:43Z</time></trkpt><trkpt lat="14.51567248689206" lon="121.00375149362235"><ele>7.999999999999999</ele><time>2026-04-16T08:25:44Z</time></trkpt><trkpt lat="14.515697006669711" lon="121.00368523635866"><ele>8.0</ele><time>2026-04-16T08:25:45Z</time></trkpt><trkpt lat="14.515752446903402" lon="121.0035719600395"><ele>8.0</ele><time>2026-04-16T08:25:47Z</time></trkpt><trkpt lat="14.515784101677307" lon="121.00350938405059"><ele>8.0</ele><time>2026-04-16T08:25:48Z</time></trkpt><trkpt lat="14.515817612045847" lon="121.0034412927481"><ele>7.999999999999999</ele><time>2026-04-16T08:25:49Z</time></trkpt><trkpt lat="14.515859003503595" lon="121.0033650678803"><ele>8.0</ele><time>2026-04-16T08:25:50Z</time></trkpt><trkpt lat="14.515899943125309" lon="121.0032954803638"><ele>7.6000000000000005</ele><time>2026-04-16T08:25:51Z</time></trkpt><trkpt lat="14.515942908572445" lon="121.00320628749726"><ele>7.200000000000001</ele><time>2026-04-16T08:25:52Z</time></trkpt><trkpt lat="14.51598436469124" lon="121.00312070526589"><ele>6.8</ele><time>2026-04-16T08:25:53Z</time></trkpt><trkpt lat="14.516048893257087" lon="121.00301520188754"><ele>6.4</ele><time>2026-04-16T08:25:55Z</time></trkpt><trkpt lat="14.516090675828094" lon="121.00293340688866"><ele>6.0</ele><time>2026-04-16T08:25:57Z</time></trkpt><trkpt lat="14.516120426767381" lon="121.00286986626261"><ele>6.0</ele><time>2026-04-16T08:25:59Z</time></trkpt><trkpt lat="14.516152151040739" lon="121.00280513982419"><ele>6.0</ele><time>2026-04-16T08:26:01Z</time></trkpt><trkpt lat="14.51625295814207" lon="121.00260503347607"><ele>6.0</ele><time>2026-04-16T08:26:05Z</time></trkpt><trkpt lat="14.516289238008026" lon="121.00252507037561"><ele>6.0</ele><time>2026-04-16T08:26:06Z</time></trkpt><trkpt lat="14.51633620464114" lon="121.00243805138633"><ele>6.25</ele><time>2026-04-16T08:26:07Z</time></trkpt><trkpt lat="14.516375996150975" lon="121.00234626336068"><ele>6.5</ele><time>2026-04-16T08:26:08Z</time></trkpt><trkpt lat="14.516430634483898" lon="121.00223699382865"><ele>6.75</ele><time>2026-04-16T08:26:09.001Z</time></trkpt><trkpt lat="14.516478705463252" lon="121.0021272704835"><ele>7.0</ele><time>2026-04-16T08:26:10.001Z</time></trkpt><trkpt lat="14.516538907548133" lon="121.00201322904826"><ele>7.0</ele><time>2026-04-16T08:26:11.001Z</time></trkpt><trkpt lat="14.516593680041735" lon="121.00190501719361"><ele>6.999999999999999</ele><time>2026-04-16T08:26:12.001Z</time></trkpt><trkpt lat="14.516640294333898" lon="121.00180612394544"><ele>6.999999999999999</ele><time>2026-04-16T08:26:13.001Z</time></trkpt><trkpt lat="14.516694573526879" lon="121.00171826024494"><ele>7.0</ele><time>2026-04-16T08:26:14.001Z</time></trkpt><trkpt lat="14.516748313689527" lon="121.00161955601001"><ele>7.0</ele><time>2026-04-16T08:26:15.001Z</time></trkpt><trkpt lat="14.51680120794596" lon="121.0015109231966"><ele>6.8</ele><time>2026-04-16T08:26:16.001Z</time></trkpt><trkpt lat="14.516834466502264" lon="121.0014276420823"><ele>6.6</ele><time>2026-04-16T08:26:17.001Z</time></trkpt><trkpt lat="14.51686101676409" lon="121.0013678719547"><ele>6.3999999999999995</ele><time>2026-04-16T08:26:18.001Z</time></trkpt><trkpt lat="14.516901418471319" lon="121.00127110223768"><ele>6.199999999999999</ele><time>2026-04-16T08:26:20.001Z</time></trkpt><trkpt lat="14.5169855234219" lon="121.00115637538858"><ele>6.0</ele><time>2026-04-16T08:26:22.001Z</time></trkpt><trkpt lat="14.51714138856831" lon="121.00108981602686"><ele>5.75</ele><time>2026-04-16T08:26:24.001Z</time></trkpt><trkpt lat="14.517248019519423" lon="121.0010743234918"><ele>5.5</ele><time>2026-04-16T08:26:25.001Z</time></trkpt><trkpt lat="14.517357476989526" lon="121.00106524752977"><ele>5.25</ele><time>2026-04-16T08:26:26.001Z</time></trkpt><trkpt lat="14.517472628283137" lon="121.00105913280242"><ele>5.0</ele><time>2026-04-16T08:26:27.001Z</time></trkpt><trkpt lat="14.517606276212433" lon="121.00104520122119"><ele>5.0</ele><time>2026-04-16T08:26:28.001Z</time></trkpt><trkpt lat="14.517743076571033" lon="121.00103944978788"><ele>5.0</ele><time>2026-04-16T08:26:29.001Z</time></trkpt><trkpt lat="14.5178886047206" lon="121.00103308258477"><ele>5.0</ele><time>2026-04-16T08:26:30.001Z</time></trkpt><trkpt lat="14.518039551287414" lon="121.0010301365669"><ele>5.0</ele><time>2026-04-16T08:26:31.001Z</time></trkpt><trkpt lat="14.518194897276773" lon="121.00102454191737"><ele>5.333333333333334</ele><time>2026-04-16T08:26:32.001Z</time></trkpt><trkpt lat="14.518355115147173" lon="121.00102078626817"><ele>5.666666666666667</ele><time>2026-04-16T08:26:33.001Z</time></trkpt><trkpt lat="14.51851880766724" lon="121.00101603890936"><ele>6.0</ele><time>2026-04-16T08:26:34.001Z</time></trkpt><trkpt lat="14.518681736468283" lon="121.001014461235"><ele>6.333333333333334</ele><time>2026-04-16T08:26:35.001Z</time></trkpt><trkpt lat="14.518850603324012" lon="121.00100941344944"><ele>6.666666666666667</ele><time>2026-04-16T08:26:36.001Z</time></trkpt><trkpt lat="14.519015096798034" lon="121.00100364405408"><ele>7.0</ele><time>2026-04-16T08:26:37.001Z</time></trkpt><trkpt lat="14.519182711212604" lon="121.00099881994365"><ele>7.0</ele><time>2026-04-16T08:26:38.001Z</time></trkpt><trkpt lat="14.519356059580426" lon="121.00099385161843"><ele>7.0</ele><time>2026-04-16T08:26:39.001Z</time></trkpt><trkpt lat="14.519516212965495" lon="121.0009906057374"><ele>7.0</ele><time>2026-04-16T08:26:40.001Z</time></trkpt><trkpt lat="14.519684178414353" lon="121.00098532210028"><ele>6.333333333333334</ele><time>2026-04-16T08:26:41.001Z</time></trkpt><trkpt lat="14.51983836418494" lon="121.00098240461993"><ele>5.666666666666667</ele><time>2026-04-16T08:26:42.001Z</time></trkpt><trkpt lat="14.52000318258741" lon="121.00097913008555"><ele>5.0</ele><time>2026-04-16T08:26:43.001Z</time></trkpt><trkpt lat="14.52031017197584" lon="121.00096950501147"><ele>5.5</ele><time>2026-04-16T08:26:45.001Z</time></trkpt><trkpt lat="14.520450379828587" lon="121.0009661239519"><ele>6.0</ele><time>2026-04-16T08:26:46.001Z</time></trkpt><trkpt lat="14.520582096947527" lon="121.00096140220776"><ele>6.5</ele><time>2026-04-16T08:26:47.001Z</time></trkpt><trkpt lat="14.520710027094099" lon="121.00095672271512"><ele>7.0</ele><time>2026-04-16T08:26:48.001Z</time></trkpt><trkpt lat="14.520830928168236" lon="121.00095239996122"><ele>7.0</ele><time>2026-04-16T08:26:49.001Z</time></trkpt><trkpt lat="14.520939122478948" lon="121.00095428484651"><ele>6.999999999999999</ele><time>2026-04-16T08:26:50.001Z</time></trkpt><trkpt lat="14.521043799313688" lon="121.00095955628403"><ele>6.999999999999999</ele><time>2026-04-16T08:26:51.001Z</time></trkpt><trkpt lat="14.52113355935072" lon="121.00096455525367"><ele>7.0</ele><time>2026-04-16T08:26:52.001Z</time></trkpt><trkpt lat="14.521215821017277" lon="121.0009689877782"><ele>7.0</ele><time>2026-04-16T08:26:53.001Z</time></trkpt><trkpt lat="14.521297999765544" lon="121.00097029036189"><ele>6.833333333333334</ele><time>2026-04-16T08:26:54.001Z</time></trkpt><trkpt lat="14.52137248114533" lon="121.00097130544823"><ele>6.666666666666667</ele><time>2026-04-16T08:26:55.001Z</time></trkpt><trkpt lat="14.521445378856779" lon="121.00097064553962"><ele>6.5</ele><time>2026-04-16T08:26:56.001Z</time></trkpt><trkpt lat="14.521573214059302" lon="121.00096187465533"><ele>6.333333333333334</ele><time>2026-04-16T08:26:58.001Z</time></trkpt><trkpt lat="14.521637296803709" lon="121.00095901275508"><ele>6.166666666666667</ele><time>2026-04-16T08:26:59.001Z</time></trkpt><trkpt lat="14.521738567230315" lon="121.00095516650627"><ele>6.0</ele><time>2026-04-16T08:27:01.001Z</time></trkpt><trkpt lat="14.521812214843749" lon="121.0009501591231"><ele>6.0</ele><time>2026-04-16T08:27:03.001Z</time></trkpt><trkpt lat="14.521916219563717" lon="121.00094238238472"><ele>6.0</ele><time>2026-04-16T08:27:07.001Z</time></trkpt><trkpt lat="14.522076709620597" lon="121.00093107974996"><ele>6.0</ele><time>2026-04-16T08:27:10.001Z</time></trkpt><trkpt lat="14.522146265961418" lon="121.00091208141983"><ele>6.0</ele><time>2026-04-16T08:27:11.001Z</time></trkpt><trkpt lat="14.522231510511787" lon="121.00089320229681"><ele>6.0</ele><time>2026-04-16T08:27:12.001Z</time></trkpt><trkpt lat="14.522313360708388" lon="121.00087792782116"><ele>5.666666666666667</ele><time>2026-04-16T08:27:13.001Z</time></trkpt><trkpt lat="14.522390536091125" lon="121.00089633362704"><ele>5.333333333333333</ele><time>2026-04-16T08:27:19Z</time></trkpt><trkpt lat="14.522486565774322" lon="121.00089517125642"><ele>5.0</ele><time>2026-04-16T08:27:22Z</time></trkpt><trkpt lat="14.52259799606926" lon="121.00089369957361"><ele>4.666666666666666</ele><time>2026-04-16T08:27:24Z</time></trkpt><trkpt lat="14.5226614815071" lon="121.00089050802367"><ele>4.333333333333333</ele><time>2026-04-16T08:27:25Z</time></trkpt><trkpt lat="14.522748236408026" lon="121.00088149213558"><ele>4.0</ele><time>2026-04-16T08:27:26Z</time></trkpt><trkpt lat="14.522852084798332" lon="121.00087238811942"><ele>4.0</ele><time>2026-04-16T08:27:27Z</time></trkpt><trkpt lat="14.52295331737569" lon="121.00086767933472"><ele>4.0</ele><time>2026-04-16T08:27:28Z</time></trkpt><trkpt lat="14.523175164555765" lon="121.00088575717048"><ele>4.0</ele><time>2026-04-16T08:27:30Z</time></trkpt><trkpt lat="14.52328916103148" lon="121.00088001543378"><ele>4.0</ele><time>2026-04-16T08:27:31Z</time></trkpt><trkpt lat="14.523392399627694" lon="121.00087683692219"><ele>4.0</ele><time>2026-04-16T08:27:32Z</time></trkpt><trkpt lat="14.523484908747076" lon="121.00087134372535"><ele>4.0</ele><time>2026-04-16T08:27:33Z</time></trkpt><trkpt lat="14.523585808795069" lon="121.00086598191778"><ele>4.0</ele><time>2026-04-16T08:27:34Z</time></trkpt><trkpt lat="14.523684920327758" lon="121.00086150920434"><ele>4.0</ele><time>2026-04-16T08:27:35Z</time></trkpt><trkpt lat="14.523782241173068" lon="121.00085816657482"><ele>4.0</ele><time>2026-04-16T08:27:36Z</time></trkpt><trkpt lat="14.523892704679957" lon="121.00084533739516"><ele>4.2</ele><time>2026-04-16T08:27:37Z</time></trkpt><trkpt lat="14.523995671915294" lon="121.0008378842322"><ele>4.4</ele><time>2026-04-16T08:27:38Z</time></trkpt><trkpt lat="14.524087948550905" lon="121.00082323513462"><ele>4.6</ele><time>2026-04-16T08:27:39Z</time></trkpt><trkpt lat="14.524173104417228" lon="121.00080946214368"><ele>4.8</ele><time>2026-04-16T08:27:40Z</time></trkpt><trkpt lat="14.524260922116225" lon="121.0007906224192"><ele>5.0</ele><time>2026-04-16T08:27:41Z</time></trkpt><trkpt lat="14.524349011158307" lon="121.00076745550902"><ele>5.2</ele><time>2026-04-16T08:27:42Z</time></trkpt><trkpt lat="14.524442380699218" lon="121.0007439052296"><ele>5.4</ele><time>2026-04-16T08:27:43Z</time></trkpt><trkpt lat="14.524529709698347" lon="121.00072695128797"><ele>5.6</ele><time>2026-04-16T08:27:44Z</time></trkpt><trkpt lat="14.52462220192081" lon="121.00070051220294"><ele>5.8</ele><time>2026-04-16T08:27:45Z</time></trkpt><trkpt lat="14.524720089250474" lon="121.00066376206155"><ele>6.0</ele><time>2026-04-16T08:27:46Z</time></trkpt><trkpt lat="14.524825353429062" lon="121.00062355692286"><ele>6.333333333333334</ele><time>2026-04-16T08:27:47Z</time></trkpt><trkpt lat="14.524934454961931" lon="121.00058407728379"><ele>6.666666666666667</ele><time>2026-04-16T08:27:48Z</time></trkpt><trkpt lat="14.5250520899673" lon="121.00054250765682"><ele>7.0</ele><time>2026-04-16T08:27:49Z</time></trkpt><trkpt lat="14.525295592375786" lon="121.00045379138636"><ele>6.75</ele><time>2026-04-16T08:27:51Z</time></trkpt><trkpt lat="14.525427033073283" lon="121.00040339991256"><ele>6.5</ele><time>2026-04-16T08:27:52Z</time></trkpt><trkpt lat="14.52555771266929" lon="121.00035148929014"><ele>6.25</ele><time>2026-04-16T08:27:53Z</time></trkpt><trkpt lat="14.525684071989204" lon="121.000304723276"><ele>6.0</ele><time>2026-04-16T08:27:54Z</time></trkpt><trkpt lat="14.525800855233609" lon="121.00026054086352"><ele>6.0</ele><time>2026-04-16T08:27:55Z</time></trkpt><trkpt lat="14.52591682410671" lon="121.00021596624737"><ele>6.0</ele><time>2026-04-16T08:27:56Z</time></trkpt><trkpt lat="14.526033651035505" lon="121.00017053124023"><ele>6.0</ele><time>2026-04-16T08:27:57Z</time></trkpt><trkpt lat="14.526145641143215" lon="121.00012800386155"><ele>6.0</ele><time>2026-04-16T08:27:58Z</time></trkpt><trkpt lat="14.526263922819592" lon="121.00008308775176"><ele>6.0</ele><time>2026-04-16T08:27:59Z</time></trkpt><trkpt lat="14.52637397495344" lon="121.00004322665586"><ele>6.0</ele><time>2026-04-16T08:28:00Z</time></trkpt><trkpt lat="14.526482301028173" lon="120.9999971971224"><ele>6.0</ele><time>2026-04-16T08:28:01Z</time></trkpt><trkpt lat="14.526582671116314" lon="120.99995742032594"><ele>6.0</ele><time>2026-04-16T08:28:02Z</time></trkpt><trkpt lat="14.526677497990269" lon="120.99992132003511"><ele>6.0</ele><time>2026-04-16T08:28:03Z</time></trkpt><trkpt lat="14.526763129918796" lon="120.99988807453396"><ele>5.999999999999999</ele><time>2026-04-16T08:28:04Z</time></trkpt><trkpt lat="14.526838472536777" lon="120.99986024563346"><ele>6.0</ele><time>2026-04-16T08:28:05Z</time></trkpt><trkpt lat="14.526911308370513" lon="120.99983424095474"><ele>6.0</ele><time>2026-04-16T08:28:06Z</time></trkpt><trkpt lat="14.52697506707843" lon="120.99981743737453"><ele>6.0</ele><time>2026-04-16T08:28:07Z</time></trkpt><trkpt lat="14.527038598146289" lon="120.99982136373204"><ele>6.0</ele><time>2026-04-16T08:28:08Z</time></trkpt><trkpt lat="14.527100077071836" lon="120.99984034429495"><ele>5.999999999999999</ele><time>2026-04-16T08:28:09Z</time></trkpt><trkpt lat="14.527161063377347" lon="120.99987573993"><ele>6.0</ele><time>2026-04-16T08:28:10Z</time></trkpt><trkpt lat="14.527273449308778" lon="120.99999125651435"><ele>5.666666666666667</ele><time>2026-04-16T08:28:12Z</time></trkpt><trkpt lat="14.52731020269136" lon="121.00007428164164"><ele>5.333333333333333</ele><time>2026-04-16T08:28:13Z</time></trkpt><trkpt lat="14.527340311362716" lon="121.00014636242913"><ele>5.0</ele><time>2026-04-16T08:28:14Z</time></trkpt><trkpt lat="14.527368977023006" lon="121.00021216483889"><ele>4.666666666666666</ele><time>2026-04-16T08:28:15Z</time></trkpt><trkpt lat="14.52740318002174" lon="121.00028777482082"><ele>4.333333333333333</ele><time>2026-04-16T08:28:16Z</time></trkpt><trkpt lat="14.527440769964887" lon="121.00038961625604"><ele>4.0</ele><time>2026-04-16T08:28:17Z</time></trkpt><trkpt lat="14.5274801139706" lon="121.00049578050321"><ele>4.0</ele><time>2026-04-16T08:28:18Z</time></trkpt><trkpt lat="14.527530545765567" lon="121.00060392766042"><ele>4.0</ele><time>2026-04-16T08:28:19Z</time></trkpt><trkpt lat="14.527590805435016" lon="121.00071019436041"><ele>4.0</ele><time>2026-04-16T08:28:20Z</time></trkpt><trkpt lat="14.527671785732737" lon="121.00082355386645"><ele>4.0</ele><time>2026-04-16T08:28:21Z</time></trkpt><trkpt lat="14.52774477579832" lon="121.00093675603588"><ele>4.25</ele><time>2026-04-16T08:28:22Z</time></trkpt><trkpt lat="14.527830291906746" lon="121.00105523477745"><ele>4.5</ele><time>2026-04-16T08:28:23Z</time></trkpt><trkpt lat="14.527914921288911" lon="121.00117390904369"><ele>4.75</ele><time>2026-04-16T08:28:24Z</time></trkpt><trkpt lat="14.527995925561957" lon="121.00129261850782"><ele>5.0</ele><time>2026-04-16T08:28:25Z</time></trkpt><trkpt lat="14.528081522916539" lon="121.00141907240221"><ele>5.0</ele><time>2026-04-16T08:28:26Z</time></trkpt><trkpt lat="14.528142425557386" lon="121.00154883270672"><ele>5.0</ele><time>2026-04-16T08:28:27Z</time></trkpt><trkpt lat="14.528204605859301" lon="121.00168489630622"><ele>5.0</ele><time>2026-04-16T08:28:28Z</time></trkpt><trkpt lat="14.528251202808796" lon="121.00181336471995"><ele>5.0</ele><time>2026-04-16T08:28:29Z</time></trkpt><trkpt lat="14.528279304141558" lon="121.00195106117164"><ele>5.333333333333334</ele><time>2026-04-16T08:28:30Z</time></trkpt><trkpt lat="14.528306410162099" lon="121.0020951080997"><ele>5.666666666666667</ele><time>2026-04-16T08:28:31Z</time></trkpt><trkpt lat="14.52828389199839" lon="121.00239340116175"><ele>6.0</ele><time>2026-04-16T08:28:33Z</time></trkpt><trkpt lat="14.528260584053875" lon="121.00254010139908"><ele>6.0</ele><time>2026-04-16T08:28:34Z</time></trkpt><trkpt lat="14.5282320454873" lon="121.00267747617008"><ele>6.0</ele><time>2026-04-16T08:28:35Z</time></trkpt><trkpt lat="14.528207880851733" lon="121.0028168303219"><ele>6.0</ele><time>2026-04-16T08:28:36Z</time></trkpt><trkpt lat="14.528181949563399" lon="121.00294759392213"><ele>6.0</ele><time>2026-04-16T08:28:37Z</time></trkpt><trkpt lat="14.528154654402197" lon="121.0030888940872"><ele>6.0</ele><time>2026-04-16T08:28:38Z</time></trkpt><trkpt lat="14.52813441348139" lon="121.00321733486335"><ele>6.0</ele><time>2026-04-16T08:28:39Z</time></trkpt><trkpt lat="14.528106724023077" lon="121.0033370802961"><ele>6.0</ele><time>2026-04-16T08:28:40Z</time></trkpt><trkpt lat="14.528083637370418" lon="121.00345557603663"><ele>6.0</ele><time>2026-04-16T08:28:41.001Z</time></trkpt><trkpt lat="14.528056482651381" lon="121.0035798674924"><ele>6.0</ele><time>2026-04-16T08:28:42.001Z</time></trkpt><trkpt lat="14.52802598074314" lon="121.00370282627453"><ele>6.0</ele><time>2026-04-16T08:28:43.001Z</time></trkpt><trkpt lat="14.527996058939017" lon="121.00382218270421"><ele>6.0</ele><time>2026-04-16T08:28:44.001Z</time></trkpt><trkpt lat="14.527974949699379" lon="121.0039509969916"><ele>6.0</ele><time>2026-04-16T08:28:45.001Z</time></trkpt><trkpt lat="14.52794986243451" lon="121.00406245213804"><ele>6.199999999999999</ele><time>2026-04-16T08:28:46.001Z</time></trkpt><trkpt lat="14.527930066243163" lon="121.00417174238773"><ele>6.3999999999999995</ele><time>2026-04-16T08:28:47.001Z</time></trkpt><trkpt lat="14.527908404480131" lon="121.00428101817963"><ele>6.6</ele><time>2026-04-16T08:28:48.001Z</time></trkpt><trkpt lat="14.527893994409528" lon="121.0043839030812"><ele>6.8</ele><time>2026-04-16T08:28:49.001Z</time></trkpt><trkpt lat="14.527878262868473" lon="121.00446634038808"><ele>7.0</ele><time>2026-04-16T08:28:50.001Z</time></trkpt><trkpt lat="14.527864699836089" lon="121.00457901607899"><ele>7.0</ele><time>2026-04-16T08:28:52.001Z</time></trkpt><trkpt lat="14.527820933323119" lon="121.00470405307219"><ele>6.999999999999999</ele><time>2026-04-16T08:30:45Z</time></trkpt><trkpt lat="14.527914951931512" lon="121.00484381536658"><ele>6.999999999999999</ele><time>2026-04-16T08:30:48Z</time></trkpt><trkpt lat="14.527973808431776" lon="121.0048741182654"><ele>7.0</ele><time>2026-04-16T08:30:49Z</time></trkpt><trkpt lat="14.528039779804587" lon="121.0048866363631"><ele>7.0</ele><time>2026-04-16T08:30:50Z</time></trkpt><trkpt lat="14.528120627671598" lon="121.00489001553628"><ele>7.0</ele><time>2026-04-16T08:30:51Z</time></trkpt><trkpt lat="14.528210122439557" lon="121.00488874229876"><ele>6.999999999999999</ele><time>2026-04-16T08:30:52Z</time></trkpt><trkpt lat="14.528301677659332" lon="121.00488370955219"><ele>6.999999999999999</ele><time>2026-04-16T08:30:53Z</time></trkpt><trkpt lat="14.52841205741987" lon="121.00488228649769"><ele>7.0</ele><time>2026-04-16T08:30:54Z</time></trkpt><trkpt lat="14.528517525568123" lon="121.0048786415532"><ele>7.0</ele><time>2026-04-16T08:30:55Z</time></trkpt><trkpt lat="14.528635737811761" lon="121.00487278635335"><ele>7.25</ele><time>2026-04-16T08:30:56Z</time></trkpt><trkpt lat="14.528749050947914" lon="121.00486742159083"><ele>7.5</ele><time>2026-04-16T08:30:57Z</time></trkpt><trkpt lat="14.528867121941115" lon="121.00486307809933"><ele>7.75</ele><time>2026-04-16T08:30:58Z</time></trkpt><trkpt lat="14.528988145244885" lon="121.00486014685133"><ele>8.0</ele><time>2026-04-16T08:30:59Z</time></trkpt><trkpt lat="14.529101802989574" lon="121.00485324437635"><ele>8.0</ele><time>2026-04-16T08:31:00Z</time></trkpt><trkpt lat="14.529219300420221" lon="121.00483781391094"><ele>8.0</ele><time>2026-04-16T08:31:01Z</time></trkpt><trkpt lat="14.529336575869161" lon="121.00482109928477"><ele>8.0</ele><time>2026-04-16T08:31:02Z</time></trkpt><trkpt lat="14.529452329605444" lon="121.00479826352381"><ele>8.0</ele><time>2026-04-16T08:31:03Z</time></trkpt><trkpt lat="14.529553205741502" lon="121.00477805318525"><ele>7.800000000000001</ele><time>2026-04-16T08:31:04Z</time></trkpt><trkpt lat="14.529642154782008" lon="121.00475858130628"><ele>7.6000000000000005</ele><time>2026-04-16T08:31:05Z</time></trkpt><trkpt lat="14.529726218379306" lon="121.00473082808745"><ele>7.3999999999999995</ele><time>2026-04-16T08:31:06Z</time></trkpt><trkpt lat="14.529874025877659" lon="121.0046957490265"><ele>7.199999999999999</ele><time>2026-04-16T08:31:09Z</time></trkpt><trkpt lat="14.529948982507605" lon="121.00467115442407"><ele>7.0</ele><time>2026-04-16T08:31:11Z</time></trkpt><trkpt lat="14.530014608317742" lon="121.00464101165173"><ele>7.000000000000001</ele><time>2026-04-16T08:31:12Z</time></trkpt><trkpt lat="14.53014165106952" lon="121.00459954612414"><ele>7.0</ele><time>2026-04-16T08:31:14Z</time></trkpt><trkpt lat="14.530237030798375" lon="121.00457096741253"><ele>7.0</ele><time>2026-04-16T08:31:16Z</time></trkpt><trkpt lat="14.530299875270734" lon="121.0045463763388"><ele>7.0</ele><time>2026-04-16T08:31:20Z</time></trkpt><trkpt lat="14.530363452762293" lon="121.00452342573358"><ele>7.000000000000001</ele><time>2026-04-16T08:31:26Z</time></trkpt><trkpt lat="14.530433451345562" lon="121.00450380996476"><ele>7.0</ele><time>2026-04-16T08:31:31Z</time></trkpt><trkpt lat="14.530582201846785" lon="121.00449630836192"><ele>6.75</ele><time>2026-04-16T08:31:36Z</time></trkpt><trkpt lat="14.530668249974722" lon="121.0045196427822"><ele>6.5</ele><time>2026-04-16T08:31:38Z</time></trkpt><trkpt lat="14.530817835738016" lon="121.00450367636711"><ele>6.25</ele><time>2026-04-16T08:31:40Z</time></trkpt><trkpt lat="14.53098605010508" lon="121.00442704703043"><ele>6.0</ele><time>2026-04-16T08:31:41Z</time></trkpt><trkpt lat="14.531136686776092" lon="121.00436864990759"><ele>6.25</ele><time>2026-04-16T08:31:42Z</time></trkpt><trkpt lat="14.531251031614431" lon="121.00433495419395"><ele>6.5</ele><time>2026-04-16T08:31:43Z</time></trkpt><trkpt lat="14.53137727332904" lon="121.00429338123763"><ele>6.75</ele><time>2026-04-16T08:31:44Z</time></trkpt><trkpt lat="14.531490269414943" lon="121.00426311069923"><ele>7.0</ele><time>2026-04-16T08:31:45Z</time></trkpt><trkpt lat="14.5315959364737" lon="121.00423073129718"><ele>7.0</ele><time>2026-04-16T08:31:46Z</time></trkpt><trkpt lat="14.531689880583261" lon="121.00420181266352"><ele>6.999999999999999</ele><time>2026-04-16T08:31:47Z</time></trkpt><trkpt lat="14.531770691106939" lon="121.0041776933706"><ele>6.999999999999999</ele><time>2026-04-16T08:31:48Z</time></trkpt><trkpt lat="14.53188094858358" lon="121.00416152032085"><ele>7.0</ele><time>2026-04-16T08:31:50Z</time></trkpt><trkpt lat="14.531974622887423" lon="121.00414252174653"><ele>7.0</ele><time>2026-04-16T08:31:52Z</time></trkpt><trkpt lat="14.532181655376066" lon="121.00406422089429"><ele>6.333333333333334</ele><time>2026-04-16T08:31:56Z</time></trkpt><trkpt lat="14.532243481390797" lon="121.00404102567313"><ele>5.666666666666667</ele><time>2026-04-16T08:31:57Z</time></trkpt><trkpt lat="14.53230320675365" lon="121.00401827046036"><ele>5.0</ele><time>2026-04-16T08:31:58Z</time></trkpt><trkpt lat="14.532393066285042" lon="121.003991321532"><ele>4.333333333333334</ele><time>2026-04-16T08:32:00Z</time></trkpt><trkpt lat="14.532493687751035" lon="121.0039605219672"><ele>3.666666666666667</ele><time>2026-04-16T08:32:02Z</time></trkpt><trkpt lat="14.532599048489352" lon="121.00392308194021"><ele>3.0</ele><time>2026-04-16T08:32:04Z</time></trkpt><trkpt lat="14.532683349070254" lon="121.00389684720496"><ele>3.0</ele><time>2026-04-16T08:32:06Z</time></trkpt><trkpt lat="14.532787375117977" lon="121.00386741759021"><ele>3.0</ele><time>2026-04-16T08:32:08Z</time></trkpt><trkpt lat="14.532849166759432" lon="121.00384730910002"><ele>3.0</ele><time>2026-04-16T08:32:09Z</time></trkpt><trkpt lat="14.532912587962663" lon="121.00382553176132"><ele>3.0</ele><time>2026-04-16T08:32:10Z</time></trkpt><trkpt lat="14.53302727122939" lon="121.0037915421459"><ele>3.0</ele><time>2026-04-16T08:32:12Z</time></trkpt><trkpt lat="14.533123180161297" lon="121.00376514457818"><ele>3.8</ele><time>2026-04-16T08:32:14Z</time></trkpt><trkpt lat="14.5333095439769" lon="121.00372221771629"><ele>4.6</ele><time>2026-04-16T08:32:17Z</time></trkpt><trkpt lat="14.533373161972616" lon="121.00370730797891"><ele>5.3999999999999995</ele><time>2026-04-16T08:32:18Z</time></trkpt><trkpt lat="14.533438567599543" lon="121.00369355465153"><ele>6.199999999999999</ele><time>2026-04-16T08:32:19Z</time></trkpt><trkpt lat="14.533507616516053" lon="121.00368020412282"><ele>7.0</ele><time>2026-04-16T08:32:20Z</time></trkpt><trkpt lat="14.533611859398572" lon="121.00366013645007"><ele>7.0</ele><time>2026-04-16T08:32:22Z</time></trkpt><trkpt lat="14.533717063778703" lon="121.00364458307018"><ele>6.999999999999999</ele><time>2026-04-16T08:32:24Z</time></trkpt><trkpt lat="14.533833792560955" lon="121.00361956600166"><ele>6.999999999999999</ele><time>2026-04-16T08:32:26Z</time></trkpt><trkpt lat="14.533901697910878" lon="121.00360801394721"><ele>7.0</ele><time>2026-04-16T08:32:27Z</time></trkpt><trkpt lat="14.533982064711424" lon="121.00359824851296"><ele>7.0</ele><time>2026-04-16T08:32:28Z</time></trkpt><trkpt lat="14.534073141485226" lon="121.00359047278894"><ele>7.0</ele><time>2026-04-16T08:32:29Z</time></trkpt><trkpt lat="14.534171676080668" lon="121.00358043057493"><ele>6.999999999999999</ele><time>2026-04-16T08:32:30Z</time></trkpt><trkpt lat="14.534263251882853" lon="121.00356944847398"><ele>6.999999999999999</ele><time>2026-04-16T08:32:31Z</time></trkpt><trkpt lat="14.534364823663914" lon="121.00355804317303"><ele>7.0</ele><time>2026-04-16T08:32:32Z</time></trkpt><trkpt lat="14.534469314099436" lon="121.00355201266983"><ele>7.0</ele><time>2026-04-16T08:32:33Z</time></trkpt><trkpt lat="14.534569101400523" lon="121.0035437786683"><ele>7.0</ele><time>2026-04-16T08:32:34Z</time></trkpt><trkpt lat="14.534657254416292" lon="121.003531937153"><ele>7.0</ele><time>2026-04-16T08:32:35Z</time></trkpt><trkpt lat="14.534834216684029" lon="121.00351790963553"><ele>7.0</ele><time>2026-04-16T08:32:38Z</time></trkpt><trkpt lat="14.534937693591699" lon="121.00351027869156"><ele>7.0</ele><time>2026-04-16T08:32:40Z</time></trkpt><trkpt lat="14.535081103730246" lon="121.00349433426793"><ele>7.000000000000001</ele><time>2026-04-16T08:32:42Z</time></trkpt><trkpt lat="14.535201615086702" lon="121.00348584507854"><ele>7.0</ele><time>2026-04-16T08:32:44Z</time></trkpt><trkpt lat="14.535269795379309" lon="121.00348552258029"><ele>7.0</ele><time>2026-04-16T08:32:45Z</time></trkpt><trkpt lat="14.535341760457854" lon="121.00348606732717"><ele>7.0</ele><time>2026-04-16T08:32:46Z</time></trkpt><trkpt lat="14.535406106449697" lon="121.00348440186104"><ele>7.000000000000001</ele><time>2026-04-16T08:32:47Z</time></trkpt><trkpt lat="14.535505899636528" lon="121.00348166816421"><ele>7.0</ele><time>2026-04-16T08:32:49Z</time></trkpt><trkpt lat="14.535606903584814" lon="121.0034609707805"><ele>6.75</ele><time>2026-04-16T08:32:51Z</time></trkpt><trkpt lat="14.535697809770737" lon="121.00344858677997"><ele>6.5</ele><time>2026-04-16T08:32:53Z</time></trkpt><trkpt lat="14.535785161249636" lon="121.00344407522161"><ele>6.25</ele><time>2026-04-16T08:32:55Z</time></trkpt><trkpt lat="14.535856761009649" lon="121.00343459298745"><ele>6.0</ele><time>2026-04-16T08:32:57Z</time></trkpt><trkpt lat="14.536068845322713" lon="121.00342024040226"><ele>6.0</ele><time>2026-04-16T08:33:01Z</time></trkpt><trkpt lat="14.536153132279985" lon="121.00340904169855"><ele>6.0</ele><time>2026-04-16T08:33:03Z</time></trkpt><trkpt lat="14.536223538065578" lon="121.00340751595907"><ele>6.0</ele><time>2026-04-16T08:33:05Z</time></trkpt><trkpt lat="14.536298622915526" lon="121.00339867948892"><ele>6.0</ele><time>2026-04-16T08:33:08Z</time></trkpt><trkpt lat="14.536367746895477" lon="121.00339094629176"><ele>6.0</ele><time>2026-04-16T08:33:11Z</time></trkpt><trkpt lat="14.536445030862048" lon="121.00338246044564"><ele>6.0</ele><time>2026-04-16T08:33:15Z</time></trkpt><trkpt lat="14.536534900662614" lon="121.00337458566241"><ele>5.833333333333333</ele><time>2026-04-16T08:33:18Z</time></trkpt><trkpt lat="14.536693805842956" lon="121.00337331853859"><ele>5.666666666666667</ele><time>2026-04-16T08:33:21Z</time></trkpt><trkpt lat="14.536764366052223" lon="121.00337498723108"><ele>5.5</ele><time>2026-04-16T08:33:22Z</time></trkpt><trkpt lat="14.536835126194088" lon="121.00337627561977"><ele>5.333333333333334</ele><time>2026-04-16T08:33:23Z</time></trkpt><trkpt lat="14.536905985208733" lon="121.00337790618133"><ele>5.166666666666667</ele><time>2026-04-16T08:33:24Z</time></trkpt><trkpt lat="14.53697985341849" lon="121.00337461943325"><ele>5.0</ele><time>2026-04-16T08:33:25Z</time></trkpt><trkpt lat="14.537055617652674" lon="121.00337557743015"><ele>5.0</ele><time>2026-04-16T08:33:26Z</time></trkpt><trkpt lat="14.53713717651915" lon="121.00337760640944"><ele>5.0</ele><time>2026-04-16T08:33:27Z</time></trkpt><trkpt lat="14.537238542052203" lon="121.00336726652324"><ele>5.0</ele><time>2026-04-16T08:33:28.001Z</time></trkpt><trkpt lat="14.537331278972006" lon="121.00335504766645"><ele>5.0</ele><time>2026-04-16T08:33:29.001Z</time></trkpt><trkpt lat="14.537394374210699" lon="121.00334605233104"><ele>5.0</ele><time>2026-04-16T08:33:30.001Z</time></trkpt><trkpt lat="14.537486570966266" lon="121.00333433560026"><ele>5.0</ele><time>2026-04-16T08:33:32.001Z</time></trkpt><trkpt lat="14.53755049086232" lon="121.00333695796492"><ele>5.0</ele><time>2026-04-16T08:33:41Z</time></trkpt><trkpt lat="14.537681587775523" lon="121.00342203688658"><ele>5.0</ele><time>2026-04-16T08:33:48Z</time></trkpt><trkpt lat="14.53770229890431" lon="121.00355870506763"><ele>5.0</ele><time>2026-04-16T08:33:50Z</time></trkpt><trkpt lat="14.53772310168733" lon="121.00364653602776"><ele>5.0</ele><time>2026-04-16T08:33:51Z</time></trkpt><trkpt lat="14.537741354268766" lon="121.00374531943659"><ele>5.0</ele><time>2026-04-16T08:33:52Z</time></trkpt><trkpt lat="14.537757095804027" lon="121.00385397375953"><ele>5.0</ele><time>2026-04-16T08:33:53Z</time></trkpt><trkpt lat="14.537776650992749" lon="121.00396294332195"><ele>5.0</ele><time>2026-04-16T08:33:54Z</time></trkpt><trkpt lat="14.53779548819309" lon="121.00407740096206"><ele>5.0</ele><time>2026-04-16T08:33:55Z</time></trkpt><trkpt lat="14.537809005471479" lon="121.00419991548533"><ele>5.0</ele><time>2026-04-16T08:33:56Z</time></trkpt><trkpt lat="14.537822681795527" lon="121.0043222591129"><ele>5.5</ele><time>2026-04-16T08:33:57Z</time></trkpt><trkpt lat="14.537832503394187" lon="121.00445176155725"><ele>6.0</ele><time>2026-04-16T08:33:58Z</time></trkpt><trkpt lat="14.537841043876174" lon="121.00457891188792"><ele>6.5</ele><time>2026-04-16T08:33:59Z</time></trkpt><trkpt lat="14.537846855200614" lon="121.00469994158055"><ele>7.0</ele><time>2026-04-16T08:34:00Z</time></trkpt><trkpt lat="14.537912549550391" lon="121.00489991652641"><ele>7.333333333333334</ele><time>2026-04-16T08:34:01Z</time></trkpt><trkpt lat="14.537928514387056" lon="121.00502389005766"><ele>7.666666666666666</ele><time>2026-04-16T08:34:02Z</time></trkpt><trkpt lat="14.53796476029761" lon="121.00527220327811"><ele>8.0</ele><time>2026-04-16T08:34:04Z</time></trkpt><trkpt lat="14.53798351851321" lon="121.00540596266659"><ele>8.0</ele><time>2026-04-16T08:34:05Z</time></trkpt><trkpt lat="14.537999019752743" lon="121.00554478649025"><ele>8.0</ele><time>2026-04-16T08:34:06Z</time></trkpt><trkpt lat="14.53801414005812" lon="121.00568489697406"><ele>8.0</ele><time>2026-04-16T08:34:07Z</time></trkpt><trkpt lat="14.538026447465349" lon="121.00582350864882"><ele>8.0</ele><time>2026-04-16T08:34:08Z</time></trkpt><trkpt lat="14.538036168084135" lon="121.00595044187472"><ele>8.25</ele><time>2026-04-16T08:34:09Z</time></trkpt><trkpt lat="14.53804419690872" lon="121.00607863352667"><ele>8.5</ele><time>2026-04-16T08:34:10Z</time></trkpt><trkpt lat="14.53805487855051" lon="121.00620806369618"><ele>8.75</ele><time>2026-04-16T08:34:11Z</time></trkpt><trkpt lat="14.538064849079051" lon="121.00634027341563"><ele>9.0</ele><time>2026-04-16T08:34:12Z</time></trkpt><trkpt lat="14.538079394792003" lon="121.00647359244874"><ele>9.0</ele><time>2026-04-16T08:34:13Z</time></trkpt><trkpt lat="14.538091968713506" lon="121.00660960463529"><ele>9.0</ele><time>2026-04-16T08:34:14Z</time></trkpt><trkpt lat="14.53811162749872" lon="121.00674667401364"><ele>9.0</ele><time>2026-04-16T08:34:15Z</time></trkpt><trkpt lat="14.538138418739623" lon="121.00688526539976"><ele>9.0</ele><time>2026-04-16T08:34:16Z</time></trkpt><trkpt lat="14.53816474852949" lon="121.0070292720425"><ele>8.333333333333334</ele><time>2026-04-16T08:34:17Z</time></trkpt><trkpt lat="14.538185729214092" lon="121.00718093167337"><ele>7.666666666666667</ele><time>2026-04-16T08:34:18Z</time></trkpt><trkpt lat="14.53820513411551" lon="121.0073367299842"><ele>7.0</ele><time>2026-04-16T08:34:19Z</time></trkpt><trkpt lat="14.538229665892105" lon="121.00749837954494"><ele>7.0</ele><time>2026-04-16T08:34:20Z</time></trkpt><trkpt lat="14.538245531734056" lon="121.00766529267483"><ele>7.0</ele><time>2026-04-16T08:34:21Z</time></trkpt><trkpt lat="14.538262353332282" lon="121.00783711064298"><ele>7.0</ele><time>2026-04-16T08:34:22Z</time></trkpt><trkpt lat="14.538286207911577" lon="121.00801199739638"><ele>7.5</ele><time>2026-04-16T08:34:23Z</time></trkpt><trkpt lat="14.53833194431144" lon="121.0083601623288"><ele>8.0</ele><time>2026-04-16T08:34:25Z</time></trkpt><trkpt lat="14.538349223961726" lon="121.00853551263889"><ele>8.0</ele><time>2026-04-16T08:34:26Z</time></trkpt><trkpt lat="14.538368061479272" lon="121.00870851000478"><ele>8.0</ele><time>2026-04-16T08:34:27Z</time></trkpt><trkpt lat="14.538387544172272" lon="121.00888138826805"><ele>8.0</ele><time>2026-04-16T08:34:28Z</time></trkpt><trkpt lat="14.538410211090724" lon="121.0090574840911"><ele>8.0</ele><time>2026-04-16T08:34:29Z</time></trkpt><trkpt lat="14.538430487497921" lon="121.00923405888385"><ele>8.0</ele><time>2026-04-16T08:34:30Z</time></trkpt><trkpt lat="14.53845009937989" lon="121.00940944300889"><ele>8.0</ele><time>2026-04-16T08:34:31Z</time></trkpt><trkpt lat="14.538472500364898" lon="121.00958634849881"><ele>8.0</ele><time>2026-04-16T08:34:32Z</time></trkpt><trkpt lat="14.53849341213126" lon="121.00975263643484"><ele>8.0</ele><time>2026-04-16T08:34:33Z</time></trkpt><trkpt lat="14.538513595256257" lon="121.00990633844513"><ele>8.0</ele><time>2026-04-16T08:34:34Z</time></trkpt><trkpt lat="14.538531409854247" lon="121.01005830340424"><ele>7.75</ele><time>2026-04-16T08:34:35Z</time></trkpt><trkpt lat="14.53855080835357" lon="121.0101977675479"><ele>7.5</ele><time>2026-04-16T08:34:36Z</time></trkpt><trkpt lat="14.538567290027883" lon="121.01033496060937"><ele>7.25</ele><time>2026-04-16T08:34:37Z</time></trkpt><trkpt lat="14.53858318944327" lon="121.01046194790743"><ele>7.0</ele><time>2026-04-16T08:34:38Z</time></trkpt><trkpt lat="14.538608113448564" lon="121.01058294000804"><ele>7.0</ele><time>2026-04-16T08:34:39Z</time></trkpt><trkpt lat="14.538623403764664" lon="121.01070462073663"><ele>7.0</ele><time>2026-04-16T08:34:40Z</time></trkpt><trkpt lat="14.53864051665803" lon="121.01081007227546"><ele>7.0</ele><time>2026-04-16T08:34:41Z</time></trkpt><trkpt lat="14.538660558080151" lon="121.01092625568161"><ele>7.0</ele><time>2026-04-16T08:34:42Z</time></trkpt><trkpt lat="14.538679654301662" lon="121.011043442098"><ele>6.666666666666667</ele><time>2026-04-16T08:34:43Z</time></trkpt><trkpt lat="14.538698381303432" lon="121.01116380355057"><ele>6.333333333333334</ele><time>2026-04-16T08:34:44Z</time></trkpt><trkpt lat="14.538731914907492" lon="121.01140418541591"><ele>6.0</ele><time>2026-04-16T08:34:46Z</time></trkpt><trkpt lat="14.538749265908164" lon="121.01152962334037"><ele>6.5</ele><time>2026-04-16T08:34:47Z</time></trkpt><trkpt lat="14.538767571563868" lon="121.0116524276006"><ele>7.0</ele><time>2026-04-16T08:34:48Z</time></trkpt><trkpt lat="14.538779959091597" lon="121.01178891402435"><ele>7.5</ele><time>2026-04-16T08:34:49Z</time></trkpt><trkpt lat="14.538791818591834" lon="121.01192693449721"><ele>8.0</ele><time>2026-04-16T08:34:50Z</time></trkpt><trkpt lat="14.538811056912971" lon="121.0120670647201"><ele>8.25</ele><time>2026-04-16T08:34:51Z</time></trkpt><trkpt lat="14.538833128444814" lon="121.0122147724093"><ele>8.5</ele><time>2026-04-16T08:34:52Z</time></trkpt><trkpt lat="14.538858764487799" lon="121.01236480651075"><ele>8.75</ele><time>2026-04-16T08:34:53Z</time></trkpt><trkpt lat="14.538884247477084" lon="121.01251878817732"><ele>9.0</ele><time>2026-04-16T08:34:54Z</time></trkpt><trkpt lat="14.538911414164629" lon="121.01267367638306"><ele>9.0</ele><time>2026-04-16T08:34:55Z</time></trkpt><trkpt lat="14.53893908194658" lon="121.01283293211672"><ele>9.0</ele><time>2026-04-16T08:34:56Z</time></trkpt><trkpt lat="14.538963061043468" lon="121.0129941211621"><ele>9.0</ele><time>2026-04-16T08:34:57Z</time></trkpt><trkpt lat="14.538984906360996" lon="121.01314943686086"><ele>9.0</ele><time>2026-04-16T08:34:58Z</time></trkpt><trkpt lat="14.539008688341193" lon="121.01329133129184"><ele>9.0</ele><time>2026-04-16T08:34:59Z</time></trkpt><trkpt lat="14.539029677372945" lon="121.01341708339466"><ele>9.0</ele><time>2026-04-16T08:35:00Z</time></trkpt><trkpt lat="14.539044204757804" lon="121.01352633766606"><ele>9.0</ele><time>2026-04-16T08:35:01Z</time></trkpt><trkpt lat="14.539057084133846" lon="121.01362601159789"><ele>9.0</ele><time>2026-04-16T08:35:02Z</time></trkpt><trkpt lat="14.539063440898747" lon="121.01371427420291"><ele>9.0</ele><time>2026-04-16T08:35:03Z</time></trkpt><trkpt lat="14.539071940392366" lon="121.01378209347587"><ele>9.0</ele><time>2026-04-16T08:35:04Z</time></trkpt><trkpt lat="14.539092653133471" lon="121.01388186252179"><ele>9.0</ele><time>2026-04-16T08:35:06Z</time></trkpt><trkpt lat="14.539131844496662" lon="121.01403250220802"><ele>9.0</ele><time>2026-04-16T08:35:11Z</time></trkpt><trkpt lat="14.539142167552265" lon="121.01409759806397"><ele>8.6</ele><time>2026-04-16T08:35:15Z</time></trkpt><trkpt lat="14.539171517410972" lon="121.01416645782714"><ele>8.2</ele><time>2026-04-16T08:35:24Z</time></trkpt><trkpt lat="14.539191258524303" lon="121.0142333317714"><ele>7.799999999999999</ele><time>2026-04-16T08:35:25Z</time></trkpt><trkpt lat="14.5392097261752" lon="121.01430510785562"><ele>7.3999999999999995</ele><time>2026-04-16T08:35:26Z</time></trkpt><trkpt lat="14.539234489047086" lon="121.01438728927317"><ele>7.0</ele><time>2026-04-16T08:35:27Z</time></trkpt><trkpt lat="14.53928954997274" lon="121.01457131410534"><ele>7.000000000000001</ele><time>2026-04-16T08:35:29Z</time></trkpt><trkpt lat="14.539306427614466" lon="121.01463922348648"><ele>7.0</ele><time>2026-04-16T08:35:30Z</time></trkpt><trkpt lat="14.539330392057586" lon="121.01472003451117"><ele>7.0</ele><time>2026-04-16T08:35:31Z</time></trkpt><trkpt lat="14.539354681601845" lon="121.01479630022611"><ele>7.0</ele><time>2026-04-16T08:35:32Z</time></trkpt><trkpt lat="14.53937403672232" lon="121.01486335590884"><ele>7.000000000000001</ele><time>2026-04-16T08:35:33Z</time></trkpt><trkpt lat="14.539397014403558" lon="121.01493393099054"><ele>7.0</ele><time>2026-04-16T08:35:34Z</time></trkpt><trkpt lat="14.539430978742356" lon="121.01504782981208"><ele>7.166666666666667</ele><time>2026-04-16T08:35:36Z</time></trkpt><trkpt lat="14.539455404332607" lon="121.01510833455417"><ele>7.333333333333334</ele><time>2026-04-16T08:35:37Z</time></trkpt><trkpt lat="14.539491513282558" lon="121.01520275771976"><ele>7.5</ele><time>2026-04-16T08:35:39Z</time></trkpt><trkpt lat="14.53952580126368" lon="121.01530735309342"><ele>7.666666666666666</ele><time>2026-04-16T08:35:41Z</time></trkpt><trkpt lat="14.539551098610831" lon="121.01536918872189"><ele>7.833333333333333</ele><time>2026-04-16T08:35:42Z</time></trkpt><trkpt lat="14.539587835686259" lon="121.0154718303137"><ele>8.0</ele><time>2026-04-16T08:35:44Z</time></trkpt><trkpt lat="14.539627684163923" lon="121.01556841328737"><ele>8.8</ele><time>2026-04-16T08:35:46Z</time></trkpt><trkpt lat="14.5396693220635" lon="121.01565834038048"><ele>9.600000000000001</ele><time>2026-04-16T08:35:48Z</time></trkpt><trkpt lat="14.539756132043587" lon="121.01582389690269"><ele>10.399999999999999</ele><time>2026-04-16T08:35:51Z</time></trkpt><trkpt lat="14.539789673715074" lon="121.01588763738357"><ele>11.2</ele><time>2026-04-16T08:35:52Z</time></trkpt><trkpt lat="14.539824453139795" lon="121.01595682279478"><ele>12.0</ele><time>2026-04-16T08:35:53Z</time></trkpt><trkpt lat="14.539857644327778" lon="121.01603294530598"><ele>12.0</ele><time>2026-04-16T08:35:54Z</time></trkpt><trkpt lat="14.539879310674188" lon="121.01612174716941"><ele>12.0</ele><time>2026-04-16T08:35:55Z</time></trkpt><trkpt lat="14.539888748793155" lon="121.01620724157883"><ele>12.0</ele><time>2026-04-16T08:35:56Z</time></trkpt><trkpt lat="14.539883121743431" lon="121.01628947291218"><ele>12.0</ele><time>2026-04-16T08:35:57Z</time></trkpt><trkpt lat="14.539884786281352" lon="121.01636313112928"><ele>12.0</ele><time>2026-04-16T08:35:58Z</time></trkpt><trkpt lat="14.539864576256283" lon="121.01643182349079"><ele>12.0</ele><time>2026-04-16T08:35:59Z</time></trkpt><trkpt lat="14.539830675260184" lon="121.01650128412588"><ele>12.0</ele><time>2026-04-16T08:36:00Z</time></trkpt><trkpt lat="14.539792428310294" lon="121.01658305698193"><ele>12.0</ele><time>2026-04-16T08:36:01Z</time></trkpt><trkpt lat="14.53975474143791" lon="121.01665573477837"><ele>12.0</ele><time>2026-04-16T08:36:02Z</time></trkpt><trkpt lat="14.53972232449089" lon="121.01673451251922"><ele>12.0</ele><time>2026-04-16T08:36:03Z</time></trkpt><trkpt lat="14.539700816444519" lon="121.01680279971752"><ele>12.0</ele><time>2026-04-16T08:36:04Z</time></trkpt><trkpt lat="14.539686670207221" lon="121.01686672019775"><ele>12.0</ele><time>2026-04-16T08:36:05Z</time></trkpt><trkpt lat="14.539692874824004" lon="121.01697124109442"><ele>11.8</ele><time>2026-04-16T08:36:07Z</time></trkpt><trkpt lat="14.539739611804798" lon="121.01701712216092"><ele>11.6</ele><time>2026-04-16T08:36:12Z</time></trkpt><trkpt lat="14.539860643605753" lon="121.01703211003749"><ele>11.4</ele><time>2026-04-16T08:36:23Z</time></trkpt><trkpt lat="14.539954009880763" lon="121.01698724814703"><ele>11.200000000000001</ele><time>2026-04-16T08:36:27Z</time></trkpt><trkpt lat="14.54003322647721" lon="121.01693385894308"><ele>11.0</ele><time>2026-04-16T08:36:30Z</time></trkpt><trkpt lat="14.540124334275427" lon="121.01689605449022"><ele>11.0</ele><time>2026-04-16T08:36:33Z</time></trkpt><trkpt lat="14.540272727002522" lon="121.01680752272179"><ele>11.0</ele><time>2026-04-16T08:36:44Z</time></trkpt><trkpt lat="14.540337051010075" lon="121.01677228621838"><ele>11.0</ele><time>2026-04-16T08:36:49Z</time></trkpt><trkpt lat="14.540446490437319" lon="121.01675069633335"><ele>11.0</ele><time>2026-04-16T08:36:51Z</time></trkpt><trkpt lat="14.540517108806752" lon="121.0167467868258"><ele>11.0</ele><time>2026-04-16T08:36:52Z</time></trkpt><trkpt lat="14.54059698329849" lon="121.01672307496173"><ele>11.25</ele><time>2026-04-16T08:36:53Z</time></trkpt><trkpt lat="14.540688393522197" lon="121.01667581846121"><ele>11.5</ele><time>2026-04-16T08:36:54Z</time></trkpt><trkpt lat="14.540862493396164" lon="121.01656364878957"><ele>11.75</ele><time>2026-04-16T08:36:56Z</time></trkpt><trkpt lat="14.540965192342817" lon="121.01651941405896"><ele>12.0</ele><time>2026-04-16T08:36:57Z</time></trkpt><trkpt lat="14.541035577991746" lon="121.01647769090769"><ele>12.0</ele><time>2026-04-16T08:36:58Z</time></trkpt><trkpt lat="14.54112808462018" lon="121.01639627540558"><ele>12.0</ele><time>2026-04-16T08:36:59Z</time></trkpt><trkpt lat="14.541206115894635" lon="121.01631766662584"><ele>12.0</ele><time>2026-04-16T08:37:00Z</time></trkpt><trkpt lat="14.541276005217265" lon="121.0162913167553"><ele>12.0</ele><time>2026-04-16T08:37:02Z</time></trkpt><trkpt lat="14.541341902197997" lon="121.01626661242862"><ele>12.0</ele><time>2026-04-16T08:37:05Z</time></trkpt><trkpt lat="14.541418551048807" lon="121.0162433366248"><ele>11.75</ele><time>2026-04-16T08:37:09Z</time></trkpt><trkpt lat="14.541536704169644" lon="121.01621639951375"><ele>11.5</ele><time>2026-04-16T08:37:22Z</time></trkpt><trkpt lat="14.541697960360622" lon="121.01615189970514"><ele>11.25</ele><time>2026-04-16T08:37:38Z</time></trkpt><trkpt lat="14.541758251301404" lon="121.01612500025587"><ele>11.0</ele><time>2026-04-16T08:37:39Z</time></trkpt><trkpt lat="14.541848890528648" lon="121.0160885114403"><ele>11.0</ele><time>2026-04-16T08:37:42Z</time></trkpt><trkpt lat="14.541922075733208" lon="121.01605254956365"><ele>11.0</ele><time>2026-04-16T08:37:44Z</time></trkpt><trkpt lat="14.542065501402428" lon="121.01597541515136"><ele>11.0</ele><time>2026-04-16T08:37:48Z</time></trkpt><trkpt lat="14.542153992800632" lon="121.01594200681409"><ele>11.0</ele><time>2026-04-16T08:37:51Z</time></trkpt><trkpt lat="14.542232618683288" lon="121.01591594676641"><ele>11.0</ele><time>2026-04-16T08:37:53Z</time></trkpt><trkpt lat="14.542345861438697" lon="121.01587714795913"><ele>10.666666666666666</ele><time>2026-04-16T08:37:55Z</time></trkpt><trkpt lat="14.542407602258734" lon="121.0158521076235"><ele>10.333333333333332</ele><time>2026-04-16T08:37:56Z</time></trkpt><trkpt lat="14.542468463484756" lon="121.01582760610682"><ele>10.0</ele><time>2026-04-16T08:37:57Z</time></trkpt><trkpt lat="14.542534061087444" lon="121.01580070951312"><ele>9.666666666666666</ele><time>2026-04-16T08:37:58Z</time></trkpt><trkpt lat="14.54259720633152" lon="121.01577377608852"><ele>9.333333333333334</ele><time>2026-04-16T08:37:59Z</time></trkpt><trkpt lat="14.542702688550413" lon="121.01571799610552"><ele>9.0</ele><time>2026-04-16T08:38:01Z</time></trkpt><trkpt lat="14.54276531467187" lon="121.01568656239522"><ele>9.6</ele><time>2026-04-16T08:38:02Z</time></trkpt><trkpt lat="14.54285133120814" lon="121.01563611560859"><ele>10.2</ele><time>2026-04-16T08:38:04Z</time></trkpt><trkpt lat="14.542912643202408" lon="121.0156000965057"><ele>10.799999999999999</ele><time>2026-04-16T08:38:06Z</time></trkpt><trkpt lat="14.543046629816223" lon="121.01553237117403"><ele>11.4</ele><time>2026-04-16T08:38:12Z</time></trkpt><trkpt lat="14.54311414911331" lon="121.0155004994413"><ele>12.0</ele><time>2026-04-16T08:38:17Z</time></trkpt><trkpt lat="14.54318030894829" lon="121.01546523565717"><ele>12.0</ele><time>2026-04-16T08:38:24Z</time></trkpt><trkpt lat="14.543260116085658" lon="121.0154509769762"><ele>12.0</ele><time>2026-04-16T08:38:32Z</time></trkpt><trkpt lat="14.543421985786244" lon="121.01538788514209"><ele>12.0</ele><time>2026-04-16T08:38:43Z</time></trkpt><trkpt lat="14.543494410293814" lon="121.0153478183215"><ele>12.0</ele><time>2026-04-16T08:38:46Z</time></trkpt><trkpt lat="14.54355508078871" lon="121.01529291120987"><ele>12.0</ele><time>2026-04-16T08:38:49Z</time></trkpt><trkpt lat="14.543634032915362" lon="121.01525251994273"><ele>12.0</ele><time>2026-04-16T08:38:52Z</time></trkpt><trkpt lat="14.543677443120822" lon="121.01520508505236"><ele>12.0</ele><time>2026-04-16T08:38:57Z</time></trkpt><trkpt lat="14.543806686607923" lon="121.01515112714391"><ele>12.0</ele><time>2026-04-16T08:39:08Z</time></trkpt><trkpt lat="14.543854071554666" lon="121.01509704124152"><ele>12.0</ele><time>2026-04-16T08:39:15Z</time></trkpt><trkpt lat="14.544041868532355" lon="121.01498357968399"><ele>12.0</ele><time>2026-04-16T08:39:28Z</time></trkpt><trkpt lat="14.544231940327686" lon="121.01487679050234"><ele>12.0</ele><time>2026-04-16T08:39:32Z</time></trkpt><trkpt lat="14.544307964196863" lon="121.0148389081491"><ele>12.0</ele><time>2026-04-16T08:39:33Z</time></trkpt><trkpt lat="14.544395257902144" lon="121.01479289936773"><ele>12.0</ele><time>2026-04-16T08:39:34Z</time></trkpt><trkpt lat="14.544493852178539" lon="121.01472868194863"><ele>12.0</ele><time>2026-04-16T08:39:35Z</time></trkpt><trkpt lat="14.544600576970266" lon="121.01468382502823"><ele>12.0</ele><time>2026-04-16T08:39:36Z</time></trkpt><trkpt lat="14.54469662321752" lon="121.0146351393125"><ele>12.0</ele><time>2026-04-16T08:39:37Z</time></trkpt><trkpt lat="14.544793625432673" lon="121.01459223456364"><ele>12.0</ele><time>2026-04-16T08:39:38Z</time></trkpt><trkpt lat="14.544872967815111" lon="121.01455560556555"><ele>12.0</ele><time>2026-04-16T08:39:39Z</time></trkpt><trkpt lat="14.544948863345732" lon="121.01451982212123"><ele>12.0</ele><time>2026-04-16T08:39:40Z</time></trkpt><trkpt lat="14.54502137488974" lon="121.01448566918245"><ele>12.0</ele><time>2026-04-16T08:39:41Z</time></trkpt><trkpt lat="14.545084114057305" lon="121.0144533084707"><ele>12.0</ele><time>2026-04-16T08:39:42Z</time></trkpt><trkpt lat="14.545150646465029" lon="121.01441972675121"><ele>12.0</ele><time>2026-04-16T08:39:43Z</time></trkpt><trkpt lat="14.54521359212742" lon="121.01438262856644"><ele>12.0</ele><time>2026-04-16T08:39:44Z</time></trkpt><trkpt lat="14.545311375763879" lon="121.01433094698926"><ele>12.0</ele><time>2026-04-16T08:39:46Z</time></trkpt><trkpt lat="14.545409211410156" lon="121.01429599719505"><ele>11.6</ele><time>2026-04-16T08:39:48Z</time></trkpt><trkpt lat="14.54546723066499" lon="121.01423254149469"><ele>11.2</ele><time>2026-04-16T08:39:50Z</time></trkpt><trkpt lat="14.545626623914574" lon="121.01419126635938"><ele>10.8</ele><time>2026-04-16T08:39:56Z</time></trkpt><trkpt lat="14.54570189952082" lon="121.0141620249518"><ele>10.4</ele><time>2026-04-16T08:39:59Z</time></trkpt><trkpt lat="14.54576992413043" lon="121.01414996931068"><ele>10.0</ele><time>2026-04-16T08:40:07Z</time></trkpt><trkpt lat="14.545830911226775" lon="121.01413103084181"><ele>10.0</ele><time>2026-04-16T08:40:11Z</time></trkpt><trkpt lat="14.545995206644902" lon="121.01399244783786"><ele>10.0</ele><time>2026-04-16T08:40:15Z</time></trkpt><trkpt lat="14.546058960704995" lon="121.01401466626137"><ele>10.0</ele><time>2026-04-16T08:40:18Z</time></trkpt><trkpt lat="14.546135048567596" lon="121.01396526823181"><ele>10.0</ele><time>2026-04-16T08:40:20Z</time></trkpt><trkpt lat="14.546207229450362" lon="121.01393418061478"><ele>10.0</ele><time>2026-04-16T08:40:22Z</time></trkpt><trkpt lat="14.546279990423598" lon="121.01390827108807"><ele>10.5</ele><time>2026-04-16T08:40:24Z</time></trkpt><trkpt lat="14.546337207153657" lon="121.01386296001402"><ele>11.0</ele><time>2026-04-16T08:40:25Z</time></trkpt><trkpt lat="14.546400951703978" lon="121.0138282031137"><ele>11.5</ele><time>2026-04-16T08:40:26Z</time></trkpt><trkpt lat="14.546475326108828" lon="121.01379303812608"><ele>12.0</ele><time>2026-04-16T08:40:27Z</time></trkpt><trkpt lat="14.54655310444843" lon="121.01375356314358"><ele>12.499999999999998</ele><time>2026-04-16T08:40:28Z</time></trkpt><trkpt lat="14.54661537073524" lon="121.01369167658723"><ele>13.0</ele><time>2026-04-16T08:40:29Z</time></trkpt><trkpt lat="14.546681405999157" lon="121.01365945396151"><ele>13.0</ele><time>2026-04-16T08:40:30Z</time></trkpt><trkpt lat="14.546751194722276" lon="121.01362764696998"><ele>13.0</ele><time>2026-04-16T08:40:31Z</time></trkpt><trkpt lat="14.54681159604124" lon="121.01359550815846"><ele>13.0</ele><time>2026-04-16T08:40:32Z</time></trkpt><trkpt lat="14.5469643095018" lon="121.01354121029966"><ele>13.0</ele><time>2026-04-16T08:40:35Z</time></trkpt><trkpt lat="14.547070289913881" lon="121.01347600949394"><ele>13.0</ele><time>2026-04-16T08:40:37Z</time></trkpt><trkpt lat="14.547154770265847" lon="121.01344222563418"><ele>13.333333333333332</ele><time>2026-04-16T08:40:38Z</time></trkpt><trkpt lat="14.547219981537323" lon="121.01339335565208"><ele>13.666666666666666</ele><time>2026-04-16T08:40:39Z</time></trkpt><trkpt lat="14.547288886868271" lon="121.01334518405575"><ele>14.0</ele><time>2026-04-16T08:40:40Z</time></trkpt><trkpt lat="14.547363599777979" lon="121.01331108922676"><ele>14.333333333333332</ele><time>2026-04-16T08:40:41Z</time></trkpt><trkpt lat="14.547436965535285" lon="121.0132683951775"><ele>14.666666666666666</ele><time>2026-04-16T08:40:42Z</time></trkpt><trkpt lat="14.547499182791668" lon="121.01322268881394"><ele>15.0</ele><time>2026-04-16T08:40:43Z</time></trkpt><trkpt lat="14.54760087764243" lon="121.01317302424296"><ele>13.8</ele><time>2026-04-16T08:40:45Z</time></trkpt><trkpt lat="14.547721907582714" lon="121.01312778130507"><ele>12.6</ele><time>2026-04-16T08:40:47Z</time></trkpt><trkpt lat="14.547792723797892" lon="121.0130972119296"><ele>11.4</ele><time>2026-04-16T08:40:48Z</time></trkpt><trkpt lat="14.54787558539917" lon="121.01305477405042"><ele>10.2</ele><time>2026-04-16T08:40:49Z</time></trkpt><trkpt lat="14.547966005024646" lon="121.01300938681743"><ele>9.0</ele><time>2026-04-16T08:40:50Z</time></trkpt><trkpt lat="14.548055145788698" lon="121.0129611902224"><ele>8.75</ele><time>2026-04-16T08:40:51Z</time></trkpt><trkpt lat="14.548131222203823" lon="121.01291881478119"><ele>8.5</ele><time>2026-04-16T08:40:52Z</time></trkpt><trkpt lat="14.548192968497839" lon="121.01280562413767"><ele>8.25</ele><time>2026-04-16T08:40:53Z</time></trkpt><trkpt lat="14.548385769207865" lon="121.01278534074714"><ele>8.0</ele><time>2026-04-16T08:40:55Z</time></trkpt><trkpt lat="14.548453210802537" lon="121.0127461495373"><ele>7.999999999999999</ele><time>2026-04-16T08:40:56Z</time></trkpt><trkpt lat="14.548512461655958" lon="121.012706020213"><ele>8.0</ele><time>2026-04-16T08:40:57Z</time></trkpt><trkpt lat="14.548578127816832" lon="121.0126721159038"><ele>8.0</ele><time>2026-04-16T08:40:58Z</time></trkpt><trkpt lat="14.548642168175286" lon="121.0126440278909"><ele>8.0</ele><time>2026-04-16T08:40:59Z</time></trkpt><trkpt lat="14.548762718288243" lon="121.01258753429889"><ele>7.999999999999999</ele><time>2026-04-16T08:41:01Z</time></trkpt><trkpt lat="14.548824487311041" lon="121.01257081177833"><ele>8.0</ele><time>2026-04-16T08:41:02Z</time></trkpt><trkpt lat="14.548930674247702" lon="121.01252285431814"><ele>8.4</ele><time>2026-04-16T08:41:04Z</time></trkpt><trkpt lat="14.549025737139809" lon="121.01246536784522"><ele>8.8</ele><time>2026-04-16T08:41:07Z</time></trkpt><trkpt lat="14.549130988476968" lon="121.01242365639519"><ele>9.2</ele><time>2026-04-16T08:41:09Z</time></trkpt><trkpt lat="14.549200695527023" lon="121.01240540759981"><ele>9.6</ele><time>2026-04-16T08:41:11Z</time></trkpt><trkpt lat="14.54926402718674" lon="121.01241021537614"><ele>10.0</ele><time>2026-04-16T08:41:13Z</time></trkpt><trkpt lat="14.54938793243233" lon="121.0123799753449"><ele>10.0</ele><time>2026-04-16T08:41:15Z</time></trkpt><trkpt lat="14.549540665274417" lon="121.0123785455889"><ele>10.0</ele><time>2026-04-16T08:41:19Z</time></trkpt><trkpt lat="14.549613690380106" lon="121.01239266909494"><ele>10.0</ele><time>2026-04-16T08:41:20Z</time></trkpt><trkpt lat="14.549697439012471" lon="121.01241270221783"><ele>10.0</ele><time>2026-04-16T08:41:21Z</time></trkpt><trkpt lat="14.549611541841253" lon="121.0121030191184"><ele>10.25</ele><time>2026-04-16T08:41:23Z</time></trkpt><trkpt lat="14.54969685111846" lon="121.01205591210523"><ele>10.5</ele><time>2026-04-16T08:41:25Z</time></trkpt><trkpt lat="14.549782581531343" lon="121.01200857252377"><ele>10.75</ele><time>2026-04-16T08:41:27Z</time></trkpt><trkpt lat="14.549874787859046" lon="121.0119576569982"><ele>11.0</ele><time>2026-04-16T08:41:29Z</time></trkpt><trkpt lat="14.55030421630617" lon="121.01195943684884"><ele>11.0</ele><time>2026-04-16T08:42:11Z</time></trkpt><trkpt lat="14.550282788948122" lon="121.01184679903584"><ele>11.0</ele><time>2026-04-16T08:42:17Z</time></trkpt><trkpt lat="14.550374221243885" lon="121.01166781343157"><ele>11.0</ele><time>2026-04-16T08:42:19Z</time></trkpt><trkpt lat="14.550430946539928" lon="121.01158484406554"><ele>11.0</ele><time>2026-04-16T08:42:20Z</time></trkpt><trkpt lat="14.550513591828278" lon="121.01154624422702"><ele>10.600000000000001</ele><time>2026-04-16T08:42:23Z</time></trkpt><trkpt lat="14.55062922687002" lon="121.01151045895332"><ele>10.200000000000001</ele><time>2026-04-16T08:42:25Z</time></trkpt><trkpt lat="14.550704230171252" lon="121.0114917897878"><ele>9.8</ele><time>2026-04-16T08:42:26Z</time></trkpt><trkpt lat="14.550792306253864" lon="121.01142453215965"><ele>9.4</ele><time>2026-04-16T08:42:27Z</time></trkpt><trkpt lat="14.550879041136064" lon="121.01138752109658"><ele>9.0</ele><time>2026-04-16T08:42:28Z</time></trkpt><trkpt lat="14.550994591662521" lon="121.01129185633654"><ele>9.0</ele><time>2026-04-16T08:42:29Z</time></trkpt><trkpt lat="14.551063497294367" lon="121.01125468828147"><ele>9.0</ele><time>2026-04-16T08:42:30Z</time></trkpt><trkpt lat="14.551185805592914" lon="121.0111752406633"><ele>9.0</ele><time>2026-04-16T08:42:31Z</time></trkpt><trkpt lat="14.55126470635227" lon="121.01110753502904"><ele>9.0</ele><time>2026-04-16T08:42:32Z</time></trkpt><trkpt lat="14.551400864960815" lon="121.01102816313258"><ele>8.8</ele><time>2026-04-16T08:42:34Z</time></trkpt><trkpt lat="14.55145607225399" lon="121.0109967850048"><ele>8.600000000000001</ele><time>2026-04-16T08:42:35Z</time></trkpt><trkpt lat="14.551531190093225" lon="121.01094192743906"><ele>8.4</ele><time>2026-04-16T08:42:36Z</time></trkpt><trkpt lat="14.55162025291007" lon="121.01088754716123"><ele>8.200000000000001</ele><time>2026-04-16T08:42:37Z</time></trkpt><trkpt lat="14.551722036748524" lon="121.01084074166161"><ele>8.0</ele><time>2026-04-16T08:42:38Z</time></trkpt><trkpt lat="14.551808513133645" lon="121.01077804579032"><ele>8.0</ele><time>2026-04-16T08:42:39Z</time></trkpt><trkpt lat="14.551911909966828" lon="121.01072039302868"><ele>8.0</ele><time>2026-04-16T08:42:40Z</time></trkpt><trkpt lat="14.552016284690533" lon="121.01065994325523"><ele>8.0</ele><time>2026-04-16T08:42:41Z</time></trkpt><trkpt lat="14.552122303650886" lon="121.01060474342648"><ele>8.0</ele><time>2026-04-16T08:42:42Z</time></trkpt><trkpt lat="14.552233293049202" lon="121.01055207997815"><ele>7.800000000000001</ele><time>2026-04-16T08:42:43Z</time></trkpt><trkpt lat="14.552329267935116" lon="121.01049444333097"><ele>7.6000000000000005</ele><time>2026-04-16T08:42:44Z</time></trkpt><trkpt lat="14.552418857006952" lon="121.01043552564485"><ele>7.3999999999999995</ele><time>2026-04-16T08:42:45Z</time></trkpt><trkpt lat="14.552505399778884" lon="121.01037106125699"><ele>7.199999999999999</ele><time>2026-04-16T08:42:46Z</time></trkpt><trkpt lat="14.552599509655783" lon="121.01030586429903"><ele>7.0</ele><time>2026-04-16T08:42:47Z</time></trkpt><trkpt lat="14.552705322249599" lon="121.01025281396664"><ele>7.0</ele><time>2026-04-16T08:42:48Z</time></trkpt><trkpt lat="14.552816710656066" lon="121.01019784138286"><ele>7.0</ele><time>2026-04-16T08:42:49Z</time></trkpt><trkpt lat="14.552924176519499" lon="121.01013988140195"><ele>7.0</ele><time>2026-04-16T08:42:50Z</time></trkpt><trkpt lat="14.55303203064557" lon="121.01008564154277"><ele>7.0</ele><time>2026-04-16T08:42:51Z</time></trkpt><trkpt lat="14.553139472135358" lon="121.01002684432692"><ele>7.0</ele><time>2026-04-16T08:42:52Z</time></trkpt><trkpt lat="14.553240036310704" lon="121.00996954947577"><ele>7.0</ele><time>2026-04-16T08:42:53Z</time></trkpt><trkpt lat="14.55342051685831" lon="121.00985743067852"><ele>7.0</ele><time>2026-04-16T08:42:55Z</time></trkpt><trkpt lat="14.553516275681647" lon="121.00979671268242"><ele>7.0</ele><time>2026-04-16T08:42:56Z</time></trkpt><trkpt lat="14.55361768601653" lon="121.00973410952639"><ele>7.0</ele><time>2026-04-16T08:42:57Z</time></trkpt><trkpt lat="14.553716841008926" lon="121.00966872550809"><ele>7.0</ele><time>2026-04-16T08:42:58Z</time></trkpt><trkpt lat="14.553811403365684" lon="121.00960736933426"><ele>7.0</ele><time>2026-04-16T08:42:59Z</time></trkpt><trkpt lat="14.553895152290803" lon="121.0095614400547"><ele>7.0</ele><time>2026-04-16T08:43:00Z</time></trkpt><trkpt lat="14.554023485446224" lon="121.00949915179575"><ele>7.0</ele><time>2026-04-16T08:43:01Z</time></trkpt><trkpt lat="14.554142500980607" lon="121.00943409674584"><ele>7.0</ele><time>2026-04-16T08:43:02Z</time></trkpt><trkpt lat="14.554259866835011" lon="121.00936532755136"><ele>7.0</ele><time>2026-04-16T08:43:03Z</time></trkpt><trkpt lat="14.554399077230725" lon="121.00931936023777"><ele>7.0</ele><time>2026-04-16T08:43:04Z</time></trkpt><trkpt lat="14.55451963236891" lon="121.00927198822566"><ele>6.6</ele><time>2026-04-16T08:43:05Z</time></trkpt><trkpt lat="14.554605653420543" lon="121.00921571217589"><ele>6.199999999999999</ele><time>2026-04-16T08:43:06Z</time></trkpt><trkpt lat="14.554698030528783" lon="121.00917702766831"><ele>5.8</ele><time>2026-04-16T08:43:07Z</time></trkpt><trkpt lat="14.554779964552655" lon="121.00913667241238"><ele>5.4</ele><time>2026-04-16T08:43:08Z</time></trkpt><trkpt lat="14.554882073890937" lon="121.00909846365121"><ele>5.0</ele><time>2026-04-16T08:43:09Z</time></trkpt><trkpt lat="14.554997210853516" lon="121.00904986443119"><ele>5.0</ele><time>2026-04-16T08:43:10Z</time></trkpt><trkpt lat="14.555114661532794" lon="121.00900013414329"><ele>5.0</ele><time>2026-04-16T08:43:11Z</time></trkpt><trkpt lat="14.555215034185002" lon="121.00892529086028"><ele>5.0</ele><time>2026-04-16T08:43:12Z</time></trkpt><trkpt lat="14.555316462568662" lon="121.00884571395895"><ele>5.0</ele><time>2026-04-16T08:43:13Z</time></trkpt><trkpt lat="14.55540788165319" lon="121.00878978090266"><ele>5.75</ele><time>2026-04-16T08:43:14Z</time></trkpt><trkpt lat="14.55558353140789" lon="121.00868593719835"><ele>6.5</ele><time>2026-04-16T08:43:16Z</time></trkpt><trkpt lat="14.555668554418824" lon="121.00864528470895"><ele>7.25</ele><time>2026-04-16T08:43:17Z</time></trkpt><trkpt lat="14.555749835274788" lon="121.00860778662846"><ele>8.0</ele><time>2026-04-16T08:43:18Z</time></trkpt><trkpt lat="14.555824310000064" lon="121.00856583717432"><ele>8.0</ele><time>2026-04-16T08:43:19Z</time></trkpt><trkpt lat="14.555926790923012" lon="121.00851193059324"><ele>8.0</ele><time>2026-04-16T08:43:20Z</time></trkpt><trkpt lat="14.55603047353278" lon="121.00846294530892"><ele>8.0</ele><time>2026-04-16T08:43:21Z</time></trkpt><trkpt lat="14.556107185695446" lon="121.00842599915627"><ele>8.0</ele><time>2026-04-16T08:43:22Z</time></trkpt><trkpt lat="14.556197440788214" lon="121.00837547012192"><ele>8.0</ele><time>2026-04-16T08:43:23Z</time></trkpt><trkpt lat="14.556289274013656" lon="121.00832399476698"><ele>7.4</ele><time>2026-04-16T08:43:24Z</time></trkpt><trkpt lat="14.556371388016055" lon="121.00827583765111"><ele>6.800000000000001</ele><time>2026-04-16T08:43:25Z</time></trkpt><trkpt lat="14.556450160935373" lon="121.00823082300786"><ele>6.2</ele><time>2026-04-16T08:43:26Z</time></trkpt><trkpt lat="14.556536554172487" lon="121.0081902053206"><ele>5.6</ele><time>2026-04-16T08:43:27Z</time></trkpt><trkpt lat="14.55662629887048" lon="121.0081504158718"><ele>5.0</ele><time>2026-04-16T08:43:28Z</time></trkpt><trkpt lat="14.556737948169143" lon="121.00809927549791"><ele>5.0</ele><time>2026-04-16T08:43:29Z</time></trkpt><trkpt lat="14.556819536331314" lon="121.0080644178661"><ele>5.0</ele><time>2026-04-16T08:43:30Z</time></trkpt><trkpt lat="14.556904330577979" lon="121.00802423544718"><ele>5.0</ele><time>2026-04-16T08:43:31Z</time></trkpt><trkpt lat="14.556989502706049" lon="121.00797987040296"><ele>5.0</ele><time>2026-04-16T08:43:32Z</time></trkpt><trkpt lat="14.557088977819216" lon="121.00793125252359"><ele>5.0</ele><time>2026-04-16T08:43:33Z</time></trkpt><trkpt lat="14.557198868897155" lon="121.00787633046274"><ele>5.5</ele><time>2026-04-16T08:43:34Z</time></trkpt><trkpt lat="14.557280258650202" lon="121.00782431813249"><ele>6.0</ele><time>2026-04-16T08:43:35Z</time></trkpt><trkpt lat="14.55745788749811" lon="121.00773735074591"><ele>6.5</ele><time>2026-04-16T08:43:37Z</time></trkpt><trkpt lat="14.557547851725129" lon="121.00769073156287"><ele>7.0</ele><time>2026-04-16T08:43:38Z</time></trkpt><trkpt lat="14.557629973618958" lon="121.00764640610387"><ele>7.000000000000001</ele><time>2026-04-16T08:43:39Z</time></trkpt><trkpt lat="14.557710974915187" lon="121.0076032443385"><ele>7.0</ele><time>2026-04-16T08:43:40Z</time></trkpt><trkpt lat="14.557803396799626" lon="121.00755041826193"><ele>7.0</ele><time>2026-04-16T08:43:41Z</time></trkpt><trkpt lat="14.557879384933482" lon="121.00751421998613"><ele>7.0</ele><time>2026-04-16T08:43:42Z</time></trkpt><trkpt lat="14.5579540329136" lon="121.00747273738548"><ele>7.000000000000001</ele><time>2026-04-16T08:43:43Z</time></trkpt><trkpt lat="14.558018442001323" lon="121.00743712060716"><ele>7.0</ele><time>2026-04-16T08:43:44Z</time></trkpt><trkpt lat="14.558085469219986" lon="121.00740819281951"><ele>7.333333333333334</ele><time>2026-04-16T08:43:45Z</time></trkpt><trkpt lat="14.558193731201776" lon="121.00736305534342"><ele>7.666666666666667</ele><time>2026-04-16T08:43:47Z</time></trkpt><trkpt lat="14.558275588033483" lon="121.00729277756642"><ele>8.0</ele><time>2026-04-16T08:43:49Z</time></trkpt><trkpt lat="14.55833130161529" lon="121.00726154586569"><ele>8.333333333333334</ele><time>2026-04-16T08:43:50Z</time></trkpt><trkpt lat="14.558392988671388" lon="121.00722159670886"><ele>8.666666666666666</ele><time>2026-04-16T08:43:51Z</time></trkpt><trkpt lat="14.558463549454416" lon="121.00719428230973"><ele>9.0</ele><time>2026-04-16T08:43:52Z</time></trkpt><trkpt lat="14.55853464275375" lon="121.00717266627437"><ele>9.0</ele><time>2026-04-16T08:43:53Z</time></trkpt><trkpt lat="14.558603057443026" lon="121.00711377440004"><ele>9.0</ele><time>2026-04-16T08:43:54Z</time></trkpt><trkpt lat="14.5586737103258" lon="121.00707466978638"><ele>9.0</ele><time>2026-04-16T08:43:55Z</time></trkpt><trkpt lat="14.55874303375478" lon="121.00703369221414"><ele>9.0</ele><time>2026-04-16T08:43:56Z</time></trkpt><trkpt lat="14.558906332335052" lon="121.00692538821208"><ele>9.0</ele><time>2026-04-16T08:43:58Z</time></trkpt><trkpt lat="14.558993777555742" lon="121.00688256917674"><ele>8.6</ele><time>2026-04-16T08:43:59Z</time></trkpt><trkpt lat="14.559096341534753" lon="121.00681788550624"><ele>8.2</ele><time>2026-04-16T08:44:00Z</time></trkpt><trkpt lat="14.55918331176799" lon="121.00677094657873"><ele>7.799999999999999</ele><time>2026-04-16T08:44:01Z</time></trkpt><trkpt lat="14.559278056963384" lon="121.00672194727741"><ele>7.3999999999999995</ele><time>2026-04-16T08:44:02Z</time></trkpt><trkpt lat="14.55936757007975" lon="121.00668084708322"><ele>7.0</ele><time>2026-04-16T08:44:03Z</time></trkpt><trkpt lat="14.55947207824761" lon="121.00661884081018"><ele>6.8</ele><time>2026-04-16T08:44:04Z</time></trkpt><trkpt lat="14.559562744986033" lon="121.00657099662664"><ele>6.6</ele><time>2026-04-16T08:44:05Z</time></trkpt><trkpt lat="14.55965419451574" lon="121.00650755043202"><ele>6.3999999999999995</ele><time>2026-04-16T08:44:06Z</time></trkpt><trkpt lat="14.559750548263455" lon="121.00644709167315"><ele>6.199999999999999</ele><time>2026-04-16T08:44:07Z</time></trkpt><trkpt lat="14.559833929588502" lon="121.00639697711614"><ele>6.0</ele><time>2026-04-16T08:44:08Z</time></trkpt><trkpt lat="14.559920909025548" lon="121.00634709871198"><ele>6.0</ele><time>2026-04-16T08:44:09Z</time></trkpt><trkpt lat="14.560010789266945" lon="121.0063069420458"><ele>6.0</ele><time>2026-04-16T08:44:10Z</time></trkpt><trkpt lat="14.560094886046995" lon="121.0062664603618"><ele>6.0</ele><time>2026-04-16T08:44:11Z</time></trkpt><trkpt lat="14.56019250037067" lon="121.0062157552242"><ele>6.0</ele><time>2026-04-16T08:44:12Z</time></trkpt><trkpt lat="14.560280784583956" lon="121.00617543824156"><ele>6.0</ele><time>2026-04-16T08:44:13Z</time></trkpt><trkpt lat="14.560403927330361" lon="121.0061101589441"><ele>7.0</ele><time>2026-04-16T08:44:14Z</time></trkpt><trkpt lat="14.560551825329505" lon="121.00602770703287"><ele>8.0</ele><time>2026-04-16T08:44:15Z</time></trkpt><trkpt lat="14.560682697367259" lon="121.00595775639957"><ele>9.0</ele><time>2026-04-16T08:44:16Z</time></trkpt><trkpt lat="14.560819018205942" lon="121.00588944190767"><ele>8.0</ele><time>2026-04-16T08:44:17Z</time></trkpt><trkpt lat="14.561106399585572" lon="121.00573645819756"><ele>7.0</ele><time>2026-04-16T08:44:19Z</time></trkpt><trkpt lat="14.561273625679782" lon="121.0056586838713"><ele>6.666666666666667</ele><time>2026-04-16T08:44:20Z</time></trkpt><trkpt lat="14.56143708390131" lon="121.00557538444286"><ele>6.333333333333334</ele><time>2026-04-16T08:44:21Z</time></trkpt><trkpt lat="14.56159746503239" lon="121.00549259309184"><ele>6.0</ele><time>2026-04-16T08:44:22Z</time></trkpt><trkpt lat="14.561759848802152" lon="121.00540644966138"><ele>6.0</ele><time>2026-04-16T08:44:23Z</time></trkpt><trkpt lat="14.561917642565556" lon="121.00531730660309"><ele>6.0</ele><time>2026-04-16T08:44:24Z</time></trkpt><trkpt lat="14.562063849726174" lon="121.00524816505987"><ele>6.0</ele><time>2026-04-16T08:44:25Z</time></trkpt><trkpt lat="14.56221111065403" lon="121.0051716277521"><ele>5.666666666666667</ele><time>2026-04-16T08:44:26Z</time></trkpt><trkpt lat="14.56235345362309" lon="121.00509628585307"><ele>5.333333333333334</ele><time>2026-04-16T08:44:27Z</time></trkpt><trkpt lat="14.562484475258099" lon="121.00502511648305"><ele>5.0</ele><time>2026-04-16T08:44:28Z</time></trkpt><trkpt lat="14.562623674901927" lon="121.0049668977046"><ele>5.0</ele><time>2026-04-16T08:44:29Z</time></trkpt><trkpt lat="14.56275402140441" lon="121.00491318435624"><ele>5.0</ele><time>2026-04-16T08:44:30Z</time></trkpt><trkpt lat="14.562895774867968" lon="121.00485169539526"><ele>5.0</ele><time>2026-04-16T08:44:31Z</time></trkpt><trkpt lat="14.56303739118875" lon="121.00479132620524"><ele>5.0</ele><time>2026-04-16T08:44:32Z</time></trkpt><trkpt lat="14.563178445865505" lon="121.00472604778831"><ele>5.666666666666667</ele><time>2026-04-16T08:44:33Z</time></trkpt><trkpt lat="14.563315816555626" lon="121.00466405704587"><ele>6.333333333333334</ele><time>2026-04-16T08:44:34Z</time></trkpt><trkpt lat="14.56347360124246" lon="121.00459969708552"><ele>7.0</ele><time>2026-04-16T08:44:35Z</time></trkpt><trkpt lat="14.563632741359717" lon="121.00451532113689"><ele>6.666666666666667</ele><time>2026-04-16T08:44:36Z</time></trkpt><trkpt lat="14.563796165145558" lon="121.00442834077614"><ele>6.333333333333334</ele><time>2026-04-16T08:44:37Z</time></trkpt><trkpt lat="14.56396281207962" lon="121.00434297055608"><ele>6.0</ele><time>2026-04-16T08:44:38Z</time></trkpt><trkpt lat="14.564263032971528" lon="121.00417270307138"><ele>6.0</ele><time>2026-04-16T08:44:40Z</time></trkpt><trkpt lat="14.56439837610637" lon="121.00409225300969"><ele>6.0</ele><time>2026-04-16T08:44:41Z</time></trkpt><trkpt lat="14.564529271945435" lon="121.00401944970537"><ele>6.0</ele><time>2026-04-16T08:44:42Z</time></trkpt><trkpt lat="14.564648662742181" lon="121.00396827774168"><ele>6.0</ele><time>2026-04-16T08:44:43Z</time></trkpt><trkpt lat="14.564741076839708" lon="121.00393077787992"><ele>6.0</ele><time>2026-04-16T08:44:44Z</time></trkpt><trkpt lat="14.564844288095939" lon="121.0038870704008"><ele>6.0</ele><time>2026-04-16T08:44:45Z</time></trkpt><trkpt lat="14.564928608802116" lon="121.00385417395019"><ele>6.0</ele><time>2026-04-16T08:44:46Z</time></trkpt><trkpt lat="14.565022878022083" lon="121.0038210770737"><ele>6.0</ele><time>2026-04-16T08:44:47Z</time></trkpt><trkpt lat="14.565097061719824" lon="121.00377974331997"><ele>6.0</ele><time>2026-04-16T08:44:48Z</time></trkpt><trkpt lat="14.565185135296923" lon="121.00373594237574"><ele>6.0</ele><time>2026-04-16T08:44:49Z</time></trkpt><trkpt lat="14.565282493011289" lon="121.00367310476165"><ele>6.0</ele><time>2026-04-16T08:44:50Z</time></trkpt><trkpt lat="14.565390345040287" lon="121.0035969137958"><ele>6.0</ele><time>2026-04-16T08:44:51Z</time></trkpt><trkpt lat="14.565495178483793" lon="121.00353157758646"><ele>6.0</ele><time>2026-04-16T08:44:52Z</time></trkpt><trkpt lat="14.565611662871083" lon="121.00346723036253"><ele>5.8</ele><time>2026-04-16T08:44:53Z</time></trkpt><trkpt lat="14.565734879381735" lon="121.00339822977158"><ele>5.6</ele><time>2026-04-16T08:44:54Z</time></trkpt><trkpt lat="14.565835497720077" lon="121.00333196282972"><ele>5.4</ele><time>2026-04-16T08:44:55Z</time></trkpt><trkpt lat="14.565909385179745" lon="121.00329407754704"><ele>5.2</ele><time>2026-04-16T08:44:56Z</time></trkpt><trkpt lat="14.56597336532241" lon="121.00327663236328"><ele>5.0</ele><time>2026-04-16T08:44:57Z</time></trkpt><trkpt lat="14.56603636314466" lon="121.00323968928339"><ele>5.0</ele><time>2026-04-16T08:44:58Z</time></trkpt><trkpt lat="14.56610005580245" lon="121.00321504916471"><ele>5.0</ele><time>2026-04-16T08:44:59Z</time></trkpt><trkpt lat="14.566268443143908" lon="121.00313136994829"><ele>5.0</ele><time>2026-04-16T08:45:02Z</time></trkpt><trkpt lat="14.566322564382467" lon="121.00308680873012"><ele>5.0</ele><time>2026-04-16T08:45:03Z</time></trkpt><trkpt lat="14.566382221532088" lon="121.0030475564889"><ele>5.0</ele><time>2026-04-16T08:45:04Z</time></trkpt><trkpt lat="14.566446532920176" lon="121.00301035386607"><ele>5.0</ele><time>2026-04-16T08:45:05Z</time></trkpt><trkpt lat="14.566504882397222" lon="121.00296391577507"><ele>5.0</ele><time>2026-04-16T08:45:06Z</time></trkpt><trkpt lat="14.566563785483252" lon="121.00293222763952"><ele>5.0</ele><time>2026-04-16T08:45:07Z</time></trkpt><trkpt lat="14.566662929210905" lon="121.00289524857432"><ele>5.0</ele><time>2026-04-16T08:45:09Z</time></trkpt><trkpt lat="14.566726872715853" lon="121.00287529625511"><ele>5.0</ele><time>2026-04-16T08:45:10Z</time></trkpt><trkpt lat="14.566823810555007" lon="121.00282726657802"><ele>5.0</ele><time>2026-04-16T08:45:12Z</time></trkpt><trkpt lat="14.566912955623195" lon="121.00280362074346"><ele>5.0</ele><time>2026-04-16T08:45:14Z</time></trkpt><trkpt lat="14.566977841442597" lon="121.00274228421033"><ele>5.0</ele><time>2026-04-16T08:45:15Z</time></trkpt><trkpt lat="14.567090117240708" lon="121.00269340046368"><ele>5.0</ele><time>2026-04-16T08:45:16Z</time></trkpt><trkpt lat="14.567238151194246" lon="121.00261471446089"><ele>5.0</ele><time>2026-04-16T08:45:17Z</time></trkpt><trkpt lat="14.56739771213096" lon="121.00252463255205"><ele>6.0</ele><time>2026-04-16T08:45:18Z</time></trkpt><trkpt lat="14.56758522988502" lon="121.00243948697117"><ele>7.0</ele><time>2026-04-16T08:45:19Z</time></trkpt><trkpt lat="14.567734873139083" lon="121.00234689707496"><ele>8.0</ele><time>2026-04-16T08:45:20Z</time></trkpt><trkpt lat="14.568031415493499" lon="121.00218122929591"><ele>8.333333333333332</ele><time>2026-04-16T08:45:22Z</time></trkpt><trkpt lat="14.5681577247034" lon="121.00210012667482"><ele>8.666666666666666</ele><time>2026-04-16T08:45:23Z</time></trkpt><trkpt lat="14.568284571213884" lon="121.00202337258246"><ele>9.0</ele><time>2026-04-16T08:45:24Z</time></trkpt><trkpt lat="14.568428649658266" lon="121.00194063153306"><ele>9.0</ele><time>2026-04-16T08:45:25Z</time></trkpt><trkpt lat="14.568562230250398" lon="121.00185596438668"><ele>9.0</ele><time>2026-04-16T08:45:26Z</time></trkpt><trkpt lat="14.5687040992058" lon="121.00178422234684"><ele>9.0</ele><time>2026-04-16T08:45:27Z</time></trkpt><trkpt lat="14.568801887502559" lon="121.00173264590998"><ele>9.0</ele><time>2026-04-16T08:45:28Z</time></trkpt><trkpt lat="14.568969820245995" lon="121.00163742080237"><ele>8.333333333333334</ele><time>2026-04-16T08:45:29Z</time></trkpt><trkpt lat="14.569170279475152" lon="121.00154254843999"><ele>7.666666666666667</ele><time>2026-04-16T08:45:30Z</time></trkpt><trkpt lat="14.569321366663145" lon="121.00145348396279"><ele>7.0</ele><time>2026-04-16T08:45:31Z</time></trkpt><trkpt lat="14.569462362913656" lon="121.00137393986759"><ele>8.0</ele><time>2026-04-16T08:45:32Z</time></trkpt><trkpt lat="14.569611748559542" lon="121.0012977200535"><ele>9.0</ele><time>2026-04-16T08:45:33Z</time></trkpt><trkpt lat="14.569753431293208" lon="121.00122535913654"><ele>10.0</ele><time>2026-04-16T08:45:34Z</time></trkpt><trkpt lat="14.569901193376223" lon="121.00114438745639"><ele>10.0</ele><time>2026-04-16T08:45:35Z</time></trkpt><trkpt lat="14.570044568775861" lon="121.0010670401299"><ele>10.0</ele><time>2026-04-16T08:45:36Z</time></trkpt><trkpt lat="14.570185180356228" lon="121.00100647276932"><ele>10.0</ele><time>2026-04-16T08:45:37Z</time></trkpt><trkpt lat="14.570319269437226" lon="121.00094071857671"><ele>9.5</ele><time>2026-04-16T08:45:38Z</time></trkpt><trkpt lat="14.570459327265727" lon="121.00086895323227"><ele>9.0</ele><time>2026-04-16T08:45:39Z</time></trkpt><trkpt lat="14.570577329055526" lon="121.00081011203827"><ele>8.5</ele><time>2026-04-16T08:45:40Z</time></trkpt><trkpt lat="14.570699320125428" lon="121.00072716287639"><ele>8.0</ele><time>2026-04-16T08:45:41Z</time></trkpt><trkpt lat="14.570963424438926" lon="121.00058449719484"><ele>7.333333333333333</ele><time>2026-04-16T08:45:43Z</time></trkpt><trkpt lat="14.571110840051613" lon="121.00049167075032"><ele>6.666666666666666</ele><time>2026-04-16T08:45:44Z</time></trkpt><trkpt lat="14.571242397511506" lon="121.00041458079711"><ele>6.0</ele><time>2026-04-16T08:45:45Z</time></trkpt><trkpt lat="14.571384744635564" lon="121.00033666560084"><ele>6.0</ele><time>2026-04-16T08:45:46Z</time></trkpt><trkpt lat="14.571539361154803" lon="121.00025278894337"><ele>6.0</ele><time>2026-04-16T08:45:47Z</time></trkpt><trkpt lat="14.571679082295871" lon="121.00017378544592"><ele>6.0</ele><time>2026-04-16T08:45:48Z</time></trkpt><trkpt lat="14.571819084597266" lon="121.00009703024864"><ele>6.0</ele><time>2026-04-16T08:45:49Z</time></trkpt><trkpt lat="14.57196247753783" lon="121.00001732769145"><ele>6.0</ele><time>2026-04-16T08:45:50Z</time></trkpt><trkpt lat="14.572111759156071" lon="120.99992444521945"><ele>6.0</ele><time>2026-04-16T08:45:51Z</time></trkpt><trkpt lat="14.57226025784387" lon="120.99984627855632"><ele>6.25</ele><time>2026-04-16T08:45:52Z</time></trkpt><trkpt lat="14.572393241434517" lon="120.99978201424467"><ele>6.5</ele><time>2026-04-16T08:45:53Z</time></trkpt><trkpt lat="14.572515936524548" lon="120.99970650822385"><ele>6.75</ele><time>2026-04-16T08:45:54Z</time></trkpt><trkpt lat="14.572640414066415" lon="120.99963615203974"><ele>7.0</ele><time>2026-04-16T08:45:55Z</time></trkpt><trkpt lat="14.572731390303463" lon="120.99949962397449"><ele>7.25</ele><time>2026-04-16T08:45:56Z</time></trkpt><trkpt lat="14.572861707372779" lon="120.99943440294449"><ele>7.5</ele><time>2026-04-16T08:45:57Z</time></trkpt><trkpt lat="14.573009083807632" lon="120.99942644673608"><ele>7.75</ele><time>2026-04-16T08:45:58Z</time></trkpt><trkpt lat="14.573122607146784" lon="120.99936352190748"><ele>8.0</ele><time>2026-04-16T08:45:59Z</time></trkpt><trkpt lat="14.57322962669897" lon="120.99930949213557"><ele>8.0</ele><time>2026-04-16T08:46:00Z</time></trkpt><trkpt lat="14.573326341135255" lon="120.99925359772419"><ele>8.0</ele><time>2026-04-16T08:46:01Z</time></trkpt><trkpt lat="14.57342256131743" lon="120.99920160268513"><ele>8.0</ele><time>2026-04-16T08:46:02Z</time></trkpt><trkpt lat="14.573632789415988" lon="120.99909926844536"><ele>7.5</ele><time>2026-04-16T08:46:04Z</time></trkpt><trkpt lat="14.573734865965543" lon="120.99904823336074"><ele>7.0</ele><time>2026-04-16T08:46:05Z</time></trkpt><trkpt lat="14.573827516222506" lon="120.9989915250775"><ele>6.5</ele><time>2026-04-16T08:46:06Z</time></trkpt><trkpt lat="14.573930908478216" lon="120.998932892999"><ele>6.0</ele><time>2026-04-16T08:46:07Z</time></trkpt><trkpt lat="14.574047752598565" lon="120.99887288705646"><ele>6.0</ele><time>2026-04-16T08:46:08Z</time></trkpt><trkpt lat="14.57414627237716" lon="120.998811459438"><ele>6.0</ele><time>2026-04-16T08:46:09Z</time></trkpt><trkpt lat="14.574248024790077" lon="120.99875231587201"><ele>6.0</ele><time>2026-04-16T08:46:10Z</time></trkpt><trkpt lat="14.574357853802645" lon="120.99870182909224"><ele>6.0</ele><time>2026-04-16T08:46:11Z</time></trkpt><trkpt lat="14.57445530207578" lon="120.99863443479032"><ele>6.199999999999999</ele><time>2026-04-16T08:46:12Z</time></trkpt><trkpt lat="14.574545725381066" lon="120.998579273764"><ele>6.3999999999999995</ele><time>2026-04-16T08:46:13Z</time></trkpt><trkpt lat="14.57464174220757" lon="120.99852342333259"><ele>6.6</ele><time>2026-04-16T08:46:14Z</time></trkpt><trkpt lat="14.5747335749758" lon="120.9984887659505"><ele>6.8</ele><time>2026-04-16T08:46:15Z</time></trkpt><trkpt lat="14.574823339255465" lon="120.99844023770234"><ele>7.0</ele><time>2026-04-16T08:46:16Z</time></trkpt><trkpt lat="14.574910308722531" lon="120.99838642370281"><ele>7.0</ele><time>2026-04-16T08:46:17Z</time></trkpt><trkpt lat="14.575010349452636" lon="120.99833908060752"><ele>6.999999999999999</ele><time>2026-04-16T08:46:18Z</time></trkpt><trkpt lat="14.575109912169292" lon="120.99828784231097"><ele>6.999999999999999</ele><time>2026-04-16T08:46:19Z</time></trkpt><trkpt lat="14.575194825509362" lon="120.99823337897972"><ele>7.0</ele><time>2026-04-16T08:46:20Z</time></trkpt><trkpt lat="14.575275372025235" lon="120.9981837604331"><ele>7.0</ele><time>2026-04-16T08:46:21Z</time></trkpt><trkpt lat="14.575351671521688" lon="120.99814485377615"><ele>6.5</ele><time>2026-04-16T08:46:22Z</time></trkpt><trkpt lat="14.57541264521996" lon="120.99811549733879"><ele>6.0</ele><time>2026-04-16T08:46:23Z</time></trkpt><trkpt lat="14.5756239049101" lon="120.99799811491579"><ele>5.5</ele><time>2026-04-16T08:46:27Z</time></trkpt><trkpt lat="14.575679729064609" lon="120.99796717620373"><ele>5.0</ele><time>2026-04-16T08:46:28Z</time></trkpt><trkpt lat="14.575781774631539" lon="120.99791838976255"><ele>5.0</ele><time>2026-04-16T08:46:30Z</time></trkpt><trkpt lat="14.575884514203423" lon="120.9978564763405"><ele>5.0</ele><time>2026-04-16T08:46:32Z</time></trkpt><trkpt lat="14.575982595260466" lon="120.9978073536755"><ele>5.0</ele><time>2026-04-16T08:46:34Z</time></trkpt><trkpt lat="14.576096382593832" lon="120.99775611317193"><ele>5.0</ele><time>2026-04-16T08:46:36Z</time></trkpt><trkpt lat="14.576198849390853" lon="120.99769640002812"><ele>5.0</ele><time>2026-04-16T08:46:38Z</time></trkpt><trkpt lat="14.576313427061768" lon="120.99764870311071"><ele>5.0</ele><time>2026-04-16T08:46:40Z</time></trkpt><trkpt lat="14.576420724523265" lon="120.99762299618025"><ele>5.0</ele><time>2026-04-16T08:46:42Z</time></trkpt><trkpt lat="14.576506819441263" lon="120.99756710422275"><ele>5.0</ele><time>2026-04-16T08:46:44Z</time></trkpt><trkpt lat="14.576677802156965" lon="120.99738321848747"><ele>5.0</ele><time>2026-04-16T08:46:48Z</time></trkpt><trkpt lat="14.57678602414751" lon="120.99732122621417"><ele>5.0</ele><time>2026-04-16T08:46:50Z</time></trkpt><trkpt lat="14.576887802327471" lon="120.99732630955963"><ele>5.0</ele><time>2026-04-16T08:46:51Z</time></trkpt><trkpt lat="14.576985749899706" lon="120.99732181438429"><ele>5.0</ele><time>2026-04-16T08:46:53Z</time></trkpt><trkpt lat="14.577074130082824" lon="120.9973298909393"><ele>5.0</ele><time>2026-04-16T08:46:55Z</time></trkpt><trkpt lat="14.577154164464158" lon="120.99734575063047"><ele>5.0</ele><time>2026-04-16T08:46:56Z</time></trkpt><trkpt lat="14.577243322463602" lon="120.9973669147117"><ele>5.0</ele><time>2026-04-16T08:46:58Z</time></trkpt><trkpt lat="14.577317124728442" lon="120.99740103605306"><ele>5.0</ele><time>2026-04-16T08:47:00Z</time></trkpt><trkpt lat="14.577389788512578" lon="120.99744360900091"><ele>5.0</ele><time>2026-04-16T08:47:02Z</time></trkpt><trkpt lat="14.57745957362988" lon="120.99749894159724"><ele>5.0</ele><time>2026-04-16T08:47:04Z</time></trkpt><trkpt lat="14.57751333033693" lon="120.99754253269124"><ele>5.0</ele><time>2026-04-16T08:47:06Z</time></trkpt><trkpt lat="14.577665564722235" lon="120.99765935510617"><ele>5.2</ele><time>2026-04-16T08:47:10Z</time></trkpt><trkpt lat="14.577750579938323" lon="120.99772168246277"><ele>5.4</ele><time>2026-04-16T08:47:12Z</time></trkpt><trkpt lat="14.577841265005356" lon="120.99778698888595"><ele>5.6</ele><time>2026-04-16T08:47:14Z</time></trkpt><trkpt lat="14.577887500878315" lon="120.99784403608335"><ele>5.8</ele><time>2026-04-16T08:47:15Z</time></trkpt><trkpt lat="14.577955596418146" lon="120.99790283835567"><ele>6.0</ele><time>2026-04-16T08:47:16Z</time></trkpt><trkpt lat="14.578026926283632" lon="120.99796360432637"><ele>6.0</ele><time>2026-04-16T08:47:17Z</time></trkpt><trkpt lat="14.578097000481536" lon="120.9980046841281"><ele>6.0</ele><time>2026-04-16T08:47:18Z</time></trkpt><trkpt lat="14.578155000179464" lon="120.99803294822333"><ele>6.0</ele><time>2026-04-16T08:47:19Z</time></trkpt><trkpt lat="14.578214095979467" lon="120.99807700277088"><ele>6.0</ele><time>2026-04-16T08:47:21Z</time></trkpt><trkpt lat="14.57827936031963" lon="120.99811312177174"><ele>6.0</ele><time>2026-04-16T08:47:25Z</time></trkpt><trkpt lat="14.578333212110437" lon="120.99815473317392"><ele>6.0</ele><time>2026-04-16T08:47:28Z</time></trkpt><trkpt lat="14.578487791316846" lon="120.99825720794709"><ele>6.0</ele><time>2026-04-16T08:47:32Z</time></trkpt><trkpt lat="14.578545398531855" lon="120.99829683620273"><ele>6.0</ele><time>2026-04-16T08:47:34Z</time></trkpt><trkpt lat="14.578601989544941" lon="120.99835291788402"><ele>6.0</ele><time>2026-04-16T08:47:39Z</time></trkpt><trkpt lat="14.578689253179551" lon="120.9984332484025"><ele>6.0</ele><time>2026-04-16T08:47:41Z</time></trkpt><trkpt lat="14.578786788328237" lon="120.99846908723552"><ele>6.0</ele><time>2026-04-16T08:47:43Z</time></trkpt><trkpt lat="14.578871091276726" lon="120.99852961580005"><ele>6.0</ele><time>2026-04-16T08:47:45Z</time></trkpt><trkpt lat="14.578929215733835" lon="120.9985978548398"><ele>6.0</ele><time>2026-04-16T08:47:47Z</time></trkpt><trkpt lat="14.57899008263607" lon="120.9986542227989"><ele>6.0</ele><time>2026-04-16T08:47:49Z</time></trkpt><trkpt lat="14.579160406877495" lon="120.99879407455444"><ele>6.0</ele><time>2026-04-16T08:47:53Z</time></trkpt><trkpt lat="14.579263971065085" lon="120.99885997610765"><ele>6.0</ele><time>2026-04-16T08:47:55Z</time></trkpt><trkpt lat="14.579351354838726" lon="120.99894059685143"><ele>6.0</ele><time>2026-04-16T08:47:57Z</time></trkpt><trkpt lat="14.579461267214084" lon="120.99900482457359"><ele>6.0</ele><time>2026-04-16T08:47:59Z</time></trkpt><trkpt lat="14.579520371225847" lon="120.99904086915353"><ele>6.0</ele><time>2026-04-16T08:48:00Z</time></trkpt><trkpt lat="14.579580884736815" lon="120.99907794949233"><ele>6.0</ele><time>2026-04-16T08:48:01Z</time></trkpt><trkpt lat="14.57963396299439" lon="120.99916290564671"><ele>6.571428571428571</ele><time>2026-04-16T08:48:02Z</time></trkpt><trkpt lat="14.579683130578188" lon="120.99923026771773"><ele>7.142857142857142</ele><time>2026-04-16T08:48:03Z</time></trkpt><trkpt lat="14.579733491076322" lon="120.99929409463273"><ele>7.7142857142857135</ele><time>2026-04-16T08:48:04Z</time></trkpt><trkpt lat="14.579795364134569" lon="120.99933005937434"><ele>8.285714285714285</ele><time>2026-04-16T08:48:05Z</time></trkpt><trkpt lat="14.579855624245717" lon="120.99936078042198"><ele>8.857142857142858</ele><time>2026-04-16T08:48:06Z</time></trkpt><trkpt lat="14.579926002598793" lon="120.99936537702516"><ele>9.428571428571429</ele><time>2026-04-16T08:48:07Z</time></trkpt><trkpt lat="14.579986929404537" lon="120.99938962531267"><ele>10.0</ele><time>2026-04-16T08:48:08Z</time></trkpt><trkpt lat="14.580036577055713" lon="120.99945320070857"><ele>10.0</ele><time>2026-04-16T08:48:10Z</time></trkpt><trkpt lat="14.580180111093771" lon="120.99958684895681"><ele>10.0</ele><time>2026-04-16T08:48:14Z</time></trkpt><trkpt lat="14.580277154045602" lon="120.99966936993654"><ele>10.0</ele><time>2026-04-16T08:48:16Z</time></trkpt><trkpt lat="14.580368725814077" lon="120.99973683604046"><ele>10.0</ele><time>2026-04-16T08:48:18Z</time></trkpt><trkpt lat="14.580437985666727" lon="120.99981550912582"><ele>9.666666666666668</ele><time>2026-04-16T08:48:20Z</time></trkpt><trkpt lat="14.580500016457915" lon="120.9998675762608"><ele>9.333333333333334</ele><time>2026-04-16T08:48:22Z</time></trkpt><trkpt lat="14.580554460826441" lon="120.99991710470879"><ele>9.0</ele><time>2026-04-16T08:48:24Z</time></trkpt><trkpt lat="14.580614446526774" lon="120.99996284487105"><ele>8.666666666666666</ele><time>2026-04-16T08:48:26Z</time></trkpt><trkpt lat="14.580704281850865" lon="121.00002648266114"><ele>8.333333333333332</ele><time>2026-04-16T08:48:28Z</time></trkpt><trkpt lat="14.580762627208532" lon="121.00009653681654"><ele>8.0</ele><time>2026-04-16T08:48:29Z</time></trkpt><trkpt lat="14.58082188065957" lon="121.00012821249383"><ele>8.0</ele><time>2026-04-16T08:48:30Z</time></trkpt><trkpt lat="14.580869724054066" lon="121.00017142824873"><ele>8.0</ele><time>2026-04-16T08:48:31Z</time></trkpt><trkpt lat="14.58104293216447" lon="121.00032316182418"><ele>8.0</ele><time>2026-04-16T08:48:34Z</time></trkpt><trkpt lat="14.581109999903205" lon="121.00037821731526"><ele>8.0</ele><time>2026-04-16T08:48:35Z</time></trkpt><trkpt lat="14.581172184027686" lon="121.00044233113482"><ele>7.999999999999999</ele><time>2026-04-16T08:48:36Z</time></trkpt><trkpt lat="14.581234873626475" lon="121.00050526407561"><ele>8.0</ele><time>2026-04-16T08:48:37Z</time></trkpt><trkpt lat="14.581302487902375" lon="121.0005646032798"><ele>8.0</ele><time>2026-04-16T08:48:38Z</time></trkpt><trkpt lat="14.581375986074944" lon="121.00062524307344"><ele>8.0</ele><time>2026-04-16T08:48:39Z</time></trkpt><trkpt lat="14.581437953507105" lon="121.00068085968559"><ele>7.999999999999999</ele><time>2026-04-16T08:48:40Z</time></trkpt><trkpt lat="14.581507116570965" lon="121.00073530174122"><ele>8.0</ele><time>2026-04-16T08:48:41Z</time></trkpt><trkpt lat="14.58158552191808" lon="121.00079751265608"><ele>7.6000000000000005</ele><time>2026-04-16T08:48:42Z</time></trkpt><trkpt lat="14.581661866586336" lon="121.00085262992472"><ele>7.200000000000001</ele><time>2026-04-16T08:48:43Z</time></trkpt><trkpt lat="14.58174085243698" lon="121.00091904918878"><ele>6.8</ele><time>2026-04-16T08:48:44Z</time></trkpt><trkpt lat="14.581828302023807" lon="121.00098674049019"><ele>6.4</ele><time>2026-04-16T08:48:45Z</time></trkpt><trkpt lat="14.581906821652433" lon="121.00105042639127"><ele>6.0</ele><time>2026-04-16T08:48:46Z</time></trkpt><trkpt lat="14.581977821162308" lon="121.00111441310374"><ele>6.6</ele><time>2026-04-16T08:48:47Z</time></trkpt><trkpt lat="14.582041064596739" lon="121.00116579421596"><ele>7.199999999999999</ele><time>2026-04-16T08:48:48Z</time></trkpt><trkpt lat="14.582087439618874" lon="121.00123154243687"><ele>7.800000000000001</ele><time>2026-04-16T08:48:49Z</time></trkpt><trkpt lat="14.582153850263358" lon="121.00129784592329"><ele>8.4</ele><time>2026-04-16T08:48:50Z</time></trkpt><trkpt lat="14.582235126947564" lon="121.0013583418359"><ele>9.0</ele><time>2026-04-16T08:48:51Z</time></trkpt><trkpt lat="14.582320995021357" lon="121.00141175853129"><ele>9.0</ele><time>2026-04-16T08:48:52Z</time></trkpt><trkpt lat="14.582442689100777" lon="121.00154435494736"><ele>9.0</ele><time>2026-04-16T08:48:54Z</time></trkpt><trkpt lat="14.582527220385682" lon="121.00160702340392"><ele>9.0</ele><time>2026-04-16T08:48:55Z</time></trkpt><trkpt lat="14.58260492048712" lon="121.00168034598835"><ele>9.0</ele><time>2026-04-16T08:48:56Z</time></trkpt><trkpt lat="14.58268116755614" lon="121.00175560957206"><ele>8.8</ele><time>2026-04-16T08:48:57Z</time></trkpt><trkpt lat="14.582758934734963" lon="121.0018273619114"><ele>8.600000000000001</ele><time>2026-04-16T08:48:58Z</time></trkpt><trkpt lat="14.582829881608305" lon="121.00189301085611"><ele>8.4</ele><time>2026-04-16T08:48:59Z</time></trkpt><trkpt lat="14.582889492462185" lon="121.00195808917655"><ele>8.200000000000001</ele><time>2026-04-16T08:49:00Z</time></trkpt><trkpt lat="14.582957414633507" lon="121.00203361275015"><ele>8.0</ele><time>2026-04-16T08:49:01Z</time></trkpt><trkpt lat="14.583030357510102" lon="121.00210430424858"><ele>8.0</ele><time>2026-04-16T08:49:02Z</time></trkpt><trkpt lat="14.583113225136392" lon="121.0021845307836"><ele>8.0</ele><time>2026-04-16T08:49:03Z</time></trkpt><trkpt lat="14.583192007940745" lon="121.00226723451081"><ele>8.0</ele><time>2026-04-16T08:49:04Z</time></trkpt><trkpt lat="14.583288366937396" lon="121.00235478890107"><ele>8.0</ele><time>2026-04-16T08:49:05Z</time></trkpt><trkpt lat="14.583372424817023" lon="121.00243053678798"><ele>7.999999999999999</ele><time>2026-04-16T08:49:06Z</time></trkpt><trkpt lat="14.583446019990777" lon="121.00248423111596"><ele>8.0</ele><time>2026-04-16T08:49:07Z</time></trkpt><trkpt lat="14.583504527366083" lon="121.00253545019896"><ele>8.0</ele><time>2026-04-16T08:49:08Z</time></trkpt><trkpt lat="14.583562953888109" lon="121.00258335325478"><ele>8.0</ele><time>2026-04-16T08:49:09Z</time></trkpt><trkpt lat="14.583647567048756" lon="121.00265197536274"><ele>7.999999999999999</ele><time>2026-04-16T08:49:11Z</time></trkpt><trkpt lat="14.583699808473694" lon="121.00269683128722"><ele>8.0</ele><time>2026-04-16T08:49:12Z</time></trkpt><trkpt lat="14.583803809166124" lon="121.00274655990289"><ele>7.666666666666666</ele><time>2026-04-16T08:49:14Z</time></trkpt><trkpt lat="14.584044911488304" lon="121.00272448401338"><ele>7.333333333333334</ele><time>2026-04-16T08:49:18Z</time></trkpt><trkpt lat="14.584175435923877" lon="121.0026977621912"><ele>7.0</ele><time>2026-04-16T08:49:20Z</time></trkpt><trkpt lat="14.584240830594908" lon="121.00264578656807"><ele>7.000000000000001</ele><time>2026-04-16T08:49:21Z</time></trkpt><trkpt lat="14.584309306003064" lon="121.00262379542403"><ele>7.0</ele><time>2026-04-16T08:49:22Z</time></trkpt><trkpt lat="14.584368661666426" lon="121.00259128067339"><ele>7.0</ele><time>2026-04-16T08:49:23Z</time></trkpt><trkpt lat="14.584419220963374" lon="121.00253586685575"><ele>7.0</ele><time>2026-04-16T08:49:24Z</time></trkpt><trkpt lat="14.584475731343417" lon="121.00249341314593"><ele>7.000000000000001</ele><time>2026-04-16T08:49:25Z</time></trkpt><trkpt lat="14.584578078875962" lon="121.00243347117542"><ele>7.0</ele><time>2026-04-16T08:49:27Z</time></trkpt><trkpt lat="14.584682180463036" lon="121.0023777930684"><ele>7.25</ele><time>2026-04-16T08:49:29Z</time></trkpt><trkpt lat="14.584790084105455" lon="121.0023408749101"><ele>7.5</ele><time>2026-04-16T08:49:31Z</time></trkpt><trkpt lat="14.584897860151157" lon="121.00231614893215"><ele>7.75</ele><time>2026-04-16T08:49:33Z</time></trkpt><trkpt lat="14.584988401028875" lon="121.002299136111"><ele>8.0</ele><time>2026-04-16T08:49:35Z</time></trkpt><trkpt lat="14.58518993320912" lon="121.00225221909244"><ele>7.999999999999999</ele><time>2026-04-16T08:49:38Z</time></trkpt><trkpt lat="14.58525603308279" lon="121.00224608911508"><ele>8.0</ele><time>2026-04-16T08:49:39Z</time></trkpt><trkpt lat="14.585346417392973" lon="121.0022377070422"><ele>8.0</ele><time>2026-04-16T08:49:40Z</time></trkpt><trkpt lat="14.58543812161006" lon="121.00223781889514"><ele>8.0</ele><time>2026-04-16T08:49:41Z</time></trkpt><trkpt lat="14.58552333444904" lon="121.00222885140651"><ele>7.999999999999999</ele><time>2026-04-16T08:49:42Z</time></trkpt><trkpt lat="14.585604576567878" lon="121.00221320569244"><ele>8.0</ele><time>2026-04-16T08:49:43Z</time></trkpt><trkpt lat="14.585698238122129" lon="121.00221798220603"><ele>7.6000000000000005</ele><time>2026-04-16T08:49:44Z</time></trkpt><trkpt lat="14.585792569642933" lon="121.00221011902556"><ele>7.200000000000001</ele><time>2026-04-16T08:49:45Z</time></trkpt><trkpt lat="14.585888695797161" lon="121.0021809804773"><ele>6.8</ele><time>2026-04-16T08:49:46Z</time></trkpt><trkpt lat="14.585997877862013" lon="121.00216219792996"><ele>6.4</ele><time>2026-04-16T08:49:47Z</time></trkpt><trkpt lat="14.586088799419663" lon="121.00215450269468"><ele>6.0</ele><time>2026-04-16T08:49:48Z</time></trkpt><trkpt lat="14.586159992462687" lon="121.00214867169956"><ele>6.8</ele><time>2026-04-16T08:49:49Z</time></trkpt><trkpt lat="14.586274234624032" lon="121.002128370332"><ele>7.6</ele><time>2026-04-16T08:49:51Z</time></trkpt><trkpt lat="14.586375956634086" lon="121.00212518932433"><ele>8.4</ele><time>2026-04-16T08:49:53Z</time></trkpt><trkpt lat="14.586458160659681" lon="121.0021277759772"><ele>9.2</ele><time>2026-04-16T08:49:55Z</time></trkpt><trkpt lat="14.586566703727486" lon="121.00213442376347"><ele>10.0</ele><time>2026-04-16T08:49:57Z</time></trkpt><trkpt lat="14.586786176146221" lon="121.00213324903221"><ele>10.0</ele><time>2026-04-16T08:50:01Z</time></trkpt><trkpt lat="14.586873770774147" lon="121.00212667012177"><ele>10.0</ele><time>2026-04-16T08:50:03Z</time></trkpt><trkpt lat="14.586957815731957" lon="121.00212225360252"><ele>10.0</ele><time>2026-04-16T08:50:43Z</time></trkpt><trkpt lat="14.587114782688598" lon="121.00209355007888"><ele>10.0</ele><time>2026-04-16T08:50:46Z</time></trkpt><trkpt lat="14.587194231627022" lon="121.00207775653692"><ele>10.0</ele><time>2026-04-16T08:50:47Z</time></trkpt><trkpt lat="14.587280208076312" lon="121.00206955908723"><ele>10.0</ele><time>2026-04-16T08:50:48Z</time></trkpt><trkpt lat="14.587374920459997" lon="121.00206686733252"><ele>10.0</ele><time>2026-04-16T08:50:49Z</time></trkpt><trkpt lat="14.587468029583713" lon="121.00206547476016"><ele>10.0</ele><time>2026-04-16T08:50:50Z</time></trkpt><trkpt lat="14.58756700535468" lon="121.00206075899477"><ele>10.0</ele><time>2026-04-16T08:50:51Z</time></trkpt><trkpt lat="14.587673349284847" lon="121.00205706327364"><ele>10.0</ele><time>2026-04-16T08:50:52Z</time></trkpt><trkpt lat="14.587753882106762" lon="121.00203374176463"><ele>9.2</ele><time>2026-04-16T08:50:53Z</time></trkpt><trkpt lat="14.587851633276514" lon="121.00202110646732"><ele>8.4</ele><time>2026-04-16T08:50:54Z</time></trkpt><trkpt lat="14.587950769448371" lon="121.00202050737626"><ele>7.6</ele><time>2026-04-16T08:50:55Z</time></trkpt><trkpt lat="14.588052713859812" lon="121.00202012618259"><ele>6.8</ele><time>2026-04-16T08:50:56Z</time></trkpt><trkpt lat="14.588171569245063" lon="121.00201493959634"><ele>6.0</ele><time>2026-04-16T08:50:57Z</time></trkpt><trkpt lat="14.58828313369043" lon="121.00200967299062"><ele>6.0</ele><time>2026-04-16T08:50:58Z</time></trkpt><trkpt lat="14.58840910435075" lon="121.00200297696657"><ele>6.0</ele><time>2026-04-16T08:50:59Z</time></trkpt><trkpt lat="14.588548755137408" lon="121.00198691725647"><ele>6.0</ele><time>2026-04-16T08:51:00Z</time></trkpt><trkpt lat="14.58868616710612" lon="121.00196978409241"><ele>6.0</ele><time>2026-04-16T08:51:01Z</time></trkpt><trkpt lat="14.588815882643454" lon="121.00196105494697"><ele>6.0</ele><time>2026-04-16T08:51:02Z</time></trkpt><trkpt lat="14.58896142450731" lon="121.00194647870426"><ele>6.0</ele><time>2026-04-16T08:51:03Z</time></trkpt><trkpt lat="14.589097222850157" lon="121.00194118565953"><ele>6.0</ele><time>2026-04-16T08:51:04Z</time></trkpt><trkpt lat="14.58939966065459" lon="121.00192272443168"><ele>6.0</ele><time>2026-04-16T08:51:06Z</time></trkpt><trkpt lat="14.589559462322653" lon="121.0019115244981"><ele>6.0</ele><time>2026-04-16T08:51:07Z</time></trkpt><trkpt lat="14.589720077996214" lon="121.00189634781853"><ele>6.0</ele><time>2026-04-16T08:51:08Z</time></trkpt><trkpt lat="14.589875195558962" lon="121.00189440479221"><ele>6.0</ele><time>2026-04-16T08:51:09Z</time></trkpt><trkpt lat="14.590021157833544" lon="121.00188038682869"><ele>6.0</ele><time>2026-04-16T08:51:10Z</time></trkpt><trkpt lat="14.590172034709566" lon="121.00185488937683"><ele>6.0</ele><time>2026-04-16T08:51:11Z</time></trkpt><trkpt lat="14.59030786751686" lon="121.0018303082635"><ele>6.0</ele><time>2026-04-16T08:51:12Z</time></trkpt><trkpt lat="14.590431347592453" lon="121.00181434812335"><ele>5.75</ele><time>2026-04-16T08:51:13Z</time></trkpt><trkpt lat="14.590556211027303" lon="121.0017822828237"><ele>5.5</ele><time>2026-04-16T08:51:14Z</time></trkpt><trkpt lat="14.59067779400759" lon="121.0017744529252"><ele>5.25</ele><time>2026-04-16T08:51:15Z</time></trkpt><trkpt lat="14.59079504947079" lon="121.0017592340724"><ele>5.0</ele><time>2026-04-16T08:51:16Z</time></trkpt><trkpt lat="14.590909985506112" lon="121.00175793149066"><ele>5.0</ele><time>2026-04-16T08:51:17Z</time></trkpt><trkpt lat="14.59102067960059" lon="121.00174905502415"><ele>5.0</ele><time>2026-04-16T08:51:18Z</time></trkpt><trkpt lat="14.591124121939474" lon="121.00174467834913"><ele>5.0</ele><time>2026-04-16T08:51:19Z</time></trkpt><trkpt lat="14.591233873962256" lon="121.00173875774927"><ele>5.0</ele><time>2026-04-16T08:51:20Z</time></trkpt><trkpt lat="14.59135092929606" lon="121.00173241986114"><ele>5.0</ele><time>2026-04-16T08:51:21Z</time></trkpt><trkpt lat="14.591467008968083" lon="121.00172580269783"><ele>4.8</ele><time>2026-04-16T08:51:22Z</time></trkpt><trkpt lat="14.591568580356947" lon="121.00171971549412"><ele>4.6</ele><time>2026-04-16T08:51:23Z</time></trkpt><trkpt lat="14.591669838677785" lon="121.0017134879641"><ele>4.4</ele><time>2026-04-16T08:51:24Z</time></trkpt><trkpt lat="14.591752678424692" lon="121.00170839320096"><ele>4.2</ele><time>2026-04-16T08:51:25Z</time></trkpt><trkpt lat="14.591901695865277" lon="121.00169922841783"><ele>4.0</ele><time>2026-04-16T08:51:27Z</time></trkpt><trkpt lat="14.591973885585809" lon="121.00169478867703"><ele>3.833333333333333</ele><time>2026-04-16T08:51:28Z</time></trkpt><trkpt lat="14.592041134880867" lon="121.00169036221956"><ele>3.6666666666666665</ele><time>2026-04-16T08:51:29Z</time></trkpt><trkpt lat="14.592114689860143" lon="121.00168561088564"><ele>3.5</ele><time>2026-04-16T08:51:30Z</time></trkpt><trkpt lat="14.592179421267879" lon="121.00168142951647"><ele>3.333333333333333</ele><time>2026-04-16T08:51:31Z</time></trkpt><trkpt lat="14.592283966880949" lon="121.00167467632427"><ele>3.1666666666666665</ele><time>2026-04-16T08:51:33Z</time></trkpt><trkpt lat="14.59237884170096" lon="121.0016685478248"><ele>3.0</ele><time>2026-04-16T08:51:35Z</time></trkpt><trkpt lat="14.592464704646138" lon="121.00166300145115"><ele>3.0</ele><time>2026-04-16T08:51:37Z</time></trkpt><trkpt lat="14.59253772503164" lon="121.00165828465056"><ele>3.0</ele><time>2026-04-16T08:52:08Z</time></trkpt><trkpt lat="14.592704197114868" lon="121.00163645599176"><ele>3.0</ele><time>2026-04-16T08:52:12Z</time></trkpt><trkpt lat="14.592797991556159" lon="121.00162514698272"><ele>3.0</ele><time>2026-04-16T08:52:15Z</time></trkpt><trkpt lat="14.592884392647303" lon="121.00163138065422"><ele>3.0</ele><time>2026-04-16T08:52:17Z</time></trkpt><trkpt lat="14.592974075096855" lon="121.0016330250577"><ele>4.166666666666667</ele><time>2026-04-16T08:52:20Z</time></trkpt><trkpt lat="14.593076518146697" lon="121.00162757197698"><ele>5.333333333333334</ele><time>2026-04-16T08:52:22Z</time></trkpt><trkpt lat="14.593146540638244" lon="121.00162315330928"><ele>6.5</ele><time>2026-04-16T08:52:23Z</time></trkpt><trkpt lat="14.59322103654345" lon="121.0016189869211"><ele>7.666666666666667</ele><time>2026-04-16T08:52:24Z</time></trkpt><trkpt lat="14.593300648172567" lon="121.00161420266815"><ele>8.833333333333334</ele><time>2026-04-16T08:52:25Z</time></trkpt><trkpt lat="14.59338137647166" lon="121.00160837735976"><ele>10.0</ele><time>2026-04-16T08:52:26Z</time></trkpt><trkpt lat="14.593450228286324" lon="121.00160464529341"><ele>10.0</ele><time>2026-04-16T08:52:27Z</time></trkpt><trkpt lat="14.593529289527435" lon="121.00159560787942"><ele>10.0</ele><time>2026-04-16T08:52:28Z</time></trkpt><trkpt lat="14.593620383202179" lon="121.00158759595256"><ele>10.0</ele><time>2026-04-16T08:52:29Z</time></trkpt><trkpt lat="14.593820039655924" lon="121.0015744736665"><ele>10.0</ele><time>2026-04-16T08:52:31Z</time></trkpt><trkpt lat="14.593920429836116" lon="121.0015664607132"><ele>9.0</ele><time>2026-04-16T08:52:32Z</time></trkpt><trkpt lat="14.594013431300258" lon="121.00156101309156"><ele>8.0</ele><time>2026-04-16T08:52:33Z</time></trkpt><trkpt lat="14.594108172492364" lon="121.00155486398936"><ele>7.0</ele><time>2026-04-16T08:52:34Z</time></trkpt><trkpt lat="14.594203551789281" lon="121.00154737189787"><ele>6.0</ele><time>2026-04-16T08:52:35Z</time></trkpt><trkpt lat="14.59429914505475" lon="121.00154101493669"><ele>5.0</ele><time>2026-04-16T08:52:36Z</time></trkpt><trkpt lat="14.594393762350485" lon="121.00153420846206"><ele>5.0</ele><time>2026-04-16T08:52:37Z</time></trkpt><trkpt lat="14.594492693813008" lon="121.00152627778205"><ele>5.0</ele><time>2026-04-16T08:52:38Z</time></trkpt><trkpt lat="14.59460409988053" lon="121.00151860372083"><ele>5.0</ele><time>2026-04-16T08:52:39Z</time></trkpt><trkpt lat="14.594715976805062" lon="121.00151542118049"><ele>5.0</ele><time>2026-04-16T08:52:40Z</time></trkpt><trkpt lat="14.594840451785037" lon="121.0015070118255"><ele>5.0</ele><time>2026-04-16T08:52:41Z</time></trkpt><trkpt lat="14.594951084494046" lon="121.00150195757764"><ele>5.0</ele><time>2026-04-16T08:52:42Z</time></trkpt><trkpt lat="14.59506738817972" lon="121.00149549711267"><ele>5.0</ele><time>2026-04-16T08:52:43Z</time></trkpt><trkpt lat="14.59518448236109" lon="121.00149626325899"><ele>5.0</ele><time>2026-04-16T08:52:44Z</time></trkpt><trkpt lat="14.595314842472527" lon="121.00148791265165"><ele>5.0</ele><time>2026-04-16T08:52:45Z</time></trkpt><trkpt lat="14.595440891701571" lon="121.00148874148628"><ele>5.0</ele><time>2026-04-16T08:52:46Z</time></trkpt><trkpt lat="14.595576249076805" lon="121.00148292848286"><ele>5.0</ele><time>2026-04-16T08:52:47Z</time></trkpt><trkpt lat="14.595719770207255" lon="121.00147308510046"><ele>5.0</ele><time>2026-04-16T08:52:48Z</time></trkpt><trkpt lat="14.595869881656196" lon="121.00146392738426"><ele>5.0</ele><time>2026-04-16T08:52:49Z</time></trkpt><trkpt lat="14.596020298069035" lon="121.00145415924113"><ele>4.0</ele><time>2026-04-16T08:52:50Z</time></trkpt><trkpt lat="14.59633407979659" lon="121.0014360526935"><ele>3.0</ele><time>2026-04-16T08:52:52Z</time></trkpt><trkpt lat="14.596492663289165" lon="121.0014300144208"><ele>3.0</ele><time>2026-04-16T08:52:53Z</time></trkpt><trkpt lat="14.596652877277812" lon="121.00141930266717"><ele>3.0</ele><time>2026-04-16T08:52:54Z</time></trkpt><trkpt lat="14.596813581983955" lon="121.00140312025952"><ele>3.0</ele><time>2026-04-16T08:52:55Z</time></trkpt><trkpt lat="14.596963379575497" lon="121.0013896174937"><ele>4.0</ele><time>2026-04-16T08:52:56Z</time></trkpt><trkpt lat="14.597103468810067" lon="121.0013679914375"><ele>5.0</ele><time>2026-04-16T08:52:57Z</time></trkpt><trkpt lat="14.597248560679137" lon="121.00133902893339"><ele>6.0</ele><time>2026-04-16T08:52:58Z</time></trkpt><trkpt lat="14.597390799121976" lon="121.00129881993628"><ele>7.0</ele><time>2026-04-16T08:52:59Z</time></trkpt><trkpt lat="14.597527289215092" lon="121.00124892264488"><ele>7.0</ele><time>2026-04-16T08:53:00Z</time></trkpt><trkpt lat="14.597663167842816" lon="121.00119256853777"><ele>7.0</ele><time>2026-04-16T08:53:01Z</time></trkpt><trkpt lat="14.597796211637018" lon="121.00113106916763"><ele>7.0</ele><time>2026-04-16T08:53:02Z</time></trkpt><trkpt lat="14.597919933947317" lon="121.00106299080824"><ele>7.0</ele><time>2026-04-16T08:53:03Z</time></trkpt><trkpt lat="14.5980403844873" lon="121.00100259435567"><ele>7.0</ele><time>2026-04-16T08:53:04Z</time></trkpt><trkpt lat="14.598162671730565" lon="121.00094617721899"><ele>7.0</ele><time>2026-04-16T08:53:05Z</time></trkpt><trkpt lat="14.598272153196863" lon="121.00089031235494"><ele>7.0</ele><time>2026-04-16T08:53:06Z</time></trkpt><trkpt lat="14.598370363216542" lon="121.0008344055337"><ele>7.0</ele><time>2026-04-16T08:53:07Z</time></trkpt><trkpt lat="14.598461143362224" lon="121.000778129294"><ele>7.0</ele><time>2026-04-16T08:53:08Z</time></trkpt><trkpt lat="14.598566370081477" lon="121.00071415018364"><ele>7.0</ele><time>2026-04-16T08:53:09Z</time></trkpt><trkpt lat="14.59867947854872" lon="121.00064806394026"><ele>7.0</ele><time>2026-04-16T08:53:10Z</time></trkpt><trkpt lat="14.598797805904928" lon="121.00058807962998"><ele>7.0</ele><time>2026-04-16T08:53:11Z</time></trkpt><trkpt lat="14.59904484134025" lon="121.00045724108188"><ele>6.5</ele><time>2026-04-16T08:53:13Z</time></trkpt><trkpt lat="14.599164390858165" lon="121.00039917259166"><ele>6.0</ele><time>2026-04-16T08:53:14Z</time></trkpt><trkpt lat="14.599289742285869" lon="121.00034543644276"><ele>5.5</ele><time>2026-04-16T08:53:15Z</time></trkpt><trkpt lat="14.599422206261655" lon="121.00026811881112"><ele>5.0</ele><time>2026-04-16T08:53:16Z</time></trkpt><trkpt lat="14.599546822995753" lon="121.00020987676844"><ele>4.75</ele><time>2026-04-16T08:53:17Z</time></trkpt><trkpt lat="14.599668531793984" lon="121.00015346438869"><ele>4.5</ele><time>2026-04-16T08:53:18Z</time></trkpt><trkpt lat="14.599800146034239" lon="121.0000931288907"><ele>4.25</ele><time>2026-04-16T08:53:19Z</time></trkpt><trkpt lat="14.599936180112206" lon="121.00003055895047"><ele>4.0</ele><time>2026-04-16T08:53:20Z</time></trkpt><trkpt lat="14.600074179309045" lon="120.99996270154594"><ele>4.0</ele><time>2026-04-16T08:53:21Z</time></trkpt><trkpt lat="14.60020238960684" lon="120.9998937050883"><ele>4.0</ele><time>2026-04-16T08:53:22Z</time></trkpt><trkpt lat="14.600318265046575" lon="120.9998341874544"><ele>4.0</ele><time>2026-04-16T08:53:23Z</time></trkpt><trkpt lat="14.600447801579412" lon="120.99976858194003"><ele>4.0</ele><time>2026-04-16T08:53:24Z</time></trkpt><trkpt lat="14.600583348421335" lon="120.99970316357074"><ele>5.666666666666666</ele><time>2026-04-16T08:53:25Z</time></trkpt><trkpt lat="14.600721882427687" lon="120.9996383159248"><ele>7.333333333333333</ele><time>2026-04-16T08:53:26Z</time></trkpt><trkpt lat="14.600867048477195" lon="120.99955677403015"><ele>9.0</ele><time>2026-04-16T08:53:27Z</time></trkpt><trkpt lat="14.601011508622127" lon="120.99946713667069"><ele>8.666666666666666</ele><time>2026-04-16T08:53:28Z</time></trkpt><trkpt lat="14.601172735034035" lon="120.99937176348274"><ele>8.333333333333332</ele><time>2026-04-16T08:53:29Z</time></trkpt><trkpt lat="14.601321834096272" lon="120.99929619731097"><ele>8.0</ele><time>2026-04-16T08:53:30Z</time></trkpt><trkpt lat="14.601443902364782" lon="120.99923554155546"><ele>8.0</ele><time>2026-04-16T08:53:31Z</time></trkpt><trkpt lat="14.601551534632536" lon="120.99917948887541"><ele>8.0</ele><time>2026-04-16T08:53:32Z</time></trkpt><trkpt lat="14.60174331489601" lon="120.99907312638594"><ele>8.0</ele><time>2026-04-16T08:53:34Z</time></trkpt><trkpt lat="14.601833997166503" lon="120.99902998364068"><ele>8.0</ele><time>2026-04-16T08:53:35Z</time></trkpt><trkpt lat="14.601946797960823" lon="120.9989712280562"><ele>8.0</ele><time>2026-04-16T08:53:36Z</time></trkpt><trkpt lat="14.6020589670404" lon="120.99891511535276"><ele>8.0</ele><time>2026-04-16T08:53:37Z</time></trkpt><trkpt lat="14.602169419873967" lon="120.99886196638717"><ele>8.0</ele><time>2026-04-16T08:53:38Z</time></trkpt><trkpt lat="14.602284791467419" lon="120.99880412603005"><ele>8.0</ele><time>2026-04-16T08:53:39Z</time></trkpt><trkpt lat="14.602401918045683" lon="120.99874877576124"><ele>8.0</ele><time>2026-04-16T08:53:40Z</time></trkpt><trkpt lat="14.602517563721102" lon="120.9986894961669"><ele>8.0</ele><time>2026-04-16T08:53:41Z</time></trkpt><trkpt lat="14.602628999410744" lon="120.99863724899451"><ele>8.0</ele><time>2026-04-16T08:53:42Z</time></trkpt><trkpt lat="14.602763621218855" lon="120.998566058041"><ele>8.0</ele><time>2026-04-16T08:53:43Z</time></trkpt><trkpt lat="14.60289511962124" lon="120.9984943603338"><ele>8.0</ele><time>2026-04-16T08:53:44Z</time></trkpt><trkpt lat="14.603033905384398" lon="120.99841969686726"><ele>8.0</ele><time>2026-04-16T08:53:45Z</time></trkpt><trkpt lat="14.603172721399043" lon="120.9983499322925"><ele>8.0</ele><time>2026-04-16T08:53:46Z</time></trkpt><trkpt lat="14.603315937052583" lon="120.99827309083808"><ele>7.0</ele><time>2026-04-16T08:53:47Z</time></trkpt><trkpt lat="14.603451589476107" lon="120.99820390970693"><ele>6.0</ele><time>2026-04-16T08:53:48Z</time></trkpt><trkpt lat="14.603571196382775" lon="120.99814096484205"><ele>5.0</ele><time>2026-04-16T08:53:49Z</time></trkpt><trkpt lat="14.603686932398286" lon="120.99808863833748"><ele>4.0</ele><time>2026-04-16T08:53:50Z</time></trkpt><trkpt lat="14.60379591089315" lon="120.99802901977168"><ele>4.0</ele><time>2026-04-16T08:53:51Z</time></trkpt><trkpt lat="14.603896214138235" lon="120.99797406118732"><ele>4.0</ele><time>2026-04-16T08:53:52Z</time></trkpt><trkpt lat="14.60398538760643" lon="120.99792686931235"><ele>4.0</ele><time>2026-04-16T08:53:53Z</time></trkpt><trkpt lat="14.604200854166104" lon="120.99781972078972"><ele>4.0</ele><time>2026-04-16T08:53:55Z</time></trkpt><trkpt lat="14.604309052439422" lon="120.99776392648229"><ele>4.0</ele><time>2026-04-16T08:53:56Z</time></trkpt><trkpt lat="14.604419487623124" lon="120.99770362706136"><ele>4.0</ele><time>2026-04-16T08:53:57Z</time></trkpt><trkpt lat="14.60451738286995" lon="120.9976409319649"><ele>4.0</ele><time>2026-04-16T08:53:58Z</time></trkpt><trkpt lat="14.604606450219931" lon="120.99758327597036"><ele>4.2</ele><time>2026-04-16T08:53:59Z</time></trkpt><trkpt lat="14.60468836539177" lon="120.99753436792386"><ele>4.4</ele><time>2026-04-16T08:54:00Z</time></trkpt><trkpt lat="14.604776623676798" lon="120.9974783454373"><ele>4.6</ele><time>2026-04-16T08:54:01Z</time></trkpt><trkpt lat="14.604865787938625" lon="120.99741949267047"><ele>4.8</ele><time>2026-04-16T08:54:02Z</time></trkpt><trkpt lat="14.604952776633093" lon="120.99735440372699"><ele>5.0</ele><time>2026-04-16T08:54:03Z</time></trkpt><trkpt lat="14.605047215436073" lon="120.99728776501728"><ele>5.75</ele><time>2026-04-16T08:54:04Z</time></trkpt><trkpt lat="14.60513535659085" lon="120.99721747104259"><ele>6.5</ele><time>2026-04-16T08:54:05Z</time></trkpt><trkpt lat="14.605231350916982" lon="120.99713635759649"><ele>7.25</ele><time>2026-04-16T08:54:06Z</time></trkpt><trkpt lat="14.605315496974795" lon="120.99705785956121"><ele>8.0</ele><time>2026-04-16T08:54:07Z</time></trkpt><trkpt lat="14.605412215903245" lon="120.99697121946708"><ele>8.0</ele><time>2026-04-16T08:54:08Z</time></trkpt><trkpt lat="14.605507684861104" lon="120.99688011642857"><ele>8.0</ele><time>2026-04-16T08:54:09Z</time></trkpt><trkpt lat="14.605599078269526" lon="120.9967910987759"><ele>8.0</ele><time>2026-04-16T08:54:10Z</time></trkpt><trkpt lat="14.605690793056292" lon="120.9966948067567"><ele>8.0</ele><time>2026-04-16T08:54:11Z</time></trkpt><trkpt lat="14.605776438736486" lon="120.99662271781138"><ele>8.0</ele><time>2026-04-16T08:54:12Z</time></trkpt><trkpt lat="14.605870148172306" lon="120.99653357127681"><ele>8.0</ele><time>2026-04-16T08:54:13Z</time></trkpt><trkpt lat="14.605969009998887" lon="120.99643927999625"><ele>8.0</ele><time>2026-04-16T08:54:14Z</time></trkpt><trkpt lat="14.60616392067157" lon="120.9962691998563"><ele>7.5</ele><time>2026-04-16T08:54:16Z</time></trkpt><trkpt lat="14.606264897823745" lon="120.99617493800197"><ele>7.0</ele><time>2026-04-16T08:54:17Z</time></trkpt><trkpt lat="14.606363532961552" lon="120.99608280544454"><ele>6.5</ele><time>2026-04-16T08:54:18Z</time></trkpt><trkpt lat="14.606454312530657" lon="120.9959917191478"><ele>6.0</ele><time>2026-04-16T08:54:19Z</time></trkpt><trkpt lat="14.606541160532894" lon="120.99590492062141"><ele>6.199999999999999</ele><time>2026-04-16T08:54:20Z</time></trkpt><trkpt lat="14.606623310670761" lon="120.99582932659085"><ele>6.3999999999999995</ele><time>2026-04-16T08:54:21Z</time></trkpt><trkpt lat="14.606704960571943" lon="120.99576143331089"><ele>6.6</ele><time>2026-04-16T08:54:22Z</time></trkpt><trkpt lat="14.606787753148827" lon="120.99568683254834"><ele>6.8</ele><time>2026-04-16T08:54:23Z</time></trkpt><trkpt lat="14.606878067217716" lon="120.9956044212778"><ele>7.0</ele><time>2026-04-16T08:54:24Z</time></trkpt><trkpt lat="14.606969498290757" lon="120.99551192877364"><ele>6.5</ele><time>2026-04-16T08:54:25Z</time></trkpt><trkpt lat="14.607062656793834" lon="120.99542545425278"><ele>6.0</ele><time>2026-04-16T08:54:26Z</time></trkpt><trkpt lat="14.607154210364081" lon="120.99533922786293"><ele>5.5</ele><time>2026-04-16T08:54:27Z</time></trkpt><trkpt lat="14.60723912132164" lon="120.9952571127945"><ele>5.0</ele><time>2026-04-16T08:54:28Z</time></trkpt><trkpt lat="14.607327135972886" lon="120.9951758162424"><ele>5.0</ele><time>2026-04-16T08:54:29Z</time></trkpt><trkpt lat="14.607416388998802" lon="120.99508440837677"><ele>5.0</ele><time>2026-04-16T08:54:30Z</time></trkpt><trkpt lat="14.607507785419473" lon="120.99500223715786"><ele>5.0</ele><time>2026-04-16T08:54:31Z</time></trkpt><trkpt lat="14.607595363716205" lon="120.99491328271434"><ele>5.0</ele><time>2026-04-16T08:54:32Z</time></trkpt><trkpt lat="14.607698103798848" lon="120.9948025402599"><ele>5.333333333333334</ele><time>2026-04-16T08:54:33Z</time></trkpt><trkpt lat="14.607794050106675" lon="120.99470642078218"><ele>5.666666666666667</ele><time>2026-04-16T08:54:34Z</time></trkpt><trkpt lat="14.607887731795985" lon="120.9946177556266"><ele>6.0</ele><time>2026-04-16T08:54:35Z</time></trkpt><trkpt lat="14.608068143872304" lon="120.99441081425921"><ele>6.0</ele><time>2026-04-16T08:54:37Z</time></trkpt><trkpt lat="14.608138446067725" lon="120.99436981042241"><ele>6.0</ele><time>2026-04-16T08:54:38Z</time></trkpt><trkpt lat="14.608213004037617" lon="120.99430133532826"><ele>6.0</ele><time>2026-04-16T08:54:39Z</time></trkpt><trkpt lat="14.608289136717218" lon="120.9942183897205"><ele>6.0</ele><time>2026-04-16T08:54:40Z</time></trkpt><trkpt lat="14.608354142492438" lon="120.99416767342741"><ele>6.0</ele><time>2026-04-16T08:54:41Z</time></trkpt><trkpt lat="14.608417584189054" lon="120.99410432579958"><ele>6.166666666666667</ele><time>2026-04-16T08:54:42Z</time></trkpt><trkpt lat="14.608480984037037" lon="120.99404523732044"><ele>6.333333333333334</ele><time>2026-04-16T08:54:43Z</time></trkpt><trkpt lat="14.608539701187814" lon="120.99399191804135"><ele>6.5</ele><time>2026-04-16T08:54:44Z</time></trkpt><trkpt lat="14.608633491759605" lon="120.99391506078095"><ele>6.666666666666667</ele><time>2026-04-16T08:54:46Z</time></trkpt><trkpt lat="14.608694731319497" lon="120.99387552949209"><ele>6.833333333333334</ele><time>2026-04-16T08:54:48Z</time></trkpt><trkpt lat="14.608753583286992" lon="120.99383645962001"><ele>7.0</ele><time>2026-04-16T08:54:52Z</time></trkpt><trkpt lat="14.608813811405991" lon="120.99378652658743"><ele>6.25</ele><time>2026-04-16T08:54:54Z</time></trkpt><trkpt lat="14.608877184163347" lon="120.99372104681852"><ele>5.5</ele><time>2026-04-16T08:54:56Z</time></trkpt><trkpt lat="14.609021160303897" lon="120.99358092846825"><ele>4.75</ele><time>2026-04-16T08:55:00Z</time></trkpt><trkpt lat="14.609096387338033" lon="120.99350956400065"><ele>4.0</ele><time>2026-04-16T08:55:02Z</time></trkpt><trkpt lat="14.609155323030244" lon="120.99345327190908"><ele>4.0</ele><time>2026-04-16T08:55:04Z</time></trkpt><trkpt lat="14.609232000496384" lon="120.99339643370682"><ele>4.0</ele><time>2026-04-16T08:55:07Z</time></trkpt><trkpt lat="14.609281608461647" lon="120.9933518553285"><ele>4.0</ele><time>2026-04-16T08:55:10Z</time></trkpt><trkpt lat="14.60932194586751" lon="120.99329353034526"><ele>4.0</ele><time>2026-04-16T08:56:08Z</time></trkpt><trkpt lat="14.609422276695986" lon="120.9931507431138"><ele>4.0</ele><time>2026-04-16T08:56:17Z</time></trkpt><trkpt lat="14.60948042681901" lon="120.99309286855113"><ele>4.166666666666666</ele><time>2026-04-16T08:56:19Z</time></trkpt><trkpt lat="14.609545973285595" lon="120.9930380801953"><ele>4.333333333333333</ele><time>2026-04-16T08:56:21Z</time></trkpt><trkpt lat="14.609607541187357" lon="120.99298793413848"><ele>4.5</ele><time>2026-04-16T08:56:23Z</time></trkpt><trkpt lat="14.609664887355795" lon="120.99293454080662"><ele>4.666666666666667</ele><time>2026-04-16T08:56:25Z</time></trkpt><trkpt lat="14.609717762143127" lon="120.9928735345917"><ele>4.833333333333334</ele><time>2026-04-16T08:56:27Z</time></trkpt><trkpt lat="14.609768699551362" lon="120.99282123786065"><ele>5.0</ele><time>2026-04-16T08:56:29Z</time></trkpt><trkpt lat="14.609860398007067" lon="120.99271839594289"><ele>5.0</ele><time>2026-04-16T08:56:33Z</time></trkpt><trkpt lat="14.609917033021746" lon="120.99266040744955"><ele>5.0</ele><time>2026-04-16T08:56:35Z</time></trkpt><trkpt lat="14.609997282005587" lon="120.9925826560355"><ele>5.0</ele><time>2026-04-16T08:56:37Z</time></trkpt><trkpt lat="14.610046550295635" lon="120.99253642316505"><ele>5.0</ele><time>2026-04-16T08:56:38Z</time></trkpt><trkpt lat="14.61012647936093" lon="120.99246338684728"><ele>5.0</ele><time>2026-04-16T08:56:40Z</time></trkpt><trkpt lat="14.610209463526994" lon="120.992392384334"><ele>5.2</ele><time>2026-04-16T08:56:42Z</time></trkpt><trkpt lat="14.61030166034401" lon="120.99232318297098"><ele>5.4</ele><time>2026-04-16T08:56:44Z</time></trkpt><trkpt lat="14.610342034296794" lon="120.99227287609932"><ele>5.6</ele><time>2026-04-16T08:56:45Z</time></trkpt><trkpt lat="14.610393342280808" lon="120.99222171399764"><ele>5.8</ele><time>2026-04-16T08:56:46Z</time></trkpt><trkpt lat="14.61047313380267" lon="120.99215713096373"><ele>6.0</ele><time>2026-04-16T08:56:48Z</time></trkpt><trkpt lat="14.610549631547006" lon="120.99208520881322"><ele>6.5</ele><time>2026-04-16T08:56:50Z</time></trkpt><trkpt lat="14.610690714603482" lon="120.99195887542304"><ele>7.0</ele><time>2026-04-16T08:56:54Z</time></trkpt><trkpt lat="14.610763171827951" lon="120.99189673487156"><ele>7.5</ele><time>2026-04-16T08:56:56Z</time></trkpt><trkpt lat="14.61082179278311" lon="120.9918441486368"><ele>8.0</ele><time>2026-04-16T08:56:58Z</time></trkpt><trkpt lat="14.610894374126458" lon="120.99176802429565"><ele>8.0</ele><time>2026-04-16T08:57:00Z</time></trkpt><trkpt lat="14.6109713247827" lon="120.99170370119884"><ele>8.0</ele><time>2026-04-16T08:57:02Z</time></trkpt><trkpt lat="14.611066327092567" lon="120.99163738191275"><ele>8.0</ele><time>2026-04-16T08:57:04Z</time></trkpt><trkpt lat="14.611142312555087" lon="120.99155594278815"><ele>8.0</ele><time>2026-04-16T08:57:06Z</time></trkpt><trkpt lat="14.611208973496934" lon="120.99149074532957"><ele>8.0</ele><time>2026-04-16T08:57:08Z</time></trkpt><trkpt lat="14.61126360501536" lon="120.991420932786"><ele>8.25</ele><time>2026-04-16T08:57:10Z</time></trkpt><trkpt lat="14.61135383196647" lon="120.99133863900066"><ele>8.5</ele><time>2026-04-16T08:57:12Z</time></trkpt><trkpt lat="14.611451342678016" lon="120.99124538196318"><ele>8.75</ele><time>2026-04-16T08:57:14Z</time></trkpt><trkpt lat="14.611500126308885" lon="120.99119434703486"><ele>9.0</ele><time>2026-04-16T08:57:15Z</time></trkpt><trkpt lat="14.611597694515897" lon="120.99110554280239"><ele>9.0</ele><time>2026-04-16T08:57:17Z</time></trkpt><trkpt lat="14.611674315796241" lon="120.99102490597969"><ele>9.0</ele><time>2026-04-16T08:57:19Z</time></trkpt><trkpt lat="14.611749777201151" lon="120.99094780449816"><ele>9.0</ele><time>2026-04-16T08:57:21Z</time></trkpt><trkpt lat="14.61181053041197" lon="120.99089368458625"><ele>9.0</ele><time>2026-04-16T08:57:23Z</time></trkpt><trkpt lat="14.611864701433422" lon="120.99083809727865"><ele>9.0</ele><time>2026-04-16T08:57:25Z</time></trkpt><trkpt lat="14.611946407682671" lon="120.99080111470165"><ele>8.6</ele><time>2026-04-16T08:57:28Z</time></trkpt><trkpt lat="14.611995383498673" lon="120.99086183413472"><ele>8.2</ele><time>2026-04-16T08:57:29Z</time></trkpt><trkpt lat="14.612045838534396" lon="120.9909246775015"><ele>7.799999999999999</ele><time>2026-04-16T08:57:31Z</time></trkpt><trkpt lat="14.612100622007931" lon="120.99098624787173"><ele>7.3999999999999995</ele><time>2026-04-16T08:57:33Z</time></trkpt><trkpt lat="14.612207464540097" lon="120.99110781736984"><ele>7.0</ele><time>2026-04-16T08:57:37Z</time></trkpt><trkpt lat="14.6122493738667" lon="120.99117527726416"><ele>7.000000000000001</ele><time>2026-04-16T08:57:39Z</time></trkpt><trkpt lat="14.612316472036799" lon="120.99123608292696"><ele>7.0</ele><time>2026-04-16T08:57:41Z</time></trkpt><trkpt lat="14.612372445523373" lon="120.99129295638457"><ele>7.0</ele><time>2026-04-16T08:57:43Z</time></trkpt><trkpt lat="14.612424059303947" lon="120.99133977031441"><ele>7.0</ele><time>2026-04-16T08:57:45Z</time></trkpt><trkpt lat="14.612534540891863" lon="120.99129710564956"><ele>7.000000000000001</ele><time>2026-04-16T08:57:47Z</time></trkpt><trkpt lat="14.612580037011686" lon="120.99125180245385"><ele>7.0</ele><time>2026-04-16T08:57:48Z</time></trkpt><trkpt lat="14.612631515765921" lon="120.99120041835525"><ele>7.0</ele><time>2026-04-16T08:57:49Z</time></trkpt><trkpt lat="14.612714007691855" lon="120.9911178032294"><ele>6.999999999999999</ele><time>2026-04-16T08:57:51Z</time></trkpt><trkpt lat="14.612775750127597" lon="120.9910559686132"><ele>6.999999999999999</ele><time>2026-04-16T08:57:53Z</time></trkpt><trkpt lat="14.612838390947303" lon="120.99099323421689"><ele>7.0</ele><time>2026-04-16T08:57:55Z</time></trkpt><trkpt lat="14.612931719254535" lon="120.99089404941977"><ele>7.0</ele><time>2026-04-16T08:57:57Z</time></trkpt><trkpt lat="14.613007441924388" lon="120.99082233087402"><ele>7.500000000000001</ele><time>2026-04-16T08:57:59Z</time></trkpt><trkpt lat="14.613075861689401" lon="120.99076209726786"><ele>8.0</ele><time>2026-04-16T08:58:01Z</time></trkpt><trkpt lat="14.613124738692125" lon="120.99071694301477"><ele>8.5</ele><time>2026-04-16T08:58:03Z</time></trkpt><trkpt lat="14.613165799364753" lon="120.990664500645"><ele>9.0</ele><time>2026-04-16T08:58:04Z</time></trkpt><trkpt lat="14.61324202111351" lon="120.99060011645241"><ele>9.5</ele><time>2026-04-16T08:58:06Z</time></trkpt><trkpt lat="14.613321172414256" lon="120.99052829568167"><ele>10.0</ele><time>2026-04-16T08:58:08Z</time></trkpt><trkpt lat="14.613384530847068" lon="120.99045790964406"><ele>10.0</ele><time>2026-04-16T08:58:10Z</time></trkpt><trkpt lat="14.613447221370105" lon="120.99038774448397"><ele>10.0</ele><time>2026-04-16T08:58:13Z</time></trkpt><trkpt lat="14.61349621082402" lon="120.99033636262921"><ele>10.0</ele><time>2026-04-16T08:58:20Z</time></trkpt><trkpt lat="14.61333024144397" lon="120.99013212253443"><ele>10.0</ele><time>2026-04-16T08:58:24Z</time></trkpt><trkpt lat="14.61327237516416" lon="120.99007070853123"><ele>9.6</ele><time>2026-04-16T08:58:26Z</time></trkpt><trkpt lat="14.613199370244214" lon="120.99000670016477"><ele>9.2</ele><time>2026-04-16T08:58:28Z</time></trkpt><trkpt lat="14.613145894972924" lon="120.9899299478695"><ele>8.8</ele><time>2026-04-16T08:58:30Z</time></trkpt><trkpt lat="14.613078250151982" lon="120.9898554556731"><ele>8.4</ele><time>2026-04-16T08:58:32Z</time></trkpt><trkpt lat="14.61301540441949" lon="120.98978628418507"><ele>8.0</ele><time>2026-04-16T08:58:34Z</time></trkpt><trkpt lat="14.612952433301718" lon="120.98972849444962"><ele>8.333333333333332</ele><time>2026-04-16T08:58:36Z</time></trkpt><trkpt lat="14.6127847232835" lon="120.98979433233869"><ele>8.666666666666666</ele><time>2026-04-16T08:58:39Z</time></trkpt><trkpt lat="14.612701302955928" lon="120.98987704852392"><ele>9.0</ele><time>2026-04-16T08:58:41Z</time></trkpt><trkpt lat="14.612569165735241" lon="120.98999340946652"><ele>9.166666666666666</ele><time>2026-04-16T08:58:43.999Z</time></trkpt><trkpt lat="14.612518129518174" lon="120.9900440834661"><ele>9.333333333333334</ele><time>2026-04-16T08:58:44.999Z</time></trkpt><trkpt lat="14.612463422973526" lon="120.99009753668845"><ele>9.5</ele><time>2026-04-16T08:58:45.999Z</time></trkpt><trkpt lat="14.612413644930363" lon="120.99014561790709"><ele>9.666666666666668</ele><time>2026-04-16T08:58:46.999Z</time></trkpt><trkpt lat="14.612367861110199" lon="120.99019064683543"><ele>9.833333333333334</ele><time>2026-04-16T08:58:47.999Z</time></trkpt><trkpt lat="14.61229023813049" lon="120.99026881987227"><ele>10.0</ele><time>2026-04-16T08:58:49.999Z</time></trkpt><trkpt lat="14.612201349543945" lon="120.9903341570118"><ele>10.0</ele><time>2026-04-16T08:58:51.999Z</time></trkpt><trkpt lat="14.612147602454709" lon="120.99038191442368"><ele>10.0</ele><time>2026-04-16T08:58:52.999Z</time></trkpt><trkpt lat="14.612085406689038" lon="120.99043330345926"><ele>10.0</ele><time>2026-04-16T08:58:53.999Z</time></trkpt><trkpt lat="14.612028013278191" lon="120.99048192077346"><ele>10.0</ele><time>2026-04-16T08:58:54.999Z</time></trkpt><trkpt lat="14.611964858693984" lon="120.99054751334738"><ele>10.0</ele><time>2026-04-16T08:58:55.999Z</time></trkpt><trkpt lat="14.611891133774785" lon="120.99061749931016"><ele>10.0</ele><time>2026-04-16T08:58:56.999Z</time></trkpt><trkpt lat="14.611814890228793" lon="120.99066755409555"><ele>9.75</ele><time>2026-04-16T08:58:57.999Z</time></trkpt><trkpt lat="14.61176534555372" lon="120.99072305366286"><ele>9.5</ele><time>2026-04-16T08:58:58.999Z</time></trkpt><trkpt lat="14.611719179788672" lon="120.99077085060485"><ele>9.25</ele><time>2026-04-16T08:58:59.999Z</time></trkpt><trkpt lat="14.61165641788384" lon="120.99083291175761"><ele>9.0</ele><time>2026-04-16T08:59:01.999Z</time></trkpt><trkpt lat="14.611458943452657" lon="120.99101128882313"><ele>9.0</ele><time>2026-04-16T08:59:35Z</time></trkpt><trkpt lat="14.61140365932828" lon="120.99106583467275"><ele>9.0</ele><time>2026-04-16T08:59:37Z</time></trkpt><trkpt lat="14.611350082889588" lon="120.99111174574725"><ele>9.0</ele><time>2026-04-16T08:59:39Z</time></trkpt><trkpt lat="14.611263591321375" lon="120.99107119487631"><ele>9.0</ele><time>2026-04-16T08:59:42Z</time></trkpt><trkpt lat="14.61122421837089" lon="120.99100827131377"><ele>9.0</ele><time>2026-04-16T08:59:44Z</time></trkpt><trkpt lat="14.611183470813899" lon="120.99094798386862"><ele>9.0</ele><time>2026-04-16T08:59:46Z</time></trkpt><trkpt lat="14.611127841975415" lon="120.99090277873043"><ele>8.8</ele><time>2026-04-16T08:59:47Z</time></trkpt><trkpt lat="14.611080360254638" lon="120.99084926457722"><ele>8.600000000000001</ele><time>2026-04-16T08:59:48Z</time></trkpt><trkpt lat="14.611005884245213" lon="120.9907843901029"><ele>8.4</ele><time>2026-04-16T08:59:50Z</time></trkpt><trkpt lat="14.61096302512028" lon="120.99073557248448"><ele>8.200000000000001</ele><time>2026-04-16T08:59:53Z</time></trkpt><trkpt lat="14.61084847393684" lon="120.99061172910962"><ele>8.0</ele><time>2026-04-16T08:59:57Z</time></trkpt><trkpt lat="14.610785813776829" lon="120.99053907427091"><ele>8.666666666666666</ele><time>2026-04-16T09:00:01Z</time></trkpt><trkpt lat="14.610736670074946" lon="120.99048020814392"><ele>9.333333333333332</ele><time>2026-04-16T09:00:03Z</time></trkpt><trkpt lat="14.610688373139423" lon="120.99042182388456"><ele>10.0</ele><time>2026-04-16T09:00:05Z</time></trkpt><trkpt lat="14.610621469551806" lon="120.99034649074837"><ele>10.666666666666666</ele><time>2026-04-16T09:00:07Z</time></trkpt><trkpt lat="14.610568299592279" lon="120.99028197302997"><ele>11.333333333333334</ele><time>2026-04-16T09:00:09Z</time></trkpt><trkpt lat="14.610490055092145" lon="120.9901988919457"><ele>12.0</ele><time>2026-04-16T09:00:11Z</time></trkpt><trkpt lat="14.610425408835777" lon="120.99013409097992"><ele>12.0</ele><time>2026-04-16T09:00:13Z</time></trkpt><trkpt lat="14.61035649518365" lon="120.99005013533613"><ele>12.0</ele><time>2026-04-16T09:00:15Z</time></trkpt><trkpt lat="14.610253279197218" lon="120.98993597233272"><ele>12.0</ele><time>2026-04-16T09:00:21Z</time></trkpt><trkpt lat="14.610201014007087" lon="120.98987427865717"><ele>12.0</ele><time>2026-04-16T09:00:27Z</time></trkpt><trkpt lat="14.610201808291626" lon="120.98977483711485"><ele>12.0</ele><time>2026-04-16T09:00:31Z</time></trkpt><trkpt lat="14.610246016764831" lon="120.98971040096602"><ele>11.2</ele><time>2026-04-16T09:00:33Z</time></trkpt><trkpt lat="14.610301131385327" lon="120.98966126977446"><ele>10.399999999999999</ele><time>2026-04-16T09:00:35Z</time></trkpt><trkpt lat="14.610352625350629" lon="120.98960441881408"><ele>9.600000000000001</ele><time>2026-04-16T09:00:37Z</time></trkpt><trkpt lat="14.61045471117845" lon="120.98950190642778"><ele>8.8</ele><time>2026-04-16T09:00:41Z</time></trkpt><trkpt lat="14.610525216990785" lon="120.98943041650584"><ele>8.0</ele><time>2026-04-16T09:00:44Z</time></trkpt><trkpt lat="14.610590641444603" lon="120.9893765858174"><ele>8.0</ele><time>2026-04-16T09:00:48.999Z</time></trkpt><trkpt lat="14.610644003026577" lon="120.98932343574818"><ele>8.0</ele><time>2026-04-16T09:00:52.999Z</time></trkpt><trkpt lat="14.610702456314383" lon="120.98926605403898"><ele>8.0</ele><time>2026-04-16T09:00:56.999Z</time></trkpt><trkpt lat="14.61075170481355" lon="120.9892146160098"><ele>8.0</ele><time>2026-04-16T09:00:59.999Z</time></trkpt><trkpt lat="14.610846628585655" lon="120.98911307413256"><ele>8.0</ele><time>2026-04-16T09:01:03.999Z</time></trkpt><trkpt lat="14.610911247554466" lon="120.98904749067988"><ele>8.333333333333332</ele><time>2026-04-16T09:01:06.999Z</time></trkpt><trkpt lat="14.610964115843808" lon="120.98900233173664"><ele>8.666666666666666</ele><time>2026-04-16T09:01:08.999Z</time></trkpt><trkpt lat="14.611020831839381" lon="120.98895748080552"><ele>9.0</ele><time>2026-04-16T09:01:10.999Z</time></trkpt><trkpt lat="14.611091362860094" lon="120.98891815680773"><ele>9.333333333333334</ele><time>2026-04-16T09:01:13.999Z</time></trkpt><trkpt lat="14.611142459680803" lon="120.98885005627497"><ele>9.666666666666668</ele><time>2026-04-16T09:01:16.999Z</time></trkpt><trkpt lat="14.611203434485581" lon="120.9887869491154"><ele>10.0</ele><time>2026-04-16T09:01:19.999Z</time></trkpt><trkpt lat="14.611248277772257" lon="120.98874035474778"><ele>10.0</ele><time>2026-04-16T09:01:22.999Z</time></trkpt><trkpt lat="14.61122004325835" lon="120.98850603367332"><ele>10.0</ele><time>2026-04-16T09:01:36Z</time></trkpt><trkpt lat="14.611165256555314" lon="120.98845697474192"><ele>10.0</ele><time>2026-04-16T09:01:38Z</time></trkpt><trkpt lat="14.611104626827276" lon="120.98838107984086"><ele>10.0</ele><time>2026-04-16T09:01:41Z</time></trkpt><trkpt lat="14.611064115720964" lon="120.98832949430955"><ele>10.0</ele><time>2026-04-16T09:01:43Z</time></trkpt><trkpt lat="14.611007873444477" lon="120.98827663633593"><ele>10.0</ele><time>2026-04-16T09:01:45Z</time></trkpt><trkpt lat="14.610882891740589" lon="120.98816058677843"><ele>10.0</ele><time>2026-04-16T09:01:49Z</time></trkpt><trkpt lat="14.610823024416655" lon="120.98808494725968"><ele>10.0</ele><time>2026-04-16T09:01:51Z</time></trkpt><trkpt lat="14.610774773673398" lon="120.98803752732371"><ele>10.0</ele><time>2026-04-16T09:01:53Z</time></trkpt><trkpt lat="14.610704603867735" lon="120.98806549880055"><ele>10.0</ele><time>2026-04-16T09:01:56Z</time></trkpt><trkpt lat="14.610641254861635" lon="120.98811834406446"><ele>10.0</ele><time>2026-04-16T09:01:57Z</time></trkpt><trkpt lat="14.610567916205776" lon="120.9881901543028"><ele>10.0</ele><time>2026-04-16T09:01:59Z</time></trkpt><trkpt lat="14.610490273154829" lon="120.98825917732779"><ele>10.0</ele><time>2026-04-16T09:02:01Z</time></trkpt><trkpt lat="14.610424150126384" lon="120.98832529806245"><ele>10.0</ele><time>2026-04-16T09:02:03Z</time></trkpt><trkpt lat="14.610336263543605" lon="120.98840205244305"><ele>9.6</ele><time>2026-04-16T09:02:05Z</time></trkpt><trkpt lat="14.610269692543469" lon="120.98846204548845"><ele>9.2</ele><time>2026-04-16T09:02:07Z</time></trkpt><trkpt lat="14.61016529786499" lon="120.98855647441405"><ele>8.8</ele><time>2026-04-16T09:02:13Z</time></trkpt><trkpt lat="14.610102824886217" lon="120.9886239100067"><ele>8.4</ele><time>2026-04-16T09:02:16Z</time></trkpt><trkpt lat="14.610046504011672" lon="120.98867662157544"><ele>8.0</ele><time>2026-04-16T09:02:18Z</time></trkpt><trkpt lat="14.609978198908317" lon="120.98873879973208"><ele>8.0</ele><time>2026-04-16T09:02:20Z</time></trkpt><trkpt lat="14.609895611743275" lon="120.98881888036519"><ele>8.0</ele><time>2026-04-16T09:02:22Z</time></trkpt><trkpt lat="14.609818649382548" lon="120.98889668025082"><ele>8.0</ele><time>2026-04-16T09:02:24Z</time></trkpt><trkpt lat="14.609746082894368" lon="120.98896829760065"><ele>8.0</ele><time>2026-04-16T09:02:26Z</time></trkpt><trkpt lat="14.609679530076273" lon="120.98902410740796"><ele>8.0</ele><time>2026-04-16T09:02:28Z</time></trkpt><trkpt lat="14.609577846457293" lon="120.98911928314318"><ele>8.0</ele><time>2026-04-16T09:02:34Z</time></trkpt><trkpt lat="14.609519074666004" lon="120.98916025466454"><ele>8.0</ele><time>2026-04-16T09:02:38Z</time></trkpt><trkpt lat="14.60943745912828" lon="120.9890679259339"><ele>8.0</ele><time>2026-04-16T09:02:40Z</time></trkpt><trkpt lat="14.609362319412101" lon="120.98898294245565"><ele>8.0</ele><time>2026-04-16T09:02:42Z</time></trkpt><trkpt lat="14.609305634837721" lon="120.98891883182097"><ele>8.0</ele><time>2026-04-16T09:02:44Z</time></trkpt><trkpt lat="14.60936076592328" lon="120.9889556424656"><ele>7.499999999999999</ele><time>2026-04-16T09:02:54.999Z</time></trkpt><trkpt lat="14.60932254537968" lon="120.98890149233588"><ele>7.0</ele><time>2026-04-16T09:07:46Z</time></trkpt><trkpt lat="14.609216201620697" lon="120.98880528555434"><ele>6.5</ele><time>2026-04-16T09:08:01Z</time></trkpt><trkpt lat="14.609178510063352" lon="120.98874895666319"><ele>6.0</ele><time>2026-04-16T09:08:05Z</time></trkpt><trkpt lat="14.609138868453368" lon="120.9886942659743"><ele>5.5</ele><time>2026-04-16T09:08:12Z</time></trkpt><trkpt lat="14.609093363488373" lon="120.98864132444032"><ele>5.0</ele><time>2026-04-16T09:08:21Z</time></trkpt><trkpt lat="14.609007637533967" lon="120.98853640748948"><ele>5.0</ele><time>2026-04-16T09:08:36.001Z</time></trkpt><trkpt lat="14.608968805895934" lon="120.98848201010917"><ele>5.0</ele><time>2026-04-16T09:08:43.001Z</time></trkpt><trkpt lat="14.608867934801367" lon="120.98839511388792"><ele>5.0</ele><time>2026-04-16T09:08:56.001Z</time></trkpt><trkpt lat="14.60882318300403" lon="120.98834054630295"><ele>5.0</ele><time>2026-04-16T09:09:03.001Z</time></trkpt><trkpt lat="14.608769850539185" lon="120.98830015000364"><ele>5.0</ele><time>2026-04-16T09:09:09.001Z</time></trkpt><trkpt lat="14.608644862425542" lon="120.98823433613775"><ele>8.0</ele><time>2026-04-16T09:09:21.999Z</time></trkpt><trkpt lat="14.608590143353835" lon="120.98819694204569"><ele>8.0</ele><time>2026-04-16T09:09:26.999Z</time></trkpt><trkpt lat="14.608547417312714" lon="120.988148149433"><ele>8.0</ele><time>2026-04-16T09:09:33.999Z</time></trkpt><trkpt lat="14.608507244993485" lon="120.98819883114477"><ele>8.0</ele><time>2026-04-16T09:13:26.997Z</time></trkpt></trkseg><trkseg><trkpt lat="14.608570369857095" lon="120.98794402343427"><ele>8.0</ele><time>2026-04-16T09:24:44.01Z</time></trkpt><trkpt lat="14.60852593741886" lon="120.98801333545319"><ele>7.999999999999999</ele><time>2026-04-16T09:24:46.01Z</time></trkpt><trkpt lat="14.608462847920437" lon="120.98802774374283"><ele>8.0</ele><time>2026-04-16T09:24:52.997Z</time></trkpt><trkpt lat="14.60841075899802" lon="120.98799101421174"><ele>8.0</ele><time>2026-04-16T09:24:59.998Z</time></trkpt><trkpt lat="14.608393527554583" lon="120.987924252009"><ele>7.999999999999999</ele><time>2026-04-16T09:25:07.999Z</time></trkpt><trkpt lat="14.608337222193912" lon="120.98789468684974"><ele>8.0</ele><time>2026-04-16T09:25:18.999Z</time></trkpt><trkpt lat="14.608279022804439" lon="120.9879292774171"><ele>8.0</ele><time>2026-04-16T09:25:26Z</time></trkpt><trkpt lat="14.60822983965924" lon="120.98797416554149"><ele>8.0</ele><time>2026-04-16T09:25:31Z</time></trkpt><trkpt lat="14.60818570475131" lon="120.98803133395677"><ele>7.999999999999999</ele><time>2026-04-16T09:25:36Z</time></trkpt><trkpt lat="14.608142390134542" lon="120.98809218934966"><ele>8.0</ele><time>2026-04-16T09:25:42Z</time></trkpt><trkpt lat="14.608108018206247" lon="120.9881562950063"><ele>8.0</ele><time>2026-04-16T09:25:49.001Z</time></trkpt><trkpt lat="14.608055770755387" lon="120.98820597955489"><ele>7.999999999999999</ele><time>2026-04-16T09:25:56.001Z</time></trkpt><trkpt lat="14.60799532883042" lon="120.98824656584019"><ele>8.0</ele><time>2026-04-16T09:26:05.001Z</time></trkpt><trkpt lat="14.607956912494094" lon="120.98830926868358"><ele>8.0</ele><time>2026-04-16T09:26:13.001Z</time></trkpt><trkpt lat="14.607897371339172" lon="120.988346986617"><ele>8.0</ele><time>2026-04-16T09:26:18.001Z</time></trkpt><trkpt lat="14.607828017659703" lon="120.98833380385607"><ele>7.999999999999999</ele><time>2026-04-16T09:26:24.001Z</time></trkpt><trkpt lat="14.607764756717183" lon="120.98831587965441"><ele>8.0</ele><time>2026-04-16T09:26:31.002Z</time></trkpt><trkpt lat="14.607695802779196" lon="120.9882938930869"><ele>8.0</ele><time>2026-04-16T09:26:43.002Z</time></trkpt><trkpt lat="14.607658135653885" lon="120.98824134650448"><ele>7.999999999999999</ele><time>2026-04-16T09:26:58Z</time></trkpt><trkpt lat="14.607604555100073" lon="120.98819497489723"><ele>8.0</ele><time>2026-04-16T09:27:15Z</time></trkpt><trkpt lat="14.607554445695722" lon="120.98815306626705"><ele>8.0</ele><time>2026-04-16T09:27:23Z</time></trkpt><trkpt lat="14.607505355320964" lon="120.98811094665537"><ele>8.0</ele><time>2026-04-16T09:27:35Z</time></trkpt><trkpt lat="14.607453144380532" lon="120.98807367485466"><ele>8.0</ele><time>2026-04-16T09:27:54.001Z</time></trkpt><trkpt lat="14.607399782741446" lon="120.98802782709738"><ele>8.0</ele><time>2026-04-16T09:28:05.001Z</time></trkpt><trkpt lat="14.608282991587604" lon="120.98794086978309"><ele>8.0</ele><time>2026-04-16T10:22:31.066Z</time></trkpt><trkpt lat="14.608258426404536" lon="120.9880478627495"><ele>8.0</ele><time>2026-04-16T10:22:32.066Z</time></trkpt><trkpt lat="14.608083177920903" lon="120.98790470748283"><ele>8.0</ele><time>2026-04-16T10:22:34.067Z</time></trkpt><trkpt lat="14.60819759563228" lon="120.98792689418946"><ele>8.0</ele><time>2026-04-16T10:22:35.067Z</time></trkpt><trkpt lat="14.60835201765714" lon="120.98798429466915"><ele>7.999999999999999</ele><time>2026-04-16T10:22:36.067Z</time></trkpt><trkpt lat="14.608430913507664" lon="120.98799490686193"><ele>8.0</ele><time>2026-04-16T10:22:55.014Z</time></trkpt><trkpt lat="14.608474207626966" lon="120.98804734739389"><ele>8.0</ele><time>2026-04-16T10:22:59.01Z</time></trkpt><trkpt lat="14.60853046237603" lon="120.98810289462281"><ele>8.0</ele><time>2026-04-16T10:23:04.007Z</time></trkpt><trkpt lat="14.608565570679218" lon="120.9881615566779"><ele>7.999999999999999</ele><time>2026-04-16T10:23:09.005Z</time></trkpt><trkpt lat="14.608621749641536" lon="120.9882138510783"><ele>8.0</ele><time>2026-04-16T10:23:14.003Z</time></trkpt><trkpt lat="14.60873603052044" lon="120.9882591069078"><ele>8.285714285714285</ele><time>2026-04-16T10:23:26.001Z</time></trkpt><trkpt lat="14.608794574820413" lon="120.98828362280811"><ele>8.571428571428571</ele><time>2026-04-16T10:23:31.001Z</time></trkpt><trkpt lat="14.608843905152005" lon="120.9883408274676"><ele>8.857142857142858</ele><time>2026-04-16T10:23:36Z</time></trkpt><trkpt lat="14.608890282929599" lon="120.98840082151307"><ele>9.142857142857142</ele><time>2026-04-16T10:23:41Z</time></trkpt><trkpt lat="14.608928379783205" lon="120.98845528866681"><ele>9.428571428571429</ele><time>2026-04-16T10:23:48Z</time></trkpt><trkpt lat="14.608972181085957" lon="120.98850382884035"><ele>9.714285714285714</ele><time>2026-04-16T10:23:54Z</time></trkpt><trkpt lat="14.609023048995805" lon="120.98856485601337"><ele>10.0</ele><time>2026-04-16T10:24:00Z</time></trkpt><trkpt lat="14.60907105669322" lon="120.98861395985101"><ele>9.285714285714285</ele><time>2026-04-16T10:24:05.999Z</time></trkpt><trkpt lat="14.609127287353726" lon="120.98866193809405"><ele>8.571428571428571</ele><time>2026-04-16T10:24:11.999Z</time></trkpt><trkpt lat="14.609184456342547" lon="120.98869274209089"><ele>7.857142857142858</ele><time>2026-04-16T10:24:16.999Z</time></trkpt><trkpt lat="14.609227262724074" lon="120.98874401371387"><ele>7.142857142857142</ele><time>2026-04-16T10:24:23.999Z</time></trkpt><trkpt lat="14.609269620649846" lon="120.98879432208449"><ele>6.428571428571429</ele><time>2026-04-16T10:24:35.999Z</time></trkpt><trkpt lat="14.609321675791811" lon="120.98883862318189"><ele>5.714285714285714</ele><time>2026-04-16T10:24:45.999Z</time></trkpt><trkpt lat="14.609382575682588" lon="120.98887487469904"><ele>5.0</ele><time>2026-04-16T10:25:29Z</time></trkpt><trkpt lat="14.609432137268517" lon="120.98891586694997"><ele>5.0</ele><time>2026-04-16T10:25:34Z</time></trkpt><trkpt lat="14.609470128214003" lon="120.98897200320428"><ele>5.0</ele><time>2026-04-16T10:25:38Z</time></trkpt><trkpt lat="14.609495728505978" lon="120.98903223651736"><ele>5.0</ele><time>2026-04-16T10:25:43Z</time></trkpt><trkpt lat="14.60952425176889" lon="120.98909195374158"><ele>5.0</ele><time>2026-04-16T10:25:50Z</time></trkpt><trkpt lat="14.609559535998295" lon="120.98914978799995"><ele>5.0</ele><time>2026-04-16T10:25:55.001Z</time></trkpt><trkpt lat="14.609606909589253" lon="120.98920302019809"><ele>5.0</ele><time>2026-04-16T10:26:01.001Z</time></trkpt><trkpt lat="14.609648905943539" lon="120.98925368426988"><ele>5.0</ele><time>2026-04-16T10:26:05.001Z</time></trkpt><trkpt lat="14.609684948933904" lon="120.98932338866146"><ele>5.285714285714286</ele><time>2026-04-16T10:26:12.001Z</time></trkpt><trkpt lat="14.609731352814588" lon="120.98938624106209"><ele>5.571428571428571</ele><time>2026-04-16T10:26:40.001Z</time></trkpt><trkpt lat="14.609770139279414" lon="120.98943820038095"><ele>5.857142857142858</ele><time>2026-04-16T10:26:50Z</time></trkpt><trkpt lat="14.609816324630748" lon="120.98948289639239"><ele>6.142857142857142</ele><time>2026-04-16T10:26:54Z</time></trkpt><trkpt lat="14.609876634886385" lon="120.9895134674831"><ele>6.428571428571429</ele><time>2026-04-16T10:27:01Z</time></trkpt><trkpt lat="14.609919033341772" lon="120.98957280592545"><ele>6.714285714285714</ele><time>2026-04-16T10:27:05Z</time></trkpt><trkpt lat="14.609978247805351" lon="120.9896034947546"><ele>7.0</ele><time>2026-04-16T10:27:11Z</time></trkpt><trkpt lat="14.610017966933581" lon="120.98967937507425"><ele>7.0</ele><time>2026-04-16T10:27:17Z</time></trkpt><trkpt lat="14.610070718402529" lon="120.9897443220096"><ele>6.999999999999999</ele><time>2026-04-16T10:27:23Z</time></trkpt><trkpt lat="14.61011732337289" lon="120.98980883755186"><ele>6.999999999999999</ele><time>2026-04-16T10:27:30Z</time></trkpt><trkpt lat="14.61017183107647" lon="120.98987748467493"><ele>7.0</ele><time>2026-04-16T10:27:40Z</time></trkpt><trkpt lat="14.61023278657403" lon="120.98992414820447"><ele>7.0</ele><time>2026-04-16T10:27:46Z</time></trkpt><trkpt lat="14.610260316007578" lon="120.99009930155998"><ele>10.0</ele><time>2026-04-16T10:29:12Z</time></trkpt><trkpt lat="14.606467062063041" lon="120.98921776502934"><ele>10.0</ele><time>2026-04-16T10:42:09.001Z</time></trkpt><trkpt lat="14.606411884147665" lon="120.98914946688001"><ele>10.0</ele><time>2026-04-16T10:42:10.001Z</time></trkpt><trkpt lat="14.606339029670863" lon="120.9890692277785"><ele>10.0</ele><time>2026-04-16T10:42:11.001Z</time></trkpt><trkpt lat="14.606257537062096" lon="120.98899613207332"><ele>10.0</ele><time>2026-04-16T10:42:12.001Z</time></trkpt><trkpt lat="14.606178517018694" lon="120.98890094495586"><ele>10.0</ele><time>2026-04-16T10:42:13.001Z</time></trkpt><trkpt lat="14.606113928736503" lon="120.98882007533007"><ele>10.0</ele><time>2026-04-16T10:42:14.001Z</time></trkpt><trkpt lat="14.606042587554203" lon="120.98874061747958"><ele>10.0</ele><time>2026-04-16T10:42:15.001Z</time></trkpt><trkpt lat="14.605973898257325" lon="120.98866411322925"><ele>10.0</ele><time>2026-04-16T10:42:16.001Z</time></trkpt><trkpt lat="14.605894516524415" lon="120.98857490927374"><ele>10.0</ele><time>2026-04-16T10:42:17.001Z</time></trkpt><trkpt lat="14.605820042640431" lon="120.98849164907034"><ele>10.0</ele><time>2026-04-16T10:42:18.001Z</time></trkpt><trkpt lat="14.605756461146099" lon="120.98842177682411"><ele>10.0</ele><time>2026-04-16T10:42:19.001Z</time></trkpt><trkpt lat="14.60568683209509" lon="120.98834525877218"><ele>10.0</ele><time>2026-04-16T10:42:20.001Z</time></trkpt><trkpt lat="14.60562347133495" lon="120.98825886837844"><ele>10.0</ele><time>2026-04-16T10:42:21.001Z</time></trkpt><trkpt lat="14.605568441507415" lon="120.98818760258347"><ele>10.0</ele><time>2026-04-16T10:42:22.001Z</time></trkpt><trkpt lat="14.605486781139371" lon="120.9881244576566"><ele>10.0</ele><time>2026-04-16T10:42:23.001Z</time></trkpt><trkpt lat="14.605439255402542" lon="120.98802774518377"><ele>10.0</ele><time>2026-04-16T10:42:24.001Z</time></trkpt><trkpt lat="14.605387073238399" lon="120.98793068744203"><ele>10.0</ele><time>2026-04-16T10:42:25.001Z</time></trkpt><trkpt lat="14.605358562523863" lon="120.98784423516375"><ele>10.0</ele><time>2026-04-16T10:42:26.001Z</time></trkpt><trkpt lat="14.6053241275256" lon="120.98774402707076"><ele>10.0</ele><time>2026-04-16T10:42:27.001Z</time></trkpt><trkpt lat="14.605287378534413" lon="120.98763981275033"><ele>10.0</ele><time>2026-04-16T10:42:28.001Z</time></trkpt><trkpt lat="14.605268987492751" lon="120.98752974004412"><ele>10.25</ele><time>2026-04-16T10:42:29.001Z</time></trkpt><trkpt lat="14.605240745325185" lon="120.9874148057319"><ele>10.5</ele><time>2026-04-16T10:42:30.001Z</time></trkpt><trkpt lat="14.605199611982437" lon="120.98729411481665"><ele>10.75</ele><time>2026-04-16T10:42:31.001Z</time></trkpt><trkpt lat="14.60518112197129" lon="120.98716512606003"><ele>11.0</ele><time>2026-04-16T10:42:32.001Z</time></trkpt><trkpt lat="14.605154098737536" lon="120.9870320851392"><ele>11.0</ele><time>2026-04-16T10:42:33.001Z</time></trkpt><trkpt lat="14.605122448182689" lon="120.98689340956757"><ele>11.0</ele><time>2026-04-16T10:42:34.001Z</time></trkpt><trkpt lat="14.60509109801215" lon="120.98675076073273"><ele>11.0</ele><time>2026-04-16T10:42:35.001Z</time></trkpt><trkpt lat="14.605058971958512" lon="120.98661172054621"><ele>11.0</ele><time>2026-04-16T10:42:36.001Z</time></trkpt><trkpt lat="14.60502120767168" lon="120.98646852305276"><ele>11.0</ele><time>2026-04-16T10:42:37.001Z</time></trkpt><trkpt lat="14.60498632208462" lon="120.98632515400129"><ele>11.0</ele><time>2026-04-16T10:42:38.001Z</time></trkpt><trkpt lat="14.604946787884442" lon="120.98617282348455"><ele>11.0</ele><time>2026-04-16T10:42:39.001Z</time></trkpt><trkpt lat="14.604912256733861" lon="120.98603293238733"><ele>11.0</ele><time>2026-04-16T10:42:40.001Z</time></trkpt><trkpt lat="14.6048817197839" lon="120.98589701781609"><ele>10.8</ele><time>2026-04-16T10:42:41.001Z</time></trkpt><trkpt lat="14.604856169071926" lon="120.98577545857407"><ele>10.600000000000001</ele><time>2026-04-16T10:42:42.001Z</time></trkpt><trkpt lat="14.604825790567926" lon="120.98567001153667"><ele>10.4</ele><time>2026-04-16T10:42:43.001Z</time></trkpt><trkpt lat="14.604788677507452" lon="120.98557166567717"><ele>10.2</ele><time>2026-04-16T10:42:44.001Z</time></trkpt><trkpt lat="14.604747603540444" lon="120.98549066582002"><ele>10.0</ele><time>2026-04-16T10:42:45.001Z</time></trkpt><trkpt lat="14.604695211536997" lon="120.98542426830247"><ele>10.0</ele><time>2026-04-16T10:42:46.001Z</time></trkpt><trkpt lat="14.604638615592922" lon="120.9853739657335"><ele>10.0</ele><time>2026-04-16T10:42:47.001Z</time></trkpt><trkpt lat="14.604575137987494" lon="120.98532581813501"><ele>10.0</ele><time>2026-04-16T10:42:48.001Z</time></trkpt><trkpt lat="14.604489268044588" lon="120.98527815916547"><ele>10.0</ele><time>2026-04-16T10:42:49.001Z</time></trkpt><trkpt lat="14.604388405994667" lon="120.98522888189692"><ele>10.0</ele><time>2026-04-16T10:42:50.001Z</time></trkpt><trkpt lat="14.604295415602834" lon="120.9852123501594"><ele>10.25</ele><time>2026-04-16T10:42:51.001Z</time></trkpt><trkpt lat="14.60420657047951" lon="120.98523214389276"><ele>10.5</ele><time>2026-04-16T10:42:52.001Z</time></trkpt><trkpt lat="14.604108049073966" lon="120.98523929518473"><ele>10.75</ele><time>2026-04-16T10:42:53.001Z</time></trkpt><trkpt lat="14.60397196699076" lon="120.98519438917866"><ele>11.0</ele><time>2026-04-16T10:42:54.001Z</time></trkpt><trkpt lat="14.60385268032315" lon="120.98517317073218"><ele>11.0</ele><time>2026-04-16T10:42:55.001Z</time></trkpt><trkpt lat="14.603738478988554" lon="120.98514967190623"><ele>11.0</ele><time>2026-04-16T10:42:56.001Z</time></trkpt><trkpt lat="14.603626297563594" lon="120.98513039622705"><ele>11.0</ele><time>2026-04-16T10:42:57.001Z</time></trkpt><trkpt lat="14.603521742007503" lon="120.98510824563772"><ele>11.0</ele><time>2026-04-16T10:42:58.001Z</time></trkpt><trkpt lat="14.603414434794619" lon="120.98508664293665"><ele>11.0</ele><time>2026-04-16T10:42:59.001Z</time></trkpt><trkpt lat="14.603330815520795" lon="120.9850704380636"><ele>11.0</ele><time>2026-04-16T10:43:00.001Z</time></trkpt><trkpt lat="14.603266941330473" lon="120.98505581032025"><ele>11.0</ele><time>2026-04-16T10:43:01.001Z</time></trkpt><trkpt lat="14.603126040566622" lon="120.98502401262097"><ele>11.0</ele><time>2026-04-16T10:43:03.001Z</time></trkpt><trkpt lat="14.603035545306232" lon="120.98499954848721"><ele>11.0</ele><time>2026-04-16T10:43:04.001Z</time></trkpt><trkpt lat="14.602939488941882" lon="120.984972711432"><ele>11.0</ele><time>2026-04-16T10:43:05.001Z</time></trkpt><trkpt lat="14.602830875333193" lon="120.98494169223804"><ele>11.8</ele><time>2026-04-16T10:43:06.001Z</time></trkpt><trkpt lat="14.602746263358245" lon="120.98492616376635"><ele>12.600000000000001</ele><time>2026-04-16T10:43:07.001Z</time></trkpt><trkpt lat="14.602635262261574" lon="120.98490423546245"><ele>13.4</ele><time>2026-04-16T10:43:08.001Z</time></trkpt><trkpt lat="14.602517175832546" lon="120.98489068544933"><ele>14.2</ele><time>2026-04-16T10:43:09.001Z</time></trkpt><trkpt lat="14.602403664893579" lon="120.98485961420866"><ele>15.0</ele><time>2026-04-16T10:43:10.001Z</time></trkpt><trkpt lat="14.602275632157134" lon="120.98483493546026"><ele>15.0</ele><time>2026-04-16T10:43:11.001Z</time></trkpt><trkpt lat="14.602155288084047" lon="120.98481106762758"><ele>15.0</ele><time>2026-04-16T10:43:12.001Z</time></trkpt><trkpt lat="14.602034845611506" lon="120.98478588452569"><ele>15.0</ele><time>2026-04-16T10:43:13.001Z</time></trkpt><trkpt lat="14.601930704487522" lon="120.9847622787496"><ele>15.0</ele><time>2026-04-16T10:43:14.001Z</time></trkpt><trkpt lat="14.601825702214294" lon="120.984745100015"><ele>13.6</ele><time>2026-04-16T10:43:15.001Z</time></trkpt><trkpt lat="14.601716334279622" lon="120.98472788608493"><ele>12.2</ele><time>2026-04-16T10:43:16.001Z</time></trkpt><trkpt lat="14.601621236037374" lon="120.9847048911357"><ele>10.8</ele><time>2026-04-16T10:43:17.001Z</time></trkpt><trkpt lat="14.601503772692205" lon="120.98468497782622"><ele>9.4</ele><time>2026-04-16T10:43:18.001Z</time></trkpt><trkpt lat="14.601392715406147" lon="120.98465852632854"><ele>8.0</ele><time>2026-04-16T10:43:19.001Z</time></trkpt><trkpt lat="14.60129577836914" lon="120.98462816795688"><ele>8.0</ele><time>2026-04-16T10:43:20.001Z</time></trkpt><trkpt lat="14.601167957209462" lon="120.98460076883376"><ele>8.0</ele><time>2026-04-16T10:43:21.001Z</time></trkpt><trkpt lat="14.601029971577603" lon="120.98458529111258"><ele>8.0</ele><time>2026-04-16T10:43:22.001Z</time></trkpt><trkpt lat="14.600900733556202" lon="120.98456118787473"><ele>8.0</ele><time>2026-04-16T10:43:23.001Z</time></trkpt><trkpt lat="14.600776880581801" lon="120.9845372488599"><ele>8.0</ele><time>2026-04-16T10:43:24.001Z</time></trkpt><trkpt lat="14.600643235299579" lon="120.98451299448972"><ele>8.0</ele><time>2026-04-16T10:43:25.001Z</time></trkpt><trkpt lat="14.600515002014852" lon="120.98448731316269"><ele>8.0</ele><time>2026-04-16T10:43:26.002Z</time></trkpt><trkpt lat="14.600387610630698" lon="120.98445254423723"><ele>8.0</ele><time>2026-04-16T10:43:27.002Z</time></trkpt><trkpt lat="14.600253761676838" lon="120.98443213530497"><ele>8.0</ele><time>2026-04-16T10:43:28.002Z</time></trkpt><trkpt lat="14.600139836838895" lon="120.98441072340336"><ele>8.0</ele><time>2026-04-16T10:43:29.002Z</time></trkpt><trkpt lat="14.60003211445365" lon="120.9843902610445"><ele>8.0</ele><time>2026-04-16T10:43:30.002Z</time></trkpt><trkpt lat="14.59993692264299" lon="120.98437584448465"><ele>8.0</ele><time>2026-04-16T10:43:31.002Z</time></trkpt><trkpt lat="14.599840659597032" lon="120.9843511824794"><ele>8.0</ele><time>2026-04-16T10:43:32.002Z</time></trkpt><trkpt lat="14.599755158228588" lon="120.98433229619125"><ele>7.999999999999999</ele><time>2026-04-16T10:43:33.002Z</time></trkpt><trkpt lat="14.599675040716686" lon="120.98431072166653"><ele>8.0</ele><time>2026-04-16T10:43:34.002Z</time></trkpt><trkpt lat="14.599606586408763" lon="120.98429545432383"><ele>8.0</ele><time>2026-04-16T10:43:35.001Z</time></trkpt><trkpt lat="14.599538856585161" lon="120.98428227346001"><ele>8.0</ele><time>2026-04-16T10:43:36.001Z</time></trkpt><trkpt lat="14.599468339667334" lon="120.98427274773768"><ele>7.999999999999999</ele><time>2026-04-16T10:43:37.001Z</time></trkpt><trkpt lat="14.5993599278639" lon="120.98425877027579"><ele>8.0</ele><time>2026-04-16T10:43:39.001Z</time></trkpt><trkpt lat="14.599251037754247" lon="120.98424162696647"><ele>8.0</ele><time>2026-04-16T10:43:41.001Z</time></trkpt><trkpt lat="14.599150883129314" lon="120.984212610478"><ele>8.0</ele><time>2026-04-16T10:43:43.001Z</time></trkpt><trkpt lat="14.599033615358982" lon="120.9842028190294"><ele>8.0</ele><time>2026-04-16T10:43:45.001Z</time></trkpt><trkpt lat="14.598926903537837" lon="120.98418091484719"><ele>8.0</ele><time>2026-04-16T10:43:47.001Z</time></trkpt><trkpt lat="14.598809090627743" lon="120.98414629990177"><ele>8.0</ele><time>2026-04-16T10:43:49.001Z</time></trkpt><trkpt lat="14.598686499225101" lon="120.98411186085674"><ele>8.0</ele><time>2026-04-16T10:43:51.001Z</time></trkpt><trkpt lat="14.598593251222496" lon="120.98408583110314"><ele>8.0</ele><time>2026-04-16T10:43:52.001Z</time></trkpt><trkpt lat="14.598502886586939" lon="120.98407026513807"><ele>8.0</ele><time>2026-04-16T10:43:53.001Z</time></trkpt><trkpt lat="14.598389647250052" lon="120.98404737159711"><ele>8.0</ele><time>2026-04-16T10:43:54.001Z</time></trkpt><trkpt lat="14.598275148568321" lon="120.98402634527913"><ele>8.75</ele><time>2026-04-16T10:43:55.001Z</time></trkpt><trkpt lat="14.59815187310666" lon="120.98400240614485"><ele>9.5</ele><time>2026-04-16T10:43:56.001Z</time></trkpt><trkpt lat="14.59802410432288" lon="120.98398522442076"><ele>10.25</ele><time>2026-04-16T10:43:57.001Z</time></trkpt><trkpt lat="14.597876615871053" lon="120.98396381199989"><ele>11.0</ele><time>2026-04-16T10:43:58.001Z</time></trkpt><trkpt lat="14.597776703403442" lon="120.98395058752982"><ele>11.0</ele><time>2026-04-16T10:43:59.001Z</time></trkpt><trkpt lat="14.597650180057858" lon="120.98392371747545"><ele>11.0</ele><time>2026-04-16T10:44:00.001Z</time></trkpt><trkpt lat="14.597516954027807" lon="120.98388924059883"><ele>11.0</ele><time>2026-04-16T10:44:01.001Z</time></trkpt><trkpt lat="14.59739734104525" lon="120.98386806823387"><ele>11.0</ele><time>2026-04-16T10:44:02.001Z</time></trkpt><trkpt lat="14.597279857108143" lon="120.9838408633021"><ele>11.0</ele><time>2026-04-16T10:44:03.001Z</time></trkpt><trkpt lat="14.597175302914088" lon="120.98382208943407"><ele>11.0</ele><time>2026-04-16T10:44:04.001Z</time></trkpt><trkpt lat="14.59706534499279" lon="120.98380308837197"><ele>11.0</ele><time>2026-04-16T10:44:05.001Z</time></trkpt><trkpt lat="14.596948543495548" lon="120.9837763040821"><ele>11.0</ele><time>2026-04-16T10:44:06.001Z</time></trkpt><trkpt lat="14.596842987954107" lon="120.98374802298291"><ele>11.0</ele><time>2026-04-16T10:44:07.001Z</time></trkpt><trkpt lat="14.596745091658017" lon="120.98371290848779"><ele>10.4</ele><time>2026-04-16T10:44:08.001Z</time></trkpt><trkpt lat="14.596665126688272" lon="120.98366281637689"><ele>9.8</ele><time>2026-04-16T10:44:09.001Z</time></trkpt><trkpt lat="14.596600086105783" lon="120.98360553341524"><ele>9.200000000000001</ele><time>2026-04-16T10:44:10.001Z</time></trkpt><trkpt lat="14.596546199285841" lon="120.98353214791109"><ele>8.600000000000001</ele><time>2026-04-16T10:44:11.001Z</time></trkpt><trkpt lat="14.596496878342913" lon="120.98344129605928"><ele>8.0</ele><time>2026-04-16T10:44:12.001Z</time></trkpt><trkpt lat="14.59644968169153" lon="120.9833501635304"><ele>8.25</ele><time>2026-04-16T10:44:13.001Z</time></trkpt><trkpt lat="14.596386134344918" lon="120.98324631615387"><ele>8.5</ele><time>2026-04-16T10:44:14.001Z</time></trkpt><trkpt lat="14.596316397470758" lon="120.98314527882913"><ele>8.75</ele><time>2026-04-16T10:44:15.001Z</time></trkpt><trkpt lat="14.596235066370394" lon="120.9830337936026"><ele>9.0</ele><time>2026-04-16T10:44:16.001Z</time></trkpt><trkpt lat="14.596155723893073" lon="120.9829234950605"><ele>8.25</ele><time>2026-04-16T10:44:17.001Z</time></trkpt><trkpt lat="14.596083533390349" lon="120.98281517591316"><ele>7.5</ele><time>2026-04-16T10:44:18.001Z</time></trkpt><trkpt lat="14.596003146164762" lon="120.98269949199585"><ele>6.75</ele><time>2026-04-16T10:44:19.001Z</time></trkpt><trkpt lat="14.595931443756138" lon="120.98258523313463"><ele>6.0</ele><time>2026-04-16T10:44:20.001Z</time></trkpt><trkpt lat="14.595847510499699" lon="120.98246896563019"><ele>4.5</ele><time>2026-04-16T10:44:21.001Z</time></trkpt><trkpt lat="14.595779616735836" lon="120.98235905380506"><ele>3.0</ele><time>2026-04-16T10:44:22.001Z</time></trkpt><trkpt lat="14.595715495748912" lon="120.98225162938944"><ele>1.5</ele><time>2026-04-16T10:44:23.001Z</time></trkpt><trkpt lat="14.595638609111642" lon="120.98214263163852"><ele>0.0</ele><time>2026-04-16T10:44:24.001Z</time></trkpt><trkpt lat="14.595560192343846" lon="120.98203475926543"><ele>0.0</ele><time>2026-04-16T10:44:25.001Z</time></trkpt><trkpt lat="14.595492883303612" lon="120.98191370262425"><ele>0.0</ele><time>2026-04-16T10:44:26.001Z</time></trkpt><trkpt lat="14.595418277254874" lon="120.98179351976383"><ele>0.0</ele><time>2026-04-16T10:44:27.001Z</time></trkpt><trkpt lat="14.59535627146233" lon="120.98169150649117"><ele>0.0</ele><time>2026-04-16T10:44:28.001Z</time></trkpt><trkpt lat="14.595300512592468" lon="120.98160873517237"><ele>2.0</ele><time>2026-04-16T10:44:29.001Z</time></trkpt><trkpt lat="14.595251966621245" lon="120.98154730849278"><ele>4.0</ele><time>2026-04-16T10:44:30.001Z</time></trkpt><trkpt lat="14.595196780440642" lon="120.98147281968792"><ele>6.0</ele><time>2026-04-16T10:44:31.001Z</time></trkpt><trkpt lat="14.595149516618724" lon="120.98138926543861"><ele>8.0</ele><time>2026-04-16T10:44:32.001Z</time></trkpt><trkpt lat="14.595097292178046" lon="120.98130475183689"><ele>10.0</ele><time>2026-04-16T10:44:33.001Z</time></trkpt><trkpt lat="14.595039976638045" lon="120.98121694087735"><ele>10.0</ele><time>2026-04-16T10:44:34.001Z</time></trkpt><trkpt lat="14.594980614777365" lon="120.98113214030764"><ele>10.0</ele><time>2026-04-16T10:44:35.001Z</time></trkpt><trkpt lat="14.594914806223011" lon="120.98103736445611"><ele>10.0</ele><time>2026-04-16T10:44:36.001Z</time></trkpt><trkpt lat="14.5948536098331" lon="120.98095219397155"><ele>10.0</ele><time>2026-04-16T10:44:37.001Z</time></trkpt><trkpt lat="14.594794374394416" lon="120.98084040656221"><ele>10.0</ele><time>2026-04-16T10:44:38.001Z</time></trkpt><trkpt lat="14.594733119128867" lon="120.98074629479747"><ele>9.75</ele><time>2026-04-16T10:44:39.001Z</time></trkpt><trkpt lat="14.594683343786793" lon="120.98067530727776"><ele>9.5</ele><time>2026-04-16T10:44:40.001Z</time></trkpt><trkpt lat="14.594634928242659" lon="120.98060609771622"><ele>9.25</ele><time>2026-04-16T10:44:41.001Z</time></trkpt><trkpt lat="14.594511583381731" lon="120.98042679481333"><ele>9.0</ele><time>2026-04-16T10:44:43.001Z</time></trkpt><trkpt lat="14.594451342277765" lon="120.9803447949977"><ele>8.833333333333334</ele><time>2026-04-16T10:44:44.001Z</time></trkpt><trkpt lat="14.594396813761996" lon="120.98026032513535"><ele>8.666666666666666</ele><time>2026-04-16T10:44:45.001Z</time></trkpt><trkpt lat="14.59435065339754" lon="120.9801810594399"><ele>8.5</ele><time>2026-04-16T10:44:46.001Z</time></trkpt><trkpt lat="14.594312233802718" lon="120.98011120287129"><ele>8.333333333333332</ele><time>2026-04-16T10:44:47.001Z</time></trkpt><trkpt lat="14.594283954420236" lon="120.98003920275337"><ele>8.166666666666666</ele><time>2026-04-16T10:44:48.001Z</time></trkpt><trkpt lat="14.594265470347512" lon="120.97997416985208"><ele>8.0</ele><time>2026-04-16T10:44:49.001Z</time></trkpt><trkpt lat="14.594234701208835" lon="120.97987423383799"><ele>8.4</ele><time>2026-04-16T10:44:51.001Z</time></trkpt><trkpt lat="14.594220849507371" lon="120.97979233024407"><ele>8.8</ele><time>2026-04-16T10:44:54.001Z</time></trkpt><trkpt lat="14.594203984030695" lon="120.97969431755752"><ele>9.2</ele><time>2026-04-16T10:44:57.001Z</time></trkpt><trkpt lat="14.594173417219888" lon="120.97958085940336"><ele>9.6</ele><time>2026-04-16T10:44:59.001Z</time></trkpt><trkpt lat="14.594140997075359" lon="120.97947757046798"><ele>10.0</ele><time>2026-04-16T10:45:01.001Z</time></trkpt><trkpt lat="14.594108522373492" lon="120.97938096043747"><ele>10.0</ele><time>2026-04-16T10:45:03.001Z</time></trkpt><trkpt lat="14.594086173878617" lon="120.97931394747586"><ele>10.0</ele><time>2026-04-16T10:45:04.001Z</time></trkpt><trkpt lat="14.594060621388781" lon="120.97925076539276"><ele>10.0</ele><time>2026-04-16T10:45:05.001Z</time></trkpt><trkpt lat="14.594027450116783" lon="120.97918592696558"><ele>10.0</ele><time>2026-04-16T10:45:06.001Z</time></trkpt><trkpt lat="14.593980546822873" lon="120.97912131163292"><ele>10.0</ele><time>2026-04-16T10:45:07.001Z</time></trkpt><trkpt lat="14.593930209373406" lon="120.97908109684353"><ele>10.0</ele><time>2026-04-16T10:45:08.001Z</time></trkpt><trkpt lat="14.593808712066402" lon="120.97900701181771"><ele>9.166666666666668</ele><time>2026-04-16T10:45:10.001Z</time></trkpt><trkpt lat="14.593697515617244" lon="120.97898127141968"><ele>8.333333333333334</ele><time>2026-04-16T10:45:12.001Z</time></trkpt><trkpt lat="14.593628245891576" lon="120.97898170344257"><ele>7.5</ele><time>2026-04-16T10:45:13.001Z</time></trkpt><trkpt lat="14.59355913669265" lon="120.97899281714739"><ele>6.666666666666667</ele><time>2026-04-16T10:45:14.001Z</time></trkpt><trkpt lat="14.593493418846025" lon="120.97901514602"><ele>5.833333333333334</ele><time>2026-04-16T10:45:15.001Z</time></trkpt><trkpt lat="14.593426378664029" lon="120.97905809358889"><ele>5.0</ele><time>2026-04-16T10:45:16.001Z</time></trkpt><trkpt lat="14.593362923081703" lon="120.97910235521904"><ele>5.0</ele><time>2026-04-16T10:45:17.001Z</time></trkpt><trkpt lat="14.593312929905194" lon="120.97915174641322"><ele>5.0</ele><time>2026-04-16T10:45:18.001Z</time></trkpt><trkpt lat="14.593254884651346" lon="120.97919308271278"><ele>5.0</ele><time>2026-04-16T10:45:19.001Z</time></trkpt><trkpt lat="14.593185295450406" lon="120.97924205239082"><ele>5.0</ele><time>2026-04-16T10:45:20.001Z</time></trkpt><trkpt lat="14.593121096774004" lon="120.97929281040508"><ele>5.0</ele><time>2026-04-16T10:45:21.001Z</time></trkpt><trkpt lat="14.59304088175898" lon="120.97934693660146"><ele>5.0</ele><time>2026-04-16T10:45:22.001Z</time></trkpt><trkpt lat="14.592957816106495" lon="120.97939957725495"><ele>5.0</ele><time>2026-04-16T10:45:23.001Z</time></trkpt><trkpt lat="14.592874963781163" lon="120.9794488913339"><ele>5.0</ele><time>2026-04-16T10:45:24.001Z</time></trkpt><trkpt lat="14.59279881196524" lon="120.97949918872766"><ele>5.0</ele><time>2026-04-16T10:45:25.001Z</time></trkpt><trkpt lat="14.592725825804619" lon="120.9795575333258"><ele>5.0</ele><time>2026-04-16T10:45:26.001Z</time></trkpt><trkpt lat="14.592654525531806" lon="120.97962259741429"><ele>5.0</ele><time>2026-04-16T10:45:27.001Z</time></trkpt><trkpt lat="14.59257285587491" lon="120.9796857026609"><ele>5.6</ele><time>2026-04-16T10:45:28.001Z</time></trkpt><trkpt lat="14.59249364160828" lon="120.97974351488365"><ele>6.2</ele><time>2026-04-16T10:45:29.001Z</time></trkpt><trkpt lat="14.592405783890504" lon="120.9798052677693"><ele>6.800000000000001</ele><time>2026-04-16T10:45:30.001Z</time></trkpt><trkpt lat="14.592333332064507" lon="120.97986600678915"><ele>7.4</ele><time>2026-04-16T10:45:31.001Z</time></trkpt><trkpt lat="14.592264584996977" lon="120.97993010177277"><ele>8.0</ele><time>2026-04-16T10:45:32.001Z</time></trkpt><trkpt lat="14.592166740261613" lon="120.97998117973468"><ele>7.2</ele><time>2026-04-16T10:45:33.001Z</time></trkpt><trkpt lat="14.592089280913275" lon="120.9800480761461"><ele>6.4</ele><time>2026-04-16T10:45:34.001Z</time></trkpt><trkpt lat="14.592029624465285" lon="120.98011224195044"><ele>5.6000000000000005</ele><time>2026-04-16T10:45:35.001Z</time></trkpt><trkpt lat="14.591885461594346" lon="120.98013777012288"><ele>4.800000000000001</ele><time>2026-04-16T10:45:36.001Z</time></trkpt><trkpt lat="14.591790174131015" lon="120.98018048615346"><ele>4.0</ele><time>2026-04-16T10:45:37.001Z</time></trkpt><trkpt lat="14.591690245845257" lon="120.98022006792488"><ele>6.5</ele><time>2026-04-16T10:45:38.001Z</time></trkpt><trkpt lat="14.59158658240501" lon="120.98025743139861"><ele>9.0</ele><time>2026-04-16T10:45:39.001Z</time></trkpt><trkpt lat="14.591478370806389" lon="120.98029108351231"><ele>11.5</ele><time>2026-04-16T10:45:40.001Z</time></trkpt><trkpt lat="14.591371926855313" lon="120.98033288615864"><ele>14.0</ele><time>2026-04-16T10:45:41.001Z</time></trkpt><trkpt lat="14.591260381046848" lon="120.98037125227967"><ele>12.0</ele><time>2026-04-16T10:45:42.001Z</time></trkpt><trkpt lat="14.591140615336522" lon="120.98040821568101"><ele>10.0</ele><time>2026-04-16T10:45:43.001Z</time></trkpt><trkpt lat="14.591019312926045" lon="120.9804448723983"><ele>8.0</ele><time>2026-04-16T10:45:44.001Z</time></trkpt><trkpt lat="14.590892577854518" lon="120.98047865420253"><ele>6.0</ele><time>2026-04-16T10:45:45.001Z</time></trkpt><trkpt lat="14.590770258294324" lon="120.98051624135961"><ele>6.0</ele><time>2026-04-16T10:45:46.001Z</time></trkpt><trkpt lat="14.590653559426682" lon="120.98054908332836"><ele>6.0</ele><time>2026-04-16T10:45:47.001Z</time></trkpt><trkpt lat="14.59053073805684" lon="120.98057777397631"><ele>6.0</ele><time>2026-04-16T10:45:48.001Z</time></trkpt><trkpt lat="14.590401976019862" lon="120.98060819756587"><ele>6.0</ele><time>2026-04-16T10:45:49.001Z</time></trkpt><trkpt lat="14.590277365609547" lon="120.98063515363587"><ele>7.0</ele><time>2026-04-16T10:45:50.001Z</time></trkpt><trkpt lat="14.590152211523023" lon="120.98065846760302"><ele>8.0</ele><time>2026-04-16T10:45:51.001Z</time></trkpt><trkpt lat="14.590023789134728" lon="120.98067801116228"><ele>9.0</ele><time>2026-04-16T10:45:52.001Z</time></trkpt><trkpt lat="14.589889999652776" lon="120.98070030863737"><ele>10.0</ele><time>2026-04-16T10:45:53.001Z</time></trkpt><trkpt lat="14.589753308839063" lon="120.9807310258131"><ele>10.0</ele><time>2026-04-16T10:45:54.001Z</time></trkpt><trkpt lat="14.58961632454785" lon="120.9807626565308"><ele>10.0</ele><time>2026-04-16T10:45:55.001Z</time></trkpt><trkpt lat="14.589477554922247" lon="120.9807909082252"><ele>10.0</ele><time>2026-04-16T10:45:56.001Z</time></trkpt><trkpt lat="14.589336013613458" lon="120.98082234103836"><ele>10.0</ele><time>2026-04-16T10:45:57.001Z</time></trkpt><trkpt lat="14.589199947415485" lon="120.98084767611323"><ele>9.25</ele><time>2026-04-16T10:45:58.001Z</time></trkpt><trkpt lat="14.589056203287564" lon="120.98087424501085"><ele>8.5</ele><time>2026-04-16T10:45:59.001Z</time></trkpt><trkpt lat="14.588915020609205" lon="120.98090415656989"><ele>7.75</ele><time>2026-04-16T10:46:00.001Z</time></trkpt><trkpt lat="14.58876939788616" lon="120.98093029261855"><ele>7.0</ele><time>2026-04-16T10:46:01.001Z</time></trkpt><trkpt lat="14.588631377001752" lon="120.98093848656009"><ele>6.25</ele><time>2026-04-16T10:46:02.001Z</time></trkpt><trkpt lat="14.58849212504386" lon="120.9809397281365"><ele>5.5</ele><time>2026-04-16T10:46:03.001Z</time></trkpt><trkpt lat="14.588348694292712" lon="120.98093224388631"><ele>4.75</ele><time>2026-04-16T10:46:04.001Z</time></trkpt><trkpt lat="14.588215300106267" lon="120.98089791664935"><ele>4.0</ele><time>2026-04-16T10:46:05.001Z</time></trkpt><trkpt lat="14.588081403829609" lon="120.98085724311589"><ele>3.75</ele><time>2026-04-16T10:46:06.001Z</time></trkpt><trkpt lat="14.587942717405314" lon="120.98081516189443"><ele>3.5</ele><time>2026-04-16T10:46:07.001Z</time></trkpt><trkpt lat="14.587806691557642" lon="120.98076755878927"><ele>3.25</ele><time>2026-04-16T10:46:08.001Z</time></trkpt><trkpt lat="14.587690666253833" lon="120.98070415664256"><ele>3.0</ele><time>2026-04-16T10:46:09.001Z</time></trkpt><trkpt lat="14.587623656102776" lon="120.98070411154123"><ele>2.6</ele><time>2026-04-16T10:46:10.001Z</time></trkpt><trkpt lat="14.587563656274279" lon="120.98067434876135"><ele>2.1999999999999997</ele><time>2026-04-16T10:46:11.001Z</time></trkpt><trkpt lat="14.587490022490266" lon="120.98065014257254"><ele>1.8</ele><time>2026-04-16T10:46:13.001Z</time></trkpt><trkpt lat="14.587431208372568" lon="120.98062512785235"><ele>1.4</ele><time>2026-04-16T10:46:17.001Z</time></trkpt><trkpt lat="14.58731359511285" lon="120.98058412179245"><ele>1.0</ele><time>2026-04-16T10:47:06.001Z</time></trkpt><trkpt lat="14.587186425813393" lon="120.98055357051187"><ele>0.9999999999999999</ele><time>2026-04-16T10:47:08.001Z</time></trkpt><trkpt lat="14.587115262838816" lon="120.98054135687379"><ele>1.0</ele><time>2026-04-16T10:47:09.001Z</time></trkpt><trkpt lat="14.587031631201338" lon="120.98052164582957"><ele>1.0</ele><time>2026-04-16T10:47:10.001Z</time></trkpt><trkpt lat="14.586953764946786" lon="120.98049722358647"><ele>1.0</ele><time>2026-04-16T10:47:11.001Z</time></trkpt><trkpt lat="14.58685655331842" lon="120.98047070124835"><ele>0.9999999999999999</ele><time>2026-04-16T10:47:12.001Z</time></trkpt><trkpt lat="14.586759135446036" lon="120.98044175267758"><ele>1.0</ele><time>2026-04-16T10:47:13.001Z</time></trkpt><trkpt lat="14.586659319017157" lon="120.98041266909128"><ele>2.25</ele><time>2026-04-16T10:47:14.001Z</time></trkpt><trkpt lat="14.58653956976977" lon="120.98038253036364"><ele>3.5</ele><time>2026-04-16T10:47:15.001Z</time></trkpt><trkpt lat="14.586424957534984" lon="120.98034436538407"><ele>4.75</ele><time>2026-04-16T10:47:16.001Z</time></trkpt><trkpt lat="14.58631581697394" lon="120.98030802720601"><ele>6.0</ele><time>2026-04-16T10:47:17.001Z</time></trkpt><trkpt lat="14.586209281834936" lon="120.98026617883123"><ele>6.5</ele><time>2026-04-16T10:47:18.001Z</time></trkpt><trkpt lat="14.586113234992204" lon="120.98022403058758"><ele>7.0</ele><time>2026-04-16T10:47:19.001Z</time></trkpt><trkpt lat="14.586012036453411" lon="120.98017584358736"><ele>7.5</ele><time>2026-04-16T10:47:20.001Z</time></trkpt><trkpt lat="14.585909354378149" lon="120.98011395949129"><ele>8.0</ele><time>2026-04-16T10:47:21.001Z</time></trkpt><trkpt lat="14.58581719471803" lon="120.9800389539742"><ele>7.0</ele><time>2026-04-16T10:47:22.001Z</time></trkpt><trkpt lat="14.58571331208622" lon="120.97995197644569"><ele>6.0</ele><time>2026-04-16T10:47:23.001Z</time></trkpt><trkpt lat="14.585621506209112" lon="120.97986336841896"><ele>5.0</ele><time>2026-04-16T10:47:24.001Z</time></trkpt><trkpt lat="14.585529022132823" lon="120.97976336825145"><ele>4.0</ele><time>2026-04-16T10:47:25.001Z</time></trkpt><trkpt lat="14.585447836285413" lon="120.9796571642356"><ele>4.0</ele><time>2026-04-16T10:47:26.001Z</time></trkpt><trkpt lat="14.585375156948833" lon="120.97954618643394"><ele>4.0</ele><time>2026-04-16T10:47:27.001Z</time></trkpt><trkpt lat="14.585307057485277" lon="120.97942931864307"><ele>4.0</ele><time>2026-04-16T10:47:28.001Z</time></trkpt><trkpt lat="14.58524119626347" lon="120.97931302448059"><ele>4.0</ele><time>2026-04-16T10:47:29.001Z</time></trkpt><trkpt lat="14.585163586841624" lon="120.97919393792229"><ele>4.75</ele><time>2026-04-16T10:47:30.001Z</time></trkpt><trkpt lat="14.585091215685582" lon="120.97908239159963"><ele>5.5</ele><time>2026-04-16T10:47:31.001Z</time></trkpt><trkpt lat="14.585029386936219" lon="120.97896718749433"><ele>6.25</ele><time>2026-04-16T10:47:32.001Z</time></trkpt><trkpt lat="14.58496122842964" lon="120.97885024805888"><ele>7.0</ele><time>2026-04-16T10:47:33.001Z</time></trkpt><trkpt lat="14.584897140644667" lon="120.97873950816451"><ele>7.0</ele><time>2026-04-16T10:47:34.001Z</time></trkpt><trkpt lat="14.584825582949426" lon="120.97862149889812"><ele>7.0</ele><time>2026-04-16T10:47:35.001Z</time></trkpt><trkpt lat="14.584756534124057" lon="120.97850028129972"><ele>7.0</ele><time>2026-04-16T10:47:36.001Z</time></trkpt><trkpt lat="14.584682413322284" lon="120.97837605410187"><ele>7.0</ele><time>2026-04-16T10:47:37.001Z</time></trkpt><trkpt lat="14.584611151204708" lon="120.97824970965432"><ele>7.666666666666667</ele><time>2026-04-16T10:47:38.001Z</time></trkpt><trkpt lat="14.584527648812458" lon="120.97811456010268"><ele>8.333333333333334</ele><time>2026-04-16T10:47:39.001Z</time></trkpt><trkpt lat="14.584447928581788" lon="120.977982404015"><ele>9.0</ele><time>2026-04-16T10:47:40.001Z</time></trkpt><trkpt lat="14.58437433124584" lon="120.97785216598172"><ele>9.0</ele><time>2026-04-16T10:47:41.001Z</time></trkpt><trkpt lat="14.584303832042323" lon="120.97773907439361"><ele>9.0</ele><time>2026-04-16T10:47:42.001Z</time></trkpt><trkpt lat="14.584241391762461" lon="120.9776294187119"><ele>9.0</ele><time>2026-04-16T10:47:43.001Z</time></trkpt><trkpt lat="14.58417747534951" lon="120.97752074673923"><ele>9.0</ele><time>2026-04-16T10:47:44.001Z</time></trkpt><trkpt lat="14.584114011630584" lon="120.97741824861032"><ele>7.2</ele><time>2026-04-16T10:47:45.001Z</time></trkpt><trkpt lat="14.584055594235899" lon="120.97732398655286"><ele>5.4</ele><time>2026-04-16T10:47:46.001Z</time></trkpt><trkpt lat="14.584001524372185" lon="120.97723179474345"><ele>3.6</ele><time>2026-04-16T10:47:47.001Z</time></trkpt><trkpt lat="14.583954782973784" lon="120.97715735854383"><ele>1.8</ele><time>2026-04-16T10:47:48.001Z</time></trkpt><trkpt lat="14.583905823158036" lon="120.97708392650988"><ele>0.0</ele><time>2026-04-16T10:47:49.001Z</time></trkpt><trkpt lat="14.58385914756493" lon="120.97701536883535"><ele>0.0</ele><time>2026-04-16T10:47:50.001Z</time></trkpt><trkpt lat="14.583809746642432" lon="120.97694456863579"><ele>0.0</ele><time>2026-04-16T10:47:51.001Z</time></trkpt><trkpt lat="14.58375489768112" lon="120.97686152091357"><ele>0.0</ele><time>2026-04-16T10:47:52.001Z</time></trkpt><trkpt lat="14.583712913519365" lon="120.97678638961074"><ele>0.0</ele><time>2026-04-16T10:47:53.001Z</time></trkpt><trkpt lat="14.583678564399703" lon="120.97672399156103"><ele>0.0</ele><time>2026-04-16T10:47:54.001Z</time></trkpt><trkpt lat="14.583626917752309" lon="120.97662796188834"><ele>0.0</ele><time>2026-04-16T10:47:56.001Z</time></trkpt><trkpt lat="14.583578822638211" lon="120.97653711349629"><ele>1.4</ele><time>2026-04-16T10:47:58.001Z</time></trkpt><trkpt lat="14.583534739053412" lon="120.97644828231141"><ele>2.8</ele><time>2026-04-16T10:48:00.001Z</time></trkpt><trkpt lat="14.58349284368381" lon="120.97639086675915"><ele>4.199999999999999</ele><time>2026-04-16T10:48:01.001Z</time></trkpt><trkpt lat="14.583445827131891" lon="120.9763139020431"><ele>5.6</ele><time>2026-04-16T10:48:02.001Z</time></trkpt><trkpt lat="14.583391489684047" lon="120.97622708851875"><ele>7.0</ele><time>2026-04-16T10:48:03.001Z</time></trkpt><trkpt lat="14.583338336506463" lon="120.97613478721951"><ele>7.000000000000001</ele><time>2026-04-16T10:48:04.001Z</time></trkpt><trkpt lat="14.583293468851675" lon="120.97604630798445"><ele>7.0</ele><time>2026-04-16T10:48:05.001Z</time></trkpt><trkpt lat="14.583252291406083" lon="120.97596952212561"><ele>7.0</ele><time>2026-04-16T10:48:06.001Z</time></trkpt><trkpt lat="14.583220035615966" lon="120.97591174533967"><ele>7.0</ele><time>2026-04-16T10:48:07.001Z</time></trkpt><trkpt lat="14.583181871746179" lon="120.97583783580036"><ele>7.000000000000001</ele><time>2026-04-16T10:48:09.001Z</time></trkpt><trkpt lat="14.583139522890106" lon="120.97577981704404"><ele>7.0</ele><time>2026-04-16T10:48:12.001Z</time></trkpt><trkpt lat="14.583109889114668" lon="120.97567893418798"><ele>6.8</ele><time>2026-04-16T10:49:39.001Z</time></trkpt><trkpt lat="14.583056602696843" lon="120.97559623223563"><ele>6.6</ele><time>2026-04-16T10:49:41.001Z</time></trkpt><trkpt lat="14.582957495000043" lon="120.97550521322779"><ele>6.3999999999999995</ele><time>2026-04-16T10:49:43.001Z</time></trkpt><trkpt lat="14.582902080012202" lon="120.97547210142984"><ele>6.199999999999999</ele><time>2026-04-16T10:49:44.001Z</time></trkpt><trkpt lat="14.58278006235532" lon="120.97545072187363"><ele>6.0</ele><time>2026-04-16T10:49:46.001Z</time></trkpt><trkpt lat="14.582712879595967" lon="120.97544961276758"><ele>6.0</ele><time>2026-04-16T10:49:47.001Z</time></trkpt><trkpt lat="14.582649258451696" lon="120.97546855383821"><ele>6.0</ele><time>2026-04-16T10:49:48.001Z</time></trkpt><trkpt lat="14.582577189339071" lon="120.97550867248646"><ele>6.0</ele><time>2026-04-16T10:49:49.001Z</time></trkpt><trkpt lat="14.58249952765139" lon="120.97556177110414"><ele>6.0</ele><time>2026-04-16T10:49:50.001Z</time></trkpt><trkpt lat="14.58241144457338" lon="120.97562140528055"><ele>6.0</ele><time>2026-04-16T10:49:51.001Z</time></trkpt><trkpt lat="14.582321391850348" lon="120.97568230837891"><ele>6.0</ele><time>2026-04-16T10:49:52.001Z</time></trkpt><trkpt lat="14.582222000247333" lon="120.97574044365436"><ele>6.0</ele><time>2026-04-16T10:49:53.001Z</time></trkpt><trkpt lat="14.582112343804932" lon="120.97580429847412"><ele>6.0</ele><time>2026-04-16T10:49:54.001Z</time></trkpt><trkpt lat="14.582006246845207" lon="120.97587039100038"><ele>6.0</ele><time>2026-04-16T10:49:55.001Z</time></trkpt><trkpt lat="14.581894080864876" lon="120.97594043431421"><ele>6.0</ele><time>2026-04-16T10:49:56.001Z</time></trkpt><trkpt lat="14.581778120571782" lon="120.97600515551837"><ele>6.0</ele><time>2026-04-16T10:49:57.001Z</time></trkpt><trkpt lat="14.581660059443976" lon="120.9760723684107"><ele>6.0</ele><time>2026-04-16T10:49:58.001Z</time></trkpt><trkpt lat="14.581547062460919" lon="120.9761459512008"><ele>6.0</ele><time>2026-04-16T10:49:59.001Z</time></trkpt><trkpt lat="14.581433216434988" lon="120.9762166350584"><ele>6.0</ele><time>2026-04-16T10:50:00.001Z</time></trkpt><trkpt lat="14.581323322964199" lon="120.97628669129045"><ele>6.0</ele><time>2026-04-16T10:50:01.001Z</time></trkpt><trkpt lat="14.58120843698965" lon="120.97635398147922"><ele>6.0</ele><time>2026-04-16T10:50:02.001Z</time></trkpt><trkpt lat="14.581096347455016" lon="120.97642220964245"><ele>6.0</ele><time>2026-04-16T10:50:03.001Z</time></trkpt><trkpt lat="14.580990371050015" lon="120.97647898770579"><ele>6.4</ele><time>2026-04-16T10:50:04.001Z</time></trkpt><trkpt lat="14.580902972461592" lon="120.97653715637838"><ele>6.8</ele><time>2026-04-16T10:50:05.001Z</time></trkpt><trkpt lat="14.580815497907126" lon="120.97658806814336"><ele>7.200000000000001</ele><time>2026-04-16T10:50:06.001Z</time></trkpt><trkpt lat="14.580730568110962" lon="120.97663891239574"><ele>7.6000000000000005</ele><time>2026-04-16T10:50:07.001Z</time></trkpt><trkpt lat="14.580652995217825" lon="120.97668398037814"><ele>8.0</ele><time>2026-04-16T10:50:08.001Z</time></trkpt><trkpt lat="14.580580784274382" lon="120.97672703839041"><ele>7.999999999999999</ele><time>2026-04-16T10:50:09.001Z</time></trkpt><trkpt lat="14.58051821965086" lon="120.97676664408415"><ele>8.0</ele><time>2026-04-16T10:50:10.001Z</time></trkpt><trkpt lat="14.58045736782433" lon="120.97680104609273"><ele>8.0</ele><time>2026-04-16T10:50:11.001Z</time></trkpt><trkpt lat="14.58035204093298" lon="120.97685912018426"><ele>8.0</ele><time>2026-04-16T10:50:13.001Z</time></trkpt><trkpt lat="14.58026875076849" lon="120.97690190535903"><ele>7.999999999999999</ele><time>2026-04-16T10:50:15.001Z</time></trkpt><trkpt lat="14.580200522054254" lon="120.97693885283657"><ele>8.0</ele><time>2026-04-16T10:50:17.001Z</time></trkpt><trkpt lat="14.580129285995577" lon="120.97697749947154"><ele>7.999999999999999</ele><time>2026-04-16T10:50:20.001Z</time></trkpt><trkpt lat="14.580060041285318" lon="120.97700825607214"><ele>8.0</ele><time>2026-04-16T10:50:23.001Z</time></trkpt><trkpt lat="14.580003468780843" lon="120.97703865688233"><ele>8.0</ele><time>2026-04-16T10:51:04.001Z</time></trkpt><trkpt lat="14.579938172596272" lon="120.97707564618243"><ele>8.0</ele><time>2026-04-16T10:51:06.001Z</time></trkpt><trkpt lat="14.579849328293852" lon="120.97713235977204"><ele>7.999999999999999</ele><time>2026-04-16T10:51:08.001Z</time></trkpt><trkpt lat="14.579790344950572" lon="120.9771631743056"><ele>8.0</ele><time>2026-04-16T10:51:09.001Z</time></trkpt><trkpt lat="14.579677268224179" lon="120.97722964036127"><ele>7.999999999999999</ele><time>2026-04-16T10:51:11.001Z</time></trkpt><trkpt lat="14.57961162369525" lon="120.9772722003975"><ele>8.0</ele><time>2026-04-16T10:51:12.001Z</time></trkpt><trkpt lat="14.579546494058823" lon="120.97731123688615"><ele>8.0</ele><time>2026-04-16T10:51:13.001Z</time></trkpt><trkpt lat="14.579468253539398" lon="120.9773460829916"><ele>8.0</ele><time>2026-04-16T10:51:14.001Z</time></trkpt><trkpt lat="14.579388341382282" lon="120.97738926447397"><ele>7.999999999999999</ele><time>2026-04-16T10:51:15.001Z</time></trkpt><trkpt lat="14.579320061345223" lon="120.97742337509169"><ele>8.0</ele><time>2026-04-16T10:51:16.001Z</time></trkpt><trkpt lat="14.579251543848514" lon="120.97746373500216"><ele>8.4</ele><time>2026-04-16T10:51:17.001Z</time></trkpt><trkpt lat="14.579180783991358" lon="120.97750545480432"><ele>8.8</ele><time>2026-04-16T10:51:18.001Z</time></trkpt><trkpt lat="14.579119404874588" lon="120.97754404930666"><ele>9.2</ele><time>2026-04-16T10:51:19.001Z</time></trkpt><trkpt lat="14.579046216365425" lon="120.97759275024886"><ele>9.6</ele><time>2026-04-16T10:51:20.001Z</time></trkpt><trkpt lat="14.578976685830431" lon="120.97763649677508"><ele>10.0</ele><time>2026-04-16T10:51:21.001Z</time></trkpt><trkpt lat="14.578854502973812" lon="120.97770171447543"><ele>10.8</ele><time>2026-04-16T10:51:23.001Z</time></trkpt><trkpt lat="14.578793659455096" lon="120.97773902898233"><ele>11.6</ele><time>2026-04-16T10:51:24.001Z</time></trkpt><trkpt lat="14.578734862657221" lon="120.9777789981105"><ele>12.399999999999999</ele><time>2026-04-16T10:51:25.001Z</time></trkpt><trkpt lat="14.578631766825831" lon="120.97784225884125"><ele>13.2</ele><time>2026-04-16T10:51:27.001Z</time></trkpt><trkpt lat="14.578535767453998" lon="120.97790473844007"><ele>14.0</ele><time>2026-04-16T10:51:29.001Z</time></trkpt><trkpt lat="14.578448703486524" lon="120.97795892155074"><ele>14.166666666666668</ele><time>2026-04-16T10:51:31.001Z</time></trkpt><trkpt lat="14.578371953691013" lon="120.97801241799444"><ele>14.333333333333334</ele><time>2026-04-16T10:51:33.001Z</time></trkpt><trkpt lat="14.57828474714697" lon="120.97806063694848"><ele>14.5</ele><time>2026-04-16T10:51:35.001Z</time></trkpt><trkpt lat="14.5782321709869" lon="120.97809843512196"><ele>14.666666666666668</ele><time>2026-04-16T10:51:36.001Z</time></trkpt><trkpt lat="14.578166648093005" lon="120.97814089713445"><ele>14.833333333333334</ele><time>2026-04-16T10:51:37.001Z</time></trkpt><trkpt lat="14.578091550055115" lon="120.9781867763901"><ele>15.0</ele><time>2026-04-16T10:51:38.001Z</time></trkpt><trkpt lat="14.577997340719776" lon="120.97824223080576"><ele>15.0</ele><time>2026-04-16T10:51:39.001Z</time></trkpt><trkpt lat="14.577913810824795" lon="120.97829462346213"><ele>15.0</ele><time>2026-04-16T10:51:40.001Z</time></trkpt><trkpt lat="14.577824476618051" lon="120.97834817481866"><ele>15.0</ele><time>2026-04-16T10:51:41.001Z</time></trkpt><trkpt lat="14.577754074791251" lon="120.97839381783687"><ele>15.0</ele><time>2026-04-16T10:51:42.001Z</time></trkpt><trkpt lat="14.577675892947175" lon="120.97844086047827"><ele>15.0</ele><time>2026-04-16T10:51:43.001Z</time></trkpt><trkpt lat="14.57759153427177" lon="120.97848228787001"><ele>13.0</ele><time>2026-04-16T10:51:44.001Z</time></trkpt><trkpt lat="14.577495711247956" lon="120.97852340746205"><ele>11.0</ele><time>2026-04-16T10:51:45.001Z</time></trkpt><trkpt lat="14.57739385423307" lon="120.97858144158737"><ele>9.0</ele><time>2026-04-16T10:51:46.001Z</time></trkpt><trkpt lat="14.57728678426882" lon="120.97864195405081"><ele>7.0</ele><time>2026-04-16T10:51:47.001Z</time></trkpt><trkpt lat="14.577176699477588" lon="120.97870594449826"><ele>7.0</ele><time>2026-04-16T10:51:48.001Z</time></trkpt><trkpt lat="14.577068882486259" lon="120.9787658304103"><ele>7.0</ele><time>2026-04-16T10:51:49.001Z</time></trkpt><trkpt lat="14.5769502249711" lon="120.97883035019221"><ele>7.0</ele><time>2026-04-16T10:51:50.001Z</time></trkpt><trkpt lat="14.576835436090356" lon="120.97889393266681"><ele>7.0</ele><time>2026-04-16T10:51:51.001Z</time></trkpt><trkpt lat="14.576717456862477" lon="120.97895079216659"><ele>7.0</ele><time>2026-04-16T10:51:52.001Z</time></trkpt><trkpt lat="14.576599733523485" lon="120.97900857805104"><ele>7.0</ele><time>2026-04-16T10:51:53.001Z</time></trkpt><trkpt lat="14.57647547965576" lon="120.97908503854372"><ele>7.0</ele><time>2026-04-16T10:51:54.001Z</time></trkpt><trkpt lat="14.576358045025794" lon="120.97916127366408"><ele>7.0</ele><time>2026-04-16T10:51:55.001Z</time></trkpt><trkpt lat="14.576244380883184" lon="120.97923400835532"><ele>9.5</ele><time>2026-04-16T10:51:56.001Z</time></trkpt><trkpt lat="14.57612333473208" lon="120.97930411828371"><ele>12.0</ele><time>2026-04-16T10:51:57.001Z</time></trkpt><trkpt lat="14.576001725907993" lon="120.97936806909333"><ele>14.5</ele><time>2026-04-16T10:51:58Z</time></trkpt><trkpt lat="14.575889567535205" lon="120.97942714825784"><ele>17.0</ele><time>2026-04-16T10:51:59Z</time></trkpt><trkpt lat="14.575777776419566" lon="120.97949395913528"><ele>17.0</ele><time>2026-04-16T10:52:00Z</time></trkpt><trkpt lat="14.575667649302574" lon="120.97955485796837"><ele>17.0</ele><time>2026-04-16T10:52:01Z</time></trkpt><trkpt lat="14.575550539391982" lon="120.9796160986109"><ele>17.0</ele><time>2026-04-16T10:52:02Z</time></trkpt><trkpt lat="14.575430766349267" lon="120.97968170994397"><ele>17.0</ele><time>2026-04-16T10:52:03Z</time></trkpt><trkpt lat="14.575324673461408" lon="120.97973934687087"><ele>16.0</ele><time>2026-04-16T10:52:04Z</time></trkpt><trkpt lat="14.575209008619133" lon="120.97980169451323"><ele>15.0</ele><time>2026-04-16T10:52:05Z</time></trkpt><trkpt lat="14.575082274906473" lon="120.97986624832573"><ele>14.0</ele><time>2026-04-16T10:52:06Z</time></trkpt><trkpt lat="14.57496931163703" lon="120.97992894048228"><ele>13.0</ele><time>2026-04-16T10:52:07Z</time></trkpt><trkpt lat="14.574847436160839" lon="120.97999080129891"><ele>12.8</ele><time>2026-04-16T10:52:08Z</time></trkpt><trkpt lat="14.574733147755733" lon="120.98004679918681"><ele>12.600000000000001</ele><time>2026-04-16T10:52:09Z</time></trkpt><trkpt lat="14.574627652057199" lon="120.98010623521898"><ele>12.399999999999999</ele><time>2026-04-16T10:52:10Z</time></trkpt><trkpt lat="14.574548227655777" lon="120.98014596221822"><ele>12.2</ele><time>2026-04-16T10:52:11Z</time></trkpt><trkpt lat="14.574468793483856" lon="120.98019395472593"><ele>12.0</ele><time>2026-04-16T10:52:12Z</time></trkpt><trkpt lat="14.574394734036797" lon="120.98024060205942"><ele>12.399999999999999</ele><time>2026-04-16T10:52:13Z</time></trkpt><trkpt lat="14.574314102955865" lon="120.98028876340177"><ele>12.799999999999999</ele><time>2026-04-16T10:52:14Z</time></trkpt><trkpt lat="14.574226546370653" lon="120.98033805802427"><ele>13.2</ele><time>2026-04-16T10:52:15Z</time></trkpt><trkpt lat="14.57411629352204" lon="120.9803930052146"><ele>13.6</ele><time>2026-04-16T10:52:16Z</time></trkpt><trkpt lat="14.57401467352917" lon="120.98043577944723"><ele>14.0</ele><time>2026-04-16T10:52:17Z</time></trkpt><trkpt lat="14.57389369365321" lon="120.98048731384617"><ele>14.0</ele><time>2026-04-16T10:52:18Z</time></trkpt><trkpt lat="14.573767339868352" lon="120.98054701715452"><ele>14.0</ele><time>2026-04-16T10:52:19Z</time></trkpt><trkpt lat="14.573641656567636" lon="120.9806148518822"><ele>14.0</ele><time>2026-04-16T10:52:20Z</time></trkpt><trkpt lat="14.573503937701357" lon="120.98067677607034"><ele>14.0</ele><time>2026-04-16T10:52:21Z</time></trkpt><trkpt lat="14.573372026847307" lon="120.98074654932783"><ele>14.333333333333334</ele><time>2026-04-16T10:52:22Z</time></trkpt><trkpt lat="14.573238491123766" lon="120.98082417120942"><ele>14.666666666666668</ele><time>2026-04-16T10:52:23Z</time></trkpt><trkpt lat="14.57310059078889" lon="120.9809000214418"><ele>15.0</ele><time>2026-04-16T10:52:24Z</time></trkpt><trkpt lat="14.572963772243678" lon="120.98097046969882"><ele>17.0</ele><time>2026-04-16T10:52:25Z</time></trkpt><trkpt lat="14.572828029849324" lon="120.98104426143637"><ele>19.0</ele><time>2026-04-16T10:52:26Z</time></trkpt><trkpt lat="14.572701445877435" lon="120.98110416808846"><ele>21.0</ele><time>2026-04-16T10:52:27Z</time></trkpt><trkpt lat="14.572566377596079" lon="120.98116638261895"><ele>23.0</ele><time>2026-04-16T10:52:28Z</time></trkpt><trkpt lat="14.572444057318323" lon="120.98123319089518"><ele>23.0</ele><time>2026-04-16T10:52:29Z</time></trkpt><trkpt lat="14.572337311661835" lon="120.98129213299232"><ele>23.0</ele><time>2026-04-16T10:52:30Z</time></trkpt><trkpt lat="14.572236021787678" lon="120.98135251877778"><ele>23.0</ele><time>2026-04-16T10:52:31Z</time></trkpt><trkpt lat="14.572128687082303" lon="120.98141159582548"><ele>23.0</ele><time>2026-04-16T10:52:32Z</time></trkpt><trkpt lat="14.572017993130647" lon="120.98145651610132"><ele>20.599999999999998</ele><time>2026-04-16T10:52:33Z</time></trkpt><trkpt lat="14.571916228650753" lon="120.98150835393183"><ele>18.2</ele><time>2026-04-16T10:52:34Z</time></trkpt><trkpt lat="14.57182145379473" lon="120.98154944881398"><ele>15.8</ele><time>2026-04-16T10:52:35Z</time></trkpt><trkpt lat="14.571726688879572" lon="120.98159346851003"><ele>13.4</ele><time>2026-04-16T10:52:36Z</time></trkpt><trkpt lat="14.571631712493994" lon="120.98164056111611"><ele>11.0</ele><time>2026-04-16T10:52:37Z</time></trkpt><trkpt lat="14.5715339966041" lon="120.98167974510176"><ele>10.4</ele><time>2026-04-16T10:52:38Z</time></trkpt><trkpt lat="14.571433095896905" lon="120.9817319980778"><ele>9.8</ele><time>2026-04-16T10:52:39Z</time></trkpt><trkpt lat="14.57133142978579" lon="120.98178408209941"><ele>9.200000000000001</ele><time>2026-04-16T10:52:40Z</time></trkpt><trkpt lat="14.571237610343205" lon="120.98182758597922"><ele>8.600000000000001</ele><time>2026-04-16T10:52:41Z</time></trkpt><trkpt lat="14.571138459381125" lon="120.98187390570229"><ele>8.0</ele><time>2026-04-16T10:52:42Z</time></trkpt><trkpt lat="14.571032188488159" lon="120.98192645006978"><ele>8.0</ele><time>2026-04-16T10:52:43Z</time></trkpt><trkpt lat="14.570921914230269" lon="120.98197243746053"><ele>8.0</ele><time>2026-04-16T10:52:44Z</time></trkpt><trkpt lat="14.570803198183185" lon="120.9820343133403"><ele>8.0</ele><time>2026-04-16T10:52:45Z</time></trkpt><trkpt lat="14.570682636800557" lon="120.98208615286943"><ele>8.0</ele><time>2026-04-16T10:52:46Z</time></trkpt><trkpt lat="14.570551818854817" lon="120.98214652159562"><ele>8.0</ele><time>2026-04-16T10:52:47Z</time></trkpt><trkpt lat="14.570420216031405" lon="120.98220929254873"><ele>8.0</ele><time>2026-04-16T10:52:48Z</time></trkpt><trkpt lat="14.570289045574121" lon="120.98227892639505"><ele>8.0</ele><time>2026-04-16T10:52:49Z</time></trkpt><trkpt lat="14.570150910140724" lon="120.98233722609743"><ele>8.0</ele><time>2026-04-16T10:52:50Z</time></trkpt><trkpt lat="14.570016355623197" lon="120.98239789268666"><ele>8.75</ele><time>2026-04-16T10:52:51Z</time></trkpt><trkpt lat="14.569886884961832" lon="120.98245382157927"><ele>9.5</ele><time>2026-04-16T10:52:52Z</time></trkpt><trkpt lat="14.569767048470808" lon="120.98250246547978"><ele>10.25</ele><time>2026-04-16T10:52:53Z</time></trkpt><trkpt lat="14.5696524079847" lon="120.9825588542431"><ele>11.0</ele><time>2026-04-16T10:52:54Z</time></trkpt><trkpt lat="14.56953761213991" lon="120.98260864215288"><ele>10.25</ele><time>2026-04-16T10:52:55Z</time></trkpt><trkpt lat="14.569420230859077" lon="120.98265401234508"><ele>9.5</ele><time>2026-04-16T10:52:56Z</time></trkpt><trkpt lat="14.569303070702428" lon="120.98270832296387"><ele>8.75</ele><time>2026-04-16T10:52:57Z</time></trkpt><trkpt lat="14.569182600956164" lon="120.98275270875834"><ele>8.0</ele><time>2026-04-16T10:52:58Z</time></trkpt><trkpt lat="14.569059509618741" lon="120.98279644536521"><ele>8.0</ele><time>2026-04-16T10:52:59Z</time></trkpt><trkpt lat="14.568932553290667" lon="120.98285567406444"><ele>8.0</ele><time>2026-04-16T10:53:00Z</time></trkpt><trkpt lat="14.568811652522001" lon="120.98291449616055"><ele>8.0</ele><time>2026-04-16T10:53:01Z</time></trkpt><trkpt lat="14.568686492383373" lon="120.98297581361216"><ele>8.0</ele><time>2026-04-16T10:53:02Z</time></trkpt><trkpt lat="14.568562759105566" lon="120.98302251335578"><ele>7.75</ele><time>2026-04-16T10:53:03Z</time></trkpt><trkpt lat="14.568433788454723" lon="120.98307882049237"><ele>7.5</ele><time>2026-04-16T10:53:04Z</time></trkpt><trkpt lat="14.568308080321875" lon="120.98314302729447"><ele>7.25</ele><time>2026-04-16T10:53:05Z</time></trkpt><trkpt lat="14.568178119426848" lon="120.98319757039829"><ele>7.0</ele><time>2026-04-16T10:53:06Z</time></trkpt><trkpt lat="14.568048918762255" lon="120.98325264737899"><ele>7.0</ele><time>2026-04-16T10:53:07Z</time></trkpt><trkpt lat="14.567919216117355" lon="120.9833136448339"><ele>7.0</ele><time>2026-04-16T10:53:08Z</time></trkpt><trkpt lat="14.567790388722857" lon="120.9833779965722"><ele>7.0</ele><time>2026-04-16T10:53:09Z</time></trkpt><trkpt lat="14.56766654080452" lon="120.98342935796603"><ele>7.0</ele><time>2026-04-16T10:53:10Z</time></trkpt><trkpt lat="14.5675514033818" lon="120.98347793603881"><ele>9.25</ele><time>2026-04-16T10:53:11Z</time></trkpt><trkpt lat="14.567437306494046" lon="120.98352753618"><ele>11.5</ele><time>2026-04-16T10:53:12Z</time></trkpt><trkpt lat="14.567322216053693" lon="120.983577091623"><ele>13.75</ele><time>2026-04-16T10:53:13Z</time></trkpt><trkpt lat="14.567216724593688" lon="120.98362418362176"><ele>16.0</ele><time>2026-04-16T10:53:14Z</time></trkpt><trkpt lat="14.567118196407055" lon="120.98366981277043"><ele>15.999999999999998</ele><time>2026-04-16T10:53:15Z</time></trkpt><trkpt lat="14.56702926193107" lon="120.98370682624041"><ele>16.0</ele><time>2026-04-16T10:53:16Z</time></trkpt><trkpt lat="14.56694035464633" lon="120.98375183261918"><ele>16.0</ele><time>2026-04-16T10:53:17Z</time></trkpt><trkpt lat="14.566861143436343" lon="120.98378313604704"><ele>16.0</ele><time>2026-04-16T10:53:18Z</time></trkpt><trkpt lat="14.566787201360915" lon="120.98381653825902"><ele>15.999999999999998</ele><time>2026-04-16T10:53:19Z</time></trkpt><trkpt lat="14.566718381209096" lon="120.9838384002527"><ele>16.0</ele><time>2026-04-16T10:53:20Z</time></trkpt><trkpt lat="14.566656968122299" lon="120.98386218807687"><ele>15.4</ele><time>2026-04-16T10:53:21Z</time></trkpt><trkpt lat="14.566541558316851" lon="120.98391914038396"><ele>14.8</ele><time>2026-04-16T10:53:23Z</time></trkpt><trkpt lat="14.566437883621065" lon="120.98396139961231"><ele>14.200000000000001</ele><time>2026-04-16T10:53:25Z</time></trkpt><trkpt lat="14.566361217220674" lon="120.98400762164522"><ele>13.600000000000001</ele><time>2026-04-16T10:53:27Z</time></trkpt><trkpt lat="14.566285927174992" lon="120.984034342217"><ele>13.0</ele><time>2026-04-16T10:53:29Z</time></trkpt><trkpt lat="14.566212412914044" lon="120.98406682979183"><ele>12.0</ele><time>2026-04-16T10:53:31Z</time></trkpt><trkpt lat="14.566111675211106" lon="120.98411043704304"><ele>11.0</ele><time>2026-04-16T10:53:33Z</time></trkpt><trkpt lat="14.565997670222334" lon="120.98416015261863"><ele>10.0</ele><time>2026-04-16T10:53:35Z</time></trkpt><trkpt lat="14.565937647384116" lon="120.9841894228191"><ele>9.0</ele><time>2026-04-16T10:53:36Z</time></trkpt><trkpt lat="14.56587756072489" lon="120.98421574979662"><ele>8.0</ele><time>2026-04-16T10:53:37Z</time></trkpt><trkpt lat="14.565772163441252" lon="120.98426546813279"><ele>8.666666666666666</ele><time>2026-04-16T10:53:39Z</time></trkpt><trkpt lat="14.565660551289902" lon="120.98431400066941"><ele>9.333333333333332</ele><time>2026-04-16T10:53:41Z</time></trkpt><trkpt lat="14.565599249575676" lon="120.98434144437269"><ele>10.0</ele><time>2026-04-16T10:53:42Z</time></trkpt><trkpt lat="14.565535705111722" lon="120.98436558263754"><ele>10.666666666666666</ele><time>2026-04-16T10:53:43Z</time></trkpt><trkpt lat="14.56546235062484" lon="120.98439623814737"><ele>11.333333333333334</ele><time>2026-04-16T10:53:44Z</time></trkpt><trkpt lat="14.565382605091441" lon="120.98443016031541"><ele>12.0</ele><time>2026-04-16T10:53:45Z</time></trkpt><trkpt lat="14.565308282411056" lon="120.98446299268319"><ele>12.0</ele><time>2026-04-16T10:53:46Z</time></trkpt><trkpt lat="14.565216942712075" lon="120.98450113411012"><ele>12.0</ele><time>2026-04-16T10:53:47Z</time></trkpt><trkpt lat="14.565137279007711" lon="120.98453480569101"><ele>12.0</ele><time>2026-04-16T10:53:48Z</time></trkpt><trkpt lat="14.565037098229679" lon="120.98457756509957"><ele>12.0</ele><time>2026-04-16T10:53:49Z</time></trkpt><trkpt lat="14.5649470884597" lon="120.98461915612168"><ele>12.0</ele><time>2026-04-16T10:53:50Z</time></trkpt><trkpt lat="14.564854976998317" lon="120.98466271751188"><ele>12.0</ele><time>2026-04-16T10:53:51Z</time></trkpt><trkpt lat="14.564762752630177" lon="120.98470178010191"><ele>12.0</ele><time>2026-04-16T10:53:52Z</time></trkpt><trkpt lat="14.564672624336744" lon="120.98473868338043"><ele>12.0</ele><time>2026-04-16T10:53:53Z</time></trkpt><trkpt lat="14.564598592584225" lon="120.9847737271287"><ele>12.0</ele><time>2026-04-16T10:53:54Z</time></trkpt><trkpt lat="14.564520866470435" lon="120.98480477503746"><ele>12.0</ele><time>2026-04-16T10:53:55Z</time></trkpt><trkpt lat="14.56445501577251" lon="120.98483451839094"><ele>12.0</ele><time>2026-04-16T10:53:56Z</time></trkpt><trkpt lat="14.564393197662985" lon="120.98486090117642"><ele>11.333333333333334</ele><time>2026-04-16T10:53:57Z</time></trkpt><trkpt lat="14.564326699867472" lon="120.98488988745977"><ele>10.666666666666666</ele><time>2026-04-16T10:53:58Z</time></trkpt><trkpt lat="14.564259357092045" lon="120.98492067086782"><ele>10.0</ele><time>2026-04-16T10:53:59Z</time></trkpt><trkpt lat="14.564189863641648" lon="120.9849518872459"><ele>9.333333333333332</ele><time>2026-04-16T10:54:00Z</time></trkpt><trkpt lat="14.564130268576596" lon="120.9849786989877"><ele>8.666666666666666</ele><time>2026-04-16T10:54:01Z</time></trkpt><trkpt lat="14.564030403888806" lon="120.98501730583843"><ele>8.0</ele><time>2026-04-16T10:54:03Z</time></trkpt><trkpt lat="14.563942470473908" lon="120.98506056318014"><ele>7.999999999999999</ele><time>2026-04-16T10:54:05Z</time></trkpt><trkpt lat="14.563878121134591" lon="120.98508766119106"><ele>8.0</ele><time>2026-04-16T10:54:07Z</time></trkpt><trkpt lat="14.563781937222087" lon="120.98514286949568"><ele>8.0</ele><time>2026-04-16T10:54:12Z</time></trkpt><trkpt lat="14.563717004946323" lon="120.98516641989701"><ele>8.0</ele><time>2026-04-16T10:54:13Z</time></trkpt><trkpt lat="14.563650201400488" lon="120.98519951194035"><ele>7.999999999999999</ele><time>2026-04-16T10:54:14Z</time></trkpt><trkpt lat="14.563593342118104" lon="120.98522795663283"><ele>8.0</ele><time>2026-04-16T10:54:15Z</time></trkpt><trkpt lat="14.563493659304829" lon="120.98526433311085"><ele>7.833333333333333</ele><time>2026-04-16T10:54:17Z</time></trkpt><trkpt lat="14.56341054146745" lon="120.98529415204095"><ele>7.666666666666666</ele><time>2026-04-16T10:54:19Z</time></trkpt><trkpt lat="14.563328414501447" lon="120.98533988276422"><ele>7.5</ele><time>2026-04-16T10:54:21Z</time></trkpt><trkpt lat="14.563265191167675" lon="120.9853668468366"><ele>7.333333333333334</ele><time>2026-04-16T10:54:23Z</time></trkpt><trkpt lat="14.563191217670475" lon="120.98539122121572"><ele>7.166666666666667</ele><time>2026-04-16T10:54:26Z</time></trkpt><trkpt lat="14.563128848443215" lon="120.98542234682616"><ele>7.0</ele><time>2026-04-16T10:54:32Z</time></trkpt><trkpt lat="14.563068339082902" lon="120.98544334903565"><ele>7.000000000000001</ele><time>2026-04-16T10:54:37Z</time></trkpt><trkpt lat="14.562991187532903" lon="120.98546977399722"><ele>7.0</ele><time>2026-04-16T10:54:49Z</time></trkpt><trkpt lat="14.562921060119349" lon="120.98549745271566"><ele>7.0</ele><time>2026-04-16T10:54:52Z</time></trkpt><trkpt lat="14.562842711713383" lon="120.98553235457108"><ele>7.0</ele><time>2026-04-16T10:54:54Z</time></trkpt><trkpt lat="14.562763443836308" lon="120.98557338632907"><ele>7.000000000000001</ele><time>2026-04-16T10:54:56Z</time></trkpt><trkpt lat="14.5626800120401" lon="120.98561561031582"><ele>7.0</ele><time>2026-04-16T10:54:58Z</time></trkpt><trkpt lat="14.562576559643992" lon="120.98566268310275"><ele>7.000000000000001</ele><time>2026-04-16T10:55:00Z</time></trkpt><trkpt lat="14.562516680405723" lon="120.98569010106196"><ele>7.0</ele><time>2026-04-16T10:55:01Z</time></trkpt><trkpt lat="14.562456504284427" lon="120.98571456661004"><ele>7.0</ele><time>2026-04-16T10:55:02Z</time></trkpt><trkpt lat="14.562386014275765" lon="120.98574574140514"><ele>7.0</ele><time>2026-04-16T10:55:03Z</time></trkpt><trkpt lat="14.562275049518519" lon="120.98580100783543"><ele>7.000000000000001</ele><time>2026-04-16T10:55:05Z</time></trkpt><trkpt lat="14.562167196201901" lon="120.98584814689221"><ele>7.0</ele><time>2026-04-16T10:55:07Z</time></trkpt><trkpt lat="14.562069838019282" lon="120.9858950791689"><ele>7.000000000000001</ele><time>2026-04-16T10:55:09Z</time></trkpt><trkpt lat="14.561978051996642" lon="120.98593718397653"><ele>7.0</ele><time>2026-04-16T10:55:11Z</time></trkpt><trkpt lat="14.561900381698457" lon="120.98596898014893"><ele>7.0</ele><time>2026-04-16T10:55:13Z</time></trkpt><trkpt lat="14.561829476205503" lon="120.98600155976906"><ele>7.0</ele><time>2026-04-16T10:55:15Z</time></trkpt><trkpt lat="14.561767287660443" lon="120.98605442233904"><ele>7.000000000000001</ele><time>2026-04-16T10:55:17Z</time></trkpt><trkpt lat="14.561677056831394" lon="120.98608117633219"><ele>7.0</ele><time>2026-04-16T10:55:19Z</time></trkpt><trkpt lat="14.561598519787813" lon="120.98611228346626"><ele>7.000000000000001</ele><time>2026-04-16T10:55:21Z</time></trkpt><trkpt lat="14.561529378122914" lon="120.98614047000223"><ele>7.0</ele><time>2026-04-16T10:55:23Z</time></trkpt><trkpt lat="14.561463248836494" lon="120.98616842430802"><ele>7.0</ele><time>2026-04-16T10:55:25Z</time></trkpt><trkpt lat="14.561406615928606" lon="120.98619725602371"><ele>7.0</ele><time>2026-04-16T10:55:27Z</time></trkpt><trkpt lat="14.56134035001039" lon="120.9862228513818"><ele>7.000000000000001</ele><time>2026-04-16T10:55:29Z</time></trkpt><trkpt lat="14.561257283541876" lon="120.9862508473033"><ele>7.0</ele><time>2026-04-16T10:55:32Z</time></trkpt><trkpt lat="14.56116906642547" lon="120.98627828943884"><ele>6.833333333333334</ele><time>2026-04-16T10:55:35Z</time></trkpt><trkpt lat="14.561099674746378" lon="120.98631779611215"><ele>6.666666666666667</ele><time>2026-04-16T10:55:39Z</time></trkpt><trkpt lat="14.561025280812231" lon="120.98637492889397"><ele>6.5</ele><time>2026-04-16T10:55:42Z</time></trkpt><trkpt lat="14.560967407925125" lon="120.98640666794243"><ele>6.333333333333334</ele><time>2026-04-16T10:55:44Z</time></trkpt><trkpt lat="14.560871161101883" lon="120.9864337966649"><ele>6.166666666666667</ele><time>2026-04-16T10:55:47Z</time></trkpt><trkpt lat="14.560793003760475" lon="120.98646104654162"><ele>6.0</ele><time>2026-04-16T10:55:51Z</time></trkpt><trkpt lat="14.560700482391228" lon="120.98652945067856"><ele>5.999999999999999</ele><time>2026-04-16T10:55:53Z</time></trkpt><trkpt lat="14.560635286195794" lon="120.98654912284842"><ele>6.0</ele><time>2026-04-16T10:56:01Z</time></trkpt><trkpt lat="14.560583841614145" lon="120.98660581748783"><ele>6.0</ele><time>2026-04-16T10:56:08Z</time></trkpt><trkpt lat="14.56051301902602" lon="120.98661748774094"><ele>6.0</ele><time>2026-04-16T10:56:11Z</time></trkpt><trkpt lat="14.560424350435968" lon="120.98663465036338"><ele>6.0</ele><time>2026-04-16T10:56:14Z</time></trkpt><trkpt lat="14.560363952293718" lon="120.98666417884205"><ele>5.999999999999999</ele><time>2026-04-16T10:56:16Z</time></trkpt><trkpt lat="14.560302409874406" lon="120.98669542285091"><ele>6.0</ele><time>2026-04-16T10:56:19Z</time></trkpt><trkpt lat="14.560232815628629" lon="120.98673320780814"><ele>6.0</ele><time>2026-04-16T10:56:22Z</time></trkpt><trkpt lat="14.560170028800904" lon="120.98675675542808"><ele>6.0</ele><time>2026-04-16T10:56:25Z</time></trkpt><trkpt lat="14.560078195265977" lon="120.98679599906289"><ele>6.0</ele><time>2026-04-16T10:56:28Z</time></trkpt><trkpt lat="14.560017950854228" lon="120.98682108385027"><ele>6.0</ele><time>2026-04-16T10:56:30Z</time></trkpt><trkpt lat="14.559942542305244" lon="120.98685283836089"><ele>6.0</ele><time>2026-04-16T10:56:33Z</time></trkpt><trkpt lat="14.559868368263752" lon="120.98688368436392"><ele>6.0</ele><time>2026-04-16T10:56:36Z</time></trkpt><trkpt lat="14.559794186863083" lon="120.98691725337922"><ele>6.0</ele><time>2026-04-16T10:56:38Z</time></trkpt><trkpt lat="14.559722378203121" lon="120.98694675368509"><ele>6.0</ele><time>2026-04-16T10:56:40Z</time></trkpt><trkpt lat="14.559624594760658" lon="120.98698726966842"><ele>6.0</ele><time>2026-04-16T10:56:42Z</time></trkpt><trkpt lat="14.55950202020073" lon="120.98703313982996"><ele>6.0</ele><time>2026-04-16T10:56:44Z</time></trkpt><trkpt lat="14.559432738824619" lon="120.98706157761174"><ele>6.0</ele><time>2026-04-16T10:56:45Z</time></trkpt><trkpt lat="14.55936178240331" lon="120.98708106033865"><ele>6.6</ele><time>2026-04-16T10:56:46Z</time></trkpt><trkpt lat="14.559279575691663" lon="120.98710706550507"><ele>7.199999999999999</ele><time>2026-04-16T10:56:47Z</time></trkpt><trkpt lat="14.559210204232366" lon="120.98713880676941"><ele>7.800000000000001</ele><time>2026-04-16T10:56:48Z</time></trkpt><trkpt lat="14.559109727921939" lon="120.98717998040107"><ele>8.4</ele><time>2026-04-16T10:56:49Z</time></trkpt><trkpt lat="14.559016834851484" lon="120.98721910208846"><ele>9.0</ele><time>2026-04-16T10:56:50Z</time></trkpt><trkpt lat="14.558928977911966" lon="120.98725733545717"><ele>9.0</ele><time>2026-04-16T10:56:51Z</time></trkpt><trkpt lat="14.55882265831983" lon="120.98730363049177"><ele>9.0</ele><time>2026-04-16T10:56:52Z</time></trkpt><trkpt lat="14.558715790527902" lon="120.98734685054714"><ele>9.0</ele><time>2026-04-16T10:56:53Z</time></trkpt><trkpt lat="14.558615354187385" lon="120.98738789152831"><ele>9.0</ele><time>2026-04-16T10:56:54Z</time></trkpt><trkpt lat="14.558508383327812" lon="120.98742441693324"><ele>9.0</ele><time>2026-04-16T10:56:55Z</time></trkpt><trkpt lat="14.558387085110622" lon="120.98746164131668"><ele>9.0</ele><time>2026-04-16T10:56:56Z</time></trkpt><trkpt lat="14.558264654673485" lon="120.98749740142686"><ele>9.0</ele><time>2026-04-16T10:56:57Z</time></trkpt><trkpt lat="14.558147215362455" lon="120.98753858813"><ele>9.0</ele><time>2026-04-16T10:56:58Z</time></trkpt><trkpt lat="14.558029958877489" lon="120.98757671268626"><ele>8.25</ele><time>2026-04-16T10:56:59Z</time></trkpt><trkpt lat="14.557904908849345" lon="120.98761853605255"><ele>7.5</ele><time>2026-04-16T10:57:00Z</time></trkpt><trkpt lat="14.55779106049015" lon="120.98765368208389"><ele>6.75</ele><time>2026-04-16T10:57:01Z</time></trkpt><trkpt lat="14.557678496186169" lon="120.98768297131198"><ele>6.0</ele><time>2026-04-16T10:57:02Z</time></trkpt><trkpt lat="14.557564484028118" lon="120.98771126558192"><ele>6.0</ele><time>2026-04-16T10:57:03Z</time></trkpt><trkpt lat="14.55746027719942" lon="120.98774641918925"><ele>6.0</ele><time>2026-04-16T10:57:04Z</time></trkpt><trkpt lat="14.557326572207527" lon="120.98779719352403"><ele>6.0</ele><time>2026-04-16T10:57:05Z</time></trkpt><trkpt lat="14.557191628434646" lon="120.98783965905817"><ele>6.0</ele><time>2026-04-16T10:57:06Z</time></trkpt><trkpt lat="14.55705180479652" lon="120.98787911852232"><ele>7.0</ele><time>2026-04-16T10:57:07Z</time></trkpt><trkpt lat="14.556905580345857" lon="120.98791790552231"><ele>8.0</ele><time>2026-04-16T10:57:08Z</time></trkpt><trkpt lat="14.556755949938582" lon="120.98795855115316"><ele>9.0</ele><time>2026-04-16T10:57:09Z</time></trkpt><trkpt lat="14.556594851955438" lon="120.98801848100992"><ele>9.0</ele><time>2026-04-16T10:57:10Z</time></trkpt><trkpt lat="14.55644397224357" lon="120.98807336411154"><ele>9.0</ele><time>2026-04-16T10:57:11Z</time></trkpt><trkpt lat="14.55628316619981" lon="120.98812022698631"><ele>9.0</ele><time>2026-04-16T10:57:12Z</time></trkpt><trkpt lat="14.556114811994714" lon="120.9881630740326"><ele>8.666666666666666</ele><time>2026-04-16T10:57:13Z</time></trkpt><trkpt lat="14.555945802591276" lon="120.9882140446233"><ele>8.333333333333332</ele><time>2026-04-16T10:57:14Z</time></trkpt><trkpt lat="14.555774270490758" lon="120.98826881929821"><ele>8.0</ele><time>2026-04-16T10:57:15Z</time></trkpt><trkpt lat="14.555604490355744" lon="120.9883182087474"><ele>8.0</ele><time>2026-04-16T10:57:16Z</time></trkpt><trkpt lat="14.55543805391161" lon="120.98836845130586"><ele>8.0</ele><time>2026-04-16T10:57:17Z</time></trkpt><trkpt lat="14.55527449963026" lon="120.98841696664581"><ele>8.0</ele><time>2026-04-16T10:57:18Z</time></trkpt><trkpt lat="14.555108248661002" lon="120.98846793974684"><ele>7.333333333333333</ele><time>2026-04-16T10:57:19Z</time></trkpt><trkpt lat="14.554947329736741" lon="120.98851236087312"><ele>6.666666666666666</ele><time>2026-04-16T10:57:20Z</time></trkpt><trkpt lat="14.55478105588097" lon="120.98856316694787"><ele>6.0</ele><time>2026-04-16T10:57:21Z</time></trkpt><trkpt lat="14.554611834628265" lon="120.98862032787274"><ele>6.333333333333334</ele><time>2026-04-16T10:57:22Z</time></trkpt><trkpt lat="14.55444735779799" lon="120.98867333589536"><ele>6.666666666666667</ele><time>2026-04-16T10:57:23Z</time></trkpt><trkpt lat="14.554282723431754" lon="120.98872408374174"><ele>7.0</ele><time>2026-04-16T10:57:24Z</time></trkpt><trkpt lat="14.554121097143604" lon="120.9887720618155"><ele>7.0</ele><time>2026-04-16T10:57:25Z</time></trkpt><trkpt lat="14.55396719569365" lon="120.9888255690957"><ele>7.0</ele><time>2026-04-16T10:57:26Z</time></trkpt><trkpt lat="14.553800723557636" lon="120.98888800761978"><ele>7.0</ele><time>2026-04-16T10:57:27Z</time></trkpt><trkpt lat="14.55363072416271" lon="120.9889468529853"><ele>6.666666666666667</ele><time>2026-04-16T10:57:28Z</time></trkpt><trkpt lat="14.553460401964985" lon="120.98899860093259"><ele>6.333333333333334</ele><time>2026-04-16T10:57:29Z</time></trkpt><trkpt lat="14.55329914565824" lon="120.98904708889314"><ele>6.0</ele><time>2026-04-16T10:57:30Z</time></trkpt><trkpt lat="14.55315399694335" lon="120.98909339013865"><ele>6.0</ele><time>2026-04-16T10:57:31Z</time></trkpt><trkpt lat="14.553022166656683" lon="120.98913667967575"><ele>6.0</ele><time>2026-04-16T10:57:32Z</time></trkpt><trkpt lat="14.552912653659538" lon="120.98917043692443"><ele>6.0</ele><time>2026-04-16T10:57:33Z</time></trkpt><trkpt lat="14.552815932887892" lon="120.98920094169138"><ele>6.0</ele><time>2026-04-16T10:57:34Z</time></trkpt><trkpt lat="14.552724256808595" lon="120.98922829029715"><ele>6.0</ele><time>2026-04-16T10:57:35Z</time></trkpt><trkpt lat="14.552648073069458" lon="120.989249962108"><ele>6.0</ele><time>2026-04-16T10:57:36Z</time></trkpt><trkpt lat="14.552577296588995" lon="120.98927124997363"><ele>6.0</ele><time>2026-04-16T10:57:37Z</time></trkpt><trkpt lat="14.552475805043848" lon="120.98930390542895"><ele>6.0</ele><time>2026-04-16T10:57:39Z</time></trkpt><trkpt lat="14.552392044910654" lon="120.98932194280914"><ele>6.0</ele><time>2026-04-16T10:57:42Z</time></trkpt><trkpt lat="14.552306781947003" lon="120.98926856987585"><ele>6.0</ele><time>2026-04-16T10:57:44Z</time></trkpt><trkpt lat="14.55223967238275" lon="120.98915527847304"><ele>6.0</ele><time>2026-04-16T10:57:46Z</time></trkpt><trkpt lat="14.552222411331178" lon="120.98908088871477"><ele>6.0</ele><time>2026-04-16T10:57:47Z</time></trkpt><trkpt lat="14.552202526682859" lon="120.98900079952477"><ele>6.0</ele><time>2026-04-16T10:57:48Z</time></trkpt><trkpt lat="14.552183427375688" lon="120.9889234219388"><ele>6.0</ele><time>2026-04-16T10:57:49Z</time></trkpt><trkpt lat="14.552159570501148" lon="120.98884376282865"><ele>6.0</ele><time>2026-04-16T10:57:50Z</time></trkpt><trkpt lat="14.552137359546963" lon="120.98876689523644"><ele>6.0</ele><time>2026-04-16T10:57:51Z</time></trkpt><trkpt lat="14.552116789650041" lon="120.98870184359185"><ele>6.0</ele><time>2026-04-16T10:57:52Z</time></trkpt><trkpt lat="14.552093467589494" lon="120.9886381058427"><ele>6.0</ele><time>2026-04-16T10:57:53Z</time></trkpt><trkpt lat="14.552058571260968" lon="120.9885303639388"><ele>6.0</ele><time>2026-04-16T10:57:55Z</time></trkpt><trkpt lat="14.552036398219744" lon="120.98844826465933"><ele>6.0</ele><time>2026-04-16T10:57:57Z</time></trkpt><trkpt lat="14.551986399400732" lon="120.98838730383072"><ele>6.0</ele><time>2026-04-16T10:58:00Z</time></trkpt><trkpt lat="14.551921047758867" lon="120.98838732381812"><ele>6.0</ele><time>2026-04-16T10:58:03Z</time></trkpt><trkpt lat="14.551868811143619" lon="120.98842491309293"><ele>5.8</ele><time>2026-04-16T10:58:08Z</time></trkpt><trkpt lat="14.551876846844475" lon="120.98852304766007"><ele>5.6</ele><time>2026-04-16T10:58:14Z</time></trkpt><trkpt lat="14.551935909196892" lon="120.9886547944868"><ele>5.4</ele><time>2026-04-16T10:58:16Z</time></trkpt><trkpt lat="14.5519591081202" lon="120.988743689123"><ele>5.2</ele><time>2026-04-16T10:58:17Z</time></trkpt><trkpt lat="14.55198741200703" lon="120.98884026644608"><ele>5.0</ele><time>2026-04-16T10:58:18Z</time></trkpt><trkpt lat="14.552019466242474" lon="120.98894604710328"><ele>5.2</ele><time>2026-04-16T10:58:19Z</time></trkpt><trkpt lat="14.552058716776877" lon="120.9890545509565"><ele>5.4</ele><time>2026-04-16T10:58:20Z</time></trkpt><trkpt lat="14.55209465775043" lon="120.98915858012796"><ele>5.6</ele><time>2026-04-16T10:58:21Z</time></trkpt><trkpt lat="14.552127557674023" lon="120.9892641074932"><ele>5.8</ele><time>2026-04-16T10:58:22Z</time></trkpt><trkpt lat="14.552158870040998" lon="120.98937071051478"><ele>6.0</ele><time>2026-04-16T10:58:23Z</time></trkpt><trkpt lat="14.552189801320411" lon="120.98946942355008"><ele>6.666666666666667</ele><time>2026-04-16T10:58:24Z</time></trkpt><trkpt lat="14.552220165413315" lon="120.98956125752946"><ele>7.333333333333334</ele><time>2026-04-16T10:58:25Z</time></trkpt><trkpt lat="14.552243288614768" lon="120.98964599725208"><ele>8.0</ele><time>2026-04-16T10:58:26Z</time></trkpt><trkpt lat="14.552278558318129" lon="120.98973215351394"><ele>8.666666666666668</ele><time>2026-04-16T10:58:27Z</time></trkpt><trkpt lat="14.552306700481" lon="120.98981685598662"><ele>9.333333333333334</ele><time>2026-04-16T10:58:28Z</time></trkpt><trkpt lat="14.552331542101705" lon="120.98989781360635"><ele>10.0</ele><time>2026-04-16T10:58:29Z</time></trkpt><trkpt lat="14.552352505463318" lon="120.98997110210819"><ele>10.0</ele><time>2026-04-16T10:58:30Z</time></trkpt><trkpt lat="14.552371802248482" lon="120.99004228504151"><ele>10.0</ele><time>2026-04-16T10:58:31Z</time></trkpt><trkpt lat="14.552407536594869" lon="120.99016059276886"><ele>10.0</ele><time>2026-04-16T10:58:33Z</time></trkpt><trkpt lat="14.55244984338142" lon="120.9902693708324"><ele>10.0</ele><time>2026-04-16T10:58:35Z</time></trkpt><trkpt lat="14.55248463322683" lon="120.99038019077429"><ele>10.0</ele><time>2026-04-16T10:58:37Z</time></trkpt><trkpt lat="14.552516415087313" lon="120.99052163947279"><ele>10.0</ele><time>2026-04-16T10:58:39Z</time></trkpt><trkpt lat="14.552533268469354" lon="120.99059929443452"><ele>10.0</ele><time>2026-04-16T10:58:40Z</time></trkpt><trkpt lat="14.552564543505193" lon="120.99069317674648"><ele>10.0</ele><time>2026-04-16T10:58:41Z</time></trkpt><trkpt lat="14.552588502290531" lon="120.99078294465366"><ele>10.0</ele><time>2026-04-16T10:58:42Z</time></trkpt><trkpt lat="14.552618355832873" lon="120.99088369944518"><ele>10.0</ele><time>2026-04-16T10:58:43Z</time></trkpt><trkpt lat="14.552644870962398" lon="120.99098411929675"><ele>10.0</ele><time>2026-04-16T10:58:44Z</time></trkpt><trkpt lat="14.552674480725626" lon="120.9910861453412"><ele>10.0</ele><time>2026-04-16T10:58:45Z</time></trkpt><trkpt lat="14.552709753520448" lon="120.99119789418384"><ele>10.0</ele><time>2026-04-16T10:58:46Z</time></trkpt><trkpt lat="14.55274796456603" lon="120.99130533108178"><ele>10.0</ele><time>2026-04-16T10:58:47Z</time></trkpt><trkpt lat="14.552785513744816" lon="120.99142856455242"><ele>10.0</ele><time>2026-04-16T10:58:48Z</time></trkpt><trkpt lat="14.552819822255726" lon="120.99153987857459"><ele>10.0</ele><time>2026-04-16T10:58:49Z</time></trkpt><trkpt lat="14.552859969519119" lon="120.99165834129046"><ele>10.0</ele><time>2026-04-16T10:58:50Z</time></trkpt><trkpt lat="14.55289542564136" lon="120.9917744521391"><ele>10.0</ele><time>2026-04-16T10:58:51Z</time></trkpt><trkpt lat="14.552930681869901" lon="120.99189699818545"><ele>10.0</ele><time>2026-04-16T10:58:52Z</time></trkpt><trkpt lat="14.552975815233577" lon="120.99202077487668"><ele>10.0</ele><time>2026-04-16T10:58:53Z</time></trkpt><trkpt lat="14.553011459296957" lon="120.99215033148852"><ele>10.0</ele><time>2026-04-16T10:58:54Z</time></trkpt><trkpt lat="14.553045220324522" lon="120.99228200110863"><ele>10.0</ele><time>2026-04-16T10:58:55Z</time></trkpt><trkpt lat="14.55308449845399" lon="120.99240560630598"><ele>9.75</ele><time>2026-04-16T10:58:56Z</time></trkpt><trkpt lat="14.553127343790347" lon="120.99253185088594"><ele>9.5</ele><time>2026-04-16T10:58:57Z</time></trkpt><trkpt lat="14.553166498270595" lon="120.99266259305854"><ele>9.25</ele><time>2026-04-16T10:58:58Z</time></trkpt><trkpt lat="14.55319433697024" lon="120.99279939801164"><ele>9.0</ele><time>2026-04-16T10:58:59Z</time></trkpt><trkpt lat="14.553215009280478" lon="120.99292893169526"><ele>9.0</ele><time>2026-04-16T10:59:00Z</time></trkpt><trkpt lat="14.553238202589638" lon="120.99305519479651"><ele>9.0</ele><time>2026-04-16T10:59:01Z</time></trkpt><trkpt lat="14.553266556551373" lon="120.99318479220325"><ele>9.0</ele><time>2026-04-16T10:59:02Z</time></trkpt><trkpt lat="14.553291509209268" lon="120.99331542814465"><ele>9.0</ele><time>2026-04-16T10:59:03Z</time></trkpt><trkpt lat="14.553307516245825" lon="120.99344454319314"><ele>9.2</ele><time>2026-04-16T10:59:04Z</time></trkpt><trkpt lat="14.553314158762706" lon="120.99356313396726"><ele>9.4</ele><time>2026-04-16T10:59:05Z</time></trkpt><trkpt lat="14.553320235101465" lon="120.99367308028233"><ele>9.6</ele><time>2026-04-16T10:59:06Z</time></trkpt><trkpt lat="14.553334242643013" lon="120.99378120467867"><ele>9.8</ele><time>2026-04-16T10:59:07Z</time></trkpt><trkpt lat="14.553341270714247" lon="120.99388377013197"><ele>10.0</ele><time>2026-04-16T10:59:08Z</time></trkpt><trkpt lat="14.553346641115558" lon="120.99397549351558"><ele>10.0</ele><time>2026-04-16T10:59:09Z</time></trkpt><trkpt lat="14.553347875224663" lon="120.9940626346906"><ele>10.0</ele><time>2026-04-16T10:59:10Z</time></trkpt><trkpt lat="14.55335641902925" lon="120.99413556593468"><ele>10.0</ele><time>2026-04-16T10:59:11Z</time></trkpt><trkpt lat="14.553366890231104" lon="120.99424886543201"><ele>10.0</ele><time>2026-04-16T10:59:13Z</time></trkpt><trkpt lat="14.553372906015932" lon="120.99437588468581"><ele>10.0</ele><time>2026-04-16T10:59:15Z</time></trkpt><trkpt lat="14.553386199351573" lon="120.99445544433587"><ele>9.4</ele><time>2026-04-16T10:59:16Z</time></trkpt><trkpt lat="14.553400578902856" lon="120.9945540407044"><ele>8.8</ele><time>2026-04-16T10:59:17Z</time></trkpt><trkpt lat="14.553427170904946" lon="120.9946636639757"><ele>8.2</ele><time>2026-04-16T10:59:18Z</time></trkpt><trkpt lat="14.553460561559147" lon="120.99477419954093"><ele>7.6</ele><time>2026-04-16T10:59:19Z</time></trkpt><trkpt lat="14.553477719020277" lon="120.99489538922302"><ele>7.0</ele><time>2026-04-16T10:59:20Z</time></trkpt><trkpt lat="14.553505859167062" lon="120.99502725679848"><ele>8.5</ele><time>2026-04-16T10:59:21Z</time></trkpt><trkpt lat="14.553533358214002" lon="120.99516756992334"><ele>10.0</ele><time>2026-04-16T10:59:22Z</time></trkpt><trkpt lat="14.553545748928899" lon="120.99529563366072"><ele>11.5</ele><time>2026-04-16T10:59:23Z</time></trkpt><trkpt lat="14.553569346629898" lon="120.99540549197306"><ele>13.0</ele><time>2026-04-16T10:59:24Z</time></trkpt><trkpt lat="14.553593681166927" lon="120.99551396606623"><ele>13.0</ele><time>2026-04-16T10:59:25Z</time></trkpt><trkpt lat="14.553617584639651" lon="120.9956195621462"><ele>13.0</ele><time>2026-04-16T10:59:26Z</time></trkpt><trkpt lat="14.553647807031627" lon="120.99573079419831"><ele>13.0</ele><time>2026-04-16T10:59:27Z</time></trkpt><trkpt lat="14.5536701781401" lon="120.99584489119944"><ele>13.0</ele><time>2026-04-16T10:59:28Z</time></trkpt><trkpt lat="14.55369776259864" lon="120.99596502871418"><ele>13.0</ele><time>2026-04-16T10:59:29Z</time></trkpt><trkpt lat="14.553723511128725" lon="120.9960709334307"><ele>12.200000000000001</ele><time>2026-04-16T10:59:30Z</time></trkpt><trkpt lat="14.553747762115082" lon="120.9961606292254"><ele>11.4</ele><time>2026-04-16T10:59:31Z</time></trkpt><trkpt lat="14.553768854690398" lon="120.99623821187795"><ele>10.600000000000001</ele><time>2026-04-16T10:59:32Z</time></trkpt><trkpt lat="14.553790233300353" lon="120.99632284268594"><ele>9.8</ele><time>2026-04-16T10:59:33Z</time></trkpt><trkpt lat="14.553814932522586" lon="120.99642781235926"><ele>9.0</ele><time>2026-04-16T10:59:34Z</time></trkpt><trkpt lat="14.553842338129424" lon="120.99652667175377"><ele>9.0</ele><time>2026-04-16T10:59:35Z</time></trkpt><trkpt lat="14.553865589224303" lon="120.99664117624208"><ele>9.0</ele><time>2026-04-16T10:59:36Z</time></trkpt><trkpt lat="14.553897607737975" lon="120.9967490127841"><ele>9.0</ele><time>2026-04-16T10:59:37Z</time></trkpt><trkpt lat="14.553920120442612" lon="120.99683817936508"><ele>9.0</ele><time>2026-04-16T10:59:38Z</time></trkpt><trkpt lat="14.553936089058258" lon="120.99693153725653"><ele>9.0</ele><time>2026-04-16T10:59:39Z</time></trkpt><trkpt lat="14.55395615417641" lon="120.99700148584398"><ele>8.571428571428573</ele><time>2026-04-16T10:59:40Z</time></trkpt><trkpt lat="14.553983398245983" lon="120.99706177577134"><ele>8.142857142857142</ele><time>2026-04-16T10:59:41Z</time></trkpt><trkpt lat="14.55402417878763" lon="120.99711905427763"><ele>7.714285714285714</ele><time>2026-04-16T10:59:43Z</time></trkpt><trkpt lat="14.554094852237508" lon="120.99715656932901"><ele>7.2857142857142865</ele><time>2026-04-16T10:59:45Z</time></trkpt><trkpt lat="14.554162357960251" lon="120.99717883992562"><ele>6.857142857142858</ele><time>2026-04-16T10:59:48Z</time></trkpt><trkpt lat="14.554231789629966" lon="120.99718415033298"><ele>6.428571428571428</ele><time>2026-04-16T10:59:50Z</time></trkpt><trkpt lat="14.554289331958959" lon="120.99715506243133"><ele>6.0</ele><time>2026-04-16T10:59:55Z</time></trkpt><trkpt lat="14.554395535508702" lon="120.99712228141932"><ele>6.0</ele><time>2026-04-16T11:00:02Z</time></trkpt><trkpt lat="14.554482573715077" lon="120.99711741788518"><ele>6.0</ele><time>2026-04-16T11:00:04Z</time></trkpt><trkpt lat="14.554553352041081" lon="120.99713266956698"><ele>6.0</ele><time>2026-04-16T11:00:07Z</time></trkpt><trkpt lat="14.554659608612539" lon="120.9971496455693"><ele>6.0</ele><time>2026-04-16T11:00:10Z</time></trkpt><trkpt lat="14.554752803519298" lon="120.99715859944155"><ele>6.0</ele><time>2026-04-16T11:00:12Z</time></trkpt><trkpt lat="14.554850052556214" lon="120.99714491599244"><ele>6.5</ele><time>2026-04-16T11:00:14Z</time></trkpt><trkpt lat="14.554923583738885" lon="120.99712602578016"><ele>7.0</ele><time>2026-04-16T11:00:16Z</time></trkpt><trkpt lat="14.554999274970456" lon="120.99711065780237"><ele>7.5</ele><time>2026-04-16T11:00:18Z</time></trkpt><trkpt lat="14.555088979880571" lon="120.99708670619297"><ele>8.0</ele><time>2026-04-16T11:00:20Z</time></trkpt><trkpt lat="14.55517302448868" lon="120.99706969049882"><ele>8.5</ele><time>2026-04-16T11:00:22Z</time></trkpt><trkpt lat="14.555263641343812" lon="120.99704383301021"><ele>9.0</ele><time>2026-04-16T11:00:25Z</time></trkpt><trkpt lat="14.55535847664167" lon="120.99702176528612"><ele>9.0</ele><time>2026-04-16T11:00:27Z</time></trkpt><trkpt lat="14.555456009507894" lon="120.99699610146571"><ele>9.0</ele><time>2026-04-16T11:00:29Z</time></trkpt><trkpt lat="14.555539298300706" lon="120.99697681056229"><ele>9.0</ele><time>2026-04-16T11:00:31Z</time></trkpt><trkpt lat="14.555612363036836" lon="120.99696740916131"><ele>9.0</ele><time>2026-04-16T11:00:33Z</time></trkpt><trkpt lat="14.555700396203784" lon="120.99693525730076"><ele>9.0</ele><time>2026-04-16T11:00:35Z</time></trkpt><trkpt lat="14.555770190961217" lon="120.99690325230208"><ele>9.0</ele><time>2026-04-16T11:00:36Z</time></trkpt><trkpt lat="14.55585714217057" lon="120.9968690861688"><ele>9.0</ele><time>2026-04-16T11:00:37Z</time></trkpt><trkpt lat="14.555938014376668" lon="120.99685230887079"><ele>9.0</ele><time>2026-04-16T11:00:38Z</time></trkpt><trkpt lat="14.55601931993644" lon="120.99684871242324"><ele>9.0</ele><time>2026-04-16T11:00:39Z</time></trkpt><trkpt lat="14.556090360055137" lon="120.9968453011411"><ele>9.0</ele><time>2026-04-16T11:00:40Z</time></trkpt><trkpt lat="14.55620731423775" lon="120.99680959954568"><ele>9.0</ele><time>2026-04-16T11:00:42Z</time></trkpt><trkpt lat="14.556327828801425" lon="120.99680597146885"><ele>9.2</ele><time>2026-04-16T11:00:44Z</time></trkpt><trkpt lat="14.556433963451346" lon="120.9967751172712"><ele>9.4</ele><time>2026-04-16T11:00:46Z</time></trkpt><trkpt lat="14.556550841585993" lon="120.99677509776748"><ele>9.6</ele><time>2026-04-16T11:00:48Z</time></trkpt><trkpt lat="14.556617360001388" lon="120.99677797031579"><ele>9.8</ele><time>2026-04-16T11:00:49Z</time></trkpt><trkpt lat="14.556731497438719" lon="120.9967475557291"><ele>10.0</ele><time>2026-04-16T11:00:51Z</time></trkpt><trkpt lat="14.556795357206996" lon="120.99672550025342"><ele>10.0</ele><time>2026-04-16T11:00:52Z</time></trkpt><trkpt lat="14.556859237301392" lon="120.99670563531018"><ele>10.0</ele><time>2026-04-16T11:00:53Z</time></trkpt><trkpt lat="14.55692100148999" lon="120.99668662487575"><ele>10.0</ele><time>2026-04-16T11:00:54Z</time></trkpt><trkpt lat="14.557041730466526" lon="120.99666089547446"><ele>10.0</ele><time>2026-04-16T11:00:56Z</time></trkpt><trkpt lat="14.557107521881425" lon="120.99663584846579"><ele>10.0</ele><time>2026-04-16T11:00:57Z</time></trkpt><trkpt lat="14.557182908846158" lon="120.99660607279623"><ele>10.0</ele><time>2026-04-16T11:00:58Z</time></trkpt><trkpt lat="14.557252553218257" lon="120.99659038344092"><ele>10.166666666666668</ele><time>2026-04-16T11:00:59Z</time></trkpt><trkpt lat="14.557317978295297" lon="120.99656768321833"><ele>10.333333333333334</ele><time>2026-04-16T11:01:00Z</time></trkpt><trkpt lat="14.557394002736354" lon="120.99653911824362"><ele>10.5</ele><time>2026-04-16T11:01:01Z</time></trkpt><trkpt lat="14.557472707964255" lon="120.99649995185045"><ele>10.666666666666666</ele><time>2026-04-16T11:01:02Z</time></trkpt><trkpt lat="14.557560648567788" lon="120.99648483352699"><ele>10.833333333333332</ele><time>2026-04-16T11:01:03Z</time></trkpt><trkpt lat="14.557656394869742" lon="120.99645399690183"><ele>11.0</ele><time>2026-04-16T11:01:04Z</time></trkpt><trkpt lat="14.557754199312592" lon="120.99642729729466"><ele>11.0</ele><time>2026-04-16T11:01:05Z</time></trkpt><trkpt lat="14.55785718636115" lon="120.996397456076"><ele>11.0</ele><time>2026-04-16T11:01:06Z</time></trkpt><trkpt lat="14.557946702843937" lon="120.99636066550586"><ele>11.0</ele><time>2026-04-16T11:01:07Z</time></trkpt><trkpt lat="14.558024084344499" lon="120.99633065173303"><ele>11.0</ele><time>2026-04-16T11:01:08Z</time></trkpt><trkpt lat="14.558089375552179" lon="120.99631606091835"><ele>11.0</ele><time>2026-04-16T11:01:09Z</time></trkpt><trkpt lat="14.55814930507205" lon="120.99628399143354"><ele>11.0</ele><time>2026-04-16T11:01:10Z</time></trkpt><trkpt lat="14.558189371102321" lon="120.99620033647662"><ele>10.666666666666666</ele><time>2026-04-16T11:01:12Z</time></trkpt><trkpt lat="14.558226340141761" lon="120.9961354806902"><ele>10.333333333333332</ele><time>2026-04-16T11:01:21Z</time></trkpt><trkpt lat="14.558190718675194" lon="120.99607037490095"><ele>10.0</ele><time>2026-04-16T11:01:23Z</time></trkpt><trkpt lat="14.558169412957966" lon="120.99599055434824"><ele>9.666666666666666</ele><time>2026-04-16T11:01:25Z</time></trkpt><trkpt lat="14.558138622891644" lon="120.99592445345101"><ele>9.333333333333334</ele><time>2026-04-16T11:01:28Z</time></trkpt><trkpt lat="14.558076334694844" lon="120.99586050345911"><ele>9.0</ele><time>2026-04-16T11:01:30Z</time></trkpt><trkpt lat="14.558012248439246" lon="120.99574782595278"><ele>9.0</ele><time>2026-04-16T11:01:32Z</time></trkpt><trkpt lat="14.557959775749426" lon="120.99564012035955"><ele>9.0</ele><time>2026-04-16T11:01:34Z</time></trkpt><trkpt lat="14.557923834670351" lon="120.99557847327908"><ele>9.0</ele><time>2026-04-16T11:01:35Z</time></trkpt><trkpt lat="14.557880538982108" lon="120.99550553750163"><ele>9.0</ele><time>2026-04-16T11:01:36Z</time></trkpt><trkpt lat="14.557840664841208" lon="120.99542761889043"><ele>9.0</ele><time>2026-04-16T11:01:37Z</time></trkpt><trkpt lat="14.557802218152887" lon="120.99534736722484"><ele>9.0</ele><time>2026-04-16T11:01:38.066Z</time></trkpt><trkpt lat="14.557766364930881" lon="120.995267403707"><ele>8.833333333333334</ele><time>2026-04-16T11:01:39.046Z</time></trkpt><trkpt lat="14.557735772911359" lon="120.9951988373765"><ele>8.666666666666666</ele><time>2026-04-16T11:01:40.043Z</time></trkpt><trkpt lat="14.557709944024895" lon="120.99513413987779"><ele>8.5</ele><time>2026-04-16T11:01:41.047Z</time></trkpt><trkpt lat="14.557681888571397" lon="120.99506617901247"><ele>8.333333333333332</ele><time>2026-04-16T11:01:42.04Z</time></trkpt><trkpt lat="14.55764748974174" lon="120.9950049888511"><ele>8.166666666666666</ele><time>2026-04-16T11:01:43.037Z</time></trkpt><trkpt lat="14.557582300474499" lon="120.99491266133985"><ele>8.0</ele><time>2026-04-16T11:01:45.034Z</time></trkpt><trkpt lat="14.557544942791777" lon="120.99480926611743"><ele>8.0</ele><time>2026-04-16T11:01:47.035Z</time></trkpt><trkpt lat="14.55752230513821" lon="120.99474794566164"><ele>8.0</ele><time>2026-04-16T11:01:48.035Z</time></trkpt><trkpt lat="14.557486258728652" lon="120.99467308167442"><ele>8.0</ele><time>2026-04-16T11:01:49.036Z</time></trkpt><trkpt lat="14.557442590521783" lon="120.99458586314385"><ele>8.0</ele><time>2026-04-16T11:01:50.034Z</time></trkpt><trkpt lat="14.557406368367898" lon="120.9945157023385"><ele>8.0</ele><time>2026-04-16T11:01:51.033Z</time></trkpt><trkpt lat="14.55816113311196" lon="120.9954592574069"><ele>9.0</ele><time>2026-04-16T11:03:07Z</time></trkpt></trkseg></trk></gpx>